<?xml version="1.0" encoding="UTF-8" standalone="no" ?>
<gpx xmlns="http://www.topografix.com/GPX/1/1" xmlns:xsi="http://www.w3.org/2001/XMLSchema-instance" xsi:schemaLocation="http://www.topografix.com/GPX/1/1 http://www.topografix.com/GPX/1/1/gpx.xsd" version="1.1" creator="VisuGPX - https://www.visugpx.com">
  <metadata>
    <name>St Jeannet Col de Vence</name>
    <desc><![CDATA[49 km D 1772m
Tres belle rando à faire dans ce sens, belles descentes techniques, du déniv donc tout ce qu'on aime !
On peut varianter en plus avec la descente du plateau de St Barnabé sur Bramafan et retour par Courme, ou bien réduire en shintant la boucle du plateau de St Barnabé et en allant directement par la route du col de Vence à la descente de la mine.]]></desc>
  </metadata>
  <trk>
    <name><![CDATA[20180503175130-B5Ask]]></name>
    <trkseg>
      <trkpt lat="43.74841" lon="7.1448">
        <ele>404</ele>
        <time>2018-05-03T07:10:15.000Z</time>
      </trkpt>
      <trkpt lat="43.74845" lon="7.14479">
        <ele>405</ele>
        <time>2018-05-03T07:10:18.000Z</time>
      </trkpt>
      <trkpt lat="43.74848" lon="7.14478">
        <ele>405</ele>
        <time>2018-05-03T07:10:20.000Z</time>
      </trkpt>
      <trkpt lat="43.74851" lon="7.14477">
        <ele>406</ele>
        <time>2018-05-03T07:10:22.000Z</time>
      </trkpt>
      <trkpt lat="43.74855" lon="7.14477">
        <ele>406</ele>
        <time>2018-05-03T07:10:25.000Z</time>
      </trkpt>
      <trkpt lat="43.74856" lon="7.14476">
        <ele>407</ele>
        <time>2018-05-03T07:10:26.000Z</time>
      </trkpt>
      <trkpt lat="43.74857" lon="7.14475">
        <ele>407</ele>
        <time>2018-05-03T07:10:27.000Z</time>
      </trkpt>
      <trkpt lat="43.74864" lon="7.14473">
        <ele>408</ele>
        <time>2018-05-03T07:10:32.000Z</time>
      </trkpt>
      <trkpt lat="43.74866" lon="7.14472">
        <ele>408</ele>
        <time>2018-05-03T07:10:33.000Z</time>
      </trkpt>
      <trkpt lat="43.74872" lon="7.1447">
        <ele>409</ele>
        <time>2018-05-03T07:10:37.000Z</time>
      </trkpt>
      <trkpt lat="43.74875" lon="7.14467">
        <ele>410</ele>
        <time>2018-05-03T07:10:40.000Z</time>
      </trkpt>
      <trkpt lat="43.7488" lon="7.14464">
        <ele>410</ele>
        <time>2018-05-03T07:10:43.000Z</time>
      </trkpt>
      <trkpt lat="43.74886" lon="7.14462">
        <ele>411</ele>
        <time>2018-05-03T07:10:47.000Z</time>
      </trkpt>
      <trkpt lat="43.7489" lon="7.14461">
        <ele>411</ele>
        <time>2018-05-03T07:10:49.000Z</time>
      </trkpt>
      <trkpt lat="43.74898" lon="7.14459">
        <ele>411</ele>
        <time>2018-05-03T07:10:54.000Z</time>
      </trkpt>
      <trkpt lat="43.74902" lon="7.14459">
        <ele>412</ele>
        <time>2018-05-03T07:10:56.000Z</time>
      </trkpt>
      <trkpt lat="43.74907" lon="7.1446">
        <ele>412</ele>
        <time>2018-05-03T07:10:59.000Z</time>
      </trkpt>
      <trkpt lat="43.74915" lon="7.1446">
        <ele>412</ele>
        <time>2018-05-03T07:11:04.000Z</time>
      </trkpt>
      <trkpt lat="43.74922" lon="7.14463">
        <ele>417</ele>
        <time>2018-05-03T07:11:09.000Z</time>
      </trkpt>
      <trkpt lat="43.7493" lon="7.14465">
        <ele>417</ele>
        <time>2018-05-03T07:11:14.000Z</time>
      </trkpt>
      <trkpt lat="43.74931" lon="7.14466">
        <ele>417</ele>
        <time>2018-05-03T07:11:15.000Z</time>
      </trkpt>
      <trkpt lat="43.7494" lon="7.14469">
        <ele>417</ele>
        <time>2018-05-03T07:11:21.000Z</time>
      </trkpt>
      <trkpt lat="43.74946" lon="7.14472">
        <ele>417</ele>
        <time>2018-05-03T07:11:26.000Z</time>
      </trkpt>
      <trkpt lat="43.74949" lon="7.14473">
        <ele>417</ele>
        <time>2018-05-03T07:11:28.000Z</time>
      </trkpt>
      <trkpt lat="43.74954" lon="7.14474">
        <ele>418</ele>
        <time>2018-05-03T07:11:32.000Z</time>
      </trkpt>
      <trkpt lat="43.74959" lon="7.14474">
        <ele>418</ele>
        <time>2018-05-03T07:11:35.000Z</time>
      </trkpt>
      <trkpt lat="43.74961" lon="7.14476">
        <ele>418</ele>
        <time>2018-05-03T07:11:37.000Z</time>
      </trkpt>
      <trkpt lat="43.74964" lon="7.14477">
        <ele>419</ele>
        <time>2018-05-03T07:11:40.000Z</time>
      </trkpt>
      <trkpt lat="43.74966" lon="7.14477">
        <ele>419</ele>
        <time>2018-05-03T07:11:42.000Z</time>
      </trkpt>
      <trkpt lat="43.7497" lon="7.14474">
        <ele>419</ele>
        <time>2018-05-03T07:11:45.000Z</time>
      </trkpt>
      <trkpt lat="43.7497" lon="7.14473">
        <ele>419</ele>
        <time>2018-05-03T07:11:46.000Z</time>
      </trkpt>
      <trkpt lat="43.74976" lon="7.14462">
        <ele>420</ele>
        <time>2018-05-03T07:11:52.000Z</time>
      </trkpt>
      <trkpt lat="43.74977" lon="7.1446">
        <ele>420</ele>
        <time>2018-05-03T07:11:53.000Z</time>
      </trkpt>
      <trkpt lat="43.74978" lon="7.14458">
        <ele>420</ele>
        <time>2018-05-03T07:11:54.000Z</time>
      </trkpt>
      <trkpt lat="43.74984" lon="7.14448">
        <ele>422</ele>
        <time>2018-05-03T07:12:00.000Z</time>
      </trkpt>
      <trkpt lat="43.74985" lon="7.14447">
        <ele>422</ele>
        <time>2018-05-03T07:12:01.000Z</time>
      </trkpt>
      <trkpt lat="43.74989" lon="7.14442">
        <ele>422</ele>
        <time>2018-05-03T07:12:05.000Z</time>
      </trkpt>
      <trkpt lat="43.74992" lon="7.14442">
        <ele>423</ele>
        <time>2018-05-03T07:12:07.000Z</time>
      </trkpt>
      <trkpt lat="43.74997" lon="7.1444">
        <ele>423</ele>
        <time>2018-05-03T07:12:11.000Z</time>
      </trkpt>
      <trkpt lat="43.74997" lon="7.14439">
        <ele>423</ele>
        <time>2018-05-03T07:12:13.000Z</time>
      </trkpt>
      <trkpt lat="43.75001" lon="7.1444">
        <ele>431</ele>
        <time>2018-05-03T07:12:16.000Z</time>
      </trkpt>
      <trkpt lat="43.75004" lon="7.14441">
        <ele>431</ele>
        <time>2018-05-03T07:12:18.000Z</time>
      </trkpt>
      <trkpt lat="43.75009" lon="7.14442">
        <ele>432</ele>
        <time>2018-05-03T07:12:21.000Z</time>
      </trkpt>
      <trkpt lat="43.75017" lon="7.14446">
        <ele>432</ele>
        <time>2018-05-03T07:12:26.000Z</time>
      </trkpt>
      <trkpt lat="43.75018" lon="7.14445">
        <ele>432</ele>
        <time>2018-05-03T07:12:28.000Z</time>
      </trkpt>
      <trkpt lat="43.75019" lon="7.1444">
        <ele>432</ele>
        <time>2018-05-03T07:12:31.000Z</time>
      </trkpt>
      <trkpt lat="43.75018" lon="7.14438">
        <ele>432</ele>
        <time>2018-05-03T07:12:32.000Z</time>
      </trkpt>
      <trkpt lat="43.75018" lon="7.14437">
        <ele>432</ele>
        <time>2018-05-03T07:12:33.000Z</time>
      </trkpt>
      <trkpt lat="43.75014" lon="7.14431">
        <ele>432</ele>
        <time>2018-05-03T07:12:37.000Z</time>
      </trkpt>
      <trkpt lat="43.7501" lon="7.14427">
        <ele>431</ele>
        <time>2018-05-03T07:12:40.000Z</time>
      </trkpt>
      <trkpt lat="43.75003" lon="7.14422">
        <ele>429</ele>
        <time>2018-05-03T07:12:45.000Z</time>
      </trkpt>
      <trkpt lat="43.74998" lon="7.1442">
        <ele>427</ele>
        <time>2018-05-03T07:12:48.000Z</time>
      </trkpt>
      <trkpt lat="43.74993" lon="7.14419">
        <ele>426</ele>
        <time>2018-05-03T07:12:51.000Z</time>
      </trkpt>
      <trkpt lat="43.74982" lon="7.14415">
        <ele>431</ele>
        <time>2018-05-03T07:12:57.000Z</time>
      </trkpt>
      <trkpt lat="43.74976" lon="7.14411">
        <ele>432</ele>
        <time>2018-05-03T07:13:01.000Z</time>
      </trkpt>
      <trkpt lat="43.74967" lon="7.14406">
        <ele>432</ele>
        <time>2018-05-03T07:13:06.000Z</time>
      </trkpt>
      <trkpt lat="43.74956" lon="7.144">
        <ele>433</ele>
        <time>2018-05-03T07:13:12.000Z</time>
      </trkpt>
      <trkpt lat="43.74952" lon="7.14398">
        <ele>432</ele>
        <time>2018-05-03T07:13:14.000Z</time>
      </trkpt>
      <trkpt lat="43.74935" lon="7.14388">
        <ele>432</ele>
        <time>2018-05-03T07:13:23.000Z</time>
      </trkpt>
      <trkpt lat="43.7492" lon="7.14379">
        <ele>433</ele>
        <time>2018-05-03T07:13:31.000Z</time>
      </trkpt>
      <trkpt lat="43.749" lon="7.14369">
        <ele>432</ele>
        <time>2018-05-03T07:13:40.000Z</time>
      </trkpt>
      <trkpt lat="43.74896" lon="7.14367">
        <ele>432</ele>
        <time>2018-05-03T07:13:42.000Z</time>
      </trkpt>
      <trkpt lat="43.74886" lon="7.14364">
        <ele>432</ele>
        <time>2018-05-03T07:13:47.000Z</time>
      </trkpt>
      <trkpt lat="43.74875" lon="7.14362">
        <ele>432</ele>
        <time>2018-05-03T07:13:52.000Z</time>
      </trkpt>
      <trkpt lat="43.74864" lon="7.1436">
        <ele>433</ele>
        <time>2018-05-03T07:13:57.000Z</time>
      </trkpt>
      <trkpt lat="43.74852" lon="7.14358">
        <ele>433</ele>
        <time>2018-05-03T07:14:03.000Z</time>
      </trkpt>
      <trkpt lat="43.74837" lon="7.14352">
        <ele>435</ele>
        <time>2018-05-03T07:14:11.000Z</time>
      </trkpt>
      <trkpt lat="43.74834" lon="7.14347">
        <ele>436</ele>
        <time>2018-05-03T07:14:15.000Z</time>
      </trkpt>
      <trkpt lat="43.74835" lon="7.14343">
        <ele>437</ele>
        <time>2018-05-03T07:14:17.000Z</time>
      </trkpt>
      <trkpt lat="43.74836" lon="7.1434">
        <ele>438</ele>
        <time>2018-05-03T07:14:19.000Z</time>
      </trkpt>
      <trkpt lat="43.74838" lon="7.14338">
        <ele>438</ele>
        <time>2018-05-03T07:14:22.000Z</time>
      </trkpt>
      <trkpt lat="43.74839" lon="7.14338">
        <ele>438</ele>
        <time>2018-05-03T07:14:24.000Z</time>
      </trkpt>
      <trkpt lat="43.74843" lon="7.14333">
        <ele>442</ele>
        <time>2018-05-03T07:14:29.000Z</time>
      </trkpt>
      <trkpt lat="43.74842" lon="7.1433">
        <ele>443</ele>
        <time>2018-05-03T07:14:31.000Z</time>
      </trkpt>
      <trkpt lat="43.7484" lon="7.14325">
        <ele>443</ele>
        <time>2018-05-03T07:14:35.000Z</time>
      </trkpt>
      <trkpt lat="43.74834" lon="7.1432">
        <ele>443</ele>
        <time>2018-05-03T07:14:40.000Z</time>
      </trkpt>
      <trkpt lat="43.74833" lon="7.1432">
        <ele>441</ele>
        <time>2018-05-03T07:14:41.000Z</time>
      </trkpt>
      <trkpt lat="43.74831" lon="7.14319">
        <ele>442</ele>
        <time>2018-05-03T07:14:43.000Z</time>
      </trkpt>
      <trkpt lat="43.74827" lon="7.14315">
        <ele>442</ele>
        <time>2018-05-03T07:14:46.000Z</time>
      </trkpt>
      <trkpt lat="43.74826" lon="7.14315">
        <ele>442</ele>
        <time>2018-05-03T07:14:47.000Z</time>
      </trkpt>
      <trkpt lat="43.74824" lon="7.14314">
        <ele>442</ele>
        <time>2018-05-03T07:14:48.000Z</time>
      </trkpt>
      <trkpt lat="43.74823" lon="7.14312">
        <ele>442</ele>
        <time>2018-05-03T07:14:51.000Z</time>
      </trkpt>
      <trkpt lat="43.74824" lon="7.14309">
        <ele>442</ele>
        <time>2018-05-03T07:14:52.000Z</time>
      </trkpt>
      <trkpt lat="43.74826" lon="7.14303">
        <ele>443</ele>
        <time>2018-05-03T07:14:56.000Z</time>
      </trkpt>
      <trkpt lat="43.74829" lon="7.14299">
        <ele>443</ele>
        <time>2018-05-03T07:14:59.000Z</time>
      </trkpt>
      <trkpt lat="43.7483" lon="7.14297">
        <ele>443</ele>
        <time>2018-05-03T07:15:00.000Z</time>
      </trkpt>
      <trkpt lat="43.74829" lon="7.14295">
        <ele>444</ele>
        <time>2018-05-03T07:15:02.000Z</time>
      </trkpt>
      <trkpt lat="43.74832" lon="7.14286">
        <ele>445</ele>
        <time>2018-05-03T07:15:08.000Z</time>
      </trkpt>
      <trkpt lat="43.74834" lon="7.14277">
        <ele>449</ele>
        <time>2018-05-03T07:15:14.000Z</time>
      </trkpt>
      <trkpt lat="43.74834" lon="7.14276">
        <ele>449</ele>
        <time>2018-05-03T07:15:15.000Z</time>
      </trkpt>
      <trkpt lat="43.74836" lon="7.14273">
        <ele>449</ele>
        <time>2018-05-03T07:15:18.000Z</time>
      </trkpt>
      <trkpt lat="43.74836" lon="7.14272">
        <ele>449</ele>
        <time>2018-05-03T07:15:20.000Z</time>
      </trkpt>
      <trkpt lat="43.74838" lon="7.14268">
        <ele>450</ele>
        <time>2018-05-03T07:15:22.000Z</time>
      </trkpt>
      <trkpt lat="43.7484" lon="7.14266">
        <ele>450</ele>
        <time>2018-05-03T07:15:25.000Z</time>
      </trkpt>
      <trkpt lat="43.74841" lon="7.14263">
        <ele>450</ele>
        <time>2018-05-03T07:15:27.000Z</time>
      </trkpt>
      <trkpt lat="43.74842" lon="7.14261">
        <ele>450</ele>
        <time>2018-05-03T07:15:29.000Z</time>
      </trkpt>
      <trkpt lat="43.74842" lon="7.1426">
        <ele>450</ele>
        <time>2018-05-03T07:15:33.000Z</time>
      </trkpt>
      <trkpt lat="43.74842" lon="7.1426">
        <ele>450</ele>
        <time>2018-05-03T07:15:34.000Z</time>
      </trkpt>
      <trkpt lat="43.74842" lon="7.14258">
        <ele>450</ele>
        <time>2018-05-03T07:15:39.000Z</time>
      </trkpt>
      <trkpt lat="43.74841" lon="7.14253">
        <ele>450</ele>
        <time>2018-05-03T07:15:42.000Z</time>
      </trkpt>
      <trkpt lat="43.7484" lon="7.14252">
        <ele>451</ele>
        <time>2018-05-03T07:15:43.000Z</time>
      </trkpt>
      <trkpt lat="43.74839" lon="7.14251">
        <ele>451</ele>
        <time>2018-05-03T07:15:44.000Z</time>
      </trkpt>
      <trkpt lat="43.74839" lon="7.14249">
        <ele>454</ele>
        <time>2018-05-03T07:15:45.000Z</time>
      </trkpt>
      <trkpt lat="43.7484" lon="7.14244">
        <ele>455</ele>
        <time>2018-05-03T07:15:49.000Z</time>
      </trkpt>
      <trkpt lat="43.74839" lon="7.14243">
        <ele>455</ele>
        <time>2018-05-03T07:15:50.000Z</time>
      </trkpt>
      <trkpt lat="43.74838" lon="7.14236">
        <ele>458</ele>
        <time>2018-05-03T07:15:55.000Z</time>
      </trkpt>
      <trkpt lat="43.74839" lon="7.14234">
        <ele>458</ele>
        <time>2018-05-03T07:15:57.000Z</time>
      </trkpt>
      <trkpt lat="43.74841" lon="7.14231">
        <ele>459</ele>
        <time>2018-05-03T07:16:00.000Z</time>
      </trkpt>
      <trkpt lat="43.74845" lon="7.14228">
        <ele>460</ele>
        <time>2018-05-03T07:16:05.000Z</time>
      </trkpt>
      <trkpt lat="43.74847" lon="7.14228">
        <ele>460</ele>
        <time>2018-05-03T07:16:07.000Z</time>
      </trkpt>
      <trkpt lat="43.7485" lon="7.14228">
        <ele>461</ele>
        <time>2018-05-03T07:16:11.000Z</time>
      </trkpt>
      <trkpt lat="43.74854" lon="7.14228">
        <ele>461</ele>
        <time>2018-05-03T07:16:15.000Z</time>
      </trkpt>
      <trkpt lat="43.74856" lon="7.14228">
        <ele>462</ele>
        <time>2018-05-03T07:16:17.000Z</time>
      </trkpt>
      <trkpt lat="43.74859" lon="7.14228">
        <ele>462</ele>
        <time>2018-05-03T07:16:21.000Z</time>
      </trkpt>
      <trkpt lat="43.74862" lon="7.14227">
        <ele>463</ele>
        <time>2018-05-03T07:16:24.000Z</time>
      </trkpt>
      <trkpt lat="43.74865" lon="7.14228">
        <ele>463</ele>
        <time>2018-05-03T07:16:27.000Z</time>
      </trkpt>
      <trkpt lat="43.74868" lon="7.14228">
        <ele>463</ele>
        <time>2018-05-03T07:16:30.000Z</time>
      </trkpt>
      <trkpt lat="43.74871" lon="7.14229">
        <ele>463</ele>
        <time>2018-05-03T07:16:33.000Z</time>
      </trkpt>
      <trkpt lat="43.74874" lon="7.14227">
        <ele>464</ele>
        <time>2018-05-03T07:16:36.000Z</time>
      </trkpt>
      <trkpt lat="43.74877" lon="7.14224">
        <ele>464</ele>
        <time>2018-05-03T07:16:40.000Z</time>
      </trkpt>
      <trkpt lat="43.74879" lon="7.14224">
        <ele>465</ele>
        <time>2018-05-03T07:16:41.000Z</time>
      </trkpt>
      <trkpt lat="43.74881" lon="7.14225">
        <ele>465</ele>
        <time>2018-05-03T07:16:44.000Z</time>
      </trkpt>
      <trkpt lat="43.74882" lon="7.14225">
        <ele>465</ele>
        <time>2018-05-03T07:16:45.000Z</time>
      </trkpt>
      <trkpt lat="43.74883" lon="7.14226">
        <ele>465</ele>
        <time>2018-05-03T07:16:46.000Z</time>
      </trkpt>
      <trkpt lat="43.74888" lon="7.14226">
        <ele>465</ele>
        <time>2018-05-03T07:16:52.000Z</time>
      </trkpt>
      <trkpt lat="43.74889" lon="7.14226">
        <ele>465</ele>
        <time>2018-05-03T07:16:53.000Z</time>
      </trkpt>
      <trkpt lat="43.74892" lon="7.14225">
        <ele>465</ele>
        <time>2018-05-03T07:16:56.000Z</time>
      </trkpt>
      <trkpt lat="43.74892" lon="7.14224">
        <ele>465</ele>
        <time>2018-05-03T07:16:57.000Z</time>
      </trkpt>
      <trkpt lat="43.74895" lon="7.14225">
        <ele>465</ele>
        <time>2018-05-03T07:16:59.000Z</time>
      </trkpt>
      <trkpt lat="43.74896" lon="7.14225">
        <ele>465</ele>
        <time>2018-05-03T07:17:00.000Z</time>
      </trkpt>
      <trkpt lat="43.74896" lon="7.14225">
        <ele>465</ele>
        <time>2018-05-03T07:17:01.000Z</time>
      </trkpt>
      <trkpt lat="43.74897" lon="7.14225">
        <ele>466</ele>
        <time>2018-05-03T07:17:02.000Z</time>
      </trkpt>
      <trkpt lat="43.74899" lon="7.14225">
        <ele>466</ele>
        <time>2018-05-03T07:17:04.000Z</time>
      </trkpt>
      <trkpt lat="43.74902" lon="7.14223">
        <ele>466</ele>
        <time>2018-05-03T07:17:07.000Z</time>
      </trkpt>
      <trkpt lat="43.74902" lon="7.14221">
        <ele>466</ele>
        <time>2018-05-03T07:17:09.000Z</time>
      </trkpt>
      <trkpt lat="43.74902" lon="7.1422">
        <ele>466</ele>
        <time>2018-05-03T07:17:10.000Z</time>
      </trkpt>
      <trkpt lat="43.74898" lon="7.14214">
        <ele>467</ele>
        <time>2018-05-03T07:17:13.000Z</time>
      </trkpt>
      <trkpt lat="43.74895" lon="7.14209">
        <ele>468</ele>
        <time>2018-05-03T07:17:17.000Z</time>
      </trkpt>
      <trkpt lat="43.74895" lon="7.14208">
        <ele>468</ele>
        <time>2018-05-03T07:17:18.000Z</time>
      </trkpt>
      <trkpt lat="43.74897" lon="7.14205">
        <ele>468</ele>
        <time>2018-05-03T07:17:20.000Z</time>
      </trkpt>
      <trkpt lat="43.74898" lon="7.14204">
        <ele>469</ele>
        <time>2018-05-03T07:17:22.000Z</time>
      </trkpt>
      <trkpt lat="43.74901" lon="7.14205">
        <ele>469</ele>
        <time>2018-05-03T07:17:25.000Z</time>
      </trkpt>
      <trkpt lat="43.74903" lon="7.14204">
        <ele>469</ele>
        <time>2018-05-03T07:17:28.000Z</time>
      </trkpt>
      <trkpt lat="43.74905" lon="7.14203">
        <ele>469</ele>
        <time>2018-05-03T07:17:30.000Z</time>
      </trkpt>
      <trkpt lat="43.74906" lon="7.14203">
        <ele>469</ele>
        <time>2018-05-03T07:17:31.000Z</time>
      </trkpt>
      <trkpt lat="43.74908" lon="7.14204">
        <ele>469</ele>
        <time>2018-05-03T07:17:33.000Z</time>
      </trkpt>
      <trkpt lat="43.74911" lon="7.14205">
        <ele>469</ele>
        <time>2018-05-03T07:17:36.000Z</time>
      </trkpt>
      <trkpt lat="43.74914" lon="7.14206">
        <ele>469</ele>
        <time>2018-05-03T07:17:39.000Z</time>
      </trkpt>
      <trkpt lat="43.74917" lon="7.14205">
        <ele>480</ele>
        <time>2018-05-03T07:17:43.000Z</time>
      </trkpt>
      <trkpt lat="43.74919" lon="7.14205">
        <ele>480</ele>
        <time>2018-05-03T07:17:45.000Z</time>
      </trkpt>
      <trkpt lat="43.74921" lon="7.14205">
        <ele>480</ele>
        <time>2018-05-03T07:17:47.000Z</time>
      </trkpt>
      <trkpt lat="43.74922" lon="7.14206">
        <ele>480</ele>
        <time>2018-05-03T07:17:48.000Z</time>
      </trkpt>
      <trkpt lat="43.74923" lon="7.14205">
        <ele>480</ele>
        <time>2018-05-03T07:17:50.000Z</time>
      </trkpt>
      <trkpt lat="43.74928" lon="7.14206">
        <ele>480</ele>
        <time>2018-05-03T07:17:55.000Z</time>
      </trkpt>
      <trkpt lat="43.74929" lon="7.14206">
        <ele>480</ele>
        <time>2018-05-03T07:17:56.000Z</time>
      </trkpt>
      <trkpt lat="43.74932" lon="7.14205">
        <ele>481</ele>
        <time>2018-05-03T07:17:59.000Z</time>
      </trkpt>
      <trkpt lat="43.74931" lon="7.14205">
        <ele>481</ele>
        <time>2018-05-03T07:18:01.000Z</time>
      </trkpt>
      <trkpt lat="43.7493" lon="7.14205">
        <ele>480</ele>
        <time>2018-05-03T07:18:03.000Z</time>
      </trkpt>
      <trkpt lat="43.74925" lon="7.14203">
        <ele>481</ele>
        <time>2018-05-03T07:18:06.000Z</time>
      </trkpt>
      <trkpt lat="43.74923" lon="7.14202">
        <ele>481</ele>
        <time>2018-05-03T07:18:07.000Z</time>
      </trkpt>
      <trkpt lat="43.7492" lon="7.14198">
        <ele>481</ele>
        <time>2018-05-03T07:18:11.000Z</time>
      </trkpt>
      <trkpt lat="43.74919" lon="7.14198">
        <ele>481</ele>
        <time>2018-05-03T07:18:12.000Z</time>
      </trkpt>
      <trkpt lat="43.74917" lon="7.14196">
        <ele>481</ele>
        <time>2018-05-03T07:18:14.000Z</time>
      </trkpt>
      <trkpt lat="43.74917" lon="7.14194">
        <ele>482</ele>
        <time>2018-05-03T07:18:15.000Z</time>
      </trkpt>
      <trkpt lat="43.74919" lon="7.14192">
        <ele>482</ele>
        <time>2018-05-03T07:18:17.000Z</time>
      </trkpt>
      <trkpt lat="43.74924" lon="7.14193">
        <ele>482</ele>
        <time>2018-05-03T07:18:21.000Z</time>
      </trkpt>
      <trkpt lat="43.74925" lon="7.14193">
        <ele>482</ele>
        <time>2018-05-03T07:18:22.000Z</time>
      </trkpt>
      <trkpt lat="43.74927" lon="7.14193">
        <ele>482</ele>
        <time>2018-05-03T07:18:24.000Z</time>
      </trkpt>
      <trkpt lat="43.74928" lon="7.14192">
        <ele>482</ele>
        <time>2018-05-03T07:18:26.000Z</time>
      </trkpt>
      <trkpt lat="43.74928" lon="7.14191">
        <ele>482</ele>
        <time>2018-05-03T07:18:27.000Z</time>
      </trkpt>
      <trkpt lat="43.7493" lon="7.14189">
        <ele>483</ele>
        <time>2018-05-03T07:18:30.000Z</time>
      </trkpt>
      <trkpt lat="43.74929" lon="7.14186">
        <ele>483</ele>
        <time>2018-05-03T07:18:32.000Z</time>
      </trkpt>
      <trkpt lat="43.74932" lon="7.14184">
        <ele>483</ele>
        <time>2018-05-03T07:18:36.000Z</time>
      </trkpt>
      <trkpt lat="43.74934" lon="7.14184">
        <ele>484</ele>
        <time>2018-05-03T07:18:39.000Z</time>
      </trkpt>
      <trkpt lat="43.74935" lon="7.14183">
        <ele>484</ele>
        <time>2018-05-03T07:18:41.000Z</time>
      </trkpt>
      <trkpt lat="43.74935" lon="7.14184">
        <ele>484</ele>
        <time>2018-05-03T07:18:42.000Z</time>
      </trkpt>
      <trkpt lat="43.74935" lon="7.14183">
        <ele>484</ele>
        <time>2018-05-03T07:18:46.000Z</time>
      </trkpt>
      <trkpt lat="43.74935" lon="7.14181">
        <ele>484</ele>
        <time>2018-05-03T07:18:51.000Z</time>
      </trkpt>
      <trkpt lat="43.74935" lon="7.1418">
        <ele>484</ele>
        <time>2018-05-03T07:18:53.000Z</time>
      </trkpt>
      <trkpt lat="43.74935" lon="7.14178">
        <ele>484</ele>
        <time>2018-05-03T07:18:58.000Z</time>
      </trkpt>
      <trkpt lat="43.74937" lon="7.14174">
        <ele>484</ele>
        <time>2018-05-03T07:19:04.000Z</time>
      </trkpt>
      <trkpt lat="43.74938" lon="7.14173">
        <ele>485</ele>
        <time>2018-05-03T07:19:05.000Z</time>
      </trkpt>
      <trkpt lat="43.7494" lon="7.14172">
        <ele>485</ele>
        <time>2018-05-03T07:19:11.000Z</time>
      </trkpt>
      <trkpt lat="43.74941" lon="7.14168">
        <ele>485</ele>
        <time>2018-05-03T07:19:16.000Z</time>
      </trkpt>
      <trkpt lat="43.74945" lon="7.14165">
        <ele>501</ele>
        <time>2018-05-03T07:19:22.000Z</time>
      </trkpt>
      <trkpt lat="43.74946" lon="7.14163">
        <ele>502</ele>
        <time>2018-05-03T07:19:25.000Z</time>
      </trkpt>
      <trkpt lat="43.74948" lon="7.1416">
        <ele>502</ele>
        <time>2018-05-03T07:19:30.000Z</time>
      </trkpt>
      <trkpt lat="43.74949" lon="7.14158">
        <ele>503</ele>
        <time>2018-05-03T07:19:32.000Z</time>
      </trkpt>
      <trkpt lat="43.7495" lon="7.14156">
        <ele>503</ele>
        <time>2018-05-03T07:19:36.000Z</time>
      </trkpt>
      <trkpt lat="43.74951" lon="7.14155">
        <ele>504</ele>
        <time>2018-05-03T07:19:40.000Z</time>
      </trkpt>
      <trkpt lat="43.74956" lon="7.14156">
        <ele>505</ele>
        <time>2018-05-03T07:19:46.000Z</time>
      </trkpt>
      <trkpt lat="43.7496" lon="7.14155">
        <ele>506</ele>
        <time>2018-05-03T07:19:50.000Z</time>
      </trkpt>
      <trkpt lat="43.74963" lon="7.14156">
        <ele>506</ele>
        <time>2018-05-03T07:19:53.000Z</time>
      </trkpt>
      <trkpt lat="43.74963" lon="7.14155">
        <ele>506</ele>
        <time>2018-05-03T07:19:54.000Z</time>
      </trkpt>
      <trkpt lat="43.74966" lon="7.14154">
        <ele>507</ele>
        <time>2018-05-03T07:19:59.000Z</time>
      </trkpt>
      <trkpt lat="43.74971" lon="7.14152">
        <ele>507</ele>
        <time>2018-05-03T07:20:04.000Z</time>
      </trkpt>
      <trkpt lat="43.74973" lon="7.14152">
        <ele>507</ele>
        <time>2018-05-03T07:20:05.000Z</time>
      </trkpt>
      <trkpt lat="43.74977" lon="7.14152">
        <ele>508</ele>
        <time>2018-05-03T07:20:10.000Z</time>
      </trkpt>
      <trkpt lat="43.7498" lon="7.14152">
        <ele>508</ele>
        <time>2018-05-03T07:20:12.000Z</time>
      </trkpt>
      <trkpt lat="43.74985" lon="7.14152">
        <ele>508</ele>
        <time>2018-05-03T07:20:16.000Z</time>
      </trkpt>
      <trkpt lat="43.74986" lon="7.14152">
        <ele>508</ele>
        <time>2018-05-03T07:20:17.000Z</time>
      </trkpt>
      <trkpt lat="43.74992" lon="7.14153">
        <ele>508</ele>
        <time>2018-05-03T07:20:22.000Z</time>
      </trkpt>
      <trkpt lat="43.74994" lon="7.14153">
        <ele>508</ele>
        <time>2018-05-03T07:20:24.000Z</time>
      </trkpt>
      <trkpt lat="43.74999" lon="7.14154">
        <ele>508</ele>
        <time>2018-05-03T07:20:28.000Z</time>
      </trkpt>
      <trkpt lat="43.75003" lon="7.14155">
        <ele>517</ele>
        <time>2018-05-03T07:20:32.000Z</time>
      </trkpt>
      <trkpt lat="43.75004" lon="7.14155">
        <ele>517</ele>
        <time>2018-05-03T07:20:33.000Z</time>
      </trkpt>
      <trkpt lat="43.75008" lon="7.14156">
        <ele>517</ele>
        <time>2018-05-03T07:20:37.000Z</time>
      </trkpt>
      <trkpt lat="43.75008" lon="7.14156">
        <ele>517</ele>
        <time>2018-05-03T07:20:38.000Z</time>
      </trkpt>
      <trkpt lat="43.75013" lon="7.14157">
        <ele>519</ele>
        <time>2018-05-03T07:20:43.000Z</time>
      </trkpt>
      <trkpt lat="43.75013" lon="7.14158">
        <ele>519</ele>
        <time>2018-05-03T07:20:44.000Z</time>
      </trkpt>
      <trkpt lat="43.75018" lon="7.14158">
        <ele>521</ele>
        <time>2018-05-03T07:20:49.000Z</time>
      </trkpt>
      <trkpt lat="43.75022" lon="7.14161">
        <ele>522</ele>
        <time>2018-05-03T07:20:54.000Z</time>
      </trkpt>
      <trkpt lat="43.75023" lon="7.14161">
        <ele>523</ele>
        <time>2018-05-03T07:20:55.000Z</time>
      </trkpt>
      <trkpt lat="43.75023" lon="7.14162">
        <ele>523</ele>
        <time>2018-05-03T07:20:56.000Z</time>
      </trkpt>
      <trkpt lat="43.75027" lon="7.14164">
        <ele>524</ele>
        <time>2018-05-03T07:21:00.000Z</time>
      </trkpt>
      <trkpt lat="43.75029" lon="7.14166">
        <ele>525</ele>
        <time>2018-05-03T07:21:02.000Z</time>
      </trkpt>
      <trkpt lat="43.75034" lon="7.14169">
        <ele>504</ele>
        <time>2018-05-03T07:21:08.000Z</time>
      </trkpt>
      <trkpt lat="43.75035" lon="7.14169">
        <ele>504</ele>
        <time>2018-05-03T07:21:09.000Z</time>
      </trkpt>
      <trkpt lat="43.75042" lon="7.14165">
        <ele>528</ele>
        <time>2018-05-03T07:21:15.000Z</time>
      </trkpt>
      <trkpt lat="43.75044" lon="7.14165">
        <ele>528</ele>
        <time>2018-05-03T07:21:16.000Z</time>
      </trkpt>
      <trkpt lat="43.75051" lon="7.14168">
        <ele>507</ele>
        <time>2018-05-03T07:21:22.000Z</time>
      </trkpt>
      <trkpt lat="43.75056" lon="7.14169">
        <ele>509</ele>
        <time>2018-05-03T07:21:27.000Z</time>
      </trkpt>
      <trkpt lat="43.75062" lon="7.1417">
        <ele>511</ele>
        <time>2018-05-03T07:21:32.000Z</time>
      </trkpt>
      <trkpt lat="43.75065" lon="7.1417">
        <ele>512</ele>
        <time>2018-05-03T07:21:34.000Z</time>
      </trkpt>
      <trkpt lat="43.75069" lon="7.14172">
        <ele>514</ele>
        <time>2018-05-03T07:21:38.000Z</time>
      </trkpt>
      <trkpt lat="43.75073" lon="7.14172">
        <ele>515</ele>
        <time>2018-05-03T07:21:41.000Z</time>
      </trkpt>
      <trkpt lat="43.75076" lon="7.14173">
        <ele>517</ele>
        <time>2018-05-03T07:21:44.000Z</time>
      </trkpt>
      <trkpt lat="43.75078" lon="7.14174">
        <ele>517</ele>
        <time>2018-05-03T07:21:46.000Z</time>
      </trkpt>
      <trkpt lat="43.75082" lon="7.14175">
        <ele>518</ele>
        <time>2018-05-03T07:21:50.000Z</time>
      </trkpt>
      <trkpt lat="43.75086" lon="7.14177">
        <ele>523</ele>
        <time>2018-05-03T07:21:53.000Z</time>
      </trkpt>
      <trkpt lat="43.75092" lon="7.14178">
        <ele>523</ele>
        <time>2018-05-03T07:21:58.000Z</time>
      </trkpt>
      <trkpt lat="43.75095" lon="7.14178">
        <ele>523</ele>
        <time>2018-05-03T07:22:00.000Z</time>
      </trkpt>
      <trkpt lat="43.75098" lon="7.14179">
        <ele>523</ele>
        <time>2018-05-03T07:22:03.000Z</time>
      </trkpt>
      <trkpt lat="43.75103" lon="7.14179">
        <ele>523</ele>
        <time>2018-05-03T07:22:06.000Z</time>
      </trkpt>
      <trkpt lat="43.75105" lon="7.1418">
        <ele>524</ele>
        <time>2018-05-03T07:22:08.000Z</time>
      </trkpt>
      <trkpt lat="43.75108" lon="7.1418">
        <ele>524</ele>
        <time>2018-05-03T07:22:11.000Z</time>
      </trkpt>
      <trkpt lat="43.75111" lon="7.1418">
        <ele>524</ele>
        <time>2018-05-03T07:22:13.000Z</time>
      </trkpt>
      <trkpt lat="43.75114" lon="7.14182">
        <ele>524</ele>
        <time>2018-05-03T07:22:16.000Z</time>
      </trkpt>
      <trkpt lat="43.75119" lon="7.14184">
        <ele>525</ele>
        <time>2018-05-03T07:22:20.000Z</time>
      </trkpt>
      <trkpt lat="43.75124" lon="7.14187">
        <ele>525</ele>
        <time>2018-05-03T07:22:24.000Z</time>
      </trkpt>
      <trkpt lat="43.75126" lon="7.14187">
        <ele>526</ele>
        <time>2018-05-03T07:22:26.000Z</time>
      </trkpt>
      <trkpt lat="43.75129" lon="7.14188">
        <ele>526</ele>
        <time>2018-05-03T07:22:28.000Z</time>
      </trkpt>
      <trkpt lat="43.75135" lon="7.14191">
        <ele>527</ele>
        <time>2018-05-03T07:22:32.000Z</time>
      </trkpt>
      <trkpt lat="43.75137" lon="7.14192">
        <ele>527</ele>
        <time>2018-05-03T07:22:34.000Z</time>
      </trkpt>
      <trkpt lat="43.75148" lon="7.14198">
        <ele>528</ele>
        <time>2018-05-03T07:22:41.000Z</time>
      </trkpt>
      <trkpt lat="43.75158" lon="7.14205">
        <ele>527</ele>
        <time>2018-05-03T07:22:48.000Z</time>
      </trkpt>
      <trkpt lat="43.75161" lon="7.14207">
        <ele>527</ele>
        <time>2018-05-03T07:22:50.000Z</time>
      </trkpt>
      <trkpt lat="43.75173" lon="7.14213">
        <ele>542</ele>
        <time>2018-05-03T07:22:57.000Z</time>
      </trkpt>
      <trkpt lat="43.75178" lon="7.14213">
        <ele>542</ele>
        <time>2018-05-03T07:23:01.000Z</time>
      </trkpt>
      <trkpt lat="43.75181" lon="7.14214">
        <ele>542</ele>
        <time>2018-05-03T07:23:03.000Z</time>
      </trkpt>
      <trkpt lat="43.75183" lon="7.14215">
        <ele>542</ele>
        <time>2018-05-03T07:23:05.000Z</time>
      </trkpt>
      <trkpt lat="43.75189" lon="7.14219">
        <ele>542</ele>
        <time>2018-05-03T07:23:09.000Z</time>
      </trkpt>
      <trkpt lat="43.75196" lon="7.14224">
        <ele>542</ele>
        <time>2018-05-03T07:23:14.000Z</time>
      </trkpt>
      <trkpt lat="43.75198" lon="7.14227">
        <ele>542</ele>
        <time>2018-05-03T07:23:16.000Z</time>
      </trkpt>
      <trkpt lat="43.75206" lon="7.14233">
        <ele>542</ele>
        <time>2018-05-03T07:23:22.000Z</time>
      </trkpt>
      <trkpt lat="43.75207" lon="7.14234">
        <ele>542</ele>
        <time>2018-05-03T07:23:23.000Z</time>
      </trkpt>
      <trkpt lat="43.75211" lon="7.14237">
        <ele>543</ele>
        <time>2018-05-03T07:23:26.000Z</time>
      </trkpt>
      <trkpt lat="43.75215" lon="7.14239">
        <ele>543</ele>
        <time>2018-05-03T07:23:29.000Z</time>
      </trkpt>
      <trkpt lat="43.75221" lon="7.1424">
        <ele>544</ele>
        <time>2018-05-03T07:23:33.000Z</time>
      </trkpt>
      <trkpt lat="43.75224" lon="7.14241">
        <ele>544</ele>
        <time>2018-05-03T07:23:36.000Z</time>
      </trkpt>
      <trkpt lat="43.75225" lon="7.14241">
        <ele>544</ele>
        <time>2018-05-03T07:23:37.000Z</time>
      </trkpt>
      <trkpt lat="43.75231" lon="7.14243">
        <ele>544</ele>
        <time>2018-05-03T07:23:43.000Z</time>
      </trkpt>
      <trkpt lat="43.75239" lon="7.14245">
        <ele>544</ele>
        <time>2018-05-03T07:23:50.000Z</time>
      </trkpt>
      <trkpt lat="43.7524" lon="7.14245">
        <ele>544</ele>
        <time>2018-05-03T07:23:51.000Z</time>
      </trkpt>
      <trkpt lat="43.75245" lon="7.14247">
        <ele>543</ele>
        <time>2018-05-03T07:23:56.000Z</time>
      </trkpt>
      <trkpt lat="43.75251" lon="7.14246">
        <ele>547</ele>
        <time>2018-05-03T07:24:01.000Z</time>
      </trkpt>
      <trkpt lat="43.75252" lon="7.14247">
        <ele>546</ele>
        <time>2018-05-03T07:24:02.000Z</time>
      </trkpt>
      <trkpt lat="43.75253" lon="7.14247">
        <ele>547</ele>
        <time>2018-05-03T07:24:03.000Z</time>
      </trkpt>
      <trkpt lat="43.75258" lon="7.14249">
        <ele>550</ele>
        <time>2018-05-03T07:24:07.000Z</time>
      </trkpt>
      <trkpt lat="43.75259" lon="7.14248">
        <ele>552</ele>
        <time>2018-05-03T07:24:09.000Z</time>
      </trkpt>
      <trkpt lat="43.75262" lon="7.14249">
        <ele>554</ele>
        <time>2018-05-03T07:24:12.000Z</time>
      </trkpt>
      <trkpt lat="43.75266" lon="7.14249">
        <ele>557</ele>
        <time>2018-05-03T07:24:16.000Z</time>
      </trkpt>
      <trkpt lat="43.75267" lon="7.1425">
        <ele>557</ele>
        <time>2018-05-03T07:24:17.000Z</time>
      </trkpt>
      <trkpt lat="43.7527" lon="7.1425">
        <ele>559</ele>
        <time>2018-05-03T07:24:20.000Z</time>
      </trkpt>
      <trkpt lat="43.75272" lon="7.14251">
        <ele>542</ele>
        <time>2018-05-03T07:24:23.000Z</time>
      </trkpt>
      <trkpt lat="43.75278" lon="7.14252">
        <ele>543</ele>
        <time>2018-05-03T07:24:29.000Z</time>
      </trkpt>
      <trkpt lat="43.75279" lon="7.14251">
        <ele>543</ele>
        <time>2018-05-03T07:24:30.000Z</time>
      </trkpt>
      <trkpt lat="43.7528" lon="7.14251">
        <ele>543</ele>
        <time>2018-05-03T07:24:31.000Z</time>
      </trkpt>
      <trkpt lat="43.75283" lon="7.14253">
        <ele>543</ele>
        <time>2018-05-03T07:24:34.000Z</time>
      </trkpt>
      <trkpt lat="43.75286" lon="7.14253">
        <ele>544</ele>
        <time>2018-05-03T07:24:38.000Z</time>
      </trkpt>
      <trkpt lat="43.75287" lon="7.14254">
        <ele>544</ele>
        <time>2018-05-03T07:24:39.000Z</time>
      </trkpt>
      <trkpt lat="43.75295" lon="7.14258">
        <ele>546</ele>
        <time>2018-05-03T07:24:46.000Z</time>
      </trkpt>
      <trkpt lat="43.753" lon="7.14262">
        <ele>546</ele>
        <time>2018-05-03T07:24:51.000Z</time>
      </trkpt>
      <trkpt lat="43.75304" lon="7.14265">
        <ele>547</ele>
        <time>2018-05-03T07:24:55.000Z</time>
      </trkpt>
      <trkpt lat="43.75306" lon="7.14267">
        <ele>547</ele>
        <time>2018-05-03T07:24:57.000Z</time>
      </trkpt>
      <trkpt lat="43.75308" lon="7.1427">
        <ele>547</ele>
        <time>2018-05-03T07:25:00.000Z</time>
      </trkpt>
      <trkpt lat="43.7531" lon="7.14272">
        <ele>547</ele>
        <time>2018-05-03T07:25:02.000Z</time>
      </trkpt>
      <trkpt lat="43.75313" lon="7.14275">
        <ele>547</ele>
        <time>2018-05-03T07:25:05.000Z</time>
      </trkpt>
      <trkpt lat="43.75316" lon="7.14277">
        <ele>547</ele>
        <time>2018-05-03T07:25:08.000Z</time>
      </trkpt>
      <trkpt lat="43.75325" lon="7.1428">
        <ele>548</ele>
        <time>2018-05-03T07:25:14.000Z</time>
      </trkpt>
      <trkpt lat="43.75332" lon="7.14281">
        <ele>548</ele>
        <time>2018-05-03T07:25:20.000Z</time>
      </trkpt>
      <trkpt lat="43.75338" lon="7.14283">
        <ele>564</ele>
        <time>2018-05-03T07:25:25.000Z</time>
      </trkpt>
      <trkpt lat="43.75342" lon="7.14284">
        <ele>564</ele>
        <time>2018-05-03T07:25:28.000Z</time>
      </trkpt>
      <trkpt lat="43.75343" lon="7.14285">
        <ele>564</ele>
        <time>2018-05-03T07:25:29.000Z</time>
      </trkpt>
      <trkpt lat="43.75348" lon="7.14287">
        <ele>564</ele>
        <time>2018-05-03T07:25:33.000Z</time>
      </trkpt>
      <trkpt lat="43.75349" lon="7.14287">
        <ele>564</ele>
        <time>2018-05-03T07:25:34.000Z</time>
      </trkpt>
      <trkpt lat="43.75353" lon="7.14289">
        <ele>564</ele>
        <time>2018-05-03T07:25:37.000Z</time>
      </trkpt>
      <trkpt lat="43.75356" lon="7.1429">
        <ele>564</ele>
        <time>2018-05-03T07:25:40.000Z</time>
      </trkpt>
      <trkpt lat="43.75356" lon="7.14291">
        <ele>564</ele>
        <time>2018-05-03T07:25:41.000Z</time>
      </trkpt>
      <trkpt lat="43.75363" lon="7.14294">
        <ele>564</ele>
        <time>2018-05-03T07:25:47.000Z</time>
      </trkpt>
      <trkpt lat="43.75365" lon="7.14295">
        <ele>565</ele>
        <time>2018-05-03T07:25:49.000Z</time>
      </trkpt>
      <trkpt lat="43.75372" lon="7.14298">
        <ele>565</ele>
        <time>2018-05-03T07:25:55.000Z</time>
      </trkpt>
      <trkpt lat="43.75377" lon="7.14301">
        <ele>566</ele>
        <time>2018-05-03T07:26:00.000Z</time>
      </trkpt>
      <trkpt lat="43.75379" lon="7.14301">
        <ele>566</ele>
        <time>2018-05-03T07:26:02.000Z</time>
      </trkpt>
      <trkpt lat="43.75382" lon="7.14303">
        <ele>566</ele>
        <time>2018-05-03T07:26:05.000Z</time>
      </trkpt>
      <trkpt lat="43.75385" lon="7.14303">
        <ele>567</ele>
        <time>2018-05-03T07:26:08.000Z</time>
      </trkpt>
      <trkpt lat="43.75386" lon="7.14302">
        <ele>567</ele>
        <time>2018-05-03T07:26:10.000Z</time>
      </trkpt>
      <trkpt lat="43.75385" lon="7.14298">
        <ele>568</ele>
        <time>2018-05-03T07:26:13.000Z</time>
      </trkpt>
      <trkpt lat="43.75382" lon="7.14296">
        <ele>567</ele>
        <time>2018-05-03T07:26:16.000Z</time>
      </trkpt>
      <trkpt lat="43.75379" lon="7.14294">
        <ele>567</ele>
        <time>2018-05-03T07:26:19.000Z</time>
      </trkpt>
      <trkpt lat="43.75374" lon="7.14292">
        <ele>567</ele>
        <time>2018-05-03T07:26:23.000Z</time>
      </trkpt>
      <trkpt lat="43.7537" lon="7.14288">
        <ele>567</ele>
        <time>2018-05-03T07:26:27.000Z</time>
      </trkpt>
      <trkpt lat="43.75368" lon="7.14286">
        <ele>567</ele>
        <time>2018-05-03T07:26:29.000Z</time>
      </trkpt>
      <trkpt lat="43.75366" lon="7.14283">
        <ele>567</ele>
        <time>2018-05-03T07:26:32.000Z</time>
      </trkpt>
      <trkpt lat="43.75366" lon="7.14282">
        <ele>567</ele>
        <time>2018-05-03T07:26:33.000Z</time>
      </trkpt>
      <trkpt lat="43.75364" lon="7.14281">
        <ele>567</ele>
        <time>2018-05-03T07:26:35.000Z</time>
      </trkpt>
      <trkpt lat="43.75361" lon="7.14277">
        <ele>568</ele>
        <time>2018-05-03T07:26:39.000Z</time>
      </trkpt>
      <trkpt lat="43.75361" lon="7.14276">
        <ele>568</ele>
        <time>2018-05-03T07:26:40.000Z</time>
      </trkpt>
      <trkpt lat="43.7536" lon="7.14275">
        <ele>568</ele>
        <time>2018-05-03T07:26:43.000Z</time>
      </trkpt>
      <trkpt lat="43.75358" lon="7.14272">
        <ele>568</ele>
        <time>2018-05-03T07:26:45.000Z</time>
      </trkpt>
      <trkpt lat="43.75357" lon="7.14271">
        <ele>568</ele>
        <time>2018-05-03T07:26:46.000Z</time>
      </trkpt>
      <trkpt lat="43.75356" lon="7.1427">
        <ele>568</ele>
        <time>2018-05-03T07:26:48.000Z</time>
      </trkpt>
      <trkpt lat="43.75355" lon="7.14268">
        <ele>568</ele>
        <time>2018-05-03T07:26:49.000Z</time>
      </trkpt>
      <trkpt lat="43.75356" lon="7.14264">
        <ele>569</ele>
        <time>2018-05-03T07:26:51.000Z</time>
      </trkpt>
      <trkpt lat="43.75356" lon="7.14263">
        <ele>569</ele>
        <time>2018-05-03T07:26:52.000Z</time>
      </trkpt>
      <trkpt lat="43.75358" lon="7.1426">
        <ele>569</ele>
        <time>2018-05-03T07:26:55.000Z</time>
      </trkpt>
      <trkpt lat="43.75359" lon="7.14259">
        <ele>570</ele>
        <time>2018-05-03T07:26:56.000Z</time>
      </trkpt>
      <trkpt lat="43.7536" lon="7.1426">
        <ele>570</ele>
        <time>2018-05-03T07:26:57.000Z</time>
      </trkpt>
      <trkpt lat="43.75362" lon="7.14261">
        <ele>570</ele>
        <time>2018-05-03T07:27:00.000Z</time>
      </trkpt>
      <trkpt lat="43.75364" lon="7.14263">
        <ele>570</ele>
        <time>2018-05-03T07:27:02.000Z</time>
      </trkpt>
      <trkpt lat="43.75367" lon="7.14262">
        <ele>571</ele>
        <time>2018-05-03T07:27:06.000Z</time>
      </trkpt>
      <trkpt lat="43.75366" lon="7.14262">
        <ele>570</ele>
        <time>2018-05-03T07:27:07.000Z</time>
      </trkpt>
      <trkpt lat="43.75367" lon="7.14262">
        <ele>571</ele>
        <time>2018-05-03T07:27:12.000Z</time>
      </trkpt>
      <trkpt lat="43.75368" lon="7.14263">
        <ele>571</ele>
        <time>2018-05-03T07:27:21.000Z</time>
      </trkpt>
      <trkpt lat="43.75373" lon="7.14265">
        <ele>571</ele>
        <time>2018-05-03T07:27:25.000Z</time>
      </trkpt>
      <trkpt lat="43.75373" lon="7.14263">
        <ele>572</ele>
        <time>2018-05-03T07:27:27.000Z</time>
      </trkpt>
      <trkpt lat="43.75373" lon="7.14264">
        <ele>572</ele>
        <time>2018-05-03T07:27:30.000Z</time>
      </trkpt>
      <trkpt lat="43.75373" lon="7.14264">
        <ele>572</ele>
        <time>2018-05-03T07:27:34.000Z</time>
      </trkpt>
      <trkpt lat="43.75375" lon="7.14264">
        <ele>572</ele>
        <time>2018-05-03T07:27:39.000Z</time>
      </trkpt>
      <trkpt lat="43.75382" lon="7.14266">
        <ele>573</ele>
        <time>2018-05-03T07:27:46.000Z</time>
      </trkpt>
      <trkpt lat="43.75385" lon="7.14266">
        <ele>574</ele>
        <time>2018-05-03T07:27:49.000Z</time>
      </trkpt>
      <trkpt lat="43.75389" lon="7.14266">
        <ele>575</ele>
        <time>2018-05-03T07:27:54.000Z</time>
      </trkpt>
      <trkpt lat="43.75395" lon="7.14266">
        <ele>577</ele>
        <time>2018-05-03T07:27:59.000Z</time>
      </trkpt>
      <trkpt lat="43.75396" lon="7.14267">
        <ele>577</ele>
        <time>2018-05-03T07:28:03.000Z</time>
      </trkpt>
      <trkpt lat="43.75397" lon="7.14267">
        <ele>577</ele>
        <time>2018-05-03T07:28:06.000Z</time>
      </trkpt>
      <trkpt lat="43.75398" lon="7.14268">
        <ele>577</ele>
        <time>2018-05-03T07:28:07.000Z</time>
      </trkpt>
      <trkpt lat="43.75399" lon="7.1427">
        <ele>577</ele>
        <time>2018-05-03T07:28:09.000Z</time>
      </trkpt>
      <trkpt lat="43.75401" lon="7.14272">
        <ele>577</ele>
        <time>2018-05-03T07:28:12.000Z</time>
      </trkpt>
      <trkpt lat="43.75401" lon="7.14273">
        <ele>577</ele>
        <time>2018-05-03T07:28:16.000Z</time>
      </trkpt>
      <trkpt lat="43.75403" lon="7.14275">
        <ele>577</ele>
        <time>2018-05-03T07:28:24.000Z</time>
      </trkpt>
      <trkpt lat="43.75408" lon="7.14277">
        <ele>577</ele>
        <time>2018-05-03T07:28:28.000Z</time>
      </trkpt>
      <trkpt lat="43.7541" lon="7.14279">
        <ele>576</ele>
        <time>2018-05-03T07:28:30.000Z</time>
      </trkpt>
      <trkpt lat="43.75416" lon="7.14282">
        <ele>576</ele>
        <time>2018-05-03T07:28:35.000Z</time>
      </trkpt>
      <trkpt lat="43.75417" lon="7.14283">
        <ele>591</ele>
        <time>2018-05-03T07:28:36.000Z</time>
      </trkpt>
      <trkpt lat="43.75424" lon="7.14287">
        <ele>591</ele>
        <time>2018-05-03T07:28:42.000Z</time>
      </trkpt>
      <trkpt lat="43.75425" lon="7.14287">
        <ele>591</ele>
        <time>2018-05-03T07:28:43.000Z</time>
      </trkpt>
      <trkpt lat="43.75431" lon="7.14291">
        <ele>590</ele>
        <time>2018-05-03T07:28:48.000Z</time>
      </trkpt>
      <trkpt lat="43.75432" lon="7.14292">
        <ele>590</ele>
        <time>2018-05-03T07:28:49.000Z</time>
      </trkpt>
      <trkpt lat="43.75436" lon="7.14293">
        <ele>591</ele>
        <time>2018-05-03T07:28:52.000Z</time>
      </trkpt>
      <trkpt lat="43.75437" lon="7.14294">
        <ele>590</ele>
        <time>2018-05-03T07:28:53.000Z</time>
      </trkpt>
      <trkpt lat="43.75438" lon="7.14295">
        <ele>590</ele>
        <time>2018-05-03T07:28:54.000Z</time>
      </trkpt>
      <trkpt lat="43.75445" lon="7.14301">
        <ele>590</ele>
        <time>2018-05-03T07:29:00.000Z</time>
      </trkpt>
      <trkpt lat="43.75453" lon="7.14306">
        <ele>591</ele>
        <time>2018-05-03T07:29:07.000Z</time>
      </trkpt>
      <trkpt lat="43.75458" lon="7.14309">
        <ele>591</ele>
        <time>2018-05-03T07:29:11.000Z</time>
      </trkpt>
      <trkpt lat="43.75461" lon="7.14311">
        <ele>591</ele>
        <time>2018-05-03T07:29:14.000Z</time>
      </trkpt>
      <trkpt lat="43.75465" lon="7.14315">
        <ele>592</ele>
        <time>2018-05-03T07:29:18.000Z</time>
      </trkpt>
      <trkpt lat="43.75468" lon="7.14316">
        <ele>592</ele>
        <time>2018-05-03T07:29:20.000Z</time>
      </trkpt>
      <trkpt lat="43.75472" lon="7.14318">
        <ele>592</ele>
        <time>2018-05-03T07:29:24.000Z</time>
      </trkpt>
      <trkpt lat="43.75474" lon="7.14318">
        <ele>593</ele>
        <time>2018-05-03T07:29:26.000Z</time>
      </trkpt>
      <trkpt lat="43.75476" lon="7.14318">
        <ele>593</ele>
        <time>2018-05-03T07:29:27.000Z</time>
      </trkpt>
      <trkpt lat="43.75477" lon="7.14319">
        <ele>593</ele>
        <time>2018-05-03T07:29:28.000Z</time>
      </trkpt>
      <trkpt lat="43.75482" lon="7.14321">
        <ele>593</ele>
        <time>2018-05-03T07:29:33.000Z</time>
      </trkpt>
      <trkpt lat="43.75484" lon="7.14322">
        <ele>593</ele>
        <time>2018-05-03T07:29:35.000Z</time>
      </trkpt>
      <trkpt lat="43.75488" lon="7.14324">
        <ele>593</ele>
        <time>2018-05-03T07:29:39.000Z</time>
      </trkpt>
      <trkpt lat="43.75491" lon="7.14325">
        <ele>593</ele>
        <time>2018-05-03T07:29:42.000Z</time>
      </trkpt>
      <trkpt lat="43.75495" lon="7.14327">
        <ele>593</ele>
        <time>2018-05-03T07:29:46.000Z</time>
      </trkpt>
      <trkpt lat="43.755" lon="7.14329">
        <ele>593</ele>
        <time>2018-05-03T07:29:50.000Z</time>
      </trkpt>
      <trkpt lat="43.75507" lon="7.14331">
        <ele>599</ele>
        <time>2018-05-03T07:29:56.000Z</time>
      </trkpt>
      <trkpt lat="43.75512" lon="7.14334">
        <ele>596</ele>
        <time>2018-05-03T07:30:01.000Z</time>
      </trkpt>
      <trkpt lat="43.75514" lon="7.14334">
        <ele>596</ele>
        <time>2018-05-03T07:30:02.000Z</time>
      </trkpt>
      <trkpt lat="43.75518" lon="7.14335">
        <ele>597</ele>
        <time>2018-05-03T07:30:06.000Z</time>
      </trkpt>
      <trkpt lat="43.75519" lon="7.14335">
        <ele>597</ele>
        <time>2018-05-03T07:30:07.000Z</time>
      </trkpt>
      <trkpt lat="43.75524" lon="7.14335">
        <ele>598</ele>
        <time>2018-05-03T07:30:11.000Z</time>
      </trkpt>
      <trkpt lat="43.75526" lon="7.14335">
        <ele>598</ele>
        <time>2018-05-03T07:30:13.000Z</time>
      </trkpt>
      <trkpt lat="43.7553" lon="7.14332">
        <ele>608</ele>
        <time>2018-05-03T07:30:17.000Z</time>
      </trkpt>
      <trkpt lat="43.75532" lon="7.14331">
        <ele>608</ele>
        <time>2018-05-03T07:30:18.000Z</time>
      </trkpt>
      <trkpt lat="43.75533" lon="7.14331">
        <ele>609</ele>
        <time>2018-05-03T07:30:19.000Z</time>
      </trkpt>
      <trkpt lat="43.75534" lon="7.14331">
        <ele>609</ele>
        <time>2018-05-03T07:30:21.000Z</time>
      </trkpt>
      <trkpt lat="43.75534" lon="7.14331">
        <ele>609</ele>
        <time>2018-05-03T07:30:22.000Z</time>
      </trkpt>
      <trkpt lat="43.75536" lon="7.14331">
        <ele>609</ele>
        <time>2018-05-03T07:30:24.000Z</time>
      </trkpt>
      <trkpt lat="43.75539" lon="7.14332">
        <ele>610</ele>
        <time>2018-05-03T07:30:28.000Z</time>
      </trkpt>
      <trkpt lat="43.75543" lon="7.14332">
        <ele>610</ele>
        <time>2018-05-03T07:30:32.000Z</time>
      </trkpt>
      <trkpt lat="43.75545" lon="7.14331">
        <ele>611</ele>
        <time>2018-05-03T07:30:35.000Z</time>
      </trkpt>
      <trkpt lat="43.75547" lon="7.14331">
        <ele>611</ele>
        <time>2018-05-03T07:30:37.000Z</time>
      </trkpt>
      <trkpt lat="43.75548" lon="7.14332">
        <ele>611</ele>
        <time>2018-05-03T07:30:38.000Z</time>
      </trkpt>
      <trkpt lat="43.75551" lon="7.14332">
        <ele>611</ele>
        <time>2018-05-03T07:30:41.000Z</time>
      </trkpt>
      <trkpt lat="43.75558" lon="7.14332">
        <ele>612</ele>
        <time>2018-05-03T07:30:47.000Z</time>
      </trkpt>
      <trkpt lat="43.75559" lon="7.14333">
        <ele>612</ele>
        <time>2018-05-03T07:30:48.000Z</time>
      </trkpt>
      <trkpt lat="43.75564" lon="7.14333">
        <ele>612</ele>
        <time>2018-05-03T07:30:53.000Z</time>
      </trkpt>
      <trkpt lat="43.75567" lon="7.14333">
        <ele>612</ele>
        <time>2018-05-03T07:30:56.000Z</time>
      </trkpt>
      <trkpt lat="43.75567" lon="7.14333">
        <ele>612</ele>
        <time>2018-05-03T07:30:58.000Z</time>
      </trkpt>
      <trkpt lat="43.75571" lon="7.14335">
        <ele>606</ele>
        <time>2018-05-03T07:31:06.000Z</time>
      </trkpt>
      <trkpt lat="43.75575" lon="7.14336">
        <ele>607</ele>
        <time>2018-05-03T07:31:10.000Z</time>
      </trkpt>
      <trkpt lat="43.75578" lon="7.14335">
        <ele>607</ele>
        <time>2018-05-03T07:31:12.000Z</time>
      </trkpt>
      <trkpt lat="43.75584" lon="7.14335">
        <ele>610</ele>
        <time>2018-05-03T07:31:18.000Z</time>
      </trkpt>
      <trkpt lat="43.7559" lon="7.14335">
        <ele>611</ele>
        <time>2018-05-03T07:31:23.000Z</time>
      </trkpt>
      <trkpt lat="43.75595" lon="7.14333">
        <ele>617</ele>
        <time>2018-05-03T07:31:26.000Z</time>
      </trkpt>
      <trkpt lat="43.75598" lon="7.14333">
        <ele>619</ele>
        <time>2018-05-03T07:31:29.000Z</time>
      </trkpt>
      <trkpt lat="43.75599" lon="7.14333">
        <ele>619</ele>
        <time>2018-05-03T07:31:30.000Z</time>
      </trkpt>
      <trkpt lat="43.75601" lon="7.14333">
        <ele>620</ele>
        <time>2018-05-03T07:31:33.000Z</time>
      </trkpt>
      <trkpt lat="43.75603" lon="7.14333">
        <ele>621</ele>
        <time>2018-05-03T07:31:35.000Z</time>
      </trkpt>
      <trkpt lat="43.75605" lon="7.14332">
        <ele>622</ele>
        <time>2018-05-03T07:31:40.000Z</time>
      </trkpt>
      <trkpt lat="43.7561" lon="7.14331">
        <ele>623</ele>
        <time>2018-05-03T07:31:44.000Z</time>
      </trkpt>
      <trkpt lat="43.75612" lon="7.1433">
        <ele>624</ele>
        <time>2018-05-03T07:31:46.000Z</time>
      </trkpt>
      <trkpt lat="43.75616" lon="7.14329">
        <ele>625</ele>
        <time>2018-05-03T07:31:50.000Z</time>
      </trkpt>
      <trkpt lat="43.75618" lon="7.14329">
        <ele>625</ele>
        <time>2018-05-03T07:31:52.000Z</time>
      </trkpt>
      <trkpt lat="43.7562" lon="7.14328">
        <ele>626</ele>
        <time>2018-05-03T07:31:54.000Z</time>
      </trkpt>
      <trkpt lat="43.75627" lon="7.14327">
        <ele>627</ele>
        <time>2018-05-03T07:31:59.000Z</time>
      </trkpt>
      <trkpt lat="43.7563" lon="7.14325">
        <ele>627</ele>
        <time>2018-05-03T07:32:01.000Z</time>
      </trkpt>
      <trkpt lat="43.75633" lon="7.14323">
        <ele>628</ele>
        <time>2018-05-03T07:32:05.000Z</time>
      </trkpt>
      <trkpt lat="43.75634" lon="7.14323">
        <ele>628</ele>
        <time>2018-05-03T07:32:06.000Z</time>
      </trkpt>
      <trkpt lat="43.75638" lon="7.14324">
        <ele>628</ele>
        <time>2018-05-03T07:32:10.000Z</time>
      </trkpt>
      <trkpt lat="43.75639" lon="7.14324">
        <ele>628</ele>
        <time>2018-05-03T07:32:11.000Z</time>
      </trkpt>
      <trkpt lat="43.75645" lon="7.14324">
        <ele>628</ele>
        <time>2018-05-03T07:32:16.000Z</time>
      </trkpt>
      <trkpt lat="43.75646" lon="7.14324">
        <ele>628</ele>
        <time>2018-05-03T07:32:17.000Z</time>
      </trkpt>
      <trkpt lat="43.75648" lon="7.14323">
        <ele>628</ele>
        <time>2018-05-03T07:32:19.000Z</time>
      </trkpt>
      <trkpt lat="43.7565" lon="7.14322">
        <ele>628</ele>
        <time>2018-05-03T07:32:21.000Z</time>
      </trkpt>
      <trkpt lat="43.75651" lon="7.14321">
        <ele>628</ele>
        <time>2018-05-03T07:32:22.000Z</time>
      </trkpt>
      <trkpt lat="43.75655" lon="7.14323">
        <ele>628</ele>
        <time>2018-05-03T07:32:26.000Z</time>
      </trkpt>
      <trkpt lat="43.75658" lon="7.14323">
        <ele>628</ele>
        <time>2018-05-03T07:32:29.000Z</time>
      </trkpt>
      <trkpt lat="43.7566" lon="7.14323">
        <ele>627</ele>
        <time>2018-05-03T07:32:31.000Z</time>
      </trkpt>
      <trkpt lat="43.75665" lon="7.14321">
        <ele>628</ele>
        <time>2018-05-03T07:32:36.000Z</time>
      </trkpt>
      <trkpt lat="43.75667" lon="7.1432">
        <ele>633</ele>
        <time>2018-05-03T07:32:38.000Z</time>
      </trkpt>
      <trkpt lat="43.75671" lon="7.1432">
        <ele>633</ele>
        <time>2018-05-03T07:32:42.000Z</time>
      </trkpt>
      <trkpt lat="43.75673" lon="7.14319">
        <ele>634</ele>
        <time>2018-05-03T07:32:44.000Z</time>
      </trkpt>
      <trkpt lat="43.75675" lon="7.14319">
        <ele>634</ele>
        <time>2018-05-03T07:32:46.000Z</time>
      </trkpt>
      <trkpt lat="43.7568" lon="7.14318">
        <ele>636</ele>
        <time>2018-05-03T07:32:50.000Z</time>
      </trkpt>
      <trkpt lat="43.75681" lon="7.14318">
        <ele>636</ele>
        <time>2018-05-03T07:32:52.000Z</time>
      </trkpt>
      <trkpt lat="43.75682" lon="7.14317">
        <ele>637</ele>
        <time>2018-05-03T07:32:53.000Z</time>
      </trkpt>
      <trkpt lat="43.75687" lon="7.14315">
        <ele>638</ele>
        <time>2018-05-03T07:32:57.000Z</time>
      </trkpt>
      <trkpt lat="43.75688" lon="7.14316">
        <ele>638</ele>
        <time>2018-05-03T07:33:00.000Z</time>
      </trkpt>
      <trkpt lat="43.75689" lon="7.14316">
        <ele>638</ele>
        <time>2018-05-03T07:33:01.000Z</time>
      </trkpt>
      <trkpt lat="43.75695" lon="7.14318">
        <ele>639</ele>
        <time>2018-05-03T07:33:07.000Z</time>
      </trkpt>
      <trkpt lat="43.75699" lon="7.1432">
        <ele>639</ele>
        <time>2018-05-03T07:33:11.000Z</time>
      </trkpt>
      <trkpt lat="43.75701" lon="7.1432">
        <ele>640</ele>
        <time>2018-05-03T07:33:13.000Z</time>
      </trkpt>
      <trkpt lat="43.75706" lon="7.14322">
        <ele>640</ele>
        <time>2018-05-03T07:33:19.000Z</time>
      </trkpt>
      <trkpt lat="43.75714" lon="7.14326">
        <ele>640</ele>
        <time>2018-05-03T07:33:26.000Z</time>
      </trkpt>
      <trkpt lat="43.75721" lon="7.14328">
        <ele>640</ele>
        <time>2018-05-03T07:33:31.000Z</time>
      </trkpt>
      <trkpt lat="43.75728" lon="7.1433">
        <ele>640</ele>
        <time>2018-05-03T07:33:37.000Z</time>
      </trkpt>
      <trkpt lat="43.75729" lon="7.1433">
        <ele>640</ele>
        <time>2018-05-03T07:33:38.000Z</time>
      </trkpt>
      <trkpt lat="43.75736" lon="7.14331">
        <ele>639</ele>
        <time>2018-05-03T07:33:44.000Z</time>
      </trkpt>
      <trkpt lat="43.7574" lon="7.14332">
        <ele>639</ele>
        <time>2018-05-03T07:33:48.000Z</time>
      </trkpt>
      <trkpt lat="43.75741" lon="7.14332">
        <ele>639</ele>
        <time>2018-05-03T07:33:54.000Z</time>
      </trkpt>
      <trkpt lat="43.75741" lon="7.14332">
        <ele>639</ele>
        <time>2018-05-03T07:34:02.000Z</time>
      </trkpt>
      <trkpt lat="43.75742" lon="7.14331">
        <ele>638</ele>
        <time>2018-05-03T07:34:19.000Z</time>
      </trkpt>
      <trkpt lat="43.75742" lon="7.14331">
        <ele>638</ele>
        <time>2018-05-03T07:34:31.000Z</time>
      </trkpt>
      <trkpt lat="43.75742" lon="7.14331">
        <ele>638</ele>
        <time>2018-05-03T07:34:49.000Z</time>
      </trkpt>
      <trkpt lat="43.75743" lon="7.14331">
        <ele>638</ele>
        <time>2018-05-03T07:35:02.000Z</time>
      </trkpt>
      <trkpt lat="43.75743" lon="7.14331">
        <ele>638</ele>
        <time>2018-05-03T07:35:27.000Z</time>
      </trkpt>
      <trkpt lat="43.75744" lon="7.1433">
        <ele>638</ele>
        <time>2018-05-03T07:35:36.000Z</time>
      </trkpt>
      <trkpt lat="43.75744" lon="7.1433">
        <ele>638</ele>
        <time>2018-05-03T07:35:51.000Z</time>
      </trkpt>
      <trkpt lat="43.75745" lon="7.1433">
        <ele>638</ele>
        <time>2018-05-03T07:36:00.000Z</time>
      </trkpt>
      <trkpt lat="43.75747" lon="7.1433">
        <ele>638</ele>
        <time>2018-05-03T07:36:14.000Z</time>
      </trkpt>
      <trkpt lat="43.75747" lon="7.1433">
        <ele>638</ele>
        <time>2018-05-03T07:36:28.000Z</time>
      </trkpt>
      <trkpt lat="43.75753" lon="7.14333">
        <ele>638</ele>
        <time>2018-05-03T07:36:33.000Z</time>
      </trkpt>
      <trkpt lat="43.75765" lon="7.14332">
        <ele>643</ele>
        <time>2018-05-03T07:36:40.000Z</time>
      </trkpt>
      <trkpt lat="43.75766" lon="7.14333">
        <ele>643</ele>
        <time>2018-05-03T07:36:41.000Z</time>
      </trkpt>
      <trkpt lat="43.75774" lon="7.14333">
        <ele>645</ele>
        <time>2018-05-03T07:36:46.000Z</time>
      </trkpt>
      <trkpt lat="43.75783" lon="7.14329">
        <ele>647</ele>
        <time>2018-05-03T07:36:52.000Z</time>
      </trkpt>
      <trkpt lat="43.75785" lon="7.1433">
        <ele>647</ele>
        <time>2018-05-03T07:36:53.000Z</time>
      </trkpt>
      <trkpt lat="43.75796" lon="7.14325">
        <ele>648</ele>
        <time>2018-05-03T07:36:59.000Z</time>
      </trkpt>
      <trkpt lat="43.758" lon="7.14322">
        <ele>648</ele>
        <time>2018-05-03T07:37:02.000Z</time>
      </trkpt>
      <trkpt lat="43.75808" lon="7.14317">
        <ele>649</ele>
        <time>2018-05-03T07:37:07.000Z</time>
      </trkpt>
      <trkpt lat="43.75823" lon="7.14311">
        <ele>649</ele>
        <time>2018-05-03T07:37:15.000Z</time>
      </trkpt>
      <trkpt lat="43.75828" lon="7.14309">
        <ele>649</ele>
        <time>2018-05-03T07:37:18.000Z</time>
      </trkpt>
      <trkpt lat="43.75835" lon="7.14306">
        <ele>651</ele>
        <time>2018-05-03T07:37:22.000Z</time>
      </trkpt>
      <trkpt lat="43.75838" lon="7.14306">
        <ele>651</ele>
        <time>2018-05-03T07:37:24.000Z</time>
      </trkpt>
      <trkpt lat="43.7585" lon="7.14304">
        <ele>652</ele>
        <time>2018-05-03T07:37:31.000Z</time>
      </trkpt>
      <trkpt lat="43.75853" lon="7.14303">
        <ele>652</ele>
        <time>2018-05-03T07:37:33.000Z</time>
      </trkpt>
      <trkpt lat="43.7586" lon="7.14302">
        <ele>652</ele>
        <time>2018-05-03T07:37:38.000Z</time>
      </trkpt>
      <trkpt lat="43.75863" lon="7.143">
        <ele>653</ele>
        <time>2018-05-03T07:37:40.000Z</time>
      </trkpt>
      <trkpt lat="43.75868" lon="7.14299">
        <ele>653</ele>
        <time>2018-05-03T07:37:43.000Z</time>
      </trkpt>
      <trkpt lat="43.75873" lon="7.14298">
        <ele>653</ele>
        <time>2018-05-03T07:37:46.000Z</time>
      </trkpt>
      <trkpt lat="43.75877" lon="7.14297">
        <ele>653</ele>
        <time>2018-05-03T07:37:49.000Z</time>
      </trkpt>
      <trkpt lat="43.75888" lon="7.14302">
        <ele>653</ele>
        <time>2018-05-03T07:37:53.000Z</time>
      </trkpt>
      <trkpt lat="43.75892" lon="7.14306">
        <ele>653</ele>
        <time>2018-05-03T07:37:54.000Z</time>
      </trkpt>
      <trkpt lat="43.75896" lon="7.14306">
        <ele>653</ele>
        <time>2018-05-03T07:37:56.000Z</time>
      </trkpt>
      <trkpt lat="43.75909" lon="7.14305">
        <ele>653</ele>
        <time>2018-05-03T07:38:02.000Z</time>
      </trkpt>
      <trkpt lat="43.75913" lon="7.14308">
        <ele>653</ele>
        <time>2018-05-03T07:38:05.000Z</time>
      </trkpt>
      <trkpt lat="43.75917" lon="7.1431">
        <ele>653</ele>
        <time>2018-05-03T07:38:07.000Z</time>
      </trkpt>
      <trkpt lat="43.75922" lon="7.14312">
        <ele>654</ele>
        <time>2018-05-03T07:38:11.000Z</time>
      </trkpt>
      <trkpt lat="43.75926" lon="7.14313">
        <ele>655</ele>
        <time>2018-05-03T07:38:14.000Z</time>
      </trkpt>
      <trkpt lat="43.75932" lon="7.14315">
        <ele>655</ele>
        <time>2018-05-03T07:38:17.000Z</time>
      </trkpt>
      <trkpt lat="43.75936" lon="7.14315">
        <ele>655</ele>
        <time>2018-05-03T07:38:20.000Z</time>
      </trkpt>
      <trkpt lat="43.75942" lon="7.14315">
        <ele>655</ele>
        <time>2018-05-03T07:38:23.000Z</time>
      </trkpt>
      <trkpt lat="43.75948" lon="7.14314">
        <ele>655</ele>
        <time>2018-05-03T07:38:28.000Z</time>
      </trkpt>
      <trkpt lat="43.75952" lon="7.14313">
        <ele>655</ele>
        <time>2018-05-03T07:38:30.000Z</time>
      </trkpt>
      <trkpt lat="43.75959" lon="7.14312">
        <ele>656</ele>
        <time>2018-05-03T07:38:35.000Z</time>
      </trkpt>
      <trkpt lat="43.75966" lon="7.14313">
        <ele>656</ele>
        <time>2018-05-03T07:38:40.000Z</time>
      </trkpt>
      <trkpt lat="43.75969" lon="7.14314">
        <ele>656</ele>
        <time>2018-05-03T07:38:42.000Z</time>
      </trkpt>
      <trkpt lat="43.7597" lon="7.14315">
        <ele>656</ele>
        <time>2018-05-03T07:38:43.000Z</time>
      </trkpt>
      <trkpt lat="43.75973" lon="7.14316">
        <ele>656</ele>
        <time>2018-05-03T07:38:45.000Z</time>
      </trkpt>
      <trkpt lat="43.75974" lon="7.14316">
        <ele>656</ele>
        <time>2018-05-03T07:38:46.000Z</time>
      </trkpt>
      <trkpt lat="43.75982" lon="7.14315">
        <ele>656</ele>
        <time>2018-05-03T07:38:51.000Z</time>
      </trkpt>
      <trkpt lat="43.75985" lon="7.14315">
        <ele>656</ele>
        <time>2018-05-03T07:38:53.000Z</time>
      </trkpt>
      <trkpt lat="43.75987" lon="7.14315">
        <ele>656</ele>
        <time>2018-05-03T07:38:54.000Z</time>
      </trkpt>
      <trkpt lat="43.75997" lon="7.14317">
        <ele>657</ele>
        <time>2018-05-03T07:39:00.000Z</time>
      </trkpt>
      <trkpt lat="43.76004" lon="7.14317">
        <ele>659</ele>
        <time>2018-05-03T07:39:04.000Z</time>
      </trkpt>
      <trkpt lat="43.7601" lon="7.14317">
        <ele>659</ele>
        <time>2018-05-03T07:39:08.000Z</time>
      </trkpt>
      <trkpt lat="43.76024" lon="7.14321">
        <ele>659</ele>
        <time>2018-05-03T07:39:15.000Z</time>
      </trkpt>
      <trkpt lat="43.76025" lon="7.14322">
        <ele>659</ele>
        <time>2018-05-03T07:39:16.000Z</time>
      </trkpt>
      <trkpt lat="43.76033" lon="7.14327">
        <ele>659</ele>
        <time>2018-05-03T07:39:22.000Z</time>
      </trkpt>
      <trkpt lat="43.76037" lon="7.1433">
        <ele>659</ele>
        <time>2018-05-03T07:39:25.000Z</time>
      </trkpt>
      <trkpt lat="43.76042" lon="7.14334">
        <ele>665</ele>
        <time>2018-05-03T07:39:28.000Z</time>
      </trkpt>
      <trkpt lat="43.7605" lon="7.1434">
        <ele>666</ele>
        <time>2018-05-03T07:39:33.000Z</time>
      </trkpt>
      <trkpt lat="43.76053" lon="7.14341">
        <ele>666</ele>
        <time>2018-05-03T07:39:35.000Z</time>
      </trkpt>
      <trkpt lat="43.76062" lon="7.14348">
        <ele>666</ele>
        <time>2018-05-03T07:39:41.000Z</time>
      </trkpt>
      <trkpt lat="43.76064" lon="7.14349">
        <ele>666</ele>
        <time>2018-05-03T07:39:42.000Z</time>
      </trkpt>
      <trkpt lat="43.76076" lon="7.14357">
        <ele>666</ele>
        <time>2018-05-03T07:39:49.000Z</time>
      </trkpt>
      <trkpt lat="43.76079" lon="7.14359">
        <ele>666</ele>
        <time>2018-05-03T07:39:51.000Z</time>
      </trkpt>
      <trkpt lat="43.76085" lon="7.14364">
        <ele>667</ele>
        <time>2018-05-03T07:39:55.000Z</time>
      </trkpt>
      <trkpt lat="43.76091" lon="7.14368">
        <ele>667</ele>
        <time>2018-05-03T07:39:59.000Z</time>
      </trkpt>
      <trkpt lat="43.76092" lon="7.1437">
        <ele>668</ele>
        <time>2018-05-03T07:40:00.000Z</time>
      </trkpt>
      <trkpt lat="43.761" lon="7.14378">
        <ele>669</ele>
        <time>2018-05-03T07:40:06.000Z</time>
      </trkpt>
      <trkpt lat="43.76104" lon="7.14381">
        <ele>669</ele>
        <time>2018-05-03T07:40:08.000Z</time>
      </trkpt>
      <trkpt lat="43.76115" lon="7.14386">
        <ele>669</ele>
        <time>2018-05-03T07:40:14.000Z</time>
      </trkpt>
      <trkpt lat="43.76123" lon="7.14391">
        <ele>669</ele>
        <time>2018-05-03T07:40:19.000Z</time>
      </trkpt>
      <trkpt lat="43.76125" lon="7.14392">
        <ele>669</ele>
        <time>2018-05-03T07:40:20.000Z</time>
      </trkpt>
      <trkpt lat="43.76135" lon="7.14398">
        <ele>669</ele>
        <time>2018-05-03T07:40:26.000Z</time>
      </trkpt>
      <trkpt lat="43.76138" lon="7.144">
        <ele>669</ele>
        <time>2018-05-03T07:40:28.000Z</time>
      </trkpt>
      <trkpt lat="43.76143" lon="7.14405">
        <ele>669</ele>
        <time>2018-05-03T07:40:32.000Z</time>
      </trkpt>
      <trkpt lat="43.76149" lon="7.1441">
        <ele>669</ele>
        <time>2018-05-03T07:40:37.000Z</time>
      </trkpt>
      <trkpt lat="43.76159" lon="7.14413">
        <ele>669</ele>
        <time>2018-05-03T07:40:43.000Z</time>
      </trkpt>
      <trkpt lat="43.76163" lon="7.14415">
        <ele>669</ele>
        <time>2018-05-03T07:40:45.000Z</time>
      </trkpt>
      <trkpt lat="43.7617" lon="7.14417">
        <ele>670</ele>
        <time>2018-05-03T07:40:49.000Z</time>
      </trkpt>
      <trkpt lat="43.76184" lon="7.14421">
        <ele>675</ele>
        <time>2018-05-03T07:40:57.000Z</time>
      </trkpt>
      <trkpt lat="43.76186" lon="7.14421">
        <ele>675</ele>
        <time>2018-05-03T07:40:58.000Z</time>
      </trkpt>
      <trkpt lat="43.76188" lon="7.14422">
        <ele>675</ele>
        <time>2018-05-03T07:40:59.000Z</time>
      </trkpt>
      <trkpt lat="43.76193" lon="7.14421">
        <ele>676</ele>
        <time>2018-05-03T07:41:02.000Z</time>
      </trkpt>
      <trkpt lat="43.76207" lon="7.14424">
        <ele>677</ele>
        <time>2018-05-03T07:41:09.000Z</time>
      </trkpt>
      <trkpt lat="43.7621" lon="7.14425">
        <ele>677</ele>
        <time>2018-05-03T07:41:11.000Z</time>
      </trkpt>
      <trkpt lat="43.76219" lon="7.14431">
        <ele>677</ele>
        <time>2018-05-03T07:41:16.000Z</time>
      </trkpt>
      <trkpt lat="43.76231" lon="7.14436">
        <ele>676</ele>
        <time>2018-05-03T07:41:22.000Z</time>
      </trkpt>
      <trkpt lat="43.76232" lon="7.14436">
        <ele>676</ele>
        <time>2018-05-03T07:41:23.000Z</time>
      </trkpt>
      <trkpt lat="43.76245" lon="7.1444">
        <ele>676</ele>
        <time>2018-05-03T07:41:30.000Z</time>
      </trkpt>
      <trkpt lat="43.76257" lon="7.14441">
        <ele>676</ele>
        <time>2018-05-03T07:41:36.000Z</time>
      </trkpt>
      <trkpt lat="43.76259" lon="7.14442">
        <ele>677</ele>
        <time>2018-05-03T07:41:37.000Z</time>
      </trkpt>
      <trkpt lat="43.7627" lon="7.14443">
        <ele>678</ele>
        <time>2018-05-03T07:41:43.000Z</time>
      </trkpt>
      <trkpt lat="43.76274" lon="7.14444">
        <ele>678</ele>
        <time>2018-05-03T07:41:45.000Z</time>
      </trkpt>
      <trkpt lat="43.76285" lon="7.14448">
        <ele>679</ele>
        <time>2018-05-03T07:41:51.000Z</time>
      </trkpt>
      <trkpt lat="43.76291" lon="7.1445">
        <ele>679</ele>
        <time>2018-05-03T07:41:54.000Z</time>
      </trkpt>
      <trkpt lat="43.76297" lon="7.14453">
        <ele>680</ele>
        <time>2018-05-03T07:41:58.000Z</time>
      </trkpt>
      <trkpt lat="43.76302" lon="7.14456">
        <ele>680</ele>
        <time>2018-05-03T07:42:01.000Z</time>
      </trkpt>
      <trkpt lat="43.76307" lon="7.14459">
        <ele>680</ele>
        <time>2018-05-03T07:42:04.000Z</time>
      </trkpt>
      <trkpt lat="43.76313" lon="7.1446">
        <ele>681</ele>
        <time>2018-05-03T07:42:08.000Z</time>
      </trkpt>
      <trkpt lat="43.76321" lon="7.14459">
        <ele>680</ele>
        <time>2018-05-03T07:42:12.000Z</time>
      </trkpt>
      <trkpt lat="43.76327" lon="7.14459">
        <ele>681</ele>
        <time>2018-05-03T07:42:15.000Z</time>
      </trkpt>
      <trkpt lat="43.76341" lon="7.14459">
        <ele>684</ele>
        <time>2018-05-03T07:42:22.000Z</time>
      </trkpt>
      <trkpt lat="43.76347" lon="7.14458">
        <ele>684</ele>
        <time>2018-05-03T07:42:25.000Z</time>
      </trkpt>
      <trkpt lat="43.76354" lon="7.14455">
        <ele>684</ele>
        <time>2018-05-03T07:42:29.000Z</time>
      </trkpt>
      <trkpt lat="43.76372" lon="7.14451">
        <ele>684</ele>
        <time>2018-05-03T07:42:38.000Z</time>
      </trkpt>
      <trkpt lat="43.76374" lon="7.14452">
        <ele>684</ele>
        <time>2018-05-03T07:42:39.000Z</time>
      </trkpt>
      <trkpt lat="43.76386" lon="7.14455">
        <ele>685</ele>
        <time>2018-05-03T07:42:46.000Z</time>
      </trkpt>
      <trkpt lat="43.76389" lon="7.14456">
        <ele>685</ele>
        <time>2018-05-03T07:42:48.000Z</time>
      </trkpt>
      <trkpt lat="43.76397" lon="7.14456">
        <ele>685</ele>
        <time>2018-05-03T07:42:53.000Z</time>
      </trkpt>
      <trkpt lat="43.76403" lon="7.14456">
        <ele>686</ele>
        <time>2018-05-03T07:42:56.000Z</time>
      </trkpt>
      <trkpt lat="43.76412" lon="7.14455">
        <ele>686</ele>
        <time>2018-05-03T07:43:01.000Z</time>
      </trkpt>
      <trkpt lat="43.76417" lon="7.14455">
        <ele>690</ele>
        <time>2018-05-03T07:43:04.000Z</time>
      </trkpt>
      <trkpt lat="43.76425" lon="7.14456">
        <ele>690</ele>
        <time>2018-05-03T07:43:08.000Z</time>
      </trkpt>
      <trkpt lat="43.76431" lon="7.1446">
        <ele>691</ele>
        <time>2018-05-03T07:43:12.000Z</time>
      </trkpt>
      <trkpt lat="43.76433" lon="7.14462">
        <ele>691</ele>
        <time>2018-05-03T07:43:14.000Z</time>
      </trkpt>
      <trkpt lat="43.76438" lon="7.14463">
        <ele>691</ele>
        <time>2018-05-03T07:43:18.000Z</time>
      </trkpt>
      <trkpt lat="43.7644" lon="7.14464">
        <ele>691</ele>
        <time>2018-05-03T07:43:19.000Z</time>
      </trkpt>
      <trkpt lat="43.76449" lon="7.14467">
        <ele>692</ele>
        <time>2018-05-03T07:43:25.000Z</time>
      </trkpt>
      <trkpt lat="43.7645" lon="7.14467">
        <ele>692</ele>
        <time>2018-05-03T07:43:26.000Z</time>
      </trkpt>
      <trkpt lat="43.76462" lon="7.14469">
        <ele>693</ele>
        <time>2018-05-03T07:43:33.000Z</time>
      </trkpt>
      <trkpt lat="43.7647" lon="7.14468">
        <ele>693</ele>
        <time>2018-05-03T07:43:39.000Z</time>
      </trkpt>
      <trkpt lat="43.76472" lon="7.14468">
        <ele>693</ele>
        <time>2018-05-03T07:43:40.000Z</time>
      </trkpt>
      <trkpt lat="43.7648" lon="7.14467">
        <ele>693</ele>
        <time>2018-05-03T07:43:46.000Z</time>
      </trkpt>
      <trkpt lat="43.76486" lon="7.14466">
        <ele>694</ele>
        <time>2018-05-03T07:43:51.000Z</time>
      </trkpt>
      <trkpt lat="43.76488" lon="7.14466">
        <ele>694</ele>
        <time>2018-05-03T07:43:52.000Z</time>
      </trkpt>
      <trkpt lat="43.76496" lon="7.14462">
        <ele>694</ele>
        <time>2018-05-03T07:43:58.000Z</time>
      </trkpt>
      <trkpt lat="43.76497" lon="7.14462">
        <ele>694</ele>
        <time>2018-05-03T07:43:59.000Z</time>
      </trkpt>
      <trkpt lat="43.765" lon="7.14462">
        <ele>694</ele>
        <time>2018-05-03T07:44:03.000Z</time>
      </trkpt>
      <trkpt lat="43.76499" lon="7.14462">
        <ele>694</ele>
        <time>2018-05-03T07:44:04.000Z</time>
      </trkpt>
      <trkpt lat="43.76505" lon="7.14461">
        <ele>700</ele>
        <time>2018-05-03T07:44:09.000Z</time>
      </trkpt>
      <trkpt lat="43.7651" lon="7.14458">
        <ele>700</ele>
        <time>2018-05-03T07:44:13.000Z</time>
      </trkpt>
      <trkpt lat="43.76512" lon="7.14456">
        <ele>700</ele>
        <time>2018-05-03T07:44:15.000Z</time>
      </trkpt>
      <trkpt lat="43.76518" lon="7.14454">
        <ele>700</ele>
        <time>2018-05-03T07:44:19.000Z</time>
      </trkpt>
      <trkpt lat="43.76522" lon="7.14453">
        <ele>700</ele>
        <time>2018-05-03T07:44:22.000Z</time>
      </trkpt>
      <trkpt lat="43.76525" lon="7.1445">
        <ele>700</ele>
        <time>2018-05-03T07:44:25.000Z</time>
      </trkpt>
      <trkpt lat="43.7653" lon="7.14448">
        <ele>700</ele>
        <time>2018-05-03T07:44:28.000Z</time>
      </trkpt>
      <trkpt lat="43.76537" lon="7.14444">
        <ele>701</ele>
        <time>2018-05-03T07:44:32.000Z</time>
      </trkpt>
      <trkpt lat="43.76539" lon="7.14443">
        <ele>701</ele>
        <time>2018-05-03T07:44:33.000Z</time>
      </trkpt>
      <trkpt lat="43.76548" lon="7.14443">
        <ele>701</ele>
        <time>2018-05-03T07:44:38.000Z</time>
      </trkpt>
      <trkpt lat="43.76552" lon="7.14444">
        <ele>701</ele>
        <time>2018-05-03T07:44:40.000Z</time>
      </trkpt>
      <trkpt lat="43.7656" lon="7.14444">
        <ele>702</ele>
        <time>2018-05-03T07:44:45.000Z</time>
      </trkpt>
      <trkpt lat="43.76571" lon="7.14443">
        <ele>702</ele>
        <time>2018-05-03T07:44:52.000Z</time>
      </trkpt>
      <trkpt lat="43.76584" lon="7.14443">
        <ele>709</ele>
        <time>2018-05-03T07:45:00.000Z</time>
      </trkpt>
      <trkpt lat="43.76585" lon="7.14442">
        <ele>709</ele>
        <time>2018-05-03T07:45:01.000Z</time>
      </trkpt>
      <trkpt lat="43.76596" lon="7.1444">
        <ele>709</ele>
        <time>2018-05-03T07:45:08.000Z</time>
      </trkpt>
      <trkpt lat="43.76599" lon="7.14439">
        <ele>709</ele>
        <time>2018-05-03T07:45:10.000Z</time>
      </trkpt>
      <trkpt lat="43.76607" lon="7.14437">
        <ele>710</ele>
        <time>2018-05-03T07:45:16.000Z</time>
      </trkpt>
      <trkpt lat="43.76612" lon="7.14436">
        <ele>710</ele>
        <time>2018-05-03T07:45:19.000Z</time>
      </trkpt>
      <trkpt lat="43.7662" lon="7.14437">
        <ele>711</ele>
        <time>2018-05-03T07:45:24.000Z</time>
      </trkpt>
      <trkpt lat="43.76621" lon="7.14437">
        <ele>711</ele>
        <time>2018-05-03T07:45:25.000Z</time>
      </trkpt>
      <trkpt lat="43.76629" lon="7.14437">
        <ele>712</ele>
        <time>2018-05-03T07:45:31.000Z</time>
      </trkpt>
      <trkpt lat="43.76639" lon="7.14437">
        <ele>713</ele>
        <time>2018-05-03T07:45:37.000Z</time>
      </trkpt>
      <trkpt lat="43.7664" lon="7.14437">
        <ele>713</ele>
        <time>2018-05-03T07:45:38.000Z</time>
      </trkpt>
      <trkpt lat="43.76648" lon="7.14438">
        <ele>713</ele>
        <time>2018-05-03T07:45:44.000Z</time>
      </trkpt>
      <trkpt lat="43.76656" lon="7.14439">
        <ele>713</ele>
        <time>2018-05-03T07:45:50.000Z</time>
      </trkpt>
      <trkpt lat="43.76657" lon="7.14439">
        <ele>713</ele>
        <time>2018-05-03T07:45:51.000Z</time>
      </trkpt>
      <trkpt lat="43.76665" lon="7.1444">
        <ele>714</ele>
        <time>2018-05-03T07:45:58.000Z</time>
      </trkpt>
      <trkpt lat="43.76671" lon="7.14442">
        <ele>721</ele>
        <time>2018-05-03T07:46:03.000Z</time>
      </trkpt>
      <trkpt lat="43.76672" lon="7.14442">
        <ele>721</ele>
        <time>2018-05-03T07:46:04.000Z</time>
      </trkpt>
      <trkpt lat="43.76679" lon="7.14443">
        <ele>722</ele>
        <time>2018-05-03T07:46:10.000Z</time>
      </trkpt>
      <trkpt lat="43.76686" lon="7.14445">
        <ele>723</ele>
        <time>2018-05-03T07:46:16.000Z</time>
      </trkpt>
      <trkpt lat="43.76687" lon="7.14446">
        <ele>723</ele>
        <time>2018-05-03T07:46:17.000Z</time>
      </trkpt>
      <trkpt lat="43.76693" lon="7.14448">
        <ele>723</ele>
        <time>2018-05-03T07:46:22.000Z</time>
      </trkpt>
      <trkpt lat="43.76697" lon="7.14448">
        <ele>724</ele>
        <time>2018-05-03T07:46:25.000Z</time>
      </trkpt>
      <trkpt lat="43.76701" lon="7.1445">
        <ele>724</ele>
        <time>2018-05-03T07:46:28.000Z</time>
      </trkpt>
      <trkpt lat="43.76706" lon="7.14451">
        <ele>725</ele>
        <time>2018-05-03T07:46:32.000Z</time>
      </trkpt>
      <trkpt lat="43.76708" lon="7.14452">
        <ele>725</ele>
        <time>2018-05-03T07:46:33.000Z</time>
      </trkpt>
      <trkpt lat="43.7671" lon="7.14454">
        <ele>725</ele>
        <time>2018-05-03T07:46:36.000Z</time>
      </trkpt>
      <trkpt lat="43.76711" lon="7.14455">
        <ele>725</ele>
        <time>2018-05-03T07:46:37.000Z</time>
      </trkpt>
      <trkpt lat="43.76712" lon="7.14455">
        <ele>725</ele>
        <time>2018-05-03T07:46:38.000Z</time>
      </trkpt>
      <trkpt lat="43.76714" lon="7.14456">
        <ele>726</ele>
        <time>2018-05-03T07:46:40.000Z</time>
      </trkpt>
      <trkpt lat="43.76718" lon="7.14458">
        <ele>726</ele>
        <time>2018-05-03T07:46:44.000Z</time>
      </trkpt>
      <trkpt lat="43.76722" lon="7.1446">
        <ele>726</ele>
        <time>2018-05-03T07:46:47.000Z</time>
      </trkpt>
      <trkpt lat="43.76728" lon="7.14463">
        <ele>727</ele>
        <time>2018-05-03T07:46:52.000Z</time>
      </trkpt>
      <trkpt lat="43.76732" lon="7.14466">
        <ele>727</ele>
        <time>2018-05-03T07:46:55.000Z</time>
      </trkpt>
      <trkpt lat="43.76735" lon="7.14467">
        <ele>727</ele>
        <time>2018-05-03T07:46:58.000Z</time>
      </trkpt>
      <trkpt lat="43.76742" lon="7.14472">
        <ele>728</ele>
        <time>2018-05-03T07:47:04.000Z</time>
      </trkpt>
      <trkpt lat="43.76742" lon="7.14471">
        <ele>728</ele>
        <time>2018-05-03T07:47:05.000Z</time>
      </trkpt>
      <trkpt lat="43.76743" lon="7.14471">
        <ele>728</ele>
        <time>2018-05-03T07:47:08.000Z</time>
      </trkpt>
      <trkpt lat="43.76747" lon="7.14471">
        <ele>728</ele>
        <time>2018-05-03T07:47:12.000Z</time>
      </trkpt>
      <trkpt lat="43.76749" lon="7.1447">
        <ele>728</ele>
        <time>2018-05-03T07:47:14.000Z</time>
      </trkpt>
      <trkpt lat="43.76752" lon="7.14466">
        <ele>735</ele>
        <time>2018-05-03T07:47:16.000Z</time>
      </trkpt>
      <trkpt lat="43.76756" lon="7.14463">
        <ele>736</ele>
        <time>2018-05-03T07:47:19.000Z</time>
      </trkpt>
      <trkpt lat="43.76758" lon="7.14462">
        <ele>736</ele>
        <time>2018-05-03T07:47:21.000Z</time>
      </trkpt>
      <trkpt lat="43.76761" lon="7.14463">
        <ele>736</ele>
        <time>2018-05-03T07:47:25.000Z</time>
      </trkpt>
      <trkpt lat="43.76763" lon="7.14463">
        <ele>736</ele>
        <time>2018-05-03T07:47:26.000Z</time>
      </trkpt>
      <trkpt lat="43.76767" lon="7.14466">
        <ele>736</ele>
        <time>2018-05-03T07:47:30.000Z</time>
      </trkpt>
      <trkpt lat="43.76768" lon="7.14467">
        <ele>736</ele>
        <time>2018-05-03T07:47:31.000Z</time>
      </trkpt>
      <trkpt lat="43.76776" lon="7.14471">
        <ele>736</ele>
        <time>2018-05-03T07:47:36.000Z</time>
      </trkpt>
      <trkpt lat="43.76781" lon="7.14475">
        <ele>737</ele>
        <time>2018-05-03T07:47:41.000Z</time>
      </trkpt>
      <trkpt lat="43.76788" lon="7.14478">
        <ele>737</ele>
        <time>2018-05-03T07:47:46.000Z</time>
      </trkpt>
      <trkpt lat="43.7679" lon="7.14478">
        <ele>737</ele>
        <time>2018-05-03T07:47:48.000Z</time>
      </trkpt>
      <trkpt lat="43.76797" lon="7.14479">
        <ele>737</ele>
        <time>2018-05-03T07:47:53.000Z</time>
      </trkpt>
      <trkpt lat="43.76798" lon="7.14479">
        <ele>737</ele>
        <time>2018-05-03T07:47:54.000Z</time>
      </trkpt>
      <trkpt lat="43.76805" lon="7.1448">
        <ele>738</ele>
        <time>2018-05-03T07:48:00.000Z</time>
      </trkpt>
      <trkpt lat="43.76806" lon="7.14481">
        <ele>738</ele>
        <time>2018-05-03T07:48:01.000Z</time>
      </trkpt>
      <trkpt lat="43.76814" lon="7.14481">
        <ele>738</ele>
        <time>2018-05-03T07:48:07.000Z</time>
      </trkpt>
      <trkpt lat="43.76815" lon="7.14481">
        <ele>738</ele>
        <time>2018-05-03T07:48:08.000Z</time>
      </trkpt>
      <trkpt lat="43.7682" lon="7.14482">
        <ele>738</ele>
        <time>2018-05-03T07:48:13.000Z</time>
      </trkpt>
      <trkpt lat="43.76827" lon="7.14483">
        <ele>738</ele>
        <time>2018-05-03T07:48:19.000Z</time>
      </trkpt>
      <trkpt lat="43.76828" lon="7.14483">
        <ele>738</ele>
        <time>2018-05-03T07:48:20.000Z</time>
      </trkpt>
      <trkpt lat="43.76833" lon="7.14484">
        <ele>738</ele>
        <time>2018-05-03T07:48:24.000Z</time>
      </trkpt>
      <trkpt lat="43.76835" lon="7.14485">
        <ele>743</ele>
        <time>2018-05-03T07:48:26.000Z</time>
      </trkpt>
      <trkpt lat="43.76842" lon="7.14485">
        <ele>743</ele>
        <time>2018-05-03T07:48:31.000Z</time>
      </trkpt>
      <trkpt lat="43.76843" lon="7.14485">
        <ele>743</ele>
        <time>2018-05-03T07:48:32.000Z</time>
      </trkpt>
      <trkpt lat="43.76848" lon="7.14486">
        <ele>744</ele>
        <time>2018-05-03T07:48:36.000Z</time>
      </trkpt>
      <trkpt lat="43.76852" lon="7.14487">
        <ele>744</ele>
        <time>2018-05-03T07:48:39.000Z</time>
      </trkpt>
      <trkpt lat="43.76858" lon="7.14488">
        <ele>745</ele>
        <time>2018-05-03T07:48:44.000Z</time>
      </trkpt>
      <trkpt lat="43.76859" lon="7.14488">
        <ele>745</ele>
        <time>2018-05-03T07:48:45.000Z</time>
      </trkpt>
      <trkpt lat="43.76866" lon="7.1449">
        <ele>746</ele>
        <time>2018-05-03T07:48:50.000Z</time>
      </trkpt>
      <trkpt lat="43.76871" lon="7.1449">
        <ele>746</ele>
        <time>2018-05-03T07:48:53.000Z</time>
      </trkpt>
      <trkpt lat="43.76874" lon="7.1449">
        <ele>747</ele>
        <time>2018-05-03T07:48:55.000Z</time>
      </trkpt>
      <trkpt lat="43.76887" lon="7.1449">
        <ele>747</ele>
        <time>2018-05-03T07:49:02.000Z</time>
      </trkpt>
      <trkpt lat="43.76888" lon="7.1449">
        <ele>747</ele>
        <time>2018-05-03T07:49:03.000Z</time>
      </trkpt>
      <trkpt lat="43.76902" lon="7.1449">
        <ele>748</ele>
        <time>2018-05-03T07:49:10.000Z</time>
      </trkpt>
      <trkpt lat="43.76906" lon="7.14489">
        <ele>748</ele>
        <time>2018-05-03T07:49:12.000Z</time>
      </trkpt>
      <trkpt lat="43.76916" lon="7.14485">
        <ele>748</ele>
        <time>2018-05-03T07:49:17.000Z</time>
      </trkpt>
      <trkpt lat="43.76924" lon="7.14483">
        <ele>751</ele>
        <time>2018-05-03T07:49:22.000Z</time>
      </trkpt>
      <trkpt lat="43.76927" lon="7.14483">
        <ele>752</ele>
        <time>2018-05-03T07:49:24.000Z</time>
      </trkpt>
      <trkpt lat="43.76929" lon="7.14483">
        <ele>752</ele>
        <time>2018-05-03T07:49:26.000Z</time>
      </trkpt>
      <trkpt lat="43.76935" lon="7.14481">
        <ele>753</ele>
        <time>2018-05-03T07:49:31.000Z</time>
      </trkpt>
      <trkpt lat="43.76938" lon="7.1448">
        <ele>753</ele>
        <time>2018-05-03T07:49:33.000Z</time>
      </trkpt>
      <trkpt lat="43.76943" lon="7.14479">
        <ele>753</ele>
        <time>2018-05-03T07:49:37.000Z</time>
      </trkpt>
      <trkpt lat="43.76947" lon="7.14477">
        <ele>754</ele>
        <time>2018-05-03T07:49:41.000Z</time>
      </trkpt>
      <trkpt lat="43.76953" lon="7.14477">
        <ele>754</ele>
        <time>2018-05-03T07:49:45.000Z</time>
      </trkpt>
      <trkpt lat="43.7696" lon="7.14476">
        <ele>754</ele>
        <time>2018-05-03T07:49:50.000Z</time>
      </trkpt>
      <trkpt lat="43.76961" lon="7.14476">
        <ele>755</ele>
        <time>2018-05-03T07:49:51.000Z</time>
      </trkpt>
      <trkpt lat="43.76972" lon="7.14475">
        <ele>755</ele>
        <time>2018-05-03T07:49:58.000Z</time>
      </trkpt>
      <trkpt lat="43.76984" lon="7.14473">
        <ele>755</ele>
        <time>2018-05-03T07:50:05.000Z</time>
      </trkpt>
      <trkpt lat="43.76986" lon="7.14473">
        <ele>755</ele>
        <time>2018-05-03T07:50:06.000Z</time>
      </trkpt>
      <trkpt lat="43.76997" lon="7.14468">
        <ele>755</ele>
        <time>2018-05-03T07:50:13.000Z</time>
      </trkpt>
      <trkpt lat="43.77" lon="7.14467">
        <ele>756</ele>
        <time>2018-05-03T07:50:15.000Z</time>
      </trkpt>
      <trkpt lat="43.77007" lon="7.14466">
        <ele>757</ele>
        <time>2018-05-03T07:50:19.000Z</time>
      </trkpt>
      <trkpt lat="43.77011" lon="7.14464">
        <ele>757</ele>
        <time>2018-05-03T07:50:22.000Z</time>
      </trkpt>
      <trkpt lat="43.77016" lon="7.1446">
        <ele>757</ele>
        <time>2018-05-03T07:50:26.000Z</time>
      </trkpt>
      <trkpt lat="43.77025" lon="7.14452">
        <ele>757</ele>
        <time>2018-05-03T07:50:33.000Z</time>
      </trkpt>
      <trkpt lat="43.77026" lon="7.14451">
        <ele>757</ele>
        <time>2018-05-03T07:50:34.000Z</time>
      </trkpt>
      <trkpt lat="43.77035" lon="7.14444">
        <ele>757</ele>
        <time>2018-05-03T07:50:40.000Z</time>
      </trkpt>
      <trkpt lat="43.77044" lon="7.14437">
        <ele>757</ele>
        <time>2018-05-03T07:50:46.000Z</time>
      </trkpt>
      <trkpt lat="43.77046" lon="7.14435">
        <ele>757</ele>
        <time>2018-05-03T07:50:47.000Z</time>
      </trkpt>
      <trkpt lat="43.77054" lon="7.14429">
        <ele>757</ele>
        <time>2018-05-03T07:50:53.000Z</time>
      </trkpt>
      <trkpt lat="43.77066" lon="7.14416">
        <ele>761</ele>
        <time>2018-05-03T07:51:01.000Z</time>
      </trkpt>
      <trkpt lat="43.77079" lon="7.14407">
        <ele>759</ele>
        <time>2018-05-03T07:51:09.000Z</time>
      </trkpt>
      <trkpt lat="43.77087" lon="7.14403">
        <ele>758</ele>
        <time>2018-05-03T07:51:13.000Z</time>
      </trkpt>
      <trkpt lat="43.77094" lon="7.14399">
        <ele>759</ele>
        <time>2018-05-03T07:51:17.000Z</time>
      </trkpt>
      <trkpt lat="43.77106" lon="7.14389">
        <ele>760</ele>
        <time>2018-05-03T07:51:24.000Z</time>
      </trkpt>
      <trkpt lat="43.77115" lon="7.14379">
        <ele>760</ele>
        <time>2018-05-03T07:51:30.000Z</time>
      </trkpt>
      <trkpt lat="43.77119" lon="7.14374">
        <ele>761</ele>
        <time>2018-05-03T07:51:33.000Z</time>
      </trkpt>
      <trkpt lat="43.77129" lon="7.14361">
        <ele>761</ele>
        <time>2018-05-03T07:51:41.000Z</time>
      </trkpt>
      <trkpt lat="43.77134" lon="7.14354">
        <ele>761</ele>
        <time>2018-05-03T07:51:45.000Z</time>
      </trkpt>
      <trkpt lat="43.77138" lon="7.14348">
        <ele>761</ele>
        <time>2018-05-03T07:51:48.000Z</time>
      </trkpt>
      <trkpt lat="43.77144" lon="7.14341">
        <ele>761</ele>
        <time>2018-05-03T07:51:53.000Z</time>
      </trkpt>
      <trkpt lat="43.77147" lon="7.14338">
        <ele>761</ele>
        <time>2018-05-03T07:51:55.000Z</time>
      </trkpt>
      <trkpt lat="43.77155" lon="7.14328">
        <ele>764</ele>
        <time>2018-05-03T07:52:02.000Z</time>
      </trkpt>
      <trkpt lat="43.77165" lon="7.14318">
        <ele>764</ele>
        <time>2018-05-03T07:52:09.000Z</time>
      </trkpt>
      <trkpt lat="43.77166" lon="7.14316">
        <ele>765</ele>
        <time>2018-05-03T07:52:10.000Z</time>
      </trkpt>
      <trkpt lat="43.77175" lon="7.14302">
        <ele>763</ele>
        <time>2018-05-03T07:52:17.000Z</time>
      </trkpt>
      <trkpt lat="43.77183" lon="7.14287">
        <ele>764</ele>
        <time>2018-05-03T07:52:25.000Z</time>
      </trkpt>
      <trkpt lat="43.77185" lon="7.14285">
        <ele>764</ele>
        <time>2018-05-03T07:52:26.000Z</time>
      </trkpt>
      <trkpt lat="43.77197" lon="7.14274">
        <ele>765</ele>
        <time>2018-05-03T07:52:34.000Z</time>
      </trkpt>
      <trkpt lat="43.77208" lon="7.14266">
        <ele>765</ele>
        <time>2018-05-03T07:52:42.000Z</time>
      </trkpt>
      <trkpt lat="43.7721" lon="7.14265">
        <ele>765</ele>
        <time>2018-05-03T07:52:44.000Z</time>
      </trkpt>
      <trkpt lat="43.77217" lon="7.14258">
        <ele>765</ele>
        <time>2018-05-03T07:52:49.000Z</time>
      </trkpt>
      <trkpt lat="43.77227" lon="7.14254">
        <ele>765</ele>
        <time>2018-05-03T07:52:54.000Z</time>
      </trkpt>
      <trkpt lat="43.77235" lon="7.14253">
        <ele>765</ele>
        <time>2018-05-03T07:52:59.000Z</time>
      </trkpt>
      <trkpt lat="43.7724" lon="7.14254">
        <ele>765</ele>
        <time>2018-05-03T07:53:02.000Z</time>
      </trkpt>
      <trkpt lat="43.77246" lon="7.14257">
        <ele>765</ele>
        <time>2018-05-03T07:53:07.000Z</time>
      </trkpt>
      <trkpt lat="43.77247" lon="7.14258">
        <ele>765</ele>
        <time>2018-05-03T07:53:08.000Z</time>
      </trkpt>
      <trkpt lat="43.77251" lon="7.14261">
        <ele>770</ele>
        <time>2018-05-03T07:53:13.000Z</time>
      </trkpt>
      <trkpt lat="43.77252" lon="7.14261">
        <ele>770</ele>
        <time>2018-05-03T07:53:14.000Z</time>
      </trkpt>
      <trkpt lat="43.77254" lon="7.14258">
        <ele>769</ele>
        <time>2018-05-03T07:53:19.000Z</time>
      </trkpt>
      <trkpt lat="43.77254" lon="7.14255">
        <ele>769</ele>
        <time>2018-05-03T07:53:20.000Z</time>
      </trkpt>
      <trkpt lat="43.77255" lon="7.14249">
        <ele>769</ele>
        <time>2018-05-03T07:53:23.000Z</time>
      </trkpt>
      <trkpt lat="43.77256" lon="7.14248">
        <ele>769</ele>
        <time>2018-05-03T07:53:24.000Z</time>
      </trkpt>
      <trkpt lat="43.77257" lon="7.14241">
        <ele>771</ele>
        <time>2018-05-03T07:53:28.000Z</time>
      </trkpt>
      <trkpt lat="43.77259" lon="7.14237">
        <ele>772</ele>
        <time>2018-05-03T07:53:30.000Z</time>
      </trkpt>
      <trkpt lat="43.7726" lon="7.14235">
        <ele>773</ele>
        <time>2018-05-03T07:53:32.000Z</time>
      </trkpt>
      <trkpt lat="43.77262" lon="7.14233">
        <ele>773</ele>
        <time>2018-05-03T07:53:34.000Z</time>
      </trkpt>
      <trkpt lat="43.77264" lon="7.1423">
        <ele>774</ele>
        <time>2018-05-03T07:53:36.000Z</time>
      </trkpt>
      <trkpt lat="43.77266" lon="7.14223">
        <ele>775</ele>
        <time>2018-05-03T07:53:41.000Z</time>
      </trkpt>
      <trkpt lat="43.77267" lon="7.14222">
        <ele>775</ele>
        <time>2018-05-03T07:53:42.000Z</time>
      </trkpt>
      <trkpt lat="43.77272" lon="7.14217">
        <ele>776</ele>
        <time>2018-05-03T07:53:47.000Z</time>
      </trkpt>
      <trkpt lat="43.77274" lon="7.14215">
        <ele>776</ele>
        <time>2018-05-03T07:53:49.000Z</time>
      </trkpt>
      <trkpt lat="43.77276" lon="7.14209">
        <ele>777</ele>
        <time>2018-05-03T07:53:53.000Z</time>
      </trkpt>
      <trkpt lat="43.77277" lon="7.14208">
        <ele>777</ele>
        <time>2018-05-03T07:53:54.000Z</time>
      </trkpt>
      <trkpt lat="43.77279" lon="7.14206">
        <ele>777</ele>
        <time>2018-05-03T07:53:57.000Z</time>
      </trkpt>
      <trkpt lat="43.77279" lon="7.14204">
        <ele>777</ele>
        <time>2018-05-03T07:53:58.000Z</time>
      </trkpt>
      <trkpt lat="43.77282" lon="7.14202">
        <ele>777</ele>
        <time>2018-05-03T07:54:00.000Z</time>
      </trkpt>
      <trkpt lat="43.77285" lon="7.14197">
        <ele>778</ele>
        <time>2018-05-03T07:54:04.000Z</time>
      </trkpt>
      <trkpt lat="43.77286" lon="7.14196">
        <ele>778</ele>
        <time>2018-05-03T07:54:05.000Z</time>
      </trkpt>
      <trkpt lat="43.7729" lon="7.14192">
        <ele>778</ele>
        <time>2018-05-03T07:54:09.000Z</time>
      </trkpt>
      <trkpt lat="43.77291" lon="7.14189">
        <ele>778</ele>
        <time>2018-05-03T07:54:11.000Z</time>
      </trkpt>
      <trkpt lat="43.77295" lon="7.14185">
        <ele>779</ele>
        <time>2018-05-03T07:54:16.000Z</time>
      </trkpt>
      <trkpt lat="43.77296" lon="7.14184">
        <ele>779</ele>
        <time>2018-05-03T07:54:17.000Z</time>
      </trkpt>
      <trkpt lat="43.773" lon="7.14178">
        <ele>780</ele>
        <time>2018-05-03T07:54:23.000Z</time>
      </trkpt>
      <trkpt lat="43.77302" lon="7.14175">
        <ele>780</ele>
        <time>2018-05-03T07:54:25.000Z</time>
      </trkpt>
      <trkpt lat="43.77303" lon="7.14172">
        <ele>780</ele>
        <time>2018-05-03T07:54:27.000Z</time>
      </trkpt>
      <trkpt lat="43.77305" lon="7.14167">
        <ele>781</ele>
        <time>2018-05-03T07:54:31.000Z</time>
      </trkpt>
      <trkpt lat="43.77306" lon="7.14165">
        <ele>781</ele>
        <time>2018-05-03T07:54:32.000Z</time>
      </trkpt>
      <trkpt lat="43.77308" lon="7.1416">
        <ele>781</ele>
        <time>2018-05-03T07:54:36.000Z</time>
      </trkpt>
      <trkpt lat="43.77308" lon="7.14159">
        <ele>781</ele>
        <time>2018-05-03T07:54:37.000Z</time>
      </trkpt>
      <trkpt lat="43.77308" lon="7.14157">
        <ele>781</ele>
        <time>2018-05-03T07:54:38.000Z</time>
      </trkpt>
      <trkpt lat="43.7731" lon="7.14151">
        <ele>781</ele>
        <time>2018-05-03T07:54:42.000Z</time>
      </trkpt>
      <trkpt lat="43.7731" lon="7.1415">
        <ele>781</ele>
        <time>2018-05-03T07:54:43.000Z</time>
      </trkpt>
      <trkpt lat="43.77313" lon="7.14142">
        <ele>781</ele>
        <time>2018-05-03T07:54:48.000Z</time>
      </trkpt>
      <trkpt lat="43.77313" lon="7.14141">
        <ele>781</ele>
        <time>2018-05-03T07:54:49.000Z</time>
      </trkpt>
      <trkpt lat="43.77316" lon="7.14132">
        <ele>780</ele>
        <time>2018-05-03T07:54:55.000Z</time>
      </trkpt>
      <trkpt lat="43.77316" lon="7.14131">
        <ele>780</ele>
        <time>2018-05-03T07:54:56.000Z</time>
      </trkpt>
      <trkpt lat="43.77319" lon="7.14124">
        <ele>780</ele>
        <time>2018-05-03T07:55:00.000Z</time>
      </trkpt>
      <trkpt lat="43.7732" lon="7.14122">
        <ele>780</ele>
        <time>2018-05-03T07:55:01.000Z</time>
      </trkpt>
      <trkpt lat="43.77321" lon="7.14121">
        <ele>780</ele>
        <time>2018-05-03T07:55:02.000Z</time>
      </trkpt>
      <trkpt lat="43.77325" lon="7.14113">
        <ele>780</ele>
        <time>2018-05-03T07:55:07.000Z</time>
      </trkpt>
      <trkpt lat="43.77327" lon="7.1411">
        <ele>780</ele>
        <time>2018-05-03T07:55:09.000Z</time>
      </trkpt>
      <trkpt lat="43.77331" lon="7.14105">
        <ele>780</ele>
        <time>2018-05-03T07:55:14.000Z</time>
      </trkpt>
      <trkpt lat="43.77333" lon="7.14103">
        <ele>780</ele>
        <time>2018-05-03T07:55:16.000Z</time>
      </trkpt>
      <trkpt lat="43.77337" lon="7.141">
        <ele>787</ele>
        <time>2018-05-03T07:55:21.000Z</time>
      </trkpt>
      <trkpt lat="43.77339" lon="7.14097">
        <ele>786</ele>
        <time>2018-05-03T07:55:23.000Z</time>
      </trkpt>
      <trkpt lat="43.77343" lon="7.14093">
        <ele>786</ele>
        <time>2018-05-03T07:55:27.000Z</time>
      </trkpt>
      <trkpt lat="43.77348" lon="7.14087">
        <ele>787</ele>
        <time>2018-05-03T07:55:32.000Z</time>
      </trkpt>
      <trkpt lat="43.77349" lon="7.14086">
        <ele>787</ele>
        <time>2018-05-03T07:55:33.000Z</time>
      </trkpt>
      <trkpt lat="43.77352" lon="7.14082">
        <ele>786</ele>
        <time>2018-05-03T07:55:36.000Z</time>
      </trkpt>
      <trkpt lat="43.77355" lon="7.14078">
        <ele>787</ele>
        <time>2018-05-03T07:55:39.000Z</time>
      </trkpt>
      <trkpt lat="43.77356" lon="7.14076">
        <ele>787</ele>
        <time>2018-05-03T07:55:40.000Z</time>
      </trkpt>
      <trkpt lat="43.77363" lon="7.14069">
        <ele>789</ele>
        <time>2018-05-03T07:55:46.000Z</time>
      </trkpt>
      <trkpt lat="43.77372" lon="7.14057">
        <ele>790</ele>
        <time>2018-05-03T07:55:53.000Z</time>
      </trkpt>
      <trkpt lat="43.77383" lon="7.14044">
        <ele>791</ele>
        <time>2018-05-03T07:56:00.000Z</time>
      </trkpt>
      <trkpt lat="43.77393" lon="7.14035">
        <ele>792</ele>
        <time>2018-05-03T07:56:06.000Z</time>
      </trkpt>
      <trkpt lat="43.77395" lon="7.14032">
        <ele>792</ele>
        <time>2018-05-03T07:56:07.000Z</time>
      </trkpt>
      <trkpt lat="43.77409" lon="7.14021">
        <ele>792</ele>
        <time>2018-05-03T07:56:13.000Z</time>
      </trkpt>
      <trkpt lat="43.77429" lon="7.14011">
        <ele>798</ele>
        <time>2018-05-03T07:56:21.000Z</time>
      </trkpt>
      <trkpt lat="43.77434" lon="7.14007">
        <ele>798</ele>
        <time>2018-05-03T07:56:23.000Z</time>
      </trkpt>
      <trkpt lat="43.77449" lon="7.13998">
        <ele>799</ele>
        <time>2018-05-03T07:56:29.000Z</time>
      </trkpt>
      <trkpt lat="43.77454" lon="7.13995">
        <ele>799</ele>
        <time>2018-05-03T07:56:32.000Z</time>
      </trkpt>
      <trkpt lat="43.77457" lon="7.13993">
        <ele>800</ele>
        <time>2018-05-03T07:56:34.000Z</time>
      </trkpt>
      <trkpt lat="43.77464" lon="7.13988">
        <ele>800</ele>
        <time>2018-05-03T07:56:39.000Z</time>
      </trkpt>
      <trkpt lat="43.7747" lon="7.13984">
        <ele>801</ele>
        <time>2018-05-03T07:56:44.000Z</time>
      </trkpt>
      <trkpt lat="43.77471" lon="7.13984">
        <ele>801</ele>
        <time>2018-05-03T07:56:45.000Z</time>
      </trkpt>
      <trkpt lat="43.77476" lon="7.13981">
        <ele>801</ele>
        <time>2018-05-03T07:56:50.000Z</time>
      </trkpt>
      <trkpt lat="43.77479" lon="7.13979">
        <ele>801</ele>
        <time>2018-05-03T07:56:52.000Z</time>
      </trkpt>
      <trkpt lat="43.77481" lon="7.13975">
        <ele>801</ele>
        <time>2018-05-03T07:56:56.000Z</time>
      </trkpt>
      <trkpt lat="43.77484" lon="7.13972">
        <ele>802</ele>
        <time>2018-05-03T07:56:59.000Z</time>
      </trkpt>
      <trkpt lat="43.77489" lon="7.13964">
        <ele>802</ele>
        <time>2018-05-03T07:57:05.000Z</time>
      </trkpt>
      <trkpt lat="43.7749" lon="7.13962">
        <ele>802</ele>
        <time>2018-05-03T07:57:07.000Z</time>
      </trkpt>
      <trkpt lat="43.7749" lon="7.13962">
        <ele>802</ele>
        <time>2018-05-03T07:57:13.000Z</time>
      </trkpt>
      <trkpt lat="43.7749" lon="7.1396">
        <ele>802</ele>
        <time>2018-05-03T07:57:44.000Z</time>
      </trkpt>
      <trkpt lat="43.77491" lon="7.13957">
        <ele>802</ele>
        <time>2018-05-03T07:58:01.000Z</time>
      </trkpt>
      <trkpt lat="43.77494" lon="7.13949">
        <ele>802</ele>
        <time>2018-05-03T07:58:05.000Z</time>
      </trkpt>
      <trkpt lat="43.77498" lon="7.13944">
        <ele>802</ele>
        <time>2018-05-03T07:58:08.000Z</time>
      </trkpt>
      <trkpt lat="43.77501" lon="7.13937">
        <ele>811</ele>
        <time>2018-05-03T07:58:12.000Z</time>
      </trkpt>
      <trkpt lat="43.77502" lon="7.13935">
        <ele>811</ele>
        <time>2018-05-03T07:58:13.000Z</time>
      </trkpt>
      <trkpt lat="43.77505" lon="7.13929">
        <ele>810</ele>
        <time>2018-05-03T07:58:17.000Z</time>
      </trkpt>
      <trkpt lat="43.77507" lon="7.13927">
        <ele>810</ele>
        <time>2018-05-03T07:58:18.000Z</time>
      </trkpt>
      <trkpt lat="43.77508" lon="7.13923">
        <ele>809</ele>
        <time>2018-05-03T07:58:21.000Z</time>
      </trkpt>
      <trkpt lat="43.77509" lon="7.1392">
        <ele>809</ele>
        <time>2018-05-03T07:58:23.000Z</time>
      </trkpt>
      <trkpt lat="43.7751" lon="7.13916">
        <ele>810</ele>
        <time>2018-05-03T07:58:26.000Z</time>
      </trkpt>
      <trkpt lat="43.77511" lon="7.13915">
        <ele>811</ele>
        <time>2018-05-03T07:58:27.000Z</time>
      </trkpt>
      <trkpt lat="43.77511" lon="7.13914">
        <ele>811</ele>
        <time>2018-05-03T07:58:28.000Z</time>
      </trkpt>
      <trkpt lat="43.77512" lon="7.1391">
        <ele>812</ele>
        <time>2018-05-03T07:58:31.000Z</time>
      </trkpt>
      <trkpt lat="43.77513" lon="7.13909">
        <ele>812</ele>
        <time>2018-05-03T07:58:32.000Z</time>
      </trkpt>
      <trkpt lat="43.77513" lon="7.13906">
        <ele>813</ele>
        <time>2018-05-03T07:58:34.000Z</time>
      </trkpt>
      <trkpt lat="43.77513" lon="7.13905">
        <ele>813</ele>
        <time>2018-05-03T07:58:36.000Z</time>
      </trkpt>
      <trkpt lat="43.77514" lon="7.13903">
        <ele>814</ele>
        <time>2018-05-03T07:58:40.000Z</time>
      </trkpt>
      <trkpt lat="43.77515" lon="7.13899">
        <ele>814</ele>
        <time>2018-05-03T07:58:44.000Z</time>
      </trkpt>
      <trkpt lat="43.77515" lon="7.13898">
        <ele>815</ele>
        <time>2018-05-03T07:58:46.000Z</time>
      </trkpt>
      <trkpt lat="43.77517" lon="7.13893">
        <ele>816</ele>
        <time>2018-05-03T07:58:52.000Z</time>
      </trkpt>
      <trkpt lat="43.77517" lon="7.13891">
        <ele>816</ele>
        <time>2018-05-03T07:58:54.000Z</time>
      </trkpt>
      <trkpt lat="43.77517" lon="7.13888">
        <ele>817</ele>
        <time>2018-05-03T07:58:57.000Z</time>
      </trkpt>
      <trkpt lat="43.77518" lon="7.13884">
        <ele>817</ele>
        <time>2018-05-03T07:59:00.000Z</time>
      </trkpt>
      <trkpt lat="43.77519" lon="7.13882">
        <ele>817</ele>
        <time>2018-05-03T07:59:03.000Z</time>
      </trkpt>
      <trkpt lat="43.77518" lon="7.13879">
        <ele>817</ele>
        <time>2018-05-03T07:59:06.000Z</time>
      </trkpt>
      <trkpt lat="43.77519" lon="7.13878">
        <ele>818</ele>
        <time>2018-05-03T07:59:07.000Z</time>
      </trkpt>
      <trkpt lat="43.7752" lon="7.13876">
        <ele>818</ele>
        <time>2018-05-03T07:59:10.000Z</time>
      </trkpt>
      <trkpt lat="43.77522" lon="7.13873">
        <ele>818</ele>
        <time>2018-05-03T07:59:14.000Z</time>
      </trkpt>
      <trkpt lat="43.77523" lon="7.13872">
        <ele>818</ele>
        <time>2018-05-03T07:59:15.000Z</time>
      </trkpt>
      <trkpt lat="43.77523" lon="7.13872">
        <ele>818</ele>
        <time>2018-05-03T07:59:16.000Z</time>
      </trkpt>
      <trkpt lat="43.77525" lon="7.1387">
        <ele>819</ele>
        <time>2018-05-03T07:59:20.000Z</time>
      </trkpt>
      <trkpt lat="43.77526" lon="7.13869">
        <ele>819</ele>
        <time>2018-05-03T07:59:21.000Z</time>
      </trkpt>
      <trkpt lat="43.77528" lon="7.13868">
        <ele>819</ele>
        <time>2018-05-03T07:59:24.000Z</time>
      </trkpt>
      <trkpt lat="43.7753" lon="7.13866">
        <ele>819</ele>
        <time>2018-05-03T07:59:29.000Z</time>
      </trkpt>
      <trkpt lat="43.7753" lon="7.13865">
        <ele>819</ele>
        <time>2018-05-03T07:59:30.000Z</time>
      </trkpt>
      <trkpt lat="43.77533" lon="7.13861">
        <ele>820</ele>
        <time>2018-05-03T07:59:35.000Z</time>
      </trkpt>
      <trkpt lat="43.77535" lon="7.13859">
        <ele>820</ele>
        <time>2018-05-03T07:59:38.000Z</time>
      </trkpt>
      <trkpt lat="43.77535" lon="7.13858">
        <ele>820</ele>
        <time>2018-05-03T07:59:39.000Z</time>
      </trkpt>
      <trkpt lat="43.77537" lon="7.13857">
        <ele>820</ele>
        <time>2018-05-03T07:59:43.000Z</time>
      </trkpt>
      <trkpt lat="43.77541" lon="7.13856">
        <ele>821</ele>
        <time>2018-05-03T07:59:49.000Z</time>
      </trkpt>
      <trkpt lat="43.77542" lon="7.13856">
        <ele>821</ele>
        <time>2018-05-03T07:59:50.000Z</time>
      </trkpt>
      <trkpt lat="43.77544" lon="7.13857">
        <ele>821</ele>
        <time>2018-05-03T07:59:54.000Z</time>
      </trkpt>
      <trkpt lat="43.77548" lon="7.13855">
        <ele>821</ele>
        <time>2018-05-03T07:59:59.000Z</time>
      </trkpt>
      <trkpt lat="43.77549" lon="7.13855">
        <ele>822</ele>
        <time>2018-05-03T08:00:00.000Z</time>
      </trkpt>
      <trkpt lat="43.77554" lon="7.1385">
        <ele>822</ele>
        <time>2018-05-03T08:00:08.000Z</time>
      </trkpt>
      <trkpt lat="43.77554" lon="7.1385">
        <ele>822</ele>
        <time>2018-05-03T08:00:09.000Z</time>
      </trkpt>
      <trkpt lat="43.77556" lon="7.13849">
        <ele>823</ele>
        <time>2018-05-03T08:00:11.000Z</time>
      </trkpt>
      <trkpt lat="43.77558" lon="7.13847">
        <ele>823</ele>
        <time>2018-05-03T08:00:15.000Z</time>
      </trkpt>
      <trkpt lat="43.7756" lon="7.13846">
        <ele>823</ele>
        <time>2018-05-03T08:00:17.000Z</time>
      </trkpt>
      <trkpt lat="43.77564" lon="7.13844">
        <ele>824</ele>
        <time>2018-05-03T08:00:23.000Z</time>
      </trkpt>
      <trkpt lat="43.77565" lon="7.13843">
        <ele>824</ele>
        <time>2018-05-03T08:00:25.000Z</time>
      </trkpt>
      <trkpt lat="43.77566" lon="7.13842">
        <ele>824</ele>
        <time>2018-05-03T08:00:33.000Z</time>
      </trkpt>
      <trkpt lat="43.77566" lon="7.13842">
        <ele>824</ele>
        <time>2018-05-03T08:00:34.000Z</time>
      </trkpt>
      <trkpt lat="43.77567" lon="7.13842">
        <ele>825</ele>
        <time>2018-05-03T08:00:36.000Z</time>
      </trkpt>
      <trkpt lat="43.77568" lon="7.13843">
        <ele>825</ele>
        <time>2018-05-03T08:00:38.000Z</time>
      </trkpt>
      <trkpt lat="43.77568" lon="7.13849">
        <ele>824</ele>
        <time>2018-05-03T08:00:45.000Z</time>
      </trkpt>
      <trkpt lat="43.7757" lon="7.13849">
        <ele>824</ele>
        <time>2018-05-03T08:00:48.000Z</time>
      </trkpt>
      <trkpt lat="43.77572" lon="7.13847">
        <ele>825</ele>
        <time>2018-05-03T08:00:51.000Z</time>
      </trkpt>
      <trkpt lat="43.77575" lon="7.13845">
        <ele>826</ele>
        <time>2018-05-03T08:00:56.000Z</time>
      </trkpt>
      <trkpt lat="43.77576" lon="7.13844">
        <ele>826</ele>
        <time>2018-05-03T08:00:58.000Z</time>
      </trkpt>
      <trkpt lat="43.77579" lon="7.13841">
        <ele>827</ele>
        <time>2018-05-03T08:01:03.000Z</time>
      </trkpt>
      <trkpt lat="43.77582" lon="7.1384">
        <ele>827</ele>
        <time>2018-05-03T08:01:06.000Z</time>
      </trkpt>
      <trkpt lat="43.77585" lon="7.13839">
        <ele>831</ele>
        <time>2018-05-03T08:01:09.000Z</time>
      </trkpt>
      <trkpt lat="43.77591" lon="7.13839">
        <ele>832</ele>
        <time>2018-05-03T08:01:16.000Z</time>
      </trkpt>
      <trkpt lat="43.77593" lon="7.13839">
        <ele>833</ele>
        <time>2018-05-03T08:01:18.000Z</time>
      </trkpt>
      <trkpt lat="43.77597" lon="7.13837">
        <ele>833</ele>
        <time>2018-05-03T08:01:24.000Z</time>
      </trkpt>
      <trkpt lat="43.77599" lon="7.13836">
        <ele>834</ele>
        <time>2018-05-03T08:01:26.000Z</time>
      </trkpt>
      <trkpt lat="43.77601" lon="7.13834">
        <ele>834</ele>
        <time>2018-05-03T08:01:30.000Z</time>
      </trkpt>
      <trkpt lat="43.77605" lon="7.13832">
        <ele>834</ele>
        <time>2018-05-03T08:01:35.000Z</time>
      </trkpt>
      <trkpt lat="43.77605" lon="7.13832">
        <ele>834</ele>
        <time>2018-05-03T08:01:37.000Z</time>
      </trkpt>
      <trkpt lat="43.77608" lon="7.1383">
        <ele>835</ele>
        <time>2018-05-03T08:01:41.000Z</time>
      </trkpt>
      <trkpt lat="43.77609" lon="7.13829">
        <ele>835</ele>
        <time>2018-05-03T08:01:42.000Z</time>
      </trkpt>
      <trkpt lat="43.77613" lon="7.13824">
        <ele>836</ele>
        <time>2018-05-03T08:01:50.000Z</time>
      </trkpt>
      <trkpt lat="43.77619" lon="7.1382">
        <ele>837</ele>
        <time>2018-05-03T08:01:58.000Z</time>
      </trkpt>
      <trkpt lat="43.7762" lon="7.13819">
        <ele>837</ele>
        <time>2018-05-03T08:01:59.000Z</time>
      </trkpt>
      <trkpt lat="43.77623" lon="7.13818">
        <ele>837</ele>
        <time>2018-05-03T08:02:04.000Z</time>
      </trkpt>
      <trkpt lat="43.77624" lon="7.13817">
        <ele>837</ele>
        <time>2018-05-03T08:02:06.000Z</time>
      </trkpt>
      <trkpt lat="43.77628" lon="7.13814">
        <ele>838</ele>
        <time>2018-05-03T08:02:11.000Z</time>
      </trkpt>
      <trkpt lat="43.77629" lon="7.13813">
        <ele>838</ele>
        <time>2018-05-03T08:02:13.000Z</time>
      </trkpt>
      <trkpt lat="43.77632" lon="7.1381">
        <ele>838</ele>
        <time>2018-05-03T08:02:17.000Z</time>
      </trkpt>
      <trkpt lat="43.77636" lon="7.13807">
        <ele>839</ele>
        <time>2018-05-03T08:02:23.000Z</time>
      </trkpt>
      <trkpt lat="43.77638" lon="7.13805">
        <ele>839</ele>
        <time>2018-05-03T08:02:25.000Z</time>
      </trkpt>
      <trkpt lat="43.7764" lon="7.13803">
        <ele>839</ele>
        <time>2018-05-03T08:02:29.000Z</time>
      </trkpt>
      <trkpt lat="43.77641" lon="7.13803">
        <ele>839</ele>
        <time>2018-05-03T08:02:30.000Z</time>
      </trkpt>
      <trkpt lat="43.77645" lon="7.13801">
        <ele>839</ele>
        <time>2018-05-03T08:02:36.000Z</time>
      </trkpt>
      <trkpt lat="43.77646" lon="7.138">
        <ele>839</ele>
        <time>2018-05-03T08:02:37.000Z</time>
      </trkpt>
      <trkpt lat="43.77652" lon="7.13795">
        <ele>839</ele>
        <time>2018-05-03T08:02:44.000Z</time>
      </trkpt>
      <trkpt lat="43.77653" lon="7.13795">
        <ele>839</ele>
        <time>2018-05-03T08:02:45.000Z</time>
      </trkpt>
      <trkpt lat="43.77657" lon="7.13792">
        <ele>839</ele>
        <time>2018-05-03T08:02:50.000Z</time>
      </trkpt>
      <trkpt lat="43.77659" lon="7.13791">
        <ele>839</ele>
        <time>2018-05-03T08:02:54.000Z</time>
      </trkpt>
      <trkpt lat="43.7766" lon="7.1379">
        <ele>839</ele>
        <time>2018-05-03T08:02:56.000Z</time>
      </trkpt>
      <trkpt lat="43.77666" lon="7.13785">
        <ele>839</ele>
        <time>2018-05-03T08:03:02.000Z</time>
      </trkpt>
      <trkpt lat="43.77673" lon="7.1378">
        <ele>845</ele>
        <time>2018-05-03T08:03:07.000Z</time>
      </trkpt>
      <trkpt lat="43.77681" lon="7.13775">
        <ele>845</ele>
        <time>2018-05-03T08:03:12.000Z</time>
      </trkpt>
      <trkpt lat="43.77684" lon="7.13773">
        <ele>845</ele>
        <time>2018-05-03T08:03:14.000Z</time>
      </trkpt>
      <trkpt lat="43.7769" lon="7.1377">
        <ele>846</ele>
        <time>2018-05-03T08:03:19.000Z</time>
      </trkpt>
      <trkpt lat="43.77693" lon="7.13767">
        <ele>846</ele>
        <time>2018-05-03T08:03:21.000Z</time>
      </trkpt>
      <trkpt lat="43.777" lon="7.13759">
        <ele>846</ele>
        <time>2018-05-03T08:03:26.000Z</time>
      </trkpt>
      <trkpt lat="43.77703" lon="7.13755">
        <ele>846</ele>
        <time>2018-05-03T08:03:28.000Z</time>
      </trkpt>
      <trkpt lat="43.77705" lon="7.1375">
        <ele>847</ele>
        <time>2018-05-03T08:03:30.000Z</time>
      </trkpt>
      <trkpt lat="43.7771" lon="7.13744">
        <ele>846</ele>
        <time>2018-05-03T08:03:35.000Z</time>
      </trkpt>
      <trkpt lat="43.77709" lon="7.13745">
        <ele>846</ele>
        <time>2018-05-03T08:03:36.000Z</time>
      </trkpt>
      <trkpt lat="43.7771" lon="7.13744">
        <ele>846</ele>
        <time>2018-05-03T08:03:39.000Z</time>
      </trkpt>
      <trkpt lat="43.77713" lon="7.13742">
        <ele>847</ele>
        <time>2018-05-03T08:03:44.000Z</time>
      </trkpt>
      <trkpt lat="43.77715" lon="7.1374">
        <ele>847</ele>
        <time>2018-05-03T08:03:46.000Z</time>
      </trkpt>
      <trkpt lat="43.77718" lon="7.13738">
        <ele>847</ele>
        <time>2018-05-03T08:03:49.000Z</time>
      </trkpt>
      <trkpt lat="43.77718" lon="7.13738">
        <ele>847</ele>
        <time>2018-05-03T08:03:51.000Z</time>
      </trkpt>
      <trkpt lat="43.77723" lon="7.13732">
        <ele>848</ele>
        <time>2018-05-03T08:03:58.000Z</time>
      </trkpt>
      <trkpt lat="43.77725" lon="7.13727">
        <ele>848</ele>
        <time>2018-05-03T08:04:02.000Z</time>
      </trkpt>
      <trkpt lat="43.77725" lon="7.13725">
        <ele>848</ele>
        <time>2018-05-03T08:04:04.000Z</time>
      </trkpt>
      <trkpt lat="43.77728" lon="7.13719">
        <ele>848</ele>
        <time>2018-05-03T08:04:09.000Z</time>
      </trkpt>
      <trkpt lat="43.77729" lon="7.13717">
        <ele>848</ele>
        <time>2018-05-03T08:04:10.000Z</time>
      </trkpt>
      <trkpt lat="43.77729" lon="7.13717">
        <ele>848</ele>
        <time>2018-05-03T08:04:11.000Z</time>
      </trkpt>
      <trkpt lat="43.7773" lon="7.13711">
        <ele>848</ele>
        <time>2018-05-03T08:04:15.000Z</time>
      </trkpt>
      <trkpt lat="43.77731" lon="7.13703">
        <ele>848</ele>
        <time>2018-05-03T08:04:21.000Z</time>
      </trkpt>
      <trkpt lat="43.77731" lon="7.137">
        <ele>848</ele>
        <time>2018-05-03T08:04:23.000Z</time>
      </trkpt>
      <trkpt lat="43.77732" lon="7.13698">
        <ele>848</ele>
        <time>2018-05-03T08:04:25.000Z</time>
      </trkpt>
      <trkpt lat="43.77733" lon="7.13694">
        <ele>849</ele>
        <time>2018-05-03T08:04:28.000Z</time>
      </trkpt>
      <trkpt lat="43.77734" lon="7.13692">
        <ele>849</ele>
        <time>2018-05-03T08:04:30.000Z</time>
      </trkpt>
      <trkpt lat="43.77738" lon="7.13689">
        <ele>849</ele>
        <time>2018-05-03T08:04:34.000Z</time>
      </trkpt>
      <trkpt lat="43.7774" lon="7.13689">
        <ele>849</ele>
        <time>2018-05-03T08:04:36.000Z</time>
      </trkpt>
      <trkpt lat="43.77741" lon="7.13689">
        <ele>849</ele>
        <time>2018-05-03T08:04:37.000Z</time>
      </trkpt>
      <trkpt lat="43.77748" lon="7.13686">
        <ele>850</ele>
        <time>2018-05-03T08:04:44.000Z</time>
      </trkpt>
      <trkpt lat="43.7775" lon="7.13684">
        <ele>854</ele>
        <time>2018-05-03T08:04:47.000Z</time>
      </trkpt>
      <trkpt lat="43.77754" lon="7.13681">
        <ele>854</ele>
        <time>2018-05-03T08:04:52.000Z</time>
      </trkpt>
      <trkpt lat="43.77755" lon="7.13681">
        <ele>854</ele>
        <time>2018-05-03T08:04:53.000Z</time>
      </trkpt>
      <trkpt lat="43.77758" lon="7.13677">
        <ele>854</ele>
        <time>2018-05-03T08:04:58.000Z</time>
      </trkpt>
      <trkpt lat="43.77758" lon="7.13675">
        <ele>854</ele>
        <time>2018-05-03T08:05:00.000Z</time>
      </trkpt>
      <trkpt lat="43.7776" lon="7.1367">
        <ele>854</ele>
        <time>2018-05-03T08:05:05.000Z</time>
      </trkpt>
      <trkpt lat="43.77761" lon="7.13668">
        <ele>854</ele>
        <time>2018-05-03T08:05:07.000Z</time>
      </trkpt>
      <trkpt lat="43.77761" lon="7.13668">
        <ele>854</ele>
        <time>2018-05-03T08:05:10.000Z</time>
      </trkpt>
      <trkpt lat="43.77762" lon="7.13667">
        <ele>854</ele>
        <time>2018-05-03T08:05:14.000Z</time>
      </trkpt>
      <trkpt lat="43.77765" lon="7.13666">
        <ele>856</ele>
        <time>2018-05-03T08:05:17.000Z</time>
      </trkpt>
      <trkpt lat="43.77773" lon="7.13663">
        <ele>857</ele>
        <time>2018-05-03T08:05:23.000Z</time>
      </trkpt>
      <trkpt lat="43.77774" lon="7.13663">
        <ele>857</ele>
        <time>2018-05-03T08:05:24.000Z</time>
      </trkpt>
      <trkpt lat="43.77782" lon="7.13664">
        <ele>858</ele>
        <time>2018-05-03T08:05:30.000Z</time>
      </trkpt>
      <trkpt lat="43.77789" lon="7.13666">
        <ele>859</ele>
        <time>2018-05-03T08:05:34.000Z</time>
      </trkpt>
      <trkpt lat="43.77792" lon="7.13666">
        <ele>859</ele>
        <time>2018-05-03T08:05:36.000Z</time>
      </trkpt>
      <trkpt lat="43.77794" lon="7.13665">
        <ele>859</ele>
        <time>2018-05-03T08:05:37.000Z</time>
      </trkpt>
      <trkpt lat="43.778" lon="7.1366">
        <ele>860</ele>
        <time>2018-05-03T08:05:42.000Z</time>
      </trkpt>
      <trkpt lat="43.77806" lon="7.13658">
        <ele>860</ele>
        <time>2018-05-03T08:05:46.000Z</time>
      </trkpt>
      <trkpt lat="43.77808" lon="7.13656">
        <ele>860</ele>
        <time>2018-05-03T08:05:48.000Z</time>
      </trkpt>
      <trkpt lat="43.77811" lon="7.13654">
        <ele>860</ele>
        <time>2018-05-03T08:05:50.000Z</time>
      </trkpt>
      <trkpt lat="43.77816" lon="7.13653">
        <ele>860</ele>
        <time>2018-05-03T08:05:53.000Z</time>
      </trkpt>
      <trkpt lat="43.77819" lon="7.13653">
        <ele>860</ele>
        <time>2018-05-03T08:05:55.000Z</time>
      </trkpt>
      <trkpt lat="43.77819" lon="7.13653">
        <ele>860</ele>
        <time>2018-05-03T08:05:57.000Z</time>
      </trkpt>
      <trkpt lat="43.7782" lon="7.13653">
        <ele>861</ele>
        <time>2018-05-03T08:05:59.000Z</time>
      </trkpt>
      <trkpt lat="43.77823" lon="7.13655">
        <ele>861</ele>
        <time>2018-05-03T08:06:02.000Z</time>
      </trkpt>
      <trkpt lat="43.77823" lon="7.13655">
        <ele>861</ele>
        <time>2018-05-03T08:06:03.000Z</time>
      </trkpt>
      <trkpt lat="43.77827" lon="7.13662">
        <ele>861</ele>
        <time>2018-05-03T08:06:10.000Z</time>
      </trkpt>
      <trkpt lat="43.7783" lon="7.13669">
        <ele>860</ele>
        <time>2018-05-03T08:06:17.000Z</time>
      </trkpt>
      <trkpt lat="43.77833" lon="7.13672">
        <ele>860</ele>
        <time>2018-05-03T08:06:21.000Z</time>
      </trkpt>
      <trkpt lat="43.77835" lon="7.13672">
        <ele>861</ele>
        <time>2018-05-03T08:06:23.000Z</time>
      </trkpt>
      <trkpt lat="43.77836" lon="7.13673">
        <ele>861</ele>
        <time>2018-05-03T08:06:24.000Z</time>
      </trkpt>
      <trkpt lat="43.77843" lon="7.13675">
        <ele>861</ele>
        <time>2018-05-03T08:06:31.000Z</time>
      </trkpt>
      <trkpt lat="43.77844" lon="7.13676">
        <ele>861</ele>
        <time>2018-05-03T08:06:33.000Z</time>
      </trkpt>
      <trkpt lat="43.77847" lon="7.13673">
        <ele>862</ele>
        <time>2018-05-03T08:06:37.000Z</time>
      </trkpt>
      <trkpt lat="43.77848" lon="7.13672">
        <ele>862</ele>
        <time>2018-05-03T08:06:43.000Z</time>
      </trkpt>
      <trkpt lat="43.77849" lon="7.13671">
        <ele>862</ele>
        <time>2018-05-03T08:06:44.000Z</time>
      </trkpt>
      <trkpt lat="43.77853" lon="7.1367">
        <ele>862</ele>
        <time>2018-05-03T08:06:47.000Z</time>
      </trkpt>
      <trkpt lat="43.77858" lon="7.1367">
        <ele>862</ele>
        <time>2018-05-03T08:06:50.000Z</time>
      </trkpt>
      <trkpt lat="43.77862" lon="7.13672">
        <ele>862</ele>
        <time>2018-05-03T08:06:53.000Z</time>
      </trkpt>
      <trkpt lat="43.77871" lon="7.1367">
        <ele>863</ele>
        <time>2018-05-03T08:06:58.000Z</time>
      </trkpt>
      <trkpt lat="43.77877" lon="7.1367">
        <ele>863</ele>
        <time>2018-05-03T08:07:01.000Z</time>
      </trkpt>
      <trkpt lat="43.77884" lon="7.13667">
        <ele>864</ele>
        <time>2018-05-03T08:07:06.000Z</time>
      </trkpt>
      <trkpt lat="43.7789" lon="7.13666">
        <ele>868</ele>
        <time>2018-05-03T08:07:11.000Z</time>
      </trkpt>
      <trkpt lat="43.77891" lon="7.13665">
        <ele>868</ele>
        <time>2018-05-03T08:07:12.000Z</time>
      </trkpt>
      <trkpt lat="43.77893" lon="7.13664">
        <ele>868</ele>
        <time>2018-05-03T08:07:13.000Z</time>
      </trkpt>
      <trkpt lat="43.77897" lon="7.13663">
        <ele>868</ele>
        <time>2018-05-03T08:07:15.000Z</time>
      </trkpt>
      <trkpt lat="43.77912" lon="7.13665">
        <ele>868</ele>
        <time>2018-05-03T08:07:22.000Z</time>
      </trkpt>
      <trkpt lat="43.77925" lon="7.13668">
        <ele>868</ele>
        <time>2018-05-03T08:07:29.000Z</time>
      </trkpt>
      <trkpt lat="43.77932" lon="7.13673">
        <ele>869</ele>
        <time>2018-05-03T08:07:34.000Z</time>
      </trkpt>
      <trkpt lat="43.77934" lon="7.13675">
        <ele>869</ele>
        <time>2018-05-03T08:07:36.000Z</time>
      </trkpt>
      <trkpt lat="43.77944" lon="7.13681">
        <ele>869</ele>
        <time>2018-05-03T08:07:44.000Z</time>
      </trkpt>
      <trkpt lat="43.77945" lon="7.13681">
        <ele>869</ele>
        <time>2018-05-03T08:07:45.000Z</time>
      </trkpt>
      <trkpt lat="43.77947" lon="7.13681">
        <ele>870</ele>
        <time>2018-05-03T08:07:50.000Z</time>
      </trkpt>
      <trkpt lat="43.7795" lon="7.13679">
        <ele>870</ele>
        <time>2018-05-03T08:07:57.000Z</time>
      </trkpt>
      <trkpt lat="43.77952" lon="7.13677">
        <ele>870</ele>
        <time>2018-05-03T08:08:00.000Z</time>
      </trkpt>
      <trkpt lat="43.77954" lon="7.13674">
        <ele>870</ele>
        <time>2018-05-03T08:08:05.000Z</time>
      </trkpt>
      <trkpt lat="43.77954" lon="7.13673">
        <ele>870</ele>
        <time>2018-05-03T08:08:06.000Z</time>
      </trkpt>
      <trkpt lat="43.77952" lon="7.13668">
        <ele>870</ele>
        <time>2018-05-03T08:08:12.000Z</time>
      </trkpt>
      <trkpt lat="43.77952" lon="7.13667">
        <ele>873</ele>
        <time>2018-05-03T08:08:13.000Z</time>
      </trkpt>
      <trkpt lat="43.77949" lon="7.13658">
        <ele>873</ele>
        <time>2018-05-03T08:08:21.000Z</time>
      </trkpt>
      <trkpt lat="43.77949" lon="7.13657">
        <ele>873</ele>
        <time>2018-05-03T08:08:22.000Z</time>
      </trkpt>
      <trkpt lat="43.7795" lon="7.13652">
        <ele>873</ele>
        <time>2018-05-03T08:08:26.000Z</time>
      </trkpt>
      <trkpt lat="43.77952" lon="7.1365">
        <ele>873</ele>
        <time>2018-05-03T08:08:29.000Z</time>
      </trkpt>
      <trkpt lat="43.77954" lon="7.13647">
        <ele>874</ele>
        <time>2018-05-03T08:08:32.000Z</time>
      </trkpt>
      <trkpt lat="43.77957" lon="7.13644">
        <ele>874</ele>
        <time>2018-05-03T08:08:37.000Z</time>
      </trkpt>
      <trkpt lat="43.77957" lon="7.1364">
        <ele>874</ele>
        <time>2018-05-03T08:08:40.000Z</time>
      </trkpt>
      <trkpt lat="43.77957" lon="7.1364">
        <ele>874</ele>
        <time>2018-05-03T08:08:44.000Z</time>
      </trkpt>
      <trkpt lat="43.77956" lon="7.13636">
        <ele>874</ele>
        <time>2018-05-03T08:08:47.000Z</time>
      </trkpt>
      <trkpt lat="43.77954" lon="7.13633">
        <ele>874</ele>
        <time>2018-05-03T08:08:49.000Z</time>
      </trkpt>
      <trkpt lat="43.77952" lon="7.13627">
        <ele>874</ele>
        <time>2018-05-03T08:08:53.000Z</time>
      </trkpt>
      <trkpt lat="43.77953" lon="7.13625">
        <ele>875</ele>
        <time>2018-05-03T08:08:54.000Z</time>
      </trkpt>
      <trkpt lat="43.77953" lon="7.13622">
        <ele>875</ele>
        <time>2018-05-03T08:08:56.000Z</time>
      </trkpt>
      <trkpt lat="43.77953" lon="7.13608">
        <ele>875</ele>
        <time>2018-05-03T08:09:03.000Z</time>
      </trkpt>
      <trkpt lat="43.77953" lon="7.13606">
        <ele>875</ele>
        <time>2018-05-03T08:09:04.000Z</time>
      </trkpt>
      <trkpt lat="43.77955" lon="7.13598">
        <ele>876</ele>
        <time>2018-05-03T08:09:10.000Z</time>
      </trkpt>
      <trkpt lat="43.77957" lon="7.1359">
        <ele>876</ele>
        <time>2018-05-03T08:09:14.000Z</time>
      </trkpt>
      <trkpt lat="43.77958" lon="7.13588">
        <ele>876</ele>
        <time>2018-05-03T08:09:16.000Z</time>
      </trkpt>
      <trkpt lat="43.77964" lon="7.1358">
        <ele>880</ele>
        <time>2018-05-03T08:09:23.000Z</time>
      </trkpt>
      <trkpt lat="43.77971" lon="7.1357">
        <ele>880</ele>
        <time>2018-05-03T08:09:29.000Z</time>
      </trkpt>
      <trkpt lat="43.77977" lon="7.13558">
        <ele>881</ele>
        <time>2018-05-03T08:09:35.000Z</time>
      </trkpt>
      <trkpt lat="43.77979" lon="7.13557">
        <ele>881</ele>
        <time>2018-05-03T08:09:36.000Z</time>
      </trkpt>
      <trkpt lat="43.7798" lon="7.13556">
        <ele>881</ele>
        <time>2018-05-03T08:09:37.000Z</time>
      </trkpt>
      <trkpt lat="43.77982" lon="7.13555">
        <ele>881</ele>
        <time>2018-05-03T08:09:39.000Z</time>
      </trkpt>
      <trkpt lat="43.77984" lon="7.13555">
        <ele>881</ele>
        <time>2018-05-03T08:09:40.000Z</time>
      </trkpt>
      <trkpt lat="43.77985" lon="7.13551">
        <ele>881</ele>
        <time>2018-05-03T08:09:43.000Z</time>
      </trkpt>
      <trkpt lat="43.77985" lon="7.1355">
        <ele>881</ele>
        <time>2018-05-03T08:09:44.000Z</time>
      </trkpt>
      <trkpt lat="43.77989" lon="7.13542">
        <ele>881</ele>
        <time>2018-05-03T08:09:49.000Z</time>
      </trkpt>
      <trkpt lat="43.77994" lon="7.13537">
        <ele>882</ele>
        <time>2018-05-03T08:09:53.000Z</time>
      </trkpt>
      <trkpt lat="43.77996" lon="7.13536">
        <ele>882</ele>
        <time>2018-05-03T08:09:54.000Z</time>
      </trkpt>
      <trkpt lat="43.78001" lon="7.13532">
        <ele>884</ele>
        <time>2018-05-03T08:09:58.000Z</time>
      </trkpt>
      <trkpt lat="43.78007" lon="7.13526">
        <ele>884</ele>
        <time>2018-05-03T08:10:04.000Z</time>
      </trkpt>
      <trkpt lat="43.78016" lon="7.13518">
        <ele>884</ele>
        <time>2018-05-03T08:10:11.000Z</time>
      </trkpt>
      <trkpt lat="43.78023" lon="7.13514">
        <ele>884</ele>
        <time>2018-05-03T08:10:16.000Z</time>
      </trkpt>
      <trkpt lat="43.78024" lon="7.13515">
        <ele>884</ele>
        <time>2018-05-03T08:10:17.000Z</time>
      </trkpt>
      <trkpt lat="43.78031" lon="7.13514">
        <ele>884</ele>
        <time>2018-05-03T08:10:22.000Z</time>
      </trkpt>
      <trkpt lat="43.78034" lon="7.13513">
        <ele>885</ele>
        <time>2018-05-03T08:10:24.000Z</time>
      </trkpt>
      <trkpt lat="43.78036" lon="7.13513">
        <ele>885</ele>
        <time>2018-05-03T08:10:25.000Z</time>
      </trkpt>
      <trkpt lat="43.78038" lon="7.13512">
        <ele>885</ele>
        <time>2018-05-03T08:10:27.000Z</time>
      </trkpt>
      <trkpt lat="43.78042" lon="7.13512">
        <ele>885</ele>
        <time>2018-05-03T08:10:29.000Z</time>
      </trkpt>
      <trkpt lat="43.78048" lon="7.13515">
        <ele>885</ele>
        <time>2018-05-03T08:10:33.000Z</time>
      </trkpt>
      <trkpt lat="43.78056" lon="7.13519">
        <ele>885</ele>
        <time>2018-05-03T08:10:38.000Z</time>
      </trkpt>
      <trkpt lat="43.7806" lon="7.13519">
        <ele>885</ele>
        <time>2018-05-03T08:10:41.000Z</time>
      </trkpt>
      <trkpt lat="43.78065" lon="7.13518">
        <ele>886</ele>
        <time>2018-05-03T08:10:44.000Z</time>
      </trkpt>
      <trkpt lat="43.78073" lon="7.13515">
        <ele>886</ele>
        <time>2018-05-03T08:10:50.000Z</time>
      </trkpt>
      <trkpt lat="43.78079" lon="7.13513">
        <ele>886</ele>
        <time>2018-05-03T08:10:54.000Z</time>
      </trkpt>
      <trkpt lat="43.7808" lon="7.1351">
        <ele>887</ele>
        <time>2018-05-03T08:10:56.000Z</time>
      </trkpt>
      <trkpt lat="43.78088" lon="7.13505">
        <ele>889</ele>
        <time>2018-05-03T08:11:01.000Z</time>
      </trkpt>
      <trkpt lat="43.78098" lon="7.13498">
        <ele>891</ele>
        <time>2018-05-03T08:11:08.000Z</time>
      </trkpt>
      <trkpt lat="43.78108" lon="7.13493">
        <ele>892</ele>
        <time>2018-05-03T08:11:14.000Z</time>
      </trkpt>
      <trkpt lat="43.78115" lon="7.13489">
        <ele>893</ele>
        <time>2018-05-03T08:11:19.000Z</time>
      </trkpt>
      <trkpt lat="43.78119" lon="7.13485">
        <ele>893</ele>
        <time>2018-05-03T08:11:23.000Z</time>
      </trkpt>
      <trkpt lat="43.7812" lon="7.13483">
        <ele>893</ele>
        <time>2018-05-03T08:11:24.000Z</time>
      </trkpt>
      <trkpt lat="43.78122" lon="7.13479">
        <ele>894</ele>
        <time>2018-05-03T08:11:27.000Z</time>
      </trkpt>
      <trkpt lat="43.78123" lon="7.13478">
        <ele>894</ele>
        <time>2018-05-03T08:11:29.000Z</time>
      </trkpt>
      <trkpt lat="43.78122" lon="7.13474">
        <ele>894</ele>
        <time>2018-05-03T08:11:33.000Z</time>
      </trkpt>
      <trkpt lat="43.78121" lon="7.13474">
        <ele>894</ele>
        <time>2018-05-03T08:11:35.000Z</time>
      </trkpt>
      <trkpt lat="43.78121" lon="7.13473">
        <ele>894</ele>
        <time>2018-05-03T08:11:36.000Z</time>
      </trkpt>
      <trkpt lat="43.78121" lon="7.13471">
        <ele>894</ele>
        <time>2018-05-03T08:11:38.000Z</time>
      </trkpt>
      <trkpt lat="43.78122" lon="7.13468">
        <ele>894</ele>
        <time>2018-05-03T08:11:41.000Z</time>
      </trkpt>
      <trkpt lat="43.78123" lon="7.13467">
        <ele>894</ele>
        <time>2018-05-03T08:11:43.000Z</time>
      </trkpt>
      <trkpt lat="43.78124" lon="7.13467">
        <ele>894</ele>
        <time>2018-05-03T08:11:45.000Z</time>
      </trkpt>
      <trkpt lat="43.78128" lon="7.13466">
        <ele>894</ele>
        <time>2018-05-03T08:11:50.000Z</time>
      </trkpt>
      <trkpt lat="43.7813" lon="7.13465">
        <ele>894</ele>
        <time>2018-05-03T08:11:52.000Z</time>
      </trkpt>
      <trkpt lat="43.78133" lon="7.13465">
        <ele>895</ele>
        <time>2018-05-03T08:11:56.000Z</time>
      </trkpt>
      <trkpt lat="43.78134" lon="7.13465">
        <ele>895</ele>
        <time>2018-05-03T08:11:58.000Z</time>
      </trkpt>
      <trkpt lat="43.78136" lon="7.13466">
        <ele>895</ele>
        <time>2018-05-03T08:12:00.000Z</time>
      </trkpt>
      <trkpt lat="43.7814" lon="7.13467">
        <ele>895</ele>
        <time>2018-05-03T08:12:07.000Z</time>
      </trkpt>
      <trkpt lat="43.78141" lon="7.13467">
        <ele>895</ele>
        <time>2018-05-03T08:12:08.000Z</time>
      </trkpt>
      <trkpt lat="43.78141" lon="7.13461">
        <ele>895</ele>
        <time>2018-05-03T08:12:14.000Z</time>
      </trkpt>
      <trkpt lat="43.78142" lon="7.13452">
        <ele>895</ele>
        <time>2018-05-03T08:12:21.000Z</time>
      </trkpt>
      <trkpt lat="43.78143" lon="7.13451">
        <ele>895</ele>
        <time>2018-05-03T08:12:22.000Z</time>
      </trkpt>
      <trkpt lat="43.78147" lon="7.13444">
        <ele>896</ele>
        <time>2018-05-03T08:12:30.000Z</time>
      </trkpt>
      <trkpt lat="43.78149" lon="7.13442">
        <ele>896</ele>
        <time>2018-05-03T08:12:33.000Z</time>
      </trkpt>
      <trkpt lat="43.78151" lon="7.1344">
        <ele>896</ele>
        <time>2018-05-03T08:12:36.000Z</time>
      </trkpt>
      <trkpt lat="43.78155" lon="7.13436">
        <ele>897</ele>
        <time>2018-05-03T08:12:41.000Z</time>
      </trkpt>
      <trkpt lat="43.78156" lon="7.13435">
        <ele>897</ele>
        <time>2018-05-03T08:12:43.000Z</time>
      </trkpt>
      <trkpt lat="43.78157" lon="7.13435">
        <ele>897</ele>
        <time>2018-05-03T08:12:49.000Z</time>
      </trkpt>
      <trkpt lat="43.78157" lon="7.13435">
        <ele>897</ele>
        <time>2018-05-03T08:12:51.000Z</time>
      </trkpt>
      <trkpt lat="43.78157" lon="7.13434">
        <ele>897</ele>
        <time>2018-05-03T08:12:58.000Z</time>
      </trkpt>
      <trkpt lat="43.78159" lon="7.1343">
        <ele>898</ele>
        <time>2018-05-03T08:13:03.000Z</time>
      </trkpt>
      <trkpt lat="43.78168" lon="7.1342">
        <ele>901</ele>
        <time>2018-05-03T08:13:11.000Z</time>
      </trkpt>
      <trkpt lat="43.78175" lon="7.13417">
        <ele>902</ele>
        <time>2018-05-03T08:13:17.000Z</time>
      </trkpt>
      <trkpt lat="43.78176" lon="7.13417">
        <ele>902</ele>
        <time>2018-05-03T08:13:21.000Z</time>
      </trkpt>
      <trkpt lat="43.78176" lon="7.13417">
        <ele>902</ele>
        <time>2018-05-03T08:13:25.000Z</time>
      </trkpt>
      <trkpt lat="43.78178" lon="7.13417">
        <ele>902</ele>
        <time>2018-05-03T08:13:30.000Z</time>
      </trkpt>
      <trkpt lat="43.78181" lon="7.13416">
        <ele>903</ele>
        <time>2018-05-03T08:13:36.000Z</time>
      </trkpt>
      <trkpt lat="43.78181" lon="7.13416">
        <ele>903</ele>
        <time>2018-05-03T08:13:41.000Z</time>
      </trkpt>
      <trkpt lat="43.78187" lon="7.13415">
        <ele>904</ele>
        <time>2018-05-03T08:13:47.000Z</time>
      </trkpt>
      <trkpt lat="43.78188" lon="7.13415">
        <ele>904</ele>
        <time>2018-05-03T08:13:48.000Z</time>
      </trkpt>
      <trkpt lat="43.78189" lon="7.13416">
        <ele>904</ele>
        <time>2018-05-03T08:13:51.000Z</time>
      </trkpt>
      <trkpt lat="43.78189" lon="7.13417">
        <ele>903</ele>
        <time>2018-05-03T08:13:52.000Z</time>
      </trkpt>
      <trkpt lat="43.7819" lon="7.13417">
        <ele>903</ele>
        <time>2018-05-03T08:13:53.000Z</time>
      </trkpt>
      <trkpt lat="43.78195" lon="7.13416">
        <ele>905</ele>
        <time>2018-05-03T08:13:57.000Z</time>
      </trkpt>
      <trkpt lat="43.78199" lon="7.13413">
        <ele>905</ele>
        <time>2018-05-03T08:14:01.000Z</time>
      </trkpt>
      <trkpt lat="43.782" lon="7.13412">
        <ele>905</ele>
        <time>2018-05-03T08:14:02.000Z</time>
      </trkpt>
      <trkpt lat="43.78205" lon="7.13408">
        <ele>906</ele>
        <time>2018-05-03T08:14:07.000Z</time>
      </trkpt>
      <trkpt lat="43.78207" lon="7.13406">
        <ele>906</ele>
        <time>2018-05-03T08:14:09.000Z</time>
      </trkpt>
      <trkpt lat="43.78209" lon="7.13405">
        <ele>906</ele>
        <time>2018-05-03T08:14:10.000Z</time>
      </trkpt>
      <trkpt lat="43.78209" lon="7.13405">
        <ele>906</ele>
        <time>2018-05-03T08:14:13.000Z</time>
      </trkpt>
      <trkpt lat="43.78213" lon="7.13404">
        <ele>906</ele>
        <time>2018-05-03T08:14:21.000Z</time>
      </trkpt>
      <trkpt lat="43.78215" lon="7.13403">
        <ele>906</ele>
        <time>2018-05-03T08:14:26.000Z</time>
      </trkpt>
      <trkpt lat="43.78215" lon="7.13403">
        <ele>906</ele>
        <time>2018-05-03T08:14:33.000Z</time>
      </trkpt>
      <trkpt lat="43.78218" lon="7.13404">
        <ele>907</ele>
        <time>2018-05-03T08:14:40.000Z</time>
      </trkpt>
      <trkpt lat="43.7822" lon="7.13403">
        <ele>907</ele>
        <time>2018-05-03T08:14:44.000Z</time>
      </trkpt>
      <trkpt lat="43.78222" lon="7.13403">
        <ele>907</ele>
        <time>2018-05-03T08:14:46.000Z</time>
      </trkpt>
      <trkpt lat="43.78228" lon="7.13402">
        <ele>907</ele>
        <time>2018-05-03T08:14:50.000Z</time>
      </trkpt>
      <trkpt lat="43.78229" lon="7.13403">
        <ele>908</ele>
        <time>2018-05-03T08:14:51.000Z</time>
      </trkpt>
      <trkpt lat="43.78235" lon="7.134">
        <ele>908</ele>
        <time>2018-05-03T08:14:56.000Z</time>
      </trkpt>
      <trkpt lat="43.7824" lon="7.13398">
        <ele>908</ele>
        <time>2018-05-03T08:15:00.000Z</time>
      </trkpt>
      <trkpt lat="43.78241" lon="7.13399">
        <ele>908</ele>
        <time>2018-05-03T08:15:01.000Z</time>
      </trkpt>
      <trkpt lat="43.7825" lon="7.13397">
        <ele>908</ele>
        <time>2018-05-03T08:15:08.000Z</time>
      </trkpt>
      <trkpt lat="43.78258" lon="7.13396">
        <ele>912</ele>
        <time>2018-05-03T08:15:15.000Z</time>
      </trkpt>
      <trkpt lat="43.78263" lon="7.13395">
        <ele>912</ele>
        <time>2018-05-03T08:15:19.000Z</time>
      </trkpt>
      <trkpt lat="43.78265" lon="7.13395">
        <ele>912</ele>
        <time>2018-05-03T08:15:20.000Z</time>
      </trkpt>
      <trkpt lat="43.78274" lon="7.13397">
        <ele>912</ele>
        <time>2018-05-03T08:15:26.000Z</time>
      </trkpt>
      <trkpt lat="43.78276" lon="7.13397">
        <ele>912</ele>
        <time>2018-05-03T08:15:28.000Z</time>
      </trkpt>
      <trkpt lat="43.7828" lon="7.13396">
        <ele>912</ele>
        <time>2018-05-03T08:15:31.000Z</time>
      </trkpt>
      <trkpt lat="43.78289" lon="7.13399">
        <ele>913</ele>
        <time>2018-05-03T08:15:37.000Z</time>
      </trkpt>
      <trkpt lat="43.78291" lon="7.134">
        <ele>913</ele>
        <time>2018-05-03T08:15:38.000Z</time>
      </trkpt>
      <trkpt lat="43.78297" lon="7.13399">
        <ele>913</ele>
        <time>2018-05-03T08:15:42.000Z</time>
      </trkpt>
      <trkpt lat="43.78301" lon="7.134">
        <ele>913</ele>
        <time>2018-05-03T08:15:44.000Z</time>
      </trkpt>
      <trkpt lat="43.78311" lon="7.13401">
        <ele>914</ele>
        <time>2018-05-03T08:15:50.000Z</time>
      </trkpt>
      <trkpt lat="43.78318" lon="7.13403">
        <ele>914</ele>
        <time>2018-05-03T08:15:55.000Z</time>
      </trkpt>
      <trkpt lat="43.78326" lon="7.13404">
        <ele>915</ele>
        <time>2018-05-03T08:16:00.000Z</time>
      </trkpt>
      <trkpt lat="43.78335" lon="7.13406">
        <ele>917</ele>
        <time>2018-05-03T08:16:05.000Z</time>
      </trkpt>
      <trkpt lat="43.78341" lon="7.13406">
        <ele>917</ele>
        <time>2018-05-03T08:16:08.000Z</time>
      </trkpt>
      <trkpt lat="43.78352" lon="7.13406">
        <ele>917</ele>
        <time>2018-05-03T08:16:14.000Z</time>
      </trkpt>
      <trkpt lat="43.78354" lon="7.13405">
        <ele>917</ele>
        <time>2018-05-03T08:16:15.000Z</time>
      </trkpt>
      <trkpt lat="43.78358" lon="7.13404">
        <ele>917</ele>
        <time>2018-05-03T08:16:17.000Z</time>
      </trkpt>
      <trkpt lat="43.78364" lon="7.13404">
        <ele>917</ele>
        <time>2018-05-03T08:16:21.000Z</time>
      </trkpt>
      <trkpt lat="43.78365" lon="7.13404">
        <ele>917</ele>
        <time>2018-05-03T08:16:22.000Z</time>
      </trkpt>
      <trkpt lat="43.78373" lon="7.13402">
        <ele>917</ele>
        <time>2018-05-03T08:16:27.000Z</time>
      </trkpt>
      <trkpt lat="43.78379" lon="7.13396">
        <ele>918</ele>
        <time>2018-05-03T08:16:32.000Z</time>
      </trkpt>
      <trkpt lat="43.78383" lon="7.13394">
        <ele>918</ele>
        <time>2018-05-03T08:16:35.000Z</time>
      </trkpt>
      <trkpt lat="43.78389" lon="7.13393">
        <ele>918</ele>
        <time>2018-05-03T08:16:39.000Z</time>
      </trkpt>
      <trkpt lat="43.78398" lon="7.13388">
        <ele>918</ele>
        <time>2018-05-03T08:16:45.000Z</time>
      </trkpt>
      <trkpt lat="43.78405" lon="7.13384">
        <ele>918</ele>
        <time>2018-05-03T08:16:49.000Z</time>
      </trkpt>
      <trkpt lat="43.78406" lon="7.13383">
        <ele>918</ele>
        <time>2018-05-03T08:16:50.000Z</time>
      </trkpt>
      <trkpt lat="43.78409" lon="7.13381">
        <ele>918</ele>
        <time>2018-05-03T08:16:52.000Z</time>
      </trkpt>
      <trkpt lat="43.78411" lon="7.13381">
        <ele>918</ele>
        <time>2018-05-03T08:16:53.000Z</time>
      </trkpt>
      <trkpt lat="43.78413" lon="7.13379">
        <ele>918</ele>
        <time>2018-05-03T08:16:55.000Z</time>
      </trkpt>
      <trkpt lat="43.78422" lon="7.13369">
        <ele>920</ele>
        <time>2018-05-03T08:17:01.000Z</time>
      </trkpt>
      <trkpt lat="43.7843" lon="7.13356">
        <ele>919</ele>
        <time>2018-05-03T08:17:07.000Z</time>
      </trkpt>
      <trkpt lat="43.78442" lon="7.13348">
        <ele>919</ele>
        <time>2018-05-03T08:17:13.000Z</time>
      </trkpt>
      <trkpt lat="43.78452" lon="7.13346">
        <ele>920</ele>
        <time>2018-05-03T08:17:17.000Z</time>
      </trkpt>
      <trkpt lat="43.78463" lon="7.13342">
        <ele>920</ele>
        <time>2018-05-03T08:17:22.000Z</time>
      </trkpt>
      <trkpt lat="43.78476" lon="7.13345">
        <ele>920</ele>
        <time>2018-05-03T08:17:28.000Z</time>
      </trkpt>
      <trkpt lat="43.78487" lon="7.13348">
        <ele>921</ele>
        <time>2018-05-03T08:17:33.000Z</time>
      </trkpt>
      <trkpt lat="43.78488" lon="7.13349">
        <ele>921</ele>
        <time>2018-05-03T08:17:34.000Z</time>
      </trkpt>
      <trkpt lat="43.78498" lon="7.13347">
        <ele>921</ele>
        <time>2018-05-03T08:17:39.000Z</time>
      </trkpt>
      <trkpt lat="43.78505" lon="7.13344">
        <ele>922</ele>
        <time>2018-05-03T08:17:43.000Z</time>
      </trkpt>
      <trkpt lat="43.78509" lon="7.13343">
        <ele>922</ele>
        <time>2018-05-03T08:17:45.000Z</time>
      </trkpt>
      <trkpt lat="43.78524" lon="7.13337">
        <ele>923</ele>
        <time>2018-05-03T08:17:51.000Z</time>
      </trkpt>
      <trkpt lat="43.78535" lon="7.13336">
        <ele>923</ele>
        <time>2018-05-03T08:17:56.000Z</time>
      </trkpt>
      <trkpt lat="43.78549" lon="7.13332">
        <ele>920</ele>
        <time>2018-05-03T08:18:01.000Z</time>
      </trkpt>
      <trkpt lat="43.78552" lon="7.13331">
        <ele>920</ele>
        <time>2018-05-03T08:18:02.000Z</time>
      </trkpt>
      <trkpt lat="43.78575" lon="7.13328">
        <ele>921</ele>
        <time>2018-05-03T08:18:09.000Z</time>
      </trkpt>
      <trkpt lat="43.78596" lon="7.13329">
        <ele>922</ele>
        <time>2018-05-03T08:18:15.000Z</time>
      </trkpt>
      <trkpt lat="43.78616" lon="7.13325">
        <ele>922</ele>
        <time>2018-05-03T08:18:21.000Z</time>
      </trkpt>
      <trkpt lat="43.78627" lon="7.13322">
        <ele>922</ele>
        <time>2018-05-03T08:18:25.000Z</time>
      </trkpt>
      <trkpt lat="43.78633" lon="7.13321">
        <ele>923</ele>
        <time>2018-05-03T08:18:28.000Z</time>
      </trkpt>
      <trkpt lat="43.78638" lon="7.13322">
        <ele>923</ele>
        <time>2018-05-03T08:18:32.000Z</time>
      </trkpt>
      <trkpt lat="43.78638" lon="7.13322">
        <ele>923</ele>
        <time>2018-05-03T08:18:33.000Z</time>
      </trkpt>
      <trkpt lat="43.78637" lon="7.13322">
        <ele>923</ele>
        <time>2018-05-03T08:18:39.000Z</time>
      </trkpt>
      <trkpt lat="43.78637" lon="7.13321">
        <ele>923</ele>
        <time>2018-05-03T08:18:45.000Z</time>
      </trkpt>
      <trkpt lat="43.78637" lon="7.13321">
        <ele>923</ele>
        <time>2018-05-03T08:18:51.000Z</time>
      </trkpt>
      <trkpt lat="43.78637" lon="7.1332">
        <ele>923</ele>
        <time>2018-05-03T08:19:06.000Z</time>
      </trkpt>
      <trkpt lat="43.78637" lon="7.1332">
        <ele>923</ele>
        <time>2018-05-03T08:19:17.000Z</time>
      </trkpt>
      <trkpt lat="43.78637" lon="7.1332">
        <ele>923</ele>
        <time>2018-05-03T08:19:35.000Z</time>
      </trkpt>
      <trkpt lat="43.78637" lon="7.1332">
        <ele>923</ele>
        <time>2018-05-03T08:19:45.000Z</time>
      </trkpt>
      <trkpt lat="43.78637" lon="7.1332">
        <ele>923</ele>
        <time>2018-05-03T08:19:51.000Z</time>
      </trkpt>
      <trkpt lat="43.78637" lon="7.1332">
        <ele>923</ele>
        <time>2018-05-03T08:20:02.000Z</time>
      </trkpt>
      <trkpt lat="43.78637" lon="7.1332">
        <ele>923</ele>
        <time>2018-05-03T08:20:08.000Z</time>
      </trkpt>
      <trkpt lat="43.78637" lon="7.1332">
        <ele>923</ele>
        <time>2018-05-03T08:20:20.000Z</time>
      </trkpt>
      <trkpt lat="43.78637" lon="7.1332">
        <ele>923</ele>
        <time>2018-05-03T08:20:27.000Z</time>
      </trkpt>
      <trkpt lat="43.78636" lon="7.13319">
        <ele>923</ele>
        <time>2018-05-03T08:20:51.000Z</time>
      </trkpt>
      <trkpt lat="43.78636" lon="7.13319">
        <ele>923</ele>
        <time>2018-05-03T08:21:01.000Z</time>
      </trkpt>
      <trkpt lat="43.78636" lon="7.1332">
        <ele>923</ele>
        <time>2018-05-03T08:21:16.000Z</time>
      </trkpt>
      <trkpt lat="43.78636" lon="7.13319">
        <ele>923</ele>
        <time>2018-05-03T08:21:41.000Z</time>
      </trkpt>
      <trkpt lat="43.78637" lon="7.13317">
        <ele>923</ele>
        <time>2018-05-03T08:21:47.000Z</time>
      </trkpt>
      <trkpt lat="43.78637" lon="7.13317">
        <ele>923</ele>
        <time>2018-05-03T08:21:54.000Z</time>
      </trkpt>
      <trkpt lat="43.78638" lon="7.13315">
        <ele>922</ele>
        <time>2018-05-03T08:22:00.000Z</time>
      </trkpt>
      <trkpt lat="43.78638" lon="7.13315">
        <ele>922</ele>
        <time>2018-05-03T08:22:04.000Z</time>
      </trkpt>
      <trkpt lat="43.78639" lon="7.13314">
        <ele>922</ele>
        <time>2018-05-03T08:22:05.000Z</time>
      </trkpt>
      <trkpt lat="43.78639" lon="7.13313">
        <ele>922</ele>
        <time>2018-05-03T08:22:06.000Z</time>
      </trkpt>
      <trkpt lat="43.78638" lon="7.1331">
        <ele>922</ele>
        <time>2018-05-03T08:22:09.000Z</time>
      </trkpt>
      <trkpt lat="43.78636" lon="7.1331">
        <ele>922</ele>
        <time>2018-05-03T08:22:10.000Z</time>
      </trkpt>
      <trkpt lat="43.78629" lon="7.1331">
        <ele>922</ele>
        <time>2018-05-03T08:22:14.000Z</time>
      </trkpt>
      <trkpt lat="43.78628" lon="7.13308">
        <ele>922</ele>
        <time>2018-05-03T08:22:18.000Z</time>
      </trkpt>
      <trkpt lat="43.78623" lon="7.13302">
        <ele>922</ele>
        <time>2018-05-03T08:22:24.000Z</time>
      </trkpt>
      <trkpt lat="43.78612" lon="7.13291">
        <ele>921</ele>
        <time>2018-05-03T08:22:29.000Z</time>
      </trkpt>
      <trkpt lat="43.78608" lon="7.13289">
        <ele>921</ele>
        <time>2018-05-03T08:22:30.000Z</time>
      </trkpt>
      <trkpt lat="43.78598" lon="7.13286">
        <ele>920</ele>
        <time>2018-05-03T08:22:32.000Z</time>
      </trkpt>
      <trkpt lat="43.78593" lon="7.13284">
        <ele>920</ele>
        <time>2018-05-03T08:22:33.000Z</time>
      </trkpt>
      <trkpt lat="43.78589" lon="7.13281">
        <ele>920</ele>
        <time>2018-05-03T08:22:34.000Z</time>
      </trkpt>
      <trkpt lat="43.78579" lon="7.13269">
        <ele>917</ele>
        <time>2018-05-03T08:22:36.000Z</time>
      </trkpt>
      <trkpt lat="43.78575" lon="7.13256">
        <ele>917</ele>
        <time>2018-05-03T08:22:38.000Z</time>
      </trkpt>
      <trkpt lat="43.78572" lon="7.13251">
        <ele>917</ele>
        <time>2018-05-03T08:22:39.000Z</time>
      </trkpt>
      <trkpt lat="43.78562" lon="7.13245">
        <ele>913</ele>
        <time>2018-05-03T08:22:41.000Z</time>
      </trkpt>
      <trkpt lat="43.78556" lon="7.13243">
        <ele>912</ele>
        <time>2018-05-03T08:22:42.000Z</time>
      </trkpt>
      <trkpt lat="43.78551" lon="7.1324">
        <ele>912</ele>
        <time>2018-05-03T08:22:43.000Z</time>
      </trkpt>
      <trkpt lat="43.78541" lon="7.13229">
        <ele>911</ele>
        <time>2018-05-03T08:22:45.000Z</time>
      </trkpt>
      <trkpt lat="43.7853" lon="7.13219">
        <ele>910</ele>
        <time>2018-05-03T08:22:47.000Z</time>
      </trkpt>
      <trkpt lat="43.78526" lon="7.13214">
        <ele>910</ele>
        <time>2018-05-03T08:22:48.000Z</time>
      </trkpt>
      <trkpt lat="43.78521" lon="7.13209">
        <ele>910</ele>
        <time>2018-05-03T08:22:49.000Z</time>
      </trkpt>
      <trkpt lat="43.78512" lon="7.13199">
        <ele>909</ele>
        <time>2018-05-03T08:22:51.000Z</time>
      </trkpt>
      <trkpt lat="43.78508" lon="7.13195">
        <ele>908</ele>
        <time>2018-05-03T08:22:52.000Z</time>
      </trkpt>
      <trkpt lat="43.78503" lon="7.13193">
        <ele>908</ele>
        <time>2018-05-03T08:22:53.000Z</time>
      </trkpt>
      <trkpt lat="43.78499" lon="7.13189">
        <ele>906</ele>
        <time>2018-05-03T08:22:54.000Z</time>
      </trkpt>
      <trkpt lat="43.78495" lon="7.13185">
        <ele>905</ele>
        <time>2018-05-03T08:22:55.000Z</time>
      </trkpt>
      <trkpt lat="43.78486" lon="7.13181">
        <ele>905</ele>
        <time>2018-05-03T08:22:57.000Z</time>
      </trkpt>
      <trkpt lat="43.78484" lon="7.13177">
        <ele>905</ele>
        <time>2018-05-03T08:22:58.000Z</time>
      </trkpt>
      <trkpt lat="43.78476" lon="7.1317">
        <ele>905</ele>
        <time>2018-05-03T08:23:00.000Z</time>
      </trkpt>
      <trkpt lat="43.78467" lon="7.13167">
        <ele>900</ele>
        <time>2018-05-03T08:23:02.000Z</time>
      </trkpt>
      <trkpt lat="43.78462" lon="7.13164">
        <ele>900</ele>
        <time>2018-05-03T08:23:03.000Z</time>
      </trkpt>
      <trkpt lat="43.78457" lon="7.13161">
        <ele>900</ele>
        <time>2018-05-03T08:23:04.000Z</time>
      </trkpt>
      <trkpt lat="43.78452" lon="7.1316">
        <ele>900</ele>
        <time>2018-05-03T08:23:05.000Z</time>
      </trkpt>
      <trkpt lat="43.78446" lon="7.13158">
        <ele>900</ele>
        <time>2018-05-03T08:23:06.000Z</time>
      </trkpt>
      <trkpt lat="43.78442" lon="7.13153">
        <ele>899</ele>
        <time>2018-05-03T08:23:07.000Z</time>
      </trkpt>
      <trkpt lat="43.78434" lon="7.13142">
        <ele>899</ele>
        <time>2018-05-03T08:23:09.000Z</time>
      </trkpt>
      <trkpt lat="43.78424" lon="7.13132">
        <ele>898</ele>
        <time>2018-05-03T08:23:11.000Z</time>
      </trkpt>
      <trkpt lat="43.78414" lon="7.13122">
        <ele>896</ele>
        <time>2018-05-03T08:23:13.000Z</time>
      </trkpt>
      <trkpt lat="43.78409" lon="7.13117">
        <ele>896</ele>
        <time>2018-05-03T08:23:14.000Z</time>
      </trkpt>
      <trkpt lat="43.78403" lon="7.13115">
        <ele>895</ele>
        <time>2018-05-03T08:23:15.000Z</time>
      </trkpt>
      <trkpt lat="43.78398" lon="7.13115">
        <ele>895</ele>
        <time>2018-05-03T08:23:16.000Z</time>
      </trkpt>
      <trkpt lat="43.78392" lon="7.13115">
        <ele>896</ele>
        <time>2018-05-03T08:23:17.000Z</time>
      </trkpt>
      <trkpt lat="43.78387" lon="7.13114">
        <ele>896</ele>
        <time>2018-05-03T08:23:18.000Z</time>
      </trkpt>
      <trkpt lat="43.78373" lon="7.13105">
        <ele>895</ele>
        <time>2018-05-03T08:23:21.000Z</time>
      </trkpt>
      <trkpt lat="43.78365" lon="7.13094">
        <ele>894</ele>
        <time>2018-05-03T08:23:23.000Z</time>
      </trkpt>
      <trkpt lat="43.78357" lon="7.13082">
        <ele>889</ele>
        <time>2018-05-03T08:23:25.000Z</time>
      </trkpt>
      <trkpt lat="43.78352" lon="7.13075">
        <ele>889</ele>
        <time>2018-05-03T08:23:27.000Z</time>
      </trkpt>
      <trkpt lat="43.7835" lon="7.13072">
        <ele>889</ele>
        <time>2018-05-03T08:23:28.000Z</time>
      </trkpt>
      <trkpt lat="43.78348" lon="7.13067">
        <ele>889</ele>
        <time>2018-05-03T08:23:29.000Z</time>
      </trkpt>
      <trkpt lat="43.78342" lon="7.13065">
        <ele>889</ele>
        <time>2018-05-03T08:23:31.000Z</time>
      </trkpt>
      <trkpt lat="43.78341" lon="7.13064">
        <ele>889</ele>
        <time>2018-05-03T08:23:32.000Z</time>
      </trkpt>
      <trkpt lat="43.78339" lon="7.13062">
        <ele>889</ele>
        <time>2018-05-03T08:23:34.000Z</time>
      </trkpt>
      <trkpt lat="43.78338" lon="7.13062">
        <ele>889</ele>
        <time>2018-05-03T08:23:35.000Z</time>
      </trkpt>
      <trkpt lat="43.78328" lon="7.13052">
        <ele>889</ele>
        <time>2018-05-03T08:23:39.000Z</time>
      </trkpt>
      <trkpt lat="43.7832" lon="7.13035">
        <ele>888</ele>
        <time>2018-05-03T08:23:44.000Z</time>
      </trkpt>
      <trkpt lat="43.78317" lon="7.13026">
        <ele>887</ele>
        <time>2018-05-03T08:23:48.000Z</time>
      </trkpt>
      <trkpt lat="43.78316" lon="7.13024">
        <ele>887</ele>
        <time>2018-05-03T08:23:49.000Z</time>
      </trkpt>
      <trkpt lat="43.78316" lon="7.13021">
        <ele>887</ele>
        <time>2018-05-03T08:23:50.000Z</time>
      </trkpt>
      <trkpt lat="43.78315" lon="7.13014">
        <ele>887</ele>
        <time>2018-05-03T08:23:53.000Z</time>
      </trkpt>
      <trkpt lat="43.78311" lon="7.13002">
        <ele>886</ele>
        <time>2018-05-03T08:23:57.000Z</time>
      </trkpt>
      <trkpt lat="43.78302" lon="7.12996">
        <ele>883</ele>
        <time>2018-05-03T08:24:00.000Z</time>
      </trkpt>
      <trkpt lat="43.78299" lon="7.12992">
        <ele>883</ele>
        <time>2018-05-03T08:24:01.000Z</time>
      </trkpt>
      <trkpt lat="43.78297" lon="7.12989">
        <ele>883</ele>
        <time>2018-05-03T08:24:02.000Z</time>
      </trkpt>
      <trkpt lat="43.78294" lon="7.12988">
        <ele>883</ele>
        <time>2018-05-03T08:24:03.000Z</time>
      </trkpt>
      <trkpt lat="43.78288" lon="7.12988">
        <ele>884</ele>
        <time>2018-05-03T08:24:05.000Z</time>
      </trkpt>
      <trkpt lat="43.78285" lon="7.12981">
        <ele>883</ele>
        <time>2018-05-03T08:24:08.000Z</time>
      </trkpt>
      <trkpt lat="43.78279" lon="7.12971">
        <ele>883</ele>
        <time>2018-05-03T08:24:12.000Z</time>
      </trkpt>
      <trkpt lat="43.78275" lon="7.12966">
        <ele>883</ele>
        <time>2018-05-03T08:24:14.000Z</time>
      </trkpt>
      <trkpt lat="43.78274" lon="7.12964">
        <ele>883</ele>
        <time>2018-05-03T08:24:17.000Z</time>
      </trkpt>
      <trkpt lat="43.78272" lon="7.12963">
        <ele>883</ele>
        <time>2018-05-03T08:24:24.000Z</time>
      </trkpt>
      <trkpt lat="43.78269" lon="7.12957">
        <ele>883</ele>
        <time>2018-05-03T08:24:29.000Z</time>
      </trkpt>
      <trkpt lat="43.78267" lon="7.12956">
        <ele>883</ele>
        <time>2018-05-03T08:24:31.000Z</time>
      </trkpt>
      <trkpt lat="43.78264" lon="7.12955">
        <ele>883</ele>
        <time>2018-05-03T08:24:35.000Z</time>
      </trkpt>
      <trkpt lat="43.78256" lon="7.12943">
        <ele>883</ele>
        <time>2018-05-03T08:24:40.000Z</time>
      </trkpt>
      <trkpt lat="43.78248" lon="7.12938">
        <ele>883</ele>
        <time>2018-05-03T08:24:44.000Z</time>
      </trkpt>
      <trkpt lat="43.78249" lon="7.12938">
        <ele>883</ele>
        <time>2018-05-03T08:24:45.000Z</time>
      </trkpt>
      <trkpt lat="43.78248" lon="7.12937">
        <ele>883</ele>
        <time>2018-05-03T08:24:49.000Z</time>
      </trkpt>
      <trkpt lat="43.78246" lon="7.12936">
        <ele>883</ele>
        <time>2018-05-03T08:24:52.000Z</time>
      </trkpt>
      <trkpt lat="43.78245" lon="7.12934">
        <ele>883</ele>
        <time>2018-05-03T08:24:55.000Z</time>
      </trkpt>
      <trkpt lat="43.78245" lon="7.12933">
        <ele>883</ele>
        <time>2018-05-03T08:25:00.000Z</time>
      </trkpt>
      <trkpt lat="43.78242" lon="7.1293">
        <ele>883</ele>
        <time>2018-05-03T08:25:07.000Z</time>
      </trkpt>
      <trkpt lat="43.78241" lon="7.12926">
        <ele>883</ele>
        <time>2018-05-03T08:25:13.000Z</time>
      </trkpt>
      <trkpt lat="43.7824" lon="7.12925">
        <ele>883</ele>
        <time>2018-05-03T08:25:18.000Z</time>
      </trkpt>
      <trkpt lat="43.78237" lon="7.12923">
        <ele>883</ele>
        <time>2018-05-03T08:25:23.000Z</time>
      </trkpt>
      <trkpt lat="43.78235" lon="7.12923">
        <ele>883</ele>
        <time>2018-05-03T08:25:25.000Z</time>
      </trkpt>
      <trkpt lat="43.78234" lon="7.12923">
        <ele>883</ele>
        <time>2018-05-03T08:25:26.000Z</time>
      </trkpt>
      <trkpt lat="43.7823" lon="7.12923">
        <ele>883</ele>
        <time>2018-05-03T08:25:29.000Z</time>
      </trkpt>
      <trkpt lat="43.7823" lon="7.1292">
        <ele>883</ele>
        <time>2018-05-03T08:25:30.000Z</time>
      </trkpt>
      <trkpt lat="43.78229" lon="7.1292">
        <ele>883</ele>
        <time>2018-05-03T08:25:33.000Z</time>
      </trkpt>
      <trkpt lat="43.78228" lon="7.12917">
        <ele>883</ele>
        <time>2018-05-03T08:25:40.000Z</time>
      </trkpt>
      <trkpt lat="43.78227" lon="7.12916">
        <ele>880</ele>
        <time>2018-05-03T08:25:47.000Z</time>
      </trkpt>
      <trkpt lat="43.78222" lon="7.12912">
        <ele>880</ele>
        <time>2018-05-03T08:26:02.000Z</time>
      </trkpt>
      <trkpt lat="43.78215" lon="7.129">
        <ele>880</ele>
        <time>2018-05-03T08:26:06.000Z</time>
      </trkpt>
      <trkpt lat="43.78213" lon="7.129">
        <ele>880</ele>
        <time>2018-05-03T08:26:07.000Z</time>
      </trkpt>
      <trkpt lat="43.78207" lon="7.12897">
        <ele>880</ele>
        <time>2018-05-03T08:26:09.000Z</time>
      </trkpt>
      <trkpt lat="43.78204" lon="7.12894">
        <ele>879</ele>
        <time>2018-05-03T08:26:10.000Z</time>
      </trkpt>
      <trkpt lat="43.78196" lon="7.12882">
        <ele>879</ele>
        <time>2018-05-03T08:26:13.000Z</time>
      </trkpt>
      <trkpt lat="43.78192" lon="7.12877">
        <ele>879</ele>
        <time>2018-05-03T08:26:14.000Z</time>
      </trkpt>
      <trkpt lat="43.78181" lon="7.12868">
        <ele>878</ele>
        <time>2018-05-03T08:26:17.000Z</time>
      </trkpt>
      <trkpt lat="43.78178" lon="7.1286">
        <ele>878</ele>
        <time>2018-05-03T08:26:19.000Z</time>
      </trkpt>
      <trkpt lat="43.78176" lon="7.12857">
        <ele>877</ele>
        <time>2018-05-03T08:26:20.000Z</time>
      </trkpt>
      <trkpt lat="43.78165" lon="7.12847">
        <ele>876</ele>
        <time>2018-05-03T08:26:23.000Z</time>
      </trkpt>
      <trkpt lat="43.78161" lon="7.12841">
        <ele>875</ele>
        <time>2018-05-03T08:26:24.000Z</time>
      </trkpt>
      <trkpt lat="43.78157" lon="7.12837">
        <ele>875</ele>
        <time>2018-05-03T08:26:25.000Z</time>
      </trkpt>
      <trkpt lat="43.78149" lon="7.1283">
        <ele>872</ele>
        <time>2018-05-03T08:26:27.000Z</time>
      </trkpt>
      <trkpt lat="43.78139" lon="7.12827">
        <ele>872</ele>
        <time>2018-05-03T08:26:30.000Z</time>
      </trkpt>
      <trkpt lat="43.78136" lon="7.12825">
        <ele>871</ele>
        <time>2018-05-03T08:26:31.000Z</time>
      </trkpt>
      <trkpt lat="43.78126" lon="7.12813">
        <ele>871</ele>
        <time>2018-05-03T08:26:35.000Z</time>
      </trkpt>
      <trkpt lat="43.78123" lon="7.12809">
        <ele>871</ele>
        <time>2018-05-03T08:26:37.000Z</time>
      </trkpt>
      <trkpt lat="43.78121" lon="7.12802">
        <ele>870</ele>
        <time>2018-05-03T08:26:39.000Z</time>
      </trkpt>
      <trkpt lat="43.78118" lon="7.12797">
        <ele>870</ele>
        <time>2018-05-03T08:26:41.000Z</time>
      </trkpt>
      <trkpt lat="43.78115" lon="7.12792">
        <ele>870</ele>
        <time>2018-05-03T08:26:43.000Z</time>
      </trkpt>
      <trkpt lat="43.78106" lon="7.12781">
        <ele>870</ele>
        <time>2018-05-03T08:26:48.000Z</time>
      </trkpt>
      <trkpt lat="43.78103" lon="7.12774">
        <ele>869</ele>
        <time>2018-05-03T08:26:50.000Z</time>
      </trkpt>
      <trkpt lat="43.78104" lon="7.12766">
        <ele>869</ele>
        <time>2018-05-03T08:26:52.000Z</time>
      </trkpt>
      <trkpt lat="43.78101" lon="7.12754">
        <ele>868</ele>
        <time>2018-05-03T08:26:54.000Z</time>
      </trkpt>
      <trkpt lat="43.78099" lon="7.12749">
        <ele>865</ele>
        <time>2018-05-03T08:26:55.000Z</time>
      </trkpt>
      <trkpt lat="43.78097" lon="7.12743">
        <ele>865</ele>
        <time>2018-05-03T08:26:56.000Z</time>
      </trkpt>
      <trkpt lat="43.78096" lon="7.12737">
        <ele>865</ele>
        <time>2018-05-03T08:26:57.000Z</time>
      </trkpt>
      <trkpt lat="43.78093" lon="7.12731">
        <ele>865</ele>
        <time>2018-05-03T08:26:58.000Z</time>
      </trkpt>
      <trkpt lat="43.7809" lon="7.12728">
        <ele>864</ele>
        <time>2018-05-03T08:26:59.000Z</time>
      </trkpt>
      <trkpt lat="43.78088" lon="7.12724">
        <ele>864</ele>
        <time>2018-05-03T08:27:00.000Z</time>
      </trkpt>
      <trkpt lat="43.78085" lon="7.12716">
        <ele>864</ele>
        <time>2018-05-03T08:27:02.000Z</time>
      </trkpt>
      <trkpt lat="43.78084" lon="7.12712">
        <ele>863</ele>
        <time>2018-05-03T08:27:03.000Z</time>
      </trkpt>
      <trkpt lat="43.78084" lon="7.12708">
        <ele>863</ele>
        <time>2018-05-03T08:27:04.000Z</time>
      </trkpt>
      <trkpt lat="43.78084" lon="7.127">
        <ele>862</ele>
        <time>2018-05-03T08:27:06.000Z</time>
      </trkpt>
      <trkpt lat="43.78083" lon="7.12697">
        <ele>862</ele>
        <time>2018-05-03T08:27:07.000Z</time>
      </trkpt>
      <trkpt lat="43.78081" lon="7.12692">
        <ele>863</ele>
        <time>2018-05-03T08:27:10.000Z</time>
      </trkpt>
      <trkpt lat="43.7808" lon="7.1269">
        <ele>863</ele>
        <time>2018-05-03T08:27:11.000Z</time>
      </trkpt>
      <trkpt lat="43.78074" lon="7.12684">
        <ele>863</ele>
        <time>2018-05-03T08:27:14.000Z</time>
      </trkpt>
      <trkpt lat="43.78071" lon="7.12683">
        <ele>863</ele>
        <time>2018-05-03T08:27:15.000Z</time>
      </trkpt>
      <trkpt lat="43.78065" lon="7.12681">
        <ele>863</ele>
        <time>2018-05-03T08:27:18.000Z</time>
      </trkpt>
      <trkpt lat="43.78062" lon="7.1268">
        <ele>863</ele>
        <time>2018-05-03T08:27:19.000Z</time>
      </trkpt>
      <trkpt lat="43.78057" lon="7.12679">
        <ele>863</ele>
        <time>2018-05-03T08:27:21.000Z</time>
      </trkpt>
      <trkpt lat="43.7805" lon="7.12677">
        <ele>864</ele>
        <time>2018-05-03T08:27:24.000Z</time>
      </trkpt>
      <trkpt lat="43.78035" lon="7.12667">
        <ele>864</ele>
        <time>2018-05-03T08:27:31.000Z</time>
      </trkpt>
      <trkpt lat="43.78021" lon="7.12656">
        <ele>859</ele>
        <time>2018-05-03T08:27:36.000Z</time>
      </trkpt>
      <trkpt lat="43.78015" lon="7.12649">
        <ele>859</ele>
        <time>2018-05-03T08:27:40.000Z</time>
      </trkpt>
      <trkpt lat="43.78013" lon="7.12644">
        <ele>858</ele>
        <time>2018-05-03T08:27:43.000Z</time>
      </trkpt>
      <trkpt lat="43.78013" lon="7.1264">
        <ele>858</ele>
        <time>2018-05-03T08:27:46.000Z</time>
      </trkpt>
      <trkpt lat="43.78012" lon="7.12637">
        <ele>858</ele>
        <time>2018-05-03T08:27:52.000Z</time>
      </trkpt>
      <trkpt lat="43.78015" lon="7.12625">
        <ele>857</ele>
        <time>2018-05-03T08:27:56.000Z</time>
      </trkpt>
      <trkpt lat="43.78016" lon="7.12609">
        <ele>856</ele>
        <time>2018-05-03T08:28:00.000Z</time>
      </trkpt>
      <trkpt lat="43.78016" lon="7.12603">
        <ele>855</ele>
        <time>2018-05-03T08:28:01.000Z</time>
      </trkpt>
      <trkpt lat="43.78016" lon="7.12597">
        <ele>855</ele>
        <time>2018-05-03T08:28:02.000Z</time>
      </trkpt>
      <trkpt lat="43.78017" lon="7.12592">
        <ele>855</ele>
        <time>2018-05-03T08:28:03.000Z</time>
      </trkpt>
      <trkpt lat="43.78022" lon="7.12581">
        <ele>850</ele>
        <time>2018-05-03T08:28:05.000Z</time>
      </trkpt>
      <trkpt lat="43.78025" lon="7.12577">
        <ele>849</ele>
        <time>2018-05-03T08:28:06.000Z</time>
      </trkpt>
      <trkpt lat="43.78026" lon="7.12573">
        <ele>849</ele>
        <time>2018-05-03T08:28:07.000Z</time>
      </trkpt>
      <trkpt lat="43.78025" lon="7.12567">
        <ele>849</ele>
        <time>2018-05-03T08:28:08.000Z</time>
      </trkpt>
      <trkpt lat="43.78026" lon="7.12553">
        <ele>848</ele>
        <time>2018-05-03T08:28:10.000Z</time>
      </trkpt>
      <trkpt lat="43.78029" lon="7.12546">
        <ele>847</ele>
        <time>2018-05-03T08:28:11.000Z</time>
      </trkpt>
      <trkpt lat="43.78031" lon="7.1254">
        <ele>847</ele>
        <time>2018-05-03T08:28:12.000Z</time>
      </trkpt>
      <trkpt lat="43.7803" lon="7.12527">
        <ele>846</ele>
        <time>2018-05-03T08:28:14.000Z</time>
      </trkpt>
      <trkpt lat="43.78033" lon="7.12518">
        <ele>846</ele>
        <time>2018-05-03T08:28:16.000Z</time>
      </trkpt>
      <trkpt lat="43.78033" lon="7.12518">
        <ele>846</ele>
        <time>2018-05-03T08:28:17.000Z</time>
      </trkpt>
      <trkpt lat="43.78032" lon="7.12518">
        <ele>846</ele>
        <time>2018-05-03T08:28:19.000Z</time>
      </trkpt>
      <trkpt lat="43.78032" lon="7.12519">
        <ele>846</ele>
        <time>2018-05-03T08:28:23.000Z</time>
      </trkpt>
      <trkpt lat="43.7803" lon="7.12517">
        <ele>846</ele>
        <time>2018-05-03T08:28:29.000Z</time>
      </trkpt>
      <trkpt lat="43.78029" lon="7.12518">
        <ele>846</ele>
        <time>2018-05-03T08:28:30.000Z</time>
      </trkpt>
      <trkpt lat="43.78025" lon="7.12519">
        <ele>846</ele>
        <time>2018-05-03T08:28:33.000Z</time>
      </trkpt>
      <trkpt lat="43.78019" lon="7.12519">
        <ele>846</ele>
        <time>2018-05-03T08:28:38.000Z</time>
      </trkpt>
      <trkpt lat="43.78015" lon="7.12517">
        <ele>846</ele>
        <time>2018-05-03T08:28:42.000Z</time>
      </trkpt>
      <trkpt lat="43.78014" lon="7.12517">
        <ele>846</ele>
        <time>2018-05-03T08:28:43.000Z</time>
      </trkpt>
      <trkpt lat="43.78008" lon="7.12513">
        <ele>845</ele>
        <time>2018-05-03T08:28:50.000Z</time>
      </trkpt>
      <trkpt lat="43.78006" lon="7.12511">
        <ele>845</ele>
        <time>2018-05-03T08:28:57.000Z</time>
      </trkpt>
      <trkpt lat="43.78005" lon="7.12511">
        <ele>845</ele>
        <time>2018-05-03T08:29:09.000Z</time>
      </trkpt>
      <trkpt lat="43.78006" lon="7.12509">
        <ele>845</ele>
        <time>2018-05-03T08:29:17.000Z</time>
      </trkpt>
      <trkpt lat="43.78007" lon="7.12509">
        <ele>845</ele>
        <time>2018-05-03T08:29:19.000Z</time>
      </trkpt>
      <trkpt lat="43.7801" lon="7.12507">
        <ele>845</ele>
        <time>2018-05-03T08:29:22.000Z</time>
      </trkpt>
      <trkpt lat="43.78012" lon="7.12507">
        <ele>845</ele>
        <time>2018-05-03T08:29:24.000Z</time>
      </trkpt>
      <trkpt lat="43.78015" lon="7.12507">
        <ele>845</ele>
        <time>2018-05-03T08:29:27.000Z</time>
      </trkpt>
      <trkpt lat="43.78018" lon="7.12511">
        <ele>846</ele>
        <time>2018-05-03T08:29:32.000Z</time>
      </trkpt>
      <trkpt lat="43.78019" lon="7.12516">
        <ele>846</ele>
        <time>2018-05-03T08:29:38.000Z</time>
      </trkpt>
      <trkpt lat="43.78022" lon="7.12517">
        <ele>846</ele>
        <time>2018-05-03T08:29:41.000Z</time>
      </trkpt>
      <trkpt lat="43.78024" lon="7.12517">
        <ele>846</ele>
        <time>2018-05-03T08:29:43.000Z</time>
      </trkpt>
      <trkpt lat="43.78025" lon="7.12517">
        <ele>846</ele>
        <time>2018-05-03T08:29:47.000Z</time>
      </trkpt>
      <trkpt lat="43.78027" lon="7.12515">
        <ele>846</ele>
        <time>2018-05-03T08:29:50.000Z</time>
      </trkpt>
      <trkpt lat="43.78027" lon="7.1251">
        <ele>846</ele>
        <time>2018-05-03T08:29:52.000Z</time>
      </trkpt>
      <trkpt lat="43.78027" lon="7.12503">
        <ele>846</ele>
        <time>2018-05-03T08:29:54.000Z</time>
      </trkpt>
      <trkpt lat="43.78027" lon="7.12496">
        <ele>841</ele>
        <time>2018-05-03T08:29:56.000Z</time>
      </trkpt>
      <trkpt lat="43.78028" lon="7.12491">
        <ele>841</ele>
        <time>2018-05-03T08:29:58.000Z</time>
      </trkpt>
      <trkpt lat="43.78028" lon="7.12489">
        <ele>840</ele>
        <time>2018-05-03T08:30:00.000Z</time>
      </trkpt>
      <trkpt lat="43.78028" lon="7.12489">
        <ele>840</ele>
        <time>2018-05-03T08:30:01.000Z</time>
      </trkpt>
      <trkpt lat="43.78027" lon="7.12486">
        <ele>840</ele>
        <time>2018-05-03T08:30:06.000Z</time>
      </trkpt>
      <trkpt lat="43.78027" lon="7.12484">
        <ele>840</ele>
        <time>2018-05-03T08:30:07.000Z</time>
      </trkpt>
      <trkpt lat="43.78028" lon="7.12474">
        <ele>840</ele>
        <time>2018-05-03T08:30:10.000Z</time>
      </trkpt>
      <trkpt lat="43.78028" lon="7.12471">
        <ele>840</ele>
        <time>2018-05-03T08:30:11.000Z</time>
      </trkpt>
      <trkpt lat="43.78029" lon="7.12468">
        <ele>839</ele>
        <time>2018-05-03T08:30:12.000Z</time>
      </trkpt>
      <trkpt lat="43.78029" lon="7.12459">
        <ele>839</ele>
        <time>2018-05-03T08:30:14.000Z</time>
      </trkpt>
      <trkpt lat="43.78029" lon="7.12449">
        <ele>838</ele>
        <time>2018-05-03T08:30:16.000Z</time>
      </trkpt>
      <trkpt lat="43.7803" lon="7.12444">
        <ele>838</ele>
        <time>2018-05-03T08:30:17.000Z</time>
      </trkpt>
      <trkpt lat="43.78032" lon="7.12438">
        <ele>838</ele>
        <time>2018-05-03T08:30:18.000Z</time>
      </trkpt>
      <trkpt lat="43.78035" lon="7.12427">
        <ele>837</ele>
        <time>2018-05-03T08:30:20.000Z</time>
      </trkpt>
      <trkpt lat="43.78036" lon="7.12421">
        <ele>837</ele>
        <time>2018-05-03T08:30:21.000Z</time>
      </trkpt>
      <trkpt lat="43.78035" lon="7.12413">
        <ele>831</ele>
        <time>2018-05-03T08:30:23.000Z</time>
      </trkpt>
      <trkpt lat="43.78034" lon="7.12403">
        <ele>831</ele>
        <time>2018-05-03T08:30:25.000Z</time>
      </trkpt>
      <trkpt lat="43.78037" lon="7.12399">
        <ele>831</ele>
        <time>2018-05-03T08:30:26.000Z</time>
      </trkpt>
      <trkpt lat="43.78042" lon="7.12389">
        <ele>830</ele>
        <time>2018-05-03T08:30:28.000Z</time>
      </trkpt>
      <trkpt lat="43.7805" lon="7.12381">
        <ele>829</ele>
        <time>2018-05-03T08:30:30.000Z</time>
      </trkpt>
      <trkpt lat="43.78056" lon="7.12372">
        <ele>829</ele>
        <time>2018-05-03T08:30:32.000Z</time>
      </trkpt>
      <trkpt lat="43.78059" lon="7.12368">
        <ele>828</ele>
        <time>2018-05-03T08:30:33.000Z</time>
      </trkpt>
      <trkpt lat="43.7806" lon="7.12363">
        <ele>828</ele>
        <time>2018-05-03T08:30:34.000Z</time>
      </trkpt>
      <trkpt lat="43.78061" lon="7.12349">
        <ele>827</ele>
        <time>2018-05-03T08:30:36.000Z</time>
      </trkpt>
      <trkpt lat="43.78063" lon="7.12342">
        <ele>826</ele>
        <time>2018-05-03T08:30:37.000Z</time>
      </trkpt>
      <trkpt lat="43.78064" lon="7.12335">
        <ele>826</ele>
        <time>2018-05-03T08:30:38.000Z</time>
      </trkpt>
      <trkpt lat="43.78065" lon="7.12327">
        <ele>820</ele>
        <time>2018-05-03T08:30:39.000Z</time>
      </trkpt>
      <trkpt lat="43.78066" lon="7.12322">
        <ele>820</ele>
        <time>2018-05-03T08:30:40.000Z</time>
      </trkpt>
      <trkpt lat="43.78068" lon="7.12318">
        <ele>820</ele>
        <time>2018-05-03T08:30:41.000Z</time>
      </trkpt>
      <trkpt lat="43.78073" lon="7.12313">
        <ele>819</ele>
        <time>2018-05-03T08:30:43.000Z</time>
      </trkpt>
      <trkpt lat="43.78074" lon="7.12311">
        <ele>819</ele>
        <time>2018-05-03T08:30:44.000Z</time>
      </trkpt>
      <trkpt lat="43.78075" lon="7.12308">
        <ele>819</ele>
        <time>2018-05-03T08:30:45.000Z</time>
      </trkpt>
      <trkpt lat="43.78077" lon="7.12305">
        <ele>819</ele>
        <time>2018-05-03T08:30:46.000Z</time>
      </trkpt>
      <trkpt lat="43.7808" lon="7.123">
        <ele>818</ele>
        <time>2018-05-03T08:30:47.000Z</time>
      </trkpt>
      <trkpt lat="43.78081" lon="7.12295">
        <ele>818</ele>
        <time>2018-05-03T08:30:48.000Z</time>
      </trkpt>
      <trkpt lat="43.78085" lon="7.12284">
        <ele>809</ele>
        <time>2018-05-03T08:30:50.000Z</time>
      </trkpt>
      <trkpt lat="43.78088" lon="7.12275">
        <ele>808</ele>
        <time>2018-05-03T08:30:52.000Z</time>
      </trkpt>
      <trkpt lat="43.78091" lon="7.1227">
        <ele>808</ele>
        <time>2018-05-03T08:30:54.000Z</time>
      </trkpt>
      <trkpt lat="43.78095" lon="7.12266">
        <ele>808</ele>
        <time>2018-05-03T08:30:56.000Z</time>
      </trkpt>
      <trkpt lat="43.78097" lon="7.12262">
        <ele>808</ele>
        <time>2018-05-03T08:30:58.000Z</time>
      </trkpt>
      <trkpt lat="43.78097" lon="7.1226">
        <ele>808</ele>
        <time>2018-05-03T08:30:59.000Z</time>
      </trkpt>
      <trkpt lat="43.781" lon="7.12257">
        <ele>808</ele>
        <time>2018-05-03T08:31:00.000Z</time>
      </trkpt>
      <trkpt lat="43.78103" lon="7.12255">
        <ele>807</ele>
        <time>2018-05-03T08:31:01.000Z</time>
      </trkpt>
      <trkpt lat="43.78106" lon="7.12253">
        <ele>807</ele>
        <time>2018-05-03T08:31:02.000Z</time>
      </trkpt>
      <trkpt lat="43.78107" lon="7.1225">
        <ele>801</ele>
        <time>2018-05-03T08:31:03.000Z</time>
      </trkpt>
      <trkpt lat="43.78107" lon="7.12241">
        <ele>801</ele>
        <time>2018-05-03T08:31:05.000Z</time>
      </trkpt>
      <trkpt lat="43.78107" lon="7.12237">
        <ele>800</ele>
        <time>2018-05-03T08:31:06.000Z</time>
      </trkpt>
      <trkpt lat="43.78108" lon="7.12229">
        <ele>799</ele>
        <time>2018-05-03T08:31:08.000Z</time>
      </trkpt>
      <trkpt lat="43.78108" lon="7.12221">
        <ele>798</ele>
        <time>2018-05-03T08:31:10.000Z</time>
      </trkpt>
      <trkpt lat="43.78107" lon="7.12208">
        <ele>797</ele>
        <time>2018-05-03T08:31:13.000Z</time>
      </trkpt>
      <trkpt lat="43.78105" lon="7.122">
        <ele>797</ele>
        <time>2018-05-03T08:31:16.000Z</time>
      </trkpt>
      <trkpt lat="43.78111" lon="7.12179">
        <ele>796</ele>
        <time>2018-05-03T08:31:20.000Z</time>
      </trkpt>
      <trkpt lat="43.78112" lon="7.12175">
        <ele>796</ele>
        <time>2018-05-03T08:31:21.000Z</time>
      </trkpt>
      <trkpt lat="43.78114" lon="7.12171">
        <ele>795</ele>
        <time>2018-05-03T08:31:22.000Z</time>
      </trkpt>
      <trkpt lat="43.78113" lon="7.12166">
        <ele>790</ele>
        <time>2018-05-03T08:31:23.000Z</time>
      </trkpt>
      <trkpt lat="43.78111" lon="7.12159">
        <ele>790</ele>
        <time>2018-05-03T08:31:24.000Z</time>
      </trkpt>
      <trkpt lat="43.78112" lon="7.1215">
        <ele>789</ele>
        <time>2018-05-03T08:31:26.000Z</time>
      </trkpt>
      <trkpt lat="43.78116" lon="7.12143">
        <ele>788</ele>
        <time>2018-05-03T08:31:28.000Z</time>
      </trkpt>
      <trkpt lat="43.78121" lon="7.12141">
        <ele>787</ele>
        <time>2018-05-03T08:31:30.000Z</time>
      </trkpt>
      <trkpt lat="43.78124" lon="7.12134">
        <ele>786</ele>
        <time>2018-05-03T08:31:32.000Z</time>
      </trkpt>
      <trkpt lat="43.78127" lon="7.12131">
        <ele>786</ele>
        <time>2018-05-03T08:31:33.000Z</time>
      </trkpt>
      <trkpt lat="43.7813" lon="7.12126">
        <ele>785</ele>
        <time>2018-05-03T08:31:34.000Z</time>
      </trkpt>
      <trkpt lat="43.78132" lon="7.12117">
        <ele>784</ele>
        <time>2018-05-03T08:31:36.000Z</time>
      </trkpt>
      <trkpt lat="43.78132" lon="7.12111">
        <ele>784</ele>
        <time>2018-05-03T08:31:37.000Z</time>
      </trkpt>
      <trkpt lat="43.78132" lon="7.12105">
        <ele>784</ele>
        <time>2018-05-03T08:31:38.000Z</time>
      </trkpt>
      <trkpt lat="43.78135" lon="7.12092">
        <ele>782</ele>
        <time>2018-05-03T08:31:41.000Z</time>
      </trkpt>
      <trkpt lat="43.78135" lon="7.12087">
        <ele>782</ele>
        <time>2018-05-03T08:31:42.000Z</time>
      </trkpt>
      <trkpt lat="43.78137" lon="7.12079">
        <ele>774</ele>
        <time>2018-05-03T08:31:44.000Z</time>
      </trkpt>
      <trkpt lat="43.78137" lon="7.12076">
        <ele>774</ele>
        <time>2018-05-03T08:31:45.000Z</time>
      </trkpt>
      <trkpt lat="43.78136" lon="7.12071">
        <ele>774</ele>
        <time>2018-05-03T08:31:46.000Z</time>
      </trkpt>
      <trkpt lat="43.78136" lon="7.12061">
        <ele>774</ele>
        <time>2018-05-03T08:31:48.000Z</time>
      </trkpt>
      <trkpt lat="43.78135" lon="7.12055">
        <ele>773</ele>
        <time>2018-05-03T08:31:49.000Z</time>
      </trkpt>
      <trkpt lat="43.78133" lon="7.1205">
        <ele>773</ele>
        <time>2018-05-03T08:31:50.000Z</time>
      </trkpt>
      <trkpt lat="43.78131" lon="7.12044">
        <ele>773</ele>
        <time>2018-05-03T08:31:52.000Z</time>
      </trkpt>
      <trkpt lat="43.7813" lon="7.1204">
        <ele>772</ele>
        <time>2018-05-03T08:31:53.000Z</time>
      </trkpt>
      <trkpt lat="43.78129" lon="7.12036">
        <ele>772</ele>
        <time>2018-05-03T08:31:54.000Z</time>
      </trkpt>
      <trkpt lat="43.78121" lon="7.12028">
        <ele>772</ele>
        <time>2018-05-03T08:31:57.000Z</time>
      </trkpt>
      <trkpt lat="43.78115" lon="7.1202">
        <ele>771</ele>
        <time>2018-05-03T08:31:59.000Z</time>
      </trkpt>
      <trkpt lat="43.78113" lon="7.12018">
        <ele>771</ele>
        <time>2018-05-03T08:32:00.000Z</time>
      </trkpt>
      <trkpt lat="43.78111" lon="7.12018">
        <ele>771</ele>
        <time>2018-05-03T08:32:01.000Z</time>
      </trkpt>
      <trkpt lat="43.78109" lon="7.12017">
        <ele>771</ele>
        <time>2018-05-03T08:32:02.000Z</time>
      </trkpt>
      <trkpt lat="43.78106" lon="7.12007">
        <ele>771</ele>
        <time>2018-05-03T08:32:05.000Z</time>
      </trkpt>
      <trkpt lat="43.78104" lon="7.12003">
        <ele>771</ele>
        <time>2018-05-03T08:32:06.000Z</time>
      </trkpt>
      <trkpt lat="43.78098" lon="7.11999">
        <ele>763</ele>
        <time>2018-05-03T08:32:08.000Z</time>
      </trkpt>
      <trkpt lat="43.78092" lon="7.11991">
        <ele>763</ele>
        <time>2018-05-03T08:32:10.000Z</time>
      </trkpt>
      <trkpt lat="43.78088" lon="7.11982">
        <ele>762</ele>
        <time>2018-05-03T08:32:12.000Z</time>
      </trkpt>
      <trkpt lat="43.78086" lon="7.11974">
        <ele>760</ele>
        <time>2018-05-03T08:32:14.000Z</time>
      </trkpt>
      <trkpt lat="43.78083" lon="7.11967">
        <ele>760</ele>
        <time>2018-05-03T08:32:16.000Z</time>
      </trkpt>
      <trkpt lat="43.78077" lon="7.11959">
        <ele>759</ele>
        <time>2018-05-03T08:32:18.000Z</time>
      </trkpt>
      <trkpt lat="43.78072" lon="7.11958">
        <ele>759</ele>
        <time>2018-05-03T08:32:19.000Z</time>
      </trkpt>
      <trkpt lat="43.78066" lon="7.11952">
        <ele>758</ele>
        <time>2018-05-03T08:32:21.000Z</time>
      </trkpt>
      <trkpt lat="43.78063" lon="7.11948">
        <ele>757</ele>
        <time>2018-05-03T08:32:22.000Z</time>
      </trkpt>
      <trkpt lat="43.78055" lon="7.11941">
        <ele>757</ele>
        <time>2018-05-03T08:32:24.000Z</time>
      </trkpt>
      <trkpt lat="43.78052" lon="7.11937">
        <ele>756</ele>
        <time>2018-05-03T08:32:25.000Z</time>
      </trkpt>
      <trkpt lat="43.78046" lon="7.11934">
        <ele>756</ele>
        <time>2018-05-03T08:32:27.000Z</time>
      </trkpt>
      <trkpt lat="43.78044" lon="7.11933">
        <ele>756</ele>
        <time>2018-05-03T08:32:28.000Z</time>
      </trkpt>
      <trkpt lat="43.78041" lon="7.11932">
        <ele>756</ele>
        <time>2018-05-03T08:32:29.000Z</time>
      </trkpt>
      <trkpt lat="43.78034" lon="7.11931">
        <ele>756</ele>
        <time>2018-05-03T08:32:31.000Z</time>
      </trkpt>
      <trkpt lat="43.78022" lon="7.11924">
        <ele>755</ele>
        <time>2018-05-03T08:32:35.000Z</time>
      </trkpt>
      <trkpt lat="43.78013" lon="7.11922">
        <ele>753</ele>
        <time>2018-05-03T08:32:38.000Z</time>
      </trkpt>
      <trkpt lat="43.78011" lon="7.11922">
        <ele>753</ele>
        <time>2018-05-03T08:32:39.000Z</time>
      </trkpt>
      <trkpt lat="43.78004" lon="7.11922">
        <ele>752</ele>
        <time>2018-05-03T08:32:43.000Z</time>
      </trkpt>
      <trkpt lat="43.77993" lon="7.11919">
        <ele>752</ele>
        <time>2018-05-03T08:32:47.000Z</time>
      </trkpt>
      <trkpt lat="43.77992" lon="7.11917">
        <ele>752</ele>
        <time>2018-05-03T08:32:48.000Z</time>
      </trkpt>
      <trkpt lat="43.77992" lon="7.11909">
        <ele>748</ele>
        <time>2018-05-03T08:32:52.000Z</time>
      </trkpt>
      <trkpt lat="43.77991" lon="7.11905">
        <ele>748</ele>
        <time>2018-05-03T08:32:55.000Z</time>
      </trkpt>
      <trkpt lat="43.7799" lon="7.11905">
        <ele>747</ele>
        <time>2018-05-03T08:32:56.000Z</time>
      </trkpt>
      <trkpt lat="43.77988" lon="7.11903">
        <ele>747</ele>
        <time>2018-05-03T08:33:00.000Z</time>
      </trkpt>
      <trkpt lat="43.77987" lon="7.11901">
        <ele>747</ele>
        <time>2018-05-03T08:33:02.000Z</time>
      </trkpt>
      <trkpt lat="43.77985" lon="7.11899">
        <ele>747</ele>
        <time>2018-05-03T08:33:04.000Z</time>
      </trkpt>
      <trkpt lat="43.7798" lon="7.11897">
        <ele>746</ele>
        <time>2018-05-03T08:33:07.000Z</time>
      </trkpt>
      <trkpt lat="43.77975" lon="7.11897">
        <ele>746</ele>
        <time>2018-05-03T08:33:12.000Z</time>
      </trkpt>
      <trkpt lat="43.77974" lon="7.11898">
        <ele>746</ele>
        <time>2018-05-03T08:33:15.000Z</time>
      </trkpt>
      <trkpt lat="43.77974" lon="7.11897">
        <ele>746</ele>
        <time>2018-05-03T08:33:17.000Z</time>
      </trkpt>
      <trkpt lat="43.77971" lon="7.11892">
        <ele>746</ele>
        <time>2018-05-03T08:33:21.000Z</time>
      </trkpt>
      <trkpt lat="43.7797" lon="7.11892">
        <ele>746</ele>
        <time>2018-05-03T08:33:22.000Z</time>
      </trkpt>
      <trkpt lat="43.7796" lon="7.11891">
        <ele>746</ele>
        <time>2018-05-03T08:33:28.000Z</time>
      </trkpt>
      <trkpt lat="43.77955" lon="7.1189">
        <ele>746</ele>
        <time>2018-05-03T08:33:31.000Z</time>
      </trkpt>
      <trkpt lat="43.77952" lon="7.11887">
        <ele>746</ele>
        <time>2018-05-03T08:33:33.000Z</time>
      </trkpt>
      <trkpt lat="43.7795" lon="7.11884">
        <ele>746</ele>
        <time>2018-05-03T08:33:37.000Z</time>
      </trkpt>
      <trkpt lat="43.7795" lon="7.11884">
        <ele>746</ele>
        <time>2018-05-03T08:33:38.000Z</time>
      </trkpt>
      <trkpt lat="43.77947" lon="7.11881">
        <ele>745</ele>
        <time>2018-05-03T08:33:44.000Z</time>
      </trkpt>
      <trkpt lat="43.77941" lon="7.11874">
        <ele>745</ele>
        <time>2018-05-03T08:33:51.000Z</time>
      </trkpt>
      <trkpt lat="43.77938" lon="7.11872">
        <ele>745</ele>
        <time>2018-05-03T08:33:56.000Z</time>
      </trkpt>
      <trkpt lat="43.77936" lon="7.1187">
        <ele>745</ele>
        <time>2018-05-03T08:33:57.000Z</time>
      </trkpt>
      <trkpt lat="43.77933" lon="7.11862">
        <ele>744</ele>
        <time>2018-05-03T08:34:00.000Z</time>
      </trkpt>
      <trkpt lat="43.77925" lon="7.1185">
        <ele>744</ele>
        <time>2018-05-03T08:34:04.000Z</time>
      </trkpt>
      <trkpt lat="43.77921" lon="7.11847">
        <ele>743</ele>
        <time>2018-05-03T08:34:05.000Z</time>
      </trkpt>
      <trkpt lat="43.77911" lon="7.11841">
        <ele>744</ele>
        <time>2018-05-03T08:34:08.000Z</time>
      </trkpt>
      <trkpt lat="43.779" lon="7.11827">
        <ele>741</ele>
        <time>2018-05-03T08:34:12.000Z</time>
      </trkpt>
      <trkpt lat="43.77895" lon="7.11818">
        <ele>740</ele>
        <time>2018-05-03T08:34:14.000Z</time>
      </trkpt>
      <trkpt lat="43.77889" lon="7.11806">
        <ele>740</ele>
        <time>2018-05-03T08:34:16.000Z</time>
      </trkpt>
      <trkpt lat="43.77885" lon="7.11801">
        <ele>740</ele>
        <time>2018-05-03T08:34:17.000Z</time>
      </trkpt>
      <trkpt lat="43.77878" lon="7.11795">
        <ele>740</ele>
        <time>2018-05-03T08:34:19.000Z</time>
      </trkpt>
      <trkpt lat="43.77876" lon="7.11793">
        <ele>740</ele>
        <time>2018-05-03T08:34:20.000Z</time>
      </trkpt>
      <trkpt lat="43.77875" lon="7.11789">
        <ele>739</ele>
        <time>2018-05-03T08:34:23.000Z</time>
      </trkpt>
      <trkpt lat="43.77867" lon="7.11779">
        <ele>739</ele>
        <time>2018-05-03T08:34:26.000Z</time>
      </trkpt>
      <trkpt lat="43.77856" lon="7.11768">
        <ele>739</ele>
        <time>2018-05-03T08:34:29.000Z</time>
      </trkpt>
      <trkpt lat="43.77852" lon="7.11764">
        <ele>739</ele>
        <time>2018-05-03T08:34:30.000Z</time>
      </trkpt>
      <trkpt lat="43.77848" lon="7.11759">
        <ele>739</ele>
        <time>2018-05-03T08:34:31.000Z</time>
      </trkpt>
      <trkpt lat="43.77844" lon="7.11756">
        <ele>738</ele>
        <time>2018-05-03T08:34:32.000Z</time>
      </trkpt>
      <trkpt lat="43.77834" lon="7.11746">
        <ele>737</ele>
        <time>2018-05-03T08:34:35.000Z</time>
      </trkpt>
      <trkpt lat="43.77832" lon="7.11742">
        <ele>737</ele>
        <time>2018-05-03T08:34:36.000Z</time>
      </trkpt>
      <trkpt lat="43.7783" lon="7.11734">
        <ele>736</ele>
        <time>2018-05-03T08:34:38.000Z</time>
      </trkpt>
      <trkpt lat="43.77825" lon="7.11714">
        <ele>735</ele>
        <time>2018-05-03T08:34:42.000Z</time>
      </trkpt>
      <trkpt lat="43.77825" lon="7.1171">
        <ele>735</ele>
        <time>2018-05-03T08:34:43.000Z</time>
      </trkpt>
      <trkpt lat="43.77828" lon="7.11708">
        <ele>735</ele>
        <time>2018-05-03T08:34:45.000Z</time>
      </trkpt>
      <trkpt lat="43.77827" lon="7.11707">
        <ele>735</ele>
        <time>2018-05-03T08:34:47.000Z</time>
      </trkpt>
      <trkpt lat="43.77827" lon="7.11707">
        <ele>735</ele>
        <time>2018-05-03T08:34:49.000Z</time>
      </trkpt>
      <trkpt lat="43.77826" lon="7.11706">
        <ele>735</ele>
        <time>2018-05-03T08:34:56.000Z</time>
      </trkpt>
      <trkpt lat="43.77825" lon="7.11706">
        <ele>735</ele>
        <time>2018-05-03T08:35:01.000Z</time>
      </trkpt>
      <trkpt lat="43.77827" lon="7.11706">
        <ele>735</ele>
        <time>2018-05-03T08:35:05.000Z</time>
      </trkpt>
      <trkpt lat="43.77831" lon="7.11708">
        <ele>735</ele>
        <time>2018-05-03T08:35:07.000Z</time>
      </trkpt>
      <trkpt lat="43.77839" lon="7.11707">
        <ele>732</ele>
        <time>2018-05-03T08:35:10.000Z</time>
      </trkpt>
      <trkpt lat="43.77841" lon="7.11706">
        <ele>732</ele>
        <time>2018-05-03T08:35:11.000Z</time>
      </trkpt>
      <trkpt lat="43.77847" lon="7.11704">
        <ele>732</ele>
        <time>2018-05-03T08:35:13.000Z</time>
      </trkpt>
      <trkpt lat="43.77855" lon="7.11703">
        <ele>731</ele>
        <time>2018-05-03T08:35:15.000Z</time>
      </trkpt>
      <trkpt lat="43.7786" lon="7.11702">
        <ele>731</ele>
        <time>2018-05-03T08:35:16.000Z</time>
      </trkpt>
      <trkpt lat="43.77864" lon="7.117">
        <ele>731</ele>
        <time>2018-05-03T08:35:17.000Z</time>
      </trkpt>
      <trkpt lat="43.77873" lon="7.11693">
        <ele>730</ele>
        <time>2018-05-03T08:35:19.000Z</time>
      </trkpt>
      <trkpt lat="43.77881" lon="7.1169">
        <ele>729</ele>
        <time>2018-05-03T08:35:21.000Z</time>
      </trkpt>
      <trkpt lat="43.77889" lon="7.11685">
        <ele>728</ele>
        <time>2018-05-03T08:35:23.000Z</time>
      </trkpt>
      <trkpt lat="43.779" lon="7.11674">
        <ele>725</ele>
        <time>2018-05-03T08:35:26.000Z</time>
      </trkpt>
      <trkpt lat="43.77905" lon="7.11669">
        <ele>723</ele>
        <time>2018-05-03T08:35:27.000Z</time>
      </trkpt>
      <trkpt lat="43.77908" lon="7.11666">
        <ele>720</ele>
        <time>2018-05-03T08:35:28.000Z</time>
      </trkpt>
      <trkpt lat="43.77911" lon="7.11663">
        <ele>720</ele>
        <time>2018-05-03T08:35:29.000Z</time>
      </trkpt>
      <trkpt lat="43.77915" lon="7.11658">
        <ele>720</ele>
        <time>2018-05-03T08:35:30.000Z</time>
      </trkpt>
      <trkpt lat="43.77919" lon="7.11654">
        <ele>715</ele>
        <time>2018-05-03T08:35:31.000Z</time>
      </trkpt>
      <trkpt lat="43.77923" lon="7.1165">
        <ele>714</ele>
        <time>2018-05-03T08:35:32.000Z</time>
      </trkpt>
      <trkpt lat="43.77931" lon="7.11647">
        <ele>713</ele>
        <time>2018-05-03T08:35:34.000Z</time>
      </trkpt>
      <trkpt lat="43.77935" lon="7.11648">
        <ele>712</ele>
        <time>2018-05-03T08:35:35.000Z</time>
      </trkpt>
      <trkpt lat="43.77938" lon="7.11646">
        <ele>712</ele>
        <time>2018-05-03T08:35:36.000Z</time>
      </trkpt>
      <trkpt lat="43.77944" lon="7.11636">
        <ele>710</ele>
        <time>2018-05-03T08:35:38.000Z</time>
      </trkpt>
      <trkpt lat="43.77948" lon="7.11635">
        <ele>710</ele>
        <time>2018-05-03T08:35:39.000Z</time>
      </trkpt>
      <trkpt lat="43.77956" lon="7.11636">
        <ele>710</ele>
        <time>2018-05-03T08:35:41.000Z</time>
      </trkpt>
      <trkpt lat="43.77959" lon="7.11635">
        <ele>709</ele>
        <time>2018-05-03T08:35:43.000Z</time>
      </trkpt>
      <trkpt lat="43.7796" lon="7.11633">
        <ele>709</ele>
        <time>2018-05-03T08:35:44.000Z</time>
      </trkpt>
      <trkpt lat="43.77963" lon="7.11627">
        <ele>708</ele>
        <time>2018-05-03T08:35:47.000Z</time>
      </trkpt>
      <trkpt lat="43.77965" lon="7.11627">
        <ele>708</ele>
        <time>2018-05-03T08:35:48.000Z</time>
      </trkpt>
      <trkpt lat="43.77965" lon="7.11627">
        <ele>708</ele>
        <time>2018-05-03T08:35:50.000Z</time>
      </trkpt>
      <trkpt lat="43.7797" lon="7.11626">
        <ele>708</ele>
        <time>2018-05-03T08:35:52.000Z</time>
      </trkpt>
      <trkpt lat="43.77974" lon="7.11623">
        <ele>707</ele>
        <time>2018-05-03T08:35:54.000Z</time>
      </trkpt>
      <trkpt lat="43.77976" lon="7.11622">
        <ele>707</ele>
        <time>2018-05-03T08:35:55.000Z</time>
      </trkpt>
      <trkpt lat="43.77978" lon="7.11622">
        <ele>707</ele>
        <time>2018-05-03T08:35:56.000Z</time>
      </trkpt>
      <trkpt lat="43.7798" lon="7.11623">
        <ele>707</ele>
        <time>2018-05-03T08:35:57.000Z</time>
      </trkpt>
      <trkpt lat="43.77985" lon="7.11617">
        <ele>706</ele>
        <time>2018-05-03T08:36:00.000Z</time>
      </trkpt>
      <trkpt lat="43.77989" lon="7.11611">
        <ele>704</ele>
        <time>2018-05-03T08:36:02.000Z</time>
      </trkpt>
      <trkpt lat="43.77991" lon="7.11607">
        <ele>703</ele>
        <time>2018-05-03T08:36:03.000Z</time>
      </trkpt>
      <trkpt lat="43.77995" lon="7.11605">
        <ele>703</ele>
        <time>2018-05-03T08:36:04.000Z</time>
      </trkpt>
      <trkpt lat="43.77997" lon="7.11602">
        <ele>702</ele>
        <time>2018-05-03T08:36:05.000Z</time>
      </trkpt>
      <trkpt lat="43.78003" lon="7.11595">
        <ele>696</ele>
        <time>2018-05-03T08:36:08.000Z</time>
      </trkpt>
      <trkpt lat="43.78003" lon="7.11592">
        <ele>695</ele>
        <time>2018-05-03T08:36:09.000Z</time>
      </trkpt>
      <trkpt lat="43.78003" lon="7.11588">
        <ele>695</ele>
        <time>2018-05-03T08:36:10.000Z</time>
      </trkpt>
      <trkpt lat="43.78007" lon="7.11585">
        <ele>695</ele>
        <time>2018-05-03T08:36:12.000Z</time>
      </trkpt>
      <trkpt lat="43.78009" lon="7.11585">
        <ele>695</ele>
        <time>2018-05-03T08:36:13.000Z</time>
      </trkpt>
      <trkpt lat="43.78011" lon="7.11584">
        <ele>695</ele>
        <time>2018-05-03T08:36:14.000Z</time>
      </trkpt>
      <trkpt lat="43.78015" lon="7.11579">
        <ele>687</ele>
        <time>2018-05-03T08:36:16.000Z</time>
      </trkpt>
      <trkpt lat="43.78016" lon="7.11575">
        <ele>686</ele>
        <time>2018-05-03T08:36:17.000Z</time>
      </trkpt>
      <trkpt lat="43.78018" lon="7.11573">
        <ele>685</ele>
        <time>2018-05-03T08:36:18.000Z</time>
      </trkpt>
      <trkpt lat="43.78021" lon="7.1157">
        <ele>684</ele>
        <time>2018-05-03T08:36:20.000Z</time>
      </trkpt>
      <trkpt lat="43.7802" lon="7.1157">
        <ele>685</ele>
        <time>2018-05-03T08:36:21.000Z</time>
      </trkpt>
      <trkpt lat="43.78021" lon="7.11569">
        <ele>684</ele>
        <time>2018-05-03T08:36:22.000Z</time>
      </trkpt>
      <trkpt lat="43.78021" lon="7.11569">
        <ele>684</ele>
        <time>2018-05-03T08:36:24.000Z</time>
      </trkpt>
      <trkpt lat="43.78023" lon="7.11568">
        <ele>684</ele>
        <time>2018-05-03T08:36:30.000Z</time>
      </trkpt>
      <trkpt lat="43.78024" lon="7.11567">
        <ele>683</ele>
        <time>2018-05-03T08:36:31.000Z</time>
      </trkpt>
      <trkpt lat="43.78028" lon="7.11564">
        <ele>683</ele>
        <time>2018-05-03T08:36:34.000Z</time>
      </trkpt>
      <trkpt lat="43.7803" lon="7.11563">
        <ele>682</ele>
        <time>2018-05-03T08:36:35.000Z</time>
      </trkpt>
      <trkpt lat="43.78041" lon="7.11556">
        <ele>680</ele>
        <time>2018-05-03T08:36:38.000Z</time>
      </trkpt>
      <trkpt lat="43.78048" lon="7.11557">
        <ele>680</ele>
        <time>2018-05-03T08:36:40.000Z</time>
      </trkpt>
      <trkpt lat="43.78051" lon="7.11556">
        <ele>680</ele>
        <time>2018-05-03T08:36:41.000Z</time>
      </trkpt>
      <trkpt lat="43.78055" lon="7.11555">
        <ele>680</ele>
        <time>2018-05-03T08:36:42.000Z</time>
      </trkpt>
      <trkpt lat="43.78064" lon="7.11555">
        <ele>679</ele>
        <time>2018-05-03T08:36:44.000Z</time>
      </trkpt>
      <trkpt lat="43.78069" lon="7.11554">
        <ele>679</ele>
        <time>2018-05-03T08:36:45.000Z</time>
      </trkpt>
      <trkpt lat="43.78074" lon="7.11553">
        <ele>679</ele>
        <time>2018-05-03T08:36:46.000Z</time>
      </trkpt>
      <trkpt lat="43.78083" lon="7.11553">
        <ele>679</ele>
        <time>2018-05-03T08:36:48.000Z</time>
      </trkpt>
      <trkpt lat="43.78088" lon="7.11552">
        <ele>673</ele>
        <time>2018-05-03T08:36:50.000Z</time>
      </trkpt>
      <trkpt lat="43.78092" lon="7.11547">
        <ele>671</ele>
        <time>2018-05-03T08:36:52.000Z</time>
      </trkpt>
      <trkpt lat="43.78096" lon="7.11544">
        <ele>670</ele>
        <time>2018-05-03T08:36:53.000Z</time>
      </trkpt>
      <trkpt lat="43.78103" lon="7.11542">
        <ele>670</ele>
        <time>2018-05-03T08:36:55.000Z</time>
      </trkpt>
      <trkpt lat="43.78107" lon="7.11541">
        <ele>669</ele>
        <time>2018-05-03T08:36:57.000Z</time>
      </trkpt>
      <trkpt lat="43.78108" lon="7.11539">
        <ele>669</ele>
        <time>2018-05-03T08:36:59.000Z</time>
      </trkpt>
      <trkpt lat="43.78111" lon="7.11537">
        <ele>669</ele>
        <time>2018-05-03T08:37:01.000Z</time>
      </trkpt>
      <trkpt lat="43.78114" lon="7.11536">
        <ele>668</ele>
        <time>2018-05-03T08:37:03.000Z</time>
      </trkpt>
      <trkpt lat="43.78116" lon="7.11535">
        <ele>668</ele>
        <time>2018-05-03T08:37:06.000Z</time>
      </trkpt>
      <trkpt lat="43.78118" lon="7.11533">
        <ele>668</ele>
        <time>2018-05-03T08:37:08.000Z</time>
      </trkpt>
      <trkpt lat="43.78121" lon="7.11531">
        <ele>668</ele>
        <time>2018-05-03T08:37:10.000Z</time>
      </trkpt>
      <trkpt lat="43.78122" lon="7.1153">
        <ele>668</ele>
        <time>2018-05-03T08:37:11.000Z</time>
      </trkpt>
      <trkpt lat="43.78125" lon="7.11525">
        <ele>667</ele>
        <time>2018-05-03T08:37:15.000Z</time>
      </trkpt>
      <trkpt lat="43.78126" lon="7.11524">
        <ele>667</ele>
        <time>2018-05-03T08:37:16.000Z</time>
      </trkpt>
      <trkpt lat="43.78128" lon="7.11522">
        <ele>666</ele>
        <time>2018-05-03T08:37:17.000Z</time>
      </trkpt>
      <trkpt lat="43.78131" lon="7.11522">
        <ele>666</ele>
        <time>2018-05-03T08:37:18.000Z</time>
      </trkpt>
      <trkpt lat="43.78134" lon="7.11525">
        <ele>666</ele>
        <time>2018-05-03T08:37:20.000Z</time>
      </trkpt>
      <trkpt lat="43.78138" lon="7.11527">
        <ele>666</ele>
        <time>2018-05-03T08:37:22.000Z</time>
      </trkpt>
      <trkpt lat="43.7814" lon="7.1153">
        <ele>666</ele>
        <time>2018-05-03T08:37:23.000Z</time>
      </trkpt>
      <trkpt lat="43.78143" lon="7.11534">
        <ele>667</ele>
        <time>2018-05-03T08:37:24.000Z</time>
      </trkpt>
      <trkpt lat="43.78151" lon="7.11544">
        <ele>667</ele>
        <time>2018-05-03T08:37:27.000Z</time>
      </trkpt>
      <trkpt lat="43.78154" lon="7.11551">
        <ele>668</ele>
        <time>2018-05-03T08:37:29.000Z</time>
      </trkpt>
      <trkpt lat="43.78156" lon="7.11554">
        <ele>668</ele>
        <time>2018-05-03T08:37:31.000Z</time>
      </trkpt>
      <trkpt lat="43.78158" lon="7.11557">
        <ele>668</ele>
        <time>2018-05-03T08:37:33.000Z</time>
      </trkpt>
      <trkpt lat="43.78161" lon="7.11562">
        <ele>668</ele>
        <time>2018-05-03T08:37:38.000Z</time>
      </trkpt>
      <trkpt lat="43.78163" lon="7.11564">
        <ele>668</ele>
        <time>2018-05-03T08:37:46.000Z</time>
      </trkpt>
      <trkpt lat="43.78165" lon="7.11565">
        <ele>669</ele>
        <time>2018-05-03T08:37:48.000Z</time>
      </trkpt>
      <trkpt lat="43.78173" lon="7.11573">
        <ele>670</ele>
        <time>2018-05-03T08:37:52.000Z</time>
      </trkpt>
      <trkpt lat="43.78189" lon="7.11585">
        <ele>674</ele>
        <time>2018-05-03T08:37:58.000Z</time>
      </trkpt>
      <trkpt lat="43.78199" lon="7.11586">
        <ele>675</ele>
        <time>2018-05-03T08:38:01.000Z</time>
      </trkpt>
      <trkpt lat="43.782" lon="7.11585">
        <ele>675</ele>
        <time>2018-05-03T08:38:02.000Z</time>
      </trkpt>
      <trkpt lat="43.78201" lon="7.11578">
        <ele>671</ele>
        <time>2018-05-03T08:38:06.000Z</time>
      </trkpt>
      <trkpt lat="43.78201" lon="7.11573">
        <ele>671</ele>
        <time>2018-05-03T08:38:09.000Z</time>
      </trkpt>
      <trkpt lat="43.78204" lon="7.1157">
        <ele>671</ele>
        <time>2018-05-03T08:38:11.000Z</time>
      </trkpt>
      <trkpt lat="43.78206" lon="7.11567">
        <ele>671</ele>
        <time>2018-05-03T08:38:14.000Z</time>
      </trkpt>
      <trkpt lat="43.78207" lon="7.11562">
        <ele>672</ele>
        <time>2018-05-03T08:38:16.000Z</time>
      </trkpt>
      <trkpt lat="43.78207" lon="7.11557">
        <ele>671</ele>
        <time>2018-05-03T08:38:18.000Z</time>
      </trkpt>
      <trkpt lat="43.78208" lon="7.11552">
        <ele>672</ele>
        <time>2018-05-03T08:38:20.000Z</time>
      </trkpt>
      <trkpt lat="43.7821" lon="7.1155">
        <ele>672</ele>
        <time>2018-05-03T08:38:21.000Z</time>
      </trkpt>
      <trkpt lat="43.78213" lon="7.11546">
        <ele>672</ele>
        <time>2018-05-03T08:38:25.000Z</time>
      </trkpt>
      <trkpt lat="43.78211" lon="7.11543">
        <ele>672</ele>
        <time>2018-05-03T08:38:30.000Z</time>
      </trkpt>
      <trkpt lat="43.7821" lon="7.11537">
        <ele>672</ele>
        <time>2018-05-03T08:38:37.000Z</time>
      </trkpt>
      <trkpt lat="43.78211" lon="7.11534">
        <ele>672</ele>
        <time>2018-05-03T08:38:39.000Z</time>
      </trkpt>
      <trkpt lat="43.7821" lon="7.11532">
        <ele>672</ele>
        <time>2018-05-03T08:38:44.000Z</time>
      </trkpt>
      <trkpt lat="43.78208" lon="7.11528">
        <ele>671</ele>
        <time>2018-05-03T08:38:52.000Z</time>
      </trkpt>
      <trkpt lat="43.78206" lon="7.11525">
        <ele>671</ele>
        <time>2018-05-03T08:38:58.000Z</time>
      </trkpt>
      <trkpt lat="43.78202" lon="7.11518">
        <ele>670</ele>
        <time>2018-05-03T08:39:02.000Z</time>
      </trkpt>
      <trkpt lat="43.78198" lon="7.11505">
        <ele>669</ele>
        <time>2018-05-03T08:39:05.000Z</time>
      </trkpt>
      <trkpt lat="43.78195" lon="7.11494">
        <ele>670</ele>
        <time>2018-05-03T08:39:09.000Z</time>
      </trkpt>
      <trkpt lat="43.78189" lon="7.1148">
        <ele>669</ele>
        <time>2018-05-03T08:39:13.000Z</time>
      </trkpt>
      <trkpt lat="43.78187" lon="7.11472">
        <ele>670</ele>
        <time>2018-05-03T08:39:16.000Z</time>
      </trkpt>
      <trkpt lat="43.78187" lon="7.11471">
        <ele>670</ele>
        <time>2018-05-03T08:39:17.000Z</time>
      </trkpt>
      <trkpt lat="43.78183" lon="7.11458">
        <ele>670</ele>
        <time>2018-05-03T08:39:21.000Z</time>
      </trkpt>
      <trkpt lat="43.78182" lon="7.11447">
        <ele>669</ele>
        <time>2018-05-03T08:39:25.000Z</time>
      </trkpt>
      <trkpt lat="43.78181" lon="7.11436">
        <ele>668</ele>
        <time>2018-05-03T08:39:30.000Z</time>
      </trkpt>
      <trkpt lat="43.7818" lon="7.11431">
        <ele>667</ele>
        <time>2018-05-03T08:39:35.000Z</time>
      </trkpt>
      <trkpt lat="43.78179" lon="7.11426">
        <ele>666</ele>
        <time>2018-05-03T08:39:40.000Z</time>
      </trkpt>
      <trkpt lat="43.78179" lon="7.11424">
        <ele>665</ele>
        <time>2018-05-03T08:39:41.000Z</time>
      </trkpt>
      <trkpt lat="43.78178" lon="7.11423">
        <ele>665</ele>
        <time>2018-05-03T08:39:43.000Z</time>
      </trkpt>
      <trkpt lat="43.78177" lon="7.11418">
        <ele>664</ele>
        <time>2018-05-03T08:39:45.000Z</time>
      </trkpt>
      <trkpt lat="43.78174" lon="7.11407">
        <ele>668</ele>
        <time>2018-05-03T08:39:50.000Z</time>
      </trkpt>
      <trkpt lat="43.78167" lon="7.11395">
        <ele>672</ele>
        <time>2018-05-03T08:39:54.000Z</time>
      </trkpt>
      <trkpt lat="43.78166" lon="7.11391">
        <ele>656</ele>
        <time>2018-05-03T08:39:58.000Z</time>
      </trkpt>
      <trkpt lat="43.78166" lon="7.11385">
        <ele>657</ele>
        <time>2018-05-03T08:40:03.000Z</time>
      </trkpt>
      <trkpt lat="43.78165" lon="7.1138">
        <ele>657</ele>
        <time>2018-05-03T08:40:07.000Z</time>
      </trkpt>
      <trkpt lat="43.78164" lon="7.11378">
        <ele>657</ele>
        <time>2018-05-03T08:40:08.000Z</time>
      </trkpt>
      <trkpt lat="43.78159" lon="7.11369">
        <ele>658</ele>
        <time>2018-05-03T08:40:12.000Z</time>
      </trkpt>
      <trkpt lat="43.78155" lon="7.11362">
        <ele>658</ele>
        <time>2018-05-03T08:40:16.000Z</time>
      </trkpt>
      <trkpt lat="43.78152" lon="7.11356">
        <ele>659</ele>
        <time>2018-05-03T08:40:18.000Z</time>
      </trkpt>
      <trkpt lat="43.78149" lon="7.11349">
        <ele>660</ele>
        <time>2018-05-03T08:40:22.000Z</time>
      </trkpt>
      <trkpt lat="43.78145" lon="7.11337">
        <ele>660</ele>
        <time>2018-05-03T08:40:28.000Z</time>
      </trkpt>
      <trkpt lat="43.7814" lon="7.11325">
        <ele>661</ele>
        <time>2018-05-03T08:40:33.000Z</time>
      </trkpt>
      <trkpt lat="43.78139" lon="7.11324">
        <ele>661</ele>
        <time>2018-05-03T08:40:34.000Z</time>
      </trkpt>
      <trkpt lat="43.78135" lon="7.11316">
        <ele>660</ele>
        <time>2018-05-03T08:40:37.000Z</time>
      </trkpt>
      <trkpt lat="43.78128" lon="7.11298">
        <ele>658</ele>
        <time>2018-05-03T08:40:42.000Z</time>
      </trkpt>
      <trkpt lat="43.78127" lon="7.11293">
        <ele>658</ele>
        <time>2018-05-03T08:40:43.000Z</time>
      </trkpt>
      <trkpt lat="43.78124" lon="7.11287">
        <ele>658</ele>
        <time>2018-05-03T08:40:45.000Z</time>
      </trkpt>
      <trkpt lat="43.7812" lon="7.1128">
        <ele>657</ele>
        <time>2018-05-03T08:40:47.000Z</time>
      </trkpt>
      <trkpt lat="43.7812" lon="7.11276">
        <ele>657</ele>
        <time>2018-05-03T08:40:48.000Z</time>
      </trkpt>
      <trkpt lat="43.78121" lon="7.1127">
        <ele>657</ele>
        <time>2018-05-03T08:40:50.000Z</time>
      </trkpt>
      <trkpt lat="43.78121" lon="7.11267">
        <ele>657</ele>
        <time>2018-05-03T08:40:51.000Z</time>
      </trkpt>
      <trkpt lat="43.78121" lon="7.11258">
        <ele>657</ele>
        <time>2018-05-03T08:40:54.000Z</time>
      </trkpt>
      <trkpt lat="43.78123" lon="7.11245">
        <ele>657</ele>
        <time>2018-05-03T08:40:57.000Z</time>
      </trkpt>
      <trkpt lat="43.78123" lon="7.11243">
        <ele>657</ele>
        <time>2018-05-03T08:40:58.000Z</time>
      </trkpt>
      <trkpt lat="43.78128" lon="7.11217">
        <ele>658</ele>
        <time>2018-05-03T08:41:06.000Z</time>
      </trkpt>
      <trkpt lat="43.78135" lon="7.11202">
        <ele>658</ele>
        <time>2018-05-03T08:41:11.000Z</time>
      </trkpt>
      <trkpt lat="43.78137" lon="7.11198">
        <ele>658</ele>
        <time>2018-05-03T08:41:13.000Z</time>
      </trkpt>
      <trkpt lat="43.78139" lon="7.11195">
        <ele>659</ele>
        <time>2018-05-03T08:41:15.000Z</time>
      </trkpt>
      <trkpt lat="43.78138" lon="7.11195">
        <ele>659</ele>
        <time>2018-05-03T08:41:16.000Z</time>
      </trkpt>
      <trkpt lat="43.78139" lon="7.11195">
        <ele>659</ele>
        <time>2018-05-03T08:41:17.000Z</time>
      </trkpt>
      <trkpt lat="43.78143" lon="7.11192">
        <ele>660</ele>
        <time>2018-05-03T08:41:22.000Z</time>
      </trkpt>
      <trkpt lat="43.78144" lon="7.11191">
        <ele>660</ele>
        <time>2018-05-03T08:41:23.000Z</time>
      </trkpt>
      <trkpt lat="43.78145" lon="7.1119">
        <ele>660</ele>
        <time>2018-05-03T08:41:24.000Z</time>
      </trkpt>
      <trkpt lat="43.78147" lon="7.11185">
        <ele>661</ele>
        <time>2018-05-03T08:41:27.000Z</time>
      </trkpt>
      <trkpt lat="43.78148" lon="7.11184">
        <ele>661</ele>
        <time>2018-05-03T08:41:28.000Z</time>
      </trkpt>
      <trkpt lat="43.78151" lon="7.11178">
        <ele>662</ele>
        <time>2018-05-03T08:41:31.000Z</time>
      </trkpt>
      <trkpt lat="43.78153" lon="7.11174">
        <ele>663</ele>
        <time>2018-05-03T08:41:33.000Z</time>
      </trkpt>
      <trkpt lat="43.7816" lon="7.11164">
        <ele>662</ele>
        <time>2018-05-03T08:41:39.000Z</time>
      </trkpt>
      <trkpt lat="43.78164" lon="7.11159">
        <ele>661</ele>
        <time>2018-05-03T08:41:42.000Z</time>
      </trkpt>
      <trkpt lat="43.78168" lon="7.11154">
        <ele>670</ele>
        <time>2018-05-03T08:41:45.000Z</time>
      </trkpt>
      <trkpt lat="43.78172" lon="7.11149">
        <ele>670</ele>
        <time>2018-05-03T08:41:49.000Z</time>
      </trkpt>
      <trkpt lat="43.78174" lon="7.11148">
        <ele>671</ele>
        <time>2018-05-03T08:41:51.000Z</time>
      </trkpt>
      <trkpt lat="43.78175" lon="7.11148">
        <ele>671</ele>
        <time>2018-05-03T08:41:57.000Z</time>
      </trkpt>
      <trkpt lat="43.78178" lon="7.11144">
        <ele>671</ele>
        <time>2018-05-03T08:42:04.000Z</time>
      </trkpt>
      <trkpt lat="43.78178" lon="7.11144">
        <ele>671</ele>
        <time>2018-05-03T08:42:06.000Z</time>
      </trkpt>
      <trkpt lat="43.78182" lon="7.11139">
        <ele>671</ele>
        <time>2018-05-03T08:42:11.000Z</time>
      </trkpt>
      <trkpt lat="43.78188" lon="7.11129">
        <ele>671</ele>
        <time>2018-05-03T08:42:18.000Z</time>
      </trkpt>
      <trkpt lat="43.78194" lon="7.11127">
        <ele>672</ele>
        <time>2018-05-03T08:42:23.000Z</time>
      </trkpt>
      <trkpt lat="43.78195" lon="7.11126">
        <ele>672</ele>
        <time>2018-05-03T08:42:24.000Z</time>
      </trkpt>
      <trkpt lat="43.78199" lon="7.11122">
        <ele>672</ele>
        <time>2018-05-03T08:42:28.000Z</time>
      </trkpt>
      <trkpt lat="43.78201" lon="7.1112">
        <ele>672</ele>
        <time>2018-05-03T08:42:31.000Z</time>
      </trkpt>
      <trkpt lat="43.78203" lon="7.11117">
        <ele>672</ele>
        <time>2018-05-03T08:42:33.000Z</time>
      </trkpt>
      <trkpt lat="43.78203" lon="7.11118">
        <ele>672</ele>
        <time>2018-05-03T08:42:35.000Z</time>
      </trkpt>
      <trkpt lat="43.78205" lon="7.11116">
        <ele>672</ele>
        <time>2018-05-03T08:42:40.000Z</time>
      </trkpt>
      <trkpt lat="43.78208" lon="7.11111">
        <ele>672</ele>
        <time>2018-05-03T08:42:44.000Z</time>
      </trkpt>
      <trkpt lat="43.78208" lon="7.11111">
        <ele>672</ele>
        <time>2018-05-03T08:42:45.000Z</time>
      </trkpt>
      <trkpt lat="43.78211" lon="7.11106">
        <ele>672</ele>
        <time>2018-05-03T08:42:50.000Z</time>
      </trkpt>
      <trkpt lat="43.78217" lon="7.11096">
        <ele>673</ele>
        <time>2018-05-03T08:42:56.000Z</time>
      </trkpt>
      <trkpt lat="43.78219" lon="7.11096">
        <ele>674</ele>
        <time>2018-05-03T08:42:57.000Z</time>
      </trkpt>
      <trkpt lat="43.7822" lon="7.11095">
        <ele>674</ele>
        <time>2018-05-03T08:43:00.000Z</time>
      </trkpt>
      <trkpt lat="43.78221" lon="7.11095">
        <ele>674</ele>
        <time>2018-05-03T08:43:01.000Z</time>
      </trkpt>
      <trkpt lat="43.78222" lon="7.11094">
        <ele>674</ele>
        <time>2018-05-03T08:43:05.000Z</time>
      </trkpt>
      <trkpt lat="43.78223" lon="7.11092">
        <ele>674</ele>
        <time>2018-05-03T08:43:11.000Z</time>
      </trkpt>
      <trkpt lat="43.78224" lon="7.11091">
        <ele>675</ele>
        <time>2018-05-03T08:43:12.000Z</time>
      </trkpt>
      <trkpt lat="43.78227" lon="7.11087">
        <ele>675</ele>
        <time>2018-05-03T08:43:17.000Z</time>
      </trkpt>
      <trkpt lat="43.78228" lon="7.11083">
        <ele>663</ele>
        <time>2018-05-03T08:43:22.000Z</time>
      </trkpt>
      <trkpt lat="43.7823" lon="7.1108">
        <ele>664</ele>
        <time>2018-05-03T08:43:26.000Z</time>
      </trkpt>
      <trkpt lat="43.78231" lon="7.11077">
        <ele>664</ele>
        <time>2018-05-03T08:43:31.000Z</time>
      </trkpt>
      <trkpt lat="43.78231" lon="7.11075">
        <ele>664</ele>
        <time>2018-05-03T08:43:32.000Z</time>
      </trkpt>
      <trkpt lat="43.78232" lon="7.11069">
        <ele>662</ele>
        <time>2018-05-03T08:43:35.000Z</time>
      </trkpt>
      <trkpt lat="43.78232" lon="7.11066">
        <ele>662</ele>
        <time>2018-05-03T08:43:37.000Z</time>
      </trkpt>
      <trkpt lat="43.78233" lon="7.11064">
        <ele>661</ele>
        <time>2018-05-03T08:43:38.000Z</time>
      </trkpt>
      <trkpt lat="43.78234" lon="7.1106">
        <ele>660</ele>
        <time>2018-05-03T08:43:40.000Z</time>
      </trkpt>
      <trkpt lat="43.78236" lon="7.11058">
        <ele>660</ele>
        <time>2018-05-03T08:43:41.000Z</time>
      </trkpt>
      <trkpt lat="43.78238" lon="7.11057">
        <ele>660</ele>
        <time>2018-05-03T08:43:42.000Z</time>
      </trkpt>
      <trkpt lat="43.7824" lon="7.11055">
        <ele>660</ele>
        <time>2018-05-03T08:43:45.000Z</time>
      </trkpt>
      <trkpt lat="43.7824" lon="7.11055">
        <ele>660</ele>
        <time>2018-05-03T08:43:46.000Z</time>
      </trkpt>
      <trkpt lat="43.7824" lon="7.11053">
        <ele>659</ele>
        <time>2018-05-03T08:43:47.000Z</time>
      </trkpt>
      <trkpt lat="43.78241" lon="7.11042">
        <ele>657</ele>
        <time>2018-05-03T08:43:50.000Z</time>
      </trkpt>
      <trkpt lat="43.78241" lon="7.11037">
        <ele>656</ele>
        <time>2018-05-03T08:43:51.000Z</time>
      </trkpt>
      <trkpt lat="43.78244" lon="7.11028">
        <ele>655</ele>
        <time>2018-05-03T08:43:53.000Z</time>
      </trkpt>
      <trkpt lat="43.78246" lon="7.11023">
        <ele>655</ele>
        <time>2018-05-03T08:43:54.000Z</time>
      </trkpt>
      <trkpt lat="43.78248" lon="7.11019">
        <ele>655</ele>
        <time>2018-05-03T08:43:55.000Z</time>
      </trkpt>
      <trkpt lat="43.78251" lon="7.11013">
        <ele>669</ele>
        <time>2018-05-03T08:43:57.000Z</time>
      </trkpt>
      <trkpt lat="43.78252" lon="7.1101">
        <ele>667</ele>
        <time>2018-05-03T08:43:58.000Z</time>
      </trkpt>
      <trkpt lat="43.78255" lon="7.11008">
        <ele>666</ele>
        <time>2018-05-03T08:44:00.000Z</time>
      </trkpt>
      <trkpt lat="43.78255" lon="7.11008">
        <ele>666</ele>
        <time>2018-05-03T08:44:01.000Z</time>
      </trkpt>
      <trkpt lat="43.78257" lon="7.11006">
        <ele>666</ele>
        <time>2018-05-03T08:44:04.000Z</time>
      </trkpt>
      <trkpt lat="43.7826" lon="7.11002">
        <ele>667</ele>
        <time>2018-05-03T08:44:07.000Z</time>
      </trkpt>
      <trkpt lat="43.78266" lon="7.10993">
        <ele>659</ele>
        <time>2018-05-03T08:44:12.000Z</time>
      </trkpt>
      <trkpt lat="43.78266" lon="7.10991">
        <ele>660</ele>
        <time>2018-05-03T08:44:13.000Z</time>
      </trkpt>
      <trkpt lat="43.78272" lon="7.10985">
        <ele>660</ele>
        <time>2018-05-03T08:44:17.000Z</time>
      </trkpt>
      <trkpt lat="43.78275" lon="7.10979">
        <ele>660</ele>
        <time>2018-05-03T08:44:22.000Z</time>
      </trkpt>
      <trkpt lat="43.78277" lon="7.10975">
        <ele>660</ele>
        <time>2018-05-03T08:44:24.000Z</time>
      </trkpt>
      <trkpt lat="43.78281" lon="7.1097">
        <ele>660</ele>
        <time>2018-05-03T08:44:27.000Z</time>
      </trkpt>
      <trkpt lat="43.78281" lon="7.10968">
        <ele>660</ele>
        <time>2018-05-03T08:44:31.000Z</time>
      </trkpt>
      <trkpt lat="43.78285" lon="7.10961">
        <ele>660</ele>
        <time>2018-05-03T08:44:35.000Z</time>
      </trkpt>
      <trkpt lat="43.78292" lon="7.1095">
        <ele>660</ele>
        <time>2018-05-03T08:44:39.000Z</time>
      </trkpt>
      <trkpt lat="43.78297" lon="7.10943">
        <ele>660</ele>
        <time>2018-05-03T08:44:42.000Z</time>
      </trkpt>
      <trkpt lat="43.78299" lon="7.1094">
        <ele>660</ele>
        <time>2018-05-03T08:44:43.000Z</time>
      </trkpt>
      <trkpt lat="43.78304" lon="7.10935">
        <ele>661</ele>
        <time>2018-05-03T08:44:45.000Z</time>
      </trkpt>
      <trkpt lat="43.78307" lon="7.10933">
        <ele>661</ele>
        <time>2018-05-03T08:44:47.000Z</time>
      </trkpt>
      <trkpt lat="43.78309" lon="7.10931">
        <ele>662</ele>
        <time>2018-05-03T08:44:48.000Z</time>
      </trkpt>
      <trkpt lat="43.78315" lon="7.10928">
        <ele>663</ele>
        <time>2018-05-03T08:44:51.000Z</time>
      </trkpt>
      <trkpt lat="43.78316" lon="7.10927">
        <ele>663</ele>
        <time>2018-05-03T08:44:55.000Z</time>
      </trkpt>
      <trkpt lat="43.78316" lon="7.10925">
        <ele>663</ele>
        <time>2018-05-03T08:45:00.000Z</time>
      </trkpt>
      <trkpt lat="43.78317" lon="7.10923">
        <ele>663</ele>
        <time>2018-05-03T08:45:08.000Z</time>
      </trkpt>
      <trkpt lat="43.78321" lon="7.1092">
        <ele>664</ele>
        <time>2018-05-03T08:45:16.000Z</time>
      </trkpt>
      <trkpt lat="43.78322" lon="7.10919">
        <ele>664</ele>
        <time>2018-05-03T08:45:21.000Z</time>
      </trkpt>
      <trkpt lat="43.78324" lon="7.10918">
        <ele>665</ele>
        <time>2018-05-03T08:45:23.000Z</time>
      </trkpt>
      <trkpt lat="43.78328" lon="7.10916">
        <ele>661</ele>
        <time>2018-05-03T08:45:29.000Z</time>
      </trkpt>
      <trkpt lat="43.78327" lon="7.10912">
        <ele>659</ele>
        <time>2018-05-03T08:45:35.000Z</time>
      </trkpt>
      <trkpt lat="43.78326" lon="7.10909">
        <ele>657</ele>
        <time>2018-05-03T08:45:36.000Z</time>
      </trkpt>
      <trkpt lat="43.78325" lon="7.10901">
        <ele>652</ele>
        <time>2018-05-03T08:45:40.000Z</time>
      </trkpt>
      <trkpt lat="43.78324" lon="7.10899">
        <ele>651</ele>
        <time>2018-05-03T08:45:41.000Z</time>
      </trkpt>
      <trkpt lat="43.78325" lon="7.1089">
        <ele>648</ele>
        <time>2018-05-03T08:45:45.000Z</time>
      </trkpt>
      <trkpt lat="43.78329" lon="7.10881">
        <ele>647</ele>
        <time>2018-05-03T08:45:50.000Z</time>
      </trkpt>
      <trkpt lat="43.78333" lon="7.10874">
        <ele>646</ele>
        <time>2018-05-03T08:45:55.000Z</time>
      </trkpt>
      <trkpt lat="43.78334" lon="7.10873">
        <ele>673</ele>
        <time>2018-05-03T08:45:59.000Z</time>
      </trkpt>
      <trkpt lat="43.78339" lon="7.10867">
        <ele>673</ele>
        <time>2018-05-03T08:46:04.000Z</time>
      </trkpt>
      <trkpt lat="43.78341" lon="7.10862">
        <ele>672</ele>
        <time>2018-05-03T08:46:06.000Z</time>
      </trkpt>
      <trkpt lat="43.78343" lon="7.10858">
        <ele>671</ele>
        <time>2018-05-03T08:46:08.000Z</time>
      </trkpt>
      <trkpt lat="43.78346" lon="7.10851">
        <ele>670</ele>
        <time>2018-05-03T08:46:12.000Z</time>
      </trkpt>
      <trkpt lat="43.78348" lon="7.10846">
        <ele>668</ele>
        <time>2018-05-03T08:46:17.000Z</time>
      </trkpt>
      <trkpt lat="43.78348" lon="7.10842">
        <ele>667</ele>
        <time>2018-05-03T08:46:20.000Z</time>
      </trkpt>
      <trkpt lat="43.78349" lon="7.10841">
        <ele>667</ele>
        <time>2018-05-03T08:46:21.000Z</time>
      </trkpt>
      <trkpt lat="43.78354" lon="7.10833">
        <ele>669</ele>
        <time>2018-05-03T08:46:25.000Z</time>
      </trkpt>
      <trkpt lat="43.78355" lon="7.1083">
        <ele>663</ele>
        <time>2018-05-03T08:46:27.000Z</time>
      </trkpt>
      <trkpt lat="43.78356" lon="7.10828">
        <ele>664</ele>
        <time>2018-05-03T08:46:28.000Z</time>
      </trkpt>
      <trkpt lat="43.78357" lon="7.10822">
        <ele>664</ele>
        <time>2018-05-03T08:46:31.000Z</time>
      </trkpt>
      <trkpt lat="43.78357" lon="7.1082">
        <ele>664</ele>
        <time>2018-05-03T08:46:32.000Z</time>
      </trkpt>
      <trkpt lat="43.78357" lon="7.10814">
        <ele>665</ele>
        <time>2018-05-03T08:46:37.000Z</time>
      </trkpt>
      <trkpt lat="43.78356" lon="7.10812">
        <ele>664</ele>
        <time>2018-05-03T08:46:55.000Z</time>
      </trkpt>
      <trkpt lat="43.78357" lon="7.10805">
        <ele>664</ele>
        <time>2018-05-03T08:47:18.000Z</time>
      </trkpt>
      <trkpt lat="43.78359" lon="7.10789">
        <ele>664</ele>
        <time>2018-05-03T08:47:23.000Z</time>
      </trkpt>
      <trkpt lat="43.78361" lon="7.1077">
        <ele>661</ele>
        <time>2018-05-03T08:47:29.000Z</time>
      </trkpt>
      <trkpt lat="43.78368" lon="7.10744">
        <ele>653</ele>
        <time>2018-05-03T08:47:35.000Z</time>
      </trkpt>
      <trkpt lat="43.78369" lon="7.10739">
        <ele>654</ele>
        <time>2018-05-03T08:47:36.000Z</time>
      </trkpt>
      <trkpt lat="43.78374" lon="7.10728">
        <ele>656</ele>
        <time>2018-05-03T08:47:40.000Z</time>
      </trkpt>
      <trkpt lat="43.78383" lon="7.10717">
        <ele>659</ele>
        <time>2018-05-03T08:47:46.000Z</time>
      </trkpt>
      <trkpt lat="43.78389" lon="7.10704">
        <ele>660</ele>
        <time>2018-05-03T08:47:51.000Z</time>
      </trkpt>
      <trkpt lat="43.78398" lon="7.10681">
        <ele>664</ele>
        <time>2018-05-03T08:47:57.000Z</time>
      </trkpt>
      <trkpt lat="43.78402" lon="7.10669">
        <ele>667</ele>
        <time>2018-05-03T08:48:02.000Z</time>
      </trkpt>
      <trkpt lat="43.78403" lon="7.10664">
        <ele>667</ele>
        <time>2018-05-03T08:48:04.000Z</time>
      </trkpt>
      <trkpt lat="43.78406" lon="7.10655">
        <ele>666</ele>
        <time>2018-05-03T08:48:08.000Z</time>
      </trkpt>
      <trkpt lat="43.78406" lon="7.10649">
        <ele>665</ele>
        <time>2018-05-03T08:48:11.000Z</time>
      </trkpt>
      <trkpt lat="43.78406" lon="7.10642">
        <ele>664</ele>
        <time>2018-05-03T08:48:14.000Z</time>
      </trkpt>
      <trkpt lat="43.78407" lon="7.10639">
        <ele>664</ele>
        <time>2018-05-03T08:48:17.000Z</time>
      </trkpt>
      <trkpt lat="43.78407" lon="7.10638">
        <ele>663</ele>
        <time>2018-05-03T08:48:19.000Z</time>
      </trkpt>
      <trkpt lat="43.78407" lon="7.10636">
        <ele>663</ele>
        <time>2018-05-03T08:48:21.000Z</time>
      </trkpt>
      <trkpt lat="43.78406" lon="7.10635">
        <ele>663</ele>
        <time>2018-05-03T08:48:23.000Z</time>
      </trkpt>
      <trkpt lat="43.78407" lon="7.10633">
        <ele>663</ele>
        <time>2018-05-03T08:48:25.000Z</time>
      </trkpt>
      <trkpt lat="43.78408" lon="7.10629">
        <ele>663</ele>
        <time>2018-05-03T08:48:30.000Z</time>
      </trkpt>
      <trkpt lat="43.78408" lon="7.10628">
        <ele>663</ele>
        <time>2018-05-03T08:48:31.000Z</time>
      </trkpt>
      <trkpt lat="43.78407" lon="7.10624">
        <ele>663</ele>
        <time>2018-05-03T08:48:38.000Z</time>
      </trkpt>
      <trkpt lat="43.78408" lon="7.10622">
        <ele>664</ele>
        <time>2018-05-03T08:48:44.000Z</time>
      </trkpt>
      <trkpt lat="43.78409" lon="7.10621">
        <ele>664</ele>
        <time>2018-05-03T08:48:47.000Z</time>
      </trkpt>
      <trkpt lat="43.78409" lon="7.1062">
        <ele>664</ele>
        <time>2018-05-03T08:48:52.000Z</time>
      </trkpt>
      <trkpt lat="43.78409" lon="7.10619">
        <ele>664</ele>
        <time>2018-05-03T08:48:55.000Z</time>
      </trkpt>
      <trkpt lat="43.7841" lon="7.10617">
        <ele>665</ele>
        <time>2018-05-03T08:49:00.000Z</time>
      </trkpt>
      <trkpt lat="43.7841" lon="7.10616">
        <ele>665</ele>
        <time>2018-05-03T08:49:02.000Z</time>
      </trkpt>
      <trkpt lat="43.7841" lon="7.10614">
        <ele>666</ele>
        <time>2018-05-03T08:49:07.000Z</time>
      </trkpt>
      <trkpt lat="43.78409" lon="7.10612">
        <ele>666</ele>
        <time>2018-05-03T08:49:09.000Z</time>
      </trkpt>
      <trkpt lat="43.78408" lon="7.10608">
        <ele>667</ele>
        <time>2018-05-03T08:49:13.000Z</time>
      </trkpt>
      <trkpt lat="43.78408" lon="7.10609">
        <ele>667</ele>
        <time>2018-05-03T08:49:14.000Z</time>
      </trkpt>
      <trkpt lat="43.78408" lon="7.10608">
        <ele>667</ele>
        <time>2018-05-03T08:49:17.000Z</time>
      </trkpt>
      <trkpt lat="43.78405" lon="7.10603">
        <ele>668</ele>
        <time>2018-05-03T08:49:24.000Z</time>
      </trkpt>
      <trkpt lat="43.78399" lon="7.10591">
        <ele>669</ele>
        <time>2018-05-03T08:49:29.000Z</time>
      </trkpt>
      <trkpt lat="43.78397" lon="7.10578">
        <ele>669</ele>
        <time>2018-05-03T08:49:34.000Z</time>
      </trkpt>
      <trkpt lat="43.78395" lon="7.10562">
        <ele>665</ele>
        <time>2018-05-03T08:49:38.000Z</time>
      </trkpt>
      <trkpt lat="43.78399" lon="7.10552">
        <ele>665</ele>
        <time>2018-05-03T08:49:42.000Z</time>
      </trkpt>
      <trkpt lat="43.78402" lon="7.10546">
        <ele>665</ele>
        <time>2018-05-03T08:49:45.000Z</time>
      </trkpt>
      <trkpt lat="43.78403" lon="7.10545">
        <ele>665</ele>
        <time>2018-05-03T08:49:46.000Z</time>
      </trkpt>
      <trkpt lat="43.78405" lon="7.10544">
        <ele>666</ele>
        <time>2018-05-03T08:49:47.000Z</time>
      </trkpt>
      <trkpt lat="43.7841" lon="7.10539">
        <ele>667</ele>
        <time>2018-05-03T08:49:51.000Z</time>
      </trkpt>
      <trkpt lat="43.78411" lon="7.10537">
        <ele>667</ele>
        <time>2018-05-03T08:49:52.000Z</time>
      </trkpt>
      <trkpt lat="43.78413" lon="7.10532">
        <ele>667</ele>
        <time>2018-05-03T08:49:54.000Z</time>
      </trkpt>
      <trkpt lat="43.78414" lon="7.1053">
        <ele>668</ele>
        <time>2018-05-03T08:49:55.000Z</time>
      </trkpt>
      <trkpt lat="43.78417" lon="7.10518">
        <ele>697</ele>
        <time>2018-05-03T08:49:59.000Z</time>
      </trkpt>
      <trkpt lat="43.7842" lon="7.10497">
        <ele>688</ele>
        <time>2018-05-03T08:50:06.000Z</time>
      </trkpt>
      <trkpt lat="43.7842" lon="7.10493">
        <ele>690</ele>
        <time>2018-05-03T08:50:11.000Z</time>
      </trkpt>
      <trkpt lat="43.78418" lon="7.10491">
        <ele>691</ele>
        <time>2018-05-03T08:50:13.000Z</time>
      </trkpt>
      <trkpt lat="43.78418" lon="7.10487">
        <ele>694</ele>
        <time>2018-05-03T08:50:16.000Z</time>
      </trkpt>
      <trkpt lat="43.78418" lon="7.10468">
        <ele>699</ele>
        <time>2018-05-03T08:50:21.000Z</time>
      </trkpt>
      <trkpt lat="43.78422" lon="7.10452">
        <ele>700</ele>
        <time>2018-05-03T08:50:26.000Z</time>
      </trkpt>
      <trkpt lat="43.78423" lon="7.10452">
        <ele>700</ele>
        <time>2018-05-03T08:50:27.000Z</time>
      </trkpt>
      <trkpt lat="43.78424" lon="7.10446">
        <ele>699</ele>
        <time>2018-05-03T08:50:30.000Z</time>
      </trkpt>
      <trkpt lat="43.78427" lon="7.10434">
        <ele>696</ele>
        <time>2018-05-03T08:50:36.000Z</time>
      </trkpt>
      <trkpt lat="43.78428" lon="7.10432">
        <ele>696</ele>
        <time>2018-05-03T08:50:37.000Z</time>
      </trkpt>
      <trkpt lat="43.78431" lon="7.10427">
        <ele>695</ele>
        <time>2018-05-03T08:50:41.000Z</time>
      </trkpt>
      <trkpt lat="43.7843" lon="7.10428">
        <ele>695</ele>
        <time>2018-05-03T08:50:42.000Z</time>
      </trkpt>
      <trkpt lat="43.78433" lon="7.10423">
        <ele>696</ele>
        <time>2018-05-03T08:50:48.000Z</time>
      </trkpt>
      <trkpt lat="43.78433" lon="7.10423">
        <ele>696</ele>
        <time>2018-05-03T08:50:49.000Z</time>
      </trkpt>
      <trkpt lat="43.78435" lon="7.10419">
        <ele>696</ele>
        <time>2018-05-03T08:50:54.000Z</time>
      </trkpt>
      <trkpt lat="43.78435" lon="7.10417">
        <ele>697</ele>
        <time>2018-05-03T08:50:56.000Z</time>
      </trkpt>
      <trkpt lat="43.78436" lon="7.10415">
        <ele>699</ele>
        <time>2018-05-03T08:50:59.000Z</time>
      </trkpt>
      <trkpt lat="43.78437" lon="7.10413">
        <ele>700</ele>
        <time>2018-05-03T08:51:02.000Z</time>
      </trkpt>
      <trkpt lat="43.78438" lon="7.10409">
        <ele>701</ele>
        <time>2018-05-03T08:51:07.000Z</time>
      </trkpt>
      <trkpt lat="43.78438" lon="7.10408">
        <ele>701</ele>
        <time>2018-05-03T08:51:08.000Z</time>
      </trkpt>
      <trkpt lat="43.78439" lon="7.10403">
        <ele>703</ele>
        <time>2018-05-03T08:51:15.000Z</time>
      </trkpt>
      <trkpt lat="43.7844" lon="7.10399">
        <ele>705</ele>
        <time>2018-05-03T08:51:21.000Z</time>
      </trkpt>
      <trkpt lat="43.7844" lon="7.10395">
        <ele>705</ele>
        <time>2018-05-03T08:51:26.000Z</time>
      </trkpt>
      <trkpt lat="43.7844" lon="7.10394">
        <ele>706</ele>
        <time>2018-05-03T08:51:27.000Z</time>
      </trkpt>
      <trkpt lat="43.78442" lon="7.1039">
        <ele>707</ele>
        <time>2018-05-03T08:51:33.000Z</time>
      </trkpt>
      <trkpt lat="43.78442" lon="7.10388">
        <ele>708</ele>
        <time>2018-05-03T08:51:36.000Z</time>
      </trkpt>
      <trkpt lat="43.78442" lon="7.10387">
        <ele>708</ele>
        <time>2018-05-03T08:51:40.000Z</time>
      </trkpt>
      <trkpt lat="43.78437" lon="7.10378">
        <ele>707</ele>
        <time>2018-05-03T08:51:45.000Z</time>
      </trkpt>
      <trkpt lat="43.78432" lon="7.10368">
        <ele>707</ele>
        <time>2018-05-03T08:51:51.000Z</time>
      </trkpt>
      <trkpt lat="43.7843" lon="7.10362">
        <ele>707</ele>
        <time>2018-05-03T08:51:54.000Z</time>
      </trkpt>
      <trkpt lat="43.78428" lon="7.10358">
        <ele>706</ele>
        <time>2018-05-03T08:51:57.000Z</time>
      </trkpt>
      <trkpt lat="43.78428" lon="7.10359">
        <ele>706</ele>
        <time>2018-05-03T08:51:58.000Z</time>
      </trkpt>
      <trkpt lat="43.78427" lon="7.10356">
        <ele>705</ele>
        <time>2018-05-03T08:52:02.000Z</time>
      </trkpt>
      <trkpt lat="43.78425" lon="7.1035">
        <ele>704</ele>
        <time>2018-05-03T08:52:07.000Z</time>
      </trkpt>
      <trkpt lat="43.78425" lon="7.1035">
        <ele>704</ele>
        <time>2018-05-03T08:52:09.000Z</time>
      </trkpt>
      <trkpt lat="43.78425" lon="7.10345">
        <ele>702</ele>
        <time>2018-05-03T08:52:13.000Z</time>
      </trkpt>
      <trkpt lat="43.78424" lon="7.10342">
        <ele>701</ele>
        <time>2018-05-03T08:52:17.000Z</time>
      </trkpt>
      <trkpt lat="43.78423" lon="7.10339">
        <ele>699</ele>
        <time>2018-05-03T08:52:21.000Z</time>
      </trkpt>
      <trkpt lat="43.78422" lon="7.10336">
        <ele>697</ele>
        <time>2018-05-03T08:52:23.000Z</time>
      </trkpt>
      <trkpt lat="43.7842" lon="7.10325">
        <ele>705</ele>
        <time>2018-05-03T08:52:28.000Z</time>
      </trkpt>
      <trkpt lat="43.7842" lon="7.10326">
        <ele>704</ele>
        <time>2018-05-03T08:52:29.000Z</time>
      </trkpt>
      <trkpt lat="43.7842" lon="7.10324">
        <ele>706</ele>
        <time>2018-05-03T08:52:32.000Z</time>
      </trkpt>
      <trkpt lat="43.7842" lon="7.10322">
        <ele>707</ele>
        <time>2018-05-03T08:52:34.000Z</time>
      </trkpt>
      <trkpt lat="43.78419" lon="7.10317">
        <ele>711</ele>
        <time>2018-05-03T08:52:39.000Z</time>
      </trkpt>
      <trkpt lat="43.78419" lon="7.10318">
        <ele>711</ele>
        <time>2018-05-03T08:52:40.000Z</time>
      </trkpt>
      <trkpt lat="43.78419" lon="7.10316">
        <ele>712</ele>
        <time>2018-05-03T08:52:42.000Z</time>
      </trkpt>
      <trkpt lat="43.78417" lon="7.10313">
        <ele>714</ele>
        <time>2018-05-03T08:52:45.000Z</time>
      </trkpt>
      <trkpt lat="43.78414" lon="7.10307">
        <ele>687</ele>
        <time>2018-05-03T08:52:51.000Z</time>
      </trkpt>
      <trkpt lat="43.78407" lon="7.10293">
        <ele>687</ele>
        <time>2018-05-03T08:52:58.000Z</time>
      </trkpt>
      <trkpt lat="43.78403" lon="7.10284">
        <ele>689</ele>
        <time>2018-05-03T08:53:03.000Z</time>
      </trkpt>
      <trkpt lat="43.78397" lon="7.10273">
        <ele>690</ele>
        <time>2018-05-03T08:53:08.000Z</time>
      </trkpt>
      <trkpt lat="43.78394" lon="7.1026">
        <ele>693</ele>
        <time>2018-05-03T08:53:12.000Z</time>
      </trkpt>
      <trkpt lat="43.78388" lon="7.10249">
        <ele>701</ele>
        <time>2018-05-03T08:53:17.000Z</time>
      </trkpt>
      <trkpt lat="43.78383" lon="7.10231">
        <ele>698</ele>
        <time>2018-05-03T08:53:23.000Z</time>
      </trkpt>
      <trkpt lat="43.78376" lon="7.10209">
        <ele>697</ele>
        <time>2018-05-03T08:53:30.000Z</time>
      </trkpt>
      <trkpt lat="43.78373" lon="7.10195">
        <ele>697</ele>
        <time>2018-05-03T08:53:35.000Z</time>
      </trkpt>
      <trkpt lat="43.78372" lon="7.10192">
        <ele>697</ele>
        <time>2018-05-03T08:53:36.000Z</time>
      </trkpt>
      <trkpt lat="43.78367" lon="7.10173">
        <ele>696</ele>
        <time>2018-05-03T08:53:42.000Z</time>
      </trkpt>
      <trkpt lat="43.78364" lon="7.10151">
        <ele>704</ele>
        <time>2018-05-03T08:53:49.000Z</time>
      </trkpt>
      <trkpt lat="43.78363" lon="7.10145">
        <ele>705</ele>
        <time>2018-05-03T08:53:52.000Z</time>
      </trkpt>
      <trkpt lat="43.78363" lon="7.10141">
        <ele>705</ele>
        <time>2018-05-03T08:53:54.000Z</time>
      </trkpt>
      <trkpt lat="43.78363" lon="7.10138">
        <ele>706</ele>
        <time>2018-05-03T08:53:56.000Z</time>
      </trkpt>
      <trkpt lat="43.78362" lon="7.10128">
        <ele>707</ele>
        <time>2018-05-03T08:54:01.000Z</time>
      </trkpt>
      <trkpt lat="43.78359" lon="7.10117">
        <ele>706</ele>
        <time>2018-05-03T08:54:06.000Z</time>
      </trkpt>
      <trkpt lat="43.78359" lon="7.10115">
        <ele>706</ele>
        <time>2018-05-03T08:54:07.000Z</time>
      </trkpt>
      <trkpt lat="43.78353" lon="7.101">
        <ele>704</ele>
        <time>2018-05-03T08:54:13.000Z</time>
      </trkpt>
      <trkpt lat="43.78348" lon="7.10081">
        <ele>702</ele>
        <time>2018-05-03T08:54:17.000Z</time>
      </trkpt>
      <trkpt lat="43.78347" lon="7.10067">
        <ele>705</ele>
        <time>2018-05-03T08:54:22.000Z</time>
      </trkpt>
      <trkpt lat="43.78347" lon="7.10053">
        <ele>708</ele>
        <time>2018-05-03T08:54:28.000Z</time>
      </trkpt>
      <trkpt lat="43.78349" lon="7.10046">
        <ele>709</ele>
        <time>2018-05-03T08:54:31.000Z</time>
      </trkpt>
      <trkpt lat="43.78351" lon="7.10044">
        <ele>709</ele>
        <time>2018-05-03T08:54:33.000Z</time>
      </trkpt>
      <trkpt lat="43.78351" lon="7.10043">
        <ele>709</ele>
        <time>2018-05-03T08:54:37.000Z</time>
      </trkpt>
      <trkpt lat="43.78351" lon="7.10041">
        <ele>709</ele>
        <time>2018-05-03T08:54:38.000Z</time>
      </trkpt>
      <trkpt lat="43.78353" lon="7.10035">
        <ele>709</ele>
        <time>2018-05-03T08:54:41.000Z</time>
      </trkpt>
      <trkpt lat="43.78354" lon="7.10027">
        <ele>709</ele>
        <time>2018-05-03T08:54:44.000Z</time>
      </trkpt>
      <trkpt lat="43.78356" lon="7.1002">
        <ele>708</ele>
        <time>2018-05-03T08:54:46.000Z</time>
      </trkpt>
      <trkpt lat="43.7836" lon="7.10008">
        <ele>709</ele>
        <time>2018-05-03T08:54:51.000Z</time>
      </trkpt>
      <trkpt lat="43.78363" lon="7.09997">
        <ele>709</ele>
        <time>2018-05-03T08:54:56.000Z</time>
      </trkpt>
      <trkpt lat="43.78363" lon="7.09997">
        <ele>709</ele>
        <time>2018-05-03T08:54:57.000Z</time>
      </trkpt>
      <trkpt lat="43.78363" lon="7.09996">
        <ele>709</ele>
        <time>2018-05-03T08:55:02.000Z</time>
      </trkpt>
      <trkpt lat="43.78362" lon="7.09996">
        <ele>709</ele>
        <time>2018-05-03T08:55:09.000Z</time>
      </trkpt>
      <trkpt lat="43.78362" lon="7.09995">
        <ele>709</ele>
        <time>2018-05-03T08:55:20.000Z</time>
      </trkpt>
      <trkpt lat="43.78361" lon="7.09994">
        <ele>708</ele>
        <time>2018-05-03T08:55:28.000Z</time>
      </trkpt>
      <trkpt lat="43.78361" lon="7.09993">
        <ele>708</ele>
        <time>2018-05-03T08:55:40.000Z</time>
      </trkpt>
      <trkpt lat="43.7836" lon="7.09992">
        <ele>708</ele>
        <time>2018-05-03T08:55:47.000Z</time>
      </trkpt>
      <trkpt lat="43.78359" lon="7.09991">
        <ele>707</ele>
        <time>2018-05-03T08:55:56.000Z</time>
      </trkpt>
      <trkpt lat="43.78359" lon="7.0999">
        <ele>708</ele>
        <time>2018-05-03T08:56:05.000Z</time>
      </trkpt>
      <trkpt lat="43.78359" lon="7.0999">
        <ele>708</ele>
        <time>2018-05-03T08:56:12.000Z</time>
      </trkpt>
      <trkpt lat="43.7836" lon="7.0999">
        <ele>708</ele>
        <time>2018-05-03T08:56:24.000Z</time>
      </trkpt>
      <trkpt lat="43.7836" lon="7.09989">
        <ele>708</ele>
        <time>2018-05-03T08:56:36.000Z</time>
      </trkpt>
      <trkpt lat="43.7836" lon="7.0999">
        <ele>708</ele>
        <time>2018-05-03T08:57:03.000Z</time>
      </trkpt>
      <trkpt lat="43.7836" lon="7.0999">
        <ele>708</ele>
        <time>2018-05-03T08:57:27.000Z</time>
      </trkpt>
      <trkpt lat="43.7836" lon="7.0999">
        <ele>708</ele>
        <time>2018-05-03T08:57:57.000Z</time>
      </trkpt>
      <trkpt lat="43.7836" lon="7.09991">
        <ele>708</ele>
        <time>2018-05-03T08:58:21.000Z</time>
      </trkpt>
      <trkpt lat="43.7836" lon="7.09991">
        <ele>708</ele>
        <time>2018-05-03T08:58:32.000Z</time>
      </trkpt>
      <trkpt lat="43.7836" lon="7.09991">
        <ele>708</ele>
        <time>2018-05-03T08:58:39.000Z</time>
      </trkpt>
      <trkpt lat="43.78359" lon="7.0999">
        <ele>708</ele>
        <time>2018-05-03T08:58:51.000Z</time>
      </trkpt>
      <trkpt lat="43.7836" lon="7.0999">
        <ele>708</ele>
        <time>2018-05-03T08:58:57.000Z</time>
      </trkpt>
      <trkpt lat="43.78359" lon="7.0999">
        <ele>708</ele>
        <time>2018-05-03T08:59:04.000Z</time>
      </trkpt>
      <trkpt lat="43.78359" lon="7.0999">
        <ele>707</ele>
        <time>2018-05-03T08:59:19.000Z</time>
      </trkpt>
      <trkpt lat="43.78358" lon="7.09987">
        <ele>708</ele>
        <time>2018-05-03T08:59:32.000Z</time>
      </trkpt>
      <trkpt lat="43.78359" lon="7.09984">
        <ele>708</ele>
        <time>2018-05-03T08:59:42.000Z</time>
      </trkpt>
      <trkpt lat="43.78359" lon="7.09976">
        <ele>709</ele>
        <time>2018-05-03T08:59:46.000Z</time>
      </trkpt>
      <trkpt lat="43.78358" lon="7.0997">
        <ele>709</ele>
        <time>2018-05-03T08:59:48.000Z</time>
      </trkpt>
      <trkpt lat="43.78357" lon="7.09967">
        <ele>709</ele>
        <time>2018-05-03T08:59:49.000Z</time>
      </trkpt>
      <trkpt lat="43.78356" lon="7.09954">
        <ele>709</ele>
        <time>2018-05-03T08:59:52.000Z</time>
      </trkpt>
      <trkpt lat="43.78356" lon="7.09949">
        <ele>709</ele>
        <time>2018-05-03T08:59:53.000Z</time>
      </trkpt>
      <trkpt lat="43.78356" lon="7.09944">
        <ele>708</ele>
        <time>2018-05-03T08:59:54.000Z</time>
      </trkpt>
      <trkpt lat="43.78355" lon="7.09942">
        <ele>708</ele>
        <time>2018-05-03T08:59:55.000Z</time>
      </trkpt>
      <trkpt lat="43.78354" lon="7.09939">
        <ele>707</ele>
        <time>2018-05-03T08:59:56.000Z</time>
      </trkpt>
      <trkpt lat="43.78353" lon="7.09933">
        <ele>706</ele>
        <time>2018-05-03T08:59:58.000Z</time>
      </trkpt>
      <trkpt lat="43.78348" lon="7.09925">
        <ele>702</ele>
        <time>2018-05-03T09:00:00.000Z</time>
      </trkpt>
      <trkpt lat="43.78343" lon="7.09916">
        <ele>698</ele>
        <time>2018-05-03T09:00:02.000Z</time>
      </trkpt>
      <trkpt lat="43.7834" lon="7.0991">
        <ele>698</ele>
        <time>2018-05-03T09:00:03.000Z</time>
      </trkpt>
      <trkpt lat="43.78338" lon="7.09903">
        <ele>701</ele>
        <time>2018-05-03T09:00:04.000Z</time>
      </trkpt>
      <trkpt lat="43.78331" lon="7.0989">
        <ele>677</ele>
        <time>2018-05-03T09:00:06.000Z</time>
      </trkpt>
      <trkpt lat="43.78327" lon="7.09884">
        <ele>676</ele>
        <time>2018-05-03T09:00:07.000Z</time>
      </trkpt>
      <trkpt lat="43.78323" lon="7.09876">
        <ele>675</ele>
        <time>2018-05-03T09:00:08.000Z</time>
      </trkpt>
      <trkpt lat="43.7832" lon="7.09869">
        <ele>675</ele>
        <time>2018-05-03T09:00:09.000Z</time>
      </trkpt>
      <trkpt lat="43.78316" lon="7.09844">
        <ele>680</ele>
        <time>2018-05-03T09:00:12.000Z</time>
      </trkpt>
      <trkpt lat="43.78316" lon="7.09834">
        <ele>681</ele>
        <time>2018-05-03T09:00:13.000Z</time>
      </trkpt>
      <trkpt lat="43.78318" lon="7.09817">
        <ele>684</ele>
        <time>2018-05-03T09:00:15.000Z</time>
      </trkpt>
      <trkpt lat="43.78318" lon="7.09809">
        <ele>683</ele>
        <time>2018-05-03T09:00:16.000Z</time>
      </trkpt>
      <trkpt lat="43.78318" lon="7.09802">
        <ele>683</ele>
        <time>2018-05-03T09:00:17.000Z</time>
      </trkpt>
      <trkpt lat="43.78314" lon="7.09786">
        <ele>683</ele>
        <time>2018-05-03T09:00:19.000Z</time>
      </trkpt>
      <trkpt lat="43.78309" lon="7.09765">
        <ele>685</ele>
        <time>2018-05-03T09:00:22.000Z</time>
      </trkpt>
      <trkpt lat="43.78306" lon="7.09752">
        <ele>685</ele>
        <time>2018-05-03T09:00:24.000Z</time>
      </trkpt>
      <trkpt lat="43.78301" lon="7.09735">
        <ele>691</ele>
        <time>2018-05-03T09:00:27.000Z</time>
      </trkpt>
      <trkpt lat="43.78295" lon="7.09724">
        <ele>690</ele>
        <time>2018-05-03T09:00:30.000Z</time>
      </trkpt>
      <trkpt lat="43.78295" lon="7.09724">
        <ele>690</ele>
        <time>2018-05-03T09:00:31.000Z</time>
      </trkpt>
      <trkpt lat="43.78295" lon="7.09724">
        <ele>690</ele>
        <time>2018-05-03T09:00:33.000Z</time>
      </trkpt>
      <trkpt lat="43.78295" lon="7.09724">
        <ele>690</ele>
        <time>2018-05-03T09:00:44.000Z</time>
      </trkpt>
      <trkpt lat="43.78295" lon="7.09724">
        <ele>690</ele>
        <time>2018-05-03T09:00:54.000Z</time>
      </trkpt>
      <trkpt lat="43.78292" lon="7.09719">
        <ele>689</ele>
        <time>2018-05-03T09:00:59.000Z</time>
      </trkpt>
      <trkpt lat="43.78281" lon="7.09706">
        <ele>688</ele>
        <time>2018-05-03T09:01:03.000Z</time>
      </trkpt>
      <trkpt lat="43.78279" lon="7.09703">
        <ele>688</ele>
        <time>2018-05-03T09:01:04.000Z</time>
      </trkpt>
      <trkpt lat="43.78274" lon="7.097">
        <ele>687</ele>
        <time>2018-05-03T09:01:06.000Z</time>
      </trkpt>
      <trkpt lat="43.7827" lon="7.09695">
        <ele>687</ele>
        <time>2018-05-03T09:01:09.000Z</time>
      </trkpt>
      <trkpt lat="43.78269" lon="7.09693">
        <ele>686</ele>
        <time>2018-05-03T09:01:10.000Z</time>
      </trkpt>
      <trkpt lat="43.78269" lon="7.09693">
        <ele>686</ele>
        <time>2018-05-03T09:01:14.000Z</time>
      </trkpt>
      <trkpt lat="43.78269" lon="7.09693">
        <ele>686</ele>
        <time>2018-05-03T09:01:15.000Z</time>
      </trkpt>
      <trkpt lat="43.78266" lon="7.09688">
        <ele>686</ele>
        <time>2018-05-03T09:01:29.000Z</time>
      </trkpt>
      <trkpt lat="43.78254" lon="7.09672">
        <ele>682</ele>
        <time>2018-05-03T09:01:34.000Z</time>
      </trkpt>
      <trkpt lat="43.78244" lon="7.09658">
        <ele>678</ele>
        <time>2018-05-03T09:01:37.000Z</time>
      </trkpt>
      <trkpt lat="43.78241" lon="7.09652">
        <ele>677</ele>
        <time>2018-05-03T09:01:38.000Z</time>
      </trkpt>
      <trkpt lat="43.78237" lon="7.09647">
        <ele>676</ele>
        <time>2018-05-03T09:01:39.000Z</time>
      </trkpt>
      <trkpt lat="43.78229" lon="7.09637">
        <ele>675</ele>
        <time>2018-05-03T09:01:41.000Z</time>
      </trkpt>
      <trkpt lat="43.78227" lon="7.09633">
        <ele>675</ele>
        <time>2018-05-03T09:01:42.000Z</time>
      </trkpt>
      <trkpt lat="43.78225" lon="7.09631">
        <ele>675</ele>
        <time>2018-05-03T09:01:43.000Z</time>
      </trkpt>
      <trkpt lat="43.78224" lon="7.09632">
        <ele>675</ele>
        <time>2018-05-03T09:01:44.000Z</time>
      </trkpt>
      <trkpt lat="43.78224" lon="7.09638">
        <ele>674</ele>
        <time>2018-05-03T09:01:46.000Z</time>
      </trkpt>
      <trkpt lat="43.78229" lon="7.09651">
        <ele>675</ele>
        <time>2018-05-03T09:01:48.000Z</time>
      </trkpt>
      <trkpt lat="43.78235" lon="7.09666">
        <ele>676</ele>
        <time>2018-05-03T09:01:50.000Z</time>
      </trkpt>
      <trkpt lat="43.78237" lon="7.09674">
        <ele>671</ele>
        <time>2018-05-03T09:01:51.000Z</time>
      </trkpt>
      <trkpt lat="43.78239" lon="7.09681">
        <ele>669</ele>
        <time>2018-05-03T09:01:52.000Z</time>
      </trkpt>
      <trkpt lat="43.78241" lon="7.0969">
        <ele>667</ele>
        <time>2018-05-03T09:01:53.000Z</time>
      </trkpt>
      <trkpt lat="43.78243" lon="7.09697">
        <ele>665</ele>
        <time>2018-05-03T09:01:54.000Z</time>
      </trkpt>
      <trkpt lat="43.78245" lon="7.09705">
        <ele>664</ele>
        <time>2018-05-03T09:01:55.000Z</time>
      </trkpt>
      <trkpt lat="43.78245" lon="7.09712">
        <ele>663</ele>
        <time>2018-05-03T09:01:56.000Z</time>
      </trkpt>
      <trkpt lat="43.78244" lon="7.09717">
        <ele>662</ele>
        <time>2018-05-03T09:01:57.000Z</time>
      </trkpt>
      <trkpt lat="43.78243" lon="7.09722">
        <ele>661</ele>
        <time>2018-05-03T09:01:58.000Z</time>
      </trkpt>
      <trkpt lat="43.78243" lon="7.09725">
        <ele>661</ele>
        <time>2018-05-03T09:01:59.000Z</time>
      </trkpt>
      <trkpt lat="43.78243" lon="7.09729">
        <ele>661</ele>
        <time>2018-05-03T09:02:00.000Z</time>
      </trkpt>
      <trkpt lat="43.78241" lon="7.09732">
        <ele>661</ele>
        <time>2018-05-03T09:02:01.000Z</time>
      </trkpt>
      <trkpt lat="43.78239" lon="7.09727">
        <ele>661</ele>
        <time>2018-05-03T09:02:03.000Z</time>
      </trkpt>
      <trkpt lat="43.78235" lon="7.09715">
        <ele>662</ele>
        <time>2018-05-03T09:02:06.000Z</time>
      </trkpt>
      <trkpt lat="43.7823" lon="7.09709">
        <ele>662</ele>
        <time>2018-05-03T09:02:08.000Z</time>
      </trkpt>
      <trkpt lat="43.78225" lon="7.09702">
        <ele>662</ele>
        <time>2018-05-03T09:02:10.000Z</time>
      </trkpt>
      <trkpt lat="43.78219" lon="7.09696">
        <ele>662</ele>
        <time>2018-05-03T09:02:12.000Z</time>
      </trkpt>
      <trkpt lat="43.78212" lon="7.09689">
        <ele>661</ele>
        <time>2018-05-03T09:02:14.000Z</time>
      </trkpt>
      <trkpt lat="43.78202" lon="7.09681">
        <ele>660</ele>
        <time>2018-05-03T09:02:17.000Z</time>
      </trkpt>
      <trkpt lat="43.78198" lon="7.09677">
        <ele>659</ele>
        <time>2018-05-03T09:02:18.000Z</time>
      </trkpt>
      <trkpt lat="43.78195" lon="7.09674">
        <ele>658</ele>
        <time>2018-05-03T09:02:19.000Z</time>
      </trkpt>
      <trkpt lat="43.78193" lon="7.09671">
        <ele>658</ele>
        <time>2018-05-03T09:02:20.000Z</time>
      </trkpt>
      <trkpt lat="43.78191" lon="7.09668">
        <ele>657</ele>
        <time>2018-05-03T09:02:21.000Z</time>
      </trkpt>
      <trkpt lat="43.78189" lon="7.09668">
        <ele>657</ele>
        <time>2018-05-03T09:02:22.000Z</time>
      </trkpt>
      <trkpt lat="43.78189" lon="7.0967">
        <ele>657</ele>
        <time>2018-05-03T09:02:23.000Z</time>
      </trkpt>
      <trkpt lat="43.78192" lon="7.09677">
        <ele>658</ele>
        <time>2018-05-03T09:02:25.000Z</time>
      </trkpt>
      <trkpt lat="43.78196" lon="7.09685">
        <ele>658</ele>
        <time>2018-05-03T09:02:27.000Z</time>
      </trkpt>
      <trkpt lat="43.78196" lon="7.09698">
        <ele>658</ele>
        <time>2018-05-03T09:02:29.000Z</time>
      </trkpt>
      <trkpt lat="43.78196" lon="7.09704">
        <ele>658</ele>
        <time>2018-05-03T09:02:30.000Z</time>
      </trkpt>
      <trkpt lat="43.78197" lon="7.09712">
        <ele>658</ele>
        <time>2018-05-03T09:02:31.000Z</time>
      </trkpt>
      <trkpt lat="43.78197" lon="7.09719">
        <ele>658</ele>
        <time>2018-05-03T09:02:32.000Z</time>
      </trkpt>
      <trkpt lat="43.78198" lon="7.09727">
        <ele>657</ele>
        <time>2018-05-03T09:02:33.000Z</time>
      </trkpt>
      <trkpt lat="43.78199" lon="7.09734">
        <ele>657</ele>
        <time>2018-05-03T09:02:34.000Z</time>
      </trkpt>
      <trkpt lat="43.782" lon="7.09742">
        <ele>656</ele>
        <time>2018-05-03T09:02:35.000Z</time>
      </trkpt>
      <trkpt lat="43.78202" lon="7.09749">
        <ele>657</ele>
        <time>2018-05-03T09:02:36.000Z</time>
      </trkpt>
      <trkpt lat="43.78204" lon="7.09756">
        <ele>654</ele>
        <time>2018-05-03T09:02:37.000Z</time>
      </trkpt>
      <trkpt lat="43.78208" lon="7.09763">
        <ele>654</ele>
        <time>2018-05-03T09:02:38.000Z</time>
      </trkpt>
      <trkpt lat="43.78211" lon="7.0977">
        <ele>654</ele>
        <time>2018-05-03T09:02:39.000Z</time>
      </trkpt>
      <trkpt lat="43.78214" lon="7.09776">
        <ele>654</ele>
        <time>2018-05-03T09:02:40.000Z</time>
      </trkpt>
      <trkpt lat="43.78215" lon="7.09782">
        <ele>654</ele>
        <time>2018-05-03T09:02:41.000Z</time>
      </trkpt>
      <trkpt lat="43.78216" lon="7.09787">
        <ele>654</ele>
        <time>2018-05-03T09:02:42.000Z</time>
      </trkpt>
      <trkpt lat="43.78212" lon="7.09794">
        <ele>654</ele>
        <time>2018-05-03T09:02:44.000Z</time>
      </trkpt>
      <trkpt lat="43.7821" lon="7.09797">
        <ele>654</ele>
        <time>2018-05-03T09:02:45.000Z</time>
      </trkpt>
      <trkpt lat="43.78207" lon="7.09803">
        <ele>654</ele>
        <time>2018-05-03T09:02:47.000Z</time>
      </trkpt>
      <trkpt lat="43.78207" lon="7.09806">
        <ele>654</ele>
        <time>2018-05-03T09:02:49.000Z</time>
      </trkpt>
      <trkpt lat="43.78209" lon="7.09811">
        <ele>654</ele>
        <time>2018-05-03T09:02:51.000Z</time>
      </trkpt>
      <trkpt lat="43.78211" lon="7.09818">
        <ele>653</ele>
        <time>2018-05-03T09:02:53.000Z</time>
      </trkpt>
      <trkpt lat="43.78214" lon="7.09835">
        <ele>653</ele>
        <time>2018-05-03T09:02:57.000Z</time>
      </trkpt>
      <trkpt lat="43.78218" lon="7.09849">
        <ele>653</ele>
        <time>2018-05-03T09:03:00.000Z</time>
      </trkpt>
      <trkpt lat="43.78218" lon="7.09853">
        <ele>653</ele>
        <time>2018-05-03T09:03:01.000Z</time>
      </trkpt>
      <trkpt lat="43.78218" lon="7.09865">
        <ele>653</ele>
        <time>2018-05-03T09:03:05.000Z</time>
      </trkpt>
      <trkpt lat="43.78218" lon="7.09868">
        <ele>653</ele>
        <time>2018-05-03T09:03:06.000Z</time>
      </trkpt>
      <trkpt lat="43.78218" lon="7.09879">
        <ele>653</ele>
        <time>2018-05-03T09:03:10.000Z</time>
      </trkpt>
      <trkpt lat="43.78216" lon="7.09883">
        <ele>654</ele>
        <time>2018-05-03T09:03:12.000Z</time>
      </trkpt>
      <trkpt lat="43.78216" lon="7.09886">
        <ele>654</ele>
        <time>2018-05-03T09:03:13.000Z</time>
      </trkpt>
      <trkpt lat="43.78216" lon="7.09892">
        <ele>654</ele>
        <time>2018-05-03T09:03:16.000Z</time>
      </trkpt>
      <trkpt lat="43.78216" lon="7.09894">
        <ele>654</ele>
        <time>2018-05-03T09:03:17.000Z</time>
      </trkpt>
      <trkpt lat="43.78215" lon="7.09898">
        <ele>654</ele>
        <time>2018-05-03T09:03:19.000Z</time>
      </trkpt>
      <trkpt lat="43.78215" lon="7.09904">
        <ele>653</ele>
        <time>2018-05-03T09:03:22.000Z</time>
      </trkpt>
      <trkpt lat="43.78215" lon="7.09908">
        <ele>654</ele>
        <time>2018-05-03T09:03:24.000Z</time>
      </trkpt>
      <trkpt lat="43.78214" lon="7.09916">
        <ele>654</ele>
        <time>2018-05-03T09:03:28.000Z</time>
      </trkpt>
      <trkpt lat="43.78214" lon="7.09918">
        <ele>653</ele>
        <time>2018-05-03T09:03:29.000Z</time>
      </trkpt>
      <trkpt lat="43.78211" lon="7.0993">
        <ele>654</ele>
        <time>2018-05-03T09:03:35.000Z</time>
      </trkpt>
      <trkpt lat="43.78209" lon="7.09943">
        <ele>654</ele>
        <time>2018-05-03T09:03:41.000Z</time>
      </trkpt>
      <trkpt lat="43.78209" lon="7.09944">
        <ele>654</ele>
        <time>2018-05-03T09:03:42.000Z</time>
      </trkpt>
      <trkpt lat="43.78207" lon="7.09949">
        <ele>654</ele>
        <time>2018-05-03T09:03:45.000Z</time>
      </trkpt>
      <trkpt lat="43.78206" lon="7.09952">
        <ele>655</ele>
        <time>2018-05-03T09:03:47.000Z</time>
      </trkpt>
      <trkpt lat="43.78204" lon="7.09956">
        <ele>655</ele>
        <time>2018-05-03T09:03:50.000Z</time>
      </trkpt>
      <trkpt lat="43.78203" lon="7.09958">
        <ele>655</ele>
        <time>2018-05-03T09:03:51.000Z</time>
      </trkpt>
      <trkpt lat="43.78199" lon="7.09965">
        <ele>655</ele>
        <time>2018-05-03T09:03:56.000Z</time>
      </trkpt>
      <trkpt lat="43.78198" lon="7.09967">
        <ele>655</ele>
        <time>2018-05-03T09:03:57.000Z</time>
      </trkpt>
      <trkpt lat="43.78195" lon="7.09972">
        <ele>656</ele>
        <time>2018-05-03T09:04:01.000Z</time>
      </trkpt>
      <trkpt lat="43.78195" lon="7.09972">
        <ele>656</ele>
        <time>2018-05-03T09:04:02.000Z</time>
      </trkpt>
      <trkpt lat="43.78195" lon="7.09973">
        <ele>656</ele>
        <time>2018-05-03T09:04:05.000Z</time>
      </trkpt>
      <trkpt lat="43.78196" lon="7.09974">
        <ele>655</ele>
        <time>2018-05-03T09:04:08.000Z</time>
      </trkpt>
      <trkpt lat="43.78196" lon="7.09977">
        <ele>655</ele>
        <time>2018-05-03T09:04:19.000Z</time>
      </trkpt>
      <trkpt lat="43.78196" lon="7.09984">
        <ele>656</ele>
        <time>2018-05-03T09:04:26.000Z</time>
      </trkpt>
      <trkpt lat="43.78195" lon="7.09985">
        <ele>656</ele>
        <time>2018-05-03T09:04:27.000Z</time>
      </trkpt>
      <trkpt lat="43.78194" lon="7.09991">
        <ele>656</ele>
        <time>2018-05-03T09:04:31.000Z</time>
      </trkpt>
      <trkpt lat="43.78194" lon="7.09993">
        <ele>656</ele>
        <time>2018-05-03T09:04:32.000Z</time>
      </trkpt>
      <trkpt lat="43.78194" lon="7.09994">
        <ele>656</ele>
        <time>2018-05-03T09:04:33.000Z</time>
      </trkpt>
      <trkpt lat="43.78193" lon="7.09997">
        <ele>656</ele>
        <time>2018-05-03T09:04:35.000Z</time>
      </trkpt>
      <trkpt lat="43.78192" lon="7.1">
        <ele>653</ele>
        <time>2018-05-03T09:04:37.000Z</time>
      </trkpt>
      <trkpt lat="43.78192" lon="7.10001">
        <ele>654</ele>
        <time>2018-05-03T09:04:38.000Z</time>
      </trkpt>
      <trkpt lat="43.78191" lon="7.10002">
        <ele>654</ele>
        <time>2018-05-03T09:04:39.000Z</time>
      </trkpt>
      <trkpt lat="43.78188" lon="7.1001">
        <ele>654</ele>
        <time>2018-05-03T09:04:44.000Z</time>
      </trkpt>
      <trkpt lat="43.78188" lon="7.10011">
        <ele>654</ele>
        <time>2018-05-03T09:04:45.000Z</time>
      </trkpt>
      <trkpt lat="43.78186" lon="7.10015">
        <ele>654</ele>
        <time>2018-05-03T09:04:48.000Z</time>
      </trkpt>
      <trkpt lat="43.78185" lon="7.10019">
        <ele>653</ele>
        <time>2018-05-03T09:04:51.000Z</time>
      </trkpt>
      <trkpt lat="43.78184" lon="7.10021">
        <ele>653</ele>
        <time>2018-05-03T09:04:52.000Z</time>
      </trkpt>
      <trkpt lat="43.78182" lon="7.10027">
        <ele>653</ele>
        <time>2018-05-03T09:04:56.000Z</time>
      </trkpt>
      <trkpt lat="43.78179" lon="7.10032">
        <ele>652</ele>
        <time>2018-05-03T09:04:59.000Z</time>
      </trkpt>
      <trkpt lat="43.78177" lon="7.10035">
        <ele>652</ele>
        <time>2018-05-03T09:05:02.000Z</time>
      </trkpt>
      <trkpt lat="43.78177" lon="7.10037">
        <ele>652</ele>
        <time>2018-05-03T09:05:07.000Z</time>
      </trkpt>
      <trkpt lat="43.78177" lon="7.10038">
        <ele>652</ele>
        <time>2018-05-03T09:05:09.000Z</time>
      </trkpt>
      <trkpt lat="43.78177" lon="7.10041">
        <ele>652</ele>
        <time>2018-05-03T09:05:11.000Z</time>
      </trkpt>
      <trkpt lat="43.78176" lon="7.10042">
        <ele>652</ele>
        <time>2018-05-03T09:05:13.000Z</time>
      </trkpt>
      <trkpt lat="43.78174" lon="7.10047">
        <ele>651</ele>
        <time>2018-05-03T09:05:19.000Z</time>
      </trkpt>
      <trkpt lat="43.78174" lon="7.1005">
        <ele>651</ele>
        <time>2018-05-03T09:05:22.000Z</time>
      </trkpt>
      <trkpt lat="43.78171" lon="7.10054">
        <ele>651</ele>
        <time>2018-05-03T09:05:27.000Z</time>
      </trkpt>
      <trkpt lat="43.78171" lon="7.10056">
        <ele>651</ele>
        <time>2018-05-03T09:05:29.000Z</time>
      </trkpt>
      <trkpt lat="43.78168" lon="7.1006">
        <ele>651</ele>
        <time>2018-05-03T09:05:36.000Z</time>
      </trkpt>
      <trkpt lat="43.78166" lon="7.10065">
        <ele>680</ele>
        <time>2018-05-03T09:05:44.000Z</time>
      </trkpt>
      <trkpt lat="43.78165" lon="7.10065">
        <ele>680</ele>
        <time>2018-05-03T09:05:45.000Z</time>
      </trkpt>
      <trkpt lat="43.78162" lon="7.1007">
        <ele>677</ele>
        <time>2018-05-03T09:05:53.000Z</time>
      </trkpt>
      <trkpt lat="43.78159" lon="7.10074">
        <ele>675</ele>
        <time>2018-05-03T09:06:00.000Z</time>
      </trkpt>
      <trkpt lat="43.78159" lon="7.10075">
        <ele>674</ele>
        <time>2018-05-03T09:06:01.000Z</time>
      </trkpt>
      <trkpt lat="43.78157" lon="7.10079">
        <ele>673</ele>
        <time>2018-05-03T09:06:07.000Z</time>
      </trkpt>
      <trkpt lat="43.78157" lon="7.10079">
        <ele>673</ele>
        <time>2018-05-03T09:06:08.000Z</time>
      </trkpt>
      <trkpt lat="43.78156" lon="7.10081">
        <ele>674</ele>
        <time>2018-05-03T09:06:15.000Z</time>
      </trkpt>
      <trkpt lat="43.78155" lon="7.10083">
        <ele>675</ele>
        <time>2018-05-03T09:06:22.000Z</time>
      </trkpt>
      <trkpt lat="43.78154" lon="7.10084">
        <ele>677</ele>
        <time>2018-05-03T09:06:26.000Z</time>
      </trkpt>
      <trkpt lat="43.78155" lon="7.10085">
        <ele>677</ele>
        <time>2018-05-03T09:06:30.000Z</time>
      </trkpt>
      <trkpt lat="43.78155" lon="7.10086">
        <ele>676</ele>
        <time>2018-05-03T09:06:33.000Z</time>
      </trkpt>
      <trkpt lat="43.78155" lon="7.10087">
        <ele>676</ele>
        <time>2018-05-03T09:06:36.000Z</time>
      </trkpt>
      <trkpt lat="43.78154" lon="7.10087">
        <ele>678</ele>
        <time>2018-05-03T09:06:40.000Z</time>
      </trkpt>
      <trkpt lat="43.78154" lon="7.10088">
        <ele>679</ele>
        <time>2018-05-03T09:06:42.000Z</time>
      </trkpt>
      <trkpt lat="43.78154" lon="7.10088">
        <ele>679</ele>
        <time>2018-05-03T09:06:46.000Z</time>
      </trkpt>
      <trkpt lat="43.78154" lon="7.1009">
        <ele>679</ele>
        <time>2018-05-03T09:06:49.000Z</time>
      </trkpt>
      <trkpt lat="43.78154" lon="7.10092">
        <ele>681</ele>
        <time>2018-05-03T09:06:53.000Z</time>
      </trkpt>
      <trkpt lat="43.78155" lon="7.10093">
        <ele>681</ele>
        <time>2018-05-03T09:06:54.000Z</time>
      </trkpt>
      <trkpt lat="43.78154" lon="7.10096">
        <ele>684</ele>
        <time>2018-05-03T09:07:00.000Z</time>
      </trkpt>
      <trkpt lat="43.78152" lon="7.10098">
        <ele>687</ele>
        <time>2018-05-03T09:07:07.000Z</time>
      </trkpt>
      <trkpt lat="43.78152" lon="7.10098">
        <ele>688</ele>
        <time>2018-05-03T09:07:08.000Z</time>
      </trkpt>
      <trkpt lat="43.78152" lon="7.10101">
        <ele>690</ele>
        <time>2018-05-03T09:07:13.000Z</time>
      </trkpt>
      <trkpt lat="43.78151" lon="7.10102">
        <ele>691</ele>
        <time>2018-05-03T09:07:16.000Z</time>
      </trkpt>
      <trkpt lat="43.7815" lon="7.10103">
        <ele>693</ele>
        <time>2018-05-03T09:07:19.000Z</time>
      </trkpt>
      <trkpt lat="43.78151" lon="7.10105">
        <ele>693</ele>
        <time>2018-05-03T09:07:22.000Z</time>
      </trkpt>
      <trkpt lat="43.78152" lon="7.10109">
        <ele>694</ele>
        <time>2018-05-03T09:07:25.000Z</time>
      </trkpt>
      <trkpt lat="43.78153" lon="7.10113">
        <ele>695</ele>
        <time>2018-05-03T09:07:29.000Z</time>
      </trkpt>
      <trkpt lat="43.78155" lon="7.10115">
        <ele>695</ele>
        <time>2018-05-03T09:07:32.000Z</time>
      </trkpt>
      <trkpt lat="43.78156" lon="7.10118">
        <ele>695</ele>
        <time>2018-05-03T09:07:36.000Z</time>
      </trkpt>
      <trkpt lat="43.78157" lon="7.1012">
        <ele>696</ele>
        <time>2018-05-03T09:07:38.000Z</time>
      </trkpt>
      <trkpt lat="43.78157" lon="7.10124">
        <ele>696</ele>
        <time>2018-05-03T09:07:42.000Z</time>
      </trkpt>
      <trkpt lat="43.78157" lon="7.10125">
        <ele>696</ele>
        <time>2018-05-03T09:07:44.000Z</time>
      </trkpt>
      <trkpt lat="43.78156" lon="7.10128">
        <ele>697</ele>
        <time>2018-05-03T09:07:50.000Z</time>
      </trkpt>
      <trkpt lat="43.78156" lon="7.1013">
        <ele>697</ele>
        <time>2018-05-03T09:07:51.000Z</time>
      </trkpt>
      <trkpt lat="43.78155" lon="7.10133">
        <ele>697</ele>
        <time>2018-05-03T09:07:57.000Z</time>
      </trkpt>
      <trkpt lat="43.78155" lon="7.10134">
        <ele>697</ele>
        <time>2018-05-03T09:07:58.000Z</time>
      </trkpt>
      <trkpt lat="43.78154" lon="7.10138">
        <ele>697</ele>
        <time>2018-05-03T09:08:04.000Z</time>
      </trkpt>
      <trkpt lat="43.78154" lon="7.10139">
        <ele>697</ele>
        <time>2018-05-03T09:08:05.000Z</time>
      </trkpt>
      <trkpt lat="43.78152" lon="7.10143">
        <ele>696</ele>
        <time>2018-05-03T09:08:12.000Z</time>
      </trkpt>
      <trkpt lat="43.78152" lon="7.10143">
        <ele>696</ele>
        <time>2018-05-03T09:08:13.000Z</time>
      </trkpt>
      <trkpt lat="43.78151" lon="7.10142">
        <ele>698</ele>
        <time>2018-05-03T09:08:16.000Z</time>
      </trkpt>
      <trkpt lat="43.78149" lon="7.10141">
        <ele>698</ele>
        <time>2018-05-03T09:08:21.000Z</time>
      </trkpt>
      <trkpt lat="43.78149" lon="7.10141">
        <ele>699</ele>
        <time>2018-05-03T09:08:22.000Z</time>
      </trkpt>
      <trkpt lat="43.78146" lon="7.10142">
        <ele>700</ele>
        <time>2018-05-03T09:08:27.000Z</time>
      </trkpt>
      <trkpt lat="43.78147" lon="7.10147">
        <ele>698</ele>
        <time>2018-05-03T09:08:32.000Z</time>
      </trkpt>
      <trkpt lat="43.78148" lon="7.10148">
        <ele>697</ele>
        <time>2018-05-03T09:08:35.000Z</time>
      </trkpt>
      <trkpt lat="43.78148" lon="7.1015">
        <ele>697</ele>
        <time>2018-05-03T09:08:38.000Z</time>
      </trkpt>
      <trkpt lat="43.78148" lon="7.10152">
        <ele>696</ele>
        <time>2018-05-03T09:08:43.000Z</time>
      </trkpt>
      <trkpt lat="43.78148" lon="7.10152">
        <ele>696</ele>
        <time>2018-05-03T09:08:44.000Z</time>
      </trkpt>
      <trkpt lat="43.78149" lon="7.10154">
        <ele>695</ele>
        <time>2018-05-03T09:08:48.000Z</time>
      </trkpt>
      <trkpt lat="43.78149" lon="7.10156">
        <ele>694</ele>
        <time>2018-05-03T09:08:52.000Z</time>
      </trkpt>
      <trkpt lat="43.7815" lon="7.10158">
        <ele>692</ele>
        <time>2018-05-03T09:08:54.000Z</time>
      </trkpt>
      <trkpt lat="43.7815" lon="7.10161">
        <ele>691</ele>
        <time>2018-05-03T09:09:01.000Z</time>
      </trkpt>
      <trkpt lat="43.78151" lon="7.10165">
        <ele>689</ele>
        <time>2018-05-03T09:09:06.000Z</time>
      </trkpt>
      <trkpt lat="43.78151" lon="7.10166">
        <ele>689</ele>
        <time>2018-05-03T09:09:09.000Z</time>
      </trkpt>
      <trkpt lat="43.78151" lon="7.10168">
        <ele>690</ele>
        <time>2018-05-03T09:09:14.000Z</time>
      </trkpt>
      <trkpt lat="43.78151" lon="7.10169">
        <ele>690</ele>
        <time>2018-05-03T09:09:15.000Z</time>
      </trkpt>
      <trkpt lat="43.78152" lon="7.10172">
        <ele>690</ele>
        <time>2018-05-03T09:09:21.000Z</time>
      </trkpt>
      <trkpt lat="43.78152" lon="7.10173">
        <ele>690</ele>
        <time>2018-05-03T09:09:22.000Z</time>
      </trkpt>
      <trkpt lat="43.78152" lon="7.10175">
        <ele>691</ele>
        <time>2018-05-03T09:09:28.000Z</time>
      </trkpt>
      <trkpt lat="43.78153" lon="7.10176">
        <ele>691</ele>
        <time>2018-05-03T09:09:29.000Z</time>
      </trkpt>
      <trkpt lat="43.78153" lon="7.10179">
        <ele>693</ele>
        <time>2018-05-03T09:09:34.000Z</time>
      </trkpt>
      <trkpt lat="43.78153" lon="7.10181">
        <ele>694</ele>
        <time>2018-05-03T09:09:36.000Z</time>
      </trkpt>
      <trkpt lat="43.78153" lon="7.10185">
        <ele>696</ele>
        <time>2018-05-03T09:09:41.000Z</time>
      </trkpt>
      <trkpt lat="43.78153" lon="7.1019">
        <ele>698</ele>
        <time>2018-05-03T09:09:45.000Z</time>
      </trkpt>
      <trkpt lat="43.78153" lon="7.10194">
        <ele>700</ele>
        <time>2018-05-03T09:09:49.000Z</time>
      </trkpt>
      <trkpt lat="43.78153" lon="7.10198">
        <ele>701</ele>
        <time>2018-05-03T09:09:53.000Z</time>
      </trkpt>
      <trkpt lat="43.78153" lon="7.10203">
        <ele>703</ele>
        <time>2018-05-03T09:09:57.000Z</time>
      </trkpt>
      <trkpt lat="43.78153" lon="7.10206">
        <ele>703</ele>
        <time>2018-05-03T09:10:00.000Z</time>
      </trkpt>
      <trkpt lat="43.78154" lon="7.10208">
        <ele>703</ele>
        <time>2018-05-03T09:10:02.000Z</time>
      </trkpt>
      <trkpt lat="43.78155" lon="7.10211">
        <ele>703</ele>
        <time>2018-05-03T09:10:05.000Z</time>
      </trkpt>
      <trkpt lat="43.78155" lon="7.10217">
        <ele>703</ele>
        <time>2018-05-03T09:10:10.000Z</time>
      </trkpt>
      <trkpt lat="43.78154" lon="7.10219">
        <ele>703</ele>
        <time>2018-05-03T09:10:12.000Z</time>
      </trkpt>
      <trkpt lat="43.78153" lon="7.10225">
        <ele>702</ele>
        <time>2018-05-03T09:10:18.000Z</time>
      </trkpt>
      <trkpt lat="43.78153" lon="7.10227">
        <ele>702</ele>
        <time>2018-05-03T09:10:20.000Z</time>
      </trkpt>
      <trkpt lat="43.78153" lon="7.1023">
        <ele>701</ele>
        <time>2018-05-03T09:10:24.000Z</time>
      </trkpt>
      <trkpt lat="43.78153" lon="7.10232">
        <ele>701</ele>
        <time>2018-05-03T09:10:26.000Z</time>
      </trkpt>
      <trkpt lat="43.78152" lon="7.10239">
        <ele>699</ele>
        <time>2018-05-03T09:10:32.000Z</time>
      </trkpt>
      <trkpt lat="43.78152" lon="7.10244">
        <ele>698</ele>
        <time>2018-05-03T09:10:35.000Z</time>
      </trkpt>
      <trkpt lat="43.78153" lon="7.1025">
        <ele>697</ele>
        <time>2018-05-03T09:10:39.000Z</time>
      </trkpt>
      <trkpt lat="43.78153" lon="7.10255">
        <ele>700</ele>
        <time>2018-05-03T09:10:43.000Z</time>
      </trkpt>
      <trkpt lat="43.78153" lon="7.10259">
        <ele>701</ele>
        <time>2018-05-03T09:10:46.000Z</time>
      </trkpt>
      <trkpt lat="43.78153" lon="7.10267">
        <ele>705</ele>
        <time>2018-05-03T09:10:52.000Z</time>
      </trkpt>
      <trkpt lat="43.78153" lon="7.10271">
        <ele>706</ele>
        <time>2018-05-03T09:10:55.000Z</time>
      </trkpt>
      <trkpt lat="43.78154" lon="7.10275">
        <ele>707</ele>
        <time>2018-05-03T09:10:58.000Z</time>
      </trkpt>
      <trkpt lat="43.78155" lon="7.10282">
        <ele>709</ele>
        <time>2018-05-03T09:11:03.000Z</time>
      </trkpt>
      <trkpt lat="43.78156" lon="7.10285">
        <ele>710</ele>
        <time>2018-05-03T09:11:05.000Z</time>
      </trkpt>
      <trkpt lat="43.78156" lon="7.10287">
        <ele>710</ele>
        <time>2018-05-03T09:11:07.000Z</time>
      </trkpt>
      <trkpt lat="43.78156" lon="7.1029">
        <ele>711</ele>
        <time>2018-05-03T09:11:10.000Z</time>
      </trkpt>
      <trkpt lat="43.78156" lon="7.10291">
        <ele>711</ele>
        <time>2018-05-03T09:11:13.000Z</time>
      </trkpt>
      <trkpt lat="43.78157" lon="7.10293">
        <ele>711</ele>
        <time>2018-05-03T09:11:20.000Z</time>
      </trkpt>
      <trkpt lat="43.78158" lon="7.10301">
        <ele>711</ele>
        <time>2018-05-03T09:11:27.000Z</time>
      </trkpt>
      <trkpt lat="43.78158" lon="7.10304">
        <ele>711</ele>
        <time>2018-05-03T09:11:30.000Z</time>
      </trkpt>
      <trkpt lat="43.78157" lon="7.1031">
        <ele>710</ele>
        <time>2018-05-03T09:11:36.000Z</time>
      </trkpt>
      <trkpt lat="43.78158" lon="7.10314">
        <ele>710</ele>
        <time>2018-05-03T09:11:39.000Z</time>
      </trkpt>
      <trkpt lat="43.78158" lon="7.10318">
        <ele>709</ele>
        <time>2018-05-03T09:11:43.000Z</time>
      </trkpt>
      <trkpt lat="43.78158" lon="7.10323">
        <ele>707</ele>
        <time>2018-05-03T09:11:47.000Z</time>
      </trkpt>
      <trkpt lat="43.78158" lon="7.10325">
        <ele>706</ele>
        <time>2018-05-03T09:11:49.000Z</time>
      </trkpt>
      <trkpt lat="43.78157" lon="7.10329">
        <ele>706</ele>
        <time>2018-05-03T09:11:52.000Z</time>
      </trkpt>
      <trkpt lat="43.78158" lon="7.10334">
        <ele>706</ele>
        <time>2018-05-03T09:11:58.000Z</time>
      </trkpt>
      <trkpt lat="43.78158" lon="7.10335">
        <ele>706</ele>
        <time>2018-05-03T09:11:59.000Z</time>
      </trkpt>
      <trkpt lat="43.78157" lon="7.10339">
        <ele>708</ele>
        <time>2018-05-03T09:12:06.000Z</time>
      </trkpt>
      <trkpt lat="43.78156" lon="7.10335">
        <ele>708</ele>
        <time>2018-05-03T09:12:12.000Z</time>
      </trkpt>
      <trkpt lat="43.78156" lon="7.10334">
        <ele>708</ele>
        <time>2018-05-03T09:12:13.000Z</time>
      </trkpt>
      <trkpt lat="43.78156" lon="7.1033">
        <ele>706</ele>
        <time>2018-05-03T09:12:20.000Z</time>
      </trkpt>
      <trkpt lat="43.78154" lon="7.10331">
        <ele>707</ele>
        <time>2018-05-03T09:12:23.000Z</time>
      </trkpt>
      <trkpt lat="43.78154" lon="7.10333">
        <ele>707</ele>
        <time>2018-05-03T09:12:26.000Z</time>
      </trkpt>
      <trkpt lat="43.78154" lon="7.10336">
        <ele>709</ele>
        <time>2018-05-03T09:12:30.000Z</time>
      </trkpt>
      <trkpt lat="43.78154" lon="7.10339">
        <ele>710</ele>
        <time>2018-05-03T09:12:33.000Z</time>
      </trkpt>
      <trkpt lat="43.78154" lon="7.10341">
        <ele>711</ele>
        <time>2018-05-03T09:12:36.000Z</time>
      </trkpt>
      <trkpt lat="43.78153" lon="7.10344">
        <ele>712</ele>
        <time>2018-05-03T09:12:40.000Z</time>
      </trkpt>
      <trkpt lat="43.78153" lon="7.10347">
        <ele>713</ele>
        <time>2018-05-03T09:12:43.000Z</time>
      </trkpt>
      <trkpt lat="43.78152" lon="7.10348">
        <ele>713</ele>
        <time>2018-05-03T09:12:46.000Z</time>
      </trkpt>
      <trkpt lat="43.78152" lon="7.10352">
        <ele>715</ele>
        <time>2018-05-03T09:12:56.000Z</time>
      </trkpt>
      <trkpt lat="43.78152" lon="7.10353">
        <ele>715</ele>
        <time>2018-05-03T09:12:57.000Z</time>
      </trkpt>
      <trkpt lat="43.78152" lon="7.1036">
        <ele>716</ele>
        <time>2018-05-03T09:13:04.000Z</time>
      </trkpt>
      <trkpt lat="43.78151" lon="7.10361">
        <ele>717</ele>
        <time>2018-05-03T09:13:05.000Z</time>
      </trkpt>
      <trkpt lat="43.7815" lon="7.10367">
        <ele>718</ele>
        <time>2018-05-03T09:13:11.000Z</time>
      </trkpt>
      <trkpt lat="43.7815" lon="7.10369">
        <ele>718</ele>
        <time>2018-05-03T09:13:13.000Z</time>
      </trkpt>
      <trkpt lat="43.78149" lon="7.10372">
        <ele>718</ele>
        <time>2018-05-03T09:13:17.000Z</time>
      </trkpt>
      <trkpt lat="43.78149" lon="7.10377">
        <ele>719</ele>
        <time>2018-05-03T09:13:21.000Z</time>
      </trkpt>
      <trkpt lat="43.78149" lon="7.10379">
        <ele>719</ele>
        <time>2018-05-03T09:13:23.000Z</time>
      </trkpt>
      <trkpt lat="43.78149" lon="7.10383">
        <ele>718</ele>
        <time>2018-05-03T09:13:27.000Z</time>
      </trkpt>
      <trkpt lat="43.78149" lon="7.10386">
        <ele>718</ele>
        <time>2018-05-03T09:13:30.000Z</time>
      </trkpt>
      <trkpt lat="43.78149" lon="7.10388">
        <ele>718</ele>
        <time>2018-05-03T09:13:31.000Z</time>
      </trkpt>
      <trkpt lat="43.78148" lon="7.10392">
        <ele>718</ele>
        <time>2018-05-03T09:13:36.000Z</time>
      </trkpt>
      <trkpt lat="43.78148" lon="7.10393">
        <ele>718</ele>
        <time>2018-05-03T09:13:37.000Z</time>
      </trkpt>
      <trkpt lat="43.78147" lon="7.10403">
        <ele>717</ele>
        <time>2018-05-03T09:13:43.000Z</time>
      </trkpt>
      <trkpt lat="43.78145" lon="7.10411">
        <ele>717</ele>
        <time>2018-05-03T09:13:48.000Z</time>
      </trkpt>
      <trkpt lat="43.78145" lon="7.10412">
        <ele>716</ele>
        <time>2018-05-03T09:13:49.000Z</time>
      </trkpt>
      <trkpt lat="43.78146" lon="7.10413">
        <ele>716</ele>
        <time>2018-05-03T09:13:50.000Z</time>
      </trkpt>
      <trkpt lat="43.78146" lon="7.10418">
        <ele>716</ele>
        <time>2018-05-03T09:13:53.000Z</time>
      </trkpt>
      <trkpt lat="43.78147" lon="7.10424">
        <ele>716</ele>
        <time>2018-05-03T09:13:58.000Z</time>
      </trkpt>
      <trkpt lat="43.78147" lon="7.10425">
        <ele>716</ele>
        <time>2018-05-03T09:13:59.000Z</time>
      </trkpt>
      <trkpt lat="43.78147" lon="7.10427">
        <ele>716</ele>
        <time>2018-05-03T09:14:04.000Z</time>
      </trkpt>
      <trkpt lat="43.78146" lon="7.10428">
        <ele>717</ele>
        <time>2018-05-03T09:14:19.000Z</time>
      </trkpt>
      <trkpt lat="43.78146" lon="7.1043">
        <ele>717</ele>
        <time>2018-05-03T09:14:25.000Z</time>
      </trkpt>
      <trkpt lat="43.78143" lon="7.10437">
        <ele>718</ele>
        <time>2018-05-03T09:14:31.000Z</time>
      </trkpt>
      <trkpt lat="43.78142" lon="7.10449">
        <ele>720</ele>
        <time>2018-05-03T09:14:38.000Z</time>
      </trkpt>
      <trkpt lat="43.78142" lon="7.1045">
        <ele>720</ele>
        <time>2018-05-03T09:14:39.000Z</time>
      </trkpt>
      <trkpt lat="43.7814" lon="7.10462">
        <ele>720</ele>
        <time>2018-05-03T09:14:45.000Z</time>
      </trkpt>
      <trkpt lat="43.78136" lon="7.10477">
        <ele>721</ele>
        <time>2018-05-03T09:14:52.000Z</time>
      </trkpt>
      <trkpt lat="43.78135" lon="7.10479">
        <ele>721</ele>
        <time>2018-05-03T09:14:53.000Z</time>
      </trkpt>
      <trkpt lat="43.78133" lon="7.10488">
        <ele>721</ele>
        <time>2018-05-03T09:14:57.000Z</time>
      </trkpt>
      <trkpt lat="43.78133" lon="7.1049">
        <ele>721</ele>
        <time>2018-05-03T09:14:58.000Z</time>
      </trkpt>
      <trkpt lat="43.78131" lon="7.10494">
        <ele>721</ele>
        <time>2018-05-03T09:15:00.000Z</time>
      </trkpt>
      <trkpt lat="43.78131" lon="7.10499">
        <ele>721</ele>
        <time>2018-05-03T09:15:02.000Z</time>
      </trkpt>
      <trkpt lat="43.78128" lon="7.10518">
        <ele>719</ele>
        <time>2018-05-03T09:15:09.000Z</time>
      </trkpt>
      <trkpt lat="43.78125" lon="7.10536">
        <ele>718</ele>
        <time>2018-05-03T09:15:16.000Z</time>
      </trkpt>
      <trkpt lat="43.78124" lon="7.10546">
        <ele>718</ele>
        <time>2018-05-03T09:15:20.000Z</time>
      </trkpt>
      <trkpt lat="43.78122" lon="7.10557">
        <ele>718</ele>
        <time>2018-05-03T09:15:24.000Z</time>
      </trkpt>
      <trkpt lat="43.78118" lon="7.10573">
        <ele>719</ele>
        <time>2018-05-03T09:15:31.000Z</time>
      </trkpt>
      <trkpt lat="43.78111" lon="7.10591">
        <ele>712</ele>
        <time>2018-05-03T09:15:38.000Z</time>
      </trkpt>
      <trkpt lat="43.78102" lon="7.10605">
        <ele>712</ele>
        <time>2018-05-03T09:15:45.000Z</time>
      </trkpt>
      <trkpt lat="43.781" lon="7.10606">
        <ele>713</ele>
        <time>2018-05-03T09:15:46.000Z</time>
      </trkpt>
      <trkpt lat="43.78094" lon="7.10612">
        <ele>712</ele>
        <time>2018-05-03T09:15:51.000Z</time>
      </trkpt>
      <trkpt lat="43.78093" lon="7.10613">
        <ele>712</ele>
        <time>2018-05-03T09:15:52.000Z</time>
      </trkpt>
      <trkpt lat="43.78089" lon="7.10616">
        <ele>712</ele>
        <time>2018-05-03T09:15:55.000Z</time>
      </trkpt>
      <trkpt lat="43.78087" lon="7.10618">
        <ele>712</ele>
        <time>2018-05-03T09:15:57.000Z</time>
      </trkpt>
      <trkpt lat="43.78079" lon="7.10619">
        <ele>723</ele>
        <time>2018-05-03T09:16:03.000Z</time>
      </trkpt>
      <trkpt lat="43.78073" lon="7.10618">
        <ele>724</ele>
        <time>2018-05-03T09:16:08.000Z</time>
      </trkpt>
      <trkpt lat="43.78071" lon="7.10617">
        <ele>724</ele>
        <time>2018-05-03T09:16:10.000Z</time>
      </trkpt>
      <trkpt lat="43.78064" lon="7.10614">
        <ele>724</ele>
        <time>2018-05-03T09:16:15.000Z</time>
      </trkpt>
      <trkpt lat="43.78063" lon="7.10614">
        <ele>724</ele>
        <time>2018-05-03T09:16:16.000Z</time>
      </trkpt>
      <trkpt lat="43.78052" lon="7.10607">
        <ele>725</ele>
        <time>2018-05-03T09:16:24.000Z</time>
      </trkpt>
      <trkpt lat="43.78049" lon="7.10605">
        <ele>725</ele>
        <time>2018-05-03T09:16:27.000Z</time>
      </trkpt>
      <trkpt lat="43.78043" lon="7.10601">
        <ele>725</ele>
        <time>2018-05-03T09:16:31.000Z</time>
      </trkpt>
      <trkpt lat="43.7804" lon="7.10598">
        <ele>725</ele>
        <time>2018-05-03T09:16:34.000Z</time>
      </trkpt>
      <trkpt lat="43.78035" lon="7.10592">
        <ele>726</ele>
        <time>2018-05-03T09:16:39.000Z</time>
      </trkpt>
      <trkpt lat="43.78032" lon="7.10587">
        <ele>726</ele>
        <time>2018-05-03T09:16:42.000Z</time>
      </trkpt>
      <trkpt lat="43.78026" lon="7.10582">
        <ele>736</ele>
        <time>2018-05-03T09:16:46.000Z</time>
      </trkpt>
      <trkpt lat="43.78015" lon="7.10573">
        <ele>735</ele>
        <time>2018-05-03T09:16:53.000Z</time>
      </trkpt>
      <trkpt lat="43.78001" lon="7.10566">
        <ele>735</ele>
        <time>2018-05-03T09:17:01.000Z</time>
      </trkpt>
      <trkpt lat="43.77986" lon="7.10563">
        <ele>736</ele>
        <time>2018-05-03T09:17:09.000Z</time>
      </trkpt>
      <trkpt lat="43.77981" lon="7.10562">
        <ele>737</ele>
        <time>2018-05-03T09:17:12.000Z</time>
      </trkpt>
      <trkpt lat="43.77968" lon="7.10558">
        <ele>737</ele>
        <time>2018-05-03T09:17:19.000Z</time>
      </trkpt>
      <trkpt lat="43.77966" lon="7.10557">
        <ele>737</ele>
        <time>2018-05-03T09:17:20.000Z</time>
      </trkpt>
      <trkpt lat="43.77954" lon="7.10554">
        <ele>737</ele>
        <time>2018-05-03T09:17:27.000Z</time>
      </trkpt>
      <trkpt lat="43.77952" lon="7.10554">
        <ele>737</ele>
        <time>2018-05-03T09:17:28.000Z</time>
      </trkpt>
      <trkpt lat="43.77941" lon="7.10554">
        <ele>737</ele>
        <time>2018-05-03T09:17:34.000Z</time>
      </trkpt>
      <trkpt lat="43.77922" lon="7.10553">
        <ele>737</ele>
        <time>2018-05-03T09:17:43.000Z</time>
      </trkpt>
      <trkpt lat="43.77903" lon="7.10551">
        <ele>738</ele>
        <time>2018-05-03T09:17:51.000Z</time>
      </trkpt>
      <trkpt lat="43.7789" lon="7.10551">
        <ele>739</ele>
        <time>2018-05-03T09:17:57.000Z</time>
      </trkpt>
      <trkpt lat="43.77888" lon="7.10551">
        <ele>739</ele>
        <time>2018-05-03T09:17:58.000Z</time>
      </trkpt>
      <trkpt lat="43.77878" lon="7.10552">
        <ele>739</ele>
        <time>2018-05-03T09:18:04.000Z</time>
      </trkpt>
      <trkpt lat="43.77874" lon="7.10552">
        <ele>739</ele>
        <time>2018-05-03T09:18:06.000Z</time>
      </trkpt>
      <trkpt lat="43.77866" lon="7.10552">
        <ele>739</ele>
        <time>2018-05-03T09:18:11.000Z</time>
      </trkpt>
      <trkpt lat="43.77851" lon="7.10555">
        <ele>739</ele>
        <time>2018-05-03T09:18:19.000Z</time>
      </trkpt>
      <trkpt lat="43.77838" lon="7.10557">
        <ele>739</ele>
        <time>2018-05-03T09:18:25.000Z</time>
      </trkpt>
      <trkpt lat="43.77822" lon="7.10557">
        <ele>741</ele>
        <time>2018-05-03T09:18:31.000Z</time>
      </trkpt>
      <trkpt lat="43.77811" lon="7.10558">
        <ele>741</ele>
        <time>2018-05-03T09:18:36.000Z</time>
      </trkpt>
      <trkpt lat="43.77792" lon="7.10568">
        <ele>741</ele>
        <time>2018-05-03T09:18:43.000Z</time>
      </trkpt>
      <trkpt lat="43.77776" lon="7.1058">
        <ele>740</ele>
        <time>2018-05-03T09:18:50.000Z</time>
      </trkpt>
      <trkpt lat="43.77762" lon="7.10592">
        <ele>731</ele>
        <time>2018-05-03T09:18:55.000Z</time>
      </trkpt>
      <trkpt lat="43.77754" lon="7.10596">
        <ele>731</ele>
        <time>2018-05-03T09:18:57.000Z</time>
      </trkpt>
      <trkpt lat="43.77749" lon="7.10597">
        <ele>731</ele>
        <time>2018-05-03T09:18:58.000Z</time>
      </trkpt>
      <trkpt lat="43.77737" lon="7.10599">
        <ele>729</ele>
        <time>2018-05-03T09:19:00.000Z</time>
      </trkpt>
      <trkpt lat="43.77732" lon="7.10599">
        <ele>728</ele>
        <time>2018-05-03T09:19:01.000Z</time>
      </trkpt>
      <trkpt lat="43.7772" lon="7.106">
        <ele>727</ele>
        <time>2018-05-03T09:19:03.000Z</time>
      </trkpt>
      <trkpt lat="43.77709" lon="7.10601">
        <ele>727</ele>
        <time>2018-05-03T09:19:05.000Z</time>
      </trkpt>
      <trkpt lat="43.77704" lon="7.10602">
        <ele>726</ele>
        <time>2018-05-03T09:19:06.000Z</time>
      </trkpt>
      <trkpt lat="43.77692" lon="7.10607">
        <ele>726</ele>
        <time>2018-05-03T09:19:08.000Z</time>
      </trkpt>
      <trkpt lat="43.77687" lon="7.1061">
        <ele>726</ele>
        <time>2018-05-03T09:19:09.000Z</time>
      </trkpt>
      <trkpt lat="43.77681" lon="7.10611">
        <ele>725</ele>
        <time>2018-05-03T09:19:10.000Z</time>
      </trkpt>
      <trkpt lat="43.7767" lon="7.10614">
        <ele>725</ele>
        <time>2018-05-03T09:19:12.000Z</time>
      </trkpt>
      <trkpt lat="43.77654" lon="7.10616">
        <ele>722</ele>
        <time>2018-05-03T09:19:15.000Z</time>
      </trkpt>
      <trkpt lat="43.77635" lon="7.10611">
        <ele>721</ele>
        <time>2018-05-03T09:19:18.000Z</time>
      </trkpt>
      <trkpt lat="43.77629" lon="7.10608">
        <ele>721</ele>
        <time>2018-05-03T09:19:19.000Z</time>
      </trkpt>
      <trkpt lat="43.77611" lon="7.10601">
        <ele>721</ele>
        <time>2018-05-03T09:19:22.000Z</time>
      </trkpt>
      <trkpt lat="43.77605" lon="7.10598">
        <ele>721</ele>
        <time>2018-05-03T09:19:23.000Z</time>
      </trkpt>
      <trkpt lat="43.776" lon="7.10595">
        <ele>722</ele>
        <time>2018-05-03T09:19:24.000Z</time>
      </trkpt>
      <trkpt lat="43.77595" lon="7.10591">
        <ele>722</ele>
        <time>2018-05-03T09:19:25.000Z</time>
      </trkpt>
      <trkpt lat="43.77585" lon="7.10584">
        <ele>724</ele>
        <time>2018-05-03T09:19:27.000Z</time>
      </trkpt>
      <trkpt lat="43.77575" lon="7.10576">
        <ele>724</ele>
        <time>2018-05-03T09:19:29.000Z</time>
      </trkpt>
      <trkpt lat="43.77571" lon="7.10572">
        <ele>725</ele>
        <time>2018-05-03T09:19:30.000Z</time>
      </trkpt>
      <trkpt lat="43.77553" lon="7.10552">
        <ele>725</ele>
        <time>2018-05-03T09:19:34.000Z</time>
      </trkpt>
      <trkpt lat="43.77548" lon="7.10549">
        <ele>725</ele>
        <time>2018-05-03T09:19:35.000Z</time>
      </trkpt>
      <trkpt lat="43.77533" lon="7.10544">
        <ele>725</ele>
        <time>2018-05-03T09:19:38.000Z</time>
      </trkpt>
      <trkpt lat="43.7752" lon="7.10538">
        <ele>724</ele>
        <time>2018-05-03T09:19:41.000Z</time>
      </trkpt>
      <trkpt lat="43.77496" lon="7.10522">
        <ele>720</ele>
        <time>2018-05-03T09:19:47.000Z</time>
      </trkpt>
      <trkpt lat="43.77485" lon="7.10512">
        <ele>720</ele>
        <time>2018-05-03T09:19:50.000Z</time>
      </trkpt>
      <trkpt lat="43.77479" lon="7.10506">
        <ele>720</ele>
        <time>2018-05-03T09:19:52.000Z</time>
      </trkpt>
      <trkpt lat="43.77475" lon="7.10502">
        <ele>719</ele>
        <time>2018-05-03T09:19:53.000Z</time>
      </trkpt>
      <trkpt lat="43.7747" lon="7.10493">
        <ele>724</ele>
        <time>2018-05-03T09:19:55.000Z</time>
      </trkpt>
      <trkpt lat="43.77466" lon="7.10483">
        <ele>724</ele>
        <time>2018-05-03T09:19:57.000Z</time>
      </trkpt>
      <trkpt lat="43.77463" lon="7.10478">
        <ele>724</ele>
        <time>2018-05-03T09:19:58.000Z</time>
      </trkpt>
      <trkpt lat="43.77454" lon="7.10471">
        <ele>724</ele>
        <time>2018-05-03T09:20:00.000Z</time>
      </trkpt>
      <trkpt lat="43.77443" lon="7.10464">
        <ele>723</ele>
        <time>2018-05-03T09:20:03.000Z</time>
      </trkpt>
      <trkpt lat="43.77428" lon="7.10456">
        <ele>723</ele>
        <time>2018-05-03T09:20:07.000Z</time>
      </trkpt>
      <trkpt lat="43.774" lon="7.10444">
        <ele>717</ele>
        <time>2018-05-03T09:20:15.000Z</time>
      </trkpt>
      <trkpt lat="43.77386" lon="7.10442">
        <ele>717</ele>
        <time>2018-05-03T09:20:18.000Z</time>
      </trkpt>
      <trkpt lat="43.77375" lon="7.10441">
        <ele>716</ele>
        <time>2018-05-03T09:20:20.000Z</time>
      </trkpt>
      <trkpt lat="43.77369" lon="7.10442">
        <ele>716</ele>
        <time>2018-05-03T09:20:21.000Z</time>
      </trkpt>
      <trkpt lat="43.77357" lon="7.10441">
        <ele>715</ele>
        <time>2018-05-03T09:20:23.000Z</time>
      </trkpt>
      <trkpt lat="43.77347" lon="7.1044">
        <ele>715</ele>
        <time>2018-05-03T09:20:25.000Z</time>
      </trkpt>
      <trkpt lat="43.77331" lon="7.10438">
        <ele>712</ele>
        <time>2018-05-03T09:20:28.000Z</time>
      </trkpt>
      <trkpt lat="43.77319" lon="7.1043">
        <ele>712</ele>
        <time>2018-05-03T09:20:30.000Z</time>
      </trkpt>
      <trkpt lat="43.77307" lon="7.10426">
        <ele>712</ele>
        <time>2018-05-03T09:20:32.000Z</time>
      </trkpt>
      <trkpt lat="43.77302" lon="7.10424">
        <ele>712</ele>
        <time>2018-05-03T09:20:33.000Z</time>
      </trkpt>
      <trkpt lat="43.77293" lon="7.10421">
        <ele>712</ele>
        <time>2018-05-03T09:20:35.000Z</time>
      </trkpt>
      <trkpt lat="43.77289" lon="7.10419">
        <ele>712</ele>
        <time>2018-05-03T09:20:36.000Z</time>
      </trkpt>
      <trkpt lat="43.7728" lon="7.10409">
        <ele>712</ele>
        <time>2018-05-03T09:20:39.000Z</time>
      </trkpt>
      <trkpt lat="43.77275" lon="7.10401">
        <ele>711</ele>
        <time>2018-05-03T09:20:41.000Z</time>
      </trkpt>
      <trkpt lat="43.77271" lon="7.10393">
        <ele>711</ele>
        <time>2018-05-03T09:20:43.000Z</time>
      </trkpt>
      <trkpt lat="43.77263" lon="7.10381">
        <ele>711</ele>
        <time>2018-05-03T09:20:46.000Z</time>
      </trkpt>
      <trkpt lat="43.77248" lon="7.10371">
        <ele>710</ele>
        <time>2018-05-03T09:20:51.000Z</time>
      </trkpt>
      <trkpt lat="43.7724" lon="7.10368">
        <ele>710</ele>
        <time>2018-05-03T09:20:54.000Z</time>
      </trkpt>
      <trkpt lat="43.77224" lon="7.10361">
        <ele>710</ele>
        <time>2018-05-03T09:20:59.000Z</time>
      </trkpt>
      <trkpt lat="43.77217" lon="7.10356">
        <ele>710</ele>
        <time>2018-05-03T09:21:01.000Z</time>
      </trkpt>
      <trkpt lat="43.77208" lon="7.10344">
        <ele>710</ele>
        <time>2018-05-03T09:21:04.000Z</time>
      </trkpt>
      <trkpt lat="43.77204" lon="7.1034">
        <ele>710</ele>
        <time>2018-05-03T09:21:05.000Z</time>
      </trkpt>
      <trkpt lat="43.77196" lon="7.10333">
        <ele>709</ele>
        <time>2018-05-03T09:21:07.000Z</time>
      </trkpt>
      <trkpt lat="43.77189" lon="7.10327">
        <ele>709</ele>
        <time>2018-05-03T09:21:09.000Z</time>
      </trkpt>
      <trkpt lat="43.7718" lon="7.10322">
        <ele>709</ele>
        <time>2018-05-03T09:21:11.000Z</time>
      </trkpt>
      <trkpt lat="43.7717" lon="7.10319">
        <ele>709</ele>
        <time>2018-05-03T09:21:13.000Z</time>
      </trkpt>
      <trkpt lat="43.77157" lon="7.10314">
        <ele>709</ele>
        <time>2018-05-03T09:21:16.000Z</time>
      </trkpt>
      <trkpt lat="43.7714" lon="7.10309">
        <ele>709</ele>
        <time>2018-05-03T09:21:20.000Z</time>
      </trkpt>
      <trkpt lat="43.77128" lon="7.10302">
        <ele>709</ele>
        <time>2018-05-03T09:21:23.000Z</time>
      </trkpt>
      <trkpt lat="43.77123" lon="7.10299">
        <ele>709</ele>
        <time>2018-05-03T09:21:24.000Z</time>
      </trkpt>
      <trkpt lat="43.77119" lon="7.10296">
        <ele>709</ele>
        <time>2018-05-03T09:21:25.000Z</time>
      </trkpt>
      <trkpt lat="43.77106" lon="7.10288">
        <ele>709</ele>
        <time>2018-05-03T09:21:28.000Z</time>
      </trkpt>
      <trkpt lat="43.77102" lon="7.10286">
        <ele>709</ele>
        <time>2018-05-03T09:21:29.000Z</time>
      </trkpt>
      <trkpt lat="43.77089" lon="7.10272">
        <ele>708</ele>
        <time>2018-05-03T09:21:33.000Z</time>
      </trkpt>
      <trkpt lat="43.77076" lon="7.10264">
        <ele>707</ele>
        <time>2018-05-03T09:21:37.000Z</time>
      </trkpt>
      <trkpt lat="43.77055" lon="7.10257">
        <ele>707</ele>
        <time>2018-05-03T09:21:42.000Z</time>
      </trkpt>
      <trkpt lat="43.7705" lon="7.10253">
        <ele>707</ele>
        <time>2018-05-03T09:21:43.000Z</time>
      </trkpt>
      <trkpt lat="43.77035" lon="7.10244">
        <ele>706</ele>
        <time>2018-05-03T09:21:46.000Z</time>
      </trkpt>
      <trkpt lat="43.77026" lon="7.10238">
        <ele>706</ele>
        <time>2018-05-03T09:21:48.000Z</time>
      </trkpt>
      <trkpt lat="43.77018" lon="7.10233">
        <ele>706</ele>
        <time>2018-05-03T09:21:50.000Z</time>
      </trkpt>
      <trkpt lat="43.77014" lon="7.1023">
        <ele>706</ele>
        <time>2018-05-03T09:21:51.000Z</time>
      </trkpt>
      <trkpt lat="43.77011" lon="7.10227">
        <ele>706</ele>
        <time>2018-05-03T09:21:52.000Z</time>
      </trkpt>
      <trkpt lat="43.77001" lon="7.1021">
        <ele>706</ele>
        <time>2018-05-03T09:21:55.000Z</time>
      </trkpt>
      <trkpt lat="43.76997" lon="7.10206">
        <ele>703</ele>
        <time>2018-05-03T09:21:56.000Z</time>
      </trkpt>
      <trkpt lat="43.76992" lon="7.10201">
        <ele>703</ele>
        <time>2018-05-03T09:21:57.000Z</time>
      </trkpt>
      <trkpt lat="43.76988" lon="7.10198">
        <ele>703</ele>
        <time>2018-05-03T09:21:58.000Z</time>
      </trkpt>
      <trkpt lat="43.76984" lon="7.10194">
        <ele>703</ele>
        <time>2018-05-03T09:21:59.000Z</time>
      </trkpt>
      <trkpt lat="43.76976" lon="7.10188">
        <ele>703</ele>
        <time>2018-05-03T09:22:01.000Z</time>
      </trkpt>
      <trkpt lat="43.76972" lon="7.10186">
        <ele>702</ele>
        <time>2018-05-03T09:22:02.000Z</time>
      </trkpt>
      <trkpt lat="43.76968" lon="7.10186">
        <ele>702</ele>
        <time>2018-05-03T09:22:03.000Z</time>
      </trkpt>
      <trkpt lat="43.76963" lon="7.10185">
        <ele>702</ele>
        <time>2018-05-03T09:22:04.000Z</time>
      </trkpt>
      <trkpt lat="43.76953" lon="7.10184">
        <ele>702</ele>
        <time>2018-05-03T09:22:06.000Z</time>
      </trkpt>
      <trkpt lat="43.76933" lon="7.10185">
        <ele>701</ele>
        <time>2018-05-03T09:22:10.000Z</time>
      </trkpt>
      <trkpt lat="43.76918" lon="7.1019">
        <ele>700</ele>
        <time>2018-05-03T09:22:13.000Z</time>
      </trkpt>
      <trkpt lat="43.76902" lon="7.10192">
        <ele>698</ele>
        <time>2018-05-03T09:22:16.000Z</time>
      </trkpt>
      <trkpt lat="43.76897" lon="7.10192">
        <ele>697</ele>
        <time>2018-05-03T09:22:17.000Z</time>
      </trkpt>
      <trkpt lat="43.76892" lon="7.10185">
        <ele>697</ele>
        <time>2018-05-03T09:22:18.000Z</time>
      </trkpt>
      <trkpt lat="43.76888" lon="7.10181">
        <ele>697</ele>
        <time>2018-05-03T09:22:19.000Z</time>
      </trkpt>
      <trkpt lat="43.76884" lon="7.10177">
        <ele>697</ele>
        <time>2018-05-03T09:22:20.000Z</time>
      </trkpt>
      <trkpt lat="43.76875" lon="7.10174">
        <ele>697</ele>
        <time>2018-05-03T09:22:22.000Z</time>
      </trkpt>
      <trkpt lat="43.7687" lon="7.10175">
        <ele>697</ele>
        <time>2018-05-03T09:22:23.000Z</time>
      </trkpt>
      <trkpt lat="43.76866" lon="7.10176">
        <ele>697</ele>
        <time>2018-05-03T09:22:24.000Z</time>
      </trkpt>
      <trkpt lat="43.76861" lon="7.10177">
        <ele>696</ele>
        <time>2018-05-03T09:22:25.000Z</time>
      </trkpt>
      <trkpt lat="43.76857" lon="7.10179">
        <ele>696</ele>
        <time>2018-05-03T09:22:26.000Z</time>
      </trkpt>
      <trkpt lat="43.76842" lon="7.10184">
        <ele>696</ele>
        <time>2018-05-03T09:22:29.000Z</time>
      </trkpt>
      <trkpt lat="43.76837" lon="7.10183">
        <ele>696</ele>
        <time>2018-05-03T09:22:30.000Z</time>
      </trkpt>
      <trkpt lat="43.76831" lon="7.10183">
        <ele>694</ele>
        <time>2018-05-03T09:22:31.000Z</time>
      </trkpt>
      <trkpt lat="43.76826" lon="7.10183">
        <ele>694</ele>
        <time>2018-05-03T09:22:32.000Z</time>
      </trkpt>
      <trkpt lat="43.76821" lon="7.10183">
        <ele>694</ele>
        <time>2018-05-03T09:22:33.000Z</time>
      </trkpt>
      <trkpt lat="43.76815" lon="7.10183">
        <ele>694</ele>
        <time>2018-05-03T09:22:34.000Z</time>
      </trkpt>
      <trkpt lat="43.76802" lon="7.10181">
        <ele>694</ele>
        <time>2018-05-03T09:22:36.000Z</time>
      </trkpt>
      <trkpt lat="43.76797" lon="7.1018">
        <ele>693</ele>
        <time>2018-05-03T09:22:37.000Z</time>
      </trkpt>
      <trkpt lat="43.76791" lon="7.10181">
        <ele>693</ele>
        <time>2018-05-03T09:22:38.000Z</time>
      </trkpt>
      <trkpt lat="43.76779" lon="7.10181">
        <ele>693</ele>
        <time>2018-05-03T09:22:40.000Z</time>
      </trkpt>
      <trkpt lat="43.76768" lon="7.10187">
        <ele>693</ele>
        <time>2018-05-03T09:22:42.000Z</time>
      </trkpt>
      <trkpt lat="43.76752" lon="7.10199">
        <ele>693</ele>
        <time>2018-05-03T09:22:45.000Z</time>
      </trkpt>
      <trkpt lat="43.76742" lon="7.10207">
        <ele>690</ele>
        <time>2018-05-03T09:22:47.000Z</time>
      </trkpt>
      <trkpt lat="43.76736" lon="7.10208">
        <ele>690</ele>
        <time>2018-05-03T09:22:48.000Z</time>
      </trkpt>
      <trkpt lat="43.76725" lon="7.10208">
        <ele>689</ele>
        <time>2018-05-03T09:22:50.000Z</time>
      </trkpt>
      <trkpt lat="43.76719" lon="7.10208">
        <ele>689</ele>
        <time>2018-05-03T09:22:51.000Z</time>
      </trkpt>
      <trkpt lat="43.76707" lon="7.10203">
        <ele>689</ele>
        <time>2018-05-03T09:22:53.000Z</time>
      </trkpt>
      <trkpt lat="43.76702" lon="7.10201">
        <ele>689</ele>
        <time>2018-05-03T09:22:54.000Z</time>
      </trkpt>
      <trkpt lat="43.76696" lon="7.10199">
        <ele>688</ele>
        <time>2018-05-03T09:22:55.000Z</time>
      </trkpt>
      <trkpt lat="43.7669" lon="7.10199">
        <ele>688</ele>
        <time>2018-05-03T09:22:56.000Z</time>
      </trkpt>
      <trkpt lat="43.76677" lon="7.10198">
        <ele>688</ele>
        <time>2018-05-03T09:22:58.000Z</time>
      </trkpt>
      <trkpt lat="43.76671" lon="7.10198">
        <ele>688</ele>
        <time>2018-05-03T09:22:59.000Z</time>
      </trkpt>
      <trkpt lat="43.76659" lon="7.10199">
        <ele>683</ele>
        <time>2018-05-03T09:23:01.000Z</time>
      </trkpt>
      <trkpt lat="43.76653" lon="7.10199">
        <ele>683</ele>
        <time>2018-05-03T09:23:02.000Z</time>
      </trkpt>
      <trkpt lat="43.76648" lon="7.102">
        <ele>682</ele>
        <time>2018-05-03T09:23:03.000Z</time>
      </trkpt>
      <trkpt lat="43.76638" lon="7.10205">
        <ele>682</ele>
        <time>2018-05-03T09:23:05.000Z</time>
      </trkpt>
      <trkpt lat="43.76633" lon="7.10206">
        <ele>681</ele>
        <time>2018-05-03T09:23:06.000Z</time>
      </trkpt>
      <trkpt lat="43.76625" lon="7.10206">
        <ele>681</ele>
        <time>2018-05-03T09:23:08.000Z</time>
      </trkpt>
      <trkpt lat="43.76621" lon="7.10206">
        <ele>681</ele>
        <time>2018-05-03T09:23:09.000Z</time>
      </trkpt>
      <trkpt lat="43.76618" lon="7.10205">
        <ele>681</ele>
        <time>2018-05-03T09:23:10.000Z</time>
      </trkpt>
      <trkpt lat="43.76615" lon="7.10205">
        <ele>680</ele>
        <time>2018-05-03T09:23:11.000Z</time>
      </trkpt>
      <trkpt lat="43.76608" lon="7.10205">
        <ele>680</ele>
        <time>2018-05-03T09:23:13.000Z</time>
      </trkpt>
      <trkpt lat="43.76604" lon="7.10205">
        <ele>680</ele>
        <time>2018-05-03T09:23:14.000Z</time>
      </trkpt>
      <trkpt lat="43.76592" lon="7.10208">
        <ele>679</ele>
        <time>2018-05-03T09:23:17.000Z</time>
      </trkpt>
      <trkpt lat="43.76588" lon="7.10207">
        <ele>679</ele>
        <time>2018-05-03T09:23:18.000Z</time>
      </trkpt>
      <trkpt lat="43.76578" lon="7.10206">
        <ele>674</ele>
        <time>2018-05-03T09:23:20.000Z</time>
      </trkpt>
      <trkpt lat="43.76555" lon="7.10204">
        <ele>673</ele>
        <time>2018-05-03T09:23:25.000Z</time>
      </trkpt>
      <trkpt lat="43.76541" lon="7.10201">
        <ele>672</ele>
        <time>2018-05-03T09:23:28.000Z</time>
      </trkpt>
      <trkpt lat="43.76536" lon="7.10198">
        <ele>672</ele>
        <time>2018-05-03T09:23:29.000Z</time>
      </trkpt>
      <trkpt lat="43.76531" lon="7.10197">
        <ele>672</ele>
        <time>2018-05-03T09:23:30.000Z</time>
      </trkpt>
      <trkpt lat="43.76522" lon="7.10197">
        <ele>671</ele>
        <time>2018-05-03T09:23:32.000Z</time>
      </trkpt>
      <trkpt lat="43.76512" lon="7.10199">
        <ele>671</ele>
        <time>2018-05-03T09:23:34.000Z</time>
      </trkpt>
      <trkpt lat="43.76507" lon="7.10199">
        <ele>671</ele>
        <time>2018-05-03T09:23:35.000Z</time>
      </trkpt>
      <trkpt lat="43.76491" lon="7.10198">
        <ele>667</ele>
        <time>2018-05-03T09:23:38.000Z</time>
      </trkpt>
      <trkpt lat="43.76482" lon="7.10195">
        <ele>667</ele>
        <time>2018-05-03T09:23:40.000Z</time>
      </trkpt>
      <trkpt lat="43.76477" lon="7.10194">
        <ele>667</ele>
        <time>2018-05-03T09:23:41.000Z</time>
      </trkpt>
      <trkpt lat="43.76467" lon="7.1019">
        <ele>666</ele>
        <time>2018-05-03T09:23:43.000Z</time>
      </trkpt>
      <trkpt lat="43.76457" lon="7.10185">
        <ele>666</ele>
        <time>2018-05-03T09:23:45.000Z</time>
      </trkpt>
      <trkpt lat="43.76443" lon="7.10178">
        <ele>666</ele>
        <time>2018-05-03T09:23:48.000Z</time>
      </trkpt>
      <trkpt lat="43.76422" lon="7.10172">
        <ele>665</ele>
        <time>2018-05-03T09:23:52.000Z</time>
      </trkpt>
      <trkpt lat="43.76397" lon="7.10174">
        <ele>665</ele>
        <time>2018-05-03T09:23:57.000Z</time>
      </trkpt>
      <trkpt lat="43.76392" lon="7.10173">
        <ele>665</ele>
        <time>2018-05-03T09:23:58.000Z</time>
      </trkpt>
      <trkpt lat="43.76372" lon="7.1017">
        <ele>665</ele>
        <time>2018-05-03T09:24:02.000Z</time>
      </trkpt>
      <trkpt lat="43.76362" lon="7.10172">
        <ele>665</ele>
        <time>2018-05-03T09:24:04.000Z</time>
      </trkpt>
      <trkpt lat="43.76352" lon="7.10176">
        <ele>665</ele>
        <time>2018-05-03T09:24:06.000Z</time>
      </trkpt>
      <trkpt lat="43.76348" lon="7.10178">
        <ele>665</ele>
        <time>2018-05-03T09:24:07.000Z</time>
      </trkpt>
      <trkpt lat="43.76343" lon="7.10179">
        <ele>665</ele>
        <time>2018-05-03T09:24:08.000Z</time>
      </trkpt>
      <trkpt lat="43.76322" lon="7.10183">
        <ele>665</ele>
        <time>2018-05-03T09:24:13.000Z</time>
      </trkpt>
      <trkpt lat="43.76318" lon="7.10184">
        <ele>665</ele>
        <time>2018-05-03T09:24:14.000Z</time>
      </trkpt>
      <trkpt lat="43.76302" lon="7.10189">
        <ele>665</ele>
        <time>2018-05-03T09:24:18.000Z</time>
      </trkpt>
      <trkpt lat="43.76298" lon="7.10192">
        <ele>665</ele>
        <time>2018-05-03T09:24:19.000Z</time>
      </trkpt>
      <trkpt lat="43.76282" lon="7.10201">
        <ele>664</ele>
        <time>2018-05-03T09:24:23.000Z</time>
      </trkpt>
      <trkpt lat="43.76274" lon="7.10203">
        <ele>664</ele>
        <time>2018-05-03T09:24:25.000Z</time>
      </trkpt>
      <trkpt lat="43.76266" lon="7.10204">
        <ele>664</ele>
        <time>2018-05-03T09:24:27.000Z</time>
      </trkpt>
      <trkpt lat="43.76247" lon="7.10202">
        <ele>665</ele>
        <time>2018-05-03T09:24:32.000Z</time>
      </trkpt>
      <trkpt lat="43.76206" lon="7.10195">
        <ele>666</ele>
        <time>2018-05-03T09:24:42.000Z</time>
      </trkpt>
      <trkpt lat="43.76179" lon="7.10187">
        <ele>666</ele>
        <time>2018-05-03T09:24:48.000Z</time>
      </trkpt>
      <trkpt lat="43.76175" lon="7.10187">
        <ele>666</ele>
        <time>2018-05-03T09:24:49.000Z</time>
      </trkpt>
      <trkpt lat="43.76161" lon="7.10186">
        <ele>667</ele>
        <time>2018-05-03T09:24:53.000Z</time>
      </trkpt>
      <trkpt lat="43.76154" lon="7.10186">
        <ele>667</ele>
        <time>2018-05-03T09:24:55.000Z</time>
      </trkpt>
      <trkpt lat="43.76134" lon="7.10191">
        <ele>666</ele>
        <time>2018-05-03T09:25:01.000Z</time>
      </trkpt>
      <trkpt lat="43.76108" lon="7.10204">
        <ele>666</ele>
        <time>2018-05-03T09:25:09.000Z</time>
      </trkpt>
      <trkpt lat="43.76099" lon="7.10206">
        <ele>666</ele>
        <time>2018-05-03T09:25:11.000Z</time>
      </trkpt>
      <trkpt lat="43.76084" lon="7.10207">
        <ele>666</ele>
        <time>2018-05-03T09:25:14.000Z</time>
      </trkpt>
      <trkpt lat="43.7608" lon="7.10206">
        <ele>666</ele>
        <time>2018-05-03T09:25:15.000Z</time>
      </trkpt>
      <trkpt lat="43.76066" lon="7.10203">
        <ele>666</ele>
        <time>2018-05-03T09:25:18.000Z</time>
      </trkpt>
      <trkpt lat="43.76058" lon="7.10198">
        <ele>666</ele>
        <time>2018-05-03T09:25:20.000Z</time>
      </trkpt>
      <trkpt lat="43.7604" lon="7.10191">
        <ele>666</ele>
        <time>2018-05-03T09:25:25.000Z</time>
      </trkpt>
      <trkpt lat="43.76013" lon="7.10183">
        <ele>666</ele>
        <time>2018-05-03T09:25:33.000Z</time>
      </trkpt>
      <trkpt lat="43.76002" lon="7.10183">
        <ele>666</ele>
        <time>2018-05-03T09:25:38.000Z</time>
      </trkpt>
      <trkpt lat="43.75994" lon="7.10184">
        <ele>667</ele>
        <time>2018-05-03T09:25:42.000Z</time>
      </trkpt>
      <trkpt lat="43.7599" lon="7.10184">
        <ele>667</ele>
        <time>2018-05-03T09:25:44.000Z</time>
      </trkpt>
      <trkpt lat="43.7598" lon="7.10183">
        <ele>667</ele>
        <time>2018-05-03T09:25:49.000Z</time>
      </trkpt>
      <trkpt lat="43.7597" lon="7.10183">
        <ele>667</ele>
        <time>2018-05-03T09:25:53.000Z</time>
      </trkpt>
      <trkpt lat="43.75949" lon="7.10182">
        <ele>668</ele>
        <time>2018-05-03T09:26:01.000Z</time>
      </trkpt>
      <trkpt lat="43.75933" lon="7.10178">
        <ele>669</ele>
        <time>2018-05-03T09:26:08.000Z</time>
      </trkpt>
      <trkpt lat="43.75931" lon="7.10177">
        <ele>670</ele>
        <time>2018-05-03T09:26:09.000Z</time>
      </trkpt>
      <trkpt lat="43.75922" lon="7.10177">
        <ele>670</ele>
        <time>2018-05-03T09:26:13.000Z</time>
      </trkpt>
      <trkpt lat="43.75914" lon="7.10176">
        <ele>671</ele>
        <time>2018-05-03T09:26:17.000Z</time>
      </trkpt>
      <trkpt lat="43.759" lon="7.10169">
        <ele>671</ele>
        <time>2018-05-03T09:26:24.000Z</time>
      </trkpt>
      <trkpt lat="43.75888" lon="7.10161">
        <ele>675</ele>
        <time>2018-05-03T09:26:30.000Z</time>
      </trkpt>
      <trkpt lat="43.75886" lon="7.10159">
        <ele>676</ele>
        <time>2018-05-03T09:26:31.000Z</time>
      </trkpt>
      <trkpt lat="43.75872" lon="7.10151">
        <ele>676</ele>
        <time>2018-05-03T09:26:39.000Z</time>
      </trkpt>
      <trkpt lat="43.75871" lon="7.1015">
        <ele>676</ele>
        <time>2018-05-03T09:26:40.000Z</time>
      </trkpt>
      <trkpt lat="43.75862" lon="7.10145">
        <ele>677</ele>
        <time>2018-05-03T09:26:46.000Z</time>
      </trkpt>
      <trkpt lat="43.7586" lon="7.10141">
        <ele>677</ele>
        <time>2018-05-03T09:26:48.000Z</time>
      </trkpt>
      <trkpt lat="43.75858" lon="7.10135">
        <ele>677</ele>
        <time>2018-05-03T09:26:51.000Z</time>
      </trkpt>
      <trkpt lat="43.75859" lon="7.10134">
        <ele>677</ele>
        <time>2018-05-03T09:26:52.000Z</time>
      </trkpt>
      <trkpt lat="43.75862" lon="7.10132">
        <ele>678</ele>
        <time>2018-05-03T09:26:54.000Z</time>
      </trkpt>
      <trkpt lat="43.75863" lon="7.1013">
        <ele>678</ele>
        <time>2018-05-03T09:26:55.000Z</time>
      </trkpt>
      <trkpt lat="43.75867" lon="7.10124">
        <ele>678</ele>
        <time>2018-05-03T09:26:59.000Z</time>
      </trkpt>
      <trkpt lat="43.75868" lon="7.10123">
        <ele>678</ele>
        <time>2018-05-03T09:27:00.000Z</time>
      </trkpt>
      <trkpt lat="43.75869" lon="7.10122">
        <ele>678</ele>
        <time>2018-05-03T09:27:01.000Z</time>
      </trkpt>
      <trkpt lat="43.75882" lon="7.10113">
        <ele>678</ele>
        <time>2018-05-03T09:27:08.000Z</time>
      </trkpt>
      <trkpt lat="43.75898" lon="7.10101">
        <ele>679</ele>
        <time>2018-05-03T09:27:14.000Z</time>
      </trkpt>
      <trkpt lat="43.75914" lon="7.10087">
        <ele>680</ele>
        <time>2018-05-03T09:27:21.000Z</time>
      </trkpt>
      <trkpt lat="43.75919" lon="7.10077">
        <ele>680</ele>
        <time>2018-05-03T09:27:25.000Z</time>
      </trkpt>
      <trkpt lat="43.75923" lon="7.10073">
        <ele>680</ele>
        <time>2018-05-03T09:27:28.000Z</time>
      </trkpt>
      <trkpt lat="43.75932" lon="7.10062">
        <ele>680</ele>
        <time>2018-05-03T09:27:33.000Z</time>
      </trkpt>
      <trkpt lat="43.75947" lon="7.10037">
        <ele>681</ele>
        <time>2018-05-03T09:27:40.000Z</time>
      </trkpt>
      <trkpt lat="43.75962" lon="7.1001">
        <ele>680</ele>
        <time>2018-05-03T09:27:48.000Z</time>
      </trkpt>
      <trkpt lat="43.75976" lon="7.09987">
        <ele>685</ele>
        <time>2018-05-03T09:27:56.000Z</time>
      </trkpt>
      <trkpt lat="43.75994" lon="7.09969">
        <ele>686</ele>
        <time>2018-05-03T09:28:04.000Z</time>
      </trkpt>
      <trkpt lat="43.76012" lon="7.09949">
        <ele>680</ele>
        <time>2018-05-03T09:28:10.000Z</time>
      </trkpt>
      <trkpt lat="43.76015" lon="7.09946">
        <ele>680</ele>
        <time>2018-05-03T09:28:11.000Z</time>
      </trkpt>
      <trkpt lat="43.76026" lon="7.09938">
        <ele>680</ele>
        <time>2018-05-03T09:28:15.000Z</time>
      </trkpt>
      <trkpt lat="43.76031" lon="7.09935">
        <ele>680</ele>
        <time>2018-05-03T09:28:18.000Z</time>
      </trkpt>
      <trkpt lat="43.76033" lon="7.09933">
        <ele>680</ele>
        <time>2018-05-03T09:28:20.000Z</time>
      </trkpt>
      <trkpt lat="43.76034" lon="7.0993">
        <ele>680</ele>
        <time>2018-05-03T09:28:22.000Z</time>
      </trkpt>
      <trkpt lat="43.76036" lon="7.09925">
        <ele>680</ele>
        <time>2018-05-03T09:28:25.000Z</time>
      </trkpt>
      <trkpt lat="43.76039" lon="7.09921">
        <ele>680</ele>
        <time>2018-05-03T09:28:28.000Z</time>
      </trkpt>
      <trkpt lat="43.76044" lon="7.09914">
        <ele>687</ele>
        <time>2018-05-03T09:28:34.000Z</time>
      </trkpt>
      <trkpt lat="43.76046" lon="7.09911">
        <ele>687</ele>
        <time>2018-05-03T09:28:36.000Z</time>
      </trkpt>
      <trkpt lat="43.76048" lon="7.09909">
        <ele>686</ele>
        <time>2018-05-03T09:28:38.000Z</time>
      </trkpt>
      <trkpt lat="43.76049" lon="7.09908">
        <ele>686</ele>
        <time>2018-05-03T09:28:39.000Z</time>
      </trkpt>
      <trkpt lat="43.76052" lon="7.09903">
        <ele>686</ele>
        <time>2018-05-03T09:28:42.000Z</time>
      </trkpt>
      <trkpt lat="43.76055" lon="7.09896">
        <ele>687</ele>
        <time>2018-05-03T09:28:47.000Z</time>
      </trkpt>
      <trkpt lat="43.76055" lon="7.09895">
        <ele>687</ele>
        <time>2018-05-03T09:28:50.000Z</time>
      </trkpt>
      <trkpt lat="43.76055" lon="7.09895">
        <ele>687</ele>
        <time>2018-05-03T09:28:51.000Z</time>
      </trkpt>
      <trkpt lat="43.76059" lon="7.09891">
        <ele>687</ele>
        <time>2018-05-03T09:28:58.000Z</time>
      </trkpt>
      <trkpt lat="43.76064" lon="7.09882">
        <ele>687</ele>
        <time>2018-05-03T09:29:04.000Z</time>
      </trkpt>
      <trkpt lat="43.76065" lon="7.09881">
        <ele>688</ele>
        <time>2018-05-03T09:29:08.000Z</time>
      </trkpt>
      <trkpt lat="43.76065" lon="7.09879">
        <ele>688</ele>
        <time>2018-05-03T09:29:17.000Z</time>
      </trkpt>
      <trkpt lat="43.76066" lon="7.09878">
        <ele>688</ele>
        <time>2018-05-03T09:29:18.000Z</time>
      </trkpt>
      <trkpt lat="43.76068" lon="7.09874">
        <ele>688</ele>
        <time>2018-05-03T09:29:21.000Z</time>
      </trkpt>
      <trkpt lat="43.76072" lon="7.09867">
        <ele>689</ele>
        <time>2018-05-03T09:29:26.000Z</time>
      </trkpt>
      <trkpt lat="43.76073" lon="7.09864">
        <ele>689</ele>
        <time>2018-05-03T09:29:28.000Z</time>
      </trkpt>
      <trkpt lat="43.76075" lon="7.09862">
        <ele>689</ele>
        <time>2018-05-03T09:29:32.000Z</time>
      </trkpt>
      <trkpt lat="43.7608" lon="7.09854">
        <ele>689</ele>
        <time>2018-05-03T09:29:39.000Z</time>
      </trkpt>
      <trkpt lat="43.76081" lon="7.09853">
        <ele>689</ele>
        <time>2018-05-03T09:29:40.000Z</time>
      </trkpt>
      <trkpt lat="43.76085" lon="7.09849">
        <ele>686</ele>
        <time>2018-05-03T09:29:43.000Z</time>
      </trkpt>
      <trkpt lat="43.7609" lon="7.09845">
        <ele>687</ele>
        <time>2018-05-03T09:29:46.000Z</time>
      </trkpt>
      <trkpt lat="43.76101" lon="7.09835">
        <ele>686</ele>
        <time>2018-05-03T09:29:53.000Z</time>
      </trkpt>
      <trkpt lat="43.76108" lon="7.09826">
        <ele>690</ele>
        <time>2018-05-03T09:29:59.000Z</time>
      </trkpt>
      <trkpt lat="43.76111" lon="7.09823">
        <ele>690</ele>
        <time>2018-05-03T09:30:04.000Z</time>
      </trkpt>
      <trkpt lat="43.76123" lon="7.09812">
        <ele>690</ele>
        <time>2018-05-03T09:30:10.000Z</time>
      </trkpt>
      <trkpt lat="43.76135" lon="7.09802">
        <ele>689</ele>
        <time>2018-05-03T09:30:17.000Z</time>
      </trkpt>
      <trkpt lat="43.76138" lon="7.09798">
        <ele>689</ele>
        <time>2018-05-03T09:30:19.000Z</time>
      </trkpt>
      <trkpt lat="43.76139" lon="7.09793">
        <ele>690</ele>
        <time>2018-05-03T09:30:21.000Z</time>
      </trkpt>
      <trkpt lat="43.76138" lon="7.09792">
        <ele>690</ele>
        <time>2018-05-03T09:30:22.000Z</time>
      </trkpt>
      <trkpt lat="43.76135" lon="7.09786">
        <ele>690</ele>
        <time>2018-05-03T09:30:25.000Z</time>
      </trkpt>
      <trkpt lat="43.76135" lon="7.09786">
        <ele>690</ele>
        <time>2018-05-03T09:30:26.000Z</time>
      </trkpt>
      <trkpt lat="43.76134" lon="7.09784">
        <ele>690</ele>
        <time>2018-05-03T09:30:31.000Z</time>
      </trkpt>
      <trkpt lat="43.76133" lon="7.09783">
        <ele>691</ele>
        <time>2018-05-03T09:30:35.000Z</time>
      </trkpt>
      <trkpt lat="43.76128" lon="7.09777">
        <ele>691</ele>
        <time>2018-05-03T09:30:44.000Z</time>
      </trkpt>
      <trkpt lat="43.76124" lon="7.09774">
        <ele>692</ele>
        <time>2018-05-03T09:30:51.000Z</time>
      </trkpt>
      <trkpt lat="43.76123" lon="7.09772">
        <ele>692</ele>
        <time>2018-05-03T09:30:54.000Z</time>
      </trkpt>
      <trkpt lat="43.76121" lon="7.09771">
        <ele>692</ele>
        <time>2018-05-03T09:30:57.000Z</time>
      </trkpt>
      <trkpt lat="43.76119" lon="7.09768">
        <ele>692</ele>
        <time>2018-05-03T09:31:00.000Z</time>
      </trkpt>
      <trkpt lat="43.76119" lon="7.09765">
        <ele>692</ele>
        <time>2018-05-03T09:31:03.000Z</time>
      </trkpt>
      <trkpt lat="43.7612" lon="7.09756">
        <ele>693</ele>
        <time>2018-05-03T09:31:10.000Z</time>
      </trkpt>
      <trkpt lat="43.7612" lon="7.09755">
        <ele>693</ele>
        <time>2018-05-03T09:31:11.000Z</time>
      </trkpt>
      <trkpt lat="43.76121" lon="7.09748">
        <ele>699</ele>
        <time>2018-05-03T09:31:19.000Z</time>
      </trkpt>
      <trkpt lat="43.76122" lon="7.09745">
        <ele>699</ele>
        <time>2018-05-03T09:31:22.000Z</time>
      </trkpt>
      <trkpt lat="43.76125" lon="7.09738">
        <ele>699</ele>
        <time>2018-05-03T09:31:27.000Z</time>
      </trkpt>
      <trkpt lat="43.76128" lon="7.0973">
        <ele>699</ele>
        <time>2018-05-03T09:31:34.000Z</time>
      </trkpt>
      <trkpt lat="43.7613" lon="7.09722">
        <ele>699</ele>
        <time>2018-05-03T09:31:40.000Z</time>
      </trkpt>
      <trkpt lat="43.7613" lon="7.09721">
        <ele>699</ele>
        <time>2018-05-03T09:31:41.000Z</time>
      </trkpt>
      <trkpt lat="43.7613" lon="7.09719">
        <ele>699</ele>
        <time>2018-05-03T09:31:42.000Z</time>
      </trkpt>
      <trkpt lat="43.7613" lon="7.09709">
        <ele>700</ele>
        <time>2018-05-03T09:31:50.000Z</time>
      </trkpt>
      <trkpt lat="43.76131" lon="7.09706">
        <ele>700</ele>
        <time>2018-05-03T09:31:56.000Z</time>
      </trkpt>
      <trkpt lat="43.76136" lon="7.09696">
        <ele>700</ele>
        <time>2018-05-03T09:32:02.000Z</time>
      </trkpt>
      <trkpt lat="43.76142" lon="7.09684">
        <ele>700</ele>
        <time>2018-05-03T09:32:09.000Z</time>
      </trkpt>
      <trkpt lat="43.76143" lon="7.09683">
        <ele>700</ele>
        <time>2018-05-03T09:32:11.000Z</time>
      </trkpt>
      <trkpt lat="43.76143" lon="7.09682">
        <ele>700</ele>
        <time>2018-05-03T09:32:13.000Z</time>
      </trkpt>
      <trkpt lat="43.76144" lon="7.09679">
        <ele>700</ele>
        <time>2018-05-03T09:32:18.000Z</time>
      </trkpt>
      <trkpt lat="43.76145" lon="7.09678">
        <ele>700</ele>
        <time>2018-05-03T09:32:19.000Z</time>
      </trkpt>
      <trkpt lat="43.76149" lon="7.09672">
        <ele>700</ele>
        <time>2018-05-03T09:32:22.000Z</time>
      </trkpt>
      <trkpt lat="43.76151" lon="7.09671">
        <ele>700</ele>
        <time>2018-05-03T09:32:23.000Z</time>
      </trkpt>
      <trkpt lat="43.76152" lon="7.09669">
        <ele>699</ele>
        <time>2018-05-03T09:32:24.000Z</time>
      </trkpt>
      <trkpt lat="43.76158" lon="7.09662">
        <ele>702</ele>
        <time>2018-05-03T09:32:28.000Z</time>
      </trkpt>
      <trkpt lat="43.76159" lon="7.09659">
        <ele>703</ele>
        <time>2018-05-03T09:32:29.000Z</time>
      </trkpt>
      <trkpt lat="43.76161" lon="7.09651">
        <ele>704</ele>
        <time>2018-05-03T09:32:33.000Z</time>
      </trkpt>
      <trkpt lat="43.76162" lon="7.0965">
        <ele>704</ele>
        <time>2018-05-03T09:32:34.000Z</time>
      </trkpt>
      <trkpt lat="43.76163" lon="7.09647">
        <ele>705</ele>
        <time>2018-05-03T09:32:40.000Z</time>
      </trkpt>
      <trkpt lat="43.76164" lon="7.09646">
        <ele>705</ele>
        <time>2018-05-03T09:32:41.000Z</time>
      </trkpt>
      <trkpt lat="43.76168" lon="7.0964">
        <ele>700</ele>
        <time>2018-05-03T09:32:46.000Z</time>
      </trkpt>
      <trkpt lat="43.7617" lon="7.09636">
        <ele>700</ele>
        <time>2018-05-03T09:32:48.000Z</time>
      </trkpt>
      <trkpt lat="43.76171" lon="7.09628">
        <ele>700</ele>
        <time>2018-05-03T09:32:52.000Z</time>
      </trkpt>
      <trkpt lat="43.76172" lon="7.09622">
        <ele>701</ele>
        <time>2018-05-03T09:32:57.000Z</time>
      </trkpt>
      <trkpt lat="43.76172" lon="7.09619">
        <ele>701</ele>
        <time>2018-05-03T09:32:59.000Z</time>
      </trkpt>
      <trkpt lat="43.76173" lon="7.09613">
        <ele>702</ele>
        <time>2018-05-03T09:33:03.000Z</time>
      </trkpt>
      <trkpt lat="43.76175" lon="7.09606">
        <ele>702</ele>
        <time>2018-05-03T09:33:07.000Z</time>
      </trkpt>
      <trkpt lat="43.76176" lon="7.096">
        <ele>703</ele>
        <time>2018-05-03T09:33:09.000Z</time>
      </trkpt>
      <trkpt lat="43.76177" lon="7.09589">
        <ele>704</ele>
        <time>2018-05-03T09:33:14.000Z</time>
      </trkpt>
      <trkpt lat="43.76176" lon="7.09588">
        <ele>704</ele>
        <time>2018-05-03T09:33:15.000Z</time>
      </trkpt>
      <trkpt lat="43.76176" lon="7.09586">
        <ele>705</ele>
        <time>2018-05-03T09:33:16.000Z</time>
      </trkpt>
      <trkpt lat="43.76175" lon="7.09582">
        <ele>707</ele>
        <time>2018-05-03T09:33:19.000Z</time>
      </trkpt>
      <trkpt lat="43.76174" lon="7.09579">
        <ele>707</ele>
        <time>2018-05-03T09:33:21.000Z</time>
      </trkpt>
      <trkpt lat="43.76174" lon="7.09578">
        <ele>707</ele>
        <time>2018-05-03T09:33:27.000Z</time>
      </trkpt>
      <trkpt lat="43.76174" lon="7.09574">
        <ele>707</ele>
        <time>2018-05-03T09:33:38.000Z</time>
      </trkpt>
      <trkpt lat="43.76174" lon="7.09573">
        <ele>707</ele>
        <time>2018-05-03T09:33:40.000Z</time>
      </trkpt>
      <trkpt lat="43.76174" lon="7.0957">
        <ele>707</ele>
        <time>2018-05-03T09:33:44.000Z</time>
      </trkpt>
      <trkpt lat="43.76173" lon="7.09564">
        <ele>707</ele>
        <time>2018-05-03T09:33:49.000Z</time>
      </trkpt>
      <trkpt lat="43.76173" lon="7.0956">
        <ele>707</ele>
        <time>2018-05-03T09:33:53.000Z</time>
      </trkpt>
      <trkpt lat="43.76173" lon="7.09552">
        <ele>707</ele>
        <time>2018-05-03T09:34:00.000Z</time>
      </trkpt>
      <trkpt lat="43.76173" lon="7.09546">
        <ele>707</ele>
        <time>2018-05-03T09:34:05.000Z</time>
      </trkpt>
      <trkpt lat="43.76173" lon="7.09544">
        <ele>707</ele>
        <time>2018-05-03T09:34:07.000Z</time>
      </trkpt>
      <trkpt lat="43.76174" lon="7.09542">
        <ele>708</ele>
        <time>2018-05-03T09:34:09.000Z</time>
      </trkpt>
      <trkpt lat="43.76173" lon="7.09534">
        <ele>708</ele>
        <time>2018-05-03T09:34:16.000Z</time>
      </trkpt>
      <trkpt lat="43.76172" lon="7.09525">
        <ele>709</ele>
        <time>2018-05-03T09:34:24.000Z</time>
      </trkpt>
      <trkpt lat="43.76172" lon="7.09524">
        <ele>709</ele>
        <time>2018-05-03T09:34:25.000Z</time>
      </trkpt>
      <trkpt lat="43.76172" lon="7.09523">
        <ele>709</ele>
        <time>2018-05-03T09:34:26.000Z</time>
      </trkpt>
      <trkpt lat="43.76173" lon="7.09519">
        <ele>709</ele>
        <time>2018-05-03T09:34:30.000Z</time>
      </trkpt>
      <trkpt lat="43.76173" lon="7.09512">
        <ele>710</ele>
        <time>2018-05-03T09:34:38.000Z</time>
      </trkpt>
      <trkpt lat="43.76173" lon="7.09511">
        <ele>710</ele>
        <time>2018-05-03T09:34:39.000Z</time>
      </trkpt>
      <trkpt lat="43.76172" lon="7.09503">
        <ele>712</ele>
        <time>2018-05-03T09:34:45.000Z</time>
      </trkpt>
      <trkpt lat="43.76171" lon="7.09492">
        <ele>713</ele>
        <time>2018-05-03T09:34:54.000Z</time>
      </trkpt>
      <trkpt lat="43.7617" lon="7.0949">
        <ele>713</ele>
        <time>2018-05-03T09:34:56.000Z</time>
      </trkpt>
      <trkpt lat="43.76169" lon="7.0948">
        <ele>712</ele>
        <time>2018-05-03T09:35:04.000Z</time>
      </trkpt>
      <trkpt lat="43.76168" lon="7.09478">
        <ele>712</ele>
        <time>2018-05-03T09:35:06.000Z</time>
      </trkpt>
      <trkpt lat="43.76167" lon="7.09473">
        <ele>712</ele>
        <time>2018-05-03T09:35:11.000Z</time>
      </trkpt>
      <trkpt lat="43.76167" lon="7.09466">
        <ele>721</ele>
        <time>2018-05-03T09:35:17.000Z</time>
      </trkpt>
      <trkpt lat="43.76166" lon="7.09465">
        <ele>721</ele>
        <time>2018-05-03T09:35:19.000Z</time>
      </trkpt>
      <trkpt lat="43.76163" lon="7.0946">
        <ele>721</ele>
        <time>2018-05-03T09:35:26.000Z</time>
      </trkpt>
      <trkpt lat="43.76163" lon="7.09458">
        <ele>721</ele>
        <time>2018-05-03T09:35:28.000Z</time>
      </trkpt>
      <trkpt lat="43.76161" lon="7.09455">
        <ele>721</ele>
        <time>2018-05-03T09:35:34.000Z</time>
      </trkpt>
      <trkpt lat="43.7616" lon="7.09453">
        <ele>721</ele>
        <time>2018-05-03T09:35:36.000Z</time>
      </trkpt>
      <trkpt lat="43.76158" lon="7.09449">
        <ele>722</ele>
        <time>2018-05-03T09:35:43.000Z</time>
      </trkpt>
      <trkpt lat="43.76157" lon="7.09446">
        <ele>722</ele>
        <time>2018-05-03T09:35:46.000Z</time>
      </trkpt>
      <trkpt lat="43.76155" lon="7.09443">
        <ele>722</ele>
        <time>2018-05-03T09:35:51.000Z</time>
      </trkpt>
      <trkpt lat="43.76154" lon="7.09438">
        <ele>722</ele>
        <time>2018-05-03T09:35:56.000Z</time>
      </trkpt>
      <trkpt lat="43.76153" lon="7.09435">
        <ele>722</ele>
        <time>2018-05-03T09:35:59.000Z</time>
      </trkpt>
      <trkpt lat="43.76151" lon="7.0943">
        <ele>721</ele>
        <time>2018-05-03T09:36:06.000Z</time>
      </trkpt>
      <trkpt lat="43.76151" lon="7.09429">
        <ele>721</ele>
        <time>2018-05-03T09:36:07.000Z</time>
      </trkpt>
      <trkpt lat="43.76151" lon="7.0942">
        <ele>721</ele>
        <time>2018-05-03T09:36:14.000Z</time>
      </trkpt>
      <trkpt lat="43.76151" lon="7.09418">
        <ele>721</ele>
        <time>2018-05-03T09:36:16.000Z</time>
      </trkpt>
      <trkpt lat="43.76149" lon="7.09411">
        <ele>724</ele>
        <time>2018-05-03T09:36:24.000Z</time>
      </trkpt>
      <trkpt lat="43.76147" lon="7.09405">
        <ele>725</ele>
        <time>2018-05-03T09:36:30.000Z</time>
      </trkpt>
      <trkpt lat="43.76147" lon="7.09404">
        <ele>725</ele>
        <time>2018-05-03T09:36:32.000Z</time>
      </trkpt>
      <trkpt lat="43.76144" lon="7.09398">
        <ele>727</ele>
        <time>2018-05-03T09:36:40.000Z</time>
      </trkpt>
      <trkpt lat="43.76143" lon="7.09396">
        <ele>727</ele>
        <time>2018-05-03T09:36:42.000Z</time>
      </trkpt>
      <trkpt lat="43.76142" lon="7.0939">
        <ele>728</ele>
        <time>2018-05-03T09:36:49.000Z</time>
      </trkpt>
      <trkpt lat="43.76142" lon="7.09389">
        <ele>728</ele>
        <time>2018-05-03T09:36:50.000Z</time>
      </trkpt>
      <trkpt lat="43.7614" lon="7.09383">
        <ele>728</ele>
        <time>2018-05-03T09:36:57.000Z</time>
      </trkpt>
      <trkpt lat="43.7614" lon="7.09382">
        <ele>728</ele>
        <time>2018-05-03T09:36:58.000Z</time>
      </trkpt>
      <trkpt lat="43.76137" lon="7.09375">
        <ele>729</ele>
        <time>2018-05-03T09:37:05.000Z</time>
      </trkpt>
      <trkpt lat="43.76137" lon="7.09373">
        <ele>729</ele>
        <time>2018-05-03T09:37:07.000Z</time>
      </trkpt>
      <trkpt lat="43.76134" lon="7.09367">
        <ele>730</ele>
        <time>2018-05-03T09:37:15.000Z</time>
      </trkpt>
      <trkpt lat="43.76133" lon="7.09363">
        <ele>730</ele>
        <time>2018-05-03T09:37:18.000Z</time>
      </trkpt>
      <trkpt lat="43.76133" lon="7.09357">
        <ele>730</ele>
        <time>2018-05-03T09:37:25.000Z</time>
      </trkpt>
      <trkpt lat="43.76133" lon="7.09349">
        <ele>730</ele>
        <time>2018-05-03T09:37:33.000Z</time>
      </trkpt>
      <trkpt lat="43.76131" lon="7.09343">
        <ele>730</ele>
        <time>2018-05-03T09:37:40.000Z</time>
      </trkpt>
      <trkpt lat="43.7613" lon="7.09342">
        <ele>731</ele>
        <time>2018-05-03T09:37:41.000Z</time>
      </trkpt>
      <trkpt lat="43.76129" lon="7.09336">
        <ele>731</ele>
        <time>2018-05-03T09:37:48.000Z</time>
      </trkpt>
      <trkpt lat="43.76129" lon="7.09334">
        <ele>731</ele>
        <time>2018-05-03T09:37:51.000Z</time>
      </trkpt>
      <trkpt lat="43.76127" lon="7.09331">
        <ele>735</ele>
        <time>2018-05-03T09:37:55.000Z</time>
      </trkpt>
      <trkpt lat="43.76125" lon="7.09328">
        <ele>735</ele>
        <time>2018-05-03T09:38:00.000Z</time>
      </trkpt>
      <trkpt lat="43.76123" lon="7.09326">
        <ele>736</ele>
        <time>2018-05-03T09:38:04.000Z</time>
      </trkpt>
      <trkpt lat="43.76121" lon="7.09321">
        <ele>736</ele>
        <time>2018-05-03T09:38:10.000Z</time>
      </trkpt>
      <trkpt lat="43.76121" lon="7.0932">
        <ele>736</ele>
        <time>2018-05-03T09:38:11.000Z</time>
      </trkpt>
      <trkpt lat="43.7612" lon="7.09311">
        <ele>737</ele>
        <time>2018-05-03T09:38:19.000Z</time>
      </trkpt>
      <trkpt lat="43.7612" lon="7.0931">
        <ele>737</ele>
        <time>2018-05-03T09:38:20.000Z</time>
      </trkpt>
      <trkpt lat="43.7612" lon="7.09303">
        <ele>737</ele>
        <time>2018-05-03T09:38:26.000Z</time>
      </trkpt>
      <trkpt lat="43.76121" lon="7.09301">
        <ele>737</ele>
        <time>2018-05-03T09:38:28.000Z</time>
      </trkpt>
      <trkpt lat="43.76122" lon="7.09295">
        <ele>737</ele>
        <time>2018-05-03T09:38:34.000Z</time>
      </trkpt>
      <trkpt lat="43.76122" lon="7.0929">
        <ele>737</ele>
        <time>2018-05-03T09:38:39.000Z</time>
      </trkpt>
      <trkpt lat="43.76122" lon="7.09288">
        <ele>737</ele>
        <time>2018-05-03T09:38:41.000Z</time>
      </trkpt>
      <trkpt lat="43.76125" lon="7.09285">
        <ele>737</ele>
        <time>2018-05-03T09:38:48.000Z</time>
      </trkpt>
      <trkpt lat="43.76128" lon="7.09278">
        <ele>737</ele>
        <time>2018-05-03T09:38:55.000Z</time>
      </trkpt>
      <trkpt lat="43.76128" lon="7.09277">
        <ele>737</ele>
        <time>2018-05-03T09:38:56.000Z</time>
      </trkpt>
      <trkpt lat="43.76129" lon="7.09274">
        <ele>737</ele>
        <time>2018-05-03T09:38:58.000Z</time>
      </trkpt>
      <trkpt lat="43.76128" lon="7.09269">
        <ele>737</ele>
        <time>2018-05-03T09:39:00.000Z</time>
      </trkpt>
      <trkpt lat="43.7613" lon="7.09256">
        <ele>737</ele>
        <time>2018-05-03T09:39:05.000Z</time>
      </trkpt>
      <trkpt lat="43.76128" lon="7.09248">
        <ele>741</ele>
        <time>2018-05-03T09:39:09.000Z</time>
      </trkpt>
      <trkpt lat="43.76127" lon="7.09243">
        <ele>741</ele>
        <time>2018-05-03T09:39:11.000Z</time>
      </trkpt>
      <trkpt lat="43.76125" lon="7.09236">
        <ele>742</ele>
        <time>2018-05-03T09:39:15.000Z</time>
      </trkpt>
      <trkpt lat="43.76123" lon="7.09231">
        <ele>742</ele>
        <time>2018-05-03T09:39:17.000Z</time>
      </trkpt>
      <trkpt lat="43.76122" lon="7.09225">
        <ele>743</ele>
        <time>2018-05-03T09:39:21.000Z</time>
      </trkpt>
      <trkpt lat="43.76121" lon="7.09223">
        <ele>743</ele>
        <time>2018-05-03T09:39:23.000Z</time>
      </trkpt>
      <trkpt lat="43.76121" lon="7.09221">
        <ele>743</ele>
        <time>2018-05-03T09:39:29.000Z</time>
      </trkpt>
      <trkpt lat="43.76121" lon="7.09221">
        <ele>743</ele>
        <time>2018-05-03T09:39:30.000Z</time>
      </trkpt>
      <trkpt lat="43.76121" lon="7.09215">
        <ele>743</ele>
        <time>2018-05-03T09:39:37.000Z</time>
      </trkpt>
      <trkpt lat="43.76121" lon="7.0921">
        <ele>743</ele>
        <time>2018-05-03T09:39:41.000Z</time>
      </trkpt>
      <trkpt lat="43.76121" lon="7.09208">
        <ele>743</ele>
        <time>2018-05-03T09:39:43.000Z</time>
      </trkpt>
      <trkpt lat="43.76118" lon="7.09201">
        <ele>744</ele>
        <time>2018-05-03T09:39:50.000Z</time>
      </trkpt>
      <trkpt lat="43.76118" lon="7.09198">
        <ele>744</ele>
        <time>2018-05-03T09:39:53.000Z</time>
      </trkpt>
      <trkpt lat="43.76118" lon="7.09197">
        <ele>744</ele>
        <time>2018-05-03T09:39:54.000Z</time>
      </trkpt>
      <trkpt lat="43.76117" lon="7.09194">
        <ele>744</ele>
        <time>2018-05-03T09:39:57.000Z</time>
      </trkpt>
      <trkpt lat="43.76115" lon="7.09188">
        <ele>745</ele>
        <time>2018-05-03T09:40:04.000Z</time>
      </trkpt>
      <trkpt lat="43.76112" lon="7.0918">
        <ele>745</ele>
        <time>2018-05-03T09:40:12.000Z</time>
      </trkpt>
      <trkpt lat="43.76112" lon="7.09179">
        <ele>746</ele>
        <time>2018-05-03T09:40:13.000Z</time>
      </trkpt>
      <trkpt lat="43.76113" lon="7.09172">
        <ele>746</ele>
        <time>2018-05-03T09:40:19.000Z</time>
      </trkpt>
      <trkpt lat="43.76114" lon="7.09166">
        <ele>749</ele>
        <time>2018-05-03T09:40:25.000Z</time>
      </trkpt>
      <trkpt lat="43.76113" lon="7.09154">
        <ele>750</ele>
        <time>2018-05-03T09:40:31.000Z</time>
      </trkpt>
      <trkpt lat="43.76114" lon="7.09151">
        <ele>750</ele>
        <time>2018-05-03T09:40:33.000Z</time>
      </trkpt>
      <trkpt lat="43.76112" lon="7.09144">
        <ele>750</ele>
        <time>2018-05-03T09:40:37.000Z</time>
      </trkpt>
      <trkpt lat="43.76111" lon="7.09142">
        <ele>750</ele>
        <time>2018-05-03T09:40:41.000Z</time>
      </trkpt>
      <trkpt lat="43.76109" lon="7.09138">
        <ele>750</ele>
        <time>2018-05-03T09:40:46.000Z</time>
      </trkpt>
      <trkpt lat="43.76108" lon="7.09137">
        <ele>750</ele>
        <time>2018-05-03T09:40:47.000Z</time>
      </trkpt>
      <trkpt lat="43.76107" lon="7.0913">
        <ele>750</ele>
        <time>2018-05-03T09:40:53.000Z</time>
      </trkpt>
      <trkpt lat="43.76105" lon="7.09123">
        <ele>751</ele>
        <time>2018-05-03T09:41:00.000Z</time>
      </trkpt>
      <trkpt lat="43.76102" lon="7.09114">
        <ele>751</ele>
        <time>2018-05-03T09:41:09.000Z</time>
      </trkpt>
      <trkpt lat="43.76098" lon="7.09108">
        <ele>751</ele>
        <time>2018-05-03T09:41:15.000Z</time>
      </trkpt>
      <trkpt lat="43.76098" lon="7.09107">
        <ele>752</ele>
        <time>2018-05-03T09:41:16.000Z</time>
      </trkpt>
      <trkpt lat="43.76096" lon="7.09102">
        <ele>752</ele>
        <time>2018-05-03T09:41:20.000Z</time>
      </trkpt>
      <trkpt lat="43.76095" lon="7.09098">
        <ele>752</ele>
        <time>2018-05-03T09:41:23.000Z</time>
      </trkpt>
      <trkpt lat="43.76095" lon="7.09097">
        <ele>752</ele>
        <time>2018-05-03T09:41:24.000Z</time>
      </trkpt>
      <trkpt lat="43.76093" lon="7.09093">
        <ele>753</ele>
        <time>2018-05-03T09:41:30.000Z</time>
      </trkpt>
      <trkpt lat="43.76091" lon="7.09091">
        <ele>753</ele>
        <time>2018-05-03T09:41:34.000Z</time>
      </trkpt>
      <trkpt lat="43.7609" lon="7.09088">
        <ele>754</ele>
        <time>2018-05-03T09:41:37.000Z</time>
      </trkpt>
      <trkpt lat="43.76089" lon="7.09081">
        <ele>755</ele>
        <time>2018-05-03T09:41:43.000Z</time>
      </trkpt>
      <trkpt lat="43.76089" lon="7.0908">
        <ele>755</ele>
        <time>2018-05-03T09:41:44.000Z</time>
      </trkpt>
      <trkpt lat="43.76087" lon="7.09077">
        <ele>756</ele>
        <time>2018-05-03T09:41:47.000Z</time>
      </trkpt>
      <trkpt lat="43.76086" lon="7.09072">
        <ele>756</ele>
        <time>2018-05-03T09:41:51.000Z</time>
      </trkpt>
      <trkpt lat="43.76085" lon="7.09068">
        <ele>756</ele>
        <time>2018-05-03T09:41:55.000Z</time>
      </trkpt>
      <trkpt lat="43.76084" lon="7.09067">
        <ele>756</ele>
        <time>2018-05-03T09:41:58.000Z</time>
      </trkpt>
      <trkpt lat="43.76082" lon="7.09065">
        <ele>762</ele>
        <time>2018-05-03T09:42:02.000Z</time>
      </trkpt>
      <trkpt lat="43.7608" lon="7.0906">
        <ele>762</ele>
        <time>2018-05-03T09:42:06.000Z</time>
      </trkpt>
      <trkpt lat="43.76079" lon="7.09056">
        <ele>763</ele>
        <time>2018-05-03T09:42:12.000Z</time>
      </trkpt>
      <trkpt lat="43.76079" lon="7.09055">
        <ele>763</ele>
        <time>2018-05-03T09:42:13.000Z</time>
      </trkpt>
      <trkpt lat="43.76079" lon="7.09051">
        <ele>764</ele>
        <time>2018-05-03T09:42:21.000Z</time>
      </trkpt>
      <trkpt lat="43.76076" lon="7.09037">
        <ele>764</ele>
        <time>2018-05-03T09:42:28.000Z</time>
      </trkpt>
      <trkpt lat="43.76074" lon="7.09025">
        <ele>764</ele>
        <time>2018-05-03T09:42:34.000Z</time>
      </trkpt>
      <trkpt lat="43.76074" lon="7.09023">
        <ele>764</ele>
        <time>2018-05-03T09:42:35.000Z</time>
      </trkpt>
      <trkpt lat="43.76074" lon="7.09016">
        <ele>764</ele>
        <time>2018-05-03T09:42:38.000Z</time>
      </trkpt>
      <trkpt lat="43.76074" lon="7.09014">
        <ele>763</ele>
        <time>2018-05-03T09:42:39.000Z</time>
      </trkpt>
      <trkpt lat="43.76071" lon="7.09005">
        <ele>763</ele>
        <time>2018-05-03T09:42:43.000Z</time>
      </trkpt>
      <trkpt lat="43.76068" lon="7.08999">
        <ele>764</ele>
        <time>2018-05-03T09:42:48.000Z</time>
      </trkpt>
      <trkpt lat="43.76068" lon="7.08998">
        <ele>764</ele>
        <time>2018-05-03T09:42:49.000Z</time>
      </trkpt>
      <trkpt lat="43.76067" lon="7.08993">
        <ele>765</ele>
        <time>2018-05-03T09:42:54.000Z</time>
      </trkpt>
      <trkpt lat="43.76066" lon="7.08989">
        <ele>765</ele>
        <time>2018-05-03T09:42:56.000Z</time>
      </trkpt>
      <trkpt lat="43.76065" lon="7.08982">
        <ele>766</ele>
        <time>2018-05-03T09:43:00.000Z</time>
      </trkpt>
      <trkpt lat="43.76059" lon="7.0897">
        <ele>768</ele>
        <time>2018-05-03T09:43:06.000Z</time>
      </trkpt>
      <trkpt lat="43.76058" lon="7.0897">
        <ele>768</ele>
        <time>2018-05-03T09:43:08.000Z</time>
      </trkpt>
      <trkpt lat="43.76057" lon="7.08968">
        <ele>768</ele>
        <time>2018-05-03T09:43:11.000Z</time>
      </trkpt>
      <trkpt lat="43.76056" lon="7.08967">
        <ele>768</ele>
        <time>2018-05-03T09:43:17.000Z</time>
      </trkpt>
      <trkpt lat="43.76054" lon="7.08961">
        <ele>768</ele>
        <time>2018-05-03T09:43:22.000Z</time>
      </trkpt>
      <trkpt lat="43.76053" lon="7.0896">
        <ele>769</ele>
        <time>2018-05-03T09:43:23.000Z</time>
      </trkpt>
      <trkpt lat="43.76052" lon="7.08958">
        <ele>769</ele>
        <time>2018-05-03T09:43:24.000Z</time>
      </trkpt>
      <trkpt lat="43.76051" lon="7.08952">
        <ele>769</ele>
        <time>2018-05-03T09:43:27.000Z</time>
      </trkpt>
      <trkpt lat="43.7605" lon="7.08947">
        <ele>769</ele>
        <time>2018-05-03T09:43:29.000Z</time>
      </trkpt>
      <trkpt lat="43.76047" lon="7.08935">
        <ele>769</ele>
        <time>2018-05-03T09:43:34.000Z</time>
      </trkpt>
      <trkpt lat="43.76046" lon="7.08933">
        <ele>769</ele>
        <time>2018-05-03T09:43:35.000Z</time>
      </trkpt>
      <trkpt lat="43.76045" lon="7.0893">
        <ele>770</ele>
        <time>2018-05-03T09:43:40.000Z</time>
      </trkpt>
      <trkpt lat="43.76043" lon="7.08927">
        <ele>770</ele>
        <time>2018-05-03T09:43:44.000Z</time>
      </trkpt>
      <trkpt lat="43.76042" lon="7.08925">
        <ele>770</ele>
        <time>2018-05-03T09:43:47.000Z</time>
      </trkpt>
      <trkpt lat="43.76039" lon="7.0892">
        <ele>770</ele>
        <time>2018-05-03T09:43:53.000Z</time>
      </trkpt>
      <trkpt lat="43.76038" lon="7.08919">
        <ele>770</ele>
        <time>2018-05-03T09:43:55.000Z</time>
      </trkpt>
      <trkpt lat="43.76037" lon="7.08914">
        <ele>773</ele>
        <time>2018-05-03T09:43:59.000Z</time>
      </trkpt>
      <trkpt lat="43.76036" lon="7.08912">
        <ele>773</ele>
        <time>2018-05-03T09:44:02.000Z</time>
      </trkpt>
      <trkpt lat="43.76032" lon="7.08905">
        <ele>773</ele>
        <time>2018-05-03T09:44:09.000Z</time>
      </trkpt>
      <trkpt lat="43.76031" lon="7.08904">
        <ele>773</ele>
        <time>2018-05-03T09:44:11.000Z</time>
      </trkpt>
      <trkpt lat="43.76028" lon="7.089">
        <ele>773</ele>
        <time>2018-05-03T09:44:16.000Z</time>
      </trkpt>
      <trkpt lat="43.76026" lon="7.08897">
        <ele>773</ele>
        <time>2018-05-03T09:44:20.000Z</time>
      </trkpt>
      <trkpt lat="43.76025" lon="7.08895">
        <ele>773</ele>
        <time>2018-05-03T09:44:23.000Z</time>
      </trkpt>
      <trkpt lat="43.76021" lon="7.0889">
        <ele>774</ele>
        <time>2018-05-03T09:44:29.000Z</time>
      </trkpt>
      <trkpt lat="43.7602" lon="7.08888">
        <ele>774</ele>
        <time>2018-05-03T09:44:32.000Z</time>
      </trkpt>
      <trkpt lat="43.76018" lon="7.08884">
        <ele>774</ele>
        <time>2018-05-03T09:44:38.000Z</time>
      </trkpt>
      <trkpt lat="43.76018" lon="7.08883">
        <ele>774</ele>
        <time>2018-05-03T09:44:39.000Z</time>
      </trkpt>
      <trkpt lat="43.76015" lon="7.08877">
        <ele>774</ele>
        <time>2018-05-03T09:44:46.000Z</time>
      </trkpt>
      <trkpt lat="43.76015" lon="7.08877">
        <ele>774</ele>
        <time>2018-05-03T09:44:47.000Z</time>
      </trkpt>
      <trkpt lat="43.76011" lon="7.08872">
        <ele>774</ele>
        <time>2018-05-03T09:44:54.000Z</time>
      </trkpt>
      <trkpt lat="43.7601" lon="7.08872">
        <ele>774</ele>
        <time>2018-05-03T09:44:55.000Z</time>
      </trkpt>
      <trkpt lat="43.76009" lon="7.08869">
        <ele>774</ele>
        <time>2018-05-03T09:45:02.000Z</time>
      </trkpt>
      <trkpt lat="43.76009" lon="7.08865">
        <ele>774</ele>
        <time>2018-05-03T09:45:10.000Z</time>
      </trkpt>
      <trkpt lat="43.76005" lon="7.08853">
        <ele>774</ele>
        <time>2018-05-03T09:45:16.000Z</time>
      </trkpt>
      <trkpt lat="43.76005" lon="7.08851">
        <ele>774</ele>
        <time>2018-05-03T09:45:17.000Z</time>
      </trkpt>
      <trkpt lat="43.76001" lon="7.08845">
        <ele>774</ele>
        <time>2018-05-03T09:45:22.000Z</time>
      </trkpt>
      <trkpt lat="43.76001" lon="7.08845">
        <ele>774</ele>
        <time>2018-05-03T09:45:25.000Z</time>
      </trkpt>
      <trkpt lat="43.76" lon="7.08843">
        <ele>776</ele>
        <time>2018-05-03T09:45:27.000Z</time>
      </trkpt>
      <trkpt lat="43.75997" lon="7.08837">
        <ele>775</ele>
        <time>2018-05-03T09:45:34.000Z</time>
      </trkpt>
      <trkpt lat="43.75996" lon="7.08835">
        <ele>775</ele>
        <time>2018-05-03T09:45:37.000Z</time>
      </trkpt>
      <trkpt lat="43.7599" lon="7.08831">
        <ele>776</ele>
        <time>2018-05-03T09:45:45.000Z</time>
      </trkpt>
      <trkpt lat="43.75987" lon="7.08829">
        <ele>776</ele>
        <time>2018-05-03T09:45:51.000Z</time>
      </trkpt>
      <trkpt lat="43.75986" lon="7.08829">
        <ele>777</ele>
        <time>2018-05-03T09:45:53.000Z</time>
      </trkpt>
      <trkpt lat="43.7598" lon="7.0883">
        <ele>777</ele>
        <time>2018-05-03T09:46:02.000Z</time>
      </trkpt>
      <trkpt lat="43.75979" lon="7.0883">
        <ele>777</ele>
        <time>2018-05-03T09:46:03.000Z</time>
      </trkpt>
      <trkpt lat="43.75976" lon="7.0883">
        <ele>778</ele>
        <time>2018-05-03T09:46:07.000Z</time>
      </trkpt>
      <trkpt lat="43.75974" lon="7.0883">
        <ele>778</ele>
        <time>2018-05-03T09:46:09.000Z</time>
      </trkpt>
      <trkpt lat="43.75971" lon="7.08832">
        <ele>778</ele>
        <time>2018-05-03T09:46:14.000Z</time>
      </trkpt>
      <trkpt lat="43.75969" lon="7.08832">
        <ele>778</ele>
        <time>2018-05-03T09:46:17.000Z</time>
      </trkpt>
      <trkpt lat="43.75966" lon="7.08831">
        <ele>779</ele>
        <time>2018-05-03T09:46:22.000Z</time>
      </trkpt>
      <trkpt lat="43.75964" lon="7.08832">
        <ele>779</ele>
        <time>2018-05-03T09:46:25.000Z</time>
      </trkpt>
      <trkpt lat="43.75961" lon="7.08833">
        <ele>779</ele>
        <time>2018-05-03T09:46:29.000Z</time>
      </trkpt>
      <trkpt lat="43.75958" lon="7.08835">
        <ele>779</ele>
        <time>2018-05-03T09:46:34.000Z</time>
      </trkpt>
      <trkpt lat="43.75955" lon="7.08834">
        <ele>779</ele>
        <time>2018-05-03T09:46:40.000Z</time>
      </trkpt>
      <trkpt lat="43.75951" lon="7.08834">
        <ele>780</ele>
        <time>2018-05-03T09:46:44.000Z</time>
      </trkpt>
      <trkpt lat="43.75942" lon="7.08836">
        <ele>780</ele>
        <time>2018-05-03T09:46:50.000Z</time>
      </trkpt>
      <trkpt lat="43.75941" lon="7.08836">
        <ele>780</ele>
        <time>2018-05-03T09:46:51.000Z</time>
      </trkpt>
      <trkpt lat="43.7594" lon="7.08835">
        <ele>781</ele>
        <time>2018-05-03T09:46:52.000Z</time>
      </trkpt>
      <trkpt lat="43.75936" lon="7.08834">
        <ele>781</ele>
        <time>2018-05-03T09:46:55.000Z</time>
      </trkpt>
      <trkpt lat="43.75935" lon="7.08833">
        <ele>781</ele>
        <time>2018-05-03T09:46:56.000Z</time>
      </trkpt>
      <trkpt lat="43.75934" lon="7.08833">
        <ele>781</ele>
        <time>2018-05-03T09:46:59.000Z</time>
      </trkpt>
      <trkpt lat="43.75931" lon="7.08833">
        <ele>781</ele>
        <time>2018-05-03T09:47:04.000Z</time>
      </trkpt>
      <trkpt lat="43.75929" lon="7.08834">
        <ele>781</ele>
        <time>2018-05-03T09:47:08.000Z</time>
      </trkpt>
      <trkpt lat="43.75926" lon="7.08835">
        <ele>781</ele>
        <time>2018-05-03T09:47:10.000Z</time>
      </trkpt>
      <trkpt lat="43.75914" lon="7.08835">
        <ele>782</ele>
        <time>2018-05-03T09:47:16.000Z</time>
      </trkpt>
      <trkpt lat="43.75901" lon="7.08834">
        <ele>783</ele>
        <time>2018-05-03T09:47:23.000Z</time>
      </trkpt>
      <trkpt lat="43.7589" lon="7.08836">
        <ele>783</ele>
        <time>2018-05-03T09:47:28.000Z</time>
      </trkpt>
      <trkpt lat="43.75888" lon="7.08834">
        <ele>783</ele>
        <time>2018-05-03T09:47:29.000Z</time>
      </trkpt>
      <trkpt lat="43.7588" lon="7.08831">
        <ele>782</ele>
        <time>2018-05-03T09:47:32.000Z</time>
      </trkpt>
      <trkpt lat="43.75877" lon="7.08831">
        <ele>782</ele>
        <time>2018-05-03T09:47:33.000Z</time>
      </trkpt>
      <trkpt lat="43.75871" lon="7.08827">
        <ele>781</ele>
        <time>2018-05-03T09:47:35.000Z</time>
      </trkpt>
      <trkpt lat="43.75868" lon="7.08822">
        <ele>781</ele>
        <time>2018-05-03T09:47:37.000Z</time>
      </trkpt>
      <trkpt lat="43.75866" lon="7.08818">
        <ele>781</ele>
        <time>2018-05-03T09:47:38.000Z</time>
      </trkpt>
      <trkpt lat="43.75865" lon="7.08815">
        <ele>781</ele>
        <time>2018-05-03T09:47:39.000Z</time>
      </trkpt>
      <trkpt lat="43.7586" lon="7.088">
        <ele>781</ele>
        <time>2018-05-03T09:47:44.000Z</time>
      </trkpt>
      <trkpt lat="43.75858" lon="7.08786">
        <ele>782</ele>
        <time>2018-05-03T09:47:49.000Z</time>
      </trkpt>
      <trkpt lat="43.75856" lon="7.08776">
        <ele>782</ele>
        <time>2018-05-03T09:47:53.000Z</time>
      </trkpt>
      <trkpt lat="43.75855" lon="7.08772">
        <ele>782</ele>
        <time>2018-05-03T09:47:55.000Z</time>
      </trkpt>
      <trkpt lat="43.75852" lon="7.08764">
        <ele>782</ele>
        <time>2018-05-03T09:47:59.000Z</time>
      </trkpt>
      <trkpt lat="43.75852" lon="7.08762">
        <ele>782</ele>
        <time>2018-05-03T09:48:00.000Z</time>
      </trkpt>
      <trkpt lat="43.75852" lon="7.0876">
        <ele>781</ele>
        <time>2018-05-03T09:48:01.000Z</time>
      </trkpt>
      <trkpt lat="43.75853" lon="7.08747">
        <ele>784</ele>
        <time>2018-05-03T09:48:06.000Z</time>
      </trkpt>
      <trkpt lat="43.75853" lon="7.08743">
        <ele>784</ele>
        <time>2018-05-03T09:48:08.000Z</time>
      </trkpt>
      <trkpt lat="43.75854" lon="7.08734">
        <ele>784</ele>
        <time>2018-05-03T09:48:12.000Z</time>
      </trkpt>
      <trkpt lat="43.75853" lon="7.08731">
        <ele>785</ele>
        <time>2018-05-03T09:48:13.000Z</time>
      </trkpt>
      <trkpt lat="43.75852" lon="7.08727">
        <ele>785</ele>
        <time>2018-05-03T09:48:15.000Z</time>
      </trkpt>
      <trkpt lat="43.75851" lon="7.08717">
        <ele>785</ele>
        <time>2018-05-03T09:48:19.000Z</time>
      </trkpt>
      <trkpt lat="43.75848" lon="7.08702">
        <ele>786</ele>
        <time>2018-05-03T09:48:25.000Z</time>
      </trkpt>
      <trkpt lat="43.75844" lon="7.08682">
        <ele>787</ele>
        <time>2018-05-03T09:48:33.000Z</time>
      </trkpt>
      <trkpt lat="43.7584" lon="7.08676">
        <ele>787</ele>
        <time>2018-05-03T09:48:36.000Z</time>
      </trkpt>
      <trkpt lat="43.75839" lon="7.08674">
        <ele>788</ele>
        <time>2018-05-03T09:48:39.000Z</time>
      </trkpt>
      <trkpt lat="43.75838" lon="7.08674">
        <ele>788</ele>
        <time>2018-05-03T09:48:49.000Z</time>
      </trkpt>
      <trkpt lat="43.75838" lon="7.08674">
        <ele>788</ele>
        <time>2018-05-03T09:48:50.000Z</time>
      </trkpt>
      <trkpt lat="43.75838" lon="7.08674">
        <ele>788</ele>
        <time>2018-05-03T09:48:57.000Z</time>
      </trkpt>
      <trkpt lat="43.75838" lon="7.08674">
        <ele>788</ele>
        <time>2018-05-03T09:49:10.000Z</time>
      </trkpt>
      <trkpt lat="43.75838" lon="7.08674">
        <ele>788</ele>
        <time>2018-05-03T09:49:35.000Z</time>
      </trkpt>
      <trkpt lat="43.75838" lon="7.08674">
        <ele>788</ele>
        <time>2018-05-03T09:50:00.000Z</time>
      </trkpt>
      <trkpt lat="43.75838" lon="7.08674">
        <ele>788</ele>
        <time>2018-05-03T09:50:06.000Z</time>
      </trkpt>
      <trkpt lat="43.75838" lon="7.08674">
        <ele>788</ele>
        <time>2018-05-03T09:50:19.000Z</time>
      </trkpt>
      <trkpt lat="43.75839" lon="7.08667">
        <ele>788</ele>
        <time>2018-05-03T09:50:25.000Z</time>
      </trkpt>
      <trkpt lat="43.75844" lon="7.08666">
        <ele>790</ele>
        <time>2018-05-03T09:50:29.000Z</time>
      </trkpt>
      <trkpt lat="43.75849" lon="7.08666">
        <ele>791</ele>
        <time>2018-05-03T09:50:32.000Z</time>
      </trkpt>
      <trkpt lat="43.75852" lon="7.08665">
        <ele>791</ele>
        <time>2018-05-03T09:50:34.000Z</time>
      </trkpt>
      <trkpt lat="43.75859" lon="7.08663">
        <ele>792</ele>
        <time>2018-05-03T09:50:40.000Z</time>
      </trkpt>
      <trkpt lat="43.75864" lon="7.08663">
        <ele>793</ele>
        <time>2018-05-03T09:50:43.000Z</time>
      </trkpt>
      <trkpt lat="43.75871" lon="7.08662">
        <ele>793</ele>
        <time>2018-05-03T09:50:48.000Z</time>
      </trkpt>
      <trkpt lat="43.75876" lon="7.08659">
        <ele>793</ele>
        <time>2018-05-03T09:50:52.000Z</time>
      </trkpt>
      <trkpt lat="43.75877" lon="7.08655">
        <ele>794</ele>
        <time>2018-05-03T09:50:54.000Z</time>
      </trkpt>
      <trkpt lat="43.75872" lon="7.08651">
        <ele>794</ele>
        <time>2018-05-03T09:50:59.000Z</time>
      </trkpt>
      <trkpt lat="43.75868" lon="7.08646">
        <ele>794</ele>
        <time>2018-05-03T09:51:03.000Z</time>
      </trkpt>
      <trkpt lat="43.75866" lon="7.08646">
        <ele>794</ele>
        <time>2018-05-03T09:51:04.000Z</time>
      </trkpt>
      <trkpt lat="43.7586" lon="7.08641">
        <ele>794</ele>
        <time>2018-05-03T09:51:08.000Z</time>
      </trkpt>
      <trkpt lat="43.7586" lon="7.08639">
        <ele>794</ele>
        <time>2018-05-03T09:51:09.000Z</time>
      </trkpt>
      <trkpt lat="43.75857" lon="7.08635">
        <ele>794</ele>
        <time>2018-05-03T09:51:12.000Z</time>
      </trkpt>
      <trkpt lat="43.75856" lon="7.08634">
        <ele>794</ele>
        <time>2018-05-03T09:51:13.000Z</time>
      </trkpt>
      <trkpt lat="43.75852" lon="7.0863">
        <ele>794</ele>
        <time>2018-05-03T09:51:16.000Z</time>
      </trkpt>
      <trkpt lat="43.75844" lon="7.08621">
        <ele>794</ele>
        <time>2018-05-03T09:51:23.000Z</time>
      </trkpt>
      <trkpt lat="43.75843" lon="7.08619">
        <ele>795</ele>
        <time>2018-05-03T09:51:24.000Z</time>
      </trkpt>
      <trkpt lat="43.75843" lon="7.08614">
        <ele>795</ele>
        <time>2018-05-03T09:51:26.000Z</time>
      </trkpt>
      <trkpt lat="43.75843" lon="7.08613">
        <ele>795</ele>
        <time>2018-05-03T09:51:27.000Z</time>
      </trkpt>
      <trkpt lat="43.75843" lon="7.08611">
        <ele>795</ele>
        <time>2018-05-03T09:51:28.000Z</time>
      </trkpt>
      <trkpt lat="43.75841" lon="7.08605">
        <ele>796</ele>
        <time>2018-05-03T09:51:32.000Z</time>
      </trkpt>
      <trkpt lat="43.75841" lon="7.08604">
        <ele>796</ele>
        <time>2018-05-03T09:51:33.000Z</time>
      </trkpt>
      <trkpt lat="43.75836" lon="7.08595">
        <ele>796</ele>
        <time>2018-05-03T09:51:38.000Z</time>
      </trkpt>
      <trkpt lat="43.75833" lon="7.08585">
        <ele>796</ele>
        <time>2018-05-03T09:51:44.000Z</time>
      </trkpt>
      <trkpt lat="43.75833" lon="7.08584">
        <ele>797</ele>
        <time>2018-05-03T09:51:45.000Z</time>
      </trkpt>
      <trkpt lat="43.75831" lon="7.08574">
        <ele>797</ele>
        <time>2018-05-03T09:51:50.000Z</time>
      </trkpt>
      <trkpt lat="43.75831" lon="7.08572">
        <ele>797</ele>
        <time>2018-05-03T09:51:51.000Z</time>
      </trkpt>
      <trkpt lat="43.75831" lon="7.0857">
        <ele>797</ele>
        <time>2018-05-03T09:51:53.000Z</time>
      </trkpt>
      <trkpt lat="43.75829" lon="7.08567">
        <ele>797</ele>
        <time>2018-05-03T09:51:55.000Z</time>
      </trkpt>
      <trkpt lat="43.75828" lon="7.08565">
        <ele>797</ele>
        <time>2018-05-03T09:51:56.000Z</time>
      </trkpt>
      <trkpt lat="43.75827" lon="7.08559">
        <ele>798</ele>
        <time>2018-05-03T09:52:00.000Z</time>
      </trkpt>
      <trkpt lat="43.75826" lon="7.08556">
        <ele>798</ele>
        <time>2018-05-03T09:52:02.000Z</time>
      </trkpt>
      <trkpt lat="43.75826" lon="7.08553">
        <ele>798</ele>
        <time>2018-05-03T09:52:03.000Z</time>
      </trkpt>
      <trkpt lat="43.75827" lon="7.08546">
        <ele>799</ele>
        <time>2018-05-03T09:52:07.000Z</time>
      </trkpt>
      <trkpt lat="43.75826" lon="7.08545">
        <ele>799</ele>
        <time>2018-05-03T09:52:08.000Z</time>
      </trkpt>
      <trkpt lat="43.75825" lon="7.08537">
        <ele>800</ele>
        <time>2018-05-03T09:52:13.000Z</time>
      </trkpt>
      <trkpt lat="43.75825" lon="7.08525">
        <ele>802</ele>
        <time>2018-05-03T09:52:19.000Z</time>
      </trkpt>
      <trkpt lat="43.75825" lon="7.08524">
        <ele>802</ele>
        <time>2018-05-03T09:52:20.000Z</time>
      </trkpt>
      <trkpt lat="43.75821" lon="7.08523">
        <ele>802</ele>
        <time>2018-05-03T09:52:23.000Z</time>
      </trkpt>
      <trkpt lat="43.7582" lon="7.08522">
        <ele>802</ele>
        <time>2018-05-03T09:52:24.000Z</time>
      </trkpt>
      <trkpt lat="43.75818" lon="7.08521">
        <ele>802</ele>
        <time>2018-05-03T09:52:25.000Z</time>
      </trkpt>
      <trkpt lat="43.75809" lon="7.0851">
        <ele>802</ele>
        <time>2018-05-03T09:52:32.000Z</time>
      </trkpt>
      <trkpt lat="43.75794" lon="7.08495">
        <ele>811</ele>
        <time>2018-05-03T09:52:41.000Z</time>
      </trkpt>
      <trkpt lat="43.75777" lon="7.08479">
        <ele>811</ele>
        <time>2018-05-03T09:52:49.000Z</time>
      </trkpt>
      <trkpt lat="43.75773" lon="7.08475">
        <ele>811</ele>
        <time>2018-05-03T09:52:51.000Z</time>
      </trkpt>
      <trkpt lat="43.75768" lon="7.08473">
        <ele>811</ele>
        <time>2018-05-03T09:52:54.000Z</time>
      </trkpt>
      <trkpt lat="43.75763" lon="7.08472">
        <ele>811</ele>
        <time>2018-05-03T09:52:56.000Z</time>
      </trkpt>
      <trkpt lat="43.75759" lon="7.08469">
        <ele>811</ele>
        <time>2018-05-03T09:52:58.000Z</time>
      </trkpt>
      <trkpt lat="43.75747" lon="7.08462">
        <ele>808</ele>
        <time>2018-05-03T09:53:04.000Z</time>
      </trkpt>
      <trkpt lat="43.75743" lon="7.0846">
        <ele>808</ele>
        <time>2018-05-03T09:53:06.000Z</time>
      </trkpt>
      <trkpt lat="43.75732" lon="7.08457">
        <ele>809</ele>
        <time>2018-05-03T09:53:11.000Z</time>
      </trkpt>
      <trkpt lat="43.75722" lon="7.08451">
        <ele>809</ele>
        <time>2018-05-03T09:53:16.000Z</time>
      </trkpt>
      <trkpt lat="43.75721" lon="7.0845">
        <ele>809</ele>
        <time>2018-05-03T09:53:17.000Z</time>
      </trkpt>
      <trkpt lat="43.7572" lon="7.0845">
        <ele>809</ele>
        <time>2018-05-03T09:53:21.000Z</time>
      </trkpt>
      <trkpt lat="43.75717" lon="7.08449">
        <ele>809</ele>
        <time>2018-05-03T09:53:28.000Z</time>
      </trkpt>
      <trkpt lat="43.75717" lon="7.08448">
        <ele>809</ele>
        <time>2018-05-03T09:53:35.000Z</time>
      </trkpt>
      <trkpt lat="43.75714" lon="7.08445">
        <ele>809</ele>
        <time>2018-05-03T09:53:39.000Z</time>
      </trkpt>
      <trkpt lat="43.75713" lon="7.08445">
        <ele>809</ele>
        <time>2018-05-03T09:53:42.000Z</time>
      </trkpt>
      <trkpt lat="43.7571" lon="7.08444">
        <ele>809</ele>
        <time>2018-05-03T09:53:47.000Z</time>
      </trkpt>
      <trkpt lat="43.75701" lon="7.08441">
        <ele>810</ele>
        <time>2018-05-03T09:53:53.000Z</time>
      </trkpt>
      <trkpt lat="43.757" lon="7.0844">
        <ele>810</ele>
        <time>2018-05-03T09:53:54.000Z</time>
      </trkpt>
      <trkpt lat="43.75692" lon="7.08436">
        <ele>810</ele>
        <time>2018-05-03T09:53:59.000Z</time>
      </trkpt>
      <trkpt lat="43.75685" lon="7.08432">
        <ele>811</ele>
        <time>2018-05-03T09:54:04.000Z</time>
      </trkpt>
      <trkpt lat="43.75681" lon="7.0843">
        <ele>811</ele>
        <time>2018-05-03T09:54:07.000Z</time>
      </trkpt>
      <trkpt lat="43.7568" lon="7.0843">
        <ele>812</ele>
        <time>2018-05-03T09:54:08.000Z</time>
      </trkpt>
      <trkpt lat="43.75679" lon="7.08429">
        <ele>812</ele>
        <time>2018-05-03T09:54:09.000Z</time>
      </trkpt>
      <trkpt lat="43.75678" lon="7.08428">
        <ele>812</ele>
        <time>2018-05-03T09:54:13.000Z</time>
      </trkpt>
      <trkpt lat="43.75676" lon="7.08425">
        <ele>813</ele>
        <time>2018-05-03T09:54:20.000Z</time>
      </trkpt>
      <trkpt lat="43.75675" lon="7.08426">
        <ele>813</ele>
        <time>2018-05-03T09:54:25.000Z</time>
      </trkpt>
      <trkpt lat="43.75672" lon="7.08426">
        <ele>813</ele>
        <time>2018-05-03T09:54:27.000Z</time>
      </trkpt>
      <trkpt lat="43.75663" lon="7.08424">
        <ele>813</ele>
        <time>2018-05-03T09:54:32.000Z</time>
      </trkpt>
      <trkpt lat="43.75661" lon="7.08423">
        <ele>813</ele>
        <time>2018-05-03T09:54:33.000Z</time>
      </trkpt>
      <trkpt lat="43.75651" lon="7.08417">
        <ele>819</ele>
        <time>2018-05-03T09:54:40.000Z</time>
      </trkpt>
      <trkpt lat="43.75644" lon="7.08412">
        <ele>820</ele>
        <time>2018-05-03T09:54:46.000Z</time>
      </trkpt>
      <trkpt lat="43.75637" lon="7.0841">
        <ele>821</ele>
        <time>2018-05-03T09:54:51.000Z</time>
      </trkpt>
      <trkpt lat="43.75629" lon="7.08406">
        <ele>821</ele>
        <time>2018-05-03T09:54:57.000Z</time>
      </trkpt>
      <trkpt lat="43.75625" lon="7.08406">
        <ele>821</ele>
        <time>2018-05-03T09:54:59.000Z</time>
      </trkpt>
      <trkpt lat="43.75617" lon="7.08406">
        <ele>821</ele>
        <time>2018-05-03T09:55:03.000Z</time>
      </trkpt>
      <trkpt lat="43.75603" lon="7.08402">
        <ele>820</ele>
        <time>2018-05-03T09:55:09.000Z</time>
      </trkpt>
      <trkpt lat="43.75584" lon="7.08393">
        <ele>821</ele>
        <time>2018-05-03T09:55:16.000Z</time>
      </trkpt>
      <trkpt lat="43.75573" lon="7.08388">
        <ele>820</ele>
        <time>2018-05-03T09:55:19.000Z</time>
      </trkpt>
      <trkpt lat="43.75568" lon="7.08386">
        <ele>820</ele>
        <time>2018-05-03T09:55:21.000Z</time>
      </trkpt>
      <trkpt lat="43.75558" lon="7.08381">
        <ele>821</ele>
        <time>2018-05-03T09:55:27.000Z</time>
      </trkpt>
      <trkpt lat="43.75552" lon="7.08379">
        <ele>821</ele>
        <time>2018-05-03T09:55:31.000Z</time>
      </trkpt>
      <trkpt lat="43.75546" lon="7.08377">
        <ele>821</ele>
        <time>2018-05-03T09:55:35.000Z</time>
      </trkpt>
      <trkpt lat="43.75543" lon="7.08376">
        <ele>821</ele>
        <time>2018-05-03T09:55:37.000Z</time>
      </trkpt>
      <trkpt lat="43.75531" lon="7.08373">
        <ele>821</ele>
        <time>2018-05-03T09:55:43.000Z</time>
      </trkpt>
      <trkpt lat="43.75517" lon="7.08362">
        <ele>822</ele>
        <time>2018-05-03T09:55:50.000Z</time>
      </trkpt>
      <trkpt lat="43.75497" lon="7.08351">
        <ele>821</ele>
        <time>2018-05-03T09:55:57.000Z</time>
      </trkpt>
      <trkpt lat="43.75477" lon="7.08338">
        <ele>820</ele>
        <time>2018-05-03T09:56:03.000Z</time>
      </trkpt>
      <trkpt lat="43.75463" lon="7.08331">
        <ele>826</ele>
        <time>2018-05-03T09:56:08.000Z</time>
      </trkpt>
      <trkpt lat="43.75451" lon="7.08326">
        <ele>826</ele>
        <time>2018-05-03T09:56:14.000Z</time>
      </trkpt>
      <trkpt lat="43.75445" lon="7.08321">
        <ele>825</ele>
        <time>2018-05-03T09:56:19.000Z</time>
      </trkpt>
      <trkpt lat="43.75443" lon="7.08319">
        <ele>825</ele>
        <time>2018-05-03T09:56:21.000Z</time>
      </trkpt>
      <trkpt lat="43.7544" lon="7.08314">
        <ele>825</ele>
        <time>2018-05-03T09:56:25.000Z</time>
      </trkpt>
      <trkpt lat="43.75437" lon="7.08312">
        <ele>825</ele>
        <time>2018-05-03T09:56:28.000Z</time>
      </trkpt>
      <trkpt lat="43.75434" lon="7.0831">
        <ele>825</ele>
        <time>2018-05-03T09:56:31.000Z</time>
      </trkpt>
      <trkpt lat="43.75431" lon="7.08307">
        <ele>825</ele>
        <time>2018-05-03T09:56:34.000Z</time>
      </trkpt>
      <trkpt lat="43.75424" lon="7.083">
        <ele>826</ele>
        <time>2018-05-03T09:56:40.000Z</time>
      </trkpt>
      <trkpt lat="43.75422" lon="7.08297">
        <ele>826</ele>
        <time>2018-05-03T09:56:42.000Z</time>
      </trkpt>
      <trkpt lat="43.7542" lon="7.08286">
        <ele>827</ele>
        <time>2018-05-03T09:56:48.000Z</time>
      </trkpt>
      <trkpt lat="43.7542" lon="7.08283">
        <ele>827</ele>
        <time>2018-05-03T09:56:50.000Z</time>
      </trkpt>
      <trkpt lat="43.75421" lon="7.08282">
        <ele>827</ele>
        <time>2018-05-03T09:56:51.000Z</time>
      </trkpt>
      <trkpt lat="43.75423" lon="7.08278">
        <ele>828</ele>
        <time>2018-05-03T09:56:54.000Z</time>
      </trkpt>
      <trkpt lat="43.75426" lon="7.08269">
        <ele>828</ele>
        <time>2018-05-03T09:57:00.000Z</time>
      </trkpt>
      <trkpt lat="43.75427" lon="7.08259">
        <ele>829</ele>
        <time>2018-05-03T09:57:07.000Z</time>
      </trkpt>
      <trkpt lat="43.75432" lon="7.08249">
        <ele>832</ele>
        <time>2018-05-03T09:57:13.000Z</time>
      </trkpt>
      <trkpt lat="43.75433" lon="7.08248">
        <ele>832</ele>
        <time>2018-05-03T09:57:14.000Z</time>
      </trkpt>
      <trkpt lat="43.75436" lon="7.08242">
        <ele>833</ele>
        <time>2018-05-03T09:57:19.000Z</time>
      </trkpt>
      <trkpt lat="43.75436" lon="7.08239">
        <ele>833</ele>
        <time>2018-05-03T09:57:21.000Z</time>
      </trkpt>
      <trkpt lat="43.75438" lon="7.08234">
        <ele>834</ele>
        <time>2018-05-03T09:57:25.000Z</time>
      </trkpt>
      <trkpt lat="43.7544" lon="7.0823">
        <ele>834</ele>
        <time>2018-05-03T09:57:28.000Z</time>
      </trkpt>
      <trkpt lat="43.7544" lon="7.08225">
        <ele>834</ele>
        <time>2018-05-03T09:57:32.000Z</time>
      </trkpt>
      <trkpt lat="43.7544" lon="7.08225">
        <ele>834</ele>
        <time>2018-05-03T09:57:36.000Z</time>
      </trkpt>
      <trkpt lat="43.75443" lon="7.08224">
        <ele>835</ele>
        <time>2018-05-03T09:57:43.000Z</time>
      </trkpt>
      <trkpt lat="43.75444" lon="7.08221">
        <ele>835</ele>
        <time>2018-05-03T09:57:47.000Z</time>
      </trkpt>
      <trkpt lat="43.75444" lon="7.0822">
        <ele>835</ele>
        <time>2018-05-03T09:57:52.000Z</time>
      </trkpt>
      <trkpt lat="43.75445" lon="7.08219">
        <ele>835</ele>
        <time>2018-05-03T09:57:54.000Z</time>
      </trkpt>
      <trkpt lat="43.75447" lon="7.08215">
        <ele>835</ele>
        <time>2018-05-03T09:57:57.000Z</time>
      </trkpt>
      <trkpt lat="43.75448" lon="7.08213">
        <ele>835</ele>
        <time>2018-05-03T09:57:58.000Z</time>
      </trkpt>
      <trkpt lat="43.75451" lon="7.08206">
        <ele>836</ele>
        <time>2018-05-03T09:58:03.000Z</time>
      </trkpt>
      <trkpt lat="43.75452" lon="7.08205">
        <ele>836</ele>
        <time>2018-05-03T09:58:04.000Z</time>
      </trkpt>
      <trkpt lat="43.75455" lon="7.082">
        <ele>836</ele>
        <time>2018-05-03T09:58:08.000Z</time>
      </trkpt>
      <trkpt lat="43.75457" lon="7.08198">
        <ele>836</ele>
        <time>2018-05-03T09:58:11.000Z</time>
      </trkpt>
      <trkpt lat="43.75457" lon="7.08198">
        <ele>836</ele>
        <time>2018-05-03T09:58:13.000Z</time>
      </trkpt>
      <trkpt lat="43.75457" lon="7.08198">
        <ele>836</ele>
        <time>2018-05-03T09:58:20.000Z</time>
      </trkpt>
      <trkpt lat="43.75457" lon="7.08198">
        <ele>836</ele>
        <time>2018-05-03T09:58:37.000Z</time>
      </trkpt>
      <trkpt lat="43.75459" lon="7.08197">
        <ele>836</ele>
        <time>2018-05-03T09:58:47.000Z</time>
      </trkpt>
      <trkpt lat="43.7546" lon="7.08196">
        <ele>837</ele>
        <time>2018-05-03T09:58:51.000Z</time>
      </trkpt>
      <trkpt lat="43.7546" lon="7.08194">
        <ele>837</ele>
        <time>2018-05-03T09:58:53.000Z</time>
      </trkpt>
      <trkpt lat="43.75465" lon="7.08188">
        <ele>837</ele>
        <time>2018-05-03T09:58:59.000Z</time>
      </trkpt>
      <trkpt lat="43.75468" lon="7.08186">
        <ele>838</ele>
        <time>2018-05-03T09:59:02.000Z</time>
      </trkpt>
      <trkpt lat="43.7547" lon="7.08184">
        <ele>838</ele>
        <time>2018-05-03T09:59:04.000Z</time>
      </trkpt>
      <trkpt lat="43.75474" lon="7.0818">
        <ele>838</ele>
        <time>2018-05-03T09:59:08.000Z</time>
      </trkpt>
      <trkpt lat="43.75476" lon="7.08179">
        <ele>839</ele>
        <time>2018-05-03T09:59:09.000Z</time>
      </trkpt>
      <trkpt lat="43.75479" lon="7.08179">
        <ele>839</ele>
        <time>2018-05-03T09:59:11.000Z</time>
      </trkpt>
      <trkpt lat="43.75484" lon="7.08177">
        <ele>840</ele>
        <time>2018-05-03T09:59:16.000Z</time>
      </trkpt>
      <trkpt lat="43.75485" lon="7.08176">
        <ele>840</ele>
        <time>2018-05-03T09:59:17.000Z</time>
      </trkpt>
      <trkpt lat="43.7549" lon="7.08173">
        <ele>841</ele>
        <time>2018-05-03T09:59:22.000Z</time>
      </trkpt>
      <trkpt lat="43.75491" lon="7.08173">
        <ele>841</ele>
        <time>2018-05-03T09:59:23.000Z</time>
      </trkpt>
      <trkpt lat="43.75497" lon="7.08172">
        <ele>842</ele>
        <time>2018-05-03T09:59:29.000Z</time>
      </trkpt>
      <trkpt lat="43.75502" lon="7.08171">
        <ele>844</ele>
        <time>2018-05-03T09:59:33.000Z</time>
      </trkpt>
      <trkpt lat="43.75506" lon="7.08173">
        <ele>844</ele>
        <time>2018-05-03T09:59:37.000Z</time>
      </trkpt>
      <trkpt lat="43.75509" lon="7.08173">
        <ele>844</ele>
        <time>2018-05-03T09:59:40.000Z</time>
      </trkpt>
      <trkpt lat="43.75514" lon="7.08174">
        <ele>844</ele>
        <time>2018-05-03T09:59:44.000Z</time>
      </trkpt>
      <trkpt lat="43.75519" lon="7.08175">
        <ele>845</ele>
        <time>2018-05-03T09:59:48.000Z</time>
      </trkpt>
      <trkpt lat="43.75523" lon="7.08176">
        <ele>845</ele>
        <time>2018-05-03T09:59:52.000Z</time>
      </trkpt>
      <trkpt lat="43.75531" lon="7.08175">
        <ele>845</ele>
        <time>2018-05-03T09:59:58.000Z</time>
      </trkpt>
      <trkpt lat="43.75534" lon="7.08176">
        <ele>845</ele>
        <time>2018-05-03T10:00:00.000Z</time>
      </trkpt>
      <trkpt lat="43.75541" lon="7.08173">
        <ele>846</ele>
        <time>2018-05-03T10:00:06.000Z</time>
      </trkpt>
      <trkpt lat="43.75543" lon="7.08172">
        <ele>846</ele>
        <time>2018-05-03T10:00:08.000Z</time>
      </trkpt>
      <trkpt lat="43.75551" lon="7.08172">
        <ele>847</ele>
        <time>2018-05-03T10:00:14.000Z</time>
      </trkpt>
      <trkpt lat="43.75553" lon="7.08173">
        <ele>847</ele>
        <time>2018-05-03T10:00:16.000Z</time>
      </trkpt>
      <trkpt lat="43.75558" lon="7.08172">
        <ele>848</ele>
        <time>2018-05-03T10:00:20.000Z</time>
      </trkpt>
      <trkpt lat="43.7556" lon="7.08172">
        <ele>848</ele>
        <time>2018-05-03T10:00:22.000Z</time>
      </trkpt>
      <trkpt lat="43.75569" lon="7.08172">
        <ele>849</ele>
        <time>2018-05-03T10:00:29.000Z</time>
      </trkpt>
      <trkpt lat="43.7557" lon="7.08172">
        <ele>850</ele>
        <time>2018-05-03T10:00:30.000Z</time>
      </trkpt>
      <trkpt lat="43.75571" lon="7.08172">
        <ele>850</ele>
        <time>2018-05-03T10:00:31.000Z</time>
      </trkpt>
      <trkpt lat="43.75578" lon="7.08172">
        <ele>851</ele>
        <time>2018-05-03T10:00:38.000Z</time>
      </trkpt>
      <trkpt lat="43.75583" lon="7.0817">
        <ele>853</ele>
        <time>2018-05-03T10:00:41.000Z</time>
      </trkpt>
      <trkpt lat="43.75589" lon="7.0817">
        <ele>854</ele>
        <time>2018-05-03T10:00:45.000Z</time>
      </trkpt>
      <trkpt lat="43.7559" lon="7.0817">
        <ele>854</ele>
        <time>2018-05-03T10:00:46.000Z</time>
      </trkpt>
      <trkpt lat="43.75599" lon="7.0817">
        <ele>854</ele>
        <time>2018-05-03T10:00:52.000Z</time>
      </trkpt>
      <trkpt lat="43.75606" lon="7.08169">
        <ele>854</ele>
        <time>2018-05-03T10:00:57.000Z</time>
      </trkpt>
      <trkpt lat="43.75607" lon="7.0817">
        <ele>854</ele>
        <time>2018-05-03T10:00:58.000Z</time>
      </trkpt>
      <trkpt lat="43.75615" lon="7.08171">
        <ele>854</ele>
        <time>2018-05-03T10:01:05.000Z</time>
      </trkpt>
      <trkpt lat="43.7562" lon="7.0817">
        <ele>854</ele>
        <time>2018-05-03T10:01:10.000Z</time>
      </trkpt>
      <trkpt lat="43.75627" lon="7.0817">
        <ele>855</ele>
        <time>2018-05-03T10:01:16.000Z</time>
      </trkpt>
      <trkpt lat="43.75628" lon="7.0817">
        <ele>855</ele>
        <time>2018-05-03T10:01:17.000Z</time>
      </trkpt>
      <trkpt lat="43.75632" lon="7.0817">
        <ele>856</ele>
        <time>2018-05-03T10:01:21.000Z</time>
      </trkpt>
      <trkpt lat="43.75635" lon="7.0817">
        <ele>856</ele>
        <time>2018-05-03T10:01:24.000Z</time>
      </trkpt>
      <trkpt lat="43.75636" lon="7.0817">
        <ele>856</ele>
        <time>2018-05-03T10:01:25.000Z</time>
      </trkpt>
      <trkpt lat="43.75645" lon="7.08169">
        <ele>857</ele>
        <time>2018-05-03T10:01:32.000Z</time>
      </trkpt>
      <trkpt lat="43.75646" lon="7.0817">
        <ele>858</ele>
        <time>2018-05-03T10:01:33.000Z</time>
      </trkpt>
      <trkpt lat="43.75651" lon="7.08171">
        <ele>859</ele>
        <time>2018-05-03T10:01:37.000Z</time>
      </trkpt>
      <trkpt lat="43.75654" lon="7.08172">
        <ele>859</ele>
        <time>2018-05-03T10:01:40.000Z</time>
      </trkpt>
      <trkpt lat="43.75659" lon="7.08171">
        <ele>861</ele>
        <time>2018-05-03T10:01:44.000Z</time>
      </trkpt>
      <trkpt lat="43.7566" lon="7.08171">
        <ele>861</ele>
        <time>2018-05-03T10:01:45.000Z</time>
      </trkpt>
      <trkpt lat="43.75666" lon="7.08171">
        <ele>862</ele>
        <time>2018-05-03T10:01:50.000Z</time>
      </trkpt>
      <trkpt lat="43.75671" lon="7.08173">
        <ele>863</ele>
        <time>2018-05-03T10:01:55.000Z</time>
      </trkpt>
      <trkpt lat="43.75673" lon="7.08174">
        <ele>862</ele>
        <time>2018-05-03T10:01:57.000Z</time>
      </trkpt>
      <trkpt lat="43.75674" lon="7.08174">
        <ele>862</ele>
        <time>2018-05-03T10:01:58.000Z</time>
      </trkpt>
      <trkpt lat="43.75676" lon="7.08174">
        <ele>862</ele>
        <time>2018-05-03T10:02:03.000Z</time>
      </trkpt>
      <trkpt lat="43.75683" lon="7.08172">
        <ele>862</ele>
        <time>2018-05-03T10:02:09.000Z</time>
      </trkpt>
      <trkpt lat="43.7569" lon="7.08171">
        <ele>862</ele>
        <time>2018-05-03T10:02:14.000Z</time>
      </trkpt>
      <trkpt lat="43.75693" lon="7.0817">
        <ele>862</ele>
        <time>2018-05-03T10:02:17.000Z</time>
      </trkpt>
      <trkpt lat="43.75701" lon="7.08168">
        <ele>862</ele>
        <time>2018-05-03T10:02:23.000Z</time>
      </trkpt>
      <trkpt lat="43.75702" lon="7.08168">
        <ele>862</ele>
        <time>2018-05-03T10:02:24.000Z</time>
      </trkpt>
      <trkpt lat="43.75707" lon="7.08167">
        <ele>862</ele>
        <time>2018-05-03T10:02:29.000Z</time>
      </trkpt>
      <trkpt lat="43.75709" lon="7.08167">
        <ele>862</ele>
        <time>2018-05-03T10:02:31.000Z</time>
      </trkpt>
      <trkpt lat="43.75714" lon="7.08166">
        <ele>872</ele>
        <time>2018-05-03T10:02:35.000Z</time>
      </trkpt>
      <trkpt lat="43.75719" lon="7.08166">
        <ele>872</ele>
        <time>2018-05-03T10:02:40.000Z</time>
      </trkpt>
      <trkpt lat="43.7572" lon="7.08166">
        <ele>872</ele>
        <time>2018-05-03T10:02:42.000Z</time>
      </trkpt>
      <trkpt lat="43.7572" lon="7.08165">
        <ele>872</ele>
        <time>2018-05-03T10:02:50.000Z</time>
      </trkpt>
      <trkpt lat="43.75721" lon="7.08165">
        <ele>872</ele>
        <time>2018-05-03T10:02:55.000Z</time>
      </trkpt>
      <trkpt lat="43.75724" lon="7.08164">
        <ele>872</ele>
        <time>2018-05-03T10:02:58.000Z</time>
      </trkpt>
      <trkpt lat="43.75725" lon="7.08164">
        <ele>872</ele>
        <time>2018-05-03T10:02:59.000Z</time>
      </trkpt>
      <trkpt lat="43.75726" lon="7.08163">
        <ele>872</ele>
        <time>2018-05-03T10:03:00.000Z</time>
      </trkpt>
      <trkpt lat="43.75727" lon="7.08162">
        <ele>872</ele>
        <time>2018-05-03T10:03:01.000Z</time>
      </trkpt>
      <trkpt lat="43.75729" lon="7.0816">
        <ele>872</ele>
        <time>2018-05-03T10:03:03.000Z</time>
      </trkpt>
      <trkpt lat="43.75729" lon="7.08157">
        <ele>872</ele>
        <time>2018-05-03T10:03:06.000Z</time>
      </trkpt>
      <trkpt lat="43.75727" lon="7.08154">
        <ele>873</ele>
        <time>2018-05-03T10:03:08.000Z</time>
      </trkpt>
      <trkpt lat="43.75721" lon="7.08143">
        <ele>873</ele>
        <time>2018-05-03T10:03:15.000Z</time>
      </trkpt>
      <trkpt lat="43.7572" lon="7.08141">
        <ele>873</ele>
        <time>2018-05-03T10:03:16.000Z</time>
      </trkpt>
      <trkpt lat="43.75716" lon="7.08136">
        <ele>874</ele>
        <time>2018-05-03T10:03:20.000Z</time>
      </trkpt>
      <trkpt lat="43.75715" lon="7.08133">
        <ele>874</ele>
        <time>2018-05-03T10:03:22.000Z</time>
      </trkpt>
      <trkpt lat="43.75712" lon="7.08127">
        <ele>874</ele>
        <time>2018-05-03T10:03:26.000Z</time>
      </trkpt>
      <trkpt lat="43.7571" lon="7.08123">
        <ele>875</ele>
        <time>2018-05-03T10:03:29.000Z</time>
      </trkpt>
      <trkpt lat="43.75708" lon="7.08118">
        <ele>875</ele>
        <time>2018-05-03T10:03:33.000Z</time>
      </trkpt>
      <trkpt lat="43.75708" lon="7.08117">
        <ele>875</ele>
        <time>2018-05-03T10:03:34.000Z</time>
      </trkpt>
      <trkpt lat="43.75704" lon="7.08111">
        <ele>876</ele>
        <time>2018-05-03T10:03:39.000Z</time>
      </trkpt>
      <trkpt lat="43.75702" lon="7.08108">
        <ele>876</ele>
        <time>2018-05-03T10:03:41.000Z</time>
      </trkpt>
      <trkpt lat="43.75697" lon="7.08097">
        <ele>876</ele>
        <time>2018-05-03T10:03:48.000Z</time>
      </trkpt>
      <trkpt lat="43.75697" lon="7.08096">
        <ele>876</ele>
        <time>2018-05-03T10:03:49.000Z</time>
      </trkpt>
      <trkpt lat="43.75693" lon="7.0809">
        <ele>877</ele>
        <time>2018-05-03T10:03:54.000Z</time>
      </trkpt>
      <trkpt lat="43.75693" lon="7.08089">
        <ele>877</ele>
        <time>2018-05-03T10:03:55.000Z</time>
      </trkpt>
      <trkpt lat="43.75691" lon="7.08082">
        <ele>885</ele>
        <time>2018-05-03T10:03:59.000Z</time>
      </trkpt>
      <trkpt lat="43.75691" lon="7.08082">
        <ele>884</ele>
        <time>2018-05-03T10:04:00.000Z</time>
      </trkpt>
      <trkpt lat="43.7569" lon="7.08081">
        <ele>884</ele>
        <time>2018-05-03T10:04:06.000Z</time>
      </trkpt>
      <trkpt lat="43.75688" lon="7.08078">
        <ele>884</ele>
        <time>2018-05-03T10:04:13.000Z</time>
      </trkpt>
      <trkpt lat="43.75681" lon="7.08069">
        <ele>884</ele>
        <time>2018-05-03T10:04:20.000Z</time>
      </trkpt>
      <trkpt lat="43.75679" lon="7.08064">
        <ele>884</ele>
        <time>2018-05-03T10:04:23.000Z</time>
      </trkpt>
      <trkpt lat="43.75676" lon="7.08059">
        <ele>885</ele>
        <time>2018-05-03T10:04:27.000Z</time>
      </trkpt>
      <trkpt lat="43.75675" lon="7.08056">
        <ele>885</ele>
        <time>2018-05-03T10:04:29.000Z</time>
      </trkpt>
      <trkpt lat="43.75671" lon="7.08049">
        <ele>886</ele>
        <time>2018-05-03T10:04:35.000Z</time>
      </trkpt>
      <trkpt lat="43.75671" lon="7.08047">
        <ele>887</ele>
        <time>2018-05-03T10:04:36.000Z</time>
      </trkpt>
      <trkpt lat="43.7567" lon="7.08045">
        <ele>887</ele>
        <time>2018-05-03T10:04:38.000Z</time>
      </trkpt>
      <trkpt lat="43.75669" lon="7.0804">
        <ele>887</ele>
        <time>2018-05-03T10:04:41.000Z</time>
      </trkpt>
      <trkpt lat="43.75667" lon="7.08032">
        <ele>888</ele>
        <time>2018-05-03T10:04:46.000Z</time>
      </trkpt>
      <trkpt lat="43.75667" lon="7.08028">
        <ele>888</ele>
        <time>2018-05-03T10:04:48.000Z</time>
      </trkpt>
      <trkpt lat="43.75666" lon="7.08024">
        <ele>881</ele>
        <time>2018-05-03T10:04:50.000Z</time>
      </trkpt>
      <trkpt lat="43.75666" lon="7.08019">
        <ele>883</ele>
        <time>2018-05-03T10:04:53.000Z</time>
      </trkpt>
      <trkpt lat="43.75665" lon="7.08014">
        <ele>884</ele>
        <time>2018-05-03T10:04:56.000Z</time>
      </trkpt>
      <trkpt lat="43.75666" lon="7.08006">
        <ele>887</ele>
        <time>2018-05-03T10:05:01.000Z</time>
      </trkpt>
      <trkpt lat="43.75666" lon="7.07999">
        <ele>890</ele>
        <time>2018-05-03T10:05:04.000Z</time>
      </trkpt>
      <trkpt lat="43.75666" lon="7.07996">
        <ele>889</ele>
        <time>2018-05-03T10:05:06.000Z</time>
      </trkpt>
      <trkpt lat="43.75665" lon="7.07992">
        <ele>888</ele>
        <time>2018-05-03T10:05:09.000Z</time>
      </trkpt>
      <trkpt lat="43.75664" lon="7.07988">
        <ele>887</ele>
        <time>2018-05-03T10:05:11.000Z</time>
      </trkpt>
      <trkpt lat="43.75663" lon="7.07976">
        <ele>886</ele>
        <time>2018-05-03T10:05:17.000Z</time>
      </trkpt>
      <trkpt lat="43.75664" lon="7.07975">
        <ele>886</ele>
        <time>2018-05-03T10:05:18.000Z</time>
      </trkpt>
      <trkpt lat="43.75665" lon="7.07974">
        <ele>886</ele>
        <time>2018-05-03T10:05:22.000Z</time>
      </trkpt>
      <trkpt lat="43.75665" lon="7.07973">
        <ele>886</ele>
        <time>2018-05-03T10:05:24.000Z</time>
      </trkpt>
      <trkpt lat="43.75666" lon="7.07973">
        <ele>886</ele>
        <time>2018-05-03T10:05:28.000Z</time>
      </trkpt>
      <trkpt lat="43.75666" lon="7.07969">
        <ele>886</ele>
        <time>2018-05-03T10:05:35.000Z</time>
      </trkpt>
      <trkpt lat="43.75666" lon="7.07968">
        <ele>886</ele>
        <time>2018-05-03T10:05:37.000Z</time>
      </trkpt>
      <trkpt lat="43.75669" lon="7.07969">
        <ele>897</ele>
        <time>2018-05-03T10:05:42.000Z</time>
      </trkpt>
      <trkpt lat="43.75672" lon="7.0797">
        <ele>897</ele>
        <time>2018-05-03T10:05:48.000Z</time>
      </trkpt>
      <trkpt lat="43.75675" lon="7.07973">
        <ele>897</ele>
        <time>2018-05-03T10:05:54.000Z</time>
      </trkpt>
      <trkpt lat="43.75676" lon="7.07973">
        <ele>897</ele>
        <time>2018-05-03T10:05:55.000Z</time>
      </trkpt>
      <trkpt lat="43.75677" lon="7.07972">
        <ele>897</ele>
        <time>2018-05-03T10:06:01.000Z</time>
      </trkpt>
      <trkpt lat="43.75677" lon="7.07971">
        <ele>897</ele>
        <time>2018-05-03T10:06:02.000Z</time>
      </trkpt>
      <trkpt lat="43.75678" lon="7.0797">
        <ele>897</ele>
        <time>2018-05-03T10:06:07.000Z</time>
      </trkpt>
      <trkpt lat="43.75678" lon="7.07969">
        <ele>897</ele>
        <time>2018-05-03T10:06:16.000Z</time>
      </trkpt>
      <trkpt lat="43.75678" lon="7.07967">
        <ele>898</ele>
        <time>2018-05-03T10:06:20.000Z</time>
      </trkpt>
      <trkpt lat="43.75679" lon="7.07965">
        <ele>898</ele>
        <time>2018-05-03T10:06:21.000Z</time>
      </trkpt>
      <trkpt lat="43.75681" lon="7.07953">
        <ele>899</ele>
        <time>2018-05-03T10:06:28.000Z</time>
      </trkpt>
      <trkpt lat="43.7568" lon="7.07949">
        <ele>899</ele>
        <time>2018-05-03T10:06:30.000Z</time>
      </trkpt>
      <trkpt lat="43.75679" lon="7.07939">
        <ele>899</ele>
        <time>2018-05-03T10:06:35.000Z</time>
      </trkpt>
      <trkpt lat="43.75679" lon="7.07935">
        <ele>899</ele>
        <time>2018-05-03T10:06:37.000Z</time>
      </trkpt>
      <trkpt lat="43.75678" lon="7.07923">
        <ele>898</ele>
        <time>2018-05-03T10:06:42.000Z</time>
      </trkpt>
      <trkpt lat="43.75677" lon="7.07913">
        <ele>900</ele>
        <time>2018-05-03T10:06:46.000Z</time>
      </trkpt>
      <trkpt lat="43.75676" lon="7.07901">
        <ele>902</ele>
        <time>2018-05-03T10:06:51.000Z</time>
      </trkpt>
      <trkpt lat="43.75675" lon="7.07896">
        <ele>903</ele>
        <time>2018-05-03T10:06:53.000Z</time>
      </trkpt>
      <trkpt lat="43.75674" lon="7.07875">
        <ele>904</ele>
        <time>2018-05-03T10:07:00.000Z</time>
      </trkpt>
      <trkpt lat="43.75673" lon="7.07872">
        <ele>904</ele>
        <time>2018-05-03T10:07:01.000Z</time>
      </trkpt>
      <trkpt lat="43.75672" lon="7.07851">
        <ele>904</ele>
        <time>2018-05-03T10:07:08.000Z</time>
      </trkpt>
      <trkpt lat="43.75672" lon="7.07848">
        <ele>904</ele>
        <time>2018-05-03T10:07:09.000Z</time>
      </trkpt>
      <trkpt lat="43.75672" lon="7.07832">
        <ele>903</ele>
        <time>2018-05-03T10:07:14.000Z</time>
      </trkpt>
      <trkpt lat="43.75671" lon="7.07821">
        <ele>906</ele>
        <time>2018-05-03T10:07:18.000Z</time>
      </trkpt>
      <trkpt lat="43.75671" lon="7.07806">
        <ele>908</ele>
        <time>2018-05-03T10:07:23.000Z</time>
      </trkpt>
      <trkpt lat="43.75671" lon="7.07795">
        <ele>909</ele>
        <time>2018-05-03T10:07:27.000Z</time>
      </trkpt>
      <trkpt lat="43.75671" lon="7.07789">
        <ele>909</ele>
        <time>2018-05-03T10:07:29.000Z</time>
      </trkpt>
      <trkpt lat="43.75673" lon="7.07763">
        <ele>908</ele>
        <time>2018-05-03T10:07:38.000Z</time>
      </trkpt>
      <trkpt lat="43.75676" lon="7.07745">
        <ele>908</ele>
        <time>2018-05-03T10:07:44.000Z</time>
      </trkpt>
      <trkpt lat="43.75679" lon="7.07733">
        <ele>910</ele>
        <time>2018-05-03T10:07:48.000Z</time>
      </trkpt>
      <trkpt lat="43.7568" lon="7.07728">
        <ele>911</ele>
        <time>2018-05-03T10:07:50.000Z</time>
      </trkpt>
      <trkpt lat="43.75687" lon="7.07707">
        <ele>913</ele>
        <time>2018-05-03T10:07:58.000Z</time>
      </trkpt>
      <trkpt lat="43.75688" lon="7.07705">
        <ele>913</ele>
        <time>2018-05-03T10:07:59.000Z</time>
      </trkpt>
      <trkpt lat="43.75691" lon="7.07695">
        <ele>913</ele>
        <time>2018-05-03T10:08:03.000Z</time>
      </trkpt>
      <trkpt lat="43.75694" lon="7.07685">
        <ele>913</ele>
        <time>2018-05-03T10:08:07.000Z</time>
      </trkpt>
      <trkpt lat="43.75697" lon="7.07678">
        <ele>913</ele>
        <time>2018-05-03T10:08:10.000Z</time>
      </trkpt>
      <trkpt lat="43.75701" lon="7.07665">
        <ele>914</ele>
        <time>2018-05-03T10:08:15.000Z</time>
      </trkpt>
      <trkpt lat="43.75703" lon="7.07658">
        <ele>915</ele>
        <time>2018-05-03T10:08:18.000Z</time>
      </trkpt>
      <trkpt lat="43.75706" lon="7.0765">
        <ele>915</ele>
        <time>2018-05-03T10:08:21.000Z</time>
      </trkpt>
      <trkpt lat="43.75709" lon="7.0764">
        <ele>916</ele>
        <time>2018-05-03T10:08:25.000Z</time>
      </trkpt>
      <trkpt lat="43.75712" lon="7.0763">
        <ele>916</ele>
        <time>2018-05-03T10:08:29.000Z</time>
      </trkpt>
      <trkpt lat="43.75717" lon="7.07615">
        <ele>917</ele>
        <time>2018-05-03T10:08:35.000Z</time>
      </trkpt>
      <trkpt lat="43.75718" lon="7.0761">
        <ele>917</ele>
        <time>2018-05-03T10:08:37.000Z</time>
      </trkpt>
      <trkpt lat="43.75719" lon="7.07601">
        <ele>917</ele>
        <time>2018-05-03T10:08:40.000Z</time>
      </trkpt>
      <trkpt lat="43.7572" lon="7.07582">
        <ele>919</ele>
        <time>2018-05-03T10:08:46.000Z</time>
      </trkpt>
      <trkpt lat="43.75721" lon="7.07573">
        <ele>919</ele>
        <time>2018-05-03T10:08:49.000Z</time>
      </trkpt>
      <trkpt lat="43.75722" lon="7.07559">
        <ele>919</ele>
        <time>2018-05-03T10:08:54.000Z</time>
      </trkpt>
      <trkpt lat="43.75723" lon="7.07557">
        <ele>919</ele>
        <time>2018-05-03T10:08:55.000Z</time>
      </trkpt>
      <trkpt lat="43.75724" lon="7.07543">
        <ele>919</ele>
        <time>2018-05-03T10:09:00.000Z</time>
      </trkpt>
      <trkpt lat="43.75723" lon="7.07538">
        <ele>919</ele>
        <time>2018-05-03T10:09:02.000Z</time>
      </trkpt>
      <trkpt lat="43.75723" lon="7.07525">
        <ele>920</ele>
        <time>2018-05-03T10:09:07.000Z</time>
      </trkpt>
      <trkpt lat="43.75725" lon="7.07524">
        <ele>920</ele>
        <time>2018-05-03T10:09:08.000Z</time>
      </trkpt>
      <trkpt lat="43.75735" lon="7.07522">
        <ele>922</ele>
        <time>2018-05-03T10:09:13.000Z</time>
      </trkpt>
      <trkpt lat="43.75737" lon="7.07522">
        <ele>922</ele>
        <time>2018-05-03T10:09:14.000Z</time>
      </trkpt>
      <trkpt lat="43.75745" lon="7.07522">
        <ele>923</ele>
        <time>2018-05-03T10:09:20.000Z</time>
      </trkpt>
      <trkpt lat="43.75748" lon="7.07521">
        <ele>923</ele>
        <time>2018-05-03T10:09:25.000Z</time>
      </trkpt>
      <trkpt lat="43.75748" lon="7.07521">
        <ele>923</ele>
        <time>2018-05-03T10:09:26.000Z</time>
      </trkpt>
      <trkpt lat="43.75752" lon="7.07518">
        <ele>933</ele>
        <time>2018-05-03T10:09:33.000Z</time>
      </trkpt>
      <trkpt lat="43.75752" lon="7.07518">
        <ele>933</ele>
        <time>2018-05-03T10:09:34.000Z</time>
      </trkpt>
      <trkpt lat="43.75755" lon="7.07517">
        <ele>933</ele>
        <time>2018-05-03T10:09:40.000Z</time>
      </trkpt>
      <trkpt lat="43.75757" lon="7.07517">
        <ele>934</ele>
        <time>2018-05-03T10:09:43.000Z</time>
      </trkpt>
      <trkpt lat="43.75757" lon="7.07517">
        <ele>934</ele>
        <time>2018-05-03T10:09:45.000Z</time>
      </trkpt>
      <trkpt lat="43.75757" lon="7.07517">
        <ele>934</ele>
        <time>2018-05-03T10:09:46.000Z</time>
      </trkpt>
      <trkpt lat="43.75757" lon="7.07519">
        <ele>934</ele>
        <time>2018-05-03T10:09:48.000Z</time>
      </trkpt>
      <trkpt lat="43.75758" lon="7.07521">
        <ele>934</ele>
        <time>2018-05-03T10:09:50.000Z</time>
      </trkpt>
      <trkpt lat="43.7576" lon="7.07533">
        <ele>935</ele>
        <time>2018-05-03T10:09:56.000Z</time>
      </trkpt>
      <trkpt lat="43.75761" lon="7.07541">
        <ele>935</ele>
        <time>2018-05-03T10:10:00.000Z</time>
      </trkpt>
      <trkpt lat="43.75764" lon="7.07551">
        <ele>934</ele>
        <time>2018-05-03T10:10:05.000Z</time>
      </trkpt>
      <trkpt lat="43.75765" lon="7.07558">
        <ele>934</ele>
        <time>2018-05-03T10:10:08.000Z</time>
      </trkpt>
      <trkpt lat="43.75768" lon="7.07571">
        <ele>933</ele>
        <time>2018-05-03T10:10:14.000Z</time>
      </trkpt>
      <trkpt lat="43.7577" lon="7.07578">
        <ele>933</ele>
        <time>2018-05-03T10:10:17.000Z</time>
      </trkpt>
      <trkpt lat="43.75773" lon="7.07592">
        <ele>932</ele>
        <time>2018-05-03T10:10:23.000Z</time>
      </trkpt>
      <trkpt lat="43.75773" lon="7.07594">
        <ele>932</ele>
        <time>2018-05-03T10:10:24.000Z</time>
      </trkpt>
      <trkpt lat="43.75776" lon="7.07609">
        <ele>933</ele>
        <time>2018-05-03T10:10:30.000Z</time>
      </trkpt>
      <trkpt lat="43.75778" lon="7.07616">
        <ele>933</ele>
        <time>2018-05-03T10:10:33.000Z</time>
      </trkpt>
      <trkpt lat="43.75782" lon="7.07634">
        <ele>933</ele>
        <time>2018-05-03T10:10:40.000Z</time>
      </trkpt>
      <trkpt lat="43.75783" lon="7.0764">
        <ele>933</ele>
        <time>2018-05-03T10:10:42.000Z</time>
      </trkpt>
      <trkpt lat="43.75786" lon="7.07653">
        <ele>934</ele>
        <time>2018-05-03T10:10:47.000Z</time>
      </trkpt>
      <trkpt lat="43.75787" lon="7.07656">
        <ele>934</ele>
        <time>2018-05-03T10:10:48.000Z</time>
      </trkpt>
      <trkpt lat="43.75795" lon="7.07671">
        <ele>933</ele>
        <time>2018-05-03T10:10:55.000Z</time>
      </trkpt>
      <trkpt lat="43.75796" lon="7.07673">
        <ele>933</ele>
        <time>2018-05-03T10:10:56.000Z</time>
      </trkpt>
      <trkpt lat="43.75805" lon="7.07682">
        <ele>934</ele>
        <time>2018-05-03T10:11:01.000Z</time>
      </trkpt>
      <trkpt lat="43.75812" lon="7.07688">
        <ele>935</ele>
        <time>2018-05-03T10:11:05.000Z</time>
      </trkpt>
      <trkpt lat="43.7582" lon="7.07692">
        <ele>935</ele>
        <time>2018-05-03T10:11:09.000Z</time>
      </trkpt>
      <trkpt lat="43.75829" lon="7.07697">
        <ele>935</ele>
        <time>2018-05-03T10:11:14.000Z</time>
      </trkpt>
      <trkpt lat="43.75833" lon="7.07698">
        <ele>935</ele>
        <time>2018-05-03T10:11:16.000Z</time>
      </trkpt>
      <trkpt lat="43.75843" lon="7.077">
        <ele>941</ele>
        <time>2018-05-03T10:11:21.000Z</time>
      </trkpt>
      <trkpt lat="43.75844" lon="7.07701">
        <ele>941</ele>
        <time>2018-05-03T10:11:22.000Z</time>
      </trkpt>
      <trkpt lat="43.75859" lon="7.07703">
        <ele>942</ele>
        <time>2018-05-03T10:11:29.000Z</time>
      </trkpt>
      <trkpt lat="43.7586" lon="7.07703">
        <ele>942</ele>
        <time>2018-05-03T10:11:30.000Z</time>
      </trkpt>
      <trkpt lat="43.75874" lon="7.07699">
        <ele>942</ele>
        <time>2018-05-03T10:11:36.000Z</time>
      </trkpt>
      <trkpt lat="43.75876" lon="7.07697">
        <ele>942</ele>
        <time>2018-05-03T10:11:37.000Z</time>
      </trkpt>
      <trkpt lat="43.75884" lon="7.0769">
        <ele>943</ele>
        <time>2018-05-03T10:11:41.000Z</time>
      </trkpt>
      <trkpt lat="43.75891" lon="7.07681">
        <ele>944</ele>
        <time>2018-05-03T10:11:45.000Z</time>
      </trkpt>
      <trkpt lat="43.75898" lon="7.07672">
        <ele>945</ele>
        <time>2018-05-03T10:11:49.000Z</time>
      </trkpt>
      <trkpt lat="43.75906" lon="7.0766">
        <ele>948</ele>
        <time>2018-05-03T10:11:54.000Z</time>
      </trkpt>
      <trkpt lat="43.75916" lon="7.07645">
        <ele>948</ele>
        <time>2018-05-03T10:12:00.000Z</time>
      </trkpt>
      <trkpt lat="43.75919" lon="7.07641">
        <ele>950</ele>
        <time>2018-05-03T10:12:02.000Z</time>
      </trkpt>
      <trkpt lat="43.75929" lon="7.07627">
        <ele>951</ele>
        <time>2018-05-03T10:12:08.000Z</time>
      </trkpt>
      <trkpt lat="43.75934" lon="7.07619">
        <ele>951</ele>
        <time>2018-05-03T10:12:11.000Z</time>
      </trkpt>
      <trkpt lat="43.75937" lon="7.07614">
        <ele>951</ele>
        <time>2018-05-03T10:12:13.000Z</time>
      </trkpt>
      <trkpt lat="43.75947" lon="7.07599">
        <ele>952</ele>
        <time>2018-05-03T10:12:19.000Z</time>
      </trkpt>
      <trkpt lat="43.75957" lon="7.07587">
        <ele>952</ele>
        <time>2018-05-03T10:12:25.000Z</time>
      </trkpt>
      <trkpt lat="43.7596" lon="7.07583">
        <ele>957</ele>
        <time>2018-05-03T10:12:27.000Z</time>
      </trkpt>
      <trkpt lat="43.75965" lon="7.07577">
        <ele>957</ele>
        <time>2018-05-03T10:12:30.000Z</time>
      </trkpt>
      <trkpt lat="43.75974" lon="7.07569">
        <ele>957</ele>
        <time>2018-05-03T10:12:34.000Z</time>
      </trkpt>
      <trkpt lat="43.75979" lon="7.07566">
        <ele>957</ele>
        <time>2018-05-03T10:12:36.000Z</time>
      </trkpt>
      <trkpt lat="43.75989" lon="7.07561">
        <ele>957</ele>
        <time>2018-05-03T10:12:41.000Z</time>
      </trkpt>
      <trkpt lat="43.75991" lon="7.0756">
        <ele>957</ele>
        <time>2018-05-03T10:12:42.000Z</time>
      </trkpt>
      <trkpt lat="43.76003" lon="7.07555">
        <ele>960</ele>
        <time>2018-05-03T10:12:47.000Z</time>
      </trkpt>
      <trkpt lat="43.76005" lon="7.07553">
        <ele>960</ele>
        <time>2018-05-03T10:12:48.000Z</time>
      </trkpt>
      <trkpt lat="43.76013" lon="7.0755">
        <ele>960</ele>
        <time>2018-05-03T10:12:52.000Z</time>
      </trkpt>
      <trkpt lat="43.76019" lon="7.07548">
        <ele>960</ele>
        <time>2018-05-03T10:12:55.000Z</time>
      </trkpt>
      <trkpt lat="43.76025" lon="7.07545">
        <ele>961</ele>
        <time>2018-05-03T10:12:58.000Z</time>
      </trkpt>
      <trkpt lat="43.76036" lon="7.07538">
        <ele>961</ele>
        <time>2018-05-03T10:13:03.000Z</time>
      </trkpt>
      <trkpt lat="43.76042" lon="7.07534">
        <ele>962</ele>
        <time>2018-05-03T10:13:06.000Z</time>
      </trkpt>
      <trkpt lat="43.76053" lon="7.07526">
        <ele>962</ele>
        <time>2018-05-03T10:13:12.000Z</time>
      </trkpt>
      <trkpt lat="43.76058" lon="7.07522">
        <ele>962</ele>
        <time>2018-05-03T10:13:14.000Z</time>
      </trkpt>
      <trkpt lat="43.76072" lon="7.07511">
        <ele>963</ele>
        <time>2018-05-03T10:13:22.000Z</time>
      </trkpt>
      <trkpt lat="43.76074" lon="7.0751">
        <ele>963</ele>
        <time>2018-05-03T10:13:23.000Z</time>
      </trkpt>
      <trkpt lat="43.76077" lon="7.07509">
        <ele>963</ele>
        <time>2018-05-03T10:13:28.000Z</time>
      </trkpt>
      <trkpt lat="43.76077" lon="7.07509">
        <ele>963</ele>
        <time>2018-05-03T10:13:39.000Z</time>
      </trkpt>
      <trkpt lat="43.76077" lon="7.07508">
        <ele>963</ele>
        <time>2018-05-03T10:13:40.000Z</time>
      </trkpt>
      <trkpt lat="43.76077" lon="7.07508">
        <ele>963</ele>
        <time>2018-05-03T10:13:46.000Z</time>
      </trkpt>
      <trkpt lat="43.76077" lon="7.07505">
        <ele>963</ele>
        <time>2018-05-03T10:13:51.000Z</time>
      </trkpt>
      <trkpt lat="43.76077" lon="7.07504">
        <ele>963</ele>
        <time>2018-05-03T10:13:52.000Z</time>
      </trkpt>
      <trkpt lat="43.76071" lon="7.07497">
        <ele>964</ele>
        <time>2018-05-03T10:13:56.000Z</time>
      </trkpt>
      <trkpt lat="43.76069" lon="7.07496">
        <ele>964</ele>
        <time>2018-05-03T10:13:57.000Z</time>
      </trkpt>
      <trkpt lat="43.76062" lon="7.0749">
        <ele>964</ele>
        <time>2018-05-03T10:14:00.000Z</time>
      </trkpt>
      <trkpt lat="43.7606" lon="7.07484">
        <ele>964</ele>
        <time>2018-05-03T10:14:02.000Z</time>
      </trkpt>
      <trkpt lat="43.76058" lon="7.07469">
        <ele>964</ele>
        <time>2018-05-03T10:14:07.000Z</time>
      </trkpt>
      <trkpt lat="43.76051" lon="7.07446">
        <ele>964</ele>
        <time>2018-05-03T10:14:15.000Z</time>
      </trkpt>
      <trkpt lat="43.76049" lon="7.07442">
        <ele>964</ele>
        <time>2018-05-03T10:14:17.000Z</time>
      </trkpt>
      <trkpt lat="43.76044" lon="7.07428">
        <ele>964</ele>
        <time>2018-05-03T10:14:22.000Z</time>
      </trkpt>
      <trkpt lat="43.76038" lon="7.07417">
        <ele>964</ele>
        <time>2018-05-03T10:14:26.000Z</time>
      </trkpt>
      <trkpt lat="43.76036" lon="7.07416">
        <ele>964</ele>
        <time>2018-05-03T10:14:27.000Z</time>
      </trkpt>
      <trkpt lat="43.76024" lon="7.07413">
        <ele>964</ele>
        <time>2018-05-03T10:14:34.000Z</time>
      </trkpt>
      <trkpt lat="43.76018" lon="7.07413">
        <ele>964</ele>
        <time>2018-05-03T10:14:38.000Z</time>
      </trkpt>
      <trkpt lat="43.76016" lon="7.07411">
        <ele>965</ele>
        <time>2018-05-03T10:14:40.000Z</time>
      </trkpt>
      <trkpt lat="43.76008" lon="7.07401">
        <ele>965</ele>
        <time>2018-05-03T10:14:46.000Z</time>
      </trkpt>
      <trkpt lat="43.76003" lon="7.07393">
        <ele>965</ele>
        <time>2018-05-03T10:14:51.000Z</time>
      </trkpt>
      <trkpt lat="43.75994" lon="7.07387">
        <ele>966</ele>
        <time>2018-05-03T10:14:56.000Z</time>
      </trkpt>
      <trkpt lat="43.75991" lon="7.07384">
        <ele>966</ele>
        <time>2018-05-03T10:14:58.000Z</time>
      </trkpt>
      <trkpt lat="43.75983" lon="7.07378">
        <ele>966</ele>
        <time>2018-05-03T10:15:03.000Z</time>
      </trkpt>
      <trkpt lat="43.75974" lon="7.0737">
        <ele>966</ele>
        <time>2018-05-03T10:15:08.000Z</time>
      </trkpt>
      <trkpt lat="43.75965" lon="7.07363">
        <ele>966</ele>
        <time>2018-05-03T10:15:13.000Z</time>
      </trkpt>
      <trkpt lat="43.75951" lon="7.07362">
        <ele>966</ele>
        <time>2018-05-03T10:15:20.000Z</time>
      </trkpt>
      <trkpt lat="43.75945" lon="7.07362">
        <ele>966</ele>
        <time>2018-05-03T10:15:23.000Z</time>
      </trkpt>
      <trkpt lat="43.75936" lon="7.07363">
        <ele>966</ele>
        <time>2018-05-03T10:15:28.000Z</time>
      </trkpt>
      <trkpt lat="43.75927" lon="7.07362">
        <ele>966</ele>
        <time>2018-05-03T10:15:34.000Z</time>
      </trkpt>
      <trkpt lat="43.75925" lon="7.07363">
        <ele>966</ele>
        <time>2018-05-03T10:15:35.000Z</time>
      </trkpt>
      <trkpt lat="43.75924" lon="7.0737">
        <ele>966</ele>
        <time>2018-05-03T10:15:40.000Z</time>
      </trkpt>
      <trkpt lat="43.75923" lon="7.07372">
        <ele>966</ele>
        <time>2018-05-03T10:15:44.000Z</time>
      </trkpt>
      <trkpt lat="43.75921" lon="7.07375">
        <ele>966</ele>
        <time>2018-05-03T10:15:49.000Z</time>
      </trkpt>
      <trkpt lat="43.7592" lon="7.07374">
        <ele>966</ele>
        <time>2018-05-03T10:15:56.000Z</time>
      </trkpt>
      <trkpt lat="43.7592" lon="7.07374">
        <ele>966</ele>
        <time>2018-05-03T10:16:03.000Z</time>
      </trkpt>
      <trkpt lat="43.75921" lon="7.07374">
        <ele>966</ele>
        <time>2018-05-03T10:16:08.000Z</time>
      </trkpt>
      <trkpt lat="43.75921" lon="7.07375">
        <ele>966</ele>
        <time>2018-05-03T10:16:15.000Z</time>
      </trkpt>
      <trkpt lat="43.75921" lon="7.07376">
        <ele>966</ele>
        <time>2018-05-03T10:16:27.000Z</time>
      </trkpt>
      <trkpt lat="43.75921" lon="7.07376">
        <ele>966</ele>
        <time>2018-05-03T10:16:35.000Z</time>
      </trkpt>
      <trkpt lat="43.75922" lon="7.07375">
        <ele>966</ele>
        <time>2018-05-03T10:16:40.000Z</time>
      </trkpt>
      <trkpt lat="43.75924" lon="7.07377">
        <ele>966</ele>
        <time>2018-05-03T10:16:47.000Z</time>
      </trkpt>
      <trkpt lat="43.75923" lon="7.07378">
        <ele>966</ele>
        <time>2018-05-03T10:16:54.000Z</time>
      </trkpt>
      <trkpt lat="43.75922" lon="7.07376">
        <ele>966</ele>
        <time>2018-05-03T10:17:02.000Z</time>
      </trkpt>
      <trkpt lat="43.75923" lon="7.07376">
        <ele>966</ele>
        <time>2018-05-03T10:17:10.000Z</time>
      </trkpt>
      <trkpt lat="43.75923" lon="7.07376">
        <ele>966</ele>
        <time>2018-05-03T10:17:18.000Z</time>
      </trkpt>
      <trkpt lat="43.75923" lon="7.07376">
        <ele>966</ele>
        <time>2018-05-03T10:17:27.000Z</time>
      </trkpt>
      <trkpt lat="43.75923" lon="7.07376">
        <ele>966</ele>
        <time>2018-05-03T10:17:35.000Z</time>
      </trkpt>
      <trkpt lat="43.75924" lon="7.07374">
        <ele>966</ele>
        <time>2018-05-03T10:17:38.000Z</time>
      </trkpt>
      <trkpt lat="43.75924" lon="7.07373">
        <ele>966</ele>
        <time>2018-05-03T10:17:40.000Z</time>
      </trkpt>
      <trkpt lat="43.75924" lon="7.07372">
        <ele>966</ele>
        <time>2018-05-03T10:17:46.000Z</time>
      </trkpt>
      <trkpt lat="43.75925" lon="7.07372">
        <ele>966</ele>
        <time>2018-05-03T10:17:53.000Z</time>
      </trkpt>
      <trkpt lat="43.75926" lon="7.07372">
        <ele>966</ele>
        <time>2018-05-03T10:17:59.000Z</time>
      </trkpt>
      <trkpt lat="43.75926" lon="7.07372">
        <ele>966</ele>
        <time>2018-05-03T10:18:08.000Z</time>
      </trkpt>
      <trkpt lat="43.75926" lon="7.07372">
        <ele>966</ele>
        <time>2018-05-03T10:18:17.000Z</time>
      </trkpt>
      <trkpt lat="43.75924" lon="7.0737">
        <ele>966</ele>
        <time>2018-05-03T10:18:24.000Z</time>
      </trkpt>
      <trkpt lat="43.75924" lon="7.0737">
        <ele>966</ele>
        <time>2018-05-03T10:18:30.000Z</time>
      </trkpt>
      <trkpt lat="43.75924" lon="7.0737">
        <ele>966</ele>
        <time>2018-05-03T10:18:36.000Z</time>
      </trkpt>
      <trkpt lat="43.75925" lon="7.07371">
        <ele>966</ele>
        <time>2018-05-03T10:18:41.000Z</time>
      </trkpt>
      <trkpt lat="43.75926" lon="7.07372">
        <ele>966</ele>
        <time>2018-05-03T10:18:46.000Z</time>
      </trkpt>
      <trkpt lat="43.75926" lon="7.07372">
        <ele>966</ele>
        <time>2018-05-03T10:18:49.000Z</time>
      </trkpt>
      <trkpt lat="43.75926" lon="7.07372">
        <ele>966</ele>
        <time>2018-05-03T10:18:55.000Z</time>
      </trkpt>
      <trkpt lat="43.75926" lon="7.07372">
        <ele>966</ele>
        <time>2018-05-03T10:19:06.000Z</time>
      </trkpt>
      <trkpt lat="43.75926" lon="7.07372">
        <ele>966</ele>
        <time>2018-05-03T10:19:16.000Z</time>
      </trkpt>
      <trkpt lat="43.75926" lon="7.07372">
        <ele>966</ele>
        <time>2018-05-03T10:19:29.000Z</time>
      </trkpt>
      <trkpt lat="43.75926" lon="7.07373">
        <ele>966</ele>
        <time>2018-05-03T10:19:41.000Z</time>
      </trkpt>
      <trkpt lat="43.75926" lon="7.07373">
        <ele>966</ele>
        <time>2018-05-03T10:19:52.000Z</time>
      </trkpt>
      <trkpt lat="43.75927" lon="7.07373">
        <ele>966</ele>
        <time>2018-05-03T10:19:58.000Z</time>
      </trkpt>
      <trkpt lat="43.75926" lon="7.07372">
        <ele>966</ele>
        <time>2018-05-03T10:20:04.000Z</time>
      </trkpt>
      <trkpt lat="43.75926" lon="7.07372">
        <ele>966</ele>
        <time>2018-05-03T10:20:14.000Z</time>
      </trkpt>
      <trkpt lat="43.75926" lon="7.07372">
        <ele>966</ele>
        <time>2018-05-03T10:20:20.000Z</time>
      </trkpt>
      <trkpt lat="43.75926" lon="7.07372">
        <ele>966</ele>
        <time>2018-05-03T10:20:32.000Z</time>
      </trkpt>
      <trkpt lat="43.75926" lon="7.07373">
        <ele>966</ele>
        <time>2018-05-03T10:20:46.000Z</time>
      </trkpt>
      <trkpt lat="43.75926" lon="7.07373">
        <ele>966</ele>
        <time>2018-05-03T10:21:01.000Z</time>
      </trkpt>
      <trkpt lat="43.75926" lon="7.07373">
        <ele>966</ele>
        <time>2018-05-03T10:21:10.000Z</time>
      </trkpt>
      <trkpt lat="43.75926" lon="7.07373">
        <ele>966</ele>
        <time>2018-05-03T10:21:24.000Z</time>
      </trkpt>
      <trkpt lat="43.75926" lon="7.07373">
        <ele>966</ele>
        <time>2018-05-03T10:21:53.000Z</time>
      </trkpt>
      <trkpt lat="43.75926" lon="7.07373">
        <ele>966</ele>
        <time>2018-05-03T10:22:17.000Z</time>
      </trkpt>
      <trkpt lat="43.75926" lon="7.07373">
        <ele>966</ele>
        <time>2018-05-03T10:22:31.000Z</time>
      </trkpt>
      <trkpt lat="43.75926" lon="7.07373">
        <ele>966</ele>
        <time>2018-05-03T10:22:58.000Z</time>
      </trkpt>
      <trkpt lat="43.75926" lon="7.07373">
        <ele>966</ele>
        <time>2018-05-03T10:23:27.000Z</time>
      </trkpt>
      <trkpt lat="43.75926" lon="7.07372">
        <ele>966</ele>
        <time>2018-05-03T10:24:00.000Z</time>
      </trkpt>
      <trkpt lat="43.75927" lon="7.07372">
        <ele>966</ele>
        <time>2018-05-03T10:24:22.000Z</time>
      </trkpt>
      <trkpt lat="43.75927" lon="7.07372">
        <ele>966</ele>
        <time>2018-05-03T10:24:38.000Z</time>
      </trkpt>
      <trkpt lat="43.75927" lon="7.07372">
        <ele>966</ele>
        <time>2018-05-03T10:24:44.000Z</time>
      </trkpt>
      <trkpt lat="43.75926" lon="7.07373">
        <ele>966</ele>
        <time>2018-05-03T10:25:00.000Z</time>
      </trkpt>
      <trkpt lat="43.75927" lon="7.07372">
        <ele>966</ele>
        <time>2018-05-03T10:25:18.000Z</time>
      </trkpt>
      <trkpt lat="43.75926" lon="7.07371">
        <ele>966</ele>
        <time>2018-05-03T10:25:41.000Z</time>
      </trkpt>
      <trkpt lat="43.75926" lon="7.07372">
        <ele>966</ele>
        <time>2018-05-03T10:25:58.000Z</time>
      </trkpt>
      <trkpt lat="43.75927" lon="7.07372">
        <ele>966</ele>
        <time>2018-05-03T10:26:23.000Z</time>
      </trkpt>
      <trkpt lat="43.75927" lon="7.07373">
        <ele>966</ele>
        <time>2018-05-03T10:26:52.000Z</time>
      </trkpt>
      <trkpt lat="43.75926" lon="7.07372">
        <ele>966</ele>
        <time>2018-05-03T10:27:11.000Z</time>
      </trkpt>
      <trkpt lat="43.75926" lon="7.07372">
        <ele>966</ele>
        <time>2018-05-03T10:27:23.000Z</time>
      </trkpt>
      <trkpt lat="43.75925" lon="7.07372">
        <ele>966</ele>
        <time>2018-05-03T10:27:39.000Z</time>
      </trkpt>
      <trkpt lat="43.75925" lon="7.07372">
        <ele>966</ele>
        <time>2018-05-03T10:27:53.000Z</time>
      </trkpt>
      <trkpt lat="43.75924" lon="7.07372">
        <ele>966</ele>
        <time>2018-05-03T10:28:10.000Z</time>
      </trkpt>
      <trkpt lat="43.75924" lon="7.07372">
        <ele>966</ele>
        <time>2018-05-03T10:28:11.000Z</time>
      </trkpt>
      <trkpt lat="43.75924" lon="7.07372">
        <ele>966</ele>
        <time>2018-05-03T10:28:28.000Z</time>
      </trkpt>
      <trkpt lat="43.75925" lon="7.07372">
        <ele>966</ele>
        <time>2018-05-03T10:28:46.000Z</time>
      </trkpt>
      <trkpt lat="43.75926" lon="7.07373">
        <ele>966</ele>
        <time>2018-05-03T10:29:08.000Z</time>
      </trkpt>
      <trkpt lat="43.75925" lon="7.07373">
        <ele>966</ele>
        <time>2018-05-03T10:29:24.000Z</time>
      </trkpt>
      <trkpt lat="43.75925" lon="7.07374">
        <ele>966</ele>
        <time>2018-05-03T10:29:45.000Z</time>
      </trkpt>
      <trkpt lat="43.75926" lon="7.07374">
        <ele>966</ele>
        <time>2018-05-03T10:30:05.000Z</time>
      </trkpt>
      <trkpt lat="43.75926" lon="7.07374">
        <ele>966</ele>
        <time>2018-05-03T10:30:25.000Z</time>
      </trkpt>
      <trkpt lat="43.75925" lon="7.07374">
        <ele>966</ele>
        <time>2018-05-03T10:30:44.000Z</time>
      </trkpt>
      <trkpt lat="43.75925" lon="7.07374">
        <ele>966</ele>
        <time>2018-05-03T10:31:01.000Z</time>
      </trkpt>
      <trkpt lat="43.75925" lon="7.07374">
        <ele>966</ele>
        <time>2018-05-03T10:31:22.000Z</time>
      </trkpt>
      <trkpt lat="43.75925" lon="7.07374">
        <ele>966</ele>
        <time>2018-05-03T10:31:40.000Z</time>
      </trkpt>
      <trkpt lat="43.75925" lon="7.07374">
        <ele>966</ele>
        <time>2018-05-03T10:32:00.000Z</time>
      </trkpt>
      <trkpt lat="43.75926" lon="7.07374">
        <ele>966</ele>
        <time>2018-05-03T10:32:18.000Z</time>
      </trkpt>
      <trkpt lat="43.75926" lon="7.07374">
        <ele>966</ele>
        <time>2018-05-03T10:32:39.000Z</time>
      </trkpt>
      <trkpt lat="43.75926" lon="7.07373">
        <ele>966</ele>
        <time>2018-05-03T10:32:59.000Z</time>
      </trkpt>
      <trkpt lat="43.75926" lon="7.07372">
        <ele>966</ele>
        <time>2018-05-03T10:33:20.000Z</time>
      </trkpt>
      <trkpt lat="43.75926" lon="7.07372">
        <ele>966</ele>
        <time>2018-05-03T10:33:40.000Z</time>
      </trkpt>
      <trkpt lat="43.75925" lon="7.07373">
        <ele>966</ele>
        <time>2018-05-03T10:33:52.000Z</time>
      </trkpt>
      <trkpt lat="43.75926" lon="7.07372">
        <ele>966</ele>
        <time>2018-05-03T10:34:09.000Z</time>
      </trkpt>
      <trkpt lat="43.75926" lon="7.07372">
        <ele>966</ele>
        <time>2018-05-03T10:34:21.000Z</time>
      </trkpt>
      <trkpt lat="43.75927" lon="7.07371">
        <ele>966</ele>
        <time>2018-05-03T10:34:34.000Z</time>
      </trkpt>
      <trkpt lat="43.75927" lon="7.07371">
        <ele>966</ele>
        <time>2018-05-03T10:34:46.000Z</time>
      </trkpt>
      <trkpt lat="43.75927" lon="7.07372">
        <ele>966</ele>
        <time>2018-05-03T10:35:02.000Z</time>
      </trkpt>
      <trkpt lat="43.75927" lon="7.07372">
        <ele>966</ele>
        <time>2018-05-03T10:35:28.000Z</time>
      </trkpt>
      <trkpt lat="43.75928" lon="7.07371">
        <ele>966</ele>
        <time>2018-05-03T10:35:42.000Z</time>
      </trkpt>
      <trkpt lat="43.75927" lon="7.07371">
        <ele>966</ele>
        <time>2018-05-03T10:35:54.000Z</time>
      </trkpt>
      <trkpt lat="43.75928" lon="7.07371">
        <ele>966</ele>
        <time>2018-05-03T10:36:01.000Z</time>
      </trkpt>
      <trkpt lat="43.75928" lon="7.07371">
        <ele>966</ele>
        <time>2018-05-03T10:36:12.000Z</time>
      </trkpt>
      <trkpt lat="43.75927" lon="7.07372">
        <ele>966</ele>
        <time>2018-05-03T10:36:49.000Z</time>
      </trkpt>
      <trkpt lat="43.75928" lon="7.07372">
        <ele>966</ele>
        <time>2018-05-03T10:37:16.000Z</time>
      </trkpt>
      <trkpt lat="43.75927" lon="7.07372">
        <ele>966</ele>
        <time>2018-05-03T10:37:26.000Z</time>
      </trkpt>
      <trkpt lat="43.75927" lon="7.07373">
        <ele>966</ele>
        <time>2018-05-03T10:37:56.000Z</time>
      </trkpt>
      <trkpt lat="43.75927" lon="7.07373">
        <ele>966</ele>
        <time>2018-05-03T10:38:12.000Z</time>
      </trkpt>
      <trkpt lat="43.75926" lon="7.07373">
        <ele>966</ele>
        <time>2018-05-03T10:38:52.000Z</time>
      </trkpt>
      <trkpt lat="43.75926" lon="7.07373">
        <ele>966</ele>
        <time>2018-05-03T10:39:25.000Z</time>
      </trkpt>
      <trkpt lat="43.75926" lon="7.07373">
        <ele>966</ele>
        <time>2018-05-03T10:40:01.000Z</time>
      </trkpt>
      <trkpt lat="43.75926" lon="7.07373">
        <ele>966</ele>
        <time>2018-05-03T10:40:40.000Z</time>
      </trkpt>
      <trkpt lat="43.75926" lon="7.07373">
        <ele>966</ele>
        <time>2018-05-03T10:41:04.000Z</time>
      </trkpt>
      <trkpt lat="43.75926" lon="7.07373">
        <ele>966</ele>
        <time>2018-05-03T10:41:35.000Z</time>
      </trkpt>
      <trkpt lat="43.75926" lon="7.07373">
        <ele>966</ele>
        <time>2018-05-03T10:42:01.000Z</time>
      </trkpt>
      <trkpt lat="43.75926" lon="7.07373">
        <ele>966</ele>
        <time>2018-05-03T10:42:09.000Z</time>
      </trkpt>
      <trkpt lat="43.75926" lon="7.07373">
        <ele>966</ele>
        <time>2018-05-03T10:42:22.000Z</time>
      </trkpt>
      <trkpt lat="43.75927" lon="7.07373">
        <ele>966</ele>
        <time>2018-05-03T10:42:29.000Z</time>
      </trkpt>
      <trkpt lat="43.75927" lon="7.07372">
        <ele>966</ele>
        <time>2018-05-03T10:42:44.000Z</time>
      </trkpt>
      <trkpt lat="43.75927" lon="7.07372">
        <ele>966</ele>
        <time>2018-05-03T10:43:13.000Z</time>
      </trkpt>
      <trkpt lat="43.75927" lon="7.07372">
        <ele>966</ele>
        <time>2018-05-03T10:43:43.000Z</time>
      </trkpt>
      <trkpt lat="43.75927" lon="7.07372">
        <ele>966</ele>
        <time>2018-05-03T10:44:16.000Z</time>
      </trkpt>
      <trkpt lat="43.75927" lon="7.07372">
        <ele>966</ele>
        <time>2018-05-03T10:44:49.000Z</time>
      </trkpt>
      <trkpt lat="43.75927" lon="7.07372">
        <ele>966</ele>
        <time>2018-05-03T10:45:05.000Z</time>
      </trkpt>
      <trkpt lat="43.75927" lon="7.07372">
        <ele>966</ele>
        <time>2018-05-03T10:45:33.000Z</time>
      </trkpt>
      <trkpt lat="43.75928" lon="7.07372">
        <ele>966</ele>
        <time>2018-05-03T10:45:56.000Z</time>
      </trkpt>
      <trkpt lat="43.75928" lon="7.07372">
        <ele>966</ele>
        <time>2018-05-03T10:46:02.000Z</time>
      </trkpt>
      <trkpt lat="43.75928" lon="7.07371">
        <ele>966</ele>
        <time>2018-05-03T10:46:08.000Z</time>
      </trkpt>
      <trkpt lat="43.75928" lon="7.07371">
        <ele>966</ele>
        <time>2018-05-03T10:46:16.000Z</time>
      </trkpt>
      <trkpt lat="43.75928" lon="7.07371">
        <ele>966</ele>
        <time>2018-05-03T10:46:26.000Z</time>
      </trkpt>
      <trkpt lat="43.75928" lon="7.07371">
        <ele>966</ele>
        <time>2018-05-03T10:46:27.000Z</time>
      </trkpt>
      <trkpt lat="43.75928" lon="7.07371">
        <ele>966</ele>
        <time>2018-05-03T10:46:37.000Z</time>
      </trkpt>
      <trkpt lat="43.75928" lon="7.07371">
        <ele>966</ele>
        <time>2018-05-03T10:46:47.000Z</time>
      </trkpt>
      <trkpt lat="43.75928" lon="7.07371">
        <ele>966</ele>
        <time>2018-05-03T10:46:52.000Z</time>
      </trkpt>
      <trkpt lat="43.75928" lon="7.07372">
        <ele>966</ele>
        <time>2018-05-03T10:46:55.000Z</time>
      </trkpt>
      <trkpt lat="43.75929" lon="7.07372">
        <ele>966</ele>
        <time>2018-05-03T10:47:05.000Z</time>
      </trkpt>
      <trkpt lat="43.75927" lon="7.07371">
        <ele>966</ele>
        <time>2018-05-03T10:47:10.000Z</time>
      </trkpt>
      <trkpt lat="43.75928" lon="7.07372">
        <ele>966</ele>
        <time>2018-05-03T10:47:16.000Z</time>
      </trkpt>
      <trkpt lat="43.75928" lon="7.07372">
        <ele>966</ele>
        <time>2018-05-03T10:47:19.000Z</time>
      </trkpt>
      <trkpt lat="43.75928" lon="7.07372">
        <ele>966</ele>
        <time>2018-05-03T10:47:23.000Z</time>
      </trkpt>
      <trkpt lat="43.75928" lon="7.07372">
        <ele>966</ele>
        <time>2018-05-03T10:47:35.000Z</time>
      </trkpt>
      <trkpt lat="43.75929" lon="7.07371">
        <ele>966</ele>
        <time>2018-05-03T10:47:38.000Z</time>
      </trkpt>
      <trkpt lat="43.75929" lon="7.07371">
        <ele>966</ele>
        <time>2018-05-03T10:47:40.000Z</time>
      </trkpt>
      <trkpt lat="43.75928" lon="7.07371">
        <ele>966</ele>
        <time>2018-05-03T10:47:46.000Z</time>
      </trkpt>
      <trkpt lat="43.75929" lon="7.07372">
        <ele>966</ele>
        <time>2018-05-03T10:47:52.000Z</time>
      </trkpt>
      <trkpt lat="43.75929" lon="7.07372">
        <ele>966</ele>
        <time>2018-05-03T10:47:59.000Z</time>
      </trkpt>
      <trkpt lat="43.75929" lon="7.07372">
        <ele>966</ele>
        <time>2018-05-03T10:48:06.000Z</time>
      </trkpt>
      <trkpt lat="43.7593" lon="7.07371">
        <ele>966</ele>
        <time>2018-05-03T10:48:27.000Z</time>
      </trkpt>
      <trkpt lat="43.7593" lon="7.07371">
        <ele>966</ele>
        <time>2018-05-03T10:48:45.000Z</time>
      </trkpt>
      <trkpt lat="43.7593" lon="7.07371">
        <ele>966</ele>
        <time>2018-05-03T10:49:00.000Z</time>
      </trkpt>
      <trkpt lat="43.75929" lon="7.07372">
        <ele>966</ele>
        <time>2018-05-03T10:49:09.000Z</time>
      </trkpt>
      <trkpt lat="43.75928" lon="7.07372">
        <ele>966</ele>
        <time>2018-05-03T10:49:18.000Z</time>
      </trkpt>
      <trkpt lat="43.75927" lon="7.07371">
        <ele>966</ele>
        <time>2018-05-03T10:49:22.000Z</time>
      </trkpt>
      <trkpt lat="43.75927" lon="7.07371">
        <ele>966</ele>
        <time>2018-05-03T10:49:30.000Z</time>
      </trkpt>
      <trkpt lat="43.75926" lon="7.07372">
        <ele>966</ele>
        <time>2018-05-03T10:49:41.000Z</time>
      </trkpt>
      <trkpt lat="43.75926" lon="7.07372">
        <ele>966</ele>
        <time>2018-05-03T10:49:50.000Z</time>
      </trkpt>
      <trkpt lat="43.75926" lon="7.07372">
        <ele>966</ele>
        <time>2018-05-03T10:50:07.000Z</time>
      </trkpt>
      <trkpt lat="43.75926" lon="7.07372">
        <ele>966</ele>
        <time>2018-05-03T10:50:15.000Z</time>
      </trkpt>
      <trkpt lat="43.75926" lon="7.0737">
        <ele>966</ele>
        <time>2018-05-03T10:50:21.000Z</time>
      </trkpt>
      <trkpt lat="43.75926" lon="7.07371">
        <ele>966</ele>
        <time>2018-05-03T10:50:32.000Z</time>
      </trkpt>
      <trkpt lat="43.75926" lon="7.07369">
        <ele>966</ele>
        <time>2018-05-03T10:50:42.000Z</time>
      </trkpt>
      <trkpt lat="43.75928" lon="7.07364">
        <ele>966</ele>
        <time>2018-05-03T10:50:46.000Z</time>
      </trkpt>
      <trkpt lat="43.75929" lon="7.07362">
        <ele>966</ele>
        <time>2018-05-03T10:50:47.000Z</time>
      </trkpt>
      <trkpt lat="43.75935" lon="7.07363">
        <ele>966</ele>
        <time>2018-05-03T10:50:50.000Z</time>
      </trkpt>
      <trkpt lat="43.75946" lon="7.07363">
        <ele>966</ele>
        <time>2018-05-03T10:50:54.000Z</time>
      </trkpt>
      <trkpt lat="43.7595" lon="7.07362">
        <ele>966</ele>
        <time>2018-05-03T10:50:55.000Z</time>
      </trkpt>
      <trkpt lat="43.75974" lon="7.07363">
        <ele>966</ele>
        <time>2018-05-03T10:51:01.000Z</time>
      </trkpt>
      <trkpt lat="43.75978" lon="7.07364">
        <ele>966</ele>
        <time>2018-05-03T10:51:02.000Z</time>
      </trkpt>
      <trkpt lat="43.75988" lon="7.07367">
        <ele>966</ele>
        <time>2018-05-03T10:51:04.000Z</time>
      </trkpt>
      <trkpt lat="43.75998" lon="7.0737">
        <ele>966</ele>
        <time>2018-05-03T10:51:06.000Z</time>
      </trkpt>
      <trkpt lat="43.76006" lon="7.07373">
        <ele>965</ele>
        <time>2018-05-03T10:51:08.000Z</time>
      </trkpt>
      <trkpt lat="43.76014" lon="7.07372">
        <ele>964</ele>
        <time>2018-05-03T10:51:10.000Z</time>
      </trkpt>
      <trkpt lat="43.76018" lon="7.07371">
        <ele>964</ele>
        <time>2018-05-03T10:51:11.000Z</time>
      </trkpt>
      <trkpt lat="43.76022" lon="7.0737">
        <ele>964</ele>
        <time>2018-05-03T10:51:13.000Z</time>
      </trkpt>
      <trkpt lat="43.76022" lon="7.07367">
        <ele>964</ele>
        <time>2018-05-03T10:51:14.000Z</time>
      </trkpt>
      <trkpt lat="43.76027" lon="7.07357">
        <ele>964</ele>
        <time>2018-05-03T10:51:19.000Z</time>
      </trkpt>
      <trkpt lat="43.76031" lon="7.07355">
        <ele>964</ele>
        <time>2018-05-03T10:51:21.000Z</time>
      </trkpt>
      <trkpt lat="43.76034" lon="7.07352">
        <ele>964</ele>
        <time>2018-05-03T10:51:22.000Z</time>
      </trkpt>
      <trkpt lat="43.76034" lon="7.07349">
        <ele>964</ele>
        <time>2018-05-03T10:51:23.000Z</time>
      </trkpt>
      <trkpt lat="43.76034" lon="7.07346">
        <ele>964</ele>
        <time>2018-05-03T10:51:24.000Z</time>
      </trkpt>
      <trkpt lat="43.76036" lon="7.07341">
        <ele>964</ele>
        <time>2018-05-03T10:51:26.000Z</time>
      </trkpt>
      <trkpt lat="43.76037" lon="7.07341">
        <ele>964</ele>
        <time>2018-05-03T10:51:28.000Z</time>
      </trkpt>
      <trkpt lat="43.76038" lon="7.07341">
        <ele>964</ele>
        <time>2018-05-03T10:51:34.000Z</time>
      </trkpt>
      <trkpt lat="43.76037" lon="7.07342">
        <ele>964</ele>
        <time>2018-05-03T10:51:44.000Z</time>
      </trkpt>
      <trkpt lat="43.76037" lon="7.07341">
        <ele>964</ele>
        <time>2018-05-03T10:51:49.000Z</time>
      </trkpt>
      <trkpt lat="43.76033" lon="7.0734">
        <ele>964</ele>
        <time>2018-05-03T10:51:56.000Z</time>
      </trkpt>
      <trkpt lat="43.76024" lon="7.07337">
        <ele>965</ele>
        <time>2018-05-03T10:52:01.000Z</time>
      </trkpt>
      <trkpt lat="43.76015" lon="7.07326">
        <ele>965</ele>
        <time>2018-05-03T10:52:07.000Z</time>
      </trkpt>
      <trkpt lat="43.76011" lon="7.07317">
        <ele>965</ele>
        <time>2018-05-03T10:52:13.000Z</time>
      </trkpt>
      <trkpt lat="43.76009" lon="7.07313">
        <ele>965</ele>
        <time>2018-05-03T10:52:16.000Z</time>
      </trkpt>
      <trkpt lat="43.76007" lon="7.07308">
        <ele>964</ele>
        <time>2018-05-03T10:52:20.000Z</time>
      </trkpt>
      <trkpt lat="43.76006" lon="7.07306">
        <ele>964</ele>
        <time>2018-05-03T10:52:26.000Z</time>
      </trkpt>
      <trkpt lat="43.76007" lon="7.07302">
        <ele>964</ele>
        <time>2018-05-03T10:52:31.000Z</time>
      </trkpt>
      <trkpt lat="43.76009" lon="7.0729">
        <ele>964</ele>
        <time>2018-05-03T10:52:37.000Z</time>
      </trkpt>
      <trkpt lat="43.76011" lon="7.07284">
        <ele>964</ele>
        <time>2018-05-03T10:52:40.000Z</time>
      </trkpt>
      <trkpt lat="43.76012" lon="7.07279">
        <ele>964</ele>
        <time>2018-05-03T10:52:42.000Z</time>
      </trkpt>
      <trkpt lat="43.76013" lon="7.07272">
        <ele>964</ele>
        <time>2018-05-03T10:52:45.000Z</time>
      </trkpt>
      <trkpt lat="43.76013" lon="7.07266">
        <ele>964</ele>
        <time>2018-05-03T10:52:48.000Z</time>
      </trkpt>
      <trkpt lat="43.76014" lon="7.07259">
        <ele>964</ele>
        <time>2018-05-03T10:52:51.000Z</time>
      </trkpt>
      <trkpt lat="43.76015" lon="7.07254">
        <ele>964</ele>
        <time>2018-05-03T10:52:53.000Z</time>
      </trkpt>
      <trkpt lat="43.76014" lon="7.07243">
        <ele>964</ele>
        <time>2018-05-03T10:52:57.000Z</time>
      </trkpt>
      <trkpt lat="43.76013" lon="7.07238">
        <ele>964</ele>
        <time>2018-05-03T10:52:59.000Z</time>
      </trkpt>
      <trkpt lat="43.76013" lon="7.07216">
        <ele>963</ele>
        <time>2018-05-03T10:53:05.000Z</time>
      </trkpt>
      <trkpt lat="43.76012" lon="7.07198">
        <ele>963</ele>
        <time>2018-05-03T10:53:11.000Z</time>
      </trkpt>
      <trkpt lat="43.7601" lon="7.07196">
        <ele>964</ele>
        <time>2018-05-03T10:53:12.000Z</time>
      </trkpt>
      <trkpt lat="43.76005" lon="7.07189">
        <ele>964</ele>
        <time>2018-05-03T10:53:16.000Z</time>
      </trkpt>
      <trkpt lat="43.76004" lon="7.07187">
        <ele>964</ele>
        <time>2018-05-03T10:53:17.000Z</time>
      </trkpt>
      <trkpt lat="43.75998" lon="7.07179">
        <ele>966</ele>
        <time>2018-05-03T10:53:23.000Z</time>
      </trkpt>
      <trkpt lat="43.75985" lon="7.07175">
        <ele>966</ele>
        <time>2018-05-03T10:53:29.000Z</time>
      </trkpt>
      <trkpt lat="43.75974" lon="7.07168">
        <ele>966</ele>
        <time>2018-05-03T10:53:35.000Z</time>
      </trkpt>
      <trkpt lat="43.75971" lon="7.07168">
        <ele>966</ele>
        <time>2018-05-03T10:53:36.000Z</time>
      </trkpt>
      <trkpt lat="43.75962" lon="7.07159">
        <ele>966</ele>
        <time>2018-05-03T10:53:41.000Z</time>
      </trkpt>
      <trkpt lat="43.75961" lon="7.07156">
        <ele>966</ele>
        <time>2018-05-03T10:53:42.000Z</time>
      </trkpt>
      <trkpt lat="43.7595" lon="7.07135">
        <ele>966</ele>
        <time>2018-05-03T10:53:48.000Z</time>
      </trkpt>
      <trkpt lat="43.75939" lon="7.07104">
        <ele>967</ele>
        <time>2018-05-03T10:53:55.000Z</time>
      </trkpt>
      <trkpt lat="43.75925" lon="7.07065">
        <ele>967</ele>
        <time>2018-05-03T10:54:04.000Z</time>
      </trkpt>
      <trkpt lat="43.75927" lon="7.07054">
        <ele>966</ele>
        <time>2018-05-03T10:54:06.000Z</time>
      </trkpt>
      <trkpt lat="43.75931" lon="7.07041">
        <ele>966</ele>
        <time>2018-05-03T10:54:08.000Z</time>
      </trkpt>
      <trkpt lat="43.75938" lon="7.07037">
        <ele>966</ele>
        <time>2018-05-03T10:54:10.000Z</time>
      </trkpt>
      <trkpt lat="43.7594" lon="7.07034">
        <ele>966</ele>
        <time>2018-05-03T10:54:11.000Z</time>
      </trkpt>
      <trkpt lat="43.75941" lon="7.07031">
        <ele>966</ele>
        <time>2018-05-03T10:54:12.000Z</time>
      </trkpt>
      <trkpt lat="43.7594" lon="7.07028">
        <ele>966</ele>
        <time>2018-05-03T10:54:14.000Z</time>
      </trkpt>
      <trkpt lat="43.7594" lon="7.07028">
        <ele>966</ele>
        <time>2018-05-03T10:54:17.000Z</time>
      </trkpt>
      <trkpt lat="43.7594" lon="7.07028">
        <ele>966</ele>
        <time>2018-05-03T10:54:18.000Z</time>
      </trkpt>
      <trkpt lat="43.75938" lon="7.07026">
        <ele>966</ele>
        <time>2018-05-03T10:54:24.000Z</time>
      </trkpt>
      <trkpt lat="43.75937" lon="7.07025">
        <ele>966</ele>
        <time>2018-05-03T10:54:25.000Z</time>
      </trkpt>
      <trkpt lat="43.75936" lon="7.07025">
        <ele>966</ele>
        <time>2018-05-03T10:54:26.000Z</time>
      </trkpt>
      <trkpt lat="43.75933" lon="7.07023">
        <ele>966</ele>
        <time>2018-05-03T10:54:31.000Z</time>
      </trkpt>
      <trkpt lat="43.75931" lon="7.07022">
        <ele>966</ele>
        <time>2018-05-03T10:54:33.000Z</time>
      </trkpt>
      <trkpt lat="43.7593" lon="7.07021">
        <ele>966</ele>
        <time>2018-05-03T10:54:37.000Z</time>
      </trkpt>
      <trkpt lat="43.75926" lon="7.07017">
        <ele>966</ele>
        <time>2018-05-03T10:54:42.000Z</time>
      </trkpt>
      <trkpt lat="43.75922" lon="7.07016">
        <ele>966</ele>
        <time>2018-05-03T10:54:45.000Z</time>
      </trkpt>
      <trkpt lat="43.75918" lon="7.07015">
        <ele>966</ele>
        <time>2018-05-03T10:54:49.000Z</time>
      </trkpt>
      <trkpt lat="43.75913" lon="7.07015">
        <ele>967</ele>
        <time>2018-05-03T10:54:53.000Z</time>
      </trkpt>
      <trkpt lat="43.7591" lon="7.07015">
        <ele>967</ele>
        <time>2018-05-03T10:54:56.000Z</time>
      </trkpt>
      <trkpt lat="43.75903" lon="7.07012">
        <ele>967</ele>
        <time>2018-05-03T10:55:03.000Z</time>
      </trkpt>
      <trkpt lat="43.75896" lon="7.0701">
        <ele>967</ele>
        <time>2018-05-03T10:55:10.000Z</time>
      </trkpt>
      <trkpt lat="43.75898" lon="7.07011">
        <ele>967</ele>
        <time>2018-05-03T10:55:15.000Z</time>
      </trkpt>
      <trkpt lat="43.75899" lon="7.07011">
        <ele>967</ele>
        <time>2018-05-03T10:55:16.000Z</time>
      </trkpt>
      <trkpt lat="43.75905" lon="7.07013">
        <ele>967</ele>
        <time>2018-05-03T10:55:20.000Z</time>
      </trkpt>
      <trkpt lat="43.75911" lon="7.07013">
        <ele>967</ele>
        <time>2018-05-03T10:55:24.000Z</time>
      </trkpt>
      <trkpt lat="43.75913" lon="7.0701">
        <ele>967</ele>
        <time>2018-05-03T10:55:26.000Z</time>
      </trkpt>
      <trkpt lat="43.75916" lon="7.07005">
        <ele>967</ele>
        <time>2018-05-03T10:55:30.000Z</time>
      </trkpt>
      <trkpt lat="43.75918" lon="7.07001">
        <ele>967</ele>
        <time>2018-05-03T10:55:33.000Z</time>
      </trkpt>
      <trkpt lat="43.75926" lon="7.06989">
        <ele>966</ele>
        <time>2018-05-03T10:55:39.000Z</time>
      </trkpt>
      <trkpt lat="43.75935" lon="7.06969">
        <ele>965</ele>
        <time>2018-05-03T10:55:45.000Z</time>
      </trkpt>
      <trkpt lat="43.75929" lon="7.06961">
        <ele>965</ele>
        <time>2018-05-03T10:55:49.000Z</time>
      </trkpt>
      <trkpt lat="43.75922" lon="7.06952">
        <ele>965</ele>
        <time>2018-05-03T10:55:54.000Z</time>
      </trkpt>
      <trkpt lat="43.75921" lon="7.06944">
        <ele>965</ele>
        <time>2018-05-03T10:55:57.000Z</time>
      </trkpt>
      <trkpt lat="43.75919" lon="7.06938">
        <ele>965</ele>
        <time>2018-05-03T10:55:59.000Z</time>
      </trkpt>
      <trkpt lat="43.75916" lon="7.06936">
        <ele>966</ele>
        <time>2018-05-03T10:56:00.000Z</time>
      </trkpt>
      <trkpt lat="43.7591" lon="7.06936">
        <ele>966</ele>
        <time>2018-05-03T10:56:02.000Z</time>
      </trkpt>
      <trkpt lat="43.759" lon="7.06934">
        <ele>966</ele>
        <time>2018-05-03T10:56:06.000Z</time>
      </trkpt>
      <trkpt lat="43.75898" lon="7.06933">
        <ele>966</ele>
        <time>2018-05-03T10:56:07.000Z</time>
      </trkpt>
      <trkpt lat="43.75887" lon="7.06929">
        <ele>966</ele>
        <time>2018-05-03T10:56:12.000Z</time>
      </trkpt>
      <trkpt lat="43.7588" lon="7.06927">
        <ele>966</ele>
        <time>2018-05-03T10:56:15.000Z</time>
      </trkpt>
      <trkpt lat="43.75875" lon="7.06922">
        <ele>966</ele>
        <time>2018-05-03T10:56:17.000Z</time>
      </trkpt>
      <trkpt lat="43.75863" lon="7.0692">
        <ele>966</ele>
        <time>2018-05-03T10:56:21.000Z</time>
      </trkpt>
      <trkpt lat="43.7586" lon="7.0692">
        <ele>967</ele>
        <time>2018-05-03T10:56:22.000Z</time>
      </trkpt>
      <trkpt lat="43.75846" lon="7.06923">
        <ele>967</ele>
        <time>2018-05-03T10:56:27.000Z</time>
      </trkpt>
      <trkpt lat="43.75837" lon="7.06912">
        <ele>966</ele>
        <time>2018-05-03T10:56:31.000Z</time>
      </trkpt>
      <trkpt lat="43.75824" lon="7.0689">
        <ele>966</ele>
        <time>2018-05-03T10:56:37.000Z</time>
      </trkpt>
      <trkpt lat="43.75813" lon="7.06878">
        <ele>966</ele>
        <time>2018-05-03T10:56:40.000Z</time>
      </trkpt>
      <trkpt lat="43.75807" lon="7.06871">
        <ele>966</ele>
        <time>2018-05-03T10:56:42.000Z</time>
      </trkpt>
      <trkpt lat="43.75798" lon="7.06867">
        <ele>966</ele>
        <time>2018-05-03T10:56:46.000Z</time>
      </trkpt>
      <trkpt lat="43.75788" lon="7.06864">
        <ele>966</ele>
        <time>2018-05-03T10:56:51.000Z</time>
      </trkpt>
      <trkpt lat="43.75778" lon="7.06863">
        <ele>966</ele>
        <time>2018-05-03T10:56:55.000Z</time>
      </trkpt>
      <trkpt lat="43.75777" lon="7.06861">
        <ele>966</ele>
        <time>2018-05-03T10:56:58.000Z</time>
      </trkpt>
      <trkpt lat="43.75773" lon="7.06859">
        <ele>966</ele>
        <time>2018-05-03T10:57:04.000Z</time>
      </trkpt>
      <trkpt lat="43.7576" lon="7.06853">
        <ele>966</ele>
        <time>2018-05-03T10:57:09.000Z</time>
      </trkpt>
      <trkpt lat="43.75744" lon="7.06849">
        <ele>965</ele>
        <time>2018-05-03T10:57:14.000Z</time>
      </trkpt>
      <trkpt lat="43.75737" lon="7.06844">
        <ele>965</ele>
        <time>2018-05-03T10:57:17.000Z</time>
      </trkpt>
      <trkpt lat="43.75735" lon="7.06841">
        <ele>965</ele>
        <time>2018-05-03T10:57:18.000Z</time>
      </trkpt>
      <trkpt lat="43.75725" lon="7.06825">
        <ele>963</ele>
        <time>2018-05-03T10:57:22.000Z</time>
      </trkpt>
      <trkpt lat="43.75718" lon="7.06817">
        <ele>962</ele>
        <time>2018-05-03T10:57:24.000Z</time>
      </trkpt>
      <trkpt lat="43.75716" lon="7.06812">
        <ele>962</ele>
        <time>2018-05-03T10:57:25.000Z</time>
      </trkpt>
      <trkpt lat="43.75712" lon="7.06806">
        <ele>961</ele>
        <time>2018-05-03T10:57:26.000Z</time>
      </trkpt>
      <trkpt lat="43.75703" lon="7.06795">
        <ele>961</ele>
        <time>2018-05-03T10:57:28.000Z</time>
      </trkpt>
      <trkpt lat="43.75691" lon="7.06775">
        <ele>960</ele>
        <time>2018-05-03T10:57:31.000Z</time>
      </trkpt>
      <trkpt lat="43.75681" lon="7.06757">
        <ele>959</ele>
        <time>2018-05-03T10:57:34.000Z</time>
      </trkpt>
      <trkpt lat="43.75677" lon="7.06752">
        <ele>959</ele>
        <time>2018-05-03T10:57:35.000Z</time>
      </trkpt>
      <trkpt lat="43.75673" lon="7.06746">
        <ele>957</ele>
        <time>2018-05-03T10:57:36.000Z</time>
      </trkpt>
      <trkpt lat="43.75667" lon="7.06733">
        <ele>957</ele>
        <time>2018-05-03T10:57:38.000Z</time>
      </trkpt>
      <trkpt lat="43.75666" lon="7.06726">
        <ele>956</ele>
        <time>2018-05-03T10:57:39.000Z</time>
      </trkpt>
      <trkpt lat="43.75666" lon="7.06719">
        <ele>956</ele>
        <time>2018-05-03T10:57:40.000Z</time>
      </trkpt>
      <trkpt lat="43.75664" lon="7.06714">
        <ele>956</ele>
        <time>2018-05-03T10:57:41.000Z</time>
      </trkpt>
      <trkpt lat="43.7566" lon="7.06708">
        <ele>956</ele>
        <time>2018-05-03T10:57:42.000Z</time>
      </trkpt>
      <trkpt lat="43.75657" lon="7.06704">
        <ele>956</ele>
        <time>2018-05-03T10:57:43.000Z</time>
      </trkpt>
      <trkpt lat="43.7565" lon="7.06695">
        <ele>956</ele>
        <time>2018-05-03T10:57:45.000Z</time>
      </trkpt>
      <trkpt lat="43.75648" lon="7.0669">
        <ele>956</ele>
        <time>2018-05-03T10:57:46.000Z</time>
      </trkpt>
      <trkpt lat="43.7564" lon="7.06673">
        <ele>956</ele>
        <time>2018-05-03T10:57:49.000Z</time>
      </trkpt>
      <trkpt lat="43.75629" lon="7.06654">
        <ele>956</ele>
        <time>2018-05-03T10:57:53.000Z</time>
      </trkpt>
      <trkpt lat="43.75622" lon="7.06646">
        <ele>956</ele>
        <time>2018-05-03T10:57:55.000Z</time>
      </trkpt>
      <trkpt lat="43.7561" lon="7.06632">
        <ele>957</ele>
        <time>2018-05-03T10:57:59.000Z</time>
      </trkpt>
      <trkpt lat="43.75599" lon="7.06619">
        <ele>957</ele>
        <time>2018-05-03T10:58:03.000Z</time>
      </trkpt>
      <trkpt lat="43.75592" lon="7.0661">
        <ele>958</ele>
        <time>2018-05-03T10:58:06.000Z</time>
      </trkpt>
      <trkpt lat="43.75587" lon="7.06603">
        <ele>958</ele>
        <time>2018-05-03T10:58:09.000Z</time>
      </trkpt>
      <trkpt lat="43.75583" lon="7.06601">
        <ele>958</ele>
        <time>2018-05-03T10:58:11.000Z</time>
      </trkpt>
      <trkpt lat="43.7558" lon="7.06597">
        <ele>959</ele>
        <time>2018-05-03T10:58:13.000Z</time>
      </trkpt>
      <trkpt lat="43.75576" lon="7.06591">
        <ele>959</ele>
        <time>2018-05-03T10:58:16.000Z</time>
      </trkpt>
      <trkpt lat="43.75573" lon="7.06587">
        <ele>959</ele>
        <time>2018-05-03T10:58:18.000Z</time>
      </trkpt>
      <trkpt lat="43.75572" lon="7.06585">
        <ele>959</ele>
        <time>2018-05-03T10:58:19.000Z</time>
      </trkpt>
      <trkpt lat="43.75561" lon="7.06568">
        <ele>960</ele>
        <time>2018-05-03T10:58:26.000Z</time>
      </trkpt>
      <trkpt lat="43.75558" lon="7.06563">
        <ele>960</ele>
        <time>2018-05-03T10:58:28.000Z</time>
      </trkpt>
      <trkpt lat="43.75545" lon="7.06543">
        <ele>960</ele>
        <time>2018-05-03T10:58:36.000Z</time>
      </trkpt>
      <trkpt lat="43.75543" lon="7.0654">
        <ele>961</ele>
        <time>2018-05-03T10:58:37.000Z</time>
      </trkpt>
      <trkpt lat="43.7554" lon="7.0653">
        <ele>961</ele>
        <time>2018-05-03T10:58:39.000Z</time>
      </trkpt>
      <trkpt lat="43.75536" lon="7.06519">
        <ele>961</ele>
        <time>2018-05-03T10:58:41.000Z</time>
      </trkpt>
      <trkpt lat="43.75528" lon="7.06501">
        <ele>961</ele>
        <time>2018-05-03T10:58:44.000Z</time>
      </trkpt>
      <trkpt lat="43.75522" lon="7.06492">
        <ele>961</ele>
        <time>2018-05-03T10:58:46.000Z</time>
      </trkpt>
      <trkpt lat="43.75518" lon="7.0649">
        <ele>961</ele>
        <time>2018-05-03T10:58:47.000Z</time>
      </trkpt>
      <trkpt lat="43.75512" lon="7.06483">
        <ele>962</ele>
        <time>2018-05-03T10:58:49.000Z</time>
      </trkpt>
      <trkpt lat="43.75507" lon="7.06477">
        <ele>962</ele>
        <time>2018-05-03T10:58:51.000Z</time>
      </trkpt>
      <trkpt lat="43.75505" lon="7.06474">
        <ele>962</ele>
        <time>2018-05-03T10:58:52.000Z</time>
      </trkpt>
      <trkpt lat="43.75492" lon="7.0646">
        <ele>964</ele>
        <time>2018-05-03T10:58:57.000Z</time>
      </trkpt>
      <trkpt lat="43.75485" lon="7.0645">
        <ele>964</ele>
        <time>2018-05-03T10:59:01.000Z</time>
      </trkpt>
      <trkpt lat="43.75479" lon="7.06445">
        <ele>964</ele>
        <time>2018-05-03T10:59:04.000Z</time>
      </trkpt>
      <trkpt lat="43.75471" lon="7.0644">
        <ele>964</ele>
        <time>2018-05-03T10:59:08.000Z</time>
      </trkpt>
      <trkpt lat="43.75464" lon="7.06438">
        <ele>965</ele>
        <time>2018-05-03T10:59:11.000Z</time>
      </trkpt>
      <trkpt lat="43.75455" lon="7.06437">
        <ele>965</ele>
        <time>2018-05-03T10:59:15.000Z</time>
      </trkpt>
      <trkpt lat="43.7545" lon="7.06437">
        <ele>965</ele>
        <time>2018-05-03T10:59:17.000Z</time>
      </trkpt>
      <trkpt lat="43.75436" lon="7.06439">
        <ele>966</ele>
        <time>2018-05-03T10:59:23.000Z</time>
      </trkpt>
      <trkpt lat="43.75423" lon="7.06442">
        <ele>966</ele>
        <time>2018-05-03T10:59:29.000Z</time>
      </trkpt>
      <trkpt lat="43.75412" lon="7.06446">
        <ele>967</ele>
        <time>2018-05-03T10:59:33.000Z</time>
      </trkpt>
      <trkpt lat="43.7541" lon="7.06445">
        <ele>967</ele>
        <time>2018-05-03T10:59:34.000Z</time>
      </trkpt>
      <trkpt lat="43.75395" lon="7.06436">
        <ele>968</ele>
        <time>2018-05-03T10:59:40.000Z</time>
      </trkpt>
      <trkpt lat="43.75377" lon="7.06437">
        <ele>968</ele>
        <time>2018-05-03T10:59:46.000Z</time>
      </trkpt>
      <trkpt lat="43.7537" lon="7.06433">
        <ele>968</ele>
        <time>2018-05-03T10:59:50.000Z</time>
      </trkpt>
      <trkpt lat="43.75365" lon="7.06426">
        <ele>968</ele>
        <time>2018-05-03T10:59:54.000Z</time>
      </trkpt>
      <trkpt lat="43.75364" lon="7.0642">
        <ele>969</ele>
        <time>2018-05-03T10:59:56.000Z</time>
      </trkpt>
      <trkpt lat="43.75362" lon="7.06412">
        <ele>972</ele>
        <time>2018-05-03T11:00:00.000Z</time>
      </trkpt>
      <trkpt lat="43.7536" lon="7.06408">
        <ele>972</ele>
        <time>2018-05-03T11:00:02.000Z</time>
      </trkpt>
      <trkpt lat="43.75356" lon="7.06402">
        <ele>972</ele>
        <time>2018-05-03T11:00:06.000Z</time>
      </trkpt>
      <trkpt lat="43.75353" lon="7.06399">
        <ele>972</ele>
        <time>2018-05-03T11:00:08.000Z</time>
      </trkpt>
      <trkpt lat="43.75342" lon="7.06399">
        <ele>973</ele>
        <time>2018-05-03T11:00:14.000Z</time>
      </trkpt>
      <trkpt lat="43.75326" lon="7.06402">
        <ele>973</ele>
        <time>2018-05-03T11:00:22.000Z</time>
      </trkpt>
      <trkpt lat="43.75312" lon="7.06396">
        <ele>973</ele>
        <time>2018-05-03T11:00:28.000Z</time>
      </trkpt>
      <trkpt lat="43.75305" lon="7.06394">
        <ele>973</ele>
        <time>2018-05-03T11:00:31.000Z</time>
      </trkpt>
      <trkpt lat="43.75299" lon="7.06394">
        <ele>973</ele>
        <time>2018-05-03T11:00:33.000Z</time>
      </trkpt>
      <trkpt lat="43.75286" lon="7.06385">
        <ele>973</ele>
        <time>2018-05-03T11:00:39.000Z</time>
      </trkpt>
      <trkpt lat="43.75281" lon="7.06381">
        <ele>973</ele>
        <time>2018-05-03T11:00:43.000Z</time>
      </trkpt>
      <trkpt lat="43.75278" lon="7.06379">
        <ele>973</ele>
        <time>2018-05-03T11:00:45.000Z</time>
      </trkpt>
      <trkpt lat="43.75267" lon="7.0637">
        <ele>973</ele>
        <time>2018-05-03T11:00:50.000Z</time>
      </trkpt>
      <trkpt lat="43.75251" lon="7.06353">
        <ele>974</ele>
        <time>2018-05-03T11:00:55.000Z</time>
      </trkpt>
      <trkpt lat="43.75245" lon="7.06338">
        <ele>973</ele>
        <time>2018-05-03T11:00:58.000Z</time>
      </trkpt>
      <trkpt lat="43.75239" lon="7.06327">
        <ele>973</ele>
        <time>2018-05-03T11:01:00.000Z</time>
      </trkpt>
      <trkpt lat="43.75237" lon="7.0632">
        <ele>972</ele>
        <time>2018-05-03T11:01:01.000Z</time>
      </trkpt>
      <trkpt lat="43.75233" lon="7.06316">
        <ele>972</ele>
        <time>2018-05-03T11:01:02.000Z</time>
      </trkpt>
      <trkpt lat="43.75224" lon="7.06311">
        <ele>971</ele>
        <time>2018-05-03T11:01:04.000Z</time>
      </trkpt>
      <trkpt lat="43.75221" lon="7.06308">
        <ele>971</ele>
        <time>2018-05-03T11:01:05.000Z</time>
      </trkpt>
      <trkpt lat="43.75212" lon="7.06301">
        <ele>970</ele>
        <time>2018-05-03T11:01:08.000Z</time>
      </trkpt>
      <trkpt lat="43.75209" lon="7.06299">
        <ele>970</ele>
        <time>2018-05-03T11:01:09.000Z</time>
      </trkpt>
      <trkpt lat="43.75189" lon="7.06289">
        <ele>969</ele>
        <time>2018-05-03T11:01:15.000Z</time>
      </trkpt>
      <trkpt lat="43.75178" lon="7.06283">
        <ele>968</ele>
        <time>2018-05-03T11:01:17.000Z</time>
      </trkpt>
      <trkpt lat="43.75173" lon="7.06279">
        <ele>968</ele>
        <time>2018-05-03T11:01:18.000Z</time>
      </trkpt>
      <trkpt lat="43.75167" lon="7.06274">
        <ele>968</ele>
        <time>2018-05-03T11:01:19.000Z</time>
      </trkpt>
      <trkpt lat="43.75152" lon="7.0626">
        <ele>962</ele>
        <time>2018-05-03T11:01:22.000Z</time>
      </trkpt>
      <trkpt lat="43.75148" lon="7.06256">
        <ele>962</ele>
        <time>2018-05-03T11:01:23.000Z</time>
      </trkpt>
      <trkpt lat="43.75143" lon="7.06249">
        <ele>962</ele>
        <time>2018-05-03T11:01:24.000Z</time>
      </trkpt>
      <trkpt lat="43.75141" lon="7.06237">
        <ele>962</ele>
        <time>2018-05-03T11:01:26.000Z</time>
      </trkpt>
      <trkpt lat="43.75138" lon="7.06226">
        <ele>961</ele>
        <time>2018-05-03T11:01:28.000Z</time>
      </trkpt>
      <trkpt lat="43.75137" lon="7.0622">
        <ele>961</ele>
        <time>2018-05-03T11:01:29.000Z</time>
      </trkpt>
      <trkpt lat="43.75134" lon="7.06207">
        <ele>961</ele>
        <time>2018-05-03T11:01:31.000Z</time>
      </trkpt>
      <trkpt lat="43.75131" lon="7.06196">
        <ele>961</ele>
        <time>2018-05-03T11:01:33.000Z</time>
      </trkpt>
      <trkpt lat="43.75129" lon="7.06191">
        <ele>961</ele>
        <time>2018-05-03T11:01:34.000Z</time>
      </trkpt>
      <trkpt lat="43.75124" lon="7.06177">
        <ele>961</ele>
        <time>2018-05-03T11:01:37.000Z</time>
      </trkpt>
      <trkpt lat="43.75117" lon="7.06147">
        <ele>962</ele>
        <time>2018-05-03T11:01:43.000Z</time>
      </trkpt>
      <trkpt lat="43.75107" lon="7.06124">
        <ele>962</ele>
        <time>2018-05-03T11:01:48.000Z</time>
      </trkpt>
      <trkpt lat="43.75105" lon="7.06116">
        <ele>962</ele>
        <time>2018-05-03T11:01:50.000Z</time>
      </trkpt>
      <trkpt lat="43.75102" lon="7.06111">
        <ele>962</ele>
        <time>2018-05-03T11:01:52.000Z</time>
      </trkpt>
      <trkpt lat="43.75088" lon="7.06095">
        <ele>961</ele>
        <time>2018-05-03T11:01:58.000Z</time>
      </trkpt>
      <trkpt lat="43.75087" lon="7.0609">
        <ele>961</ele>
        <time>2018-05-03T11:01:59.000Z</time>
      </trkpt>
      <trkpt lat="43.75086" lon="7.06082">
        <ele>961</ele>
        <time>2018-05-03T11:02:01.000Z</time>
      </trkpt>
      <trkpt lat="43.75086" lon="7.06066">
        <ele>963</ele>
        <time>2018-05-03T11:02:05.000Z</time>
      </trkpt>
      <trkpt lat="43.75086" lon="7.06062">
        <ele>964</ele>
        <time>2018-05-03T11:02:06.000Z</time>
      </trkpt>
      <trkpt lat="43.75084" lon="7.06059">
        <ele>964</ele>
        <time>2018-05-03T11:02:07.000Z</time>
      </trkpt>
      <trkpt lat="43.75079" lon="7.06051">
        <ele>958</ele>
        <time>2018-05-03T11:02:10.000Z</time>
      </trkpt>
      <trkpt lat="43.75066" lon="7.06046">
        <ele>957</ele>
        <time>2018-05-03T11:02:14.000Z</time>
      </trkpt>
      <trkpt lat="43.75055" lon="7.06037">
        <ele>957</ele>
        <time>2018-05-03T11:02:18.000Z</time>
      </trkpt>
      <trkpt lat="43.75051" lon="7.06033">
        <ele>956</ele>
        <time>2018-05-03T11:02:20.000Z</time>
      </trkpt>
      <trkpt lat="43.75046" lon="7.06028">
        <ele>956</ele>
        <time>2018-05-03T11:02:22.000Z</time>
      </trkpt>
      <trkpt lat="43.75039" lon="7.06026">
        <ele>956</ele>
        <time>2018-05-03T11:02:24.000Z</time>
      </trkpt>
      <trkpt lat="43.75032" lon="7.06016">
        <ele>955</ele>
        <time>2018-05-03T11:02:27.000Z</time>
      </trkpt>
      <trkpt lat="43.75029" lon="7.06">
        <ele>958</ele>
        <time>2018-05-03T11:02:31.000Z</time>
      </trkpt>
      <trkpt lat="43.75028" lon="7.05973">
        <ele>959</ele>
        <time>2018-05-03T11:02:37.000Z</time>
      </trkpt>
      <trkpt lat="43.75026" lon="7.05957">
        <ele>960</ele>
        <time>2018-05-03T11:02:40.000Z</time>
      </trkpt>
      <trkpt lat="43.75024" lon="7.05946">
        <ele>960</ele>
        <time>2018-05-03T11:02:42.000Z</time>
      </trkpt>
      <trkpt lat="43.75015" lon="7.05928">
        <ele>960</ele>
        <time>2018-05-03T11:02:46.000Z</time>
      </trkpt>
      <trkpt lat="43.75012" lon="7.05915">
        <ele>962</ele>
        <time>2018-05-03T11:02:49.000Z</time>
      </trkpt>
      <trkpt lat="43.75008" lon="7.05906">
        <ele>962</ele>
        <time>2018-05-03T11:02:53.000Z</time>
      </trkpt>
      <trkpt lat="43.75008" lon="7.05904">
        <ele>962</ele>
        <time>2018-05-03T11:02:54.000Z</time>
      </trkpt>
      <trkpt lat="43.75007" lon="7.059">
        <ele>963</ele>
        <time>2018-05-03T11:02:56.000Z</time>
      </trkpt>
      <trkpt lat="43.75005" lon="7.05891">
        <ele>964</ele>
        <time>2018-05-03T11:03:00.000Z</time>
      </trkpt>
      <trkpt lat="43.75005" lon="7.05889">
        <ele>964</ele>
        <time>2018-05-03T11:03:01.000Z</time>
      </trkpt>
      <trkpt lat="43.75005" lon="7.05876">
        <ele>965</ele>
        <time>2018-05-03T11:03:07.000Z</time>
      </trkpt>
      <trkpt lat="43.75005" lon="7.05874">
        <ele>965</ele>
        <time>2018-05-03T11:03:08.000Z</time>
      </trkpt>
      <trkpt lat="43.75002" lon="7.05853">
        <ele>965</ele>
        <time>2018-05-03T11:03:15.000Z</time>
      </trkpt>
      <trkpt lat="43.74995" lon="7.05834">
        <ele>963</ele>
        <time>2018-05-03T11:03:20.000Z</time>
      </trkpt>
      <trkpt lat="43.74988" lon="7.05809">
        <ele>964</ele>
        <time>2018-05-03T11:03:26.000Z</time>
      </trkpt>
      <trkpt lat="43.74977" lon="7.05795">
        <ele>963</ele>
        <time>2018-05-03T11:03:31.000Z</time>
      </trkpt>
      <trkpt lat="43.74961" lon="7.05775">
        <ele>963</ele>
        <time>2018-05-03T11:03:38.000Z</time>
      </trkpt>
      <trkpt lat="43.74957" lon="7.05758">
        <ele>963</ele>
        <time>2018-05-03T11:03:42.000Z</time>
      </trkpt>
      <trkpt lat="43.74958" lon="7.0575">
        <ele>963</ele>
        <time>2018-05-03T11:03:44.000Z</time>
      </trkpt>
      <trkpt lat="43.74961" lon="7.05741">
        <ele>966</ele>
        <time>2018-05-03T11:03:46.000Z</time>
      </trkpt>
      <trkpt lat="43.74964" lon="7.05735">
        <ele>966</ele>
        <time>2018-05-03T11:03:48.000Z</time>
      </trkpt>
      <trkpt lat="43.74969" lon="7.05723">
        <ele>967</ele>
        <time>2018-05-03T11:03:52.000Z</time>
      </trkpt>
      <trkpt lat="43.74972" lon="7.05717">
        <ele>967</ele>
        <time>2018-05-03T11:03:55.000Z</time>
      </trkpt>
      <trkpt lat="43.74978" lon="7.05706">
        <ele>967</ele>
        <time>2018-05-03T11:03:59.000Z</time>
      </trkpt>
      <trkpt lat="43.74991" lon="7.05684">
        <ele>968</ele>
        <time>2018-05-03T11:04:08.000Z</time>
      </trkpt>
      <trkpt lat="43.74993" lon="7.05682">
        <ele>968</ele>
        <time>2018-05-03T11:04:09.000Z</time>
      </trkpt>
      <trkpt lat="43.75005" lon="7.0568">
        <ele>970</ele>
        <time>2018-05-03T11:04:14.000Z</time>
      </trkpt>
      <trkpt lat="43.75017" lon="7.05677">
        <ele>970</ele>
        <time>2018-05-03T11:04:19.000Z</time>
      </trkpt>
      <trkpt lat="43.75018" lon="7.05676">
        <ele>970</ele>
        <time>2018-05-03T11:04:20.000Z</time>
      </trkpt>
      <trkpt lat="43.75025" lon="7.05669">
        <ele>970</ele>
        <time>2018-05-03T11:04:24.000Z</time>
      </trkpt>
      <trkpt lat="43.75031" lon="7.05665">
        <ele>971</ele>
        <time>2018-05-03T11:04:27.000Z</time>
      </trkpt>
      <trkpt lat="43.75035" lon="7.0566">
        <ele>971</ele>
        <time>2018-05-03T11:04:30.000Z</time>
      </trkpt>
      <trkpt lat="43.75041" lon="7.05652">
        <ele>971</ele>
        <time>2018-05-03T11:04:34.000Z</time>
      </trkpt>
      <trkpt lat="43.75045" lon="7.05637">
        <ele>971</ele>
        <time>2018-05-03T11:04:39.000Z</time>
      </trkpt>
      <trkpt lat="43.7505" lon="7.05627">
        <ele>971</ele>
        <time>2018-05-03T11:04:42.000Z</time>
      </trkpt>
      <trkpt lat="43.75058" lon="7.05618">
        <ele>971</ele>
        <time>2018-05-03T11:04:45.000Z</time>
      </trkpt>
      <trkpt lat="43.75073" lon="7.05602">
        <ele>971</ele>
        <time>2018-05-03T11:04:50.000Z</time>
      </trkpt>
      <trkpt lat="43.75087" lon="7.05588">
        <ele>971</ele>
        <time>2018-05-03T11:04:54.000Z</time>
      </trkpt>
      <trkpt lat="43.75095" lon="7.0558">
        <ele>970</ele>
        <time>2018-05-03T11:04:56.000Z</time>
      </trkpt>
      <trkpt lat="43.75115" lon="7.05565">
        <ele>968</ele>
        <time>2018-05-03T11:05:00.000Z</time>
      </trkpt>
      <trkpt lat="43.75125" lon="7.0556">
        <ele>968</ele>
        <time>2018-05-03T11:05:02.000Z</time>
      </trkpt>
      <trkpt lat="43.7513" lon="7.05558">
        <ele>968</ele>
        <time>2018-05-03T11:05:03.000Z</time>
      </trkpt>
      <trkpt lat="43.75135" lon="7.05555">
        <ele>968</ele>
        <time>2018-05-03T11:05:04.000Z</time>
      </trkpt>
      <trkpt lat="43.75139" lon="7.05552">
        <ele>967</ele>
        <time>2018-05-03T11:05:05.000Z</time>
      </trkpt>
      <trkpt lat="43.75147" lon="7.05542">
        <ele>967</ele>
        <time>2018-05-03T11:05:07.000Z</time>
      </trkpt>
      <trkpt lat="43.75151" lon="7.05537">
        <ele>967</ele>
        <time>2018-05-03T11:05:08.000Z</time>
      </trkpt>
      <trkpt lat="43.75155" lon="7.0553">
        <ele>967</ele>
        <time>2018-05-03T11:05:09.000Z</time>
      </trkpt>
      <trkpt lat="43.7516" lon="7.05525">
        <ele>967</ele>
        <time>2018-05-03T11:05:10.000Z</time>
      </trkpt>
      <trkpt lat="43.75164" lon="7.0552">
        <ele>967</ele>
        <time>2018-05-03T11:05:11.000Z</time>
      </trkpt>
      <trkpt lat="43.75175" lon="7.05502">
        <ele>965</ele>
        <time>2018-05-03T11:05:14.000Z</time>
      </trkpt>
      <trkpt lat="43.75183" lon="7.0549">
        <ele>966</ele>
        <time>2018-05-03T11:05:16.000Z</time>
      </trkpt>
      <trkpt lat="43.75187" lon="7.05485">
        <ele>966</ele>
        <time>2018-05-03T11:05:17.000Z</time>
      </trkpt>
      <trkpt lat="43.752" lon="7.05476">
        <ele>966</ele>
        <time>2018-05-03T11:05:20.000Z</time>
      </trkpt>
      <trkpt lat="43.75203" lon="7.05474">
        <ele>966</ele>
        <time>2018-05-03T11:05:21.000Z</time>
      </trkpt>
      <trkpt lat="43.75223" lon="7.0546">
        <ele>965</ele>
        <time>2018-05-03T11:05:26.000Z</time>
      </trkpt>
      <trkpt lat="43.75241" lon="7.05442">
        <ele>966</ele>
        <time>2018-05-03T11:05:32.000Z</time>
      </trkpt>
      <trkpt lat="43.75248" lon="7.05433">
        <ele>966</ele>
        <time>2018-05-03T11:05:35.000Z</time>
      </trkpt>
      <trkpt lat="43.75261" lon="7.0542">
        <ele>965</ele>
        <time>2018-05-03T11:05:40.000Z</time>
      </trkpt>
      <trkpt lat="43.75263" lon="7.05417">
        <ele>967</ele>
        <time>2018-05-03T11:05:41.000Z</time>
      </trkpt>
      <trkpt lat="43.75269" lon="7.05401">
        <ele>967</ele>
        <time>2018-05-03T11:05:45.000Z</time>
      </trkpt>
      <trkpt lat="43.7527" lon="7.05396">
        <ele>967</ele>
        <time>2018-05-03T11:05:46.000Z</time>
      </trkpt>
      <trkpt lat="43.75277" lon="7.05371">
        <ele>967</ele>
        <time>2018-05-03T11:05:52.000Z</time>
      </trkpt>
      <trkpt lat="43.75282" lon="7.05362">
        <ele>967</ele>
        <time>2018-05-03T11:05:55.000Z</time>
      </trkpt>
      <trkpt lat="43.75286" lon="7.05354">
        <ele>967</ele>
        <time>2018-05-03T11:05:58.000Z</time>
      </trkpt>
      <trkpt lat="43.75288" lon="7.05347">
        <ele>967</ele>
        <time>2018-05-03T11:06:00.000Z</time>
      </trkpt>
      <trkpt lat="43.75291" lon="7.05332">
        <ele>970</ele>
        <time>2018-05-03T11:06:04.000Z</time>
      </trkpt>
      <trkpt lat="43.75298" lon="7.05305">
        <ele>970</ele>
        <time>2018-05-03T11:06:11.000Z</time>
      </trkpt>
      <trkpt lat="43.75311" lon="7.05283">
        <ele>970</ele>
        <time>2018-05-03T11:06:17.000Z</time>
      </trkpt>
      <trkpt lat="43.75327" lon="7.0526">
        <ele>971</ele>
        <time>2018-05-03T11:06:25.000Z</time>
      </trkpt>
      <trkpt lat="43.75345" lon="7.05232">
        <ele>971</ele>
        <time>2018-05-03T11:06:34.000Z</time>
      </trkpt>
      <trkpt lat="43.75359" lon="7.05211">
        <ele>971</ele>
        <time>2018-05-03T11:06:41.000Z</time>
      </trkpt>
      <trkpt lat="43.75364" lon="7.05201">
        <ele>971</ele>
        <time>2018-05-03T11:06:44.000Z</time>
      </trkpt>
      <trkpt lat="43.75372" lon="7.05186">
        <ele>971</ele>
        <time>2018-05-03T11:06:49.000Z</time>
      </trkpt>
      <trkpt lat="43.75383" lon="7.05166">
        <ele>972</ele>
        <time>2018-05-03T11:06:54.000Z</time>
      </trkpt>
      <trkpt lat="43.75386" lon="7.0516">
        <ele>972</ele>
        <time>2018-05-03T11:06:55.000Z</time>
      </trkpt>
      <trkpt lat="43.75398" lon="7.05145">
        <ele>972</ele>
        <time>2018-05-03T11:06:58.000Z</time>
      </trkpt>
      <trkpt lat="43.75408" lon="7.05143">
        <ele>972</ele>
        <time>2018-05-03T11:07:00.000Z</time>
      </trkpt>
      <trkpt lat="43.75425" lon="7.05137">
        <ele>971</ele>
        <time>2018-05-03T11:07:05.000Z</time>
      </trkpt>
      <trkpt lat="43.75434" lon="7.05127">
        <ele>971</ele>
        <time>2018-05-03T11:07:09.000Z</time>
      </trkpt>
      <trkpt lat="43.7544" lon="7.05111">
        <ele>971</ele>
        <time>2018-05-03T11:07:13.000Z</time>
      </trkpt>
      <trkpt lat="43.75442" lon="7.05108">
        <ele>971</ele>
        <time>2018-05-03T11:07:14.000Z</time>
      </trkpt>
      <trkpt lat="43.7545" lon="7.05089">
        <ele>971</ele>
        <time>2018-05-03T11:07:19.000Z</time>
      </trkpt>
      <trkpt lat="43.75453" lon="7.05067">
        <ele>972</ele>
        <time>2018-05-03T11:07:24.000Z</time>
      </trkpt>
      <trkpt lat="43.75457" lon="7.05034">
        <ele>972</ele>
        <time>2018-05-03T11:07:31.000Z</time>
      </trkpt>
      <trkpt lat="43.75462" lon="7.04999">
        <ele>972</ele>
        <time>2018-05-03T11:07:38.000Z</time>
      </trkpt>
      <trkpt lat="43.75471" lon="7.04984">
        <ele>971</ele>
        <time>2018-05-03T11:07:42.000Z</time>
      </trkpt>
      <trkpt lat="43.75483" lon="7.04973">
        <ele>971</ele>
        <time>2018-05-03T11:07:48.000Z</time>
      </trkpt>
      <trkpt lat="43.75487" lon="7.04969">
        <ele>971</ele>
        <time>2018-05-03T11:07:51.000Z</time>
      </trkpt>
      <trkpt lat="43.75492" lon="7.04964">
        <ele>971</ele>
        <time>2018-05-03T11:07:54.000Z</time>
      </trkpt>
      <trkpt lat="43.75499" lon="7.04943">
        <ele>971</ele>
        <time>2018-05-03T11:08:00.000Z</time>
      </trkpt>
      <trkpt lat="43.75505" lon="7.04904">
        <ele>967</ele>
        <time>2018-05-03T11:08:06.000Z</time>
      </trkpt>
      <trkpt lat="43.75505" lon="7.04896">
        <ele>966</ele>
        <time>2018-05-03T11:08:07.000Z</time>
      </trkpt>
      <trkpt lat="43.75505" lon="7.04887">
        <ele>965</ele>
        <time>2018-05-03T11:08:08.000Z</time>
      </trkpt>
      <trkpt lat="43.75509" lon="7.04868">
        <ele>964</ele>
        <time>2018-05-03T11:08:10.000Z</time>
      </trkpt>
      <trkpt lat="43.75515" lon="7.0485">
        <ele>964</ele>
        <time>2018-05-03T11:08:12.000Z</time>
      </trkpt>
      <trkpt lat="43.75525" lon="7.04826">
        <ele>964</ele>
        <time>2018-05-03T11:08:15.000Z</time>
      </trkpt>
      <trkpt lat="43.75527" lon="7.04817">
        <ele>964</ele>
        <time>2018-05-03T11:08:16.000Z</time>
      </trkpt>
      <trkpt lat="43.75539" lon="7.04786">
        <ele>964</ele>
        <time>2018-05-03T11:08:20.000Z</time>
      </trkpt>
      <trkpt lat="43.75542" lon="7.04778">
        <ele>964</ele>
        <time>2018-05-03T11:08:21.000Z</time>
      </trkpt>
      <trkpt lat="43.75544" lon="7.04771">
        <ele>964</ele>
        <time>2018-05-03T11:08:22.000Z</time>
      </trkpt>
      <trkpt lat="43.75547" lon="7.0476">
        <ele>964</ele>
        <time>2018-05-03T11:08:24.000Z</time>
      </trkpt>
      <trkpt lat="43.7555" lon="7.04756">
        <ele>964</ele>
        <time>2018-05-03T11:08:25.000Z</time>
      </trkpt>
      <trkpt lat="43.75567" lon="7.04737">
        <ele>965</ele>
        <time>2018-05-03T11:08:30.000Z</time>
      </trkpt>
      <trkpt lat="43.75582" lon="7.04717">
        <ele>965</ele>
        <time>2018-05-03T11:08:36.000Z</time>
      </trkpt>
      <trkpt lat="43.75597" lon="7.047">
        <ele>964</ele>
        <time>2018-05-03T11:08:42.000Z</time>
      </trkpt>
      <trkpt lat="43.75609" lon="7.04682">
        <ele>965</ele>
        <time>2018-05-03T11:08:48.000Z</time>
      </trkpt>
      <trkpt lat="43.75626" lon="7.04667">
        <ele>965</ele>
        <time>2018-05-03T11:08:54.000Z</time>
      </trkpt>
      <trkpt lat="43.75655" lon="7.04639">
        <ele>967</ele>
        <time>2018-05-03T11:09:04.000Z</time>
      </trkpt>
      <trkpt lat="43.75661" lon="7.04633">
        <ele>967</ele>
        <time>2018-05-03T11:09:06.000Z</time>
      </trkpt>
      <trkpt lat="43.75669" lon="7.04624">
        <ele>969</ele>
        <time>2018-05-03T11:09:10.000Z</time>
      </trkpt>
      <trkpt lat="43.75671" lon="7.04622">
        <ele>969</ele>
        <time>2018-05-03T11:09:11.000Z</time>
      </trkpt>
      <trkpt lat="43.75682" lon="7.04609">
        <ele>969</ele>
        <time>2018-05-03T11:09:16.000Z</time>
      </trkpt>
      <trkpt lat="43.75689" lon="7.04602">
        <ele>969</ele>
        <time>2018-05-03T11:09:19.000Z</time>
      </trkpt>
      <trkpt lat="43.75696" lon="7.04582">
        <ele>971</ele>
        <time>2018-05-03T11:09:24.000Z</time>
      </trkpt>
      <trkpt lat="43.757" lon="7.04575">
        <ele>971</ele>
        <time>2018-05-03T11:09:26.000Z</time>
      </trkpt>
      <trkpt lat="43.75704" lon="7.04571">
        <ele>971</ele>
        <time>2018-05-03T11:09:28.000Z</time>
      </trkpt>
      <trkpt lat="43.75715" lon="7.04559">
        <ele>972</ele>
        <time>2018-05-03T11:09:34.000Z</time>
      </trkpt>
      <trkpt lat="43.75728" lon="7.04551">
        <ele>972</ele>
        <time>2018-05-03T11:09:39.000Z</time>
      </trkpt>
      <trkpt lat="43.7574" lon="7.04542">
        <ele>972</ele>
        <time>2018-05-03T11:09:44.000Z</time>
      </trkpt>
      <trkpt lat="43.75749" lon="7.04529">
        <ele>972</ele>
        <time>2018-05-03T11:09:50.000Z</time>
      </trkpt>
      <trkpt lat="43.75749" lon="7.04527">
        <ele>972</ele>
        <time>2018-05-03T11:09:51.000Z</time>
      </trkpt>
      <trkpt lat="43.75746" lon="7.04517">
        <ele>972</ele>
        <time>2018-05-03T11:09:55.000Z</time>
      </trkpt>
      <trkpt lat="43.75745" lon="7.04513">
        <ele>972</ele>
        <time>2018-05-03T11:09:57.000Z</time>
      </trkpt>
      <trkpt lat="43.75746" lon="7.04513">
        <ele>972</ele>
        <time>2018-05-03T11:09:59.000Z</time>
      </trkpt>
      <trkpt lat="43.75745" lon="7.04515">
        <ele>972</ele>
        <time>2018-05-03T11:10:02.000Z</time>
      </trkpt>
      <trkpt lat="43.75747" lon="7.04519">
        <ele>972</ele>
        <time>2018-05-03T11:10:04.000Z</time>
      </trkpt>
      <trkpt lat="43.75753" lon="7.04523">
        <ele>973</ele>
        <time>2018-05-03T11:10:09.000Z</time>
      </trkpt>
      <trkpt lat="43.75758" lon="7.04515">
        <ele>973</ele>
        <time>2018-05-03T11:10:12.000Z</time>
      </trkpt>
      <trkpt lat="43.7576" lon="7.04512">
        <ele>972</ele>
        <time>2018-05-03T11:10:13.000Z</time>
      </trkpt>
      <trkpt lat="43.75764" lon="7.04507">
        <ele>973</ele>
        <time>2018-05-03T11:10:15.000Z</time>
      </trkpt>
      <trkpt lat="43.7577" lon="7.04499">
        <ele>973</ele>
        <time>2018-05-03T11:10:18.000Z</time>
      </trkpt>
      <trkpt lat="43.7578" lon="7.04486">
        <ele>973</ele>
        <time>2018-05-03T11:10:22.000Z</time>
      </trkpt>
      <trkpt lat="43.75793" lon="7.04467">
        <ele>973</ele>
        <time>2018-05-03T11:10:27.000Z</time>
      </trkpt>
      <trkpt lat="43.75795" lon="7.04464">
        <ele>973</ele>
        <time>2018-05-03T11:10:28.000Z</time>
      </trkpt>
      <trkpt lat="43.75817" lon="7.04435">
        <ele>973</ele>
        <time>2018-05-03T11:10:35.000Z</time>
      </trkpt>
      <trkpt lat="43.75832" lon="7.04416">
        <ele>972</ele>
        <time>2018-05-03T11:10:39.000Z</time>
      </trkpt>
      <trkpt lat="43.75835" lon="7.04412">
        <ele>972</ele>
        <time>2018-05-03T11:10:40.000Z</time>
      </trkpt>
      <trkpt lat="43.75847" lon="7.04401">
        <ele>972</ele>
        <time>2018-05-03T11:10:43.000Z</time>
      </trkpt>
      <trkpt lat="43.75871" lon="7.04381">
        <ele>972</ele>
        <time>2018-05-03T11:10:49.000Z</time>
      </trkpt>
      <trkpt lat="43.75879" lon="7.04377">
        <ele>972</ele>
        <time>2018-05-03T11:10:51.000Z</time>
      </trkpt>
      <trkpt lat="43.75917" lon="7.04363">
        <ele>972</ele>
        <time>2018-05-03T11:11:00.000Z</time>
      </trkpt>
      <trkpt lat="43.75957" lon="7.0435">
        <ele>972</ele>
        <time>2018-05-03T11:11:08.000Z</time>
      </trkpt>
      <trkpt lat="43.75968" lon="7.04345">
        <ele>972</ele>
        <time>2018-05-03T11:11:10.000Z</time>
      </trkpt>
      <trkpt lat="43.75981" lon="7.04334">
        <ele>971</ele>
        <time>2018-05-03T11:11:13.000Z</time>
      </trkpt>
      <trkpt lat="43.75994" lon="7.04318">
        <ele>971</ele>
        <time>2018-05-03T11:11:16.000Z</time>
      </trkpt>
      <trkpt lat="43.76011" lon="7.04295">
        <ele>970</ele>
        <time>2018-05-03T11:11:20.000Z</time>
      </trkpt>
      <trkpt lat="43.7603" lon="7.04272">
        <ele>970</ele>
        <time>2018-05-03T11:11:24.000Z</time>
      </trkpt>
      <trkpt lat="43.76046" lon="7.04254">
        <ele>970</ele>
        <time>2018-05-03T11:11:27.000Z</time>
      </trkpt>
      <trkpt lat="43.76072" lon="7.04224">
        <ele>969</ele>
        <time>2018-05-03T11:11:32.000Z</time>
      </trkpt>
      <trkpt lat="43.76082" lon="7.04214">
        <ele>969</ele>
        <time>2018-05-03T11:11:34.000Z</time>
      </trkpt>
      <trkpt lat="43.76118" lon="7.04177">
        <ele>970</ele>
        <time>2018-05-03T11:11:42.000Z</time>
      </trkpt>
      <trkpt lat="43.76142" lon="7.04151">
        <ele>971</ele>
        <time>2018-05-03T11:11:48.000Z</time>
      </trkpt>
      <trkpt lat="43.76147" lon="7.04146">
        <ele>971</ele>
        <time>2018-05-03T11:11:49.000Z</time>
      </trkpt>
      <trkpt lat="43.76182" lon="7.04107">
        <ele>972</ele>
        <time>2018-05-03T11:11:58.000Z</time>
      </trkpt>
      <trkpt lat="43.76205" lon="7.04072">
        <ele>973</ele>
        <time>2018-05-03T11:12:05.000Z</time>
      </trkpt>
      <trkpt lat="43.76219" lon="7.04052">
        <ele>973</ele>
        <time>2018-05-03T11:12:09.000Z</time>
      </trkpt>
      <trkpt lat="43.76227" lon="7.04043">
        <ele>973</ele>
        <time>2018-05-03T11:12:11.000Z</time>
      </trkpt>
      <trkpt lat="43.76232" lon="7.0404">
        <ele>973</ele>
        <time>2018-05-03T11:12:12.000Z</time>
      </trkpt>
      <trkpt lat="43.76246" lon="7.04033">
        <ele>972</ele>
        <time>2018-05-03T11:12:15.000Z</time>
      </trkpt>
      <trkpt lat="43.76257" lon="7.04029">
        <ele>972</ele>
        <time>2018-05-03T11:12:17.000Z</time>
      </trkpt>
      <trkpt lat="43.76284" lon="7.04011">
        <ele>972</ele>
        <time>2018-05-03T11:12:22.000Z</time>
      </trkpt>
      <trkpt lat="43.7631" lon="7.03985">
        <ele>970</ele>
        <time>2018-05-03T11:12:27.000Z</time>
      </trkpt>
      <trkpt lat="43.76325" lon="7.03969">
        <ele>970</ele>
        <time>2018-05-03T11:12:30.000Z</time>
      </trkpt>
      <trkpt lat="43.76351" lon="7.0394">
        <ele>969</ele>
        <time>2018-05-03T11:12:36.000Z</time>
      </trkpt>
      <trkpt lat="43.76355" lon="7.03935">
        <ele>969</ele>
        <time>2018-05-03T11:12:37.000Z</time>
      </trkpt>
      <trkpt lat="43.76365" lon="7.03916">
        <ele>968</ele>
        <time>2018-05-03T11:12:41.000Z</time>
      </trkpt>
      <trkpt lat="43.76367" lon="7.0391">
        <ele>968</ele>
        <time>2018-05-03T11:12:44.000Z</time>
      </trkpt>
      <trkpt lat="43.76369" lon="7.03912">
        <ele>968</ele>
        <time>2018-05-03T11:12:48.000Z</time>
      </trkpt>
      <trkpt lat="43.76371" lon="7.03913">
        <ele>968</ele>
        <time>2018-05-03T11:12:53.000Z</time>
      </trkpt>
      <trkpt lat="43.76372" lon="7.03914">
        <ele>968</ele>
        <time>2018-05-03T11:12:56.000Z</time>
      </trkpt>
      <trkpt lat="43.76372" lon="7.03915">
        <ele>968</ele>
        <time>2018-05-03T11:12:59.000Z</time>
      </trkpt>
      <trkpt lat="43.76373" lon="7.03915">
        <ele>968</ele>
        <time>2018-05-03T11:13:08.000Z</time>
      </trkpt>
      <trkpt lat="43.76372" lon="7.03912">
        <ele>968</ele>
        <time>2018-05-03T11:13:16.000Z</time>
      </trkpt>
      <trkpt lat="43.76369" lon="7.0391">
        <ele>968</ele>
        <time>2018-05-03T11:13:22.000Z</time>
      </trkpt>
      <trkpt lat="43.76367" lon="7.03908">
        <ele>968</ele>
        <time>2018-05-03T11:13:28.000Z</time>
      </trkpt>
      <trkpt lat="43.76366" lon="7.03904">
        <ele>968</ele>
        <time>2018-05-03T11:13:30.000Z</time>
      </trkpt>
      <trkpt lat="43.76366" lon="7.03896">
        <ele>968</ele>
        <time>2018-05-03T11:13:33.000Z</time>
      </trkpt>
      <trkpt lat="43.76371" lon="7.03884">
        <ele>968</ele>
        <time>2018-05-03T11:13:37.000Z</time>
      </trkpt>
      <trkpt lat="43.76373" lon="7.03881">
        <ele>968</ele>
        <time>2018-05-03T11:13:38.000Z</time>
      </trkpt>
      <trkpt lat="43.76387" lon="7.03866">
        <ele>969</ele>
        <time>2018-05-03T11:13:44.000Z</time>
      </trkpt>
      <trkpt lat="43.76409" lon="7.03853">
        <ele>969</ele>
        <time>2018-05-03T11:13:51.000Z</time>
      </trkpt>
      <trkpt lat="43.7644" lon="7.03848">
        <ele>972</ele>
        <time>2018-05-03T11:13:59.000Z</time>
      </trkpt>
      <trkpt lat="43.76449" lon="7.03846">
        <ele>973</ele>
        <time>2018-05-03T11:14:01.000Z</time>
      </trkpt>
      <trkpt lat="43.76461" lon="7.03839">
        <ele>974</ele>
        <time>2018-05-03T11:14:04.000Z</time>
      </trkpt>
      <trkpt lat="43.76477" lon="7.03817">
        <ele>974</ele>
        <time>2018-05-03T11:14:09.000Z</time>
      </trkpt>
      <trkpt lat="43.7648" lon="7.03812">
        <ele>974</ele>
        <time>2018-05-03T11:14:10.000Z</time>
      </trkpt>
      <trkpt lat="43.76485" lon="7.03801">
        <ele>974</ele>
        <time>2018-05-03T11:14:12.000Z</time>
      </trkpt>
      <trkpt lat="43.7649" lon="7.03786">
        <ele>974</ele>
        <time>2018-05-03T11:14:15.000Z</time>
      </trkpt>
      <trkpt lat="43.76493" lon="7.03762">
        <ele>974</ele>
        <time>2018-05-03T11:14:20.000Z</time>
      </trkpt>
      <trkpt lat="43.76493" lon="7.03745">
        <ele>974</ele>
        <time>2018-05-03T11:14:24.000Z</time>
      </trkpt>
      <trkpt lat="43.76493" lon="7.03734">
        <ele>973</ele>
        <time>2018-05-03T11:14:27.000Z</time>
      </trkpt>
      <trkpt lat="43.76493" lon="7.03731">
        <ele>973</ele>
        <time>2018-05-03T11:14:28.000Z</time>
      </trkpt>
      <trkpt lat="43.76499" lon="7.03712">
        <ele>972</ele>
        <time>2018-05-03T11:14:34.000Z</time>
      </trkpt>
      <trkpt lat="43.765" lon="7.03709">
        <ele>972</ele>
        <time>2018-05-03T11:14:35.000Z</time>
      </trkpt>
      <trkpt lat="43.76506" lon="7.0369">
        <ele>984</ele>
        <time>2018-05-03T11:14:42.000Z</time>
      </trkpt>
      <trkpt lat="43.76506" lon="7.03687">
        <ele>983</ele>
        <time>2018-05-03T11:14:43.000Z</time>
      </trkpt>
      <trkpt lat="43.76508" lon="7.03668">
        <ele>979</ele>
        <time>2018-05-03T11:14:49.000Z</time>
      </trkpt>
      <trkpt lat="43.76503" lon="7.03649">
        <ele>981</ele>
        <time>2018-05-03T11:14:55.000Z</time>
      </trkpt>
      <trkpt lat="43.76504" lon="7.03638">
        <ele>982</ele>
        <time>2018-05-03T11:14:58.000Z</time>
      </trkpt>
      <trkpt lat="43.76506" lon="7.03631">
        <ele>982</ele>
        <time>2018-05-03T11:15:00.000Z</time>
      </trkpt>
      <trkpt lat="43.76516" lon="7.03606">
        <ele>982</ele>
        <time>2018-05-03T11:15:08.000Z</time>
      </trkpt>
      <trkpt lat="43.76519" lon="7.03599">
        <ele>982</ele>
        <time>2018-05-03T11:15:10.000Z</time>
      </trkpt>
      <trkpt lat="43.76527" lon="7.03579">
        <ele>980</ele>
        <time>2018-05-03T11:15:16.000Z</time>
      </trkpt>
      <trkpt lat="43.76541" lon="7.03552">
        <ele>983</ele>
        <time>2018-05-03T11:15:25.000Z</time>
      </trkpt>
      <trkpt lat="43.76551" lon="7.03529">
        <ele>984</ele>
        <time>2018-05-03T11:15:32.000Z</time>
      </trkpt>
      <trkpt lat="43.76553" lon="7.03518">
        <ele>984</ele>
        <time>2018-05-03T11:15:35.000Z</time>
      </trkpt>
      <trkpt lat="43.76554" lon="7.03504">
        <ele>984</ele>
        <time>2018-05-03T11:15:39.000Z</time>
      </trkpt>
      <trkpt lat="43.76557" lon="7.03477">
        <ele>981</ele>
        <time>2018-05-03T11:15:47.000Z</time>
      </trkpt>
      <trkpt lat="43.76558" lon="7.03475">
        <ele>981</ele>
        <time>2018-05-03T11:15:48.000Z</time>
      </trkpt>
      <trkpt lat="43.76565" lon="7.03456">
        <ele>981</ele>
        <time>2018-05-03T11:15:54.000Z</time>
      </trkpt>
      <trkpt lat="43.76573" lon="7.03437">
        <ele>981</ele>
        <time>2018-05-03T11:15:59.000Z</time>
      </trkpt>
      <trkpt lat="43.76575" lon="7.0343">
        <ele>982</ele>
        <time>2018-05-03T11:16:01.000Z</time>
      </trkpt>
      <trkpt lat="43.76579" lon="7.03421">
        <ele>984</ele>
        <time>2018-05-03T11:16:04.000Z</time>
      </trkpt>
      <trkpt lat="43.76584" lon="7.03408">
        <ele>987</ele>
        <time>2018-05-03T11:16:08.000Z</time>
      </trkpt>
      <trkpt lat="43.76586" lon="7.03405">
        <ele>988</ele>
        <time>2018-05-03T11:16:09.000Z</time>
      </trkpt>
      <trkpt lat="43.76594" lon="7.03387">
        <ele>990</ele>
        <time>2018-05-03T11:16:15.000Z</time>
      </trkpt>
      <trkpt lat="43.76597" lon="7.03382">
        <ele>990</ele>
        <time>2018-05-03T11:16:17.000Z</time>
      </trkpt>
      <trkpt lat="43.76607" lon="7.03366">
        <ele>991</ele>
        <time>2018-05-03T11:16:23.000Z</time>
      </trkpt>
      <trkpt lat="43.76619" lon="7.03348">
        <ele>991</ele>
        <time>2018-05-03T11:16:29.000Z</time>
      </trkpt>
      <trkpt lat="43.76625" lon="7.03339">
        <ele>992</ele>
        <time>2018-05-03T11:16:32.000Z</time>
      </trkpt>
      <trkpt lat="43.76638" lon="7.03313">
        <ele>990</ele>
        <time>2018-05-03T11:16:40.000Z</time>
      </trkpt>
      <trkpt lat="43.76641" lon="7.03303">
        <ele>990</ele>
        <time>2018-05-03T11:16:43.000Z</time>
      </trkpt>
      <trkpt lat="43.76644" lon="7.03286">
        <ele>989</ele>
        <time>2018-05-03T11:16:47.000Z</time>
      </trkpt>
      <trkpt lat="43.76646" lon="7.03271">
        <ele>989</ele>
        <time>2018-05-03T11:16:51.000Z</time>
      </trkpt>
      <trkpt lat="43.76649" lon="7.03263">
        <ele>990</ele>
        <time>2018-05-03T11:16:54.000Z</time>
      </trkpt>
      <trkpt lat="43.76652" lon="7.03258">
        <ele>990</ele>
        <time>2018-05-03T11:16:56.000Z</time>
      </trkpt>
      <trkpt lat="43.7666" lon="7.0324">
        <ele>990</ele>
        <time>2018-05-03T11:17:03.000Z</time>
      </trkpt>
      <trkpt lat="43.76665" lon="7.0323">
        <ele>990</ele>
        <time>2018-05-03T11:17:07.000Z</time>
      </trkpt>
      <trkpt lat="43.76667" lon="7.03224">
        <ele>997</ele>
        <time>2018-05-03T11:17:09.000Z</time>
      </trkpt>
      <trkpt lat="43.7667" lon="7.03215">
        <ele>998</ele>
        <time>2018-05-03T11:17:13.000Z</time>
      </trkpt>
      <trkpt lat="43.76672" lon="7.03208">
        <ele>998</ele>
        <time>2018-05-03T11:17:16.000Z</time>
      </trkpt>
      <trkpt lat="43.76673" lon="7.03206">
        <ele>998</ele>
        <time>2018-05-03T11:17:17.000Z</time>
      </trkpt>
      <trkpt lat="43.76676" lon="7.03202">
        <ele>998</ele>
        <time>2018-05-03T11:17:20.000Z</time>
      </trkpt>
      <trkpt lat="43.76677" lon="7.03199">
        <ele>998</ele>
        <time>2018-05-03T11:17:22.000Z</time>
      </trkpt>
      <trkpt lat="43.76678" lon="7.03198">
        <ele>998</ele>
        <time>2018-05-03T11:17:23.000Z</time>
      </trkpt>
      <trkpt lat="43.76681" lon="7.03189">
        <ele>998</ele>
        <time>2018-05-03T11:17:29.000Z</time>
      </trkpt>
      <trkpt lat="43.76681" lon="7.03186">
        <ele>998</ele>
        <time>2018-05-03T11:17:31.000Z</time>
      </trkpt>
      <trkpt lat="43.76682" lon="7.03181">
        <ele>997</ele>
        <time>2018-05-03T11:17:34.000Z</time>
      </trkpt>
      <trkpt lat="43.76682" lon="7.0318">
        <ele>997</ele>
        <time>2018-05-03T11:17:35.000Z</time>
      </trkpt>
      <trkpt lat="43.76682" lon="7.03176">
        <ele>997</ele>
        <time>2018-05-03T11:17:37.000Z</time>
      </trkpt>
      <trkpt lat="43.76684" lon="7.03169">
        <ele>997</ele>
        <time>2018-05-03T11:17:41.000Z</time>
      </trkpt>
      <trkpt lat="43.76686" lon="7.03165">
        <ele>997</ele>
        <time>2018-05-03T11:17:43.000Z</time>
      </trkpt>
      <trkpt lat="43.76696" lon="7.0315">
        <ele>999</ele>
        <time>2018-05-03T11:17:51.000Z</time>
      </trkpt>
      <trkpt lat="43.76698" lon="7.03147">
        <ele>999</ele>
        <time>2018-05-03T11:17:53.000Z</time>
      </trkpt>
      <trkpt lat="43.76705" lon="7.03133">
        <ele>1000</ele>
        <time>2018-05-03T11:18:00.000Z</time>
      </trkpt>
      <trkpt lat="43.76712" lon="7.03117">
        <ele>1001</ele>
        <time>2018-05-03T11:18:07.000Z</time>
      </trkpt>
      <trkpt lat="43.76712" lon="7.03115">
        <ele>1001</ele>
        <time>2018-05-03T11:18:08.000Z</time>
      </trkpt>
      <trkpt lat="43.76719" lon="7.03099">
        <ele>1001</ele>
        <time>2018-05-03T11:18:15.000Z</time>
      </trkpt>
      <trkpt lat="43.76721" lon="7.03097">
        <ele>1002</ele>
        <time>2018-05-03T11:18:16.000Z</time>
      </trkpt>
      <trkpt lat="43.76729" lon="7.03079">
        <ele>1003</ele>
        <time>2018-05-03T11:18:22.000Z</time>
      </trkpt>
      <trkpt lat="43.76741" lon="7.03057">
        <ele>1003</ele>
        <time>2018-05-03T11:18:29.000Z</time>
      </trkpt>
      <trkpt lat="43.76752" lon="7.03026">
        <ele>1008</ele>
        <time>2018-05-03T11:18:37.000Z</time>
      </trkpt>
      <trkpt lat="43.76758" lon="7.03004">
        <ele>1006</ele>
        <time>2018-05-03T11:18:43.000Z</time>
      </trkpt>
      <trkpt lat="43.7676" lon="7.02998">
        <ele>1007</ele>
        <time>2018-05-03T11:18:45.000Z</time>
      </trkpt>
      <trkpt lat="43.76763" lon="7.02986">
        <ele>1008</ele>
        <time>2018-05-03T11:18:49.000Z</time>
      </trkpt>
      <trkpt lat="43.76765" lon="7.02979">
        <ele>1009</ele>
        <time>2018-05-03T11:18:52.000Z</time>
      </trkpt>
      <trkpt lat="43.76768" lon="7.02967">
        <ele>1010</ele>
        <time>2018-05-03T11:18:57.000Z</time>
      </trkpt>
      <trkpt lat="43.76768" lon="7.02962">
        <ele>1010</ele>
        <time>2018-05-03T11:18:59.000Z</time>
      </trkpt>
      <trkpt lat="43.76771" lon="7.02947">
        <ele>1010</ele>
        <time>2018-05-03T11:19:05.000Z</time>
      </trkpt>
      <trkpt lat="43.76772" lon="7.02942">
        <ele>1010</ele>
        <time>2018-05-03T11:19:07.000Z</time>
      </trkpt>
      <trkpt lat="43.76774" lon="7.02927">
        <ele>1010</ele>
        <time>2018-05-03T11:19:12.000Z</time>
      </trkpt>
      <trkpt lat="43.76776" lon="7.02922">
        <ele>1010</ele>
        <time>2018-05-03T11:19:14.000Z</time>
      </trkpt>
      <trkpt lat="43.76782" lon="7.02909">
        <ele>1011</ele>
        <time>2018-05-03T11:19:19.000Z</time>
      </trkpt>
      <trkpt lat="43.76784" lon="7.02904">
        <ele>1012</ele>
        <time>2018-05-03T11:19:21.000Z</time>
      </trkpt>
      <trkpt lat="43.76789" lon="7.02888">
        <ele>1012</ele>
        <time>2018-05-03T11:19:26.000Z</time>
      </trkpt>
      <trkpt lat="43.76794" lon="7.02875">
        <ele>1013</ele>
        <time>2018-05-03T11:19:31.000Z</time>
      </trkpt>
      <trkpt lat="43.76797" lon="7.02865">
        <ele>1013</ele>
        <time>2018-05-03T11:19:35.000Z</time>
      </trkpt>
      <trkpt lat="43.76801" lon="7.02858">
        <ele>1014</ele>
        <time>2018-05-03T11:19:39.000Z</time>
      </trkpt>
      <trkpt lat="43.76804" lon="7.02853">
        <ele>1014</ele>
        <time>2018-05-03T11:19:42.000Z</time>
      </trkpt>
      <trkpt lat="43.76808" lon="7.02847">
        <ele>1015</ele>
        <time>2018-05-03T11:19:46.000Z</time>
      </trkpt>
      <trkpt lat="43.7681" lon="7.02843">
        <ele>1015</ele>
        <time>2018-05-03T11:19:49.000Z</time>
      </trkpt>
      <trkpt lat="43.76816" lon="7.02833">
        <ele>1017</ele>
        <time>2018-05-03T11:19:56.000Z</time>
      </trkpt>
      <trkpt lat="43.76816" lon="7.02832">
        <ele>1017</ele>
        <time>2018-05-03T11:19:57.000Z</time>
      </trkpt>
      <trkpt lat="43.76818" lon="7.02822">
        <ele>1017</ele>
        <time>2018-05-03T11:20:02.000Z</time>
      </trkpt>
      <trkpt lat="43.76818" lon="7.02821">
        <ele>1017</ele>
        <time>2018-05-03T11:20:03.000Z</time>
      </trkpt>
      <trkpt lat="43.76821" lon="7.02807">
        <ele>1016</ele>
        <time>2018-05-03T11:20:10.000Z</time>
      </trkpt>
      <trkpt lat="43.76821" lon="7.02803">
        <ele>1016</ele>
        <time>2018-05-03T11:20:12.000Z</time>
      </trkpt>
      <trkpt lat="43.76822" lon="7.02793">
        <ele>1016</ele>
        <time>2018-05-03T11:20:17.000Z</time>
      </trkpt>
      <trkpt lat="43.76824" lon="7.02789">
        <ele>1016</ele>
        <time>2018-05-03T11:20:19.000Z</time>
      </trkpt>
      <trkpt lat="43.76826" lon="7.0278">
        <ele>1017</ele>
        <time>2018-05-03T11:20:24.000Z</time>
      </trkpt>
      <trkpt lat="43.76827" lon="7.02778">
        <ele>1017</ele>
        <time>2018-05-03T11:20:25.000Z</time>
      </trkpt>
      <trkpt lat="43.76831" lon="7.02768">
        <ele>1017</ele>
        <time>2018-05-03T11:20:32.000Z</time>
      </trkpt>
      <trkpt lat="43.76832" lon="7.02765">
        <ele>1017</ele>
        <time>2018-05-03T11:20:34.000Z</time>
      </trkpt>
      <trkpt lat="43.76833" lon="7.02764">
        <ele>1017</ele>
        <time>2018-05-03T11:20:35.000Z</time>
      </trkpt>
      <trkpt lat="43.76836" lon="7.02758">
        <ele>1021</ele>
        <time>2018-05-03T11:20:39.000Z</time>
      </trkpt>
      <trkpt lat="43.76837" lon="7.02755">
        <ele>1020</ele>
        <time>2018-05-03T11:20:41.000Z</time>
      </trkpt>
      <trkpt lat="43.76842" lon="7.02748">
        <ele>1021</ele>
        <time>2018-05-03T11:20:46.000Z</time>
      </trkpt>
      <trkpt lat="43.76844" lon="7.02745">
        <ele>1021</ele>
        <time>2018-05-03T11:20:48.000Z</time>
      </trkpt>
      <trkpt lat="43.76848" lon="7.0274">
        <ele>1022</ele>
        <time>2018-05-03T11:20:52.000Z</time>
      </trkpt>
      <trkpt lat="43.76853" lon="7.02731">
        <ele>1022</ele>
        <time>2018-05-03T11:20:57.000Z</time>
      </trkpt>
      <trkpt lat="43.76855" lon="7.02726">
        <ele>1023</ele>
        <time>2018-05-03T11:21:00.000Z</time>
      </trkpt>
      <trkpt lat="43.76859" lon="7.02721">
        <ele>1023</ele>
        <time>2018-05-03T11:21:04.000Z</time>
      </trkpt>
      <trkpt lat="43.76862" lon="7.02717">
        <ele>1023</ele>
        <time>2018-05-03T11:21:07.000Z</time>
      </trkpt>
      <trkpt lat="43.76865" lon="7.0271">
        <ele>1023</ele>
        <time>2018-05-03T11:21:11.000Z</time>
      </trkpt>
      <trkpt lat="43.76868" lon="7.02705">
        <ele>1023</ele>
        <time>2018-05-03T11:21:14.000Z</time>
      </trkpt>
      <trkpt lat="43.76873" lon="7.02703">
        <ele>1024</ele>
        <time>2018-05-03T11:21:17.000Z</time>
      </trkpt>
      <trkpt lat="43.76882" lon="7.02702">
        <ele>1024</ele>
        <time>2018-05-03T11:21:23.000Z</time>
      </trkpt>
      <trkpt lat="43.76884" lon="7.02702">
        <ele>1024</ele>
        <time>2018-05-03T11:21:24.000Z</time>
      </trkpt>
      <trkpt lat="43.76901" lon="7.02705">
        <ele>1025</ele>
        <time>2018-05-03T11:21:33.000Z</time>
      </trkpt>
      <trkpt lat="43.76905" lon="7.02706">
        <ele>1025</ele>
        <time>2018-05-03T11:21:35.000Z</time>
      </trkpt>
      <trkpt lat="43.76913" lon="7.02707">
        <ele>1025</ele>
        <time>2018-05-03T11:21:40.000Z</time>
      </trkpt>
      <trkpt lat="43.7692" lon="7.02709">
        <ele>1031</ele>
        <time>2018-05-03T11:21:44.000Z</time>
      </trkpt>
      <trkpt lat="43.76926" lon="7.0271">
        <ele>1031</ele>
        <time>2018-05-03T11:21:48.000Z</time>
      </trkpt>
      <trkpt lat="43.76929" lon="7.02711">
        <ele>1031</ele>
        <time>2018-05-03T11:21:50.000Z</time>
      </trkpt>
      <trkpt lat="43.76938" lon="7.02712">
        <ele>1031</ele>
        <time>2018-05-03T11:21:56.000Z</time>
      </trkpt>
      <trkpt lat="43.7694" lon="7.02713">
        <ele>1031</ele>
        <time>2018-05-03T11:21:57.000Z</time>
      </trkpt>
      <trkpt lat="43.76954" lon="7.02715">
        <ele>1032</ele>
        <time>2018-05-03T11:22:06.000Z</time>
      </trkpt>
      <trkpt lat="43.76961" lon="7.02717">
        <ele>1032</ele>
        <time>2018-05-03T11:22:12.000Z</time>
      </trkpt>
      <trkpt lat="43.76962" lon="7.02717">
        <ele>1033</ele>
        <time>2018-05-03T11:22:13.000Z</time>
      </trkpt>
      <trkpt lat="43.76968" lon="7.02718">
        <ele>1033</ele>
        <time>2018-05-03T11:22:18.000Z</time>
      </trkpt>
      <trkpt lat="43.76969" lon="7.02718">
        <ele>1033</ele>
        <time>2018-05-03T11:22:19.000Z</time>
      </trkpt>
      <trkpt lat="43.76974" lon="7.0272">
        <ele>1033</ele>
        <time>2018-05-03T11:22:24.000Z</time>
      </trkpt>
      <trkpt lat="43.76977" lon="7.0272">
        <ele>1034</ele>
        <time>2018-05-03T11:22:27.000Z</time>
      </trkpt>
      <trkpt lat="43.76978" lon="7.0272">
        <ele>1034</ele>
        <time>2018-05-03T11:22:28.000Z</time>
      </trkpt>
      <trkpt lat="43.76979" lon="7.0272">
        <ele>1034</ele>
        <time>2018-05-03T11:22:29.000Z</time>
      </trkpt>
      <trkpt lat="43.76983" lon="7.02726">
        <ele>1034</ele>
        <time>2018-05-03T11:22:35.000Z</time>
      </trkpt>
      <trkpt lat="43.76986" lon="7.02732">
        <ele>1035</ele>
        <time>2018-05-03T11:22:41.000Z</time>
      </trkpt>
      <trkpt lat="43.76986" lon="7.02733">
        <ele>1035</ele>
        <time>2018-05-03T11:22:42.000Z</time>
      </trkpt>
      <trkpt lat="43.76986" lon="7.02735">
        <ele>1035</ele>
        <time>2018-05-03T11:22:43.000Z</time>
      </trkpt>
      <trkpt lat="43.76987" lon="7.0274">
        <ele>1036</ele>
        <time>2018-05-03T11:22:47.000Z</time>
      </trkpt>
      <trkpt lat="43.76987" lon="7.02743">
        <ele>1036</ele>
        <time>2018-05-03T11:22:49.000Z</time>
      </trkpt>
      <trkpt lat="43.76987" lon="7.02754">
        <ele>1039</ele>
        <time>2018-05-03T11:22:56.000Z</time>
      </trkpt>
      <trkpt lat="43.76986" lon="7.02755">
        <ele>1039</ele>
        <time>2018-05-03T11:22:57.000Z</time>
      </trkpt>
      <trkpt lat="43.76986" lon="7.02762">
        <ele>1039</ele>
        <time>2018-05-03T11:23:02.000Z</time>
      </trkpt>
      <trkpt lat="43.76986" lon="7.02765">
        <ele>1039</ele>
        <time>2018-05-03T11:23:04.000Z</time>
      </trkpt>
      <trkpt lat="43.76986" lon="7.02775">
        <ele>1039</ele>
        <time>2018-05-03T11:23:10.000Z</time>
      </trkpt>
      <trkpt lat="43.76986" lon="7.02778">
        <ele>1039</ele>
        <time>2018-05-03T11:23:11.000Z</time>
      </trkpt>
      <trkpt lat="43.76983" lon="7.02796">
        <ele>1040</ele>
        <time>2018-05-03T11:23:19.000Z</time>
      </trkpt>
      <trkpt lat="43.76982" lon="7.02801">
        <ele>1041</ele>
        <time>2018-05-03T11:23:21.000Z</time>
      </trkpt>
      <trkpt lat="43.76978" lon="7.0282">
        <ele>1042</ele>
        <time>2018-05-03T11:23:27.000Z</time>
      </trkpt>
      <trkpt lat="43.76974" lon="7.02854">
        <ele>1045</ele>
        <time>2018-05-03T11:23:36.000Z</time>
      </trkpt>
      <trkpt lat="43.76976" lon="7.02873">
        <ele>1045</ele>
        <time>2018-05-03T11:23:42.000Z</time>
      </trkpt>
      <trkpt lat="43.76979" lon="7.02887">
        <ele>1046</ele>
        <time>2018-05-03T11:23:48.000Z</time>
      </trkpt>
      <trkpt lat="43.7698" lon="7.02896">
        <ele>1047</ele>
        <time>2018-05-03T11:23:51.000Z</time>
      </trkpt>
      <trkpt lat="43.7698" lon="7.02901">
        <ele>1048</ele>
        <time>2018-05-03T11:23:53.000Z</time>
      </trkpt>
      <trkpt lat="43.7698" lon="7.02909">
        <ele>1048</ele>
        <time>2018-05-03T11:23:56.000Z</time>
      </trkpt>
      <trkpt lat="43.7698" lon="7.02915">
        <ele>1049</ele>
        <time>2018-05-03T11:23:59.000Z</time>
      </trkpt>
      <trkpt lat="43.7698" lon="7.02917">
        <ele>1051</ele>
        <time>2018-05-03T11:24:00.000Z</time>
      </trkpt>
      <trkpt lat="43.7698" lon="7.02929">
        <ele>1051</ele>
        <time>2018-05-03T11:24:06.000Z</time>
      </trkpt>
      <trkpt lat="43.76979" lon="7.02941">
        <ele>1051</ele>
        <time>2018-05-03T11:24:12.000Z</time>
      </trkpt>
      <trkpt lat="43.76979" lon="7.02945">
        <ele>1051</ele>
        <time>2018-05-03T11:24:14.000Z</time>
      </trkpt>
      <trkpt lat="43.76978" lon="7.02955">
        <ele>1051</ele>
        <time>2018-05-03T11:24:19.000Z</time>
      </trkpt>
      <trkpt lat="43.76977" lon="7.02964">
        <ele>1051</ele>
        <time>2018-05-03T11:24:23.000Z</time>
      </trkpt>
      <trkpt lat="43.76975" lon="7.02978">
        <ele>1052</ele>
        <time>2018-05-03T11:24:28.000Z</time>
      </trkpt>
      <trkpt lat="43.76973" lon="7.02991">
        <ele>1053</ele>
        <time>2018-05-03T11:24:32.000Z</time>
      </trkpt>
      <trkpt lat="43.7697" lon="7.03016">
        <ele>1056</ele>
        <time>2018-05-03T11:24:40.000Z</time>
      </trkpt>
      <trkpt lat="43.76969" lon="7.03022">
        <ele>1056</ele>
        <time>2018-05-03T11:24:42.000Z</time>
      </trkpt>
      <trkpt lat="43.76967" lon="7.03036">
        <ele>1056</ele>
        <time>2018-05-03T11:24:46.000Z</time>
      </trkpt>
      <trkpt lat="43.76964" lon="7.03055">
        <ele>1056</ele>
        <time>2018-05-03T11:24:51.000Z</time>
      </trkpt>
      <trkpt lat="43.76964" lon="7.03058">
        <ele>1056</ele>
        <time>2018-05-03T11:24:52.000Z</time>
      </trkpt>
      <trkpt lat="43.76961" lon="7.03079">
        <ele>1057</ele>
        <time>2018-05-03T11:24:58.000Z</time>
      </trkpt>
      <trkpt lat="43.7696" lon="7.03085">
        <ele>1060</ele>
        <time>2018-05-03T11:25:00.000Z</time>
      </trkpt>
      <trkpt lat="43.76955" lon="7.0311">
        <ele>1059</ele>
        <time>2018-05-03T11:25:07.000Z</time>
      </trkpt>
      <trkpt lat="43.76954" lon="7.03114">
        <ele>1059</ele>
        <time>2018-05-03T11:25:08.000Z</time>
      </trkpt>
      <trkpt lat="43.7695" lon="7.03144">
        <ele>1058</ele>
        <time>2018-05-03T11:25:15.000Z</time>
      </trkpt>
      <trkpt lat="43.7695" lon="7.03182">
        <ele>1059</ele>
        <time>2018-05-03T11:25:22.000Z</time>
      </trkpt>
      <trkpt lat="43.76956" lon="7.03213">
        <ele>1060</ele>
        <time>2018-05-03T11:25:29.000Z</time>
      </trkpt>
      <trkpt lat="43.76958" lon="7.0322">
        <ele>1061</ele>
        <time>2018-05-03T11:25:31.000Z</time>
      </trkpt>
      <trkpt lat="43.76963" lon="7.03237">
        <ele>1062</ele>
        <time>2018-05-03T11:25:36.000Z</time>
      </trkpt>
      <trkpt lat="43.76964" lon="7.0324">
        <ele>1062</ele>
        <time>2018-05-03T11:25:37.000Z</time>
      </trkpt>
      <trkpt lat="43.7697" lon="7.03256">
        <ele>1065</ele>
        <time>2018-05-03T11:25:42.000Z</time>
      </trkpt>
      <trkpt lat="43.76975" lon="7.03274">
        <ele>1066</ele>
        <time>2018-05-03T11:25:48.000Z</time>
      </trkpt>
      <trkpt lat="43.76978" lon="7.0328">
        <ele>1066</ele>
        <time>2018-05-03T11:25:50.000Z</time>
      </trkpt>
      <trkpt lat="43.76983" lon="7.03296">
        <ele>1066</ele>
        <time>2018-05-03T11:25:56.000Z</time>
      </trkpt>
      <trkpt lat="43.76984" lon="7.03299">
        <ele>1066</ele>
        <time>2018-05-03T11:25:57.000Z</time>
      </trkpt>
      <trkpt lat="43.76989" lon="7.03311">
        <ele>1068</ele>
        <time>2018-05-03T11:26:02.000Z</time>
      </trkpt>
      <trkpt lat="43.76989" lon="7.03313">
        <ele>1068</ele>
        <time>2018-05-03T11:26:03.000Z</time>
      </trkpt>
      <trkpt lat="43.76994" lon="7.03324">
        <ele>1070</ele>
        <time>2018-05-03T11:26:09.000Z</time>
      </trkpt>
      <trkpt lat="43.76998" lon="7.03325">
        <ele>1071</ele>
        <time>2018-05-03T11:26:12.000Z</time>
      </trkpt>
      <trkpt lat="43.77" lon="7.03322">
        <ele>1070</ele>
        <time>2018-05-03T11:26:14.000Z</time>
      </trkpt>
      <trkpt lat="43.77" lon="7.03317">
        <ele>1081</ele>
        <time>2018-05-03T11:26:16.000Z</time>
      </trkpt>
      <trkpt lat="43.77001" lon="7.03314">
        <ele>1081</ele>
        <time>2018-05-03T11:26:17.000Z</time>
      </trkpt>
      <trkpt lat="43.77001" lon="7.0331">
        <ele>1082</ele>
        <time>2018-05-03T11:26:19.000Z</time>
      </trkpt>
      <trkpt lat="43.76999" lon="7.03301">
        <ele>1068</ele>
        <time>2018-05-03T11:26:23.000Z</time>
      </trkpt>
      <trkpt lat="43.76999" lon="7.03296">
        <ele>1068</ele>
        <time>2018-05-03T11:26:25.000Z</time>
      </trkpt>
      <trkpt lat="43.76997" lon="7.03287">
        <ele>1068</ele>
        <time>2018-05-03T11:26:29.000Z</time>
      </trkpt>
      <trkpt lat="43.76997" lon="7.0328">
        <ele>1068</ele>
        <time>2018-05-03T11:26:32.000Z</time>
      </trkpt>
      <trkpt lat="43.76996" lon="7.03269">
        <ele>1069</ele>
        <time>2018-05-03T11:26:37.000Z</time>
      </trkpt>
      <trkpt lat="43.76996" lon="7.03262">
        <ele>1071</ele>
        <time>2018-05-03T11:26:40.000Z</time>
      </trkpt>
      <trkpt lat="43.76995" lon="7.03253">
        <ele>1073</ele>
        <time>2018-05-03T11:26:44.000Z</time>
      </trkpt>
      <trkpt lat="43.76995" lon="7.03246">
        <ele>1073</ele>
        <time>2018-05-03T11:26:47.000Z</time>
      </trkpt>
      <trkpt lat="43.76993" lon="7.03234">
        <ele>1069</ele>
        <time>2018-05-03T11:26:52.000Z</time>
      </trkpt>
      <trkpt lat="43.76993" lon="7.03232">
        <ele>1068</ele>
        <time>2018-05-03T11:26:53.000Z</time>
      </trkpt>
      <trkpt lat="43.7699" lon="7.03216">
        <ele>1066</ele>
        <time>2018-05-03T11:27:00.000Z</time>
      </trkpt>
      <trkpt lat="43.7699" lon="7.03202">
        <ele>1066</ele>
        <time>2018-05-03T11:27:06.000Z</time>
      </trkpt>
      <trkpt lat="43.7699" lon="7.03198">
        <ele>1067</ele>
        <time>2018-05-03T11:27:08.000Z</time>
      </trkpt>
      <trkpt lat="43.76991" lon="7.03184">
        <ele>1069</ele>
        <time>2018-05-03T11:27:14.000Z</time>
      </trkpt>
      <trkpt lat="43.76991" lon="7.0318">
        <ele>1070</ele>
        <time>2018-05-03T11:27:16.000Z</time>
      </trkpt>
      <trkpt lat="43.76993" lon="7.03172">
        <ele>1073</ele>
        <time>2018-05-03T11:27:20.000Z</time>
      </trkpt>
      <trkpt lat="43.76995" lon="7.03164">
        <ele>1074</ele>
        <time>2018-05-03T11:27:24.000Z</time>
      </trkpt>
      <trkpt lat="43.76997" lon="7.0316">
        <ele>1073</ele>
        <time>2018-05-03T11:27:26.000Z</time>
      </trkpt>
      <trkpt lat="43.77002" lon="7.0315">
        <ele>1082</ele>
        <time>2018-05-03T11:27:32.000Z</time>
      </trkpt>
      <trkpt lat="43.77004" lon="7.03146">
        <ele>1083</ele>
        <time>2018-05-03T11:27:34.000Z</time>
      </trkpt>
      <trkpt lat="43.77011" lon="7.03137">
        <ele>1084</ele>
        <time>2018-05-03T11:27:40.000Z</time>
      </trkpt>
      <trkpt lat="43.77014" lon="7.03133">
        <ele>1084</ele>
        <time>2018-05-03T11:27:43.000Z</time>
      </trkpt>
      <trkpt lat="43.77018" lon="7.03128">
        <ele>1084</ele>
        <time>2018-05-03T11:27:46.000Z</time>
      </trkpt>
      <trkpt lat="43.77028" lon="7.03117">
        <ele>1085</ele>
        <time>2018-05-03T11:27:54.000Z</time>
      </trkpt>
      <trkpt lat="43.77029" lon="7.03116">
        <ele>1085</ele>
        <time>2018-05-03T11:27:55.000Z</time>
      </trkpt>
      <trkpt lat="43.77037" lon="7.03108">
        <ele>1086</ele>
        <time>2018-05-03T11:28:01.000Z</time>
      </trkpt>
      <trkpt lat="43.77038" lon="7.03107">
        <ele>1086</ele>
        <time>2018-05-03T11:28:02.000Z</time>
      </trkpt>
      <trkpt lat="43.77049" lon="7.03097">
        <ele>1087</ele>
        <time>2018-05-03T11:28:10.000Z</time>
      </trkpt>
      <trkpt lat="43.77053" lon="7.03093">
        <ele>1088</ele>
        <time>2018-05-03T11:28:13.000Z</time>
      </trkpt>
      <trkpt lat="43.7706" lon="7.03087">
        <ele>1089</ele>
        <time>2018-05-03T11:28:18.000Z</time>
      </trkpt>
      <trkpt lat="43.77067" lon="7.03079">
        <ele>1087</ele>
        <time>2018-05-03T11:28:24.000Z</time>
      </trkpt>
      <trkpt lat="43.77071" lon="7.03075">
        <ele>1088</ele>
        <time>2018-05-03T11:28:27.000Z</time>
      </trkpt>
      <trkpt lat="43.77078" lon="7.03068">
        <ele>1088</ele>
        <time>2018-05-03T11:28:33.000Z</time>
      </trkpt>
      <trkpt lat="43.77081" lon="7.03065">
        <ele>1087</ele>
        <time>2018-05-03T11:28:36.000Z</time>
      </trkpt>
      <trkpt lat="43.77088" lon="7.03057">
        <ele>1100</ele>
        <time>2018-05-03T11:28:42.000Z</time>
      </trkpt>
      <trkpt lat="43.77089" lon="7.03056">
        <ele>1100</ele>
        <time>2018-05-03T11:28:43.000Z</time>
      </trkpt>
      <trkpt lat="43.77097" lon="7.03046">
        <ele>1101</ele>
        <time>2018-05-03T11:28:50.000Z</time>
      </trkpt>
      <trkpt lat="43.77101" lon="7.03038">
        <ele>1101</ele>
        <time>2018-05-03T11:28:55.000Z</time>
      </trkpt>
      <trkpt lat="43.77103" lon="7.03034">
        <ele>1101</ele>
        <time>2018-05-03T11:28:57.000Z</time>
      </trkpt>
      <trkpt lat="43.77108" lon="7.03024">
        <ele>1101</ele>
        <time>2018-05-03T11:29:03.000Z</time>
      </trkpt>
      <trkpt lat="43.77111" lon="7.03015">
        <ele>1100</ele>
        <time>2018-05-03T11:29:08.000Z</time>
      </trkpt>
      <trkpt lat="43.77114" lon="7.03006">
        <ele>1101</ele>
        <time>2018-05-03T11:29:12.000Z</time>
      </trkpt>
      <trkpt lat="43.77117" lon="7.02999">
        <ele>1097</ele>
        <time>2018-05-03T11:29:16.000Z</time>
      </trkpt>
      <trkpt lat="43.77119" lon="7.02996">
        <ele>1097</ele>
        <time>2018-05-03T11:29:18.000Z</time>
      </trkpt>
      <trkpt lat="43.77124" lon="7.02987">
        <ele>1098</ele>
        <time>2018-05-03T11:29:24.000Z</time>
      </trkpt>
      <trkpt lat="43.77126" lon="7.02984">
        <ele>1099</ele>
        <time>2018-05-03T11:29:26.000Z</time>
      </trkpt>
      <trkpt lat="43.77131" lon="7.02974">
        <ele>1099</ele>
        <time>2018-05-03T11:29:32.000Z</time>
      </trkpt>
      <trkpt lat="43.77132" lon="7.02973">
        <ele>1099</ele>
        <time>2018-05-03T11:29:33.000Z</time>
      </trkpt>
      <trkpt lat="43.77137" lon="7.02963">
        <ele>1099</ele>
        <time>2018-05-03T11:29:38.000Z</time>
      </trkpt>
      <trkpt lat="43.77137" lon="7.02961">
        <ele>1099</ele>
        <time>2018-05-03T11:29:39.000Z</time>
      </trkpt>
      <trkpt lat="43.7714" lon="7.02954">
        <ele>1099</ele>
        <time>2018-05-03T11:29:44.000Z</time>
      </trkpt>
      <trkpt lat="43.7714" lon="7.02952">
        <ele>1099</ele>
        <time>2018-05-03T11:29:45.000Z</time>
      </trkpt>
      <trkpt lat="43.77145" lon="7.02938">
        <ele>1100</ele>
        <time>2018-05-03T11:29:53.000Z</time>
      </trkpt>
      <trkpt lat="43.77152" lon="7.02934">
        <ele>1101</ele>
        <time>2018-05-03T11:30:00.000Z</time>
      </trkpt>
      <trkpt lat="43.77153" lon="7.02935">
        <ele>1101</ele>
        <time>2018-05-03T11:30:02.000Z</time>
      </trkpt>
      <trkpt lat="43.77154" lon="7.02941">
        <ele>1101</ele>
        <time>2018-05-03T11:30:05.000Z</time>
      </trkpt>
      <trkpt lat="43.77155" lon="7.02943">
        <ele>1101</ele>
        <time>2018-05-03T11:30:06.000Z</time>
      </trkpt>
      <trkpt lat="43.77155" lon="7.02944">
        <ele>1101</ele>
        <time>2018-05-03T11:30:07.000Z</time>
      </trkpt>
      <trkpt lat="43.77155" lon="7.02952">
        <ele>1101</ele>
        <time>2018-05-03T11:30:12.000Z</time>
      </trkpt>
      <trkpt lat="43.77152" lon="7.02965">
        <ele>1102</ele>
        <time>2018-05-03T11:30:20.000Z</time>
      </trkpt>
      <trkpt lat="43.7715" lon="7.02971">
        <ele>1102</ele>
        <time>2018-05-03T11:30:23.000Z</time>
      </trkpt>
      <trkpt lat="43.77149" lon="7.02981">
        <ele>1103</ele>
        <time>2018-05-03T11:30:28.000Z</time>
      </trkpt>
      <trkpt lat="43.77145" lon="7.02998">
        <ele>1104</ele>
        <time>2018-05-03T11:30:35.000Z</time>
      </trkpt>
      <trkpt lat="43.77145" lon="7.03">
        <ele>1108</ele>
        <time>2018-05-03T11:30:36.000Z</time>
      </trkpt>
      <trkpt lat="43.77141" lon="7.03026">
        <ele>1106</ele>
        <time>2018-05-03T11:30:45.000Z</time>
      </trkpt>
      <trkpt lat="43.7714" lon="7.03029">
        <ele>1106</ele>
        <time>2018-05-03T11:30:46.000Z</time>
      </trkpt>
      <trkpt lat="43.77136" lon="7.03063">
        <ele>1107</ele>
        <time>2018-05-03T11:30:56.000Z</time>
      </trkpt>
      <trkpt lat="43.77135" lon="7.03073">
        <ele>1107</ele>
        <time>2018-05-03T11:30:59.000Z</time>
      </trkpt>
      <trkpt lat="43.77132" lon="7.03094">
        <ele>1111</ele>
        <time>2018-05-03T11:31:05.000Z</time>
      </trkpt>
      <trkpt lat="43.77127" lon="7.0311">
        <ele>1110</ele>
        <time>2018-05-03T11:31:10.000Z</time>
      </trkpt>
      <trkpt lat="43.77124" lon="7.03119">
        <ele>1110</ele>
        <time>2018-05-03T11:31:13.000Z</time>
      </trkpt>
      <trkpt lat="43.7712" lon="7.03131">
        <ele>1110</ele>
        <time>2018-05-03T11:31:17.000Z</time>
      </trkpt>
      <trkpt lat="43.77115" lon="7.0315">
        <ele>1110</ele>
        <time>2018-05-03T11:31:23.000Z</time>
      </trkpt>
      <trkpt lat="43.77114" lon="7.03177">
        <ele>1113</ele>
        <time>2018-05-03T11:31:30.000Z</time>
      </trkpt>
      <trkpt lat="43.77114" lon="7.03181">
        <ele>1113</ele>
        <time>2018-05-03T11:31:31.000Z</time>
      </trkpt>
      <trkpt lat="43.77114" lon="7.03215">
        <ele>1114</ele>
        <time>2018-05-03T11:31:39.000Z</time>
      </trkpt>
      <trkpt lat="43.77114" lon="7.03218">
        <ele>1114</ele>
        <time>2018-05-03T11:31:40.000Z</time>
      </trkpt>
      <trkpt lat="43.77112" lon="7.03237">
        <ele>1113</ele>
        <time>2018-05-03T11:31:45.000Z</time>
      </trkpt>
      <trkpt lat="43.77112" lon="7.03258">
        <ele>1112</ele>
        <time>2018-05-03T11:31:50.000Z</time>
      </trkpt>
      <trkpt lat="43.77111" lon="7.03262">
        <ele>1112</ele>
        <time>2018-05-03T11:31:51.000Z</time>
      </trkpt>
      <trkpt lat="43.77115" lon="7.03294">
        <ele>1113</ele>
        <time>2018-05-03T11:31:58.000Z</time>
      </trkpt>
      <trkpt lat="43.77127" lon="7.03336">
        <ele>1111</ele>
        <time>2018-05-03T11:32:07.000Z</time>
      </trkpt>
      <trkpt lat="43.77142" lon="7.03375">
        <ele>1112</ele>
        <time>2018-05-03T11:32:15.000Z</time>
      </trkpt>
      <trkpt lat="43.77157" lon="7.03411">
        <ele>1114</ele>
        <time>2018-05-03T11:32:22.000Z</time>
      </trkpt>
      <trkpt lat="43.77168" lon="7.0345">
        <ele>1120</ele>
        <time>2018-05-03T11:32:30.000Z</time>
      </trkpt>
      <trkpt lat="43.77178" lon="7.03493">
        <ele>1117</ele>
        <time>2018-05-03T11:32:39.000Z</time>
      </trkpt>
      <trkpt lat="43.77181" lon="7.03528">
        <ele>1117</ele>
        <time>2018-05-03T11:32:46.000Z</time>
      </trkpt>
      <trkpt lat="43.77177" lon="7.03553">
        <ele>1118</ele>
        <time>2018-05-03T11:32:51.000Z</time>
      </trkpt>
      <trkpt lat="43.77175" lon="7.03562">
        <ele>1117</ele>
        <time>2018-05-03T11:32:53.000Z</time>
      </trkpt>
      <trkpt lat="43.77168" lon="7.03598">
        <ele>1116</ele>
        <time>2018-05-03T11:33:01.000Z</time>
      </trkpt>
      <trkpt lat="43.77167" lon="7.03602">
        <ele>1116</ele>
        <time>2018-05-03T11:33:02.000Z</time>
      </trkpt>
      <trkpt lat="43.77166" lon="7.03626">
        <ele>1116</ele>
        <time>2018-05-03T11:33:08.000Z</time>
      </trkpt>
      <trkpt lat="43.77167" lon="7.03645">
        <ele>1117</ele>
        <time>2018-05-03T11:33:13.000Z</time>
      </trkpt>
      <trkpt lat="43.77168" lon="7.03658">
        <ele>1117</ele>
        <time>2018-05-03T11:33:16.000Z</time>
      </trkpt>
      <trkpt lat="43.77178" lon="7.03678">
        <ele>1117</ele>
        <time>2018-05-03T11:33:22.000Z</time>
      </trkpt>
      <trkpt lat="43.77187" lon="7.03686">
        <ele>1117</ele>
        <time>2018-05-03T11:33:27.000Z</time>
      </trkpt>
      <trkpt lat="43.77187" lon="7.03685">
        <ele>1117</ele>
        <time>2018-05-03T11:33:31.000Z</time>
      </trkpt>
      <trkpt lat="43.77188" lon="7.03685">
        <ele>1117</ele>
        <time>2018-05-03T11:33:37.000Z</time>
      </trkpt>
      <trkpt lat="43.77188" lon="7.03685">
        <ele>1117</ele>
        <time>2018-05-03T11:33:42.000Z</time>
      </trkpt>
      <trkpt lat="43.77188" lon="7.03685">
        <ele>1117</ele>
        <time>2018-05-03T11:33:48.000Z</time>
      </trkpt>
      <trkpt lat="43.77188" lon="7.03685">
        <ele>1117</ele>
        <time>2018-05-03T11:33:58.000Z</time>
      </trkpt>
      <trkpt lat="43.77188" lon="7.03685">
        <ele>1117</ele>
        <time>2018-05-03T11:34:08.000Z</time>
      </trkpt>
      <trkpt lat="43.77188" lon="7.03685">
        <ele>1117</ele>
        <time>2018-05-03T11:34:15.000Z</time>
      </trkpt>
      <trkpt lat="43.77188" lon="7.03686">
        <ele>1117</ele>
        <time>2018-05-03T11:34:17.000Z</time>
      </trkpt>
      <trkpt lat="43.77189" lon="7.03684">
        <ele>1117</ele>
        <time>2018-05-03T11:34:24.000Z</time>
      </trkpt>
      <trkpt lat="43.77189" lon="7.03685">
        <ele>1117</ele>
        <time>2018-05-03T11:34:28.000Z</time>
      </trkpt>
      <trkpt lat="43.77189" lon="7.03685">
        <ele>1117</ele>
        <time>2018-05-03T11:34:37.000Z</time>
      </trkpt>
      <trkpt lat="43.77189" lon="7.03685">
        <ele>1117</ele>
        <time>2018-05-03T11:34:43.000Z</time>
      </trkpt>
      <trkpt lat="43.77188" lon="7.03685">
        <ele>1117</ele>
        <time>2018-05-03T11:34:53.000Z</time>
      </trkpt>
      <trkpt lat="43.77188" lon="7.03686">
        <ele>1117</ele>
        <time>2018-05-03T11:34:58.000Z</time>
      </trkpt>
      <trkpt lat="43.77189" lon="7.03686">
        <ele>1117</ele>
        <time>2018-05-03T11:35:05.000Z</time>
      </trkpt>
      <trkpt lat="43.77198" lon="7.03682">
        <ele>1116</ele>
        <time>2018-05-03T11:35:10.000Z</time>
      </trkpt>
      <trkpt lat="43.77205" lon="7.03679">
        <ele>1116</ele>
        <time>2018-05-03T11:35:12.000Z</time>
      </trkpt>
      <trkpt lat="43.7721" lon="7.0368">
        <ele>1116</ele>
        <time>2018-05-03T11:35:13.000Z</time>
      </trkpt>
      <trkpt lat="43.77214" lon="7.03683">
        <ele>1116</ele>
        <time>2018-05-03T11:35:14.000Z</time>
      </trkpt>
      <trkpt lat="43.7722" lon="7.0369">
        <ele>1116</ele>
        <time>2018-05-03T11:35:16.000Z</time>
      </trkpt>
      <trkpt lat="43.77225" lon="7.03694">
        <ele>1116</ele>
        <time>2018-05-03T11:35:18.000Z</time>
      </trkpt>
      <trkpt lat="43.7723" lon="7.03698">
        <ele>1115</ele>
        <time>2018-05-03T11:35:20.000Z</time>
      </trkpt>
      <trkpt lat="43.77233" lon="7.037">
        <ele>1115</ele>
        <time>2018-05-03T11:35:21.000Z</time>
      </trkpt>
      <trkpt lat="43.77237" lon="7.03704">
        <ele>1115</ele>
        <time>2018-05-03T11:35:22.000Z</time>
      </trkpt>
      <trkpt lat="43.7724" lon="7.03708">
        <ele>1115</ele>
        <time>2018-05-03T11:35:23.000Z</time>
      </trkpt>
      <trkpt lat="43.77249" lon="7.03718">
        <ele>1115</ele>
        <time>2018-05-03T11:35:25.000Z</time>
      </trkpt>
      <trkpt lat="43.77253" lon="7.03722">
        <ele>1113</ele>
        <time>2018-05-03T11:35:26.000Z</time>
      </trkpt>
      <trkpt lat="43.77257" lon="7.03724">
        <ele>1113</ele>
        <time>2018-05-03T11:35:27.000Z</time>
      </trkpt>
      <trkpt lat="43.77257" lon="7.03725">
        <ele>1113</ele>
        <time>2018-05-03T11:35:29.000Z</time>
      </trkpt>
      <trkpt lat="43.77258" lon="7.03725">
        <ele>1113</ele>
        <time>2018-05-03T11:35:36.000Z</time>
      </trkpt>
      <trkpt lat="43.77258" lon="7.03726">
        <ele>1113</ele>
        <time>2018-05-03T11:35:45.000Z</time>
      </trkpt>
      <trkpt lat="43.77258" lon="7.03726">
        <ele>1113</ele>
        <time>2018-05-03T11:35:54.000Z</time>
      </trkpt>
      <trkpt lat="43.77258" lon="7.03726">
        <ele>1113</ele>
        <time>2018-05-03T11:36:01.000Z</time>
      </trkpt>
      <trkpt lat="43.77259" lon="7.03727">
        <ele>1113</ele>
        <time>2018-05-03T11:36:04.000Z</time>
      </trkpt>
      <trkpt lat="43.77264" lon="7.03733">
        <ele>1113</ele>
        <time>2018-05-03T11:36:07.000Z</time>
      </trkpt>
      <trkpt lat="43.77274" lon="7.03747">
        <ele>1112</ele>
        <time>2018-05-03T11:36:10.000Z</time>
      </trkpt>
      <trkpt lat="43.77276" lon="7.03753">
        <ele>1109</ele>
        <time>2018-05-03T11:36:11.000Z</time>
      </trkpt>
      <trkpt lat="43.7728" lon="7.03758">
        <ele>1109</ele>
        <time>2018-05-03T11:36:12.000Z</time>
      </trkpt>
      <trkpt lat="43.77289" lon="7.03771">
        <ele>1108</ele>
        <time>2018-05-03T11:36:15.000Z</time>
      </trkpt>
      <trkpt lat="43.77292" lon="7.03777">
        <ele>1108</ele>
        <time>2018-05-03T11:36:16.000Z</time>
      </trkpt>
      <trkpt lat="43.77295" lon="7.03782">
        <ele>1108</ele>
        <time>2018-05-03T11:36:17.000Z</time>
      </trkpt>
      <trkpt lat="43.773" lon="7.03792">
        <ele>1107</ele>
        <time>2018-05-03T11:36:19.000Z</time>
      </trkpt>
      <trkpt lat="43.77306" lon="7.03807">
        <ele>1105</ele>
        <time>2018-05-03T11:36:22.000Z</time>
      </trkpt>
      <trkpt lat="43.77307" lon="7.0381">
        <ele>1105</ele>
        <time>2018-05-03T11:36:23.000Z</time>
      </trkpt>
      <trkpt lat="43.77312" lon="7.03823">
        <ele>1103</ele>
        <time>2018-05-03T11:36:28.000Z</time>
      </trkpt>
      <trkpt lat="43.77315" lon="7.0383">
        <ele>1102</ele>
        <time>2018-05-03T11:36:31.000Z</time>
      </trkpt>
      <trkpt lat="43.77318" lon="7.03836">
        <ele>1099</ele>
        <time>2018-05-03T11:36:33.000Z</time>
      </trkpt>
      <trkpt lat="43.7732" lon="7.03842">
        <ele>1099</ele>
        <time>2018-05-03T11:36:35.000Z</time>
      </trkpt>
      <trkpt lat="43.77324" lon="7.0385">
        <ele>1099</ele>
        <time>2018-05-03T11:36:38.000Z</time>
      </trkpt>
      <trkpt lat="43.77329" lon="7.03861">
        <ele>1100</ele>
        <time>2018-05-03T11:36:41.000Z</time>
      </trkpt>
      <trkpt lat="43.77329" lon="7.03866">
        <ele>1100</ele>
        <time>2018-05-03T11:36:43.000Z</time>
      </trkpt>
      <trkpt lat="43.77331" lon="7.0387">
        <ele>1099</ele>
        <time>2018-05-03T11:36:45.000Z</time>
      </trkpt>
      <trkpt lat="43.77332" lon="7.03877">
        <ele>1099</ele>
        <time>2018-05-03T11:36:47.000Z</time>
      </trkpt>
      <trkpt lat="43.77333" lon="7.03885">
        <ele>1098</ele>
        <time>2018-05-03T11:36:49.000Z</time>
      </trkpt>
      <trkpt lat="43.77333" lon="7.0389">
        <ele>1086</ele>
        <time>2018-05-03T11:36:52.000Z</time>
      </trkpt>
      <trkpt lat="43.77333" lon="7.03892">
        <ele>1097</ele>
        <time>2018-05-03T11:36:55.000Z</time>
      </trkpt>
      <trkpt lat="43.77334" lon="7.03897">
        <ele>1086</ele>
        <time>2018-05-03T11:36:58.000Z</time>
      </trkpt>
      <trkpt lat="43.77334" lon="7.03897">
        <ele>1086</ele>
        <time>2018-05-03T11:37:02.000Z</time>
      </trkpt>
      <trkpt lat="43.77334" lon="7.03903">
        <ele>1086</ele>
        <time>2018-05-03T11:37:09.000Z</time>
      </trkpt>
      <trkpt lat="43.77334" lon="7.03912">
        <ele>1086</ele>
        <time>2018-05-03T11:37:14.000Z</time>
      </trkpt>
      <trkpt lat="43.77334" lon="7.03915">
        <ele>1086</ele>
        <time>2018-05-03T11:37:15.000Z</time>
      </trkpt>
      <trkpt lat="43.77333" lon="7.03929">
        <ele>1091</ele>
        <time>2018-05-03T11:37:20.000Z</time>
      </trkpt>
      <trkpt lat="43.77332" lon="7.03934">
        <ele>1092</ele>
        <time>2018-05-03T11:37:25.000Z</time>
      </trkpt>
      <trkpt lat="43.77331" lon="7.03936">
        <ele>1093</ele>
        <time>2018-05-03T11:37:31.000Z</time>
      </trkpt>
      <trkpt lat="43.7733" lon="7.03942">
        <ele>1093</ele>
        <time>2018-05-03T11:37:39.000Z</time>
      </trkpt>
      <trkpt lat="43.77332" lon="7.03945">
        <ele>1093</ele>
        <time>2018-05-03T11:37:46.000Z</time>
      </trkpt>
      <trkpt lat="43.77332" lon="7.03945">
        <ele>1093</ele>
        <time>2018-05-03T11:37:47.000Z</time>
      </trkpt>
      <trkpt lat="43.77332" lon="7.03947">
        <ele>1093</ele>
        <time>2018-05-03T11:37:49.000Z</time>
      </trkpt>
      <trkpt lat="43.77332" lon="7.03952">
        <ele>1094</ele>
        <time>2018-05-03T11:37:53.000Z</time>
      </trkpt>
      <trkpt lat="43.77332" lon="7.03954">
        <ele>1094</ele>
        <time>2018-05-03T11:37:56.000Z</time>
      </trkpt>
      <trkpt lat="43.77332" lon="7.03955">
        <ele>1094</ele>
        <time>2018-05-03T11:37:57.000Z</time>
      </trkpt>
      <trkpt lat="43.77333" lon="7.03964">
        <ele>1093</ele>
        <time>2018-05-03T11:38:04.000Z</time>
      </trkpt>
      <trkpt lat="43.77333" lon="7.03965">
        <ele>1093</ele>
        <time>2018-05-03T11:38:06.000Z</time>
      </trkpt>
      <trkpt lat="43.77332" lon="7.03974">
        <ele>1091</ele>
        <time>2018-05-03T11:38:11.000Z</time>
      </trkpt>
      <trkpt lat="43.77331" lon="7.03991">
        <ele>1086</ele>
        <time>2018-05-03T11:38:18.000Z</time>
      </trkpt>
      <trkpt lat="43.77331" lon="7.04004">
        <ele>1082</ele>
        <time>2018-05-03T11:38:21.000Z</time>
      </trkpt>
      <trkpt lat="43.7733" lon="7.04008">
        <ele>1083</ele>
        <time>2018-05-03T11:38:22.000Z</time>
      </trkpt>
      <trkpt lat="43.7733" lon="7.04012">
        <ele>1084</ele>
        <time>2018-05-03T11:38:25.000Z</time>
      </trkpt>
      <trkpt lat="43.7733" lon="7.04013">
        <ele>1085</ele>
        <time>2018-05-03T11:38:26.000Z</time>
      </trkpt>
      <trkpt lat="43.7733" lon="7.04016">
        <ele>1085</ele>
        <time>2018-05-03T11:38:35.000Z</time>
      </trkpt>
      <trkpt lat="43.7733" lon="7.04018">
        <ele>1086</ele>
        <time>2018-05-03T11:38:36.000Z</time>
      </trkpt>
      <trkpt lat="43.77333" lon="7.04033">
        <ele>1087</ele>
        <time>2018-05-03T11:38:41.000Z</time>
      </trkpt>
      <trkpt lat="43.77333" lon="7.04037">
        <ele>1087</ele>
        <time>2018-05-03T11:38:42.000Z</time>
      </trkpt>
      <trkpt lat="43.7733" lon="7.04041">
        <ele>1087</ele>
        <time>2018-05-03T11:38:44.000Z</time>
      </trkpt>
      <trkpt lat="43.7733" lon="7.04042">
        <ele>1087</ele>
        <time>2018-05-03T11:38:45.000Z</time>
      </trkpt>
      <trkpt lat="43.77329" lon="7.04043">
        <ele>1087</ele>
        <time>2018-05-03T11:38:46.000Z</time>
      </trkpt>
      <trkpt lat="43.77329" lon="7.04043">
        <ele>1087</ele>
        <time>2018-05-03T11:38:51.000Z</time>
      </trkpt>
      <trkpt lat="43.77326" lon="7.04041">
        <ele>1088</ele>
        <time>2018-05-03T11:38:57.000Z</time>
      </trkpt>
      <trkpt lat="43.77323" lon="7.04038">
        <ele>1088</ele>
        <time>2018-05-03T11:39:04.000Z</time>
      </trkpt>
      <trkpt lat="43.77322" lon="7.04038">
        <ele>1088</ele>
        <time>2018-05-03T11:39:05.000Z</time>
      </trkpt>
      <trkpt lat="43.7732" lon="7.04036">
        <ele>1089</ele>
        <time>2018-05-03T11:39:11.000Z</time>
      </trkpt>
      <trkpt lat="43.7732" lon="7.04035">
        <ele>1089</ele>
        <time>2018-05-03T11:39:12.000Z</time>
      </trkpt>
      <trkpt lat="43.77319" lon="7.04034">
        <ele>1089</ele>
        <time>2018-05-03T11:39:16.000Z</time>
      </trkpt>
      <trkpt lat="43.77318" lon="7.04033">
        <ele>1089</ele>
        <time>2018-05-03T11:39:19.000Z</time>
      </trkpt>
      <trkpt lat="43.77316" lon="7.04032">
        <ele>1089</ele>
        <time>2018-05-03T11:39:22.000Z</time>
      </trkpt>
      <trkpt lat="43.77315" lon="7.04031">
        <ele>1089</ele>
        <time>2018-05-03T11:39:26.000Z</time>
      </trkpt>
      <trkpt lat="43.77315" lon="7.04031">
        <ele>1089</ele>
        <time>2018-05-03T11:39:27.000Z</time>
      </trkpt>
      <trkpt lat="43.77312" lon="7.0403">
        <ele>1090</ele>
        <time>2018-05-03T11:39:32.000Z</time>
      </trkpt>
      <trkpt lat="43.77311" lon="7.04031">
        <ele>1090</ele>
        <time>2018-05-03T11:39:34.000Z</time>
      </trkpt>
      <trkpt lat="43.7731" lon="7.04033">
        <ele>1090</ele>
        <time>2018-05-03T11:39:39.000Z</time>
      </trkpt>
      <trkpt lat="43.7731" lon="7.04033">
        <ele>1090</ele>
        <time>2018-05-03T11:39:41.000Z</time>
      </trkpt>
      <trkpt lat="43.77309" lon="7.04034">
        <ele>1090</ele>
        <time>2018-05-03T11:39:50.000Z</time>
      </trkpt>
      <trkpt lat="43.77309" lon="7.04041">
        <ele>1090</ele>
        <time>2018-05-03T11:40:01.000Z</time>
      </trkpt>
      <trkpt lat="43.77308" lon="7.04063">
        <ele>1089</ele>
        <time>2018-05-03T11:40:06.000Z</time>
      </trkpt>
      <trkpt lat="43.77306" lon="7.04076">
        <ele>1088</ele>
        <time>2018-05-03T11:40:08.000Z</time>
      </trkpt>
      <trkpt lat="43.77305" lon="7.041">
        <ele>1086</ele>
        <time>2018-05-03T11:40:11.000Z</time>
      </trkpt>
      <trkpt lat="43.77304" lon="7.04129">
        <ele>1086</ele>
        <time>2018-05-03T11:40:14.000Z</time>
      </trkpt>
      <trkpt lat="43.77303" lon="7.04149">
        <ele>1086</ele>
        <time>2018-05-03T11:40:16.000Z</time>
      </trkpt>
      <trkpt lat="43.77303" lon="7.0416">
        <ele>1085</ele>
        <time>2018-05-03T11:40:17.000Z</time>
      </trkpt>
      <trkpt lat="43.77303" lon="7.04169">
        <ele>1083</ele>
        <time>2018-05-03T11:40:18.000Z</time>
      </trkpt>
      <trkpt lat="43.77303" lon="7.04187">
        <ele>1084</ele>
        <time>2018-05-03T11:40:20.000Z</time>
      </trkpt>
      <trkpt lat="43.77304" lon="7.042">
        <ele>1084</ele>
        <time>2018-05-03T11:40:22.000Z</time>
      </trkpt>
      <trkpt lat="43.77308" lon="7.04211">
        <ele>1083</ele>
        <time>2018-05-03T11:40:24.000Z</time>
      </trkpt>
      <trkpt lat="43.77309" lon="7.0422">
        <ele>1083</ele>
        <time>2018-05-03T11:40:26.000Z</time>
      </trkpt>
      <trkpt lat="43.7731" lon="7.04223">
        <ele>1083</ele>
        <time>2018-05-03T11:40:27.000Z</time>
      </trkpt>
      <trkpt lat="43.77312" lon="7.04225">
        <ele>1083</ele>
        <time>2018-05-03T11:40:28.000Z</time>
      </trkpt>
      <trkpt lat="43.77315" lon="7.0423">
        <ele>1083</ele>
        <time>2018-05-03T11:40:30.000Z</time>
      </trkpt>
      <trkpt lat="43.77313" lon="7.04236">
        <ele>1083</ele>
        <time>2018-05-03T11:40:33.000Z</time>
      </trkpt>
      <trkpt lat="43.77311" lon="7.04239">
        <ele>1083</ele>
        <time>2018-05-03T11:40:34.000Z</time>
      </trkpt>
      <trkpt lat="43.77304" lon="7.04251">
        <ele>1081</ele>
        <time>2018-05-03T11:40:37.000Z</time>
      </trkpt>
      <trkpt lat="43.77301" lon="7.04261">
        <ele>1081</ele>
        <time>2018-05-03T11:40:39.000Z</time>
      </trkpt>
      <trkpt lat="43.77296" lon="7.04278">
        <ele>1081</ele>
        <time>2018-05-03T11:40:42.000Z</time>
      </trkpt>
      <trkpt lat="43.77287" lon="7.04302">
        <ele>1081</ele>
        <time>2018-05-03T11:40:46.000Z</time>
      </trkpt>
      <trkpt lat="43.77282" lon="7.04314">
        <ele>1080</ele>
        <time>2018-05-03T11:40:48.000Z</time>
      </trkpt>
      <trkpt lat="43.77277" lon="7.04328">
        <ele>1080</ele>
        <time>2018-05-03T11:40:50.000Z</time>
      </trkpt>
      <trkpt lat="43.77268" lon="7.04348">
        <ele>1079</ele>
        <time>2018-05-03T11:40:53.000Z</time>
      </trkpt>
      <trkpt lat="43.77264" lon="7.04364">
        <ele>1079</ele>
        <time>2018-05-03T11:40:55.000Z</time>
      </trkpt>
      <trkpt lat="43.77262" lon="7.04372">
        <ele>1079</ele>
        <time>2018-05-03T11:40:56.000Z</time>
      </trkpt>
      <trkpt lat="43.77261" lon="7.0438">
        <ele>1079</ele>
        <time>2018-05-03T11:40:57.000Z</time>
      </trkpt>
      <trkpt lat="43.77261" lon="7.04394">
        <ele>1078</ele>
        <time>2018-05-03T11:40:59.000Z</time>
      </trkpt>
      <trkpt lat="43.77261" lon="7.04406">
        <ele>1077</ele>
        <time>2018-05-03T11:41:01.000Z</time>
      </trkpt>
      <trkpt lat="43.77259" lon="7.04412">
        <ele>1076</ele>
        <time>2018-05-03T11:41:02.000Z</time>
      </trkpt>
      <trkpt lat="43.77256" lon="7.04421">
        <ele>1077</ele>
        <time>2018-05-03T11:41:04.000Z</time>
      </trkpt>
      <trkpt lat="43.77253" lon="7.04429">
        <ele>1078</ele>
        <time>2018-05-03T11:41:06.000Z</time>
      </trkpt>
      <trkpt lat="43.77244" lon="7.04447">
        <ele>1077</ele>
        <time>2018-05-03T11:41:11.000Z</time>
      </trkpt>
      <trkpt lat="43.7724" lon="7.04457">
        <ele>1078</ele>
        <time>2018-05-03T11:41:15.000Z</time>
      </trkpt>
      <trkpt lat="43.77234" lon="7.04469">
        <ele>1078</ele>
        <time>2018-05-03T11:41:20.000Z</time>
      </trkpt>
      <trkpt lat="43.77233" lon="7.04477">
        <ele>1079</ele>
        <time>2018-05-03T11:41:22.000Z</time>
      </trkpt>
      <trkpt lat="43.77229" lon="7.0449">
        <ele>1079</ele>
        <time>2018-05-03T11:41:26.000Z</time>
      </trkpt>
      <trkpt lat="43.77222" lon="7.04511">
        <ele>1081</ele>
        <time>2018-05-03T11:41:32.000Z</time>
      </trkpt>
      <trkpt lat="43.77219" lon="7.04532">
        <ele>1082</ele>
        <time>2018-05-03T11:41:38.000Z</time>
      </trkpt>
      <trkpt lat="43.77218" lon="7.0456">
        <ele>1083</ele>
        <time>2018-05-03T11:41:45.000Z</time>
      </trkpt>
      <trkpt lat="43.77217" lon="7.04583">
        <ele>1083</ele>
        <time>2018-05-03T11:41:50.000Z</time>
      </trkpt>
      <trkpt lat="43.77216" lon="7.04618">
        <ele>1084</ele>
        <time>2018-05-03T11:41:58.000Z</time>
      </trkpt>
      <trkpt lat="43.77216" lon="7.04648">
        <ele>1083</ele>
        <time>2018-05-03T11:42:05.000Z</time>
      </trkpt>
      <trkpt lat="43.77218" lon="7.04676">
        <ele>1081</ele>
        <time>2018-05-03T11:42:11.000Z</time>
      </trkpt>
      <trkpt lat="43.77214" lon="7.04697">
        <ele>1081</ele>
        <time>2018-05-03T11:42:16.000Z</time>
      </trkpt>
      <trkpt lat="43.77215" lon="7.04709">
        <ele>1081</ele>
        <time>2018-05-03T11:42:20.000Z</time>
      </trkpt>
      <trkpt lat="43.77217" lon="7.04713">
        <ele>1081</ele>
        <time>2018-05-03T11:42:21.000Z</time>
      </trkpt>
      <trkpt lat="43.77221" lon="7.04722">
        <ele>1080</ele>
        <time>2018-05-03T11:42:23.000Z</time>
      </trkpt>
      <trkpt lat="43.77222" lon="7.04729">
        <ele>1079</ele>
        <time>2018-05-03T11:42:24.000Z</time>
      </trkpt>
      <trkpt lat="43.77223" lon="7.04736">
        <ele>1079</ele>
        <time>2018-05-03T11:42:25.000Z</time>
      </trkpt>
      <trkpt lat="43.77224" lon="7.04743">
        <ele>1078</ele>
        <time>2018-05-03T11:42:26.000Z</time>
      </trkpt>
      <trkpt lat="43.77228" lon="7.04758">
        <ele>1074</ele>
        <time>2018-05-03T11:42:28.000Z</time>
      </trkpt>
      <trkpt lat="43.77229" lon="7.04768">
        <ele>1074</ele>
        <time>2018-05-03T11:42:29.000Z</time>
      </trkpt>
      <trkpt lat="43.77229" lon="7.04776">
        <ele>1074</ele>
        <time>2018-05-03T11:42:30.000Z</time>
      </trkpt>
      <trkpt lat="43.7723" lon="7.04783">
        <ele>1074</ele>
        <time>2018-05-03T11:42:31.000Z</time>
      </trkpt>
      <trkpt lat="43.7723" lon="7.04789">
        <ele>1074</ele>
        <time>2018-05-03T11:42:32.000Z</time>
      </trkpt>
      <trkpt lat="43.77232" lon="7.04796">
        <ele>1073</ele>
        <time>2018-05-03T11:42:33.000Z</time>
      </trkpt>
      <trkpt lat="43.77235" lon="7.04808">
        <ele>1072</ele>
        <time>2018-05-03T11:42:35.000Z</time>
      </trkpt>
      <trkpt lat="43.77243" lon="7.0482">
        <ele>1068</ele>
        <time>2018-05-03T11:42:38.000Z</time>
      </trkpt>
      <trkpt lat="43.77244" lon="7.04826">
        <ele>1066</ele>
        <time>2018-05-03T11:42:39.000Z</time>
      </trkpt>
      <trkpt lat="43.77246" lon="7.04838">
        <ele>1063</ele>
        <time>2018-05-03T11:42:41.000Z</time>
      </trkpt>
      <trkpt lat="43.77249" lon="7.0485">
        <ele>1066</ele>
        <time>2018-05-03T11:42:43.000Z</time>
      </trkpt>
      <trkpt lat="43.7725" lon="7.04856">
        <ele>1059</ele>
        <time>2018-05-03T11:42:44.000Z</time>
      </trkpt>
      <trkpt lat="43.77253" lon="7.04862">
        <ele>1059</ele>
        <time>2018-05-03T11:42:45.000Z</time>
      </trkpt>
      <trkpt lat="43.77257" lon="7.04872">
        <ele>1058</ele>
        <time>2018-05-03T11:42:47.000Z</time>
      </trkpt>
      <trkpt lat="43.7726" lon="7.04882">
        <ele>1058</ele>
        <time>2018-05-03T11:42:49.000Z</time>
      </trkpt>
      <trkpt lat="43.77265" lon="7.04894">
        <ele>1057</ele>
        <time>2018-05-03T11:42:51.000Z</time>
      </trkpt>
      <trkpt lat="43.77269" lon="7.04909">
        <ele>1057</ele>
        <time>2018-05-03T11:42:53.000Z</time>
      </trkpt>
      <trkpt lat="43.77274" lon="7.04927">
        <ele>1052</ele>
        <time>2018-05-03T11:42:55.000Z</time>
      </trkpt>
      <trkpt lat="43.77273" lon="7.04933">
        <ele>1051</ele>
        <time>2018-05-03T11:42:56.000Z</time>
      </trkpt>
      <trkpt lat="43.77273" lon="7.04938">
        <ele>1051</ele>
        <time>2018-05-03T11:42:57.000Z</time>
      </trkpt>
      <trkpt lat="43.77273" lon="7.04941">
        <ele>1051</ele>
        <time>2018-05-03T11:42:58.000Z</time>
      </trkpt>
      <trkpt lat="43.77277" lon="7.04949">
        <ele>1051</ele>
        <time>2018-05-03T11:43:00.000Z</time>
      </trkpt>
      <trkpt lat="43.77286" lon="7.0496">
        <ele>1050</ele>
        <time>2018-05-03T11:43:02.000Z</time>
      </trkpt>
      <trkpt lat="43.77289" lon="7.04966">
        <ele>1049</ele>
        <time>2018-05-03T11:43:03.000Z</time>
      </trkpt>
      <trkpt lat="43.77292" lon="7.04978">
        <ele>1049</ele>
        <time>2018-05-03T11:43:05.000Z</time>
      </trkpt>
      <trkpt lat="43.77291" lon="7.04983">
        <ele>1048</ele>
        <time>2018-05-03T11:43:06.000Z</time>
      </trkpt>
      <trkpt lat="43.77292" lon="7.04986">
        <ele>1048</ele>
        <time>2018-05-03T11:43:07.000Z</time>
      </trkpt>
      <trkpt lat="43.77298" lon="7.04997">
        <ele>1047</ele>
        <time>2018-05-03T11:43:09.000Z</time>
      </trkpt>
      <trkpt lat="43.77303" lon="7.0502">
        <ele>1043</ele>
        <time>2018-05-03T11:43:12.000Z</time>
      </trkpt>
      <trkpt lat="43.77304" lon="7.05027">
        <ele>1043</ele>
        <time>2018-05-03T11:43:13.000Z</time>
      </trkpt>
      <trkpt lat="43.77306" lon="7.05034">
        <ele>1042</ele>
        <time>2018-05-03T11:43:14.000Z</time>
      </trkpt>
      <trkpt lat="43.7731" lon="7.0505">
        <ele>1041</ele>
        <time>2018-05-03T11:43:16.000Z</time>
      </trkpt>
      <trkpt lat="43.77312" lon="7.05058">
        <ele>1041</ele>
        <time>2018-05-03T11:43:17.000Z</time>
      </trkpt>
      <trkpt lat="43.77313" lon="7.05074">
        <ele>1039</ele>
        <time>2018-05-03T11:43:19.000Z</time>
      </trkpt>
      <trkpt lat="43.77314" lon="7.05081">
        <ele>1039</ele>
        <time>2018-05-03T11:43:20.000Z</time>
      </trkpt>
      <trkpt lat="43.77316" lon="7.05088">
        <ele>1037</ele>
        <time>2018-05-03T11:43:21.000Z</time>
      </trkpt>
      <trkpt lat="43.77318" lon="7.05093">
        <ele>1037</ele>
        <time>2018-05-03T11:43:22.000Z</time>
      </trkpt>
      <trkpt lat="43.77321" lon="7.05115">
        <ele>1037</ele>
        <time>2018-05-03T11:43:25.000Z</time>
      </trkpt>
      <trkpt lat="43.77321" lon="7.05122">
        <ele>1037</ele>
        <time>2018-05-03T11:43:26.000Z</time>
      </trkpt>
      <trkpt lat="43.77321" lon="7.0513">
        <ele>1037</ele>
        <time>2018-05-03T11:43:27.000Z</time>
      </trkpt>
      <trkpt lat="43.77321" lon="7.05137">
        <ele>1037</ele>
        <time>2018-05-03T11:43:28.000Z</time>
      </trkpt>
      <trkpt lat="43.77323" lon="7.05158">
        <ele>1034</ele>
        <time>2018-05-03T11:43:31.000Z</time>
      </trkpt>
      <trkpt lat="43.77323" lon="7.05164">
        <ele>1033</ele>
        <time>2018-05-03T11:43:32.000Z</time>
      </trkpt>
      <trkpt lat="43.77324" lon="7.05176">
        <ele>1033</ele>
        <time>2018-05-03T11:43:34.000Z</time>
      </trkpt>
      <trkpt lat="43.77323" lon="7.0519">
        <ele>1035</ele>
        <time>2018-05-03T11:43:37.000Z</time>
      </trkpt>
      <trkpt lat="43.77318" lon="7.05208">
        <ele>1035</ele>
        <time>2018-05-03T11:43:40.000Z</time>
      </trkpt>
      <trkpt lat="43.77316" lon="7.05215">
        <ele>1035</ele>
        <time>2018-05-03T11:43:41.000Z</time>
      </trkpt>
      <trkpt lat="43.77313" lon="7.0523">
        <ele>1035</ele>
        <time>2018-05-03T11:43:43.000Z</time>
      </trkpt>
      <trkpt lat="43.77312" lon="7.05238">
        <ele>1034</ele>
        <time>2018-05-03T11:43:44.000Z</time>
      </trkpt>
      <trkpt lat="43.77312" lon="7.05253">
        <ele>1032</ele>
        <time>2018-05-03T11:43:46.000Z</time>
      </trkpt>
      <trkpt lat="43.77313" lon="7.05267">
        <ele>1032</ele>
        <time>2018-05-03T11:43:48.000Z</time>
      </trkpt>
      <trkpt lat="43.77313" lon="7.05278">
        <ele>1032</ele>
        <time>2018-05-03T11:43:50.000Z</time>
      </trkpt>
      <trkpt lat="43.7731" lon="7.05308">
        <ele>1031</ele>
        <time>2018-05-03T11:43:55.000Z</time>
      </trkpt>
      <trkpt lat="43.77308" lon="7.05316">
        <ele>1031</ele>
        <time>2018-05-03T11:43:56.000Z</time>
      </trkpt>
      <trkpt lat="43.77305" lon="7.05323">
        <ele>1031</ele>
        <time>2018-05-03T11:43:57.000Z</time>
      </trkpt>
      <trkpt lat="43.77303" lon="7.05339">
        <ele>1027</ele>
        <time>2018-05-03T11:43:59.000Z</time>
      </trkpt>
      <trkpt lat="43.77302" lon="7.05347">
        <ele>1027</ele>
        <time>2018-05-03T11:44:00.000Z</time>
      </trkpt>
      <trkpt lat="43.773" lon="7.05361">
        <ele>1027</ele>
        <time>2018-05-03T11:44:02.000Z</time>
      </trkpt>
      <trkpt lat="43.77297" lon="7.05375">
        <ele>1027</ele>
        <time>2018-05-03T11:44:04.000Z</time>
      </trkpt>
      <trkpt lat="43.77294" lon="7.05396">
        <ele>1026</ele>
        <time>2018-05-03T11:44:07.000Z</time>
      </trkpt>
      <trkpt lat="43.77293" lon="7.05403">
        <ele>1026</ele>
        <time>2018-05-03T11:44:08.000Z</time>
      </trkpt>
      <trkpt lat="43.77292" lon="7.0541">
        <ele>1026</ele>
        <time>2018-05-03T11:44:09.000Z</time>
      </trkpt>
      <trkpt lat="43.77293" lon="7.05416">
        <ele>1026</ele>
        <time>2018-05-03T11:44:10.000Z</time>
      </trkpt>
      <trkpt lat="43.77294" lon="7.0542">
        <ele>1023</ele>
        <time>2018-05-03T11:44:11.000Z</time>
      </trkpt>
      <trkpt lat="43.77298" lon="7.05429">
        <ele>1023</ele>
        <time>2018-05-03T11:44:13.000Z</time>
      </trkpt>
      <trkpt lat="43.77303" lon="7.05436">
        <ele>1023</ele>
        <time>2018-05-03T11:44:15.000Z</time>
      </trkpt>
      <trkpt lat="43.77304" lon="7.05453">
        <ele>1023</ele>
        <time>2018-05-03T11:44:19.000Z</time>
      </trkpt>
      <trkpt lat="43.773" lon="7.0546">
        <ele>1022</ele>
        <time>2018-05-03T11:44:22.000Z</time>
      </trkpt>
      <trkpt lat="43.77296" lon="7.05461">
        <ele>1022</ele>
        <time>2018-05-03T11:44:24.000Z</time>
      </trkpt>
      <trkpt lat="43.77291" lon="7.0546">
        <ele>1022</ele>
        <time>2018-05-03T11:44:25.000Z</time>
      </trkpt>
      <trkpt lat="43.77284" lon="7.05458">
        <ele>1022</ele>
        <time>2018-05-03T11:44:27.000Z</time>
      </trkpt>
      <trkpt lat="43.77273" lon="7.05457">
        <ele>1021</ele>
        <time>2018-05-03T11:44:30.000Z</time>
      </trkpt>
      <trkpt lat="43.77268" lon="7.05465">
        <ele>1020</ele>
        <time>2018-05-03T11:44:34.000Z</time>
      </trkpt>
      <trkpt lat="43.77279" lon="7.05477">
        <ele>1020</ele>
        <time>2018-05-03T11:44:37.000Z</time>
      </trkpt>
      <trkpt lat="43.77282" lon="7.05481">
        <ele>1020</ele>
        <time>2018-05-03T11:44:38.000Z</time>
      </trkpt>
      <trkpt lat="43.77286" lon="7.05485">
        <ele>1021</ele>
        <time>2018-05-03T11:44:39.000Z</time>
      </trkpt>
      <trkpt lat="43.7729" lon="7.055">
        <ele>1021</ele>
        <time>2018-05-03T11:44:42.000Z</time>
      </trkpt>
      <trkpt lat="43.77285" lon="7.0551">
        <ele>1017</ele>
        <time>2018-05-03T11:44:45.000Z</time>
      </trkpt>
      <trkpt lat="43.77273" lon="7.05514">
        <ele>1016</ele>
        <time>2018-05-03T11:44:48.000Z</time>
      </trkpt>
      <trkpt lat="43.7727" lon="7.05524">
        <ele>1015</ele>
        <time>2018-05-03T11:44:50.000Z</time>
      </trkpt>
      <trkpt lat="43.77267" lon="7.05529">
        <ele>1015</ele>
        <time>2018-05-03T11:44:51.000Z</time>
      </trkpt>
      <trkpt lat="43.77258" lon="7.05535">
        <ele>1014</ele>
        <time>2018-05-03T11:44:53.000Z</time>
      </trkpt>
      <trkpt lat="43.77254" lon="7.0554">
        <ele>1014</ele>
        <time>2018-05-03T11:44:54.000Z</time>
      </trkpt>
      <trkpt lat="43.77252" lon="7.05546">
        <ele>1013</ele>
        <time>2018-05-03T11:44:55.000Z</time>
      </trkpt>
      <trkpt lat="43.77248" lon="7.05558">
        <ele>1015</ele>
        <time>2018-05-03T11:44:57.000Z</time>
      </trkpt>
      <trkpt lat="43.77246" lon="7.05564">
        <ele>1014</ele>
        <time>2018-05-03T11:44:58.000Z</time>
      </trkpt>
      <trkpt lat="43.77246" lon="7.05579">
        <ele>1008</ele>
        <time>2018-05-03T11:45:01.000Z</time>
      </trkpt>
      <trkpt lat="43.77248" lon="7.05586">
        <ele>1005</ele>
        <time>2018-05-03T11:45:03.000Z</time>
      </trkpt>
      <trkpt lat="43.77249" lon="7.05589">
        <ele>1006</ele>
        <time>2018-05-03T11:45:04.000Z</time>
      </trkpt>
      <trkpt lat="43.77249" lon="7.05592">
        <ele>1007</ele>
        <time>2018-05-03T11:45:05.000Z</time>
      </trkpt>
      <trkpt lat="43.77246" lon="7.05599">
        <ele>1008</ele>
        <time>2018-05-03T11:45:07.000Z</time>
      </trkpt>
      <trkpt lat="43.7724" lon="7.056">
        <ele>1009</ele>
        <time>2018-05-03T11:45:09.000Z</time>
      </trkpt>
      <trkpt lat="43.77235" lon="7.056">
        <ele>1010</ele>
        <time>2018-05-03T11:45:11.000Z</time>
      </trkpt>
      <trkpt lat="43.77232" lon="7.05601">
        <ele>1010</ele>
        <time>2018-05-03T11:45:12.000Z</time>
      </trkpt>
      <trkpt lat="43.77225" lon="7.05601">
        <ele>1011</ele>
        <time>2018-05-03T11:45:14.000Z</time>
      </trkpt>
      <trkpt lat="43.77222" lon="7.05604">
        <ele>1012</ele>
        <time>2018-05-03T11:45:15.000Z</time>
      </trkpt>
      <trkpt lat="43.77219" lon="7.05614">
        <ele>1012</ele>
        <time>2018-05-03T11:45:17.000Z</time>
      </trkpt>
      <trkpt lat="43.77215" lon="7.05623">
        <ele>1012</ele>
        <time>2018-05-03T11:45:19.000Z</time>
      </trkpt>
      <trkpt lat="43.77213" lon="7.05636">
        <ele>1012</ele>
        <time>2018-05-03T11:45:21.000Z</time>
      </trkpt>
      <trkpt lat="43.77211" lon="7.05649">
        <ele>1012</ele>
        <time>2018-05-03T11:45:24.000Z</time>
      </trkpt>
      <trkpt lat="43.77208" lon="7.0566">
        <ele>1012</ele>
        <time>2018-05-03T11:45:26.000Z</time>
      </trkpt>
      <trkpt lat="43.77207" lon="7.05668">
        <ele>1009</ele>
        <time>2018-05-03T11:45:27.000Z</time>
      </trkpt>
      <trkpt lat="43.77204" lon="7.05675">
        <ele>1009</ele>
        <time>2018-05-03T11:45:28.000Z</time>
      </trkpt>
      <trkpt lat="43.772" lon="7.0568">
        <ele>1009</ele>
        <time>2018-05-03T11:45:29.000Z</time>
      </trkpt>
      <trkpt lat="43.77197" lon="7.05684">
        <ele>1009</ele>
        <time>2018-05-03T11:45:30.000Z</time>
      </trkpt>
      <trkpt lat="43.77198" lon="7.05691">
        <ele>1008</ele>
        <time>2018-05-03T11:45:31.000Z</time>
      </trkpt>
      <trkpt lat="43.77198" lon="7.05699">
        <ele>1008</ele>
        <time>2018-05-03T11:45:32.000Z</time>
      </trkpt>
      <trkpt lat="43.77198" lon="7.05707">
        <ele>1008</ele>
        <time>2018-05-03T11:45:33.000Z</time>
      </trkpt>
      <trkpt lat="43.77195" lon="7.05721">
        <ele>1007</ele>
        <time>2018-05-03T11:45:35.000Z</time>
      </trkpt>
      <trkpt lat="43.77193" lon="7.05727">
        <ele>1007</ele>
        <time>2018-05-03T11:45:36.000Z</time>
      </trkpt>
      <trkpt lat="43.7719" lon="7.05732">
        <ele>1006</ele>
        <time>2018-05-03T11:45:37.000Z</time>
      </trkpt>
      <trkpt lat="43.77181" lon="7.05743">
        <ele>1005</ele>
        <time>2018-05-03T11:45:40.000Z</time>
      </trkpt>
      <trkpt lat="43.77178" lon="7.05746">
        <ele>1004</ele>
        <time>2018-05-03T11:45:41.000Z</time>
      </trkpt>
      <trkpt lat="43.77175" lon="7.05754">
        <ele>1003</ele>
        <time>2018-05-03T11:45:43.000Z</time>
      </trkpt>
      <trkpt lat="43.77177" lon="7.05757">
        <ele>1003</ele>
        <time>2018-05-03T11:45:44.000Z</time>
      </trkpt>
      <trkpt lat="43.77178" lon="7.05768">
        <ele>1004</ele>
        <time>2018-05-03T11:45:46.000Z</time>
      </trkpt>
      <trkpt lat="43.77181" lon="7.05778">
        <ele>1005</ele>
        <time>2018-05-03T11:45:48.000Z</time>
      </trkpt>
      <trkpt lat="43.77185" lon="7.05791">
        <ele>1005</ele>
        <time>2018-05-03T11:45:50.000Z</time>
      </trkpt>
      <trkpt lat="43.77189" lon="7.05806">
        <ele>1005</ele>
        <time>2018-05-03T11:45:53.000Z</time>
      </trkpt>
      <trkpt lat="43.77189" lon="7.05812">
        <ele>1004</ele>
        <time>2018-05-03T11:45:55.000Z</time>
      </trkpt>
      <trkpt lat="43.77187" lon="7.05813">
        <ele>1004</ele>
        <time>2018-05-03T11:45:56.000Z</time>
      </trkpt>
      <trkpt lat="43.77181" lon="7.05826">
        <ele>1002</ele>
        <time>2018-05-03T11:45:59.000Z</time>
      </trkpt>
      <trkpt lat="43.77178" lon="7.05831">
        <ele>1000</ele>
        <time>2018-05-03T11:46:00.000Z</time>
      </trkpt>
      <trkpt lat="43.77174" lon="7.05846">
        <ele>1001</ele>
        <time>2018-05-03T11:46:03.000Z</time>
      </trkpt>
      <trkpt lat="43.77173" lon="7.05853">
        <ele>1002</ele>
        <time>2018-05-03T11:46:04.000Z</time>
      </trkpt>
      <trkpt lat="43.77166" lon="7.05863">
        <ele>1002</ele>
        <time>2018-05-03T11:46:06.000Z</time>
      </trkpt>
      <trkpt lat="43.77161" lon="7.05875">
        <ele>1002</ele>
        <time>2018-05-03T11:46:08.000Z</time>
      </trkpt>
      <trkpt lat="43.77161" lon="7.05888">
        <ele>1001</ele>
        <time>2018-05-03T11:46:10.000Z</time>
      </trkpt>
      <trkpt lat="43.7716" lon="7.05901">
        <ele>1000</ele>
        <time>2018-05-03T11:46:12.000Z</time>
      </trkpt>
      <trkpt lat="43.77158" lon="7.05908">
        <ele>998</ele>
        <time>2018-05-03T11:46:13.000Z</time>
      </trkpt>
      <trkpt lat="43.77157" lon="7.05915">
        <ele>998</ele>
        <time>2018-05-03T11:46:14.000Z</time>
      </trkpt>
      <trkpt lat="43.77157" lon="7.05927">
        <ele>997</ele>
        <time>2018-05-03T11:46:16.000Z</time>
      </trkpt>
      <trkpt lat="43.77156" lon="7.05932">
        <ele>998</ele>
        <time>2018-05-03T11:46:17.000Z</time>
      </trkpt>
      <trkpt lat="43.77157" lon="7.05953">
        <ele>999</ele>
        <time>2018-05-03T11:46:20.000Z</time>
      </trkpt>
      <trkpt lat="43.77156" lon="7.0596">
        <ele>1000</ele>
        <time>2018-05-03T11:46:21.000Z</time>
      </trkpt>
      <trkpt lat="43.77154" lon="7.05975">
        <ele>1000</ele>
        <time>2018-05-03T11:46:24.000Z</time>
      </trkpt>
      <trkpt lat="43.77146" lon="7.05998">
        <ele>999</ele>
        <time>2018-05-03T11:46:28.000Z</time>
      </trkpt>
      <trkpt lat="43.77146" lon="7.06005">
        <ele>997</ele>
        <time>2018-05-03T11:46:29.000Z</time>
      </trkpt>
      <trkpt lat="43.77144" lon="7.06015">
        <ele>996</ele>
        <time>2018-05-03T11:46:31.000Z</time>
      </trkpt>
      <trkpt lat="43.77139" lon="7.06019">
        <ele>996</ele>
        <time>2018-05-03T11:46:33.000Z</time>
      </trkpt>
      <trkpt lat="43.77137" lon="7.06021">
        <ele>996</ele>
        <time>2018-05-03T11:46:34.000Z</time>
      </trkpt>
      <trkpt lat="43.77136" lon="7.06023">
        <ele>996</ele>
        <time>2018-05-03T11:46:35.000Z</time>
      </trkpt>
      <trkpt lat="43.77136" lon="7.06026">
        <ele>996</ele>
        <time>2018-05-03T11:46:36.000Z</time>
      </trkpt>
      <trkpt lat="43.77134" lon="7.06034">
        <ele>996</ele>
        <time>2018-05-03T11:46:38.000Z</time>
      </trkpt>
      <trkpt lat="43.77134" lon="7.06041">
        <ele>996</ele>
        <time>2018-05-03T11:46:39.000Z</time>
      </trkpt>
      <trkpt lat="43.77133" lon="7.06053">
        <ele>995</ele>
        <time>2018-05-03T11:46:41.000Z</time>
      </trkpt>
      <trkpt lat="43.77128" lon="7.06074">
        <ele>994</ele>
        <time>2018-05-03T11:46:45.000Z</time>
      </trkpt>
      <trkpt lat="43.77124" lon="7.06075">
        <ele>994</ele>
        <time>2018-05-03T11:46:46.000Z</time>
      </trkpt>
      <trkpt lat="43.77117" lon="7.06079">
        <ele>993</ele>
        <time>2018-05-03T11:46:48.000Z</time>
      </trkpt>
      <trkpt lat="43.77106" lon="7.06091">
        <ele>988</ele>
        <time>2018-05-03T11:46:52.000Z</time>
      </trkpt>
      <trkpt lat="43.771" lon="7.06096">
        <ele>987</ele>
        <time>2018-05-03T11:46:55.000Z</time>
      </trkpt>
      <trkpt lat="43.77101" lon="7.06096">
        <ele>987</ele>
        <time>2018-05-03T11:46:56.000Z</time>
      </trkpt>
      <trkpt lat="43.77103" lon="7.06099">
        <ele>987</ele>
        <time>2018-05-03T11:47:00.000Z</time>
      </trkpt>
      <trkpt lat="43.77105" lon="7.06098">
        <ele>987</ele>
        <time>2018-05-03T11:47:02.000Z</time>
      </trkpt>
      <trkpt lat="43.77108" lon="7.061">
        <ele>987</ele>
        <time>2018-05-03T11:47:05.000Z</time>
      </trkpt>
      <trkpt lat="43.77109" lon="7.06101">
        <ele>987</ele>
        <time>2018-05-03T11:47:06.000Z</time>
      </trkpt>
      <trkpt lat="43.77113" lon="7.06105">
        <ele>987</ele>
        <time>2018-05-03T11:47:09.000Z</time>
      </trkpt>
      <trkpt lat="43.77114" lon="7.06106">
        <ele>987</ele>
        <time>2018-05-03T11:47:10.000Z</time>
      </trkpt>
      <trkpt lat="43.77116" lon="7.06108">
        <ele>987</ele>
        <time>2018-05-03T11:47:15.000Z</time>
      </trkpt>
      <trkpt lat="43.77118" lon="7.06113">
        <ele>987</ele>
        <time>2018-05-03T11:47:25.000Z</time>
      </trkpt>
      <trkpt lat="43.77121" lon="7.06124">
        <ele>987</ele>
        <time>2018-05-03T11:47:30.000Z</time>
      </trkpt>
      <trkpt lat="43.77119" lon="7.06139">
        <ele>986</ele>
        <time>2018-05-03T11:47:34.000Z</time>
      </trkpt>
      <trkpt lat="43.77118" lon="7.0615">
        <ele>985</ele>
        <time>2018-05-03T11:47:36.000Z</time>
      </trkpt>
      <trkpt lat="43.77117" lon="7.06158">
        <ele>985</ele>
        <time>2018-05-03T11:47:37.000Z</time>
      </trkpt>
      <trkpt lat="43.77117" lon="7.06165">
        <ele>984</ele>
        <time>2018-05-03T11:47:38.000Z</time>
      </trkpt>
      <trkpt lat="43.77116" lon="7.0619">
        <ele>980</ele>
        <time>2018-05-03T11:47:41.000Z</time>
      </trkpt>
      <trkpt lat="43.77116" lon="7.062">
        <ele>980</ele>
        <time>2018-05-03T11:47:42.000Z</time>
      </trkpt>
      <trkpt lat="43.77116" lon="7.06209">
        <ele>979</ele>
        <time>2018-05-03T11:47:43.000Z</time>
      </trkpt>
      <trkpt lat="43.77115" lon="7.0623">
        <ele>978</ele>
        <time>2018-05-03T11:47:45.000Z</time>
      </trkpt>
      <trkpt lat="43.77115" lon="7.06251">
        <ele>974</ele>
        <time>2018-05-03T11:47:47.000Z</time>
      </trkpt>
      <trkpt lat="43.77115" lon="7.06263">
        <ele>974</ele>
        <time>2018-05-03T11:47:48.000Z</time>
      </trkpt>
      <trkpt lat="43.77116" lon="7.06275">
        <ele>974</ele>
        <time>2018-05-03T11:47:49.000Z</time>
      </trkpt>
      <trkpt lat="43.77118" lon="7.06298">
        <ele>973</ele>
        <time>2018-05-03T11:47:51.000Z</time>
      </trkpt>
      <trkpt lat="43.77122" lon="7.0632">
        <ele>973</ele>
        <time>2018-05-03T11:47:53.000Z</time>
      </trkpt>
      <trkpt lat="43.77125" lon="7.06332">
        <ele>973</ele>
        <time>2018-05-03T11:47:54.000Z</time>
      </trkpt>
      <trkpt lat="43.77129" lon="7.06343">
        <ele>969</ele>
        <time>2018-05-03T11:47:55.000Z</time>
      </trkpt>
      <trkpt lat="43.77137" lon="7.06363">
        <ele>968</ele>
        <time>2018-05-03T11:47:57.000Z</time>
      </trkpt>
      <trkpt lat="43.77141" lon="7.0637">
        <ele>968</ele>
        <time>2018-05-03T11:47:58.000Z</time>
      </trkpt>
      <trkpt lat="43.77145" lon="7.06378">
        <ele>967</ele>
        <time>2018-05-03T11:47:59.000Z</time>
      </trkpt>
      <trkpt lat="43.77147" lon="7.06385">
        <ele>967</ele>
        <time>2018-05-03T11:48:00.000Z</time>
      </trkpt>
      <trkpt lat="43.77145" lon="7.06393">
        <ele>966</ele>
        <time>2018-05-03T11:48:01.000Z</time>
      </trkpt>
      <trkpt lat="43.77137" lon="7.06411">
        <ele>966</ele>
        <time>2018-05-03T11:48:04.000Z</time>
      </trkpt>
      <trkpt lat="43.77136" lon="7.06418">
        <ele>962</ele>
        <time>2018-05-03T11:48:05.000Z</time>
      </trkpt>
      <trkpt lat="43.77138" lon="7.06433">
        <ele>962</ele>
        <time>2018-05-03T11:48:07.000Z</time>
      </trkpt>
      <trkpt lat="43.77139" lon="7.06439">
        <ele>962</ele>
        <time>2018-05-03T11:48:08.000Z</time>
      </trkpt>
      <trkpt lat="43.77143" lon="7.0646">
        <ele>961</ele>
        <time>2018-05-03T11:48:11.000Z</time>
      </trkpt>
      <trkpt lat="43.77144" lon="7.06468">
        <ele>960</ele>
        <time>2018-05-03T11:48:12.000Z</time>
      </trkpt>
      <trkpt lat="43.77144" lon="7.06474">
        <ele>960</ele>
        <time>2018-05-03T11:48:13.000Z</time>
      </trkpt>
      <trkpt lat="43.77144" lon="7.06479">
        <ele>960</ele>
        <time>2018-05-03T11:48:16.000Z</time>
      </trkpt>
      <trkpt lat="43.77145" lon="7.0648">
        <ele>959</ele>
        <time>2018-05-03T11:48:23.000Z</time>
      </trkpt>
      <trkpt lat="43.77146" lon="7.06481">
        <ele>959</ele>
        <time>2018-05-03T11:48:28.000Z</time>
      </trkpt>
      <trkpt lat="43.77145" lon="7.06481">
        <ele>959</ele>
        <time>2018-05-03T11:48:30.000Z</time>
      </trkpt>
      <trkpt lat="43.77145" lon="7.06481">
        <ele>959</ele>
        <time>2018-05-03T11:48:32.000Z</time>
      </trkpt>
      <trkpt lat="43.77148" lon="7.06487">
        <ele>958</ele>
        <time>2018-05-03T11:48:38.000Z</time>
      </trkpt>
      <trkpt lat="43.77149" lon="7.06505">
        <ele>954</ele>
        <time>2018-05-03T11:48:42.000Z</time>
      </trkpt>
      <trkpt lat="43.77151" lon="7.06523">
        <ele>954</ele>
        <time>2018-05-03T11:48:45.000Z</time>
      </trkpt>
      <trkpt lat="43.77151" lon="7.06529">
        <ele>954</ele>
        <time>2018-05-03T11:48:46.000Z</time>
      </trkpt>
      <trkpt lat="43.77152" lon="7.06537">
        <ele>954</ele>
        <time>2018-05-03T11:48:47.000Z</time>
      </trkpt>
      <trkpt lat="43.77152" lon="7.06544">
        <ele>953</ele>
        <time>2018-05-03T11:48:48.000Z</time>
      </trkpt>
      <trkpt lat="43.77154" lon="7.06551">
        <ele>952</ele>
        <time>2018-05-03T11:48:49.000Z</time>
      </trkpt>
      <trkpt lat="43.77154" lon="7.06566">
        <ele>951</ele>
        <time>2018-05-03T11:48:51.000Z</time>
      </trkpt>
      <trkpt lat="43.77144" lon="7.06592">
        <ele>946</ele>
        <time>2018-05-03T11:48:55.000Z</time>
      </trkpt>
      <trkpt lat="43.7713" lon="7.06613">
        <ele>947</ele>
        <time>2018-05-03T11:48:59.000Z</time>
      </trkpt>
      <trkpt lat="43.77116" lon="7.06637">
        <ele>946</ele>
        <time>2018-05-03T11:49:02.000Z</time>
      </trkpt>
      <trkpt lat="43.77111" lon="7.06644">
        <ele>946</ele>
        <time>2018-05-03T11:49:03.000Z</time>
      </trkpt>
      <trkpt lat="43.77106" lon="7.06651">
        <ele>945</ele>
        <time>2018-05-03T11:49:04.000Z</time>
      </trkpt>
      <trkpt lat="43.77096" lon="7.06664">
        <ele>944</ele>
        <time>2018-05-03T11:49:06.000Z</time>
      </trkpt>
      <trkpt lat="43.77084" lon="7.06675">
        <ele>941</ele>
        <time>2018-05-03T11:49:08.000Z</time>
      </trkpt>
      <trkpt lat="43.77077" lon="7.06679">
        <ele>940</ele>
        <time>2018-05-03T11:49:09.000Z</time>
      </trkpt>
      <trkpt lat="43.77071" lon="7.06682">
        <ele>940</ele>
        <time>2018-05-03T11:49:10.000Z</time>
      </trkpt>
      <trkpt lat="43.77057" lon="7.06688">
        <ele>939</ele>
        <time>2018-05-03T11:49:12.000Z</time>
      </trkpt>
      <trkpt lat="43.7705" lon="7.06691">
        <ele>939</ele>
        <time>2018-05-03T11:49:13.000Z</time>
      </trkpt>
      <trkpt lat="43.77042" lon="7.06695">
        <ele>938</ele>
        <time>2018-05-03T11:49:14.000Z</time>
      </trkpt>
      <trkpt lat="43.77036" lon="7.067">
        <ele>938</ele>
        <time>2018-05-03T11:49:15.000Z</time>
      </trkpt>
      <trkpt lat="43.77029" lon="7.06706">
        <ele>938</ele>
        <time>2018-05-03T11:49:16.000Z</time>
      </trkpt>
      <trkpt lat="43.77023" lon="7.06713">
        <ele>937</ele>
        <time>2018-05-03T11:49:17.000Z</time>
      </trkpt>
      <trkpt lat="43.77005" lon="7.06733">
        <ele>934</ele>
        <time>2018-05-03T11:49:20.000Z</time>
      </trkpt>
      <trkpt lat="43.76994" lon="7.06748">
        <ele>933</ele>
        <time>2018-05-03T11:49:22.000Z</time>
      </trkpt>
      <trkpt lat="43.76983" lon="7.06763">
        <ele>930</ele>
        <time>2018-05-03T11:49:24.000Z</time>
      </trkpt>
      <trkpt lat="43.76972" lon="7.06775">
        <ele>930</ele>
        <time>2018-05-03T11:49:26.000Z</time>
      </trkpt>
      <trkpt lat="43.76954" lon="7.06793">
        <ele>930</ele>
        <time>2018-05-03T11:49:29.000Z</time>
      </trkpt>
      <trkpt lat="43.76941" lon="7.06804">
        <ele>929</ele>
        <time>2018-05-03T11:49:31.000Z</time>
      </trkpt>
      <trkpt lat="43.76928" lon="7.06814">
        <ele>928</ele>
        <time>2018-05-03T11:49:33.000Z</time>
      </trkpt>
      <trkpt lat="43.76922" lon="7.0682">
        <ele>927</ele>
        <time>2018-05-03T11:49:34.000Z</time>
      </trkpt>
      <trkpt lat="43.7691" lon="7.06834">
        <ele>925</ele>
        <time>2018-05-03T11:49:36.000Z</time>
      </trkpt>
      <trkpt lat="43.76893" lon="7.06855">
        <ele>926</ele>
        <time>2018-05-03T11:49:39.000Z</time>
      </trkpt>
      <trkpt lat="43.76888" lon="7.06862">
        <ele>926</ele>
        <time>2018-05-03T11:49:40.000Z</time>
      </trkpt>
      <trkpt lat="43.76874" lon="7.06882">
        <ele>926</ele>
        <time>2018-05-03T11:49:43.000Z</time>
      </trkpt>
      <trkpt lat="43.76865" lon="7.06895">
        <ele>926</ele>
        <time>2018-05-03T11:49:45.000Z</time>
      </trkpt>
      <trkpt lat="43.76862" lon="7.06901">
        <ele>925</ele>
        <time>2018-05-03T11:49:46.000Z</time>
      </trkpt>
      <trkpt lat="43.7685" lon="7.06922">
        <ele>925</ele>
        <time>2018-05-03T11:49:50.000Z</time>
      </trkpt>
      <trkpt lat="43.7684" lon="7.06941">
        <ele>925</ele>
        <time>2018-05-03T11:49:55.000Z</time>
      </trkpt>
      <trkpt lat="43.76834" lon="7.06956">
        <ele>926</ele>
        <time>2018-05-03T11:49:59.000Z</time>
      </trkpt>
      <trkpt lat="43.76834" lon="7.06959">
        <ele>926</ele>
        <time>2018-05-03T11:50:00.000Z</time>
      </trkpt>
      <trkpt lat="43.76835" lon="7.06964">
        <ele>926</ele>
        <time>2018-05-03T11:50:02.000Z</time>
      </trkpt>
      <trkpt lat="43.76838" lon="7.06964">
        <ele>926</ele>
        <time>2018-05-03T11:50:04.000Z</time>
      </trkpt>
      <trkpt lat="43.7684" lon="7.06964">
        <ele>926</ele>
        <time>2018-05-03T11:50:05.000Z</time>
      </trkpt>
      <trkpt lat="43.76842" lon="7.06964">
        <ele>926</ele>
        <time>2018-05-03T11:50:06.000Z</time>
      </trkpt>
      <trkpt lat="43.76847" lon="7.06966">
        <ele>926</ele>
        <time>2018-05-03T11:50:09.000Z</time>
      </trkpt>
      <trkpt lat="43.76848" lon="7.06967">
        <ele>926</ele>
        <time>2018-05-03T11:50:13.000Z</time>
      </trkpt>
      <trkpt lat="43.76848" lon="7.06967">
        <ele>926</ele>
        <time>2018-05-03T11:50:22.000Z</time>
      </trkpt>
      <trkpt lat="43.7685" lon="7.06967">
        <ele>926</ele>
        <time>2018-05-03T11:50:34.000Z</time>
      </trkpt>
      <trkpt lat="43.76853" lon="7.06968">
        <ele>926</ele>
        <time>2018-05-03T11:50:44.000Z</time>
      </trkpt>
      <trkpt lat="43.76853" lon="7.06968">
        <ele>926</ele>
        <time>2018-05-03T11:50:57.000Z</time>
      </trkpt>
      <trkpt lat="43.76855" lon="7.0697">
        <ele>926</ele>
        <time>2018-05-03T11:51:06.000Z</time>
      </trkpt>
      <trkpt lat="43.76864" lon="7.06977">
        <ele>925</ele>
        <time>2018-05-03T11:51:11.000Z</time>
      </trkpt>
      <trkpt lat="43.76879" lon="7.06987">
        <ele>925</ele>
        <time>2018-05-03T11:51:16.000Z</time>
      </trkpt>
      <trkpt lat="43.76881" lon="7.0699">
        <ele>925</ele>
        <time>2018-05-03T11:51:17.000Z</time>
      </trkpt>
      <trkpt lat="43.76901" lon="7.07003">
        <ele>928</ele>
        <time>2018-05-03T11:51:24.000Z</time>
      </trkpt>
      <trkpt lat="43.76916" lon="7.07015">
        <ele>928</ele>
        <time>2018-05-03T11:51:29.000Z</time>
      </trkpt>
      <trkpt lat="43.76932" lon="7.07027">
        <ele>926</ele>
        <time>2018-05-03T11:51:33.000Z</time>
      </trkpt>
      <trkpt lat="43.76936" lon="7.07031">
        <ele>926</ele>
        <time>2018-05-03T11:51:34.000Z</time>
      </trkpt>
      <trkpt lat="43.76946" lon="7.07041">
        <ele>927</ele>
        <time>2018-05-03T11:51:37.000Z</time>
      </trkpt>
      <trkpt lat="43.7695" lon="7.07044">
        <ele>927</ele>
        <time>2018-05-03T11:51:38.000Z</time>
      </trkpt>
      <trkpt lat="43.76957" lon="7.07051">
        <ele>927</ele>
        <time>2018-05-03T11:51:40.000Z</time>
      </trkpt>
      <trkpt lat="43.7697" lon="7.07063">
        <ele>926</ele>
        <time>2018-05-03T11:51:44.000Z</time>
      </trkpt>
      <trkpt lat="43.76984" lon="7.07077">
        <ele>925</ele>
        <time>2018-05-03T11:51:48.000Z</time>
      </trkpt>
      <trkpt lat="43.76987" lon="7.07082">
        <ele>925</ele>
        <time>2018-05-03T11:51:49.000Z</time>
      </trkpt>
      <trkpt lat="43.76996" lon="7.07096">
        <ele>929</ele>
        <time>2018-05-03T11:51:52.000Z</time>
      </trkpt>
      <trkpt lat="43.77002" lon="7.07108">
        <ele>926</ele>
        <time>2018-05-03T11:51:54.000Z</time>
      </trkpt>
      <trkpt lat="43.77003" lon="7.07114">
        <ele>926</ele>
        <time>2018-05-03T11:51:55.000Z</time>
      </trkpt>
      <trkpt lat="43.77009" lon="7.07125">
        <ele>927</ele>
        <time>2018-05-03T11:51:57.000Z</time>
      </trkpt>
      <trkpt lat="43.77013" lon="7.0713">
        <ele>928</ele>
        <time>2018-05-03T11:51:58.000Z</time>
      </trkpt>
      <trkpt lat="43.77017" lon="7.07135">
        <ele>928</ele>
        <time>2018-05-03T11:51:59.000Z</time>
      </trkpt>
      <trkpt lat="43.77023" lon="7.07144">
        <ele>928</ele>
        <time>2018-05-03T11:52:01.000Z</time>
      </trkpt>
      <trkpt lat="43.77029" lon="7.07149">
        <ele>928</ele>
        <time>2018-05-03T11:52:02.000Z</time>
      </trkpt>
      <trkpt lat="43.77037" lon="7.07157">
        <ele>927</ele>
        <time>2018-05-03T11:52:04.000Z</time>
      </trkpt>
      <trkpt lat="43.77042" lon="7.07161">
        <ele>926</ele>
        <time>2018-05-03T11:52:05.000Z</time>
      </trkpt>
      <trkpt lat="43.77047" lon="7.07165">
        <ele>925</ele>
        <time>2018-05-03T11:52:06.000Z</time>
      </trkpt>
      <trkpt lat="43.7705" lon="7.07169">
        <ele>930</ele>
        <time>2018-05-03T11:52:07.000Z</time>
      </trkpt>
      <trkpt lat="43.77053" lon="7.07173">
        <ele>929</ele>
        <time>2018-05-03T11:52:08.000Z</time>
      </trkpt>
      <trkpt lat="43.77058" lon="7.07178">
        <ele>928</ele>
        <time>2018-05-03T11:52:09.000Z</time>
      </trkpt>
      <trkpt lat="43.77064" lon="7.07182">
        <ele>928</ele>
        <time>2018-05-03T11:52:10.000Z</time>
      </trkpt>
      <trkpt lat="43.77074" lon="7.07192">
        <ele>928</ele>
        <time>2018-05-03T11:52:12.000Z</time>
      </trkpt>
      <trkpt lat="43.77079" lon="7.07195">
        <ele>928</ele>
        <time>2018-05-03T11:52:13.000Z</time>
      </trkpt>
      <trkpt lat="43.77091" lon="7.07202">
        <ele>919</ele>
        <time>2018-05-03T11:52:15.000Z</time>
      </trkpt>
      <trkpt lat="43.77098" lon="7.07204">
        <ele>919</ele>
        <time>2018-05-03T11:52:16.000Z</time>
      </trkpt>
      <trkpt lat="43.7711" lon="7.07215">
        <ele>919</ele>
        <time>2018-05-03T11:52:18.000Z</time>
      </trkpt>
      <trkpt lat="43.77121" lon="7.07226">
        <ele>919</ele>
        <time>2018-05-03T11:52:20.000Z</time>
      </trkpt>
      <trkpt lat="43.77136" lon="7.07241">
        <ele>917</ele>
        <time>2018-05-03T11:52:23.000Z</time>
      </trkpt>
      <trkpt lat="43.77141" lon="7.07247">
        <ele>916</ele>
        <time>2018-05-03T11:52:24.000Z</time>
      </trkpt>
      <trkpt lat="43.77146" lon="7.07254">
        <ele>920</ele>
        <time>2018-05-03T11:52:25.000Z</time>
      </trkpt>
      <trkpt lat="43.77153" lon="7.07265">
        <ele>920</ele>
        <time>2018-05-03T11:52:27.000Z</time>
      </trkpt>
      <trkpt lat="43.77163" lon="7.07279">
        <ele>922</ele>
        <time>2018-05-03T11:52:29.000Z</time>
      </trkpt>
      <trkpt lat="43.77174" lon="7.07292">
        <ele>913</ele>
        <time>2018-05-03T11:52:31.000Z</time>
      </trkpt>
      <trkpt lat="43.77183" lon="7.07305">
        <ele>914</ele>
        <time>2018-05-03T11:52:33.000Z</time>
      </trkpt>
      <trkpt lat="43.77194" lon="7.07316">
        <ele>914</ele>
        <time>2018-05-03T11:52:35.000Z</time>
      </trkpt>
      <trkpt lat="43.77211" lon="7.07327">
        <ele>911</ele>
        <time>2018-05-03T11:52:38.000Z</time>
      </trkpt>
      <trkpt lat="43.77217" lon="7.07334">
        <ele>916</ele>
        <time>2018-05-03T11:52:39.000Z</time>
      </trkpt>
      <trkpt lat="43.77232" lon="7.07343">
        <ele>912</ele>
        <time>2018-05-03T11:52:41.000Z</time>
      </trkpt>
      <trkpt lat="43.77249" lon="7.07353">
        <ele>911</ele>
        <time>2018-05-03T11:52:43.000Z</time>
      </trkpt>
      <trkpt lat="43.77256" lon="7.07356">
        <ele>900</ele>
        <time>2018-05-03T11:52:44.000Z</time>
      </trkpt>
      <trkpt lat="43.77264" lon="7.07359">
        <ele>899</ele>
        <time>2018-05-03T11:52:45.000Z</time>
      </trkpt>
      <trkpt lat="43.77271" lon="7.07364">
        <ele>899</ele>
        <time>2018-05-03T11:52:46.000Z</time>
      </trkpt>
      <trkpt lat="43.77278" lon="7.0737">
        <ele>899</ele>
        <time>2018-05-03T11:52:47.000Z</time>
      </trkpt>
      <trkpt lat="43.77291" lon="7.07386">
        <ele>898</ele>
        <time>2018-05-03T11:52:49.000Z</time>
      </trkpt>
      <trkpt lat="43.77296" lon="7.07394">
        <ele>897</ele>
        <time>2018-05-03T11:52:50.000Z</time>
      </trkpt>
      <trkpt lat="43.77305" lon="7.0741">
        <ele>895</ele>
        <time>2018-05-03T11:52:52.000Z</time>
      </trkpt>
      <trkpt lat="43.77311" lon="7.07416">
        <ele>893</ele>
        <time>2018-05-03T11:52:53.000Z</time>
      </trkpt>
      <trkpt lat="43.77318" lon="7.07424">
        <ele>898</ele>
        <time>2018-05-03T11:52:54.000Z</time>
      </trkpt>
      <trkpt lat="43.77325" lon="7.07431">
        <ele>897</ele>
        <time>2018-05-03T11:52:55.000Z</time>
      </trkpt>
      <trkpt lat="43.77339" lon="7.07445">
        <ele>883</ele>
        <time>2018-05-03T11:52:57.000Z</time>
      </trkpt>
      <trkpt lat="43.77346" lon="7.07452">
        <ele>884</ele>
        <time>2018-05-03T11:52:58.000Z</time>
      </trkpt>
      <trkpt lat="43.77356" lon="7.07463">
        <ele>884</ele>
        <time>2018-05-03T11:53:00.000Z</time>
      </trkpt>
      <trkpt lat="43.77362" lon="7.07467">
        <ele>884</ele>
        <time>2018-05-03T11:53:01.000Z</time>
      </trkpt>
      <trkpt lat="43.77374" lon="7.07475">
        <ele>882</ele>
        <time>2018-05-03T11:53:03.000Z</time>
      </trkpt>
      <trkpt lat="43.7738" lon="7.0748">
        <ele>880</ele>
        <time>2018-05-03T11:53:04.000Z</time>
      </trkpt>
      <trkpt lat="43.77392" lon="7.0749">
        <ele>877</ele>
        <time>2018-05-03T11:53:06.000Z</time>
      </trkpt>
      <trkpt lat="43.77405" lon="7.07499">
        <ele>873</ele>
        <time>2018-05-03T11:53:08.000Z</time>
      </trkpt>
      <trkpt lat="43.77411" lon="7.07503">
        <ele>876</ele>
        <time>2018-05-03T11:53:09.000Z</time>
      </trkpt>
      <trkpt lat="43.77422" lon="7.0751">
        <ele>867</ele>
        <time>2018-05-03T11:53:11.000Z</time>
      </trkpt>
      <trkpt lat="43.77429" lon="7.07514">
        <ele>867</ele>
        <time>2018-05-03T11:53:12.000Z</time>
      </trkpt>
      <trkpt lat="43.77434" lon="7.07518">
        <ele>867</ele>
        <time>2018-05-03T11:53:13.000Z</time>
      </trkpt>
      <trkpt lat="43.77444" lon="7.07523">
        <ele>866</ele>
        <time>2018-05-03T11:53:15.000Z</time>
      </trkpt>
      <trkpt lat="43.77448" lon="7.07526">
        <ele>866</ele>
        <time>2018-05-03T11:53:16.000Z</time>
      </trkpt>
      <trkpt lat="43.77452" lon="7.0753">
        <ele>866</ele>
        <time>2018-05-03T11:53:17.000Z</time>
      </trkpt>
      <trkpt lat="43.77456" lon="7.07534">
        <ele>865</ele>
        <time>2018-05-03T11:53:18.000Z</time>
      </trkpt>
      <trkpt lat="43.77468" lon="7.07548">
        <ele>865</ele>
        <time>2018-05-03T11:53:21.000Z</time>
      </trkpt>
      <trkpt lat="43.7747" lon="7.07552">
        <ele>865</ele>
        <time>2018-05-03T11:53:22.000Z</time>
      </trkpt>
      <trkpt lat="43.77473" lon="7.07555">
        <ele>865</ele>
        <time>2018-05-03T11:53:25.000Z</time>
      </trkpt>
      <trkpt lat="43.77473" lon="7.07556">
        <ele>865</ele>
        <time>2018-05-03T11:53:26.000Z</time>
      </trkpt>
      <trkpt lat="43.77476" lon="7.07559">
        <ele>864</ele>
        <time>2018-05-03T11:53:32.000Z</time>
      </trkpt>
      <trkpt lat="43.77477" lon="7.07561">
        <ele>864</ele>
        <time>2018-05-03T11:53:41.000Z</time>
      </trkpt>
      <trkpt lat="43.77477" lon="7.07564">
        <ele>864</ele>
        <time>2018-05-03T11:54:00.000Z</time>
      </trkpt>
      <trkpt lat="43.77478" lon="7.07561">
        <ele>864</ele>
        <time>2018-05-03T11:54:10.000Z</time>
      </trkpt>
      <trkpt lat="43.77478" lon="7.07562">
        <ele>864</ele>
        <time>2018-05-03T11:54:18.000Z</time>
      </trkpt>
      <trkpt lat="43.77477" lon="7.07561">
        <ele>864</ele>
        <time>2018-05-03T11:54:24.000Z</time>
      </trkpt>
      <trkpt lat="43.77478" lon="7.07561">
        <ele>864</ele>
        <time>2018-05-03T11:54:31.000Z</time>
      </trkpt>
      <trkpt lat="43.77478" lon="7.07562">
        <ele>864</ele>
        <time>2018-05-03T11:54:52.000Z</time>
      </trkpt>
      <trkpt lat="43.77477" lon="7.07562">
        <ele>864</ele>
        <time>2018-05-03T11:55:12.000Z</time>
      </trkpt>
      <trkpt lat="43.77477" lon="7.07563">
        <ele>864</ele>
        <time>2018-05-03T11:55:32.000Z</time>
      </trkpt>
      <trkpt lat="43.77474" lon="7.07555">
        <ele>864</ele>
        <time>2018-05-03T11:55:39.000Z</time>
      </trkpt>
      <trkpt lat="43.77463" lon="7.07539">
        <ele>865</ele>
        <time>2018-05-03T11:55:43.000Z</time>
      </trkpt>
      <trkpt lat="43.77449" lon="7.07524">
        <ele>865</ele>
        <time>2018-05-03T11:55:47.000Z</time>
      </trkpt>
      <trkpt lat="43.77445" lon="7.0752">
        <ele>866</ele>
        <time>2018-05-03T11:55:48.000Z</time>
      </trkpt>
      <trkpt lat="43.77443" lon="7.07517">
        <ele>866</ele>
        <time>2018-05-03T11:55:49.000Z</time>
      </trkpt>
      <trkpt lat="43.77441" lon="7.07511">
        <ele>865</ele>
        <time>2018-05-03T11:55:51.000Z</time>
      </trkpt>
      <trkpt lat="43.77446" lon="7.07513">
        <ele>865</ele>
        <time>2018-05-03T11:55:53.000Z</time>
      </trkpt>
      <trkpt lat="43.77453" lon="7.07518">
        <ele>864</ele>
        <time>2018-05-03T11:55:55.000Z</time>
      </trkpt>
      <trkpt lat="43.77459" lon="7.07524">
        <ele>863</ele>
        <time>2018-05-03T11:55:57.000Z</time>
      </trkpt>
      <trkpt lat="43.77462" lon="7.07527">
        <ele>863</ele>
        <time>2018-05-03T11:55:58.000Z</time>
      </trkpt>
      <trkpt lat="43.77466" lon="7.0753">
        <ele>862</ele>
        <time>2018-05-03T11:55:59.000Z</time>
      </trkpt>
      <trkpt lat="43.77474" lon="7.07536">
        <ele>862</ele>
        <time>2018-05-03T11:56:01.000Z</time>
      </trkpt>
      <trkpt lat="43.77478" lon="7.07544">
        <ele>862</ele>
        <time>2018-05-03T11:56:04.000Z</time>
      </trkpt>
      <trkpt lat="43.77479" lon="7.07547">
        <ele>862</ele>
        <time>2018-05-03T11:56:05.000Z</time>
      </trkpt>
      <trkpt lat="43.77483" lon="7.07557">
        <ele>863</ele>
        <time>2018-05-03T11:56:09.000Z</time>
      </trkpt>
      <trkpt lat="43.77487" lon="7.07562">
        <ele>862</ele>
        <time>2018-05-03T11:56:11.000Z</time>
      </trkpt>
      <trkpt lat="43.77489" lon="7.07564">
        <ele>862</ele>
        <time>2018-05-03T11:56:12.000Z</time>
      </trkpt>
      <trkpt lat="43.77497" lon="7.07572">
        <ele>860</ele>
        <time>2018-05-03T11:56:14.000Z</time>
      </trkpt>
      <trkpt lat="43.77503" lon="7.07581">
        <ele>852</ele>
        <time>2018-05-03T11:56:16.000Z</time>
      </trkpt>
      <trkpt lat="43.77506" lon="7.07586">
        <ele>853</ele>
        <time>2018-05-03T11:56:17.000Z</time>
      </trkpt>
      <trkpt lat="43.77513" lon="7.07599">
        <ele>850</ele>
        <time>2018-05-03T11:56:20.000Z</time>
      </trkpt>
      <trkpt lat="43.77523" lon="7.07598">
        <ele>847</ele>
        <time>2018-05-03T11:56:23.000Z</time>
      </trkpt>
      <trkpt lat="43.77524" lon="7.07592">
        <ele>847</ele>
        <time>2018-05-03T11:56:24.000Z</time>
      </trkpt>
      <trkpt lat="43.77529" lon="7.07591">
        <ele>846</ele>
        <time>2018-05-03T11:56:26.000Z</time>
      </trkpt>
      <trkpt lat="43.77532" lon="7.076">
        <ele>845</ele>
        <time>2018-05-03T11:56:29.000Z</time>
      </trkpt>
      <trkpt lat="43.77533" lon="7.07603">
        <ele>845</ele>
        <time>2018-05-03T11:56:30.000Z</time>
      </trkpt>
      <trkpt lat="43.77535" lon="7.07606">
        <ele>844</ele>
        <time>2018-05-03T11:56:31.000Z</time>
      </trkpt>
      <trkpt lat="43.77537" lon="7.07612">
        <ele>844</ele>
        <time>2018-05-03T11:56:33.000Z</time>
      </trkpt>
      <trkpt lat="43.77538" lon="7.07615">
        <ele>844</ele>
        <time>2018-05-03T11:56:34.000Z</time>
      </trkpt>
      <trkpt lat="43.77537" lon="7.07617">
        <ele>844</ele>
        <time>2018-05-03T11:56:35.000Z</time>
      </trkpt>
      <trkpt lat="43.77538" lon="7.07619">
        <ele>844</ele>
        <time>2018-05-03T11:56:37.000Z</time>
      </trkpt>
      <trkpt lat="43.77538" lon="7.07618">
        <ele>844</ele>
        <time>2018-05-03T11:56:38.000Z</time>
      </trkpt>
      <trkpt lat="43.7754" lon="7.07616">
        <ele>844</ele>
        <time>2018-05-03T11:56:39.000Z</time>
      </trkpt>
      <trkpt lat="43.77543" lon="7.07611">
        <ele>842</ele>
        <time>2018-05-03T11:56:41.000Z</time>
      </trkpt>
      <trkpt lat="43.77546" lon="7.07612">
        <ele>841</ele>
        <time>2018-05-03T11:56:43.000Z</time>
      </trkpt>
      <trkpt lat="43.77546" lon="7.07615">
        <ele>842</ele>
        <time>2018-05-03T11:56:44.000Z</time>
      </trkpt>
      <trkpt lat="43.77545" lon="7.07618">
        <ele>842</ele>
        <time>2018-05-03T11:56:45.000Z</time>
      </trkpt>
      <trkpt lat="43.77543" lon="7.07627">
        <ele>844</ele>
        <time>2018-05-03T11:56:47.000Z</time>
      </trkpt>
      <trkpt lat="43.77542" lon="7.07632">
        <ele>845</ele>
        <time>2018-05-03T11:56:48.000Z</time>
      </trkpt>
      <trkpt lat="43.77542" lon="7.07639">
        <ele>845</ele>
        <time>2018-05-03T11:56:51.000Z</time>
      </trkpt>
      <trkpt lat="43.77542" lon="7.0764">
        <ele>845</ele>
        <time>2018-05-03T11:56:52.000Z</time>
      </trkpt>
      <trkpt lat="43.77543" lon="7.0764">
        <ele>845</ele>
        <time>2018-05-03T11:56:53.000Z</time>
      </trkpt>
      <trkpt lat="43.77547" lon="7.07637">
        <ele>843</ele>
        <time>2018-05-03T11:56:55.000Z</time>
      </trkpt>
      <trkpt lat="43.77554" lon="7.07638">
        <ele>841</ele>
        <time>2018-05-03T11:56:57.000Z</time>
      </trkpt>
      <trkpt lat="43.77558" lon="7.07641">
        <ele>840</ele>
        <time>2018-05-03T11:56:58.000Z</time>
      </trkpt>
      <trkpt lat="43.77561" lon="7.07644">
        <ele>839</ele>
        <time>2018-05-03T11:56:59.000Z</time>
      </trkpt>
      <trkpt lat="43.77565" lon="7.07644">
        <ele>838</ele>
        <time>2018-05-03T11:57:01.000Z</time>
      </trkpt>
      <trkpt lat="43.77573" lon="7.07645">
        <ele>836</ele>
        <time>2018-05-03T11:57:04.000Z</time>
      </trkpt>
      <trkpt lat="43.7759" lon="7.07654">
        <ele>817</ele>
        <time>2018-05-03T11:57:07.000Z</time>
      </trkpt>
      <trkpt lat="43.776" lon="7.07662">
        <ele>815</ele>
        <time>2018-05-03T11:57:10.000Z</time>
      </trkpt>
      <trkpt lat="43.77607" lon="7.07658">
        <ele>812</ele>
        <time>2018-05-03T11:57:12.000Z</time>
      </trkpt>
      <trkpt lat="43.77614" lon="7.07653">
        <ele>809</ele>
        <time>2018-05-03T11:57:14.000Z</time>
      </trkpt>
      <trkpt lat="43.77618" lon="7.07646">
        <ele>808</ele>
        <time>2018-05-03T11:57:16.000Z</time>
      </trkpt>
      <trkpt lat="43.7762" lon="7.07645">
        <ele>807</ele>
        <time>2018-05-03T11:57:17.000Z</time>
      </trkpt>
      <trkpt lat="43.77623" lon="7.07646">
        <ele>806</ele>
        <time>2018-05-03T11:57:18.000Z</time>
      </trkpt>
      <trkpt lat="43.77628" lon="7.07654">
        <ele>806</ele>
        <time>2018-05-03T11:57:20.000Z</time>
      </trkpt>
      <trkpt lat="43.7763" lon="7.07661">
        <ele>806</ele>
        <time>2018-05-03T11:57:21.000Z</time>
      </trkpt>
      <trkpt lat="43.7763" lon="7.07667">
        <ele>809</ele>
        <time>2018-05-03T11:57:22.000Z</time>
      </trkpt>
      <trkpt lat="43.77628" lon="7.07678">
        <ele>810</ele>
        <time>2018-05-03T11:57:24.000Z</time>
      </trkpt>
      <trkpt lat="43.77626" lon="7.07689">
        <ele>810</ele>
        <time>2018-05-03T11:57:26.000Z</time>
      </trkpt>
      <trkpt lat="43.77626" lon="7.07694">
        <ele>810</ele>
        <time>2018-05-03T11:57:27.000Z</time>
      </trkpt>
      <trkpt lat="43.77628" lon="7.07698">
        <ele>810</ele>
        <time>2018-05-03T11:57:28.000Z</time>
      </trkpt>
      <trkpt lat="43.77635" lon="7.07704">
        <ele>809</ele>
        <time>2018-05-03T11:57:30.000Z</time>
      </trkpt>
      <trkpt lat="43.77637" lon="7.07709">
        <ele>808</ele>
        <time>2018-05-03T11:57:31.000Z</time>
      </trkpt>
      <trkpt lat="43.77638" lon="7.07715">
        <ele>808</ele>
        <time>2018-05-03T11:57:32.000Z</time>
      </trkpt>
      <trkpt lat="43.77637" lon="7.0772">
        <ele>808</ele>
        <time>2018-05-03T11:57:33.000Z</time>
      </trkpt>
      <trkpt lat="43.77634" lon="7.07724">
        <ele>808</ele>
        <time>2018-05-03T11:57:34.000Z</time>
      </trkpt>
      <trkpt lat="43.77632" lon="7.07731">
        <ele>808</ele>
        <time>2018-05-03T11:57:36.000Z</time>
      </trkpt>
      <trkpt lat="43.77636" lon="7.07732">
        <ele>807</ele>
        <time>2018-05-03T11:57:38.000Z</time>
      </trkpt>
      <trkpt lat="43.77638" lon="7.07734">
        <ele>806</ele>
        <time>2018-05-03T11:57:39.000Z</time>
      </trkpt>
      <trkpt lat="43.7764" lon="7.07737">
        <ele>806</ele>
        <time>2018-05-03T11:57:40.000Z</time>
      </trkpt>
      <trkpt lat="43.77643" lon="7.07738">
        <ele>805</ele>
        <time>2018-05-03T11:57:41.000Z</time>
      </trkpt>
      <trkpt lat="43.77646" lon="7.07737">
        <ele>804</ele>
        <time>2018-05-03T11:57:42.000Z</time>
      </trkpt>
      <trkpt lat="43.7765" lon="7.07732">
        <ele>803</ele>
        <time>2018-05-03T11:57:44.000Z</time>
      </trkpt>
      <trkpt lat="43.77656" lon="7.0773">
        <ele>803</ele>
        <time>2018-05-03T11:57:46.000Z</time>
      </trkpt>
      <trkpt lat="43.77663" lon="7.07731">
        <ele>801</ele>
        <time>2018-05-03T11:57:48.000Z</time>
      </trkpt>
      <trkpt lat="43.77667" lon="7.07731">
        <ele>786</ele>
        <time>2018-05-03T11:57:49.000Z</time>
      </trkpt>
      <trkpt lat="43.7767" lon="7.0773">
        <ele>785</ele>
        <time>2018-05-03T11:57:50.000Z</time>
      </trkpt>
      <trkpt lat="43.77673" lon="7.07726">
        <ele>785</ele>
        <time>2018-05-03T11:57:51.000Z</time>
      </trkpt>
      <trkpt lat="43.77675" lon="7.07721">
        <ele>784</ele>
        <time>2018-05-03T11:57:52.000Z</time>
      </trkpt>
      <trkpt lat="43.77678" lon="7.07715">
        <ele>784</ele>
        <time>2018-05-03T11:57:53.000Z</time>
      </trkpt>
      <trkpt lat="43.7768" lon="7.0771">
        <ele>783</ele>
        <time>2018-05-03T11:57:54.000Z</time>
      </trkpt>
      <trkpt lat="43.77683" lon="7.07708">
        <ele>783</ele>
        <time>2018-05-03T11:57:55.000Z</time>
      </trkpt>
      <trkpt lat="43.77687" lon="7.0771">
        <ele>782</ele>
        <time>2018-05-03T11:57:56.000Z</time>
      </trkpt>
      <trkpt lat="43.77696" lon="7.07718">
        <ele>781</ele>
        <time>2018-05-03T11:57:58.000Z</time>
      </trkpt>
      <trkpt lat="43.77701" lon="7.07719">
        <ele>780</ele>
        <time>2018-05-03T11:57:59.000Z</time>
      </trkpt>
      <trkpt lat="43.77704" lon="7.07719">
        <ele>779</ele>
        <time>2018-05-03T11:58:00.000Z</time>
      </trkpt>
      <trkpt lat="43.77708" lon="7.07722">
        <ele>778</ele>
        <time>2018-05-03T11:58:01.000Z</time>
      </trkpt>
      <trkpt lat="43.77711" lon="7.07725">
        <ele>778</ele>
        <time>2018-05-03T11:58:02.000Z</time>
      </trkpt>
      <trkpt lat="43.77715" lon="7.07729">
        <ele>777</ele>
        <time>2018-05-03T11:58:03.000Z</time>
      </trkpt>
      <trkpt lat="43.77721" lon="7.07736">
        <ele>775</ele>
        <time>2018-05-03T11:58:05.000Z</time>
      </trkpt>
      <trkpt lat="43.77722" lon="7.07738">
        <ele>774</ele>
        <time>2018-05-03T11:58:06.000Z</time>
      </trkpt>
      <trkpt lat="43.77724" lon="7.07738">
        <ele>774</ele>
        <time>2018-05-03T11:58:07.000Z</time>
      </trkpt>
      <trkpt lat="43.77729" lon="7.07725">
        <ele>774</ele>
        <time>2018-05-03T11:58:10.000Z</time>
      </trkpt>
      <trkpt lat="43.77733" lon="7.07719">
        <ele>774</ele>
        <time>2018-05-03T11:58:12.000Z</time>
      </trkpt>
      <trkpt lat="43.7774" lon="7.07722">
        <ele>772</ele>
        <time>2018-05-03T11:58:14.000Z</time>
      </trkpt>
      <trkpt lat="43.77745" lon="7.07723">
        <ele>772</ele>
        <time>2018-05-03T11:58:15.000Z</time>
      </trkpt>
      <trkpt lat="43.77748" lon="7.07726">
        <ele>771</ele>
        <time>2018-05-03T11:58:16.000Z</time>
      </trkpt>
      <trkpt lat="43.77754" lon="7.07736">
        <ele>754</ele>
        <time>2018-05-03T11:58:18.000Z</time>
      </trkpt>
      <trkpt lat="43.77756" lon="7.07741">
        <ele>755</ele>
        <time>2018-05-03T11:58:19.000Z</time>
      </trkpt>
      <trkpt lat="43.77758" lon="7.07745">
        <ele>755</ele>
        <time>2018-05-03T11:58:20.000Z</time>
      </trkpt>
      <trkpt lat="43.77761" lon="7.0775">
        <ele>755</ele>
        <time>2018-05-03T11:58:21.000Z</time>
      </trkpt>
      <trkpt lat="43.77763" lon="7.07754">
        <ele>751</ele>
        <time>2018-05-03T11:58:22.000Z</time>
      </trkpt>
      <trkpt lat="43.77766" lon="7.07758">
        <ele>749</ele>
        <time>2018-05-03T11:58:23.000Z</time>
      </trkpt>
      <trkpt lat="43.77769" lon="7.07764">
        <ele>746</ele>
        <time>2018-05-03T11:58:25.000Z</time>
      </trkpt>
      <trkpt lat="43.77771" lon="7.07766">
        <ele>745</ele>
        <time>2018-05-03T11:58:26.000Z</time>
      </trkpt>
      <trkpt lat="43.77771" lon="7.07769">
        <ele>745</ele>
        <time>2018-05-03T11:58:27.000Z</time>
      </trkpt>
      <trkpt lat="43.77773" lon="7.07774">
        <ele>744</ele>
        <time>2018-05-03T11:58:29.000Z</time>
      </trkpt>
      <trkpt lat="43.77775" lon="7.07781">
        <ele>742</ele>
        <time>2018-05-03T11:58:31.000Z</time>
      </trkpt>
      <trkpt lat="43.77775" lon="7.07786">
        <ele>742</ele>
        <time>2018-05-03T11:58:32.000Z</time>
      </trkpt>
      <trkpt lat="43.77776" lon="7.07792">
        <ele>741</ele>
        <time>2018-05-03T11:58:33.000Z</time>
      </trkpt>
      <trkpt lat="43.77783" lon="7.07803">
        <ele>739</ele>
        <time>2018-05-03T11:58:35.000Z</time>
      </trkpt>
      <trkpt lat="43.77786" lon="7.0781">
        <ele>738</ele>
        <time>2018-05-03T11:58:36.000Z</time>
      </trkpt>
      <trkpt lat="43.77789" lon="7.07816">
        <ele>737</ele>
        <time>2018-05-03T11:58:37.000Z</time>
      </trkpt>
      <trkpt lat="43.7779" lon="7.07821">
        <ele>737</ele>
        <time>2018-05-03T11:58:38.000Z</time>
      </trkpt>
      <trkpt lat="43.7779" lon="7.07826">
        <ele>737</ele>
        <time>2018-05-03T11:58:39.000Z</time>
      </trkpt>
      <trkpt lat="43.77788" lon="7.07838">
        <ele>735</ele>
        <time>2018-05-03T11:58:41.000Z</time>
      </trkpt>
      <trkpt lat="43.77787" lon="7.07854">
        <ele>735</ele>
        <time>2018-05-03T11:58:43.000Z</time>
      </trkpt>
      <trkpt lat="43.77788" lon="7.07861">
        <ele>735</ele>
        <time>2018-05-03T11:58:44.000Z</time>
      </trkpt>
      <trkpt lat="43.77789" lon="7.07868">
        <ele>734</ele>
        <time>2018-05-03T11:58:45.000Z</time>
      </trkpt>
      <trkpt lat="43.77793" lon="7.0788">
        <ele>733</ele>
        <time>2018-05-03T11:58:47.000Z</time>
      </trkpt>
      <trkpt lat="43.77796" lon="7.07887">
        <ele>733</ele>
        <time>2018-05-03T11:58:48.000Z</time>
      </trkpt>
      <trkpt lat="43.77803" lon="7.07901">
        <ele>730</ele>
        <time>2018-05-03T11:58:50.000Z</time>
      </trkpt>
      <trkpt lat="43.77805" lon="7.07907">
        <ele>729</ele>
        <time>2018-05-03T11:58:51.000Z</time>
      </trkpt>
      <trkpt lat="43.7781" lon="7.07914">
        <ele>726</ele>
        <time>2018-05-03T11:58:53.000Z</time>
      </trkpt>
      <trkpt lat="43.77816" lon="7.07923">
        <ele>725</ele>
        <time>2018-05-03T11:58:55.000Z</time>
      </trkpt>
      <trkpt lat="43.7782" lon="7.07934">
        <ele>726</ele>
        <time>2018-05-03T11:58:57.000Z</time>
      </trkpt>
      <trkpt lat="43.77821" lon="7.0794">
        <ele>727</ele>
        <time>2018-05-03T11:58:58.000Z</time>
      </trkpt>
      <trkpt lat="43.77822" lon="7.07947">
        <ele>729</ele>
        <time>2018-05-03T11:58:59.000Z</time>
      </trkpt>
      <trkpt lat="43.77822" lon="7.07954">
        <ele>729</ele>
        <time>2018-05-03T11:59:00.000Z</time>
      </trkpt>
      <trkpt lat="43.77823" lon="7.07958">
        <ele>729</ele>
        <time>2018-05-03T11:59:01.000Z</time>
      </trkpt>
      <trkpt lat="43.77828" lon="7.07967">
        <ele>729</ele>
        <time>2018-05-03T11:59:04.000Z</time>
      </trkpt>
      <trkpt lat="43.77828" lon="7.0797">
        <ele>728</ele>
        <time>2018-05-03T11:59:05.000Z</time>
      </trkpt>
      <trkpt lat="43.77829" lon="7.07971">
        <ele>728</ele>
        <time>2018-05-03T11:59:06.000Z</time>
      </trkpt>
      <trkpt lat="43.77832" lon="7.07967">
        <ele>728</ele>
        <time>2018-05-03T11:59:08.000Z</time>
      </trkpt>
      <trkpt lat="43.77834" lon="7.07968">
        <ele>706</ele>
        <time>2018-05-03T11:59:09.000Z</time>
      </trkpt>
      <trkpt lat="43.77836" lon="7.07971">
        <ele>706</ele>
        <time>2018-05-03T11:59:10.000Z</time>
      </trkpt>
      <trkpt lat="43.77838" lon="7.07975">
        <ele>706</ele>
        <time>2018-05-03T11:59:11.000Z</time>
      </trkpt>
      <trkpt lat="43.7784" lon="7.07978">
        <ele>707</ele>
        <time>2018-05-03T11:59:12.000Z</time>
      </trkpt>
      <trkpt lat="43.77842" lon="7.07982">
        <ele>707</ele>
        <time>2018-05-03T11:59:13.000Z</time>
      </trkpt>
      <trkpt lat="43.77842" lon="7.07985">
        <ele>708</ele>
        <time>2018-05-03T11:59:14.000Z</time>
      </trkpt>
      <trkpt lat="43.77843" lon="7.0799">
        <ele>709</ele>
        <time>2018-05-03T11:59:15.000Z</time>
      </trkpt>
      <trkpt lat="43.77844" lon="7.07996">
        <ele>710</ele>
        <time>2018-05-03T11:59:16.000Z</time>
      </trkpt>
      <trkpt lat="43.77846" lon="7.08002">
        <ele>709</ele>
        <time>2018-05-03T11:59:17.000Z</time>
      </trkpt>
      <trkpt lat="43.77847" lon="7.08009">
        <ele>708</ele>
        <time>2018-05-03T11:59:18.000Z</time>
      </trkpt>
      <trkpt lat="43.77848" lon="7.08013">
        <ele>707</ele>
        <time>2018-05-03T11:59:19.000Z</time>
      </trkpt>
      <trkpt lat="43.77849" lon="7.08017">
        <ele>706</ele>
        <time>2018-05-03T11:59:20.000Z</time>
      </trkpt>
      <trkpt lat="43.77849" lon="7.08021">
        <ele>705</ele>
        <time>2018-05-03T11:59:21.000Z</time>
      </trkpt>
      <trkpt lat="43.77851" lon="7.08031">
        <ele>703</ele>
        <time>2018-05-03T11:59:23.000Z</time>
      </trkpt>
      <trkpt lat="43.77851" lon="7.08036">
        <ele>703</ele>
        <time>2018-05-03T11:59:24.000Z</time>
      </trkpt>
      <trkpt lat="43.77851" lon="7.08039">
        <ele>703</ele>
        <time>2018-05-03T11:59:25.000Z</time>
      </trkpt>
      <trkpt lat="43.77851" lon="7.08045">
        <ele>703</ele>
        <time>2018-05-03T11:59:27.000Z</time>
      </trkpt>
      <trkpt lat="43.77853" lon="7.08048">
        <ele>702</ele>
        <time>2018-05-03T11:59:32.000Z</time>
      </trkpt>
      <trkpt lat="43.77855" lon="7.08048">
        <ele>702</ele>
        <time>2018-05-03T11:59:33.000Z</time>
      </trkpt>
      <trkpt lat="43.77858" lon="7.0806">
        <ele>702</ele>
        <time>2018-05-03T11:59:36.000Z</time>
      </trkpt>
      <trkpt lat="43.77859" lon="7.08061">
        <ele>702</ele>
        <time>2018-05-03T11:59:39.000Z</time>
      </trkpt>
      <trkpt lat="43.77861" lon="7.08063">
        <ele>701</ele>
        <time>2018-05-03T11:59:47.000Z</time>
      </trkpt>
      <trkpt lat="43.77863" lon="7.08063">
        <ele>701</ele>
        <time>2018-05-03T11:59:54.000Z</time>
      </trkpt>
      <trkpt lat="43.77867" lon="7.08066">
        <ele>700</ele>
        <time>2018-05-03T12:00:04.000Z</time>
      </trkpt>
      <trkpt lat="43.77869" lon="7.0807">
        <ele>699</ele>
        <time>2018-05-03T12:00:06.000Z</time>
      </trkpt>
      <trkpt lat="43.77873" lon="7.08082">
        <ele>698</ele>
        <time>2018-05-03T12:00:10.000Z</time>
      </trkpt>
      <trkpt lat="43.77878" lon="7.08096">
        <ele>696</ele>
        <time>2018-05-03T12:00:14.000Z</time>
      </trkpt>
      <trkpt lat="43.77879" lon="7.081">
        <ele>696</ele>
        <time>2018-05-03T12:00:15.000Z</time>
      </trkpt>
      <trkpt lat="43.7788" lon="7.08103">
        <ele>695</ele>
        <time>2018-05-03T12:00:16.000Z</time>
      </trkpt>
      <trkpt lat="43.7788" lon="7.08105">
        <ele>695</ele>
        <time>2018-05-03T12:00:17.000Z</time>
      </trkpt>
      <trkpt lat="43.77881" lon="7.08111">
        <ele>695</ele>
        <time>2018-05-03T12:00:19.000Z</time>
      </trkpt>
      <trkpt lat="43.77881" lon="7.08116">
        <ele>695</ele>
        <time>2018-05-03T12:00:21.000Z</time>
      </trkpt>
      <trkpt lat="43.77881" lon="7.08118">
        <ele>695</ele>
        <time>2018-05-03T12:00:22.000Z</time>
      </trkpt>
      <trkpt lat="43.77882" lon="7.0812">
        <ele>695</ele>
        <time>2018-05-03T12:00:23.000Z</time>
      </trkpt>
      <trkpt lat="43.77882" lon="7.08119">
        <ele>695</ele>
        <time>2018-05-03T12:00:24.000Z</time>
      </trkpt>
      <trkpt lat="43.77882" lon="7.08121">
        <ele>695</ele>
        <time>2018-05-03T12:00:25.000Z</time>
      </trkpt>
      <trkpt lat="43.77883" lon="7.08122">
        <ele>695</ele>
        <time>2018-05-03T12:00:27.000Z</time>
      </trkpt>
      <trkpt lat="43.77886" lon="7.08125">
        <ele>694</ele>
        <time>2018-05-03T12:00:33.000Z</time>
      </trkpt>
      <trkpt lat="43.77895" lon="7.08138">
        <ele>692</ele>
        <time>2018-05-03T12:00:36.000Z</time>
      </trkpt>
      <trkpt lat="43.77898" lon="7.08144">
        <ele>690</ele>
        <time>2018-05-03T12:00:37.000Z</time>
      </trkpt>
      <trkpt lat="43.77899" lon="7.08149">
        <ele>689</ele>
        <time>2018-05-03T12:00:38.000Z</time>
      </trkpt>
      <trkpt lat="43.77901" lon="7.08153">
        <ele>688</ele>
        <time>2018-05-03T12:00:39.000Z</time>
      </trkpt>
      <trkpt lat="43.77902" lon="7.08157">
        <ele>687</ele>
        <time>2018-05-03T12:00:40.000Z</time>
      </trkpt>
      <trkpt lat="43.77904" lon="7.08162">
        <ele>685</ele>
        <time>2018-05-03T12:00:41.000Z</time>
      </trkpt>
      <trkpt lat="43.77907" lon="7.08168">
        <ele>683</ele>
        <time>2018-05-03T12:00:43.000Z</time>
      </trkpt>
      <trkpt lat="43.77908" lon="7.08171">
        <ele>683</ele>
        <time>2018-05-03T12:00:44.000Z</time>
      </trkpt>
      <trkpt lat="43.77909" lon="7.08172">
        <ele>683</ele>
        <time>2018-05-03T12:00:45.000Z</time>
      </trkpt>
      <trkpt lat="43.77909" lon="7.08172">
        <ele>683</ele>
        <time>2018-05-03T12:00:46.000Z</time>
      </trkpt>
      <trkpt lat="43.7791" lon="7.08173">
        <ele>683</ele>
        <time>2018-05-03T12:00:48.000Z</time>
      </trkpt>
      <trkpt lat="43.77912" lon="7.08172">
        <ele>682</ele>
        <time>2018-05-03T12:00:50.000Z</time>
      </trkpt>
      <trkpt lat="43.77911" lon="7.08171">
        <ele>681</ele>
        <time>2018-05-03T12:00:51.000Z</time>
      </trkpt>
      <trkpt lat="43.77913" lon="7.08171">
        <ele>681</ele>
        <time>2018-05-03T12:00:55.000Z</time>
      </trkpt>
      <trkpt lat="43.77914" lon="7.08171">
        <ele>681</ele>
        <time>2018-05-03T12:00:56.000Z</time>
      </trkpt>
      <trkpt lat="43.77917" lon="7.08172">
        <ele>678</ele>
        <time>2018-05-03T12:01:01.000Z</time>
      </trkpt>
      <trkpt lat="43.77918" lon="7.08172">
        <ele>678</ele>
        <time>2018-05-03T12:01:07.000Z</time>
      </trkpt>
      <trkpt lat="43.77919" lon="7.08172">
        <ele>678</ele>
        <time>2018-05-03T12:01:08.000Z</time>
      </trkpt>
      <trkpt lat="43.77918" lon="7.08172">
        <ele>678</ele>
        <time>2018-05-03T12:01:11.000Z</time>
      </trkpt>
      <trkpt lat="43.77919" lon="7.08171">
        <ele>678</ele>
        <time>2018-05-03T12:01:16.000Z</time>
      </trkpt>
      <trkpt lat="43.7792" lon="7.08171">
        <ele>678</ele>
        <time>2018-05-03T12:01:17.000Z</time>
      </trkpt>
      <trkpt lat="43.77922" lon="7.08172">
        <ele>678</ele>
        <time>2018-05-03T12:01:25.000Z</time>
      </trkpt>
      <trkpt lat="43.77922" lon="7.08172">
        <ele>678</ele>
        <time>2018-05-03T12:01:26.000Z</time>
      </trkpt>
      <trkpt lat="43.77925" lon="7.08176">
        <ele>680</ele>
        <time>2018-05-03T12:01:32.000Z</time>
      </trkpt>
      <trkpt lat="43.77926" lon="7.08177">
        <ele>680</ele>
        <time>2018-05-03T12:01:40.000Z</time>
      </trkpt>
      <trkpt lat="43.77926" lon="7.08178">
        <ele>680</ele>
        <time>2018-05-03T12:01:50.000Z</time>
      </trkpt>
      <trkpt lat="43.77927" lon="7.0818">
        <ele>680</ele>
        <time>2018-05-03T12:01:59.000Z</time>
      </trkpt>
      <trkpt lat="43.77928" lon="7.0818">
        <ele>681</ele>
        <time>2018-05-03T12:02:06.000Z</time>
      </trkpt>
      <trkpt lat="43.77928" lon="7.0818">
        <ele>681</ele>
        <time>2018-05-03T12:02:08.000Z</time>
      </trkpt>
      <trkpt lat="43.77928" lon="7.08181">
        <ele>681</ele>
        <time>2018-05-03T12:02:14.000Z</time>
      </trkpt>
      <trkpt lat="43.77927" lon="7.08181">
        <ele>681</ele>
        <time>2018-05-03T12:02:22.000Z</time>
      </trkpt>
      <trkpt lat="43.77927" lon="7.08182">
        <ele>681</ele>
        <time>2018-05-03T12:02:28.000Z</time>
      </trkpt>
      <trkpt lat="43.77928" lon="7.08182">
        <ele>681</ele>
        <time>2018-05-03T12:02:32.000Z</time>
      </trkpt>
      <trkpt lat="43.77927" lon="7.08182">
        <ele>681</ele>
        <time>2018-05-03T12:02:45.000Z</time>
      </trkpt>
      <trkpt lat="43.77928" lon="7.08182">
        <ele>681</ele>
        <time>2018-05-03T12:02:55.000Z</time>
      </trkpt>
      <trkpt lat="43.77929" lon="7.08183">
        <ele>681</ele>
        <time>2018-05-03T12:03:05.000Z</time>
      </trkpt>
      <trkpt lat="43.77929" lon="7.08185">
        <ele>681</ele>
        <time>2018-05-03T12:03:13.000Z</time>
      </trkpt>
      <trkpt lat="43.7793" lon="7.08185">
        <ele>681</ele>
        <time>2018-05-03T12:03:24.000Z</time>
      </trkpt>
      <trkpt lat="43.7793" lon="7.08184">
        <ele>681</ele>
        <time>2018-05-03T12:03:32.000Z</time>
      </trkpt>
      <trkpt lat="43.77932" lon="7.08187">
        <ele>682</ele>
        <time>2018-05-03T12:03:35.000Z</time>
      </trkpt>
      <trkpt lat="43.77932" lon="7.08187">
        <ele>682</ele>
        <time>2018-05-03T12:03:38.000Z</time>
      </trkpt>
      <trkpt lat="43.77932" lon="7.08187">
        <ele>682</ele>
        <time>2018-05-03T12:03:48.000Z</time>
      </trkpt>
      <trkpt lat="43.77932" lon="7.08187">
        <ele>682</ele>
        <time>2018-05-03T12:04:03.000Z</time>
      </trkpt>
      <trkpt lat="43.77934" lon="7.0819">
        <ele>682</ele>
        <time>2018-05-03T12:04:20.000Z</time>
      </trkpt>
      <trkpt lat="43.77934" lon="7.08192">
        <ele>682</ele>
        <time>2018-05-03T12:04:35.000Z</time>
      </trkpt>
      <trkpt lat="43.77935" lon="7.08194">
        <ele>682</ele>
        <time>2018-05-03T12:04:39.000Z</time>
      </trkpt>
      <trkpt lat="43.77935" lon="7.08195">
        <ele>682</ele>
        <time>2018-05-03T12:04:40.000Z</time>
      </trkpt>
      <trkpt lat="43.77935" lon="7.08197">
        <ele>683</ele>
        <time>2018-05-03T12:04:43.000Z</time>
      </trkpt>
      <trkpt lat="43.77936" lon="7.08203">
        <ele>683</ele>
        <time>2018-05-03T12:04:46.000Z</time>
      </trkpt>
      <trkpt lat="43.77939" lon="7.08214">
        <ele>683</ele>
        <time>2018-05-03T12:04:51.000Z</time>
      </trkpt>
      <trkpt lat="43.77935" lon="7.0822">
        <ele>683</ele>
        <time>2018-05-03T12:04:54.000Z</time>
      </trkpt>
      <trkpt lat="43.77933" lon="7.08225">
        <ele>682</ele>
        <time>2018-05-03T12:04:57.000Z</time>
      </trkpt>
      <trkpt lat="43.77938" lon="7.08235">
        <ele>682</ele>
        <time>2018-05-03T12:05:01.000Z</time>
      </trkpt>
      <trkpt lat="43.77939" lon="7.08237">
        <ele>682</ele>
        <time>2018-05-03T12:05:02.000Z</time>
      </trkpt>
      <trkpt lat="43.77939" lon="7.08241">
        <ele>682</ele>
        <time>2018-05-03T12:05:03.000Z</time>
      </trkpt>
      <trkpt lat="43.77944" lon="7.08248">
        <ele>682</ele>
        <time>2018-05-03T12:05:06.000Z</time>
      </trkpt>
      <trkpt lat="43.77955" lon="7.08251">
        <ele>682</ele>
        <time>2018-05-03T12:05:11.000Z</time>
      </trkpt>
      <trkpt lat="43.77959" lon="7.08256">
        <ele>682</ele>
        <time>2018-05-03T12:05:15.000Z</time>
      </trkpt>
      <trkpt lat="43.77959" lon="7.08257">
        <ele>682</ele>
        <time>2018-05-03T12:05:16.000Z</time>
      </trkpt>
      <trkpt lat="43.77959" lon="7.08269">
        <ele>682</ele>
        <time>2018-05-03T12:05:20.000Z</time>
      </trkpt>
      <trkpt lat="43.77961" lon="7.08273">
        <ele>682</ele>
        <time>2018-05-03T12:05:22.000Z</time>
      </trkpt>
      <trkpt lat="43.77963" lon="7.08279">
        <ele>682</ele>
        <time>2018-05-03T12:05:24.000Z</time>
      </trkpt>
      <trkpt lat="43.77967" lon="7.08289">
        <ele>682</ele>
        <time>2018-05-03T12:05:28.000Z</time>
      </trkpt>
      <trkpt lat="43.77968" lon="7.0829">
        <ele>682</ele>
        <time>2018-05-03T12:05:29.000Z</time>
      </trkpt>
      <trkpt lat="43.77968" lon="7.08293">
        <ele>682</ele>
        <time>2018-05-03T12:05:34.000Z</time>
      </trkpt>
      <trkpt lat="43.77969" lon="7.083">
        <ele>682</ele>
        <time>2018-05-03T12:05:41.000Z</time>
      </trkpt>
      <trkpt lat="43.7797" lon="7.08302">
        <ele>681</ele>
        <time>2018-05-03T12:05:47.000Z</time>
      </trkpt>
      <trkpt lat="43.77971" lon="7.08305">
        <ele>681</ele>
        <time>2018-05-03T12:05:55.000Z</time>
      </trkpt>
      <trkpt lat="43.77972" lon="7.08305">
        <ele>681</ele>
        <time>2018-05-03T12:05:57.000Z</time>
      </trkpt>
      <trkpt lat="43.77973" lon="7.08307">
        <ele>681</ele>
        <time>2018-05-03T12:06:02.000Z</time>
      </trkpt>
      <trkpt lat="43.77973" lon="7.08311">
        <ele>681</ele>
        <time>2018-05-03T12:06:06.000Z</time>
      </trkpt>
      <trkpt lat="43.77974" lon="7.08314">
        <ele>681</ele>
        <time>2018-05-03T12:06:09.000Z</time>
      </trkpt>
      <trkpt lat="43.77974" lon="7.08321">
        <ele>681</ele>
        <time>2018-05-03T12:06:16.000Z</time>
      </trkpt>
      <trkpt lat="43.77975" lon="7.08325">
        <ele>681</ele>
        <time>2018-05-03T12:06:23.000Z</time>
      </trkpt>
      <trkpt lat="43.77975" lon="7.08329">
        <ele>680</ele>
        <time>2018-05-03T12:06:28.000Z</time>
      </trkpt>
      <trkpt lat="43.77975" lon="7.08333">
        <ele>680</ele>
        <time>2018-05-03T12:06:31.000Z</time>
      </trkpt>
      <trkpt lat="43.77975" lon="7.08335">
        <ele>679</ele>
        <time>2018-05-03T12:06:33.000Z</time>
      </trkpt>
      <trkpt lat="43.77975" lon="7.0834">
        <ele>679</ele>
        <time>2018-05-03T12:06:38.000Z</time>
      </trkpt>
      <trkpt lat="43.77977" lon="7.08344">
        <ele>679</ele>
        <time>2018-05-03T12:06:42.000Z</time>
      </trkpt>
      <trkpt lat="43.77978" lon="7.08346">
        <ele>679</ele>
        <time>2018-05-03T12:06:44.000Z</time>
      </trkpt>
      <trkpt lat="43.77981" lon="7.08353">
        <ele>679</ele>
        <time>2018-05-03T12:06:51.000Z</time>
      </trkpt>
      <trkpt lat="43.77983" lon="7.0836">
        <ele>679</ele>
        <time>2018-05-03T12:06:58.000Z</time>
      </trkpt>
      <trkpt lat="43.77983" lon="7.08361">
        <ele>679</ele>
        <time>2018-05-03T12:06:59.000Z</time>
      </trkpt>
      <trkpt lat="43.77986" lon="7.08364">
        <ele>679</ele>
        <time>2018-05-03T12:07:05.000Z</time>
      </trkpt>
      <trkpt lat="43.77986" lon="7.08372">
        <ele>679</ele>
        <time>2018-05-03T12:07:11.000Z</time>
      </trkpt>
      <trkpt lat="43.77986" lon="7.08379">
        <ele>678</ele>
        <time>2018-05-03T12:07:13.000Z</time>
      </trkpt>
      <trkpt lat="43.7799" lon="7.08385">
        <ele>678</ele>
        <time>2018-05-03T12:07:15.000Z</time>
      </trkpt>
      <trkpt lat="43.77992" lon="7.08389">
        <ele>677</ele>
        <time>2018-05-03T12:07:16.000Z</time>
      </trkpt>
      <trkpt lat="43.77994" lon="7.08394">
        <ele>677</ele>
        <time>2018-05-03T12:07:17.000Z</time>
      </trkpt>
      <trkpt lat="43.77997" lon="7.08402">
        <ele>675</ele>
        <time>2018-05-03T12:07:19.000Z</time>
      </trkpt>
      <trkpt lat="43.77997" lon="7.08407">
        <ele>674</ele>
        <time>2018-05-03T12:07:20.000Z</time>
      </trkpt>
      <trkpt lat="43.77994" lon="7.08416">
        <ele>673</ele>
        <time>2018-05-03T12:07:22.000Z</time>
      </trkpt>
      <trkpt lat="43.77988" lon="7.08432">
        <ele>675</ele>
        <time>2018-05-03T12:07:26.000Z</time>
      </trkpt>
      <trkpt lat="43.7799" lon="7.0845">
        <ele>675</ele>
        <time>2018-05-03T12:07:30.000Z</time>
      </trkpt>
      <trkpt lat="43.77992" lon="7.08459">
        <ele>675</ele>
        <time>2018-05-03T12:07:32.000Z</time>
      </trkpt>
      <trkpt lat="43.77993" lon="7.08468">
        <ele>674</ele>
        <time>2018-05-03T12:07:35.000Z</time>
      </trkpt>
      <trkpt lat="43.77991" lon="7.08482">
        <ele>672</ele>
        <time>2018-05-03T12:07:40.000Z</time>
      </trkpt>
      <trkpt lat="43.77983" lon="7.085">
        <ele>672</ele>
        <time>2018-05-03T12:07:45.000Z</time>
      </trkpt>
      <trkpt lat="43.77981" lon="7.08504">
        <ele>672</ele>
        <time>2018-05-03T12:07:46.000Z</time>
      </trkpt>
      <trkpt lat="43.77977" lon="7.08521">
        <ele>675</ele>
        <time>2018-05-03T12:07:50.000Z</time>
      </trkpt>
      <trkpt lat="43.77974" lon="7.0854">
        <ele>676</ele>
        <time>2018-05-03T12:07:54.000Z</time>
      </trkpt>
      <trkpt lat="43.77981" lon="7.08558">
        <ele>674</ele>
        <time>2018-05-03T12:07:58.000Z</time>
      </trkpt>
      <trkpt lat="43.77994" lon="7.08581">
        <ele>665</ele>
        <time>2018-05-03T12:08:03.000Z</time>
      </trkpt>
      <trkpt lat="43.78005" lon="7.086">
        <ele>661</ele>
        <time>2018-05-03T12:08:06.000Z</time>
      </trkpt>
      <trkpt lat="43.7801" lon="7.08605">
        <ele>662</ele>
        <time>2018-05-03T12:08:07.000Z</time>
      </trkpt>
      <trkpt lat="43.78017" lon="7.08608">
        <ele>662</ele>
        <time>2018-05-03T12:08:08.000Z</time>
      </trkpt>
      <trkpt lat="43.7803" lon="7.0861">
        <ele>662</ele>
        <time>2018-05-03T12:08:10.000Z</time>
      </trkpt>
      <trkpt lat="43.78036" lon="7.08611">
        <ele>662</ele>
        <time>2018-05-03T12:08:11.000Z</time>
      </trkpt>
      <trkpt lat="43.78043" lon="7.08612">
        <ele>663</ele>
        <time>2018-05-03T12:08:12.000Z</time>
      </trkpt>
      <trkpt lat="43.78054" lon="7.08617">
        <ele>663</ele>
        <time>2018-05-03T12:08:14.000Z</time>
      </trkpt>
      <trkpt lat="43.78059" lon="7.08622">
        <ele>662</ele>
        <time>2018-05-03T12:08:15.000Z</time>
      </trkpt>
      <trkpt lat="43.78068" lon="7.08641">
        <ele>660</ele>
        <time>2018-05-03T12:08:18.000Z</time>
      </trkpt>
      <trkpt lat="43.78071" lon="7.08655">
        <ele>658</ele>
        <time>2018-05-03T12:08:20.000Z</time>
      </trkpt>
      <trkpt lat="43.78074" lon="7.08668">
        <ele>655</ele>
        <time>2018-05-03T12:08:22.000Z</time>
      </trkpt>
      <trkpt lat="43.78075" lon="7.0868">
        <ele>655</ele>
        <time>2018-05-03T12:08:24.000Z</time>
      </trkpt>
      <trkpt lat="43.78077" lon="7.08692">
        <ele>656</ele>
        <time>2018-05-03T12:08:26.000Z</time>
      </trkpt>
      <trkpt lat="43.7808" lon="7.08712">
        <ele>656</ele>
        <time>2018-05-03T12:08:29.000Z</time>
      </trkpt>
      <trkpt lat="43.7808" lon="7.08718">
        <ele>655</ele>
        <time>2018-05-03T12:08:30.000Z</time>
      </trkpt>
      <trkpt lat="43.78079" lon="7.08728">
        <ele>654</ele>
        <time>2018-05-03T12:08:33.000Z</time>
      </trkpt>
      <trkpt lat="43.78079" lon="7.08736">
        <ele>652</ele>
        <time>2018-05-03T12:08:36.000Z</time>
      </trkpt>
      <trkpt lat="43.78079" lon="7.08738">
        <ele>652</ele>
        <time>2018-05-03T12:08:37.000Z</time>
      </trkpt>
      <trkpt lat="43.7808" lon="7.0874">
        <ele>651</ele>
        <time>2018-05-03T12:08:38.000Z</time>
      </trkpt>
      <trkpt lat="43.78082" lon="7.08751">
        <ele>648</ele>
        <time>2018-05-03T12:08:42.000Z</time>
      </trkpt>
      <trkpt lat="43.78088" lon="7.08765">
        <ele>648</ele>
        <time>2018-05-03T12:08:46.000Z</time>
      </trkpt>
      <trkpt lat="43.781" lon="7.08773">
        <ele>648</ele>
        <time>2018-05-03T12:08:49.000Z</time>
      </trkpt>
      <trkpt lat="43.78104" lon="7.08778">
        <ele>648</ele>
        <time>2018-05-03T12:08:50.000Z</time>
      </trkpt>
      <trkpt lat="43.78107" lon="7.08785">
        <ele>649</ele>
        <time>2018-05-03T12:08:51.000Z</time>
      </trkpt>
      <trkpt lat="43.78113" lon="7.08797">
        <ele>649</ele>
        <time>2018-05-03T12:08:53.000Z</time>
      </trkpt>
      <trkpt lat="43.7812" lon="7.08798">
        <ele>649</ele>
        <time>2018-05-03T12:08:55.000Z</time>
      </trkpt>
      <trkpt lat="43.78122" lon="7.08796">
        <ele>649</ele>
        <time>2018-05-03T12:08:56.000Z</time>
      </trkpt>
      <trkpt lat="43.78125" lon="7.08795">
        <ele>649</ele>
        <time>2018-05-03T12:08:58.000Z</time>
      </trkpt>
      <trkpt lat="43.78126" lon="7.08796">
        <ele>649</ele>
        <time>2018-05-03T12:09:01.000Z</time>
      </trkpt>
      <trkpt lat="43.7813" lon="7.08797">
        <ele>649</ele>
        <time>2018-05-03T12:09:08.000Z</time>
      </trkpt>
      <trkpt lat="43.78132" lon="7.08799">
        <ele>649</ele>
        <time>2018-05-03T12:09:14.000Z</time>
      </trkpt>
      <trkpt lat="43.78134" lon="7.088">
        <ele>649</ele>
        <time>2018-05-03T12:09:18.000Z</time>
      </trkpt>
      <trkpt lat="43.78136" lon="7.088">
        <ele>649</ele>
        <time>2018-05-03T12:09:21.000Z</time>
      </trkpt>
      <trkpt lat="43.7814" lon="7.08801">
        <ele>649</ele>
        <time>2018-05-03T12:09:26.000Z</time>
      </trkpt>
      <trkpt lat="43.78141" lon="7.08802">
        <ele>649</ele>
        <time>2018-05-03T12:09:28.000Z</time>
      </trkpt>
      <trkpt lat="43.78143" lon="7.08802">
        <ele>650</ele>
        <time>2018-05-03T12:09:31.000Z</time>
      </trkpt>
      <trkpt lat="43.78146" lon="7.08802">
        <ele>650</ele>
        <time>2018-05-03T12:09:36.000Z</time>
      </trkpt>
      <trkpt lat="43.78147" lon="7.08802">
        <ele>650</ele>
        <time>2018-05-03T12:09:37.000Z</time>
      </trkpt>
      <trkpt lat="43.78151" lon="7.08804">
        <ele>650</ele>
        <time>2018-05-03T12:09:44.000Z</time>
      </trkpt>
      <trkpt lat="43.78151" lon="7.08805">
        <ele>650</ele>
        <time>2018-05-03T12:09:45.000Z</time>
      </trkpt>
      <trkpt lat="43.78154" lon="7.08808">
        <ele>650</ele>
        <time>2018-05-03T12:09:51.000Z</time>
      </trkpt>
      <trkpt lat="43.78154" lon="7.0881">
        <ele>650</ele>
        <time>2018-05-03T12:09:53.000Z</time>
      </trkpt>
      <trkpt lat="43.78153" lon="7.08814">
        <ele>650</ele>
        <time>2018-05-03T12:09:57.000Z</time>
      </trkpt>
      <trkpt lat="43.78153" lon="7.08817">
        <ele>650</ele>
        <time>2018-05-03T12:10:01.000Z</time>
      </trkpt>
      <trkpt lat="43.78153" lon="7.0882">
        <ele>650</ele>
        <time>2018-05-03T12:10:04.000Z</time>
      </trkpt>
      <trkpt lat="43.78153" lon="7.08824">
        <ele>650</ele>
        <time>2018-05-03T12:10:09.000Z</time>
      </trkpt>
      <trkpt lat="43.78153" lon="7.08825">
        <ele>651</ele>
        <time>2018-05-03T12:10:11.000Z</time>
      </trkpt>
      <trkpt lat="43.78153" lon="7.08829">
        <ele>651</ele>
        <time>2018-05-03T12:10:15.000Z</time>
      </trkpt>
      <trkpt lat="43.78154" lon="7.08835">
        <ele>652</ele>
        <time>2018-05-03T12:10:21.000Z</time>
      </trkpt>
      <trkpt lat="43.78153" lon="7.08842">
        <ele>652</ele>
        <time>2018-05-03T12:10:28.000Z</time>
      </trkpt>
      <trkpt lat="43.78153" lon="7.08844">
        <ele>652</ele>
        <time>2018-05-03T12:10:30.000Z</time>
      </trkpt>
      <trkpt lat="43.78152" lon="7.0885">
        <ele>652</ele>
        <time>2018-05-03T12:10:37.000Z</time>
      </trkpt>
      <trkpt lat="43.78154" lon="7.08856">
        <ele>652</ele>
        <time>2018-05-03T12:10:43.000Z</time>
      </trkpt>
      <trkpt lat="43.78154" lon="7.08858">
        <ele>652</ele>
        <time>2018-05-03T12:10:45.000Z</time>
      </trkpt>
      <trkpt lat="43.78155" lon="7.08863">
        <ele>652</ele>
        <time>2018-05-03T12:10:50.000Z</time>
      </trkpt>
      <trkpt lat="43.78156" lon="7.08868">
        <ele>653</ele>
        <time>2018-05-03T12:10:55.000Z</time>
      </trkpt>
      <trkpt lat="43.78156" lon="7.08869">
        <ele>653</ele>
        <time>2018-05-03T12:10:56.000Z</time>
      </trkpt>
      <trkpt lat="43.78158" lon="7.08877">
        <ele>653</ele>
        <time>2018-05-03T12:11:03.000Z</time>
      </trkpt>
      <trkpt lat="43.7816" lon="7.08882">
        <ele>653</ele>
        <time>2018-05-03T12:11:09.000Z</time>
      </trkpt>
      <trkpt lat="43.78161" lon="7.08885">
        <ele>653</ele>
        <time>2018-05-03T12:11:12.000Z</time>
      </trkpt>
      <trkpt lat="43.78163" lon="7.08888">
        <ele>654</ele>
        <time>2018-05-03T12:11:16.000Z</time>
      </trkpt>
      <trkpt lat="43.78164" lon="7.08892">
        <ele>654</ele>
        <time>2018-05-03T12:11:22.000Z</time>
      </trkpt>
      <trkpt lat="43.78164" lon="7.08891">
        <ele>654</ele>
        <time>2018-05-03T12:11:24.000Z</time>
      </trkpt>
      <trkpt lat="43.78165" lon="7.08892">
        <ele>654</ele>
        <time>2018-05-03T12:11:30.000Z</time>
      </trkpt>
      <trkpt lat="43.78166" lon="7.08893">
        <ele>654</ele>
        <time>2018-05-03T12:11:40.000Z</time>
      </trkpt>
      <trkpt lat="43.78167" lon="7.08896">
        <ele>663</ele>
        <time>2018-05-03T12:11:45.000Z</time>
      </trkpt>
      <trkpt lat="43.78167" lon="7.08897">
        <ele>663</ele>
        <time>2018-05-03T12:11:47.000Z</time>
      </trkpt>
      <trkpt lat="43.78168" lon="7.08898">
        <ele>663</ele>
        <time>2018-05-03T12:11:49.000Z</time>
      </trkpt>
      <trkpt lat="43.7817" lon="7.08902">
        <ele>663</ele>
        <time>2018-05-03T12:11:52.000Z</time>
      </trkpt>
      <trkpt lat="43.7817" lon="7.08904">
        <ele>662</ele>
        <time>2018-05-03T12:11:54.000Z</time>
      </trkpt>
      <trkpt lat="43.78172" lon="7.08907">
        <ele>662</ele>
        <time>2018-05-03T12:11:56.000Z</time>
      </trkpt>
      <trkpt lat="43.78175" lon="7.08913">
        <ele>661</ele>
        <time>2018-05-03T12:12:00.000Z</time>
      </trkpt>
      <trkpt lat="43.78177" lon="7.08918">
        <ele>663</ele>
        <time>2018-05-03T12:12:04.000Z</time>
      </trkpt>
      <trkpt lat="43.78179" lon="7.08922">
        <ele>663</ele>
        <time>2018-05-03T12:12:06.000Z</time>
      </trkpt>
      <trkpt lat="43.78183" lon="7.08932">
        <ele>666</ele>
        <time>2018-05-03T12:12:12.000Z</time>
      </trkpt>
      <trkpt lat="43.78184" lon="7.08936">
        <ele>666</ele>
        <time>2018-05-03T12:12:14.000Z</time>
      </trkpt>
      <trkpt lat="43.78185" lon="7.08943">
        <ele>667</ele>
        <time>2018-05-03T12:12:18.000Z</time>
      </trkpt>
      <trkpt lat="43.78186" lon="7.08947">
        <ele>667</ele>
        <time>2018-05-03T12:12:20.000Z</time>
      </trkpt>
      <trkpt lat="43.78188" lon="7.08954">
        <ele>668</ele>
        <time>2018-05-03T12:12:24.000Z</time>
      </trkpt>
      <trkpt lat="43.7819" lon="7.0896">
        <ele>668</ele>
        <time>2018-05-03T12:12:27.000Z</time>
      </trkpt>
      <trkpt lat="43.78192" lon="7.08965">
        <ele>668</ele>
        <time>2018-05-03T12:12:30.000Z</time>
      </trkpt>
      <trkpt lat="43.78196" lon="7.08974">
        <ele>669</ele>
        <time>2018-05-03T12:12:35.000Z</time>
      </trkpt>
      <trkpt lat="43.78197" lon="7.08976">
        <ele>669</ele>
        <time>2018-05-03T12:12:36.000Z</time>
      </trkpt>
      <trkpt lat="43.78202" lon="7.08985">
        <ele>669</ele>
        <time>2018-05-03T12:12:41.000Z</time>
      </trkpt>
      <trkpt lat="43.78205" lon="7.08991">
        <ele>670</ele>
        <time>2018-05-03T12:12:44.000Z</time>
      </trkpt>
      <trkpt lat="43.78208" lon="7.08997">
        <ele>671</ele>
        <time>2018-05-03T12:12:47.000Z</time>
      </trkpt>
      <trkpt lat="43.78211" lon="7.09004">
        <ele>672</ele>
        <time>2018-05-03T12:12:50.000Z</time>
      </trkpt>
      <trkpt lat="43.78215" lon="7.09015">
        <ele>673</ele>
        <time>2018-05-03T12:12:55.000Z</time>
      </trkpt>
      <trkpt lat="43.78216" lon="7.09017">
        <ele>673</ele>
        <time>2018-05-03T12:12:56.000Z</time>
      </trkpt>
      <trkpt lat="43.7822" lon="7.09027">
        <ele>674</ele>
        <time>2018-05-03T12:13:01.000Z</time>
      </trkpt>
      <trkpt lat="43.78221" lon="7.09032">
        <ele>674</ele>
        <time>2018-05-03T12:13:03.000Z</time>
      </trkpt>
      <trkpt lat="43.78222" lon="7.09041">
        <ele>674</ele>
        <time>2018-05-03T12:13:06.000Z</time>
      </trkpt>
      <trkpt lat="43.78219" lon="7.09048">
        <ele>674</ele>
        <time>2018-05-03T12:13:09.000Z</time>
      </trkpt>
      <trkpt lat="43.78214" lon="7.09054">
        <ele>674</ele>
        <time>2018-05-03T12:13:13.000Z</time>
      </trkpt>
      <trkpt lat="43.78212" lon="7.09056">
        <ele>673</ele>
        <time>2018-05-03T12:13:15.000Z</time>
      </trkpt>
      <trkpt lat="43.7821" lon="7.09063">
        <ele>673</ele>
        <time>2018-05-03T12:13:18.000Z</time>
      </trkpt>
      <trkpt lat="43.78208" lon="7.09071">
        <ele>673</ele>
        <time>2018-05-03T12:13:21.000Z</time>
      </trkpt>
      <trkpt lat="43.78204" lon="7.0909">
        <ele>676</ele>
        <time>2018-05-03T12:13:29.000Z</time>
      </trkpt>
      <trkpt lat="43.782" lon="7.09106">
        <ele>677</ele>
        <time>2018-05-03T12:13:36.000Z</time>
      </trkpt>
      <trkpt lat="43.78199" lon="7.09111">
        <ele>677</ele>
        <time>2018-05-03T12:13:38.000Z</time>
      </trkpt>
      <trkpt lat="43.78199" lon="7.09117">
        <ele>677</ele>
        <time>2018-05-03T12:13:41.000Z</time>
      </trkpt>
      <trkpt lat="43.78199" lon="7.0912">
        <ele>677</ele>
        <time>2018-05-03T12:13:42.000Z</time>
      </trkpt>
      <trkpt lat="43.78199" lon="7.09122">
        <ele>678</ele>
        <time>2018-05-03T12:13:43.000Z</time>
      </trkpt>
      <trkpt lat="43.782" lon="7.09134">
        <ele>678</ele>
        <time>2018-05-03T12:13:48.000Z</time>
      </trkpt>
      <trkpt lat="43.782" lon="7.09137">
        <ele>678</ele>
        <time>2018-05-03T12:13:49.000Z</time>
      </trkpt>
      <trkpt lat="43.782" lon="7.09159">
        <ele>679</ele>
        <time>2018-05-03T12:13:57.000Z</time>
      </trkpt>
      <trkpt lat="43.782" lon="7.09161">
        <ele>679</ele>
        <time>2018-05-03T12:13:58.000Z</time>
      </trkpt>
      <trkpt lat="43.78198" lon="7.09177">
        <ele>685</ele>
        <time>2018-05-03T12:14:03.000Z</time>
      </trkpt>
      <trkpt lat="43.78197" lon="7.0918">
        <ele>685</ele>
        <time>2018-05-03T12:14:04.000Z</time>
      </trkpt>
      <trkpt lat="43.78196" lon="7.09192">
        <ele>686</ele>
        <time>2018-05-03T12:14:08.000Z</time>
      </trkpt>
      <trkpt lat="43.78197" lon="7.09204">
        <ele>687</ele>
        <time>2018-05-03T12:14:12.000Z</time>
      </trkpt>
      <trkpt lat="43.78198" lon="7.09217">
        <ele>688</ele>
        <time>2018-05-03T12:14:16.000Z</time>
      </trkpt>
      <trkpt lat="43.78197" lon="7.09224">
        <ele>688</ele>
        <time>2018-05-03T12:14:18.000Z</time>
      </trkpt>
      <trkpt lat="43.78194" lon="7.09247">
        <ele>686</ele>
        <time>2018-05-03T12:14:25.000Z</time>
      </trkpt>
      <trkpt lat="43.7819" lon="7.09271">
        <ele>692</ele>
        <time>2018-05-03T12:14:33.000Z</time>
      </trkpt>
      <trkpt lat="43.7819" lon="7.09278">
        <ele>693</ele>
        <time>2018-05-03T12:14:35.000Z</time>
      </trkpt>
      <trkpt lat="43.7819" lon="7.0929">
        <ele>694</ele>
        <time>2018-05-03T12:14:39.000Z</time>
      </trkpt>
      <trkpt lat="43.78189" lon="7.09312">
        <ele>693</ele>
        <time>2018-05-03T12:14:46.000Z</time>
      </trkpt>
      <trkpt lat="43.78189" lon="7.09315">
        <ele>693</ele>
        <time>2018-05-03T12:14:47.000Z</time>
      </trkpt>
      <trkpt lat="43.78187" lon="7.09328">
        <ele>691</ele>
        <time>2018-05-03T12:14:52.000Z</time>
      </trkpt>
      <trkpt lat="43.78186" lon="7.09333">
        <ele>691</ele>
        <time>2018-05-03T12:14:54.000Z</time>
      </trkpt>
      <trkpt lat="43.78187" lon="7.0934">
        <ele>692</ele>
        <time>2018-05-03T12:14:57.000Z</time>
      </trkpt>
      <trkpt lat="43.78188" lon="7.0935">
        <ele>693</ele>
        <time>2018-05-03T12:15:01.000Z</time>
      </trkpt>
      <trkpt lat="43.7819" lon="7.09355">
        <ele>694</ele>
        <time>2018-05-03T12:15:03.000Z</time>
      </trkpt>
      <trkpt lat="43.78195" lon="7.09368">
        <ele>696</ele>
        <time>2018-05-03T12:15:09.000Z</time>
      </trkpt>
      <trkpt lat="43.78201" lon="7.09381">
        <ele>698</ele>
        <time>2018-05-03T12:15:15.000Z</time>
      </trkpt>
      <trkpt lat="43.78206" lon="7.09388">
        <ele>699</ele>
        <time>2018-05-03T12:15:19.000Z</time>
      </trkpt>
      <trkpt lat="43.78208" lon="7.09392">
        <ele>699</ele>
        <time>2018-05-03T12:15:21.000Z</time>
      </trkpt>
      <trkpt lat="43.78213" lon="7.09403">
        <ele>701</ele>
        <time>2018-05-03T12:15:26.000Z</time>
      </trkpt>
      <trkpt lat="43.78213" lon="7.09405">
        <ele>701</ele>
        <time>2018-05-03T12:15:27.000Z</time>
      </trkpt>
      <trkpt lat="43.78217" lon="7.09422">
        <ele>698</ele>
        <time>2018-05-03T12:15:34.000Z</time>
      </trkpt>
      <trkpt lat="43.78218" lon="7.09424">
        <ele>698</ele>
        <time>2018-05-03T12:15:35.000Z</time>
      </trkpt>
      <trkpt lat="43.7822" lon="7.09436">
        <ele>698</ele>
        <time>2018-05-03T12:15:40.000Z</time>
      </trkpt>
      <trkpt lat="43.7822" lon="7.09444">
        <ele>697</ele>
        <time>2018-05-03T12:15:43.000Z</time>
      </trkpt>
      <trkpt lat="43.78221" lon="7.09451">
        <ele>697</ele>
        <time>2018-05-03T12:15:46.000Z</time>
      </trkpt>
      <trkpt lat="43.78222" lon="7.09462">
        <ele>696</ele>
        <time>2018-05-03T12:15:51.000Z</time>
      </trkpt>
      <trkpt lat="43.78225" lon="7.09479">
        <ele>697</ele>
        <time>2018-05-03T12:15:59.000Z</time>
      </trkpt>
      <trkpt lat="43.78228" lon="7.09488">
        <ele>699</ele>
        <time>2018-05-03T12:16:04.000Z</time>
      </trkpt>
      <trkpt lat="43.78228" lon="7.09492">
        <ele>699</ele>
        <time>2018-05-03T12:16:06.000Z</time>
      </trkpt>
      <trkpt lat="43.78231" lon="7.095">
        <ele>696</ele>
        <time>2018-05-03T12:16:10.000Z</time>
      </trkpt>
      <trkpt lat="43.78232" lon="7.09506">
        <ele>697</ele>
        <time>2018-05-03T12:16:13.000Z</time>
      </trkpt>
      <trkpt lat="43.78233" lon="7.0951">
        <ele>697</ele>
        <time>2018-05-03T12:16:15.000Z</time>
      </trkpt>
      <trkpt lat="43.78237" lon="7.09519">
        <ele>695</ele>
        <time>2018-05-03T12:16:20.000Z</time>
      </trkpt>
      <trkpt lat="43.78238" lon="7.09521">
        <ele>695</ele>
        <time>2018-05-03T12:16:21.000Z</time>
      </trkpt>
      <trkpt lat="43.78242" lon="7.0953">
        <ele>694</ele>
        <time>2018-05-03T12:16:26.000Z</time>
      </trkpt>
      <trkpt lat="43.78243" lon="7.09534">
        <ele>693</ele>
        <time>2018-05-03T12:16:28.000Z</time>
      </trkpt>
      <trkpt lat="43.78246" lon="7.09544">
        <ele>692</ele>
        <time>2018-05-03T12:16:33.000Z</time>
      </trkpt>
      <trkpt lat="43.78248" lon="7.09548">
        <ele>692</ele>
        <time>2018-05-03T12:16:35.000Z</time>
      </trkpt>
      <trkpt lat="43.78253" lon="7.09558">
        <ele>719</ele>
        <time>2018-05-03T12:16:40.000Z</time>
      </trkpt>
      <trkpt lat="43.78258" lon="7.09566">
        <ele>718</ele>
        <time>2018-05-03T12:16:44.000Z</time>
      </trkpt>
      <trkpt lat="43.78263" lon="7.09572">
        <ele>717</ele>
        <time>2018-05-03T12:16:48.000Z</time>
      </trkpt>
      <trkpt lat="43.78267" lon="7.09577">
        <ele>718</ele>
        <time>2018-05-03T12:16:51.000Z</time>
      </trkpt>
      <trkpt lat="43.78276" lon="7.09583">
        <ele>711</ele>
        <time>2018-05-03T12:16:57.000Z</time>
      </trkpt>
      <trkpt lat="43.78279" lon="7.09585">
        <ele>712</ele>
        <time>2018-05-03T12:16:59.000Z</time>
      </trkpt>
      <trkpt lat="43.78285" lon="7.09589">
        <ele>713</ele>
        <time>2018-05-03T12:17:03.000Z</time>
      </trkpt>
      <trkpt lat="43.78293" lon="7.09595">
        <ele>715</ele>
        <time>2018-05-03T12:17:08.000Z</time>
      </trkpt>
      <trkpt lat="43.78301" lon="7.09605">
        <ele>716</ele>
        <time>2018-05-03T12:17:14.000Z</time>
      </trkpt>
      <trkpt lat="43.78302" lon="7.09607">
        <ele>716</ele>
        <time>2018-05-03T12:17:15.000Z</time>
      </trkpt>
      <trkpt lat="43.78308" lon="7.09615">
        <ele>716</ele>
        <time>2018-05-03T12:17:20.000Z</time>
      </trkpt>
      <trkpt lat="43.78312" lon="7.09619">
        <ele>716</ele>
        <time>2018-05-03T12:17:23.000Z</time>
      </trkpt>
      <trkpt lat="43.78321" lon="7.09624">
        <ele>717</ele>
        <time>2018-05-03T12:17:28.000Z</time>
      </trkpt>
      <trkpt lat="43.78324" lon="7.09626">
        <ele>717</ele>
        <time>2018-05-03T12:17:30.000Z</time>
      </trkpt>
      <trkpt lat="43.78327" lon="7.09628">
        <ele>717</ele>
        <time>2018-05-03T12:17:32.000Z</time>
      </trkpt>
      <trkpt lat="43.78332" lon="7.09633">
        <ele>716</ele>
        <time>2018-05-03T12:17:36.000Z</time>
      </trkpt>
      <trkpt lat="43.78334" lon="7.09635">
        <ele>744</ele>
        <time>2018-05-03T12:17:37.000Z</time>
      </trkpt>
      <trkpt lat="43.78341" lon="7.09642">
        <ele>742</ele>
        <time>2018-05-03T12:17:42.000Z</time>
      </trkpt>
      <trkpt lat="43.78344" lon="7.09644">
        <ele>742</ele>
        <time>2018-05-03T12:17:44.000Z</time>
      </trkpt>
      <trkpt lat="43.78349" lon="7.09648">
        <ele>742</ele>
        <time>2018-05-03T12:17:48.000Z</time>
      </trkpt>
      <trkpt lat="43.78354" lon="7.09654">
        <ele>742</ele>
        <time>2018-05-03T12:17:52.000Z</time>
      </trkpt>
      <trkpt lat="43.78356" lon="7.09656">
        <ele>743</ele>
        <time>2018-05-03T12:17:54.000Z</time>
      </trkpt>
      <trkpt lat="43.78363" lon="7.09663">
        <ele>746</ele>
        <time>2018-05-03T12:17:59.000Z</time>
      </trkpt>
      <trkpt lat="43.78365" lon="7.09667">
        <ele>737</ele>
        <time>2018-05-03T12:18:01.000Z</time>
      </trkpt>
      <trkpt lat="43.78369" lon="7.09673">
        <ele>739</ele>
        <time>2018-05-03T12:18:05.000Z</time>
      </trkpt>
      <trkpt lat="43.78372" lon="7.09679">
        <ele>740</ele>
        <time>2018-05-03T12:18:08.000Z</time>
      </trkpt>
      <trkpt lat="43.78375" lon="7.09682">
        <ele>741</ele>
        <time>2018-05-03T12:18:10.000Z</time>
      </trkpt>
      <trkpt lat="43.78378" lon="7.09689">
        <ele>742</ele>
        <time>2018-05-03T12:18:14.000Z</time>
      </trkpt>
      <trkpt lat="43.7838" lon="7.09694">
        <ele>743</ele>
        <time>2018-05-03T12:18:17.000Z</time>
      </trkpt>
      <trkpt lat="43.78383" lon="7.09706">
        <ele>743</ele>
        <time>2018-05-03T12:18:22.000Z</time>
      </trkpt>
      <trkpt lat="43.78384" lon="7.0971">
        <ele>743</ele>
        <time>2018-05-03T12:18:24.000Z</time>
      </trkpt>
      <trkpt lat="43.78384" lon="7.09725">
        <ele>742</ele>
        <time>2018-05-03T12:18:31.000Z</time>
      </trkpt>
      <trkpt lat="43.78384" lon="7.09726">
        <ele>742</ele>
        <time>2018-05-03T12:18:32.000Z</time>
      </trkpt>
      <trkpt lat="43.78384" lon="7.09732">
        <ele>742</ele>
        <time>2018-05-03T12:18:36.000Z</time>
      </trkpt>
      <trkpt lat="43.78385" lon="7.09732">
        <ele>743</ele>
        <time>2018-05-03T12:18:37.000Z</time>
      </trkpt>
      <trkpt lat="43.78386" lon="7.09732">
        <ele>743</ele>
        <time>2018-05-03T12:18:44.000Z</time>
      </trkpt>
      <trkpt lat="43.78386" lon="7.09731">
        <ele>743</ele>
        <time>2018-05-03T12:18:53.000Z</time>
      </trkpt>
      <trkpt lat="43.78387" lon="7.0973">
        <ele>744</ele>
        <time>2018-05-03T12:19:07.000Z</time>
      </trkpt>
      <trkpt lat="43.78387" lon="7.09729">
        <ele>744</ele>
        <time>2018-05-03T12:19:24.000Z</time>
      </trkpt>
      <trkpt lat="43.78386" lon="7.09728">
        <ele>743</ele>
        <time>2018-05-03T12:19:42.000Z</time>
      </trkpt>
      <trkpt lat="43.78383" lon="7.09728">
        <ele>742</ele>
        <time>2018-05-03T12:20:05.000Z</time>
      </trkpt>
      <trkpt lat="43.78383" lon="7.09726">
        <ele>742</ele>
        <time>2018-05-03T12:20:28.000Z</time>
      </trkpt>
      <trkpt lat="43.78384" lon="7.09726">
        <ele>742</ele>
        <time>2018-05-03T12:20:35.000Z</time>
      </trkpt>
      <trkpt lat="43.78384" lon="7.09727">
        <ele>742</ele>
        <time>2018-05-03T12:20:45.000Z</time>
      </trkpt>
      <trkpt lat="43.78384" lon="7.09727">
        <ele>742</ele>
        <time>2018-05-03T12:20:55.000Z</time>
      </trkpt>
      <trkpt lat="43.78384" lon="7.09728">
        <ele>742</ele>
        <time>2018-05-03T12:20:56.000Z</time>
      </trkpt>
      <trkpt lat="43.78385" lon="7.09727">
        <ele>743</ele>
        <time>2018-05-03T12:21:05.000Z</time>
      </trkpt>
      <trkpt lat="43.78386" lon="7.09726">
        <ele>743</ele>
        <time>2018-05-03T12:21:09.000Z</time>
      </trkpt>
      <trkpt lat="43.78387" lon="7.09725">
        <ele>743</ele>
        <time>2018-05-03T12:21:10.000Z</time>
      </trkpt>
      <trkpt lat="43.7839" lon="7.09716">
        <ele>745</ele>
        <time>2018-05-03T12:21:17.000Z</time>
      </trkpt>
      <trkpt lat="43.78391" lon="7.09706">
        <ele>745</ele>
        <time>2018-05-03T12:21:22.000Z</time>
      </trkpt>
      <trkpt lat="43.78391" lon="7.09702">
        <ele>746</ele>
        <time>2018-05-03T12:21:24.000Z</time>
      </trkpt>
      <trkpt lat="43.78391" lon="7.09692">
        <ele>747</ele>
        <time>2018-05-03T12:21:29.000Z</time>
      </trkpt>
      <trkpt lat="43.7839" lon="7.09686">
        <ele>748</ele>
        <time>2018-05-03T12:21:32.000Z</time>
      </trkpt>
      <trkpt lat="43.78388" lon="7.09678">
        <ele>748</ele>
        <time>2018-05-03T12:21:36.000Z</time>
      </trkpt>
      <trkpt lat="43.78386" lon="7.0967">
        <ele>748</ele>
        <time>2018-05-03T12:21:40.000Z</time>
      </trkpt>
      <trkpt lat="43.78384" lon="7.09662">
        <ele>757</ele>
        <time>2018-05-03T12:21:44.000Z</time>
      </trkpt>
      <trkpt lat="43.7838" lon="7.09652">
        <ele>756</ele>
        <time>2018-05-03T12:21:49.000Z</time>
      </trkpt>
      <trkpt lat="43.78379" lon="7.0965">
        <ele>756</ele>
        <time>2018-05-03T12:21:50.000Z</time>
      </trkpt>
      <trkpt lat="43.78374" lon="7.09635">
        <ele>755</ele>
        <time>2018-05-03T12:21:58.000Z</time>
      </trkpt>
      <trkpt lat="43.78373" lon="7.09633">
        <ele>755</ele>
        <time>2018-05-03T12:21:59.000Z</time>
      </trkpt>
      <trkpt lat="43.78369" lon="7.0962">
        <ele>756</ele>
        <time>2018-05-03T12:22:06.000Z</time>
      </trkpt>
      <trkpt lat="43.78368" lon="7.09616">
        <ele>756</ele>
        <time>2018-05-03T12:22:08.000Z</time>
      </trkpt>
      <trkpt lat="43.78365" lon="7.0961">
        <ele>756</ele>
        <time>2018-05-03T12:22:12.000Z</time>
      </trkpt>
      <trkpt lat="43.78363" lon="7.09605">
        <ele>755</ele>
        <time>2018-05-03T12:22:15.000Z</time>
      </trkpt>
      <trkpt lat="43.78362" lon="7.096">
        <ele>755</ele>
        <time>2018-05-03T12:22:18.000Z</time>
      </trkpt>
      <trkpt lat="43.78361" lon="7.09595">
        <ele>755</ele>
        <time>2018-05-03T12:22:21.000Z</time>
      </trkpt>
      <trkpt lat="43.7836" lon="7.0959">
        <ele>755</ele>
        <time>2018-05-03T12:22:24.000Z</time>
      </trkpt>
      <trkpt lat="43.78357" lon="7.0958">
        <ele>766</ele>
        <time>2018-05-03T12:22:30.000Z</time>
      </trkpt>
      <trkpt lat="43.78356" lon="7.09576">
        <ele>766</ele>
        <time>2018-05-03T12:22:32.000Z</time>
      </trkpt>
      <trkpt lat="43.78351" lon="7.09562">
        <ele>767</ele>
        <time>2018-05-03T12:22:40.000Z</time>
      </trkpt>
      <trkpt lat="43.78347" lon="7.09549">
        <ele>770</ele>
        <time>2018-05-03T12:22:47.000Z</time>
      </trkpt>
      <trkpt lat="43.78344" lon="7.09543">
        <ele>770</ele>
        <time>2018-05-03T12:22:50.000Z</time>
      </trkpt>
      <trkpt lat="43.78339" lon="7.09532">
        <ele>771</ele>
        <time>2018-05-03T12:22:56.000Z</time>
      </trkpt>
      <trkpt lat="43.78338" lon="7.0953">
        <ele>771</ele>
        <time>2018-05-03T12:22:57.000Z</time>
      </trkpt>
      <trkpt lat="43.78331" lon="7.09518">
        <ele>747</ele>
        <time>2018-05-03T12:23:04.000Z</time>
      </trkpt>
      <trkpt lat="43.78328" lon="7.09514">
        <ele>749</ele>
        <time>2018-05-03T12:23:07.000Z</time>
      </trkpt>
      <trkpt lat="43.78325" lon="7.0951">
        <ele>750</ele>
        <time>2018-05-03T12:23:10.000Z</time>
      </trkpt>
      <trkpt lat="43.78321" lon="7.09503">
        <ele>750</ele>
        <time>2018-05-03T12:23:14.000Z</time>
      </trkpt>
      <trkpt lat="43.78318" lon="7.09499">
        <ele>754</ele>
        <time>2018-05-03T12:23:17.000Z</time>
      </trkpt>
      <trkpt lat="43.78314" lon="7.0949">
        <ele>751</ele>
        <time>2018-05-03T12:23:22.000Z</time>
      </trkpt>
      <trkpt lat="43.78312" lon="7.0948">
        <ele>749</ele>
        <time>2018-05-03T12:23:27.000Z</time>
      </trkpt>
      <trkpt lat="43.78311" lon="7.09471">
        <ele>749</ele>
        <time>2018-05-03T12:23:31.000Z</time>
      </trkpt>
      <trkpt lat="43.7831" lon="7.09455">
        <ele>749</ele>
        <time>2018-05-03T12:23:38.000Z</time>
      </trkpt>
      <trkpt lat="43.7831" lon="7.09448">
        <ele>750</ele>
        <time>2018-05-03T12:23:41.000Z</time>
      </trkpt>
      <trkpt lat="43.7831" lon="7.09444">
        <ele>751</ele>
        <time>2018-05-03T12:23:43.000Z</time>
      </trkpt>
      <trkpt lat="43.78309" lon="7.09434">
        <ele>752</ele>
        <time>2018-05-03T12:23:48.000Z</time>
      </trkpt>
      <trkpt lat="43.78309" lon="7.09432">
        <ele>752</ele>
        <time>2018-05-03T12:23:49.000Z</time>
      </trkpt>
      <trkpt lat="43.78307" lon="7.09418">
        <ele>753</ele>
        <time>2018-05-03T12:23:56.000Z</time>
      </trkpt>
      <trkpt lat="43.78307" lon="7.09414">
        <ele>755</ele>
        <time>2018-05-03T12:23:58.000Z</time>
      </trkpt>
      <trkpt lat="43.78306" lon="7.09403">
        <ele>754</ele>
        <time>2018-05-03T12:24:03.000Z</time>
      </trkpt>
      <trkpt lat="43.78306" lon="7.09399">
        <ele>753</ele>
        <time>2018-05-03T12:24:05.000Z</time>
      </trkpt>
      <trkpt lat="43.78307" lon="7.09386">
        <ele>752</ele>
        <time>2018-05-03T12:24:11.000Z</time>
      </trkpt>
      <trkpt lat="43.7831" lon="7.09369">
        <ele>752</ele>
        <time>2018-05-03T12:24:19.000Z</time>
      </trkpt>
      <trkpt lat="43.78315" lon="7.09358">
        <ele>754</ele>
        <time>2018-05-03T12:24:25.000Z</time>
      </trkpt>
      <trkpt lat="43.78316" lon="7.09354">
        <ele>754</ele>
        <time>2018-05-03T12:24:27.000Z</time>
      </trkpt>
      <trkpt lat="43.78321" lon="7.09341">
        <ele>758</ele>
        <time>2018-05-03T12:24:34.000Z</time>
      </trkpt>
      <trkpt lat="43.78325" lon="7.09332">
        <ele>759</ele>
        <time>2018-05-03T12:24:39.000Z</time>
      </trkpt>
      <trkpt lat="43.78327" lon="7.09326">
        <ele>758</ele>
        <time>2018-05-03T12:24:42.000Z</time>
      </trkpt>
      <trkpt lat="43.78331" lon="7.09315">
        <ele>753</ele>
        <time>2018-05-03T12:24:48.000Z</time>
      </trkpt>
      <trkpt lat="43.78332" lon="7.09313">
        <ele>753</ele>
        <time>2018-05-03T12:24:49.000Z</time>
      </trkpt>
      <trkpt lat="43.78338" lon="7.09299">
        <ele>776</ele>
        <time>2018-05-03T12:24:56.000Z</time>
      </trkpt>
      <trkpt lat="43.78339" lon="7.09297">
        <ele>776</ele>
        <time>2018-05-03T12:24:57.000Z</time>
      </trkpt>
      <trkpt lat="43.78343" lon="7.09285">
        <ele>775</ele>
        <time>2018-05-03T12:25:03.000Z</time>
      </trkpt>
      <trkpt lat="43.78344" lon="7.09281">
        <ele>774</ele>
        <time>2018-05-03T12:25:05.000Z</time>
      </trkpt>
      <trkpt lat="43.78348" lon="7.09271">
        <ele>772</ele>
        <time>2018-05-03T12:25:10.000Z</time>
      </trkpt>
      <trkpt lat="43.7835" lon="7.09264">
        <ele>771</ele>
        <time>2018-05-03T12:25:14.000Z</time>
      </trkpt>
      <trkpt lat="43.78353" lon="7.09259">
        <ele>771</ele>
        <time>2018-05-03T12:25:17.000Z</time>
      </trkpt>
      <trkpt lat="43.78356" lon="7.09252">
        <ele>771</ele>
        <time>2018-05-03T12:25:21.000Z</time>
      </trkpt>
      <trkpt lat="43.78357" lon="7.09251">
        <ele>772</ele>
        <time>2018-05-03T12:25:22.000Z</time>
      </trkpt>
      <trkpt lat="43.78361" lon="7.09242">
        <ele>763</ele>
        <time>2018-05-03T12:25:28.000Z</time>
      </trkpt>
      <trkpt lat="43.78363" lon="7.09239">
        <ele>763</ele>
        <time>2018-05-03T12:25:30.000Z</time>
      </trkpt>
      <trkpt lat="43.78369" lon="7.09229">
        <ele>764</ele>
        <time>2018-05-03T12:25:36.000Z</time>
      </trkpt>
      <trkpt lat="43.7837" lon="7.09228">
        <ele>764</ele>
        <time>2018-05-03T12:25:37.000Z</time>
      </trkpt>
      <trkpt lat="43.78375" lon="7.09221">
        <ele>765</ele>
        <time>2018-05-03T12:25:42.000Z</time>
      </trkpt>
      <trkpt lat="43.78377" lon="7.09218">
        <ele>765</ele>
        <time>2018-05-03T12:25:44.000Z</time>
      </trkpt>
      <trkpt lat="43.78384" lon="7.0921">
        <ele>766</ele>
        <time>2018-05-03T12:25:51.000Z</time>
      </trkpt>
      <trkpt lat="43.78385" lon="7.09209">
        <ele>766</ele>
        <time>2018-05-03T12:25:52.000Z</time>
      </trkpt>
      <trkpt lat="43.78392" lon="7.09202">
        <ele>766</ele>
        <time>2018-05-03T12:25:59.000Z</time>
      </trkpt>
      <trkpt lat="43.78399" lon="7.09194">
        <ele>766</ele>
        <time>2018-05-03T12:26:06.000Z</time>
      </trkpt>
      <trkpt lat="43.78407" lon="7.09187">
        <ele>767</ele>
        <time>2018-05-03T12:26:13.000Z</time>
      </trkpt>
      <trkpt lat="43.7841" lon="7.09185">
        <ele>767</ele>
        <time>2018-05-03T12:26:15.000Z</time>
      </trkpt>
      <trkpt lat="43.7842" lon="7.09178">
        <ele>779</ele>
        <time>2018-05-03T12:26:23.000Z</time>
      </trkpt>
      <trkpt lat="43.7843" lon="7.09172">
        <ele>781</ele>
        <time>2018-05-03T12:26:30.000Z</time>
      </trkpt>
      <trkpt lat="43.78432" lon="7.0917">
        <ele>782</ele>
        <time>2018-05-03T12:26:32.000Z</time>
      </trkpt>
      <trkpt lat="43.78439" lon="7.09166">
        <ele>774</ele>
        <time>2018-05-03T12:26:37.000Z</time>
      </trkpt>
      <trkpt lat="43.78444" lon="7.09162">
        <ele>775</ele>
        <time>2018-05-03T12:26:41.000Z</time>
      </trkpt>
      <trkpt lat="43.78448" lon="7.09159">
        <ele>776</ele>
        <time>2018-05-03T12:26:44.000Z</time>
      </trkpt>
      <trkpt lat="43.78452" lon="7.09156">
        <ele>777</ele>
        <time>2018-05-03T12:26:47.000Z</time>
      </trkpt>
      <trkpt lat="43.78458" lon="7.09151">
        <ele>778</ele>
        <time>2018-05-03T12:26:52.000Z</time>
      </trkpt>
      <trkpt lat="43.78461" lon="7.09148">
        <ele>778</ele>
        <time>2018-05-03T12:26:55.000Z</time>
      </trkpt>
      <trkpt lat="43.78466" lon="7.09145">
        <ele>779</ele>
        <time>2018-05-03T12:26:59.000Z</time>
      </trkpt>
      <trkpt lat="43.7847" lon="7.09141">
        <ele>780</ele>
        <time>2018-05-03T12:27:03.000Z</time>
      </trkpt>
      <trkpt lat="43.78475" lon="7.09138">
        <ele>780</ele>
        <time>2018-05-03T12:27:06.000Z</time>
      </trkpt>
      <trkpt lat="43.78481" lon="7.09132">
        <ele>780</ele>
        <time>2018-05-03T12:27:11.000Z</time>
      </trkpt>
      <trkpt lat="43.78487" lon="7.09128">
        <ele>781</ele>
        <time>2018-05-03T12:27:15.000Z</time>
      </trkpt>
      <trkpt lat="43.78489" lon="7.09126">
        <ele>781</ele>
        <time>2018-05-03T12:27:17.000Z</time>
      </trkpt>
      <trkpt lat="43.78495" lon="7.09121">
        <ele>781</ele>
        <time>2018-05-03T12:27:22.000Z</time>
      </trkpt>
      <trkpt lat="43.78497" lon="7.09119">
        <ele>780</ele>
        <time>2018-05-03T12:27:24.000Z</time>
      </trkpt>
      <trkpt lat="43.78504" lon="7.09113">
        <ele>798</ele>
        <time>2018-05-03T12:27:29.000Z</time>
      </trkpt>
      <trkpt lat="43.78506" lon="7.0911">
        <ele>798</ele>
        <time>2018-05-03T12:27:31.000Z</time>
      </trkpt>
      <trkpt lat="43.78512" lon="7.09104">
        <ele>797</ele>
        <time>2018-05-03T12:27:36.000Z</time>
      </trkpt>
      <trkpt lat="43.78521" lon="7.09102">
        <ele>799</ele>
        <time>2018-05-03T12:27:43.000Z</time>
      </trkpt>
      <trkpt lat="43.7852" lon="7.09109">
        <ele>800</ele>
        <time>2018-05-03T12:27:47.000Z</time>
      </trkpt>
      <trkpt lat="43.78519" lon="7.09111">
        <ele>800</ele>
        <time>2018-05-03T12:27:48.000Z</time>
      </trkpt>
      <trkpt lat="43.78517" lon="7.09112">
        <ele>800</ele>
        <time>2018-05-03T12:27:49.000Z</time>
      </trkpt>
      <trkpt lat="43.78513" lon="7.09116">
        <ele>800</ele>
        <time>2018-05-03T12:27:52.000Z</time>
      </trkpt>
      <trkpt lat="43.78503" lon="7.09129">
        <ele>801</ele>
        <time>2018-05-03T12:28:00.000Z</time>
      </trkpt>
      <trkpt lat="43.78501" lon="7.09131">
        <ele>801</ele>
        <time>2018-05-03T12:28:01.000Z</time>
      </trkpt>
      <trkpt lat="43.78495" lon="7.09141">
        <ele>785</ele>
        <time>2018-05-03T12:28:07.000Z</time>
      </trkpt>
      <trkpt lat="43.78486" lon="7.09158">
        <ele>788</ele>
        <time>2018-05-03T12:28:16.000Z</time>
      </trkpt>
      <trkpt lat="43.78485" lon="7.09159">
        <ele>788</ele>
        <time>2018-05-03T12:28:17.000Z</time>
      </trkpt>
      <trkpt lat="43.78479" lon="7.09169">
        <ele>797</ele>
        <time>2018-05-03T12:28:23.000Z</time>
      </trkpt>
      <trkpt lat="43.78477" lon="7.09172">
        <ele>797</ele>
        <time>2018-05-03T12:28:25.000Z</time>
      </trkpt>
      <trkpt lat="43.78468" lon="7.09185">
        <ele>796</ele>
        <time>2018-05-03T12:28:32.000Z</time>
      </trkpt>
      <trkpt lat="43.78465" lon="7.09189">
        <ele>796</ele>
        <time>2018-05-03T12:28:34.000Z</time>
      </trkpt>
      <trkpt lat="43.78457" lon="7.09199">
        <ele>796</ele>
        <time>2018-05-03T12:28:40.000Z</time>
      </trkpt>
      <trkpt lat="43.78452" lon="7.09204">
        <ele>796</ele>
        <time>2018-05-03T12:28:44.000Z</time>
      </trkpt>
      <trkpt lat="43.78447" lon="7.0921">
        <ele>796</ele>
        <time>2018-05-03T12:28:48.000Z</time>
      </trkpt>
      <trkpt lat="43.78437" lon="7.09219">
        <ele>796</ele>
        <time>2018-05-03T12:28:55.000Z</time>
      </trkpt>
      <trkpt lat="43.78435" lon="7.09223">
        <ele>796</ele>
        <time>2018-05-03T12:28:57.000Z</time>
      </trkpt>
      <trkpt lat="43.78438" lon="7.09228">
        <ele>797</ele>
        <time>2018-05-03T12:29:00.000Z</time>
      </trkpt>
      <trkpt lat="43.7844" lon="7.09229">
        <ele>797</ele>
        <time>2018-05-03T12:29:02.000Z</time>
      </trkpt>
      <trkpt lat="43.78443" lon="7.09225">
        <ele>797</ele>
        <time>2018-05-03T12:29:04.000Z</time>
      </trkpt>
      <trkpt lat="43.78446" lon="7.09221">
        <ele>797</ele>
        <time>2018-05-03T12:29:06.000Z</time>
      </trkpt>
      <trkpt lat="43.78457" lon="7.0921">
        <ele>798</ele>
        <time>2018-05-03T12:29:13.000Z</time>
      </trkpt>
      <trkpt lat="43.78462" lon="7.09206">
        <ele>798</ele>
        <time>2018-05-03T12:29:16.000Z</time>
      </trkpt>
      <trkpt lat="43.7847" lon="7.092">
        <ele>798</ele>
        <time>2018-05-03T12:29:21.000Z</time>
      </trkpt>
      <trkpt lat="43.78474" lon="7.09197">
        <ele>799</ele>
        <time>2018-05-03T12:29:24.000Z</time>
      </trkpt>
      <trkpt lat="43.78482" lon="7.09193">
        <ele>799</ele>
        <time>2018-05-03T12:29:29.000Z</time>
      </trkpt>
      <trkpt lat="43.78491" lon="7.09187">
        <ele>799</ele>
        <time>2018-05-03T12:29:35.000Z</time>
      </trkpt>
      <trkpt lat="43.78492" lon="7.09186">
        <ele>799</ele>
        <time>2018-05-03T12:29:36.000Z</time>
      </trkpt>
      <trkpt lat="43.785" lon="7.09181">
        <ele>799</ele>
        <time>2018-05-03T12:29:42.000Z</time>
      </trkpt>
      <trkpt lat="43.78501" lon="7.0918">
        <ele>809</ele>
        <time>2018-05-03T12:29:43.000Z</time>
      </trkpt>
      <trkpt lat="43.78508" lon="7.09175">
        <ele>808</ele>
        <time>2018-05-03T12:29:49.000Z</time>
      </trkpt>
      <trkpt lat="43.78511" lon="7.09173">
        <ele>809</ele>
        <time>2018-05-03T12:29:51.000Z</time>
      </trkpt>
      <trkpt lat="43.78518" lon="7.09169">
        <ele>812</ele>
        <time>2018-05-03T12:29:57.000Z</time>
      </trkpt>
      <trkpt lat="43.78521" lon="7.09167">
        <ele>813</ele>
        <time>2018-05-03T12:29:59.000Z</time>
      </trkpt>
      <trkpt lat="43.78528" lon="7.09163">
        <ele>805</ele>
        <time>2018-05-03T12:30:04.000Z</time>
      </trkpt>
      <trkpt lat="43.78532" lon="7.0916">
        <ele>806</ele>
        <time>2018-05-03T12:30:07.000Z</time>
      </trkpt>
      <trkpt lat="43.7854" lon="7.09156">
        <ele>807</ele>
        <time>2018-05-03T12:30:12.000Z</time>
      </trkpt>
      <trkpt lat="43.78543" lon="7.09155">
        <ele>807</ele>
        <time>2018-05-03T12:30:14.000Z</time>
      </trkpt>
      <trkpt lat="43.78548" lon="7.09152">
        <ele>808</ele>
        <time>2018-05-03T12:30:18.000Z</time>
      </trkpt>
      <trkpt lat="43.78554" lon="7.09148">
        <ele>809</ele>
        <time>2018-05-03T12:30:22.000Z</time>
      </trkpt>
      <trkpt lat="43.78559" lon="7.09144">
        <ele>810</ele>
        <time>2018-05-03T12:30:26.000Z</time>
      </trkpt>
      <trkpt lat="43.78566" lon="7.0914">
        <ele>811</ele>
        <time>2018-05-03T12:30:31.000Z</time>
      </trkpt>
      <trkpt lat="43.78567" lon="7.09139">
        <ele>811</ele>
        <time>2018-05-03T12:30:32.000Z</time>
      </trkpt>
      <trkpt lat="43.78578" lon="7.09134">
        <ele>812</ele>
        <time>2018-05-03T12:30:39.000Z</time>
      </trkpt>
      <trkpt lat="43.78579" lon="7.09133">
        <ele>812</ele>
        <time>2018-05-03T12:30:40.000Z</time>
      </trkpt>
      <trkpt lat="43.78589" lon="7.09123">
        <ele>829</ele>
        <time>2018-05-03T12:30:47.000Z</time>
      </trkpt>
      <trkpt lat="43.78589" lon="7.09112">
        <ele>828</ele>
        <time>2018-05-03T12:30:52.000Z</time>
      </trkpt>
      <trkpt lat="43.78588" lon="7.0911">
        <ele>828</ele>
        <time>2018-05-03T12:30:53.000Z</time>
      </trkpt>
      <trkpt lat="43.78586" lon="7.091">
        <ele>826</ele>
        <time>2018-05-03T12:30:58.000Z</time>
      </trkpt>
      <trkpt lat="43.78585" lon="7.09098">
        <ele>825</ele>
        <time>2018-05-03T12:30:59.000Z</time>
      </trkpt>
      <trkpt lat="43.78582" lon="7.09078">
        <ele>817</ele>
        <time>2018-05-03T12:31:08.000Z</time>
      </trkpt>
      <trkpt lat="43.78582" lon="7.09071">
        <ele>815</ele>
        <time>2018-05-03T12:31:11.000Z</time>
      </trkpt>
      <trkpt lat="43.7858" lon="7.09063">
        <ele>814</ele>
        <time>2018-05-03T12:31:15.000Z</time>
      </trkpt>
      <trkpt lat="43.78579" lon="7.09057">
        <ele>814</ele>
        <time>2018-05-03T12:31:18.000Z</time>
      </trkpt>
      <trkpt lat="43.78578" lon="7.0905">
        <ele>814</ele>
        <time>2018-05-03T12:31:21.000Z</time>
      </trkpt>
      <trkpt lat="43.78577" lon="7.09047">
        <ele>814</ele>
        <time>2018-05-03T12:31:23.000Z</time>
      </trkpt>
      <trkpt lat="43.78575" lon="7.0904">
        <ele>815</ele>
        <time>2018-05-03T12:31:26.000Z</time>
      </trkpt>
      <trkpt lat="43.78572" lon="7.09033">
        <ele>816</ele>
        <time>2018-05-03T12:31:30.000Z</time>
      </trkpt>
      <trkpt lat="43.78568" lon="7.09021">
        <ele>818</ele>
        <time>2018-05-03T12:31:36.000Z</time>
      </trkpt>
      <trkpt lat="43.78566" lon="7.09017">
        <ele>819</ele>
        <time>2018-05-03T12:31:38.000Z</time>
      </trkpt>
      <trkpt lat="43.78561" lon="7.09006">
        <ele>819</ele>
        <time>2018-05-03T12:31:44.000Z</time>
      </trkpt>
      <trkpt lat="43.7856" lon="7.09002">
        <ele>819</ele>
        <time>2018-05-03T12:31:46.000Z</time>
      </trkpt>
      <trkpt lat="43.78554" lon="7.08991">
        <ele>829</ele>
        <time>2018-05-03T12:31:52.000Z</time>
      </trkpt>
      <trkpt lat="43.78553" lon="7.08989">
        <ele>829</ele>
        <time>2018-05-03T12:31:53.000Z</time>
      </trkpt>
      <trkpt lat="43.78547" lon="7.08976">
        <ele>829</ele>
        <time>2018-05-03T12:32:00.000Z</time>
      </trkpt>
      <trkpt lat="43.78539" lon="7.0896">
        <ele>829</ele>
        <time>2018-05-03T12:32:08.000Z</time>
      </trkpt>
      <trkpt lat="43.78538" lon="7.08958">
        <ele>829</ele>
        <time>2018-05-03T12:32:09.000Z</time>
      </trkpt>
      <trkpt lat="43.78528" lon="7.08942">
        <ele>829</ele>
        <time>2018-05-03T12:32:18.000Z</time>
      </trkpt>
      <trkpt lat="43.78525" lon="7.08938">
        <ele>829</ele>
        <time>2018-05-03T12:32:21.000Z</time>
      </trkpt>
      <trkpt lat="43.78523" lon="7.08933">
        <ele>829</ele>
        <time>2018-05-03T12:32:24.000Z</time>
      </trkpt>
      <trkpt lat="43.78522" lon="7.08929">
        <ele>829</ele>
        <time>2018-05-03T12:32:26.000Z</time>
      </trkpt>
      <trkpt lat="43.78524" lon="7.08928">
        <ele>830</ele>
        <time>2018-05-03T12:32:28.000Z</time>
      </trkpt>
      <trkpt lat="43.7853" lon="7.08932">
        <ele>831</ele>
        <time>2018-05-03T12:32:33.000Z</time>
      </trkpt>
      <trkpt lat="43.78532" lon="7.08935">
        <ele>831</ele>
        <time>2018-05-03T12:32:35.000Z</time>
      </trkpt>
      <trkpt lat="43.78539" lon="7.08943">
        <ele>832</ele>
        <time>2018-05-03T12:32:40.000Z</time>
      </trkpt>
      <trkpt lat="43.7854" lon="7.08944">
        <ele>832</ele>
        <time>2018-05-03T12:32:41.000Z</time>
      </trkpt>
      <trkpt lat="43.78547" lon="7.08952">
        <ele>833</ele>
        <time>2018-05-03T12:32:47.000Z</time>
      </trkpt>
      <trkpt lat="43.78549" lon="7.08956">
        <ele>833</ele>
        <time>2018-05-03T12:32:49.000Z</time>
      </trkpt>
      <trkpt lat="43.78555" lon="7.08963">
        <ele>833</ele>
        <time>2018-05-03T12:32:54.000Z</time>
      </trkpt>
      <trkpt lat="43.78559" lon="7.08968">
        <ele>833</ele>
        <time>2018-05-03T12:32:58.000Z</time>
      </trkpt>
      <trkpt lat="43.78561" lon="7.08969">
        <ele>833</ele>
        <time>2018-05-03T12:32:59.000Z</time>
      </trkpt>
      <trkpt lat="43.78567" lon="7.08978">
        <ele>833</ele>
        <time>2018-05-03T12:33:05.000Z</time>
      </trkpt>
      <trkpt lat="43.78569" lon="7.0898">
        <ele>833</ele>
        <time>2018-05-03T12:33:06.000Z</time>
      </trkpt>
      <trkpt lat="43.78576" lon="7.08989">
        <ele>834</ele>
        <time>2018-05-03T12:33:12.000Z</time>
      </trkpt>
      <trkpt lat="43.78579" lon="7.08993">
        <ele>835</ele>
        <time>2018-05-03T12:33:15.000Z</time>
      </trkpt>
      <trkpt lat="43.78583" lon="7.08999">
        <ele>837</ele>
        <time>2018-05-03T12:33:19.000Z</time>
      </trkpt>
      <trkpt lat="43.78586" lon="7.09002">
        <ele>838</ele>
        <time>2018-05-03T12:33:21.000Z</time>
      </trkpt>
      <trkpt lat="43.78593" lon="7.09012">
        <ele>841</ele>
        <time>2018-05-03T12:33:27.000Z</time>
      </trkpt>
      <trkpt lat="43.78603" lon="7.09024">
        <ele>843</ele>
        <time>2018-05-03T12:33:35.000Z</time>
      </trkpt>
      <trkpt lat="43.78605" lon="7.09028">
        <ele>843</ele>
        <time>2018-05-03T12:33:37.000Z</time>
      </trkpt>
      <trkpt lat="43.78611" lon="7.09035">
        <ele>844</ele>
        <time>2018-05-03T12:33:42.000Z</time>
      </trkpt>
      <trkpt lat="43.78614" lon="7.09039">
        <ele>844</ele>
        <time>2018-05-03T12:33:45.000Z</time>
      </trkpt>
      <trkpt lat="43.78619" lon="7.09045">
        <ele>844</ele>
        <time>2018-05-03T12:33:49.000Z</time>
      </trkpt>
      <trkpt lat="43.78627" lon="7.09056">
        <ele>845</ele>
        <time>2018-05-03T12:33:56.000Z</time>
      </trkpt>
      <trkpt lat="43.78628" lon="7.09057">
        <ele>845</ele>
        <time>2018-05-03T12:33:57.000Z</time>
      </trkpt>
      <trkpt lat="43.78636" lon="7.09066">
        <ele>846</ele>
        <time>2018-05-03T12:34:03.000Z</time>
      </trkpt>
      <trkpt lat="43.78639" lon="7.09069">
        <ele>846</ele>
        <time>2018-05-03T12:34:05.000Z</time>
      </trkpt>
      <trkpt lat="43.78645" lon="7.09076">
        <ele>847</ele>
        <time>2018-05-03T12:34:10.000Z</time>
      </trkpt>
      <trkpt lat="43.78648" lon="7.09079">
        <ele>848</ele>
        <time>2018-05-03T12:34:12.000Z</time>
      </trkpt>
      <trkpt lat="43.78653" lon="7.09085">
        <ele>844</ele>
        <time>2018-05-03T12:34:16.000Z</time>
      </trkpt>
      <trkpt lat="43.78658" lon="7.09091">
        <ele>845</ele>
        <time>2018-05-03T12:34:20.000Z</time>
      </trkpt>
      <trkpt lat="43.78663" lon="7.09097">
        <ele>844</ele>
        <time>2018-05-03T12:34:24.000Z</time>
      </trkpt>
      <trkpt lat="43.78669" lon="7.09103">
        <ele>854</ele>
        <time>2018-05-03T12:34:28.000Z</time>
      </trkpt>
      <trkpt lat="43.78675" lon="7.0911">
        <ele>855</ele>
        <time>2018-05-03T12:34:33.000Z</time>
      </trkpt>
      <trkpt lat="43.78678" lon="7.09113">
        <ele>855</ele>
        <time>2018-05-03T12:34:35.000Z</time>
      </trkpt>
      <trkpt lat="43.78684" lon="7.09119">
        <ele>855</ele>
        <time>2018-05-03T12:34:40.000Z</time>
      </trkpt>
      <trkpt lat="43.7869" lon="7.09125">
        <ele>855</ele>
        <time>2018-05-03T12:34:45.000Z</time>
      </trkpt>
      <trkpt lat="43.78695" lon="7.09129">
        <ele>855</ele>
        <time>2018-05-03T12:34:49.000Z</time>
      </trkpt>
      <trkpt lat="43.787" lon="7.09132">
        <ele>856</ele>
        <time>2018-05-03T12:34:53.000Z</time>
      </trkpt>
      <trkpt lat="43.78703" lon="7.09134">
        <ele>856</ele>
        <time>2018-05-03T12:34:55.000Z</time>
      </trkpt>
      <trkpt lat="43.7871" lon="7.09139">
        <ele>856</ele>
        <time>2018-05-03T12:35:00.000Z</time>
      </trkpt>
      <trkpt lat="43.78714" lon="7.09141">
        <ele>856</ele>
        <time>2018-05-03T12:35:02.000Z</time>
      </trkpt>
      <trkpt lat="43.78725" lon="7.09148">
        <ele>857</ele>
        <time>2018-05-03T12:35:09.000Z</time>
      </trkpt>
      <trkpt lat="43.78726" lon="7.09149">
        <ele>857</ele>
        <time>2018-05-03T12:35:10.000Z</time>
      </trkpt>
      <trkpt lat="43.78735" lon="7.09154">
        <ele>857</ele>
        <time>2018-05-03T12:35:17.000Z</time>
      </trkpt>
      <trkpt lat="43.78738" lon="7.09156">
        <ele>857</ele>
        <time>2018-05-03T12:35:19.000Z</time>
      </trkpt>
      <trkpt lat="43.78746" lon="7.0916">
        <ele>857</ele>
        <time>2018-05-03T12:35:25.000Z</time>
      </trkpt>
      <trkpt lat="43.78748" lon="7.09161">
        <ele>857</ele>
        <time>2018-05-03T12:35:26.000Z</time>
      </trkpt>
      <trkpt lat="43.78752" lon="7.09164">
        <ele>859</ele>
        <time>2018-05-03T12:35:29.000Z</time>
      </trkpt>
      <trkpt lat="43.78759" lon="7.09167">
        <ele>859</ele>
        <time>2018-05-03T12:35:34.000Z</time>
      </trkpt>
      <trkpt lat="43.78762" lon="7.09169">
        <ele>860</ele>
        <time>2018-05-03T12:35:36.000Z</time>
      </trkpt>
      <trkpt lat="43.7877" lon="7.09171">
        <ele>862</ele>
        <time>2018-05-03T12:35:41.000Z</time>
      </trkpt>
      <trkpt lat="43.78773" lon="7.09172">
        <ele>862</ele>
        <time>2018-05-03T12:35:43.000Z</time>
      </trkpt>
      <trkpt lat="43.78785" lon="7.09175">
        <ele>864</ele>
        <time>2018-05-03T12:35:51.000Z</time>
      </trkpt>
      <trkpt lat="43.78786" lon="7.09175">
        <ele>865</ele>
        <time>2018-05-03T12:35:52.000Z</time>
      </trkpt>
      <trkpt lat="43.78797" lon="7.09176">
        <ele>866</ele>
        <time>2018-05-03T12:35:59.000Z</time>
      </trkpt>
      <trkpt lat="43.78809" lon="7.09178">
        <ele>867</ele>
        <time>2018-05-03T12:36:07.000Z</time>
      </trkpt>
      <trkpt lat="43.78811" lon="7.09178">
        <ele>867</ele>
        <time>2018-05-03T12:36:08.000Z</time>
      </trkpt>
      <trkpt lat="43.78821" lon="7.09178">
        <ele>868</ele>
        <time>2018-05-03T12:36:14.000Z</time>
      </trkpt>
      <trkpt lat="43.78823" lon="7.09178">
        <ele>869</ele>
        <time>2018-05-03T12:36:15.000Z</time>
      </trkpt>
      <trkpt lat="43.7883" lon="7.09178">
        <ele>869</ele>
        <time>2018-05-03T12:36:20.000Z</time>
      </trkpt>
      <trkpt lat="43.78835" lon="7.09177">
        <ele>872</ele>
        <time>2018-05-03T12:36:24.000Z</time>
      </trkpt>
      <trkpt lat="43.78838" lon="7.09177">
        <ele>872</ele>
        <time>2018-05-03T12:36:26.000Z</time>
      </trkpt>
      <trkpt lat="43.78845" lon="7.09176">
        <ele>873</ele>
        <time>2018-05-03T12:36:31.000Z</time>
      </trkpt>
      <trkpt lat="43.78847" lon="7.09176">
        <ele>873</ele>
        <time>2018-05-03T12:36:32.000Z</time>
      </trkpt>
      <trkpt lat="43.78857" lon="7.09174">
        <ele>874</ele>
        <time>2018-05-03T12:36:38.000Z</time>
      </trkpt>
      <trkpt lat="43.7887" lon="7.09171">
        <ele>874</ele>
        <time>2018-05-03T12:36:45.000Z</time>
      </trkpt>
      <trkpt lat="43.78872" lon="7.09171">
        <ele>874</ele>
        <time>2018-05-03T12:36:46.000Z</time>
      </trkpt>
      <trkpt lat="43.78878" lon="7.09169">
        <ele>875</ele>
        <time>2018-05-03T12:36:50.000Z</time>
      </trkpt>
      <trkpt lat="43.78884" lon="7.09168">
        <ele>875</ele>
        <time>2018-05-03T12:36:54.000Z</time>
      </trkpt>
      <trkpt lat="43.78886" lon="7.09167">
        <ele>875</ele>
        <time>2018-05-03T12:36:55.000Z</time>
      </trkpt>
      <trkpt lat="43.78895" lon="7.09163">
        <ele>880</ele>
        <time>2018-05-03T12:37:02.000Z</time>
      </trkpt>
      <trkpt lat="43.78898" lon="7.09162">
        <ele>880</ele>
        <time>2018-05-03T12:37:04.000Z</time>
      </trkpt>
      <trkpt lat="43.78903" lon="7.09159">
        <ele>880</ele>
        <time>2018-05-03T12:37:08.000Z</time>
      </trkpt>
      <trkpt lat="43.78908" lon="7.09156">
        <ele>880</ele>
        <time>2018-05-03T12:37:12.000Z</time>
      </trkpt>
      <trkpt lat="43.78917" lon="7.09149">
        <ele>884</ele>
        <time>2018-05-03T12:37:18.000Z</time>
      </trkpt>
      <trkpt lat="43.78919" lon="7.09148">
        <ele>884</ele>
        <time>2018-05-03T12:37:19.000Z</time>
      </trkpt>
      <trkpt lat="43.78926" lon="7.09145">
        <ele>886</ele>
        <time>2018-05-03T12:37:24.000Z</time>
      </trkpt>
      <trkpt lat="43.78928" lon="7.09144">
        <ele>886</ele>
        <time>2018-05-03T12:37:25.000Z</time>
      </trkpt>
      <trkpt lat="43.78938" lon="7.09145">
        <ele>887</ele>
        <time>2018-05-03T12:37:31.000Z</time>
      </trkpt>
      <trkpt lat="43.78939" lon="7.09146">
        <ele>887</ele>
        <time>2018-05-03T12:37:32.000Z</time>
      </trkpt>
      <trkpt lat="43.78947" lon="7.0915">
        <ele>888</ele>
        <time>2018-05-03T12:37:38.000Z</time>
      </trkpt>
      <trkpt lat="43.78948" lon="7.09151">
        <ele>888</ele>
        <time>2018-05-03T12:37:39.000Z</time>
      </trkpt>
      <trkpt lat="43.78956" lon="7.09155">
        <ele>888</ele>
        <time>2018-05-03T12:37:44.000Z</time>
      </trkpt>
      <trkpt lat="43.78959" lon="7.09156">
        <ele>888</ele>
        <time>2018-05-03T12:37:46.000Z</time>
      </trkpt>
      <trkpt lat="43.78969" lon="7.09161">
        <ele>889</ele>
        <time>2018-05-03T12:37:53.000Z</time>
      </trkpt>
      <trkpt lat="43.78971" lon="7.09162">
        <ele>889</ele>
        <time>2018-05-03T12:37:54.000Z</time>
      </trkpt>
      <trkpt lat="43.78978" lon="7.09165">
        <ele>889</ele>
        <time>2018-05-03T12:37:59.000Z</time>
      </trkpt>
      <trkpt lat="43.78983" lon="7.09167">
        <ele>885</ele>
        <time>2018-05-03T12:38:03.000Z</time>
      </trkpt>
      <trkpt lat="43.78984" lon="7.09168">
        <ele>885</ele>
        <time>2018-05-03T12:38:04.000Z</time>
      </trkpt>
      <trkpt lat="43.78992" lon="7.09172">
        <ele>886</ele>
        <time>2018-05-03T12:38:09.000Z</time>
      </trkpt>
      <trkpt lat="43.78995" lon="7.09173">
        <ele>887</ele>
        <time>2018-05-03T12:38:11.000Z</time>
      </trkpt>
      <trkpt lat="43.79003" lon="7.09176">
        <ele>889</ele>
        <time>2018-05-03T12:38:16.000Z</time>
      </trkpt>
      <trkpt lat="43.79016" lon="7.0918">
        <ele>891</ele>
        <time>2018-05-03T12:38:24.000Z</time>
      </trkpt>
      <trkpt lat="43.79018" lon="7.09181">
        <ele>891</ele>
        <time>2018-05-03T12:38:25.000Z</time>
      </trkpt>
      <trkpt lat="43.79026" lon="7.09183">
        <ele>891</ele>
        <time>2018-05-03T12:38:30.000Z</time>
      </trkpt>
      <trkpt lat="43.79029" lon="7.09184">
        <ele>892</ele>
        <time>2018-05-03T12:38:32.000Z</time>
      </trkpt>
      <trkpt lat="43.79036" lon="7.09187">
        <ele>892</ele>
        <time>2018-05-03T12:38:36.000Z</time>
      </trkpt>
      <trkpt lat="43.7904" lon="7.09189">
        <ele>892</ele>
        <time>2018-05-03T12:38:39.000Z</time>
      </trkpt>
      <trkpt lat="43.79042" lon="7.09189">
        <ele>893</ele>
        <time>2018-05-03T12:38:40.000Z</time>
      </trkpt>
      <trkpt lat="43.7905" lon="7.09189">
        <ele>893</ele>
        <time>2018-05-03T12:38:45.000Z</time>
      </trkpt>
      <trkpt lat="43.79052" lon="7.09189">
        <ele>893</ele>
        <time>2018-05-03T12:38:46.000Z</time>
      </trkpt>
      <trkpt lat="43.7906" lon="7.09189">
        <ele>894</ele>
        <time>2018-05-03T12:38:51.000Z</time>
      </trkpt>
      <trkpt lat="43.79062" lon="7.09188">
        <ele>894</ele>
        <time>2018-05-03T12:38:53.000Z</time>
      </trkpt>
      <trkpt lat="43.79071" lon="7.09185">
        <ele>895</ele>
        <time>2018-05-03T12:38:59.000Z</time>
      </trkpt>
      <trkpt lat="43.79079" lon="7.09182">
        <ele>896</ele>
        <time>2018-05-03T12:39:05.000Z</time>
      </trkpt>
      <trkpt lat="43.79081" lon="7.09182">
        <ele>896</ele>
        <time>2018-05-03T12:39:06.000Z</time>
      </trkpt>
      <trkpt lat="43.79089" lon="7.09177">
        <ele>900</ele>
        <time>2018-05-03T12:39:12.000Z</time>
      </trkpt>
      <trkpt lat="43.7909" lon="7.09176">
        <ele>900</ele>
        <time>2018-05-03T12:39:13.000Z</time>
      </trkpt>
      <trkpt lat="43.79098" lon="7.09171">
        <ele>901</ele>
        <time>2018-05-03T12:39:19.000Z</time>
      </trkpt>
      <trkpt lat="43.79101" lon="7.09169">
        <ele>901</ele>
        <time>2018-05-03T12:39:21.000Z</time>
      </trkpt>
      <trkpt lat="43.79108" lon="7.09165">
        <ele>906</ele>
        <time>2018-05-03T12:39:26.000Z</time>
      </trkpt>
      <trkpt lat="43.79113" lon="7.09163">
        <ele>906</ele>
        <time>2018-05-03T12:39:29.000Z</time>
      </trkpt>
      <trkpt lat="43.79114" lon="7.09163">
        <ele>907</ele>
        <time>2018-05-03T12:39:30.000Z</time>
      </trkpt>
      <trkpt lat="43.79121" lon="7.09159">
        <ele>907</ele>
        <time>2018-05-03T12:39:35.000Z</time>
      </trkpt>
      <trkpt lat="43.79126" lon="7.09157">
        <ele>908</ele>
        <time>2018-05-03T12:39:38.000Z</time>
      </trkpt>
      <trkpt lat="43.79129" lon="7.09156">
        <ele>908</ele>
        <time>2018-05-03T12:39:40.000Z</time>
      </trkpt>
      <trkpt lat="43.79138" lon="7.09152">
        <ele>908</ele>
        <time>2018-05-03T12:39:46.000Z</time>
      </trkpt>
      <trkpt lat="43.79147" lon="7.09146">
        <ele>908</ele>
        <time>2018-05-03T12:39:53.000Z</time>
      </trkpt>
      <trkpt lat="43.79154" lon="7.09138">
        <ele>909</ele>
        <time>2018-05-03T12:39:59.000Z</time>
      </trkpt>
      <trkpt lat="43.79156" lon="7.09137">
        <ele>909</ele>
        <time>2018-05-03T12:40:00.000Z</time>
      </trkpt>
      <trkpt lat="43.79161" lon="7.0913">
        <ele>909</ele>
        <time>2018-05-03T12:40:05.000Z</time>
      </trkpt>
      <trkpt lat="43.79162" lon="7.09128">
        <ele>910</ele>
        <time>2018-05-03T12:40:06.000Z</time>
      </trkpt>
      <trkpt lat="43.79167" lon="7.09116">
        <ele>915</ele>
        <time>2018-05-03T12:40:13.000Z</time>
      </trkpt>
      <trkpt lat="43.79168" lon="7.09114">
        <ele>915</ele>
        <time>2018-05-03T12:40:14.000Z</time>
      </trkpt>
      <trkpt lat="43.79172" lon="7.09103">
        <ele>915</ele>
        <time>2018-05-03T12:40:20.000Z</time>
      </trkpt>
      <trkpt lat="43.79173" lon="7.09101">
        <ele>915</ele>
        <time>2018-05-03T12:40:21.000Z</time>
      </trkpt>
      <trkpt lat="43.79175" lon="7.09094">
        <ele>915</ele>
        <time>2018-05-03T12:40:25.000Z</time>
      </trkpt>
      <trkpt lat="43.79177" lon="7.09088">
        <ele>915</ele>
        <time>2018-05-03T12:40:29.000Z</time>
      </trkpt>
      <trkpt lat="43.79178" lon="7.09083">
        <ele>917</ele>
        <time>2018-05-03T12:40:32.000Z</time>
      </trkpt>
      <trkpt lat="43.79181" lon="7.09076">
        <ele>918</ele>
        <time>2018-05-03T12:40:36.000Z</time>
      </trkpt>
      <trkpt lat="43.79183" lon="7.09073">
        <ele>919</ele>
        <time>2018-05-03T12:40:38.000Z</time>
      </trkpt>
      <trkpt lat="43.79186" lon="7.09065">
        <ele>920</ele>
        <time>2018-05-03T12:40:43.000Z</time>
      </trkpt>
      <trkpt lat="43.79187" lon="7.09063">
        <ele>921</ele>
        <time>2018-05-03T12:40:44.000Z</time>
      </trkpt>
      <trkpt lat="43.79193" lon="7.09053">
        <ele>922</ele>
        <time>2018-05-03T12:40:50.000Z</time>
      </trkpt>
      <trkpt lat="43.792" lon="7.09035">
        <ele>924</ele>
        <time>2018-05-03T12:40:57.000Z</time>
      </trkpt>
      <trkpt lat="43.79201" lon="7.09033">
        <ele>924</ele>
        <time>2018-05-03T12:40:58.000Z</time>
      </trkpt>
      <trkpt lat="43.79205" lon="7.09021">
        <ele>924</ele>
        <time>2018-05-03T12:41:03.000Z</time>
      </trkpt>
      <trkpt lat="43.79206" lon="7.09017">
        <ele>925</ele>
        <time>2018-05-03T12:41:05.000Z</time>
      </trkpt>
      <trkpt lat="43.79208" lon="7.09007">
        <ele>925</ele>
        <time>2018-05-03T12:41:09.000Z</time>
      </trkpt>
      <trkpt lat="43.79208" lon="7.09002">
        <ele>925</ele>
        <time>2018-05-03T12:41:11.000Z</time>
      </trkpt>
      <trkpt lat="43.79213" lon="7.08991">
        <ele>930</ele>
        <time>2018-05-03T12:41:16.000Z</time>
      </trkpt>
      <trkpt lat="43.7922" lon="7.08986">
        <ele>930</ele>
        <time>2018-05-03T12:41:20.000Z</time>
      </trkpt>
      <trkpt lat="43.79224" lon="7.08986">
        <ele>929</ele>
        <time>2018-05-03T12:41:22.000Z</time>
      </trkpt>
      <trkpt lat="43.79232" lon="7.08985">
        <ele>929</ele>
        <time>2018-05-03T12:41:26.000Z</time>
      </trkpt>
      <trkpt lat="43.79236" lon="7.08981">
        <ele>929</ele>
        <time>2018-05-03T12:41:29.000Z</time>
      </trkpt>
      <trkpt lat="43.79238" lon="7.08977">
        <ele>929</ele>
        <time>2018-05-03T12:41:31.000Z</time>
      </trkpt>
      <trkpt lat="43.79241" lon="7.08969">
        <ele>929</ele>
        <time>2018-05-03T12:41:34.000Z</time>
      </trkpt>
      <trkpt lat="43.79241" lon="7.08967">
        <ele>929</ele>
        <time>2018-05-03T12:41:35.000Z</time>
      </trkpt>
      <trkpt lat="43.79246" lon="7.08958">
        <ele>930</ele>
        <time>2018-05-03T12:41:39.000Z</time>
      </trkpt>
      <trkpt lat="43.79248" lon="7.08953">
        <ele>930</ele>
        <time>2018-05-03T12:41:42.000Z</time>
      </trkpt>
      <trkpt lat="43.79248" lon="7.08951">
        <ele>930</ele>
        <time>2018-05-03T12:41:43.000Z</time>
      </trkpt>
      <trkpt lat="43.79252" lon="7.08942">
        <ele>934</ele>
        <time>2018-05-03T12:41:48.000Z</time>
      </trkpt>
      <trkpt lat="43.79254" lon="7.08936">
        <ele>933</ele>
        <time>2018-05-03T12:41:51.000Z</time>
      </trkpt>
      <trkpt lat="43.79257" lon="7.08929">
        <ele>932</ele>
        <time>2018-05-03T12:41:55.000Z</time>
      </trkpt>
      <trkpt lat="43.7926" lon="7.0892">
        <ele>931</ele>
        <time>2018-05-03T12:42:00.000Z</time>
      </trkpt>
      <trkpt lat="43.79261" lon="7.08918">
        <ele>932</ele>
        <time>2018-05-03T12:42:01.000Z</time>
      </trkpt>
      <trkpt lat="43.79264" lon="7.08908">
        <ele>933</ele>
        <time>2018-05-03T12:42:07.000Z</time>
      </trkpt>
      <trkpt lat="43.79265" lon="7.08904">
        <ele>934</ele>
        <time>2018-05-03T12:42:09.000Z</time>
      </trkpt>
      <trkpt lat="43.79268" lon="7.08895">
        <ele>935</ele>
        <time>2018-05-03T12:42:14.000Z</time>
      </trkpt>
      <trkpt lat="43.79269" lon="7.08891">
        <ele>936</ele>
        <time>2018-05-03T12:42:16.000Z</time>
      </trkpt>
      <trkpt lat="43.79272" lon="7.08881">
        <ele>937</ele>
        <time>2018-05-03T12:42:22.000Z</time>
      </trkpt>
      <trkpt lat="43.79273" lon="7.08877">
        <ele>937</ele>
        <time>2018-05-03T12:42:24.000Z</time>
      </trkpt>
      <trkpt lat="43.79277" lon="7.08868">
        <ele>938</ele>
        <time>2018-05-03T12:42:29.000Z</time>
      </trkpt>
      <trkpt lat="43.79279" lon="7.08865">
        <ele>938</ele>
        <time>2018-05-03T12:42:31.000Z</time>
      </trkpt>
      <trkpt lat="43.79285" lon="7.08852">
        <ele>938</ele>
        <time>2018-05-03T12:42:38.000Z</time>
      </trkpt>
      <trkpt lat="43.79285" lon="7.0885">
        <ele>938</ele>
        <time>2018-05-03T12:42:39.000Z</time>
      </trkpt>
      <trkpt lat="43.79291" lon="7.08838">
        <ele>939</ele>
        <time>2018-05-03T12:42:46.000Z</time>
      </trkpt>
      <trkpt lat="43.79293" lon="7.08832">
        <ele>939</ele>
        <time>2018-05-03T12:42:49.000Z</time>
      </trkpt>
      <trkpt lat="43.79299" lon="7.08819">
        <ele>940</ele>
        <time>2018-05-03T12:42:56.000Z</time>
      </trkpt>
      <trkpt lat="43.79301" lon="7.08815">
        <ele>940</ele>
        <time>2018-05-03T12:42:58.000Z</time>
      </trkpt>
      <trkpt lat="43.79304" lon="7.08804">
        <ele>940</ele>
        <time>2018-05-03T12:43:03.000Z</time>
      </trkpt>
      <trkpt lat="43.79308" lon="7.08795">
        <ele>940</ele>
        <time>2018-05-03T12:43:08.000Z</time>
      </trkpt>
      <trkpt lat="43.7931" lon="7.08789">
        <ele>940</ele>
        <time>2018-05-03T12:43:11.000Z</time>
      </trkpt>
      <trkpt lat="43.79315" lon="7.08776">
        <ele>940</ele>
        <time>2018-05-03T12:43:18.000Z</time>
      </trkpt>
      <trkpt lat="43.79316" lon="7.08774">
        <ele>940</ele>
        <time>2018-05-03T12:43:19.000Z</time>
      </trkpt>
      <trkpt lat="43.7932" lon="7.08762">
        <ele>940</ele>
        <time>2018-05-03T12:43:25.000Z</time>
      </trkpt>
      <trkpt lat="43.79321" lon="7.08757">
        <ele>940</ele>
        <time>2018-05-03T12:43:27.000Z</time>
      </trkpt>
      <trkpt lat="43.79326" lon="7.08744">
        <ele>941</ele>
        <time>2018-05-03T12:43:33.000Z</time>
      </trkpt>
      <trkpt lat="43.79332" lon="7.08727">
        <ele>941</ele>
        <time>2018-05-03T12:43:41.000Z</time>
      </trkpt>
      <trkpt lat="43.79334" lon="7.0872">
        <ele>946</ele>
        <time>2018-05-03T12:43:44.000Z</time>
      </trkpt>
      <trkpt lat="43.79338" lon="7.08709">
        <ele>946</ele>
        <time>2018-05-03T12:43:49.000Z</time>
      </trkpt>
      <trkpt lat="43.79339" lon="7.08704">
        <ele>946</ele>
        <time>2018-05-03T12:43:51.000Z</time>
      </trkpt>
      <trkpt lat="43.79344" lon="7.08688">
        <ele>946</ele>
        <time>2018-05-03T12:43:58.000Z</time>
      </trkpt>
      <trkpt lat="43.79348" lon="7.08673">
        <ele>945</ele>
        <time>2018-05-03T12:44:05.000Z</time>
      </trkpt>
      <trkpt lat="43.7935" lon="7.08666">
        <ele>944</ele>
        <time>2018-05-03T12:44:08.000Z</time>
      </trkpt>
      <trkpt lat="43.79354" lon="7.08656">
        <ele>945</ele>
        <time>2018-05-03T12:44:13.000Z</time>
      </trkpt>
      <trkpt lat="43.79355" lon="7.08651">
        <ele>945</ele>
        <time>2018-05-03T12:44:15.000Z</time>
      </trkpt>
      <trkpt lat="43.79363" lon="7.08635">
        <ele>947</ele>
        <time>2018-05-03T12:44:22.000Z</time>
      </trkpt>
      <trkpt lat="43.79366" lon="7.08629">
        <ele>947</ele>
        <time>2018-05-03T12:44:25.000Z</time>
      </trkpt>
      <trkpt lat="43.79377" lon="7.08609">
        <ele>947</ele>
        <time>2018-05-03T12:44:34.000Z</time>
      </trkpt>
      <trkpt lat="43.79391" lon="7.08586">
        <ele>948</ele>
        <time>2018-05-03T12:44:44.000Z</time>
      </trkpt>
      <trkpt lat="43.79393" lon="7.08584">
        <ele>948</ele>
        <time>2018-05-03T12:44:45.000Z</time>
      </trkpt>
      <trkpt lat="43.79404" lon="7.08567">
        <ele>946</ele>
        <time>2018-05-03T12:44:53.000Z</time>
      </trkpt>
      <trkpt lat="43.79409" lon="7.0856">
        <ele>945</ele>
        <time>2018-05-03T12:44:56.000Z</time>
      </trkpt>
      <trkpt lat="43.79419" lon="7.08547">
        <ele>949</ele>
        <time>2018-05-03T12:45:02.000Z</time>
      </trkpt>
      <trkpt lat="43.79436" lon="7.08529">
        <ele>949</ele>
        <time>2018-05-03T12:45:11.000Z</time>
      </trkpt>
      <trkpt lat="43.7944" lon="7.08526">
        <ele>949</ele>
        <time>2018-05-03T12:45:13.000Z</time>
      </trkpt>
      <trkpt lat="43.79447" lon="7.08517">
        <ele>949</ele>
        <time>2018-05-03T12:45:17.000Z</time>
      </trkpt>
      <trkpt lat="43.7946" lon="7.08505">
        <ele>950</ele>
        <time>2018-05-03T12:45:24.000Z</time>
      </trkpt>
      <trkpt lat="43.79478" lon="7.08487">
        <ele>947</ele>
        <time>2018-05-03T12:45:32.000Z</time>
      </trkpt>
      <trkpt lat="43.79497" lon="7.08465">
        <ele>946</ele>
        <time>2018-05-03T12:45:41.000Z</time>
      </trkpt>
      <trkpt lat="43.79499" lon="7.08462">
        <ele>945</ele>
        <time>2018-05-03T12:45:42.000Z</time>
      </trkpt>
      <trkpt lat="43.7951" lon="7.08445">
        <ele>950</ele>
        <time>2018-05-03T12:45:48.000Z</time>
      </trkpt>
      <trkpt lat="43.79522" lon="7.0843">
        <ele>950</ele>
        <time>2018-05-03T12:45:54.000Z</time>
      </trkpt>
      <trkpt lat="43.79533" lon="7.08422">
        <ele>951</ele>
        <time>2018-05-03T12:46:00.000Z</time>
      </trkpt>
      <trkpt lat="43.79534" lon="7.08421">
        <ele>951</ele>
        <time>2018-05-03T12:46:01.000Z</time>
      </trkpt>
      <trkpt lat="43.79534" lon="7.08421">
        <ele>951</ele>
        <time>2018-05-03T12:46:05.000Z</time>
      </trkpt>
      <trkpt lat="43.79534" lon="7.08421">
        <ele>951</ele>
        <time>2018-05-03T12:46:12.000Z</time>
      </trkpt>
      <trkpt lat="43.79535" lon="7.0842">
        <ele>951</ele>
        <time>2018-05-03T12:46:18.000Z</time>
      </trkpt>
      <trkpt lat="43.79535" lon="7.0842">
        <ele>951</ele>
        <time>2018-05-03T12:46:24.000Z</time>
      </trkpt>
      <trkpt lat="43.79535" lon="7.0842">
        <ele>951</ele>
        <time>2018-05-03T12:46:31.000Z</time>
      </trkpt>
      <trkpt lat="43.79535" lon="7.08419">
        <ele>951</ele>
        <time>2018-05-03T12:46:37.000Z</time>
      </trkpt>
      <trkpt lat="43.79535" lon="7.08419">
        <ele>951</ele>
        <time>2018-05-03T12:46:44.000Z</time>
      </trkpt>
      <trkpt lat="43.79536" lon="7.08419">
        <ele>951</ele>
        <time>2018-05-03T12:46:54.000Z</time>
      </trkpt>
      <trkpt lat="43.79536" lon="7.08419">
        <ele>951</ele>
        <time>2018-05-03T12:47:02.000Z</time>
      </trkpt>
      <trkpt lat="43.79535" lon="7.08418">
        <ele>951</ele>
        <time>2018-05-03T12:47:06.000Z</time>
      </trkpt>
      <trkpt lat="43.79536" lon="7.08417">
        <ele>951</ele>
        <time>2018-05-03T12:47:14.000Z</time>
      </trkpt>
      <trkpt lat="43.79536" lon="7.08417">
        <ele>951</ele>
        <time>2018-05-03T12:47:27.000Z</time>
      </trkpt>
      <trkpt lat="43.79536" lon="7.08418">
        <ele>951</ele>
        <time>2018-05-03T12:47:44.000Z</time>
      </trkpt>
      <trkpt lat="43.79536" lon="7.08418">
        <ele>951</ele>
        <time>2018-05-03T12:48:09.000Z</time>
      </trkpt>
      <trkpt lat="43.79536" lon="7.08418">
        <ele>951</ele>
        <time>2018-05-03T12:48:27.000Z</time>
      </trkpt>
      <trkpt lat="43.79536" lon="7.08418">
        <ele>951</ele>
        <time>2018-05-03T12:48:38.000Z</time>
      </trkpt>
      <trkpt lat="43.79536" lon="7.08418">
        <ele>951</ele>
        <time>2018-05-03T12:48:53.000Z</time>
      </trkpt>
      <trkpt lat="43.79535" lon="7.08418">
        <ele>951</ele>
        <time>2018-05-03T12:49:06.000Z</time>
      </trkpt>
      <trkpt lat="43.79535" lon="7.08418">
        <ele>951</ele>
        <time>2018-05-03T12:49:14.000Z</time>
      </trkpt>
      <trkpt lat="43.79535" lon="7.08419">
        <ele>951</ele>
        <time>2018-05-03T12:49:24.000Z</time>
      </trkpt>
      <trkpt lat="43.79535" lon="7.08419">
        <ele>951</ele>
        <time>2018-05-03T12:49:25.000Z</time>
      </trkpt>
      <trkpt lat="43.79535" lon="7.08419">
        <ele>951</ele>
        <time>2018-05-03T12:49:29.000Z</time>
      </trkpt>
      <trkpt lat="43.79536" lon="7.0842">
        <ele>951</ele>
        <time>2018-05-03T12:49:37.000Z</time>
      </trkpt>
      <trkpt lat="43.79535" lon="7.0842">
        <ele>951</ele>
        <time>2018-05-03T12:49:43.000Z</time>
      </trkpt>
      <trkpt lat="43.79534" lon="7.0842">
        <ele>951</ele>
        <time>2018-05-03T12:49:49.000Z</time>
      </trkpt>
      <trkpt lat="43.79534" lon="7.0842">
        <ele>951</ele>
        <time>2018-05-03T12:49:56.000Z</time>
      </trkpt>
      <trkpt lat="43.79535" lon="7.0842">
        <ele>951</ele>
        <time>2018-05-03T12:50:06.000Z</time>
      </trkpt>
      <trkpt lat="43.79537" lon="7.0842">
        <ele>951</ele>
        <time>2018-05-03T12:50:15.000Z</time>
      </trkpt>
      <trkpt lat="43.79537" lon="7.0842">
        <ele>951</ele>
        <time>2018-05-03T12:50:27.000Z</time>
      </trkpt>
      <trkpt lat="43.79537" lon="7.0842">
        <ele>951</ele>
        <time>2018-05-03T12:50:37.000Z</time>
      </trkpt>
      <trkpt lat="43.79537" lon="7.0842">
        <ele>951</ele>
        <time>2018-05-03T12:50:50.000Z</time>
      </trkpt>
      <trkpt lat="43.79537" lon="7.0842">
        <ele>951</ele>
        <time>2018-05-03T12:51:01.000Z</time>
      </trkpt>
      <trkpt lat="43.79537" lon="7.0842">
        <ele>951</ele>
        <time>2018-05-03T12:51:08.000Z</time>
      </trkpt>
      <trkpt lat="43.79537" lon="7.0842">
        <ele>951</ele>
        <time>2018-05-03T12:51:16.000Z</time>
      </trkpt>
      <trkpt lat="43.79537" lon="7.0842">
        <ele>951</ele>
        <time>2018-05-03T12:51:20.000Z</time>
      </trkpt>
      <trkpt lat="43.79537" lon="7.0842">
        <ele>951</ele>
        <time>2018-05-03T12:51:27.000Z</time>
      </trkpt>
      <trkpt lat="43.79537" lon="7.0842">
        <ele>951</ele>
        <time>2018-05-03T12:51:38.000Z</time>
      </trkpt>
      <trkpt lat="43.79537" lon="7.0842">
        <ele>951</ele>
        <time>2018-05-03T12:51:57.000Z</time>
      </trkpt>
      <trkpt lat="43.79537" lon="7.08421">
        <ele>951</ele>
        <time>2018-05-03T12:52:06.000Z</time>
      </trkpt>
      <trkpt lat="43.79536" lon="7.08421">
        <ele>951</ele>
        <time>2018-05-03T12:52:22.000Z</time>
      </trkpt>
      <trkpt lat="43.79537" lon="7.08421">
        <ele>951</ele>
        <time>2018-05-03T12:52:39.000Z</time>
      </trkpt>
      <trkpt lat="43.79537" lon="7.08421">
        <ele>951</ele>
        <time>2018-05-03T12:52:47.000Z</time>
      </trkpt>
      <trkpt lat="43.79536" lon="7.08421">
        <ele>951</ele>
        <time>2018-05-03T12:52:59.000Z</time>
      </trkpt>
      <trkpt lat="43.79536" lon="7.08421">
        <ele>951</ele>
        <time>2018-05-03T12:53:13.000Z</time>
      </trkpt>
      <trkpt lat="43.79536" lon="7.08421">
        <ele>951</ele>
        <time>2018-05-03T12:53:45.000Z</time>
      </trkpt>
      <trkpt lat="43.79536" lon="7.08421">
        <ele>951</ele>
        <time>2018-05-03T12:53:53.000Z</time>
      </trkpt>
      <trkpt lat="43.79535" lon="7.08421">
        <ele>951</ele>
        <time>2018-05-03T12:54:14.000Z</time>
      </trkpt>
      <trkpt lat="43.79535" lon="7.08421">
        <ele>951</ele>
        <time>2018-05-03T12:54:20.000Z</time>
      </trkpt>
      <trkpt lat="43.79535" lon="7.08421">
        <ele>951</ele>
        <time>2018-05-03T12:54:25.000Z</time>
      </trkpt>
      <trkpt lat="43.79535" lon="7.08421">
        <ele>951</ele>
        <time>2018-05-03T12:54:29.000Z</time>
      </trkpt>
      <trkpt lat="43.79535" lon="7.08421">
        <ele>951</ele>
        <time>2018-05-03T12:54:39.000Z</time>
      </trkpt>
      <trkpt lat="43.79536" lon="7.0842">
        <ele>951</ele>
        <time>2018-05-03T12:54:56.000Z</time>
      </trkpt>
      <trkpt lat="43.79535" lon="7.0842">
        <ele>951</ele>
        <time>2018-05-03T12:55:12.000Z</time>
      </trkpt>
      <trkpt lat="43.79535" lon="7.0842">
        <ele>951</ele>
        <time>2018-05-03T12:55:19.000Z</time>
      </trkpt>
      <trkpt lat="43.79535" lon="7.0842">
        <ele>951</ele>
        <time>2018-05-03T12:55:24.000Z</time>
      </trkpt>
      <trkpt lat="43.79535" lon="7.0842">
        <ele>951</ele>
        <time>2018-05-03T12:55:34.000Z</time>
      </trkpt>
      <trkpt lat="43.79535" lon="7.0842">
        <ele>951</ele>
        <time>2018-05-03T12:55:46.000Z</time>
      </trkpt>
      <trkpt lat="43.79535" lon="7.0842">
        <ele>951</ele>
        <time>2018-05-03T12:55:56.000Z</time>
      </trkpt>
      <trkpt lat="43.79534" lon="7.08419">
        <ele>951</ele>
        <time>2018-05-03T12:56:01.000Z</time>
      </trkpt>
      <trkpt lat="43.79535" lon="7.08419">
        <ele>951</ele>
        <time>2018-05-03T12:56:11.000Z</time>
      </trkpt>
      <trkpt lat="43.79535" lon="7.08419">
        <ele>951</ele>
        <time>2018-05-03T12:56:23.000Z</time>
      </trkpt>
      <trkpt lat="43.79535" lon="7.08419">
        <ele>951</ele>
        <time>2018-05-03T12:56:29.000Z</time>
      </trkpt>
      <trkpt lat="43.79535" lon="7.08419">
        <ele>951</ele>
        <time>2018-05-03T12:56:34.000Z</time>
      </trkpt>
      <trkpt lat="43.79536" lon="7.08419">
        <ele>951</ele>
        <time>2018-05-03T12:56:43.000Z</time>
      </trkpt>
      <trkpt lat="43.79535" lon="7.0842">
        <ele>951</ele>
        <time>2018-05-03T12:56:49.000Z</time>
      </trkpt>
      <trkpt lat="43.79534" lon="7.08419">
        <ele>951</ele>
        <time>2018-05-03T12:56:55.000Z</time>
      </trkpt>
      <trkpt lat="43.79534" lon="7.0842">
        <ele>951</ele>
        <time>2018-05-03T12:57:03.000Z</time>
      </trkpt>
      <trkpt lat="43.79535" lon="7.08419">
        <ele>951</ele>
        <time>2018-05-03T12:57:11.000Z</time>
      </trkpt>
      <trkpt lat="43.79535" lon="7.08419">
        <ele>951</ele>
        <time>2018-05-03T12:57:16.000Z</time>
      </trkpt>
      <trkpt lat="43.79539" lon="7.08415">
        <ele>945</ele>
        <time>2018-05-03T12:57:22.000Z</time>
      </trkpt>
      <trkpt lat="43.79543" lon="7.08414">
        <ele>945</ele>
        <time>2018-05-03T12:57:28.000Z</time>
      </trkpt>
      <trkpt lat="43.79544" lon="7.08412">
        <ele>945</ele>
        <time>2018-05-03T12:57:31.000Z</time>
      </trkpt>
      <trkpt lat="43.79545" lon="7.0841">
        <ele>945</ele>
        <time>2018-05-03T12:57:33.000Z</time>
      </trkpt>
      <trkpt lat="43.79555" lon="7.08405">
        <ele>946</ele>
        <time>2018-05-03T12:57:40.000Z</time>
      </trkpt>
      <trkpt lat="43.79564" lon="7.08401">
        <ele>947</ele>
        <time>2018-05-03T12:57:45.000Z</time>
      </trkpt>
      <trkpt lat="43.79571" lon="7.08399">
        <ele>948</ele>
        <time>2018-05-03T12:57:48.000Z</time>
      </trkpt>
      <trkpt lat="43.79592" lon="7.08393">
        <ele>951</ele>
        <time>2018-05-03T12:57:57.000Z</time>
      </trkpt>
      <trkpt lat="43.79606" lon="7.08389">
        <ele>950</ele>
        <time>2018-05-03T12:58:03.000Z</time>
      </trkpt>
      <trkpt lat="43.79614" lon="7.08387">
        <ele>950</ele>
        <time>2018-05-03T12:58:06.000Z</time>
      </trkpt>
      <trkpt lat="43.79636" lon="7.08385">
        <ele>951</ele>
        <time>2018-05-03T12:58:14.000Z</time>
      </trkpt>
      <trkpt lat="43.79641" lon="7.08385">
        <ele>951</ele>
        <time>2018-05-03T12:58:16.000Z</time>
      </trkpt>
      <trkpt lat="43.79657" lon="7.08385">
        <ele>951</ele>
        <time>2018-05-03T12:58:21.000Z</time>
      </trkpt>
      <trkpt lat="43.79681" lon="7.08385">
        <ele>953</ele>
        <time>2018-05-03T12:58:28.000Z</time>
      </trkpt>
      <trkpt lat="43.797" lon="7.08383">
        <ele>953</ele>
        <time>2018-05-03T12:58:34.000Z</time>
      </trkpt>
      <trkpt lat="43.79723" lon="7.08391">
        <ele>953</ele>
        <time>2018-05-03T12:58:42.000Z</time>
      </trkpt>
      <trkpt lat="43.79731" lon="7.08402">
        <ele>954</ele>
        <time>2018-05-03T12:58:46.000Z</time>
      </trkpt>
      <trkpt lat="43.79734" lon="7.08406">
        <ele>954</ele>
        <time>2018-05-03T12:58:48.000Z</time>
      </trkpt>
      <trkpt lat="43.79734" lon="7.08409">
        <ele>954</ele>
        <time>2018-05-03T12:58:50.000Z</time>
      </trkpt>
      <trkpt lat="43.79734" lon="7.0841">
        <ele>954</ele>
        <time>2018-05-03T12:58:51.000Z</time>
      </trkpt>
      <trkpt lat="43.79734" lon="7.0841">
        <ele>954</ele>
        <time>2018-05-03T12:58:57.000Z</time>
      </trkpt>
      <trkpt lat="43.79734" lon="7.08409">
        <ele>954</ele>
        <time>2018-05-03T12:59:04.000Z</time>
      </trkpt>
      <trkpt lat="43.79734" lon="7.08409">
        <ele>954</ele>
        <time>2018-05-03T12:59:11.000Z</time>
      </trkpt>
      <trkpt lat="43.79734" lon="7.08409">
        <ele>954</ele>
        <time>2018-05-03T12:59:22.000Z</time>
      </trkpt>
      <trkpt lat="43.79734" lon="7.08409">
        <ele>954</ele>
        <time>2018-05-03T12:59:30.000Z</time>
      </trkpt>
      <trkpt lat="43.79734" lon="7.08409">
        <ele>954</ele>
        <time>2018-05-03T12:59:38.000Z</time>
      </trkpt>
      <trkpt lat="43.79734" lon="7.08409">
        <ele>954</ele>
        <time>2018-05-03T12:59:46.000Z</time>
      </trkpt>
      <trkpt lat="43.79734" lon="7.08409">
        <ele>954</ele>
        <time>2018-05-03T12:59:48.000Z</time>
      </trkpt>
      <trkpt lat="43.79735" lon="7.08409">
        <ele>954</ele>
        <time>2018-05-03T13:00:10.000Z</time>
      </trkpt>
      <trkpt lat="43.79735" lon="7.08409">
        <ele>954</ele>
        <time>2018-05-03T13:00:17.000Z</time>
      </trkpt>
      <trkpt lat="43.79734" lon="7.08409">
        <ele>954</ele>
        <time>2018-05-03T13:00:36.000Z</time>
      </trkpt>
      <trkpt lat="43.79733" lon="7.08411">
        <ele>954</ele>
        <time>2018-05-03T13:00:44.000Z</time>
      </trkpt>
      <trkpt lat="43.7973" lon="7.08417">
        <ele>956</ele>
        <time>2018-05-03T13:00:49.000Z</time>
      </trkpt>
      <trkpt lat="43.7973" lon="7.0842">
        <ele>956</ele>
        <time>2018-05-03T13:00:50.000Z</time>
      </trkpt>
      <trkpt lat="43.79729" lon="7.08429">
        <ele>957</ele>
        <time>2018-05-03T13:00:54.000Z</time>
      </trkpt>
      <trkpt lat="43.79729" lon="7.08434">
        <ele>957</ele>
        <time>2018-05-03T13:00:56.000Z</time>
      </trkpt>
      <trkpt lat="43.79728" lon="7.08436">
        <ele>957</ele>
        <time>2018-05-03T13:00:57.000Z</time>
      </trkpt>
      <trkpt lat="43.79728" lon="7.08444">
        <ele>957</ele>
        <time>2018-05-03T13:01:01.000Z</time>
      </trkpt>
      <trkpt lat="43.79727" lon="7.08447">
        <ele>957</ele>
        <time>2018-05-03T13:01:03.000Z</time>
      </trkpt>
      <trkpt lat="43.79726" lon="7.0845">
        <ele>957</ele>
        <time>2018-05-03T13:01:05.000Z</time>
      </trkpt>
      <trkpt lat="43.79724" lon="7.08456">
        <ele>958</ele>
        <time>2018-05-03T13:01:09.000Z</time>
      </trkpt>
      <trkpt lat="43.79724" lon="7.08457">
        <ele>958</ele>
        <time>2018-05-03T13:01:10.000Z</time>
      </trkpt>
      <trkpt lat="43.79723" lon="7.08459">
        <ele>958</ele>
        <time>2018-05-03T13:01:12.000Z</time>
      </trkpt>
      <trkpt lat="43.79723" lon="7.08462">
        <ele>958</ele>
        <time>2018-05-03T13:01:14.000Z</time>
      </trkpt>
      <trkpt lat="43.79722" lon="7.08465">
        <ele>958</ele>
        <time>2018-05-03T13:01:17.000Z</time>
      </trkpt>
      <trkpt lat="43.79721" lon="7.08468">
        <ele>958</ele>
        <time>2018-05-03T13:01:19.000Z</time>
      </trkpt>
      <trkpt lat="43.7972" lon="7.0847">
        <ele>958</ele>
        <time>2018-05-03T13:01:21.000Z</time>
      </trkpt>
      <trkpt lat="43.79717" lon="7.08474">
        <ele>958</ele>
        <time>2018-05-03T13:01:24.000Z</time>
      </trkpt>
      <trkpt lat="43.79716" lon="7.08475">
        <ele>958</ele>
        <time>2018-05-03T13:01:25.000Z</time>
      </trkpt>
      <trkpt lat="43.79708" lon="7.0848">
        <ele>959</ele>
        <time>2018-05-03T13:01:32.000Z</time>
      </trkpt>
      <trkpt lat="43.79698" lon="7.08485">
        <ele>959</ele>
        <time>2018-05-03T13:01:39.000Z</time>
      </trkpt>
      <trkpt lat="43.79691" lon="7.08491">
        <ele>960</ele>
        <time>2018-05-03T13:01:44.000Z</time>
      </trkpt>
      <trkpt lat="43.79689" lon="7.08491">
        <ele>960</ele>
        <time>2018-05-03T13:01:45.000Z</time>
      </trkpt>
      <trkpt lat="43.7968" lon="7.08499">
        <ele>962</ele>
        <time>2018-05-03T13:01:52.000Z</time>
      </trkpt>
      <trkpt lat="43.79675" lon="7.08505">
        <ele>963</ele>
        <time>2018-05-03T13:01:57.000Z</time>
      </trkpt>
      <trkpt lat="43.79671" lon="7.0851">
        <ele>963</ele>
        <time>2018-05-03T13:02:01.000Z</time>
      </trkpt>
      <trkpt lat="43.79665" lon="7.08521">
        <ele>966</ele>
        <time>2018-05-03T13:02:06.000Z</time>
      </trkpt>
      <trkpt lat="43.79663" lon="7.08526">
        <ele>966</ele>
        <time>2018-05-03T13:02:08.000Z</time>
      </trkpt>
      <trkpt lat="43.79657" lon="7.08537">
        <ele>966</ele>
        <time>2018-05-03T13:02:13.000Z</time>
      </trkpt>
      <trkpt lat="43.79653" lon="7.08543">
        <ele>966</ele>
        <time>2018-05-03T13:02:16.000Z</time>
      </trkpt>
      <trkpt lat="43.79649" lon="7.08549">
        <ele>967</ele>
        <time>2018-05-03T13:02:19.000Z</time>
      </trkpt>
      <trkpt lat="43.79643" lon="7.08563">
        <ele>967</ele>
        <time>2018-05-03T13:02:25.000Z</time>
      </trkpt>
      <trkpt lat="43.79637" lon="7.08573">
        <ele>967</ele>
        <time>2018-05-03T13:02:30.000Z</time>
      </trkpt>
      <trkpt lat="43.79633" lon="7.08578">
        <ele>967</ele>
        <time>2018-05-03T13:02:33.000Z</time>
      </trkpt>
      <trkpt lat="43.79622" lon="7.08585">
        <ele>969</ele>
        <time>2018-05-03T13:02:39.000Z</time>
      </trkpt>
      <trkpt lat="43.79608" lon="7.08596">
        <ele>969</ele>
        <time>2018-05-03T13:02:46.000Z</time>
      </trkpt>
      <trkpt lat="43.79592" lon="7.08609">
        <ele>970</ele>
        <time>2018-05-03T13:02:53.000Z</time>
      </trkpt>
      <trkpt lat="43.7959" lon="7.08611">
        <ele>970</ele>
        <time>2018-05-03T13:02:54.000Z</time>
      </trkpt>
      <trkpt lat="43.79582" lon="7.08618">
        <ele>970</ele>
        <time>2018-05-03T13:02:58.000Z</time>
      </trkpt>
      <trkpt lat="43.79577" lon="7.08624">
        <ele>970</ele>
        <time>2018-05-03T13:03:01.000Z</time>
      </trkpt>
      <trkpt lat="43.79574" lon="7.08629">
        <ele>970</ele>
        <time>2018-05-03T13:03:03.000Z</time>
      </trkpt>
      <trkpt lat="43.79564" lon="7.08642">
        <ele>970</ele>
        <time>2018-05-03T13:03:09.000Z</time>
      </trkpt>
      <trkpt lat="43.79558" lon="7.08656">
        <ele>971</ele>
        <time>2018-05-03T13:03:15.000Z</time>
      </trkpt>
      <trkpt lat="43.79557" lon="7.08659">
        <ele>971</ele>
        <time>2018-05-03T13:03:16.000Z</time>
      </trkpt>
      <trkpt lat="43.79555" lon="7.08667">
        <ele>971</ele>
        <time>2018-05-03T13:03:19.000Z</time>
      </trkpt>
      <trkpt lat="43.79554" lon="7.08684">
        <ele>971</ele>
        <time>2018-05-03T13:03:23.000Z</time>
      </trkpt>
      <trkpt lat="43.79551" lon="7.08711">
        <ele>971</ele>
        <time>2018-05-03T13:03:27.000Z</time>
      </trkpt>
      <trkpt lat="43.7955" lon="7.08719">
        <ele>971</ele>
        <time>2018-05-03T13:03:28.000Z</time>
      </trkpt>
      <trkpt lat="43.79549" lon="7.08728">
        <ele>971</ele>
        <time>2018-05-03T13:03:29.000Z</time>
      </trkpt>
      <trkpt lat="43.79548" lon="7.08744">
        <ele>971</ele>
        <time>2018-05-03T13:03:31.000Z</time>
      </trkpt>
      <trkpt lat="43.79547" lon="7.08755">
        <ele>971</ele>
        <time>2018-05-03T13:03:33.000Z</time>
      </trkpt>
      <trkpt lat="43.79547" lon="7.08761">
        <ele>971</ele>
        <time>2018-05-03T13:03:34.000Z</time>
      </trkpt>
      <trkpt lat="43.79546" lon="7.08783">
        <ele>971</ele>
        <time>2018-05-03T13:03:38.000Z</time>
      </trkpt>
      <trkpt lat="43.79546" lon="7.08809">
        <ele>971</ele>
        <time>2018-05-03T13:03:44.000Z</time>
      </trkpt>
      <trkpt lat="43.79542" lon="7.08839">
        <ele>972</ele>
        <time>2018-05-03T13:03:50.000Z</time>
      </trkpt>
      <trkpt lat="43.79541" lon="7.08855">
        <ele>972</ele>
        <time>2018-05-03T13:03:54.000Z</time>
      </trkpt>
      <trkpt lat="43.7954" lon="7.08864">
        <ele>972</ele>
        <time>2018-05-03T13:03:56.000Z</time>
      </trkpt>
      <trkpt lat="43.7954" lon="7.08875">
        <ele>973</ele>
        <time>2018-05-03T13:03:59.000Z</time>
      </trkpt>
      <trkpt lat="43.79538" lon="7.08897">
        <ele>973</ele>
        <time>2018-05-03T13:04:05.000Z</time>
      </trkpt>
      <trkpt lat="43.79538" lon="7.08927">
        <ele>973</ele>
        <time>2018-05-03T13:04:11.000Z</time>
      </trkpt>
      <trkpt lat="43.79534" lon="7.08971">
        <ele>973</ele>
        <time>2018-05-03T13:04:19.000Z</time>
      </trkpt>
      <trkpt lat="43.79531" lon="7.09009">
        <ele>974</ele>
        <time>2018-05-03T13:04:24.000Z</time>
      </trkpt>
      <trkpt lat="43.79531" lon="7.09016">
        <ele>974</ele>
        <time>2018-05-03T13:04:25.000Z</time>
      </trkpt>
      <trkpt lat="43.7953" lon="7.09034">
        <ele>974</ele>
        <time>2018-05-03T13:04:29.000Z</time>
      </trkpt>
      <trkpt lat="43.7953" lon="7.0904">
        <ele>974</ele>
        <time>2018-05-03T13:04:31.000Z</time>
      </trkpt>
      <trkpt lat="43.79529" lon="7.09043">
        <ele>974</ele>
        <time>2018-05-03T13:04:32.000Z</time>
      </trkpt>
      <trkpt lat="43.79529" lon="7.09052">
        <ele>974</ele>
        <time>2018-05-03T13:04:35.000Z</time>
      </trkpt>
      <trkpt lat="43.79529" lon="7.09055">
        <ele>975</ele>
        <time>2018-05-03T13:04:36.000Z</time>
      </trkpt>
      <trkpt lat="43.79527" lon="7.09064">
        <ele>975</ele>
        <time>2018-05-03T13:04:39.000Z</time>
      </trkpt>
      <trkpt lat="43.79526" lon="7.09083">
        <ele>975</ele>
        <time>2018-05-03T13:04:44.000Z</time>
      </trkpt>
      <trkpt lat="43.79524" lon="7.0912">
        <ele>976</ele>
        <time>2018-05-03T13:04:52.000Z</time>
      </trkpt>
      <trkpt lat="43.79521" lon="7.09156">
        <ele>976</ele>
        <time>2018-05-03T13:05:00.000Z</time>
      </trkpt>
      <trkpt lat="43.79518" lon="7.09185">
        <ele>977</ele>
        <time>2018-05-03T13:05:05.000Z</time>
      </trkpt>
      <trkpt lat="43.79515" lon="7.09225">
        <ele>977</ele>
        <time>2018-05-03T13:05:10.000Z</time>
      </trkpt>
      <trkpt lat="43.79514" lon="7.09232">
        <ele>977</ele>
        <time>2018-05-03T13:05:11.000Z</time>
      </trkpt>
      <trkpt lat="43.79513" lon="7.09264">
        <ele>978</ele>
        <time>2018-05-03T13:05:15.000Z</time>
      </trkpt>
      <trkpt lat="43.79514" lon="7.09291">
        <ele>979</ele>
        <time>2018-05-03T13:05:20.000Z</time>
      </trkpt>
      <trkpt lat="43.79512" lon="7.09317">
        <ele>980</ele>
        <time>2018-05-03T13:05:25.000Z</time>
      </trkpt>
      <trkpt lat="43.79511" lon="7.09334">
        <ele>981</ele>
        <time>2018-05-03T13:05:29.000Z</time>
      </trkpt>
      <trkpt lat="43.7951" lon="7.09341">
        <ele>981</ele>
        <time>2018-05-03T13:05:31.000Z</time>
      </trkpt>
      <trkpt lat="43.79509" lon="7.09344">
        <ele>981</ele>
        <time>2018-05-03T13:05:32.000Z</time>
      </trkpt>
      <trkpt lat="43.79509" lon="7.09353">
        <ele>981</ele>
        <time>2018-05-03T13:05:35.000Z</time>
      </trkpt>
      <trkpt lat="43.79507" lon="7.09363">
        <ele>981</ele>
        <time>2018-05-03T13:05:38.000Z</time>
      </trkpt>
      <trkpt lat="43.79507" lon="7.09367">
        <ele>981</ele>
        <time>2018-05-03T13:05:39.000Z</time>
      </trkpt>
      <trkpt lat="43.79506" lon="7.0939">
        <ele>982</ele>
        <time>2018-05-03T13:05:46.000Z</time>
      </trkpt>
      <trkpt lat="43.79502" lon="7.09423">
        <ele>982</ele>
        <time>2018-05-03T13:05:53.000Z</time>
      </trkpt>
      <trkpt lat="43.79501" lon="7.09445">
        <ele>982</ele>
        <time>2018-05-03T13:05:56.000Z</time>
      </trkpt>
      <trkpt lat="43.79501" lon="7.0946">
        <ele>981</ele>
        <time>2018-05-03T13:05:58.000Z</time>
      </trkpt>
      <trkpt lat="43.79501" lon="7.09466">
        <ele>981</ele>
        <time>2018-05-03T13:05:59.000Z</time>
      </trkpt>
      <trkpt lat="43.795" lon="7.09472">
        <ele>981</ele>
        <time>2018-05-03T13:06:00.000Z</time>
      </trkpt>
      <trkpt lat="43.79497" lon="7.09479">
        <ele>981</ele>
        <time>2018-05-03T13:06:02.000Z</time>
      </trkpt>
      <trkpt lat="43.79493" lon="7.09483">
        <ele>980</ele>
        <time>2018-05-03T13:06:04.000Z</time>
      </trkpt>
      <trkpt lat="43.79487" lon="7.09487">
        <ele>980</ele>
        <time>2018-05-03T13:06:07.000Z</time>
      </trkpt>
      <trkpt lat="43.79484" lon="7.09488">
        <ele>980</ele>
        <time>2018-05-03T13:06:08.000Z</time>
      </trkpt>
      <trkpt lat="43.79468" lon="7.09495">
        <ele>981</ele>
        <time>2018-05-03T13:06:13.000Z</time>
      </trkpt>
      <trkpt lat="43.79451" lon="7.09494">
        <ele>981</ele>
        <time>2018-05-03T13:06:19.000Z</time>
      </trkpt>
      <trkpt lat="43.79435" lon="7.09496">
        <ele>981</ele>
        <time>2018-05-03T13:06:24.000Z</time>
      </trkpt>
      <trkpt lat="43.79414" lon="7.09506">
        <ele>981</ele>
        <time>2018-05-03T13:06:30.000Z</time>
      </trkpt>
      <trkpt lat="43.7941" lon="7.09507">
        <ele>981</ele>
        <time>2018-05-03T13:06:31.000Z</time>
      </trkpt>
      <trkpt lat="43.79391" lon="7.09506">
        <ele>980</ele>
        <time>2018-05-03T13:06:36.000Z</time>
      </trkpt>
      <trkpt lat="43.79381" lon="7.0951">
        <ele>980</ele>
        <time>2018-05-03T13:06:40.000Z</time>
      </trkpt>
      <trkpt lat="43.79379" lon="7.09511">
        <ele>980</ele>
        <time>2018-05-03T13:06:41.000Z</time>
      </trkpt>
      <trkpt lat="43.79369" lon="7.09514">
        <ele>980</ele>
        <time>2018-05-03T13:06:44.000Z</time>
      </trkpt>
      <trkpt lat="43.79358" lon="7.09516">
        <ele>980</ele>
        <time>2018-05-03T13:06:48.000Z</time>
      </trkpt>
      <trkpt lat="43.79356" lon="7.09517">
        <ele>980</ele>
        <time>2018-05-03T13:06:49.000Z</time>
      </trkpt>
      <trkpt lat="43.79338" lon="7.09523">
        <ele>981</ele>
        <time>2018-05-03T13:06:55.000Z</time>
      </trkpt>
      <trkpt lat="43.79325" lon="7.09529">
        <ele>982</ele>
        <time>2018-05-03T13:06:58.000Z</time>
      </trkpt>
      <trkpt lat="43.79313" lon="7.09533">
        <ele>983</ele>
        <time>2018-05-03T13:07:01.000Z</time>
      </trkpt>
      <trkpt lat="43.79294" lon="7.0954">
        <ele>983</ele>
        <time>2018-05-03T13:07:07.000Z</time>
      </trkpt>
      <trkpt lat="43.79277" lon="7.09548">
        <ele>983</ele>
        <time>2018-05-03T13:07:13.000Z</time>
      </trkpt>
      <trkpt lat="43.79272" lon="7.0955">
        <ele>983</ele>
        <time>2018-05-03T13:07:15.000Z</time>
      </trkpt>
      <trkpt lat="43.79263" lon="7.09557">
        <ele>983</ele>
        <time>2018-05-03T13:07:19.000Z</time>
      </trkpt>
      <trkpt lat="43.79261" lon="7.09558">
        <ele>984</ele>
        <time>2018-05-03T13:07:20.000Z</time>
      </trkpt>
      <trkpt lat="43.79257" lon="7.09563">
        <ele>984</ele>
        <time>2018-05-03T13:07:23.000Z</time>
      </trkpt>
      <trkpt lat="43.7925" lon="7.09571">
        <ele>984</ele>
        <time>2018-05-03T13:07:27.000Z</time>
      </trkpt>
      <trkpt lat="43.79246" lon="7.09576">
        <ele>984</ele>
        <time>2018-05-03T13:07:29.000Z</time>
      </trkpt>
      <trkpt lat="43.79236" lon="7.09587">
        <ele>985</ele>
        <time>2018-05-03T13:07:33.000Z</time>
      </trkpt>
      <trkpt lat="43.79228" lon="7.0959">
        <ele>985</ele>
        <time>2018-05-03T13:07:35.000Z</time>
      </trkpt>
      <trkpt lat="43.79219" lon="7.0959">
        <ele>986</ele>
        <time>2018-05-03T13:07:37.000Z</time>
      </trkpt>
      <trkpt lat="43.79215" lon="7.09591">
        <ele>986</ele>
        <time>2018-05-03T13:07:38.000Z</time>
      </trkpt>
      <trkpt lat="43.79211" lon="7.09593">
        <ele>986</ele>
        <time>2018-05-03T13:07:39.000Z</time>
      </trkpt>
      <trkpt lat="43.79205" lon="7.09599">
        <ele>986</ele>
        <time>2018-05-03T13:07:41.000Z</time>
      </trkpt>
      <trkpt lat="43.79203" lon="7.09602">
        <ele>986</ele>
        <time>2018-05-03T13:07:42.000Z</time>
      </trkpt>
      <trkpt lat="43.7919" lon="7.09613">
        <ele>987</ele>
        <time>2018-05-03T13:07:47.000Z</time>
      </trkpt>
      <trkpt lat="43.79181" lon="7.09628">
        <ele>987</ele>
        <time>2018-05-03T13:07:51.000Z</time>
      </trkpt>
      <trkpt lat="43.79176" lon="7.09634">
        <ele>987</ele>
        <time>2018-05-03T13:07:53.000Z</time>
      </trkpt>
      <trkpt lat="43.79164" lon="7.09644">
        <ele>989</ele>
        <time>2018-05-03T13:07:58.000Z</time>
      </trkpt>
      <trkpt lat="43.79162" lon="7.09646">
        <ele>989</ele>
        <time>2018-05-03T13:07:59.000Z</time>
      </trkpt>
      <trkpt lat="43.79151" lon="7.09659">
        <ele>989</ele>
        <time>2018-05-03T13:08:04.000Z</time>
      </trkpt>
      <trkpt lat="43.79148" lon="7.09664">
        <ele>989</ele>
        <time>2018-05-03T13:08:06.000Z</time>
      </trkpt>
      <trkpt lat="43.79142" lon="7.09673">
        <ele>991</ele>
        <time>2018-05-03T13:08:10.000Z</time>
      </trkpt>
      <trkpt lat="43.79139" lon="7.0968">
        <ele>991</ele>
        <time>2018-05-03T13:08:12.000Z</time>
      </trkpt>
      <trkpt lat="43.79132" lon="7.09702">
        <ele>992</ele>
        <time>2018-05-03T13:08:18.000Z</time>
      </trkpt>
      <trkpt lat="43.7913" lon="7.09705">
        <ele>992</ele>
        <time>2018-05-03T13:08:19.000Z</time>
      </trkpt>
      <trkpt lat="43.79116" lon="7.09719">
        <ele>992</ele>
        <time>2018-05-03T13:08:25.000Z</time>
      </trkpt>
      <trkpt lat="43.79111" lon="7.09724">
        <ele>993</ele>
        <time>2018-05-03T13:08:27.000Z</time>
      </trkpt>
      <trkpt lat="43.79099" lon="7.09733">
        <ele>993</ele>
        <time>2018-05-03T13:08:31.000Z</time>
      </trkpt>
      <trkpt lat="43.79083" lon="7.09741">
        <ele>995</ele>
        <time>2018-05-03T13:08:37.000Z</time>
      </trkpt>
      <trkpt lat="43.7908" lon="7.09745">
        <ele>995</ele>
        <time>2018-05-03T13:08:39.000Z</time>
      </trkpt>
      <trkpt lat="43.79073" lon="7.09751">
        <ele>996</ele>
        <time>2018-05-03T13:08:43.000Z</time>
      </trkpt>
      <trkpt lat="43.79069" lon="7.09759">
        <ele>996</ele>
        <time>2018-05-03T13:08:46.000Z</time>
      </trkpt>
      <trkpt lat="43.79065" lon="7.09767">
        <ele>997</ele>
        <time>2018-05-03T13:08:49.000Z</time>
      </trkpt>
      <trkpt lat="43.79057" lon="7.09778">
        <ele>997</ele>
        <time>2018-05-03T13:08:54.000Z</time>
      </trkpt>
      <trkpt lat="43.79052" lon="7.09784">
        <ele>998</ele>
        <time>2018-05-03T13:08:57.000Z</time>
      </trkpt>
      <trkpt lat="43.79049" lon="7.09788">
        <ele>998</ele>
        <time>2018-05-03T13:08:59.000Z</time>
      </trkpt>
      <trkpt lat="43.79038" lon="7.09798">
        <ele>998</ele>
        <time>2018-05-03T13:09:05.000Z</time>
      </trkpt>
      <trkpt lat="43.79034" lon="7.09802">
        <ele>998</ele>
        <time>2018-05-03T13:09:07.000Z</time>
      </trkpt>
      <trkpt lat="43.79031" lon="7.09806">
        <ele>999</ele>
        <time>2018-05-03T13:09:09.000Z</time>
      </trkpt>
      <trkpt lat="43.79027" lon="7.09819">
        <ele>999</ele>
        <time>2018-05-03T13:09:14.000Z</time>
      </trkpt>
      <trkpt lat="43.79025" lon="7.09824">
        <ele>1000</ele>
        <time>2018-05-03T13:09:16.000Z</time>
      </trkpt>
      <trkpt lat="43.79021" lon="7.09838">
        <ele>1001</ele>
        <time>2018-05-03T13:09:22.000Z</time>
      </trkpt>
      <trkpt lat="43.79015" lon="7.09852">
        <ele>1001</ele>
        <time>2018-05-03T13:09:29.000Z</time>
      </trkpt>
      <trkpt lat="43.79014" lon="7.09857">
        <ele>1001</ele>
        <time>2018-05-03T13:09:31.000Z</time>
      </trkpt>
      <trkpt lat="43.79011" lon="7.09867">
        <ele>1002</ele>
        <time>2018-05-03T13:09:36.000Z</time>
      </trkpt>
      <trkpt lat="43.7901" lon="7.09871">
        <ele>1002</ele>
        <time>2018-05-03T13:09:38.000Z</time>
      </trkpt>
      <trkpt lat="43.79009" lon="7.09878">
        <ele>1002</ele>
        <time>2018-05-03T13:09:41.000Z</time>
      </trkpt>
      <trkpt lat="43.79006" lon="7.09889">
        <ele>1002</ele>
        <time>2018-05-03T13:09:46.000Z</time>
      </trkpt>
      <trkpt lat="43.79002" lon="7.09905">
        <ele>1003</ele>
        <time>2018-05-03T13:09:52.000Z</time>
      </trkpt>
      <trkpt lat="43.79001" lon="7.0991">
        <ele>1004</ele>
        <time>2018-05-03T13:09:54.000Z</time>
      </trkpt>
      <trkpt lat="43.79" lon="7.09935">
        <ele>1007</ele>
        <time>2018-05-03T13:10:03.000Z</time>
      </trkpt>
      <trkpt lat="43.78999" lon="7.09944">
        <ele>1007</ele>
        <time>2018-05-03T13:10:09.000Z</time>
      </trkpt>
      <trkpt lat="43.79001" lon="7.09951">
        <ele>1003</ele>
        <time>2018-05-03T13:10:13.000Z</time>
      </trkpt>
      <trkpt lat="43.79014" lon="7.09965">
        <ele>1003</ele>
        <time>2018-05-03T13:10:18.000Z</time>
      </trkpt>
      <trkpt lat="43.79018" lon="7.09971">
        <ele>1003</ele>
        <time>2018-05-03T13:10:19.000Z</time>
      </trkpt>
      <trkpt lat="43.79029" lon="7.0999">
        <ele>1003</ele>
        <time>2018-05-03T13:10:22.000Z</time>
      </trkpt>
      <trkpt lat="43.79033" lon="7.09997">
        <ele>1002</ele>
        <time>2018-05-03T13:10:23.000Z</time>
      </trkpt>
      <trkpt lat="43.79044" lon="7.10012">
        <ele>1003</ele>
        <time>2018-05-03T13:10:25.000Z</time>
      </trkpt>
      <trkpt lat="43.79055" lon="7.10025">
        <ele>1002</ele>
        <time>2018-05-03T13:10:27.000Z</time>
      </trkpt>
      <trkpt lat="43.79063" lon="7.10035">
        <ele>1002</ele>
        <time>2018-05-03T13:10:29.000Z</time>
      </trkpt>
      <trkpt lat="43.79068" lon="7.10045">
        <ele>1002</ele>
        <time>2018-05-03T13:10:31.000Z</time>
      </trkpt>
      <trkpt lat="43.79069" lon="7.10048">
        <ele>1002</ele>
        <time>2018-05-03T13:10:34.000Z</time>
      </trkpt>
      <trkpt lat="43.7907" lon="7.10049">
        <ele>1002</ele>
        <time>2018-05-03T13:10:36.000Z</time>
      </trkpt>
      <trkpt lat="43.79072" lon="7.10053">
        <ele>1002</ele>
        <time>2018-05-03T13:10:38.000Z</time>
      </trkpt>
      <trkpt lat="43.79081" lon="7.10076">
        <ele>1000</ele>
        <time>2018-05-03T13:10:43.000Z</time>
      </trkpt>
      <trkpt lat="43.79085" lon="7.10088">
        <ele>999</ele>
        <time>2018-05-03T13:10:45.000Z</time>
      </trkpt>
      <trkpt lat="43.79094" lon="7.10116">
        <ele>998</ele>
        <time>2018-05-03T13:10:50.000Z</time>
      </trkpt>
      <trkpt lat="43.791" lon="7.10144">
        <ele>998</ele>
        <time>2018-05-03T13:10:55.000Z</time>
      </trkpt>
      <trkpt lat="43.79102" lon="7.1015">
        <ele>998</ele>
        <time>2018-05-03T13:10:56.000Z</time>
      </trkpt>
      <trkpt lat="43.79104" lon="7.10155">
        <ele>998</ele>
        <time>2018-05-03T13:10:57.000Z</time>
      </trkpt>
      <trkpt lat="43.79108" lon="7.10168">
        <ele>998</ele>
        <time>2018-05-03T13:10:59.000Z</time>
      </trkpt>
      <trkpt lat="43.79109" lon="7.10183">
        <ele>998</ele>
        <time>2018-05-03T13:11:01.000Z</time>
      </trkpt>
      <trkpt lat="43.79101" lon="7.10203">
        <ele>997</ele>
        <time>2018-05-03T13:11:04.000Z</time>
      </trkpt>
      <trkpt lat="43.79097" lon="7.10208">
        <ele>997</ele>
        <time>2018-05-03T13:11:05.000Z</time>
      </trkpt>
      <trkpt lat="43.79083" lon="7.10218">
        <ele>1000</ele>
        <time>2018-05-03T13:11:08.000Z</time>
      </trkpt>
      <trkpt lat="43.79074" lon="7.10222">
        <ele>999</ele>
        <time>2018-05-03T13:11:10.000Z</time>
      </trkpt>
      <trkpt lat="43.79051" lon="7.10225">
        <ele>1000</ele>
        <time>2018-05-03T13:11:16.000Z</time>
      </trkpt>
      <trkpt lat="43.79048" lon="7.10225">
        <ele>1000</ele>
        <time>2018-05-03T13:11:17.000Z</time>
      </trkpt>
      <trkpt lat="43.79036" lon="7.10233">
        <ele>1000</ele>
        <time>2018-05-03T13:11:21.000Z</time>
      </trkpt>
      <trkpt lat="43.79035" lon="7.10236">
        <ele>1000</ele>
        <time>2018-05-03T13:11:22.000Z</time>
      </trkpt>
      <trkpt lat="43.79034" lon="7.10249">
        <ele>1000</ele>
        <time>2018-05-03T13:11:25.000Z</time>
      </trkpt>
      <trkpt lat="43.79032" lon="7.10262">
        <ele>998</ele>
        <time>2018-05-03T13:11:28.000Z</time>
      </trkpt>
      <trkpt lat="43.79028" lon="7.10292">
        <ele>999</ele>
        <time>2018-05-03T13:11:34.000Z</time>
      </trkpt>
      <trkpt lat="43.79025" lon="7.10329">
        <ele>999</ele>
        <time>2018-05-03T13:11:41.000Z</time>
      </trkpt>
      <trkpt lat="43.79028" lon="7.10355">
        <ele>1001</ele>
        <time>2018-05-03T13:11:47.000Z</time>
      </trkpt>
      <trkpt lat="43.79029" lon="7.10359">
        <ele>1001</ele>
        <time>2018-05-03T13:11:48.000Z</time>
      </trkpt>
      <trkpt lat="43.79028" lon="7.10376">
        <ele>1001</ele>
        <time>2018-05-03T13:11:53.000Z</time>
      </trkpt>
      <trkpt lat="43.79028" lon="7.1038">
        <ele>1001</ele>
        <time>2018-05-03T13:11:54.000Z</time>
      </trkpt>
      <trkpt lat="43.79027" lon="7.10389">
        <ele>1002</ele>
        <time>2018-05-03T13:11:57.000Z</time>
      </trkpt>
      <trkpt lat="43.79026" lon="7.10396">
        <ele>1002</ele>
        <time>2018-05-03T13:12:00.000Z</time>
      </trkpt>
      <trkpt lat="43.79026" lon="7.10399">
        <ele>1002</ele>
        <time>2018-05-03T13:12:01.000Z</time>
      </trkpt>
      <trkpt lat="43.79024" lon="7.10405">
        <ele>1002</ele>
        <time>2018-05-03T13:12:04.000Z</time>
      </trkpt>
      <trkpt lat="43.79024" lon="7.10414">
        <ele>1003</ele>
        <time>2018-05-03T13:12:08.000Z</time>
      </trkpt>
      <trkpt lat="43.79024" lon="7.10417">
        <ele>1005</ele>
        <time>2018-05-03T13:12:09.000Z</time>
      </trkpt>
      <trkpt lat="43.79025" lon="7.10428">
        <ele>1005</ele>
        <time>2018-05-03T13:12:12.000Z</time>
      </trkpt>
      <trkpt lat="43.79027" lon="7.10438">
        <ele>1005</ele>
        <time>2018-05-03T13:12:15.000Z</time>
      </trkpt>
      <trkpt lat="43.79029" lon="7.10447">
        <ele>1005</ele>
        <time>2018-05-03T13:12:18.000Z</time>
      </trkpt>
      <trkpt lat="43.79034" lon="7.10464">
        <ele>1005</ele>
        <time>2018-05-03T13:12:24.000Z</time>
      </trkpt>
      <trkpt lat="43.79036" lon="7.1047">
        <ele>1006</ele>
        <time>2018-05-03T13:12:26.000Z</time>
      </trkpt>
      <trkpt lat="43.79041" lon="7.10491">
        <ele>1006</ele>
        <time>2018-05-03T13:12:33.000Z</time>
      </trkpt>
      <trkpt lat="43.79042" lon="7.10503">
        <ele>1008</ele>
        <time>2018-05-03T13:12:37.000Z</time>
      </trkpt>
      <trkpt lat="43.79042" lon="7.10509">
        <ele>1008</ele>
        <time>2018-05-03T13:12:39.000Z</time>
      </trkpt>
      <trkpt lat="43.79043" lon="7.10536">
        <ele>1008</ele>
        <time>2018-05-03T13:12:47.000Z</time>
      </trkpt>
      <trkpt lat="43.79043" lon="7.10569">
        <ele>1008</ele>
        <time>2018-05-03T13:12:55.000Z</time>
      </trkpt>
      <trkpt lat="43.79039" lon="7.10597">
        <ele>1008</ele>
        <time>2018-05-03T13:13:02.000Z</time>
      </trkpt>
      <trkpt lat="43.79036" lon="7.10625">
        <ele>1008</ele>
        <time>2018-05-03T13:13:10.000Z</time>
      </trkpt>
      <trkpt lat="43.7904" lon="7.10653">
        <ele>1007</ele>
        <time>2018-05-03T13:13:18.000Z</time>
      </trkpt>
      <trkpt lat="43.79042" lon="7.10665">
        <ele>1007</ele>
        <time>2018-05-03T13:13:22.000Z</time>
      </trkpt>
      <trkpt lat="43.79041" lon="7.10674">
        <ele>1007</ele>
        <time>2018-05-03T13:13:25.000Z</time>
      </trkpt>
      <trkpt lat="43.79038" lon="7.10696">
        <ele>1007</ele>
        <time>2018-05-03T13:13:31.000Z</time>
      </trkpt>
      <trkpt lat="43.79039" lon="7.10715">
        <ele>1007</ele>
        <time>2018-05-03T13:13:37.000Z</time>
      </trkpt>
      <trkpt lat="43.79036" lon="7.10738">
        <ele>1007</ele>
        <time>2018-05-03T13:13:44.000Z</time>
      </trkpt>
      <trkpt lat="43.7904" lon="7.10757">
        <ele>1008</ele>
        <time>2018-05-03T13:13:50.000Z</time>
      </trkpt>
      <trkpt lat="43.79042" lon="7.10761">
        <ele>1008</ele>
        <time>2018-05-03T13:13:52.000Z</time>
      </trkpt>
      <trkpt lat="43.79046" lon="7.10773">
        <ele>1009</ele>
        <time>2018-05-03T13:13:57.000Z</time>
      </trkpt>
      <trkpt lat="43.79051" lon="7.10789">
        <ele>1009</ele>
        <time>2018-05-03T13:14:03.000Z</time>
      </trkpt>
      <trkpt lat="43.79054" lon="7.10811">
        <ele>1009</ele>
        <time>2018-05-03T13:14:07.000Z</time>
      </trkpt>
      <trkpt lat="43.79057" lon="7.10827">
        <ele>1010</ele>
        <time>2018-05-03T13:14:09.000Z</time>
      </trkpt>
      <trkpt lat="43.79056" lon="7.10834">
        <ele>1009</ele>
        <time>2018-05-03T13:14:10.000Z</time>
      </trkpt>
      <trkpt lat="43.79055" lon="7.1084">
        <ele>1009</ele>
        <time>2018-05-03T13:14:11.000Z</time>
      </trkpt>
      <trkpt lat="43.79057" lon="7.10847">
        <ele>1009</ele>
        <time>2018-05-03T13:14:13.000Z</time>
      </trkpt>
      <trkpt lat="43.79059" lon="7.10866">
        <ele>1009</ele>
        <time>2018-05-03T13:14:18.000Z</time>
      </trkpt>
      <trkpt lat="43.79058" lon="7.10871">
        <ele>1009</ele>
        <time>2018-05-03T13:14:19.000Z</time>
      </trkpt>
      <trkpt lat="43.79056" lon="7.10884">
        <ele>1009</ele>
        <time>2018-05-03T13:14:22.000Z</time>
      </trkpt>
      <trkpt lat="43.79056" lon="7.10891">
        <ele>1009</ele>
        <time>2018-05-03T13:14:24.000Z</time>
      </trkpt>
      <trkpt lat="43.7905" lon="7.10911">
        <ele>1008</ele>
        <time>2018-05-03T13:14:30.000Z</time>
      </trkpt>
      <trkpt lat="43.79049" lon="7.10912">
        <ele>1008</ele>
        <time>2018-05-03T13:14:31.000Z</time>
      </trkpt>
      <trkpt lat="43.79048" lon="7.10912">
        <ele>1008</ele>
        <time>2018-05-03T13:14:33.000Z</time>
      </trkpt>
      <trkpt lat="43.79048" lon="7.10912">
        <ele>1008</ele>
        <time>2018-05-03T13:14:37.000Z</time>
      </trkpt>
      <trkpt lat="43.79049" lon="7.10913">
        <ele>1008</ele>
        <time>2018-05-03T13:14:43.000Z</time>
      </trkpt>
      <trkpt lat="43.79049" lon="7.10912">
        <ele>1008</ele>
        <time>2018-05-03T13:14:50.000Z</time>
      </trkpt>
      <trkpt lat="43.79049" lon="7.10911">
        <ele>1008</ele>
        <time>2018-05-03T13:14:55.000Z</time>
      </trkpt>
      <trkpt lat="43.79048" lon="7.1091">
        <ele>1008</ele>
        <time>2018-05-03T13:15:14.000Z</time>
      </trkpt>
      <trkpt lat="43.79048" lon="7.10909">
        <ele>1008</ele>
        <time>2018-05-03T13:15:22.000Z</time>
      </trkpt>
      <trkpt lat="43.79048" lon="7.1091">
        <ele>1008</ele>
        <time>2018-05-03T13:15:37.000Z</time>
      </trkpt>
      <trkpt lat="43.79048" lon="7.1091">
        <ele>1008</ele>
        <time>2018-05-03T13:15:49.000Z</time>
      </trkpt>
      <trkpt lat="43.79048" lon="7.1091">
        <ele>1008</ele>
        <time>2018-05-03T13:16:03.000Z</time>
      </trkpt>
      <trkpt lat="43.79048" lon="7.1091">
        <ele>1008</ele>
        <time>2018-05-03T13:16:10.000Z</time>
      </trkpt>
      <trkpt lat="43.79048" lon="7.10911">
        <ele>1008</ele>
        <time>2018-05-03T13:16:16.000Z</time>
      </trkpt>
      <trkpt lat="43.79048" lon="7.1091">
        <ele>1008</ele>
        <time>2018-05-03T13:16:18.000Z</time>
      </trkpt>
      <trkpt lat="43.79049" lon="7.1091">
        <ele>1008</ele>
        <time>2018-05-03T13:16:21.000Z</time>
      </trkpt>
      <trkpt lat="43.79049" lon="7.10908">
        <ele>1008</ele>
        <time>2018-05-03T13:16:24.000Z</time>
      </trkpt>
      <trkpt lat="43.79049" lon="7.10908">
        <ele>1008</ele>
        <time>2018-05-03T13:16:32.000Z</time>
      </trkpt>
      <trkpt lat="43.79049" lon="7.10907">
        <ele>1008</ele>
        <time>2018-05-03T13:16:38.000Z</time>
      </trkpt>
      <trkpt lat="43.79049" lon="7.10907">
        <ele>1008</ele>
        <time>2018-05-03T13:16:46.000Z</time>
      </trkpt>
      <trkpt lat="43.79048" lon="7.10908">
        <ele>1008</ele>
        <time>2018-05-03T13:16:56.000Z</time>
      </trkpt>
      <trkpt lat="43.79048" lon="7.10908">
        <ele>1008</ele>
        <time>2018-05-03T13:17:06.000Z</time>
      </trkpt>
      <trkpt lat="43.79048" lon="7.10909">
        <ele>1008</ele>
        <time>2018-05-03T13:17:14.000Z</time>
      </trkpt>
      <trkpt lat="43.79049" lon="7.10912">
        <ele>1008</ele>
        <time>2018-05-03T13:17:21.000Z</time>
      </trkpt>
      <trkpt lat="43.79049" lon="7.10913">
        <ele>1008</ele>
        <time>2018-05-03T13:17:22.000Z</time>
      </trkpt>
      <trkpt lat="43.79047" lon="7.10913">
        <ele>1008</ele>
        <time>2018-05-03T13:17:26.000Z</time>
      </trkpt>
      <trkpt lat="43.79047" lon="7.10913">
        <ele>1008</ele>
        <time>2018-05-03T13:17:33.000Z</time>
      </trkpt>
      <trkpt lat="43.79047" lon="7.10912">
        <ele>1008</ele>
        <time>2018-05-03T13:17:44.000Z</time>
      </trkpt>
      <trkpt lat="43.79047" lon="7.10912">
        <ele>1008</ele>
        <time>2018-05-03T13:17:51.000Z</time>
      </trkpt>
      <trkpt lat="43.79047" lon="7.10911">
        <ele>1008</ele>
        <time>2018-05-03T13:18:00.000Z</time>
      </trkpt>
      <trkpt lat="43.79047" lon="7.10911">
        <ele>1008</ele>
        <time>2018-05-03T13:18:10.000Z</time>
      </trkpt>
      <trkpt lat="43.79047" lon="7.10911">
        <ele>1008</ele>
        <time>2018-05-03T13:18:18.000Z</time>
      </trkpt>
      <trkpt lat="43.79047" lon="7.10911">
        <ele>1008</ele>
        <time>2018-05-03T13:18:31.000Z</time>
      </trkpt>
      <trkpt lat="43.79047" lon="7.1091">
        <ele>1008</ele>
        <time>2018-05-03T13:18:43.000Z</time>
      </trkpt>
      <trkpt lat="43.79047" lon="7.10911">
        <ele>1008</ele>
        <time>2018-05-03T13:18:48.000Z</time>
      </trkpt>
      <trkpt lat="43.79048" lon="7.10919">
        <ele>1007</ele>
        <time>2018-05-03T13:18:53.000Z</time>
      </trkpt>
      <trkpt lat="43.79049" lon="7.10937">
        <ele>1007</ele>
        <time>2018-05-03T13:18:58.000Z</time>
      </trkpt>
      <trkpt lat="43.79048" lon="7.1097">
        <ele>1007</ele>
        <time>2018-05-03T13:19:04.000Z</time>
      </trkpt>
      <trkpt lat="43.79048" lon="7.10982">
        <ele>1006</ele>
        <time>2018-05-03T13:19:06.000Z</time>
      </trkpt>
      <trkpt lat="43.79048" lon="7.11">
        <ele>1006</ele>
        <time>2018-05-03T13:19:09.000Z</time>
      </trkpt>
      <trkpt lat="43.79048" lon="7.11005">
        <ele>1003</ele>
        <time>2018-05-03T13:19:10.000Z</time>
      </trkpt>
      <trkpt lat="43.79049" lon="7.11017">
        <ele>1002</ele>
        <time>2018-05-03T13:19:12.000Z</time>
      </trkpt>
      <trkpt lat="43.79051" lon="7.11029">
        <ele>1002</ele>
        <time>2018-05-03T13:19:14.000Z</time>
      </trkpt>
      <trkpt lat="43.79052" lon="7.11041">
        <ele>1001</ele>
        <time>2018-05-03T13:19:16.000Z</time>
      </trkpt>
      <trkpt lat="43.79053" lon="7.11051">
        <ele>1001</ele>
        <time>2018-05-03T13:19:18.000Z</time>
      </trkpt>
      <trkpt lat="43.79054" lon="7.11072">
        <ele>1000</ele>
        <time>2018-05-03T13:19:22.000Z</time>
      </trkpt>
      <trkpt lat="43.79055" lon="7.11078">
        <ele>1000</ele>
        <time>2018-05-03T13:19:23.000Z</time>
      </trkpt>
      <trkpt lat="43.79059" lon="7.11094">
        <ele>996</ele>
        <time>2018-05-03T13:19:25.000Z</time>
      </trkpt>
      <trkpt lat="43.79065" lon="7.1111">
        <ele>996</ele>
        <time>2018-05-03T13:19:27.000Z</time>
      </trkpt>
      <trkpt lat="43.79069" lon="7.11124">
        <ele>996</ele>
        <time>2018-05-03T13:19:29.000Z</time>
      </trkpt>
      <trkpt lat="43.79072" lon="7.11132">
        <ele>996</ele>
        <time>2018-05-03T13:19:30.000Z</time>
      </trkpt>
      <trkpt lat="43.79073" lon="7.11139">
        <ele>996</ele>
        <time>2018-05-03T13:19:31.000Z</time>
      </trkpt>
      <trkpt lat="43.79074" lon="7.11153">
        <ele>996</ele>
        <time>2018-05-03T13:19:33.000Z</time>
      </trkpt>
      <trkpt lat="43.7908" lon="7.1117">
        <ele>997</ele>
        <time>2018-05-03T13:19:36.000Z</time>
      </trkpt>
      <trkpt lat="43.79082" lon="7.11175">
        <ele>996</ele>
        <time>2018-05-03T13:19:37.000Z</time>
      </trkpt>
      <trkpt lat="43.79088" lon="7.11183">
        <ele>1000</ele>
        <time>2018-05-03T13:19:39.000Z</time>
      </trkpt>
      <trkpt lat="43.791" lon="7.11193">
        <ele>1000</ele>
        <time>2018-05-03T13:19:42.000Z</time>
      </trkpt>
      <trkpt lat="43.79104" lon="7.11195">
        <ele>1001</ele>
        <time>2018-05-03T13:19:43.000Z</time>
      </trkpt>
      <trkpt lat="43.79109" lon="7.11199">
        <ele>1001</ele>
        <time>2018-05-03T13:19:44.000Z</time>
      </trkpt>
      <trkpt lat="43.79115" lon="7.11208">
        <ele>1001</ele>
        <time>2018-05-03T13:19:46.000Z</time>
      </trkpt>
      <trkpt lat="43.79116" lon="7.11212">
        <ele>1001</ele>
        <time>2018-05-03T13:19:47.000Z</time>
      </trkpt>
      <trkpt lat="43.79117" lon="7.11219">
        <ele>1000</ele>
        <time>2018-05-03T13:19:49.000Z</time>
      </trkpt>
      <trkpt lat="43.79117" lon="7.1122">
        <ele>1000</ele>
        <time>2018-05-03T13:19:53.000Z</time>
      </trkpt>
      <trkpt lat="43.79118" lon="7.11229">
        <ele>1000</ele>
        <time>2018-05-03T13:19:59.000Z</time>
      </trkpt>
      <trkpt lat="43.79118" lon="7.11232">
        <ele>1000</ele>
        <time>2018-05-03T13:20:00.000Z</time>
      </trkpt>
      <trkpt lat="43.79124" lon="7.11238">
        <ele>1000</ele>
        <time>2018-05-03T13:20:03.000Z</time>
      </trkpt>
      <trkpt lat="43.79126" lon="7.11239">
        <ele>1000</ele>
        <time>2018-05-03T13:20:04.000Z</time>
      </trkpt>
      <trkpt lat="43.79135" lon="7.11246">
        <ele>1001</ele>
        <time>2018-05-03T13:20:08.000Z</time>
      </trkpt>
      <trkpt lat="43.79138" lon="7.11249">
        <ele>1001</ele>
        <time>2018-05-03T13:20:09.000Z</time>
      </trkpt>
      <trkpt lat="43.79154" lon="7.11259">
        <ele>999</ele>
        <time>2018-05-03T13:20:15.000Z</time>
      </trkpt>
      <trkpt lat="43.79173" lon="7.11269">
        <ele>999</ele>
        <time>2018-05-03T13:20:23.000Z</time>
      </trkpt>
      <trkpt lat="43.79178" lon="7.11271">
        <ele>998</ele>
        <time>2018-05-03T13:20:25.000Z</time>
      </trkpt>
      <trkpt lat="43.7919" lon="7.11281">
        <ele>997</ele>
        <time>2018-05-03T13:20:30.000Z</time>
      </trkpt>
      <trkpt lat="43.79198" lon="7.11296">
        <ele>996</ele>
        <time>2018-05-03T13:20:35.000Z</time>
      </trkpt>
      <trkpt lat="43.79215" lon="7.11318">
        <ele>995</ele>
        <time>2018-05-03T13:20:41.000Z</time>
      </trkpt>
      <trkpt lat="43.79226" lon="7.1133">
        <ele>994</ele>
        <time>2018-05-03T13:20:44.000Z</time>
      </trkpt>
      <trkpt lat="43.7924" lon="7.11335">
        <ele>991</ele>
        <time>2018-05-03T13:20:47.000Z</time>
      </trkpt>
      <trkpt lat="43.79245" lon="7.11337">
        <ele>991</ele>
        <time>2018-05-03T13:20:48.000Z</time>
      </trkpt>
      <trkpt lat="43.79255" lon="7.1134">
        <ele>990</ele>
        <time>2018-05-03T13:20:50.000Z</time>
      </trkpt>
      <trkpt lat="43.79261" lon="7.11338">
        <ele>990</ele>
        <time>2018-05-03T13:20:51.000Z</time>
      </trkpt>
      <trkpt lat="43.79266" lon="7.11333">
        <ele>991</ele>
        <time>2018-05-03T13:20:52.000Z</time>
      </trkpt>
      <trkpt lat="43.79269" lon="7.11328">
        <ele>991</ele>
        <time>2018-05-03T13:20:53.000Z</time>
      </trkpt>
      <trkpt lat="43.79274" lon="7.11322">
        <ele>991</ele>
        <time>2018-05-03T13:20:54.000Z</time>
      </trkpt>
      <trkpt lat="43.79279" lon="7.11321">
        <ele>991</ele>
        <time>2018-05-03T13:20:55.000Z</time>
      </trkpt>
      <trkpt lat="43.79284" lon="7.11322">
        <ele>991</ele>
        <time>2018-05-03T13:20:56.000Z</time>
      </trkpt>
      <trkpt lat="43.79287" lon="7.11325">
        <ele>990</ele>
        <time>2018-05-03T13:20:57.000Z</time>
      </trkpt>
      <trkpt lat="43.79294" lon="7.11337">
        <ele>988</ele>
        <time>2018-05-03T13:20:59.000Z</time>
      </trkpt>
      <trkpt lat="43.79297" lon="7.11345">
        <ele>988</ele>
        <time>2018-05-03T13:21:00.000Z</time>
      </trkpt>
      <trkpt lat="43.79301" lon="7.11351">
        <ele>988</ele>
        <time>2018-05-03T13:21:01.000Z</time>
      </trkpt>
      <trkpt lat="43.79311" lon="7.11364">
        <ele>987</ele>
        <time>2018-05-03T13:21:03.000Z</time>
      </trkpt>
      <trkpt lat="43.79317" lon="7.1137">
        <ele>987</ele>
        <time>2018-05-03T13:21:04.000Z</time>
      </trkpt>
      <trkpt lat="43.79329" lon="7.11376">
        <ele>987</ele>
        <time>2018-05-03T13:21:06.000Z</time>
      </trkpt>
      <trkpt lat="43.79343" lon="7.11389">
        <ele>982</ele>
        <time>2018-05-03T13:21:09.000Z</time>
      </trkpt>
      <trkpt lat="43.79346" lon="7.11393">
        <ele>982</ele>
        <time>2018-05-03T13:21:10.000Z</time>
      </trkpt>
      <trkpt lat="43.79347" lon="7.11408">
        <ele>982</ele>
        <time>2018-05-03T13:21:13.000Z</time>
      </trkpt>
      <trkpt lat="43.79347" lon="7.11415">
        <ele>982</ele>
        <time>2018-05-03T13:21:14.000Z</time>
      </trkpt>
      <trkpt lat="43.79346" lon="7.11423">
        <ele>981</ele>
        <time>2018-05-03T13:21:15.000Z</time>
      </trkpt>
      <trkpt lat="43.79345" lon="7.11443">
        <ele>980</ele>
        <time>2018-05-03T13:21:17.000Z</time>
      </trkpt>
      <trkpt lat="43.79345" lon="7.11455">
        <ele>980</ele>
        <time>2018-05-03T13:21:18.000Z</time>
      </trkpt>
      <trkpt lat="43.79346" lon="7.11467">
        <ele>979</ele>
        <time>2018-05-03T13:21:19.000Z</time>
      </trkpt>
      <trkpt lat="43.79347" lon="7.11478">
        <ele>979</ele>
        <time>2018-05-03T13:21:20.000Z</time>
      </trkpt>
      <trkpt lat="43.79348" lon="7.1149">
        <ele>979</ele>
        <time>2018-05-03T13:21:21.000Z</time>
      </trkpt>
      <trkpt lat="43.7935" lon="7.11501">
        <ele>977</ele>
        <time>2018-05-03T13:21:22.000Z</time>
      </trkpt>
      <trkpt lat="43.79352" lon="7.11511">
        <ele>977</ele>
        <time>2018-05-03T13:21:23.000Z</time>
      </trkpt>
      <trkpt lat="43.79358" lon="7.11543">
        <ele>976</ele>
        <time>2018-05-03T13:21:26.000Z</time>
      </trkpt>
      <trkpt lat="43.79356" lon="7.11559">
        <ele>975</ele>
        <time>2018-05-03T13:21:28.000Z</time>
      </trkpt>
      <trkpt lat="43.79355" lon="7.11566">
        <ele>975</ele>
        <time>2018-05-03T13:21:29.000Z</time>
      </trkpt>
      <trkpt lat="43.7935" lon="7.11584">
        <ele>974</ele>
        <time>2018-05-03T13:21:32.000Z</time>
      </trkpt>
      <trkpt lat="43.7935" lon="7.11597">
        <ele>974</ele>
        <time>2018-05-03T13:21:34.000Z</time>
      </trkpt>
      <trkpt lat="43.79351" lon="7.1162">
        <ele>974</ele>
        <time>2018-05-03T13:21:37.000Z</time>
      </trkpt>
      <trkpt lat="43.7935" lon="7.11642">
        <ele>974</ele>
        <time>2018-05-03T13:21:40.000Z</time>
      </trkpt>
      <trkpt lat="43.7935" lon="7.11647">
        <ele>974</ele>
        <time>2018-05-03T13:21:41.000Z</time>
      </trkpt>
      <trkpt lat="43.79349" lon="7.11652">
        <ele>974</ele>
        <time>2018-05-03T13:21:42.000Z</time>
      </trkpt>
      <trkpt lat="43.79348" lon="7.11672">
        <ele>974</ele>
        <time>2018-05-03T13:21:47.000Z</time>
      </trkpt>
      <trkpt lat="43.79348" lon="7.11685">
        <ele>974</ele>
        <time>2018-05-03T13:21:50.000Z</time>
      </trkpt>
      <trkpt lat="43.79348" lon="7.11701">
        <ele>974</ele>
        <time>2018-05-03T13:21:54.000Z</time>
      </trkpt>
      <trkpt lat="43.79346" lon="7.11713">
        <ele>974</ele>
        <time>2018-05-03T13:21:57.000Z</time>
      </trkpt>
      <trkpt lat="43.79344" lon="7.11723">
        <ele>973</ele>
        <time>2018-05-03T13:21:59.000Z</time>
      </trkpt>
      <trkpt lat="43.79342" lon="7.11741">
        <ele>973</ele>
        <time>2018-05-03T13:22:02.000Z</time>
      </trkpt>
      <trkpt lat="43.79342" lon="7.11746">
        <ele>972</ele>
        <time>2018-05-03T13:22:03.000Z</time>
      </trkpt>
      <trkpt lat="43.79345" lon="7.11775">
        <ele>974</ele>
        <time>2018-05-03T13:22:07.000Z</time>
      </trkpt>
      <trkpt lat="43.79343" lon="7.11806">
        <ele>975</ele>
        <time>2018-05-03T13:22:11.000Z</time>
      </trkpt>
      <trkpt lat="43.7934" lon="7.11834">
        <ele>975</ele>
        <time>2018-05-03T13:22:14.000Z</time>
      </trkpt>
      <trkpt lat="43.79339" lon="7.1184">
        <ele>975</ele>
        <time>2018-05-03T13:22:15.000Z</time>
      </trkpt>
      <trkpt lat="43.79337" lon="7.11848">
        <ele>977</ele>
        <time>2018-05-03T13:22:18.000Z</time>
      </trkpt>
      <trkpt lat="43.79336" lon="7.11855">
        <ele>978</ele>
        <time>2018-05-03T13:22:21.000Z</time>
      </trkpt>
      <trkpt lat="43.79335" lon="7.11858">
        <ele>978</ele>
        <time>2018-05-03T13:22:23.000Z</time>
      </trkpt>
      <trkpt lat="43.79335" lon="7.1186">
        <ele>978</ele>
        <time>2018-05-03T13:22:24.000Z</time>
      </trkpt>
      <trkpt lat="43.79335" lon="7.11862">
        <ele>978</ele>
        <time>2018-05-03T13:22:25.000Z</time>
      </trkpt>
      <trkpt lat="43.79335" lon="7.11863">
        <ele>978</ele>
        <time>2018-05-03T13:22:28.000Z</time>
      </trkpt>
      <trkpt lat="43.79335" lon="7.11863">
        <ele>978</ele>
        <time>2018-05-03T13:22:29.000Z</time>
      </trkpt>
      <trkpt lat="43.79333" lon="7.11869">
        <ele>979</ele>
        <time>2018-05-03T13:22:36.000Z</time>
      </trkpt>
      <trkpt lat="43.79333" lon="7.1187">
        <ele>979</ele>
        <time>2018-05-03T13:22:37.000Z</time>
      </trkpt>
      <trkpt lat="43.79333" lon="7.11874">
        <ele>976</ele>
        <time>2018-05-03T13:22:42.000Z</time>
      </trkpt>
      <trkpt lat="43.79332" lon="7.11874">
        <ele>976</ele>
        <time>2018-05-03T13:22:43.000Z</time>
      </trkpt>
      <trkpt lat="43.79332" lon="7.11877">
        <ele>976</ele>
        <time>2018-05-03T13:22:47.000Z</time>
      </trkpt>
      <trkpt lat="43.79332" lon="7.11883">
        <ele>976</ele>
        <time>2018-05-03T13:22:53.000Z</time>
      </trkpt>
      <trkpt lat="43.79331" lon="7.11886">
        <ele>977</ele>
        <time>2018-05-03T13:22:56.000Z</time>
      </trkpt>
      <trkpt lat="43.7933" lon="7.1189">
        <ele>977</ele>
        <time>2018-05-03T13:23:01.000Z</time>
      </trkpt>
      <trkpt lat="43.79329" lon="7.11891">
        <ele>977</ele>
        <time>2018-05-03T13:23:02.000Z</time>
      </trkpt>
      <trkpt lat="43.79328" lon="7.11897">
        <ele>978</ele>
        <time>2018-05-03T13:23:09.000Z</time>
      </trkpt>
      <trkpt lat="43.79328" lon="7.11902">
        <ele>979</ele>
        <time>2018-05-03T13:23:15.000Z</time>
      </trkpt>
      <trkpt lat="43.79328" lon="7.11906">
        <ele>979</ele>
        <time>2018-05-03T13:23:18.000Z</time>
      </trkpt>
      <trkpt lat="43.79328" lon="7.11908">
        <ele>980</ele>
        <time>2018-05-03T13:23:20.000Z</time>
      </trkpt>
      <trkpt lat="43.79327" lon="7.11915">
        <ele>980</ele>
        <time>2018-05-03T13:23:26.000Z</time>
      </trkpt>
      <trkpt lat="43.79327" lon="7.11918">
        <ele>982</ele>
        <time>2018-05-03T13:23:29.000Z</time>
      </trkpt>
      <trkpt lat="43.79326" lon="7.11922">
        <ele>983</ele>
        <time>2018-05-03T13:23:33.000Z</time>
      </trkpt>
      <trkpt lat="43.79325" lon="7.11928">
        <ele>983</ele>
        <time>2018-05-03T13:23:38.000Z</time>
      </trkpt>
      <trkpt lat="43.79325" lon="7.1193">
        <ele>983</ele>
        <time>2018-05-03T13:23:40.000Z</time>
      </trkpt>
      <trkpt lat="43.79324" lon="7.11939">
        <ele>983</ele>
        <time>2018-05-03T13:23:47.000Z</time>
      </trkpt>
      <trkpt lat="43.79322" lon="7.11946">
        <ele>984</ele>
        <time>2018-05-03T13:23:53.000Z</time>
      </trkpt>
      <trkpt lat="43.79321" lon="7.11949">
        <ele>984</ele>
        <time>2018-05-03T13:23:56.000Z</time>
      </trkpt>
      <trkpt lat="43.79321" lon="7.11953">
        <ele>984</ele>
        <time>2018-05-03T13:23:59.000Z</time>
      </trkpt>
      <trkpt lat="43.7932" lon="7.11958">
        <ele>984</ele>
        <time>2018-05-03T13:24:03.000Z</time>
      </trkpt>
      <trkpt lat="43.7932" lon="7.11959">
        <ele>984</ele>
        <time>2018-05-03T13:24:04.000Z</time>
      </trkpt>
      <trkpt lat="43.79321" lon="7.11961">
        <ele>985</ele>
        <time>2018-05-03T13:24:07.000Z</time>
      </trkpt>
      <trkpt lat="43.79321" lon="7.11962">
        <ele>985</ele>
        <time>2018-05-03T13:24:08.000Z</time>
      </trkpt>
      <trkpt lat="43.7932" lon="7.11971">
        <ele>985</ele>
        <time>2018-05-03T13:24:12.000Z</time>
      </trkpt>
      <trkpt lat="43.7932" lon="7.11987">
        <ele>986</ele>
        <time>2018-05-03T13:24:18.000Z</time>
      </trkpt>
      <trkpt lat="43.7932" lon="7.1201">
        <ele>990</ele>
        <time>2018-05-03T13:24:26.000Z</time>
      </trkpt>
      <trkpt lat="43.7932" lon="7.12013">
        <ele>991</ele>
        <time>2018-05-03T13:24:27.000Z</time>
      </trkpt>
      <trkpt lat="43.79319" lon="7.12026">
        <ele>991</ele>
        <time>2018-05-03T13:24:32.000Z</time>
      </trkpt>
      <trkpt lat="43.79319" lon="7.12028">
        <ele>991</ele>
        <time>2018-05-03T13:24:33.000Z</time>
      </trkpt>
      <trkpt lat="43.79319" lon="7.12043">
        <ele>992</ele>
        <time>2018-05-03T13:24:39.000Z</time>
      </trkpt>
      <trkpt lat="43.79319" lon="7.1206">
        <ele>994</ele>
        <time>2018-05-03T13:24:46.000Z</time>
      </trkpt>
      <trkpt lat="43.79319" lon="7.12062">
        <ele>994</ele>
        <time>2018-05-03T13:24:47.000Z</time>
      </trkpt>
      <trkpt lat="43.79319" lon="7.12069">
        <ele>994</ele>
        <time>2018-05-03T13:24:50.000Z</time>
      </trkpt>
      <trkpt lat="43.7932" lon="7.12077">
        <ele>995</ele>
        <time>2018-05-03T13:24:53.000Z</time>
      </trkpt>
      <trkpt lat="43.79322" lon="7.12094">
        <ele>997</ele>
        <time>2018-05-03T13:25:00.000Z</time>
      </trkpt>
      <trkpt lat="43.79322" lon="7.12097">
        <ele>997</ele>
        <time>2018-05-03T13:25:01.000Z</time>
      </trkpt>
      <trkpt lat="43.79323" lon="7.12118">
        <ele>997</ele>
        <time>2018-05-03T13:25:09.000Z</time>
      </trkpt>
      <trkpt lat="43.79323" lon="7.1212">
        <ele>997</ele>
        <time>2018-05-03T13:25:10.000Z</time>
      </trkpt>
      <trkpt lat="43.79323" lon="7.12137">
        <ele>997</ele>
        <time>2018-05-03T13:25:17.000Z</time>
      </trkpt>
      <trkpt lat="43.79323" lon="7.1214">
        <ele>997</ele>
        <time>2018-05-03T13:25:18.000Z</time>
      </trkpt>
      <trkpt lat="43.79325" lon="7.12163">
        <ele>998</ele>
        <time>2018-05-03T13:25:25.000Z</time>
      </trkpt>
      <trkpt lat="43.79327" lon="7.1219">
        <ele>998</ele>
        <time>2018-05-03T13:25:34.000Z</time>
      </trkpt>
      <trkpt lat="43.79327" lon="7.12198">
        <ele>998</ele>
        <time>2018-05-03T13:25:37.000Z</time>
      </trkpt>
      <trkpt lat="43.79326" lon="7.12208">
        <ele>999</ele>
        <time>2018-05-03T13:25:41.000Z</time>
      </trkpt>
      <trkpt lat="43.79327" lon="7.12221">
        <ele>999</ele>
        <time>2018-05-03T13:25:47.000Z</time>
      </trkpt>
      <trkpt lat="43.79325" lon="7.12237">
        <ele>999</ele>
        <time>2018-05-03T13:25:55.000Z</time>
      </trkpt>
      <trkpt lat="43.79325" lon="7.12241">
        <ele>999</ele>
        <time>2018-05-03T13:25:57.000Z</time>
      </trkpt>
      <trkpt lat="43.79325" lon="7.12249">
        <ele>999</ele>
        <time>2018-05-03T13:26:00.000Z</time>
      </trkpt>
      <trkpt lat="43.79321" lon="7.12272">
        <ele>1001</ele>
        <time>2018-05-03T13:26:04.000Z</time>
      </trkpt>
      <trkpt lat="43.79317" lon="7.12289">
        <ele>1001</ele>
        <time>2018-05-03T13:26:06.000Z</time>
      </trkpt>
      <trkpt lat="43.79315" lon="7.12303">
        <ele>1002</ele>
        <time>2018-05-03T13:26:08.000Z</time>
      </trkpt>
      <trkpt lat="43.79313" lon="7.12311">
        <ele>1002</ele>
        <time>2018-05-03T13:26:10.000Z</time>
      </trkpt>
      <trkpt lat="43.79313" lon="7.12313">
        <ele>1002</ele>
        <time>2018-05-03T13:26:11.000Z</time>
      </trkpt>
      <trkpt lat="43.79312" lon="7.12314">
        <ele>1002</ele>
        <time>2018-05-03T13:26:12.000Z</time>
      </trkpt>
      <trkpt lat="43.79311" lon="7.1232">
        <ele>1002</ele>
        <time>2018-05-03T13:26:15.000Z</time>
      </trkpt>
      <trkpt lat="43.7931" lon="7.12324">
        <ele>1002</ele>
        <time>2018-05-03T13:26:17.000Z</time>
      </trkpt>
      <trkpt lat="43.79307" lon="7.12334">
        <ele>1006</ele>
        <time>2018-05-03T13:26:22.000Z</time>
      </trkpt>
      <trkpt lat="43.79307" lon="7.12335">
        <ele>1006</ele>
        <time>2018-05-03T13:26:23.000Z</time>
      </trkpt>
      <trkpt lat="43.79305" lon="7.12339">
        <ele>1006</ele>
        <time>2018-05-03T13:26:25.000Z</time>
      </trkpt>
      <trkpt lat="43.79304" lon="7.12347">
        <ele>1007</ele>
        <time>2018-05-03T13:26:29.000Z</time>
      </trkpt>
      <trkpt lat="43.79304" lon="7.12349">
        <ele>1007</ele>
        <time>2018-05-03T13:26:30.000Z</time>
      </trkpt>
      <trkpt lat="43.79301" lon="7.1236">
        <ele>1008</ele>
        <time>2018-05-03T13:26:35.000Z</time>
      </trkpt>
      <trkpt lat="43.79298" lon="7.1238">
        <ele>1009</ele>
        <time>2018-05-03T13:26:43.000Z</time>
      </trkpt>
      <trkpt lat="43.79298" lon="7.12386">
        <ele>1009</ele>
        <time>2018-05-03T13:26:46.000Z</time>
      </trkpt>
      <trkpt lat="43.79297" lon="7.12395">
        <ele>1009</ele>
        <time>2018-05-03T13:26:50.000Z</time>
      </trkpt>
      <trkpt lat="43.79296" lon="7.12396">
        <ele>1009</ele>
        <time>2018-05-03T13:26:51.000Z</time>
      </trkpt>
      <trkpt lat="43.79296" lon="7.12404">
        <ele>1010</ele>
        <time>2018-05-03T13:26:55.000Z</time>
      </trkpt>
      <trkpt lat="43.79296" lon="7.12405">
        <ele>1010</ele>
        <time>2018-05-03T13:26:56.000Z</time>
      </trkpt>
      <trkpt lat="43.79294" lon="7.12411">
        <ele>1010</ele>
        <time>2018-05-03T13:27:00.000Z</time>
      </trkpt>
      <trkpt lat="43.79293" lon="7.12416">
        <ele>1010</ele>
        <time>2018-05-03T13:27:03.000Z</time>
      </trkpt>
      <trkpt lat="43.79293" lon="7.12419">
        <ele>1016</ele>
        <time>2018-05-03T13:27:05.000Z</time>
      </trkpt>
      <trkpt lat="43.79291" lon="7.12423">
        <ele>1016</ele>
        <time>2018-05-03T13:27:09.000Z</time>
      </trkpt>
      <trkpt lat="43.79291" lon="7.12428">
        <ele>1016</ele>
        <time>2018-05-03T13:27:12.000Z</time>
      </trkpt>
      <trkpt lat="43.79291" lon="7.12434">
        <ele>1017</ele>
        <time>2018-05-03T13:27:16.000Z</time>
      </trkpt>
      <trkpt lat="43.7929" lon="7.12437">
        <ele>1017</ele>
        <time>2018-05-03T13:27:18.000Z</time>
      </trkpt>
      <trkpt lat="43.79287" lon="7.12442">
        <ele>1017</ele>
        <time>2018-05-03T13:27:23.000Z</time>
      </trkpt>
      <trkpt lat="43.79285" lon="7.12448">
        <ele>1018</ele>
        <time>2018-05-03T13:27:27.000Z</time>
      </trkpt>
      <trkpt lat="43.79284" lon="7.12453">
        <ele>1018</ele>
        <time>2018-05-03T13:27:31.000Z</time>
      </trkpt>
      <trkpt lat="43.79283" lon="7.12455">
        <ele>1018</ele>
        <time>2018-05-03T13:27:33.000Z</time>
      </trkpt>
      <trkpt lat="43.79283" lon="7.12459">
        <ele>1018</ele>
        <time>2018-05-03T13:27:36.000Z</time>
      </trkpt>
      <trkpt lat="43.79282" lon="7.12464">
        <ele>1019</ele>
        <time>2018-05-03T13:27:40.000Z</time>
      </trkpt>
      <trkpt lat="43.79282" lon="7.12465">
        <ele>1019</ele>
        <time>2018-05-03T13:27:41.000Z</time>
      </trkpt>
      <trkpt lat="43.79281" lon="7.12472">
        <ele>1019</ele>
        <time>2018-05-03T13:27:46.000Z</time>
      </trkpt>
      <trkpt lat="43.79282" lon="7.12481">
        <ele>1020</ele>
        <time>2018-05-03T13:27:52.000Z</time>
      </trkpt>
      <trkpt lat="43.7928" lon="7.12489">
        <ele>1020</ele>
        <time>2018-05-03T13:27:58.000Z</time>
      </trkpt>
      <trkpt lat="43.7928" lon="7.1249">
        <ele>1021</ele>
        <time>2018-05-03T13:27:59.000Z</time>
      </trkpt>
      <trkpt lat="43.79277" lon="7.12504">
        <ele>1024</ele>
        <time>2018-05-03T13:28:07.000Z</time>
      </trkpt>
      <trkpt lat="43.79277" lon="7.12513">
        <ele>1024</ele>
        <time>2018-05-03T13:28:12.000Z</time>
      </trkpt>
      <trkpt lat="43.79276" lon="7.12516">
        <ele>1024</ele>
        <time>2018-05-03T13:28:13.000Z</time>
      </trkpt>
      <trkpt lat="43.79273" lon="7.12524">
        <ele>1024</ele>
        <time>2018-05-03T13:28:18.000Z</time>
      </trkpt>
      <trkpt lat="43.79272" lon="7.12525">
        <ele>1024</ele>
        <time>2018-05-03T13:28:19.000Z</time>
      </trkpt>
      <trkpt lat="43.79269" lon="7.12532">
        <ele>1025</ele>
        <time>2018-05-03T13:28:24.000Z</time>
      </trkpt>
      <trkpt lat="43.79268" lon="7.12536">
        <ele>1025</ele>
        <time>2018-05-03T13:28:26.000Z</time>
      </trkpt>
      <trkpt lat="43.79266" lon="7.1255">
        <ele>1025</ele>
        <time>2018-05-03T13:28:33.000Z</time>
      </trkpt>
      <trkpt lat="43.79265" lon="7.12566">
        <ele>1026</ele>
        <time>2018-05-03T13:28:39.000Z</time>
      </trkpt>
      <trkpt lat="43.79264" lon="7.12571">
        <ele>1026</ele>
        <time>2018-05-03T13:28:41.000Z</time>
      </trkpt>
      <trkpt lat="43.79261" lon="7.12594">
        <ele>1026</ele>
        <time>2018-05-03T13:28:49.000Z</time>
      </trkpt>
      <trkpt lat="43.79258" lon="7.12624">
        <ele>1024</ele>
        <time>2018-05-03T13:28:57.000Z</time>
      </trkpt>
      <trkpt lat="43.79254" lon="7.12651">
        <ele>1024</ele>
        <time>2018-05-03T13:29:02.000Z</time>
      </trkpt>
      <trkpt lat="43.79253" lon="7.12657">
        <ele>1024</ele>
        <time>2018-05-03T13:29:03.000Z</time>
      </trkpt>
      <trkpt lat="43.7925" lon="7.12666">
        <ele>1024</ele>
        <time>2018-05-03T13:29:05.000Z</time>
      </trkpt>
      <trkpt lat="43.79247" lon="7.12681">
        <ele>1022</ele>
        <time>2018-05-03T13:29:08.000Z</time>
      </trkpt>
      <trkpt lat="43.79247" lon="7.12699">
        <ele>1020</ele>
        <time>2018-05-03T13:29:12.000Z</time>
      </trkpt>
      <trkpt lat="43.79247" lon="7.12702">
        <ele>1019</ele>
        <time>2018-05-03T13:29:13.000Z</time>
      </trkpt>
      <trkpt lat="43.79246" lon="7.12704">
        <ele>1019</ele>
        <time>2018-05-03T13:29:14.000Z</time>
      </trkpt>
      <trkpt lat="43.79246" lon="7.12705">
        <ele>1019</ele>
        <time>2018-05-03T13:29:17.000Z</time>
      </trkpt>
      <trkpt lat="43.79248" lon="7.12708">
        <ele>1019</ele>
        <time>2018-05-03T13:29:27.000Z</time>
      </trkpt>
      <trkpt lat="43.79258" lon="7.1272">
        <ele>1018</ele>
        <time>2018-05-03T13:29:32.000Z</time>
      </trkpt>
      <trkpt lat="43.79264" lon="7.12731">
        <ele>1017</ele>
        <time>2018-05-03T13:29:34.000Z</time>
      </trkpt>
      <trkpt lat="43.79276" lon="7.12748">
        <ele>1017</ele>
        <time>2018-05-03T13:29:37.000Z</time>
      </trkpt>
      <trkpt lat="43.7929" lon="7.12752">
        <ele>1012</ele>
        <time>2018-05-03T13:29:40.000Z</time>
      </trkpt>
      <trkpt lat="43.79293" lon="7.12753">
        <ele>1012</ele>
        <time>2018-05-03T13:29:41.000Z</time>
      </trkpt>
      <trkpt lat="43.79296" lon="7.12763">
        <ele>1012</ele>
        <time>2018-05-03T13:29:43.000Z</time>
      </trkpt>
      <trkpt lat="43.79294" lon="7.12776">
        <ele>1011</ele>
        <time>2018-05-03T13:29:45.000Z</time>
      </trkpt>
      <trkpt lat="43.79294" lon="7.12783">
        <ele>1011</ele>
        <time>2018-05-03T13:29:46.000Z</time>
      </trkpt>
      <trkpt lat="43.79293" lon="7.12797">
        <ele>1010</ele>
        <time>2018-05-03T13:29:48.000Z</time>
      </trkpt>
      <trkpt lat="43.79291" lon="7.12822">
        <ele>1009</ele>
        <time>2018-05-03T13:29:51.000Z</time>
      </trkpt>
      <trkpt lat="43.79287" lon="7.12846">
        <ele>1003</ele>
        <time>2018-05-03T13:29:54.000Z</time>
      </trkpt>
      <trkpt lat="43.79286" lon="7.12854">
        <ele>1003</ele>
        <time>2018-05-03T13:29:55.000Z</time>
      </trkpt>
      <trkpt lat="43.79285" lon="7.12863">
        <ele>1003</ele>
        <time>2018-05-03T13:29:56.000Z</time>
      </trkpt>
      <trkpt lat="43.79284" lon="7.12871">
        <ele>1002</ele>
        <time>2018-05-03T13:29:57.000Z</time>
      </trkpt>
      <trkpt lat="43.79283" lon="7.12879">
        <ele>1002</ele>
        <time>2018-05-03T13:29:58.000Z</time>
      </trkpt>
      <trkpt lat="43.79282" lon="7.12887">
        <ele>1002</ele>
        <time>2018-05-03T13:29:59.000Z</time>
      </trkpt>
      <trkpt lat="43.7928" lon="7.12893">
        <ele>1001</ele>
        <time>2018-05-03T13:30:00.000Z</time>
      </trkpt>
      <trkpt lat="43.79275" lon="7.12899">
        <ele>1000</ele>
        <time>2018-05-03T13:30:02.000Z</time>
      </trkpt>
      <trkpt lat="43.79271" lon="7.12898">
        <ele>999</ele>
        <time>2018-05-03T13:30:03.000Z</time>
      </trkpt>
      <trkpt lat="43.79264" lon="7.12892">
        <ele>999</ele>
        <time>2018-05-03T13:30:05.000Z</time>
      </trkpt>
      <trkpt lat="43.7926" lon="7.12889">
        <ele>999</ele>
        <time>2018-05-03T13:30:06.000Z</time>
      </trkpt>
      <trkpt lat="43.79256" lon="7.12888">
        <ele>999</ele>
        <time>2018-05-03T13:30:07.000Z</time>
      </trkpt>
      <trkpt lat="43.79252" lon="7.12889">
        <ele>999</ele>
        <time>2018-05-03T13:30:08.000Z</time>
      </trkpt>
      <trkpt lat="43.79246" lon="7.1289">
        <ele>990</ele>
        <time>2018-05-03T13:30:09.000Z</time>
      </trkpt>
      <trkpt lat="43.79237" lon="7.12893">
        <ele>989</ele>
        <time>2018-05-03T13:30:11.000Z</time>
      </trkpt>
      <trkpt lat="43.79233" lon="7.12895">
        <ele>989</ele>
        <time>2018-05-03T13:30:12.000Z</time>
      </trkpt>
      <trkpt lat="43.79232" lon="7.12898">
        <ele>989</ele>
        <time>2018-05-03T13:30:13.000Z</time>
      </trkpt>
      <trkpt lat="43.79234" lon="7.12907">
        <ele>989</ele>
        <time>2018-05-03T13:30:15.000Z</time>
      </trkpt>
      <trkpt lat="43.79246" lon="7.12915">
        <ele>990</ele>
        <time>2018-05-03T13:30:18.000Z</time>
      </trkpt>
      <trkpt lat="43.79248" lon="7.12927">
        <ele>986</ele>
        <time>2018-05-03T13:30:20.000Z</time>
      </trkpt>
      <trkpt lat="43.79243" lon="7.12935">
        <ele>983</ele>
        <time>2018-05-03T13:30:22.000Z</time>
      </trkpt>
      <trkpt lat="43.79241" lon="7.12936">
        <ele>983</ele>
        <time>2018-05-03T13:30:23.000Z</time>
      </trkpt>
      <trkpt lat="43.79237" lon="7.12938">
        <ele>982</ele>
        <time>2018-05-03T13:30:24.000Z</time>
      </trkpt>
      <trkpt lat="43.79232" lon="7.12943">
        <ele>980</ele>
        <time>2018-05-03T13:30:26.000Z</time>
      </trkpt>
      <trkpt lat="43.7923" lon="7.12947">
        <ele>980</ele>
        <time>2018-05-03T13:30:27.000Z</time>
      </trkpt>
      <trkpt lat="43.7923" lon="7.12952">
        <ele>979</ele>
        <time>2018-05-03T13:30:28.000Z</time>
      </trkpt>
      <trkpt lat="43.79231" lon="7.12971">
        <ele>978</ele>
        <time>2018-05-03T13:30:31.000Z</time>
      </trkpt>
      <trkpt lat="43.79234" lon="7.12985">
        <ele>978</ele>
        <time>2018-05-03T13:30:33.000Z</time>
      </trkpt>
      <trkpt lat="43.79238" lon="7.13">
        <ele>978</ele>
        <time>2018-05-03T13:30:35.000Z</time>
      </trkpt>
      <trkpt lat="43.79241" lon="7.13015">
        <ele>973</ele>
        <time>2018-05-03T13:30:37.000Z</time>
      </trkpt>
      <trkpt lat="43.79242" lon="7.13031">
        <ele>971</ele>
        <time>2018-05-03T13:30:39.000Z</time>
      </trkpt>
      <trkpt lat="43.79241" lon="7.13039">
        <ele>970</ele>
        <time>2018-05-03T13:30:40.000Z</time>
      </trkpt>
      <trkpt lat="43.79236" lon="7.13053">
        <ele>968</ele>
        <time>2018-05-03T13:30:42.000Z</time>
      </trkpt>
      <trkpt lat="43.79225" lon="7.13058">
        <ele>968</ele>
        <time>2018-05-03T13:30:44.000Z</time>
      </trkpt>
      <trkpt lat="43.7922" lon="7.13059">
        <ele>967</ele>
        <time>2018-05-03T13:30:45.000Z</time>
      </trkpt>
      <trkpt lat="43.79214" lon="7.1306">
        <ele>967</ele>
        <time>2018-05-03T13:30:46.000Z</time>
      </trkpt>
      <trkpt lat="43.7921" lon="7.13062">
        <ele>966</ele>
        <time>2018-05-03T13:30:47.000Z</time>
      </trkpt>
      <trkpt lat="43.79206" lon="7.13063">
        <ele>965</ele>
        <time>2018-05-03T13:30:48.000Z</time>
      </trkpt>
      <trkpt lat="43.79196" lon="7.13062">
        <ele>964</ele>
        <time>2018-05-03T13:30:50.000Z</time>
      </trkpt>
      <trkpt lat="43.79187" lon="7.13064">
        <ele>963</ele>
        <time>2018-05-03T13:30:52.000Z</time>
      </trkpt>
      <trkpt lat="43.79175" lon="7.13077">
        <ele>959</ele>
        <time>2018-05-03T13:30:55.000Z</time>
      </trkpt>
      <trkpt lat="43.79167" lon="7.13082">
        <ele>955</ele>
        <time>2018-05-03T13:30:57.000Z</time>
      </trkpt>
      <trkpt lat="43.79162" lon="7.13081">
        <ele>954</ele>
        <time>2018-05-03T13:30:58.000Z</time>
      </trkpt>
      <trkpt lat="43.79158" lon="7.13081">
        <ele>954</ele>
        <time>2018-05-03T13:30:59.000Z</time>
      </trkpt>
      <trkpt lat="43.79148" lon="7.13082">
        <ele>952</ele>
        <time>2018-05-03T13:31:01.000Z</time>
      </trkpt>
      <trkpt lat="43.79141" lon="7.13083">
        <ele>951</ele>
        <time>2018-05-03T13:31:03.000Z</time>
      </trkpt>
      <trkpt lat="43.79135" lon="7.13083">
        <ele>951</ele>
        <time>2018-05-03T13:31:05.000Z</time>
      </trkpt>
      <trkpt lat="43.79133" lon="7.13082">
        <ele>951</ele>
        <time>2018-05-03T13:31:06.000Z</time>
      </trkpt>
      <trkpt lat="43.79131" lon="7.13081">
        <ele>950</ele>
        <time>2018-05-03T13:31:07.000Z</time>
      </trkpt>
      <trkpt lat="43.79131" lon="7.13079">
        <ele>950</ele>
        <time>2018-05-03T13:31:10.000Z</time>
      </trkpt>
      <trkpt lat="43.7913" lon="7.13078">
        <ele>950</ele>
        <time>2018-05-03T13:31:14.000Z</time>
      </trkpt>
      <trkpt lat="43.79126" lon="7.13075">
        <ele>950</ele>
        <time>2018-05-03T13:31:16.000Z</time>
      </trkpt>
      <trkpt lat="43.79121" lon="7.13072">
        <ele>949</ele>
        <time>2018-05-03T13:31:18.000Z</time>
      </trkpt>
      <trkpt lat="43.79119" lon="7.1307">
        <ele>949</ele>
        <time>2018-05-03T13:31:19.000Z</time>
      </trkpt>
      <trkpt lat="43.79113" lon="7.13067">
        <ele>948</ele>
        <time>2018-05-03T13:31:21.000Z</time>
      </trkpt>
      <trkpt lat="43.7911" lon="7.13064">
        <ele>948</ele>
        <time>2018-05-03T13:31:22.000Z</time>
      </trkpt>
      <trkpt lat="43.79104" lon="7.1306">
        <ele>948</ele>
        <time>2018-05-03T13:31:24.000Z</time>
      </trkpt>
      <trkpt lat="43.79101" lon="7.13061">
        <ele>947</ele>
        <time>2018-05-03T13:31:25.000Z</time>
      </trkpt>
      <trkpt lat="43.79089" lon="7.1307">
        <ele>945</ele>
        <time>2018-05-03T13:31:28.000Z</time>
      </trkpt>
      <trkpt lat="43.79085" lon="7.13069">
        <ele>944</ele>
        <time>2018-05-03T13:31:29.000Z</time>
      </trkpt>
      <trkpt lat="43.79078" lon="7.13066">
        <ele>939</ele>
        <time>2018-05-03T13:31:31.000Z</time>
      </trkpt>
      <trkpt lat="43.79075" lon="7.13067">
        <ele>938</ele>
        <time>2018-05-03T13:31:32.000Z</time>
      </trkpt>
      <trkpt lat="43.79071" lon="7.1307">
        <ele>938</ele>
        <time>2018-05-03T13:31:33.000Z</time>
      </trkpt>
      <trkpt lat="43.79059" lon="7.13078">
        <ele>937</ele>
        <time>2018-05-03T13:31:36.000Z</time>
      </trkpt>
      <trkpt lat="43.79054" lon="7.13081">
        <ele>937</ele>
        <time>2018-05-03T13:31:37.000Z</time>
      </trkpt>
      <trkpt lat="43.79044" lon="7.13087">
        <ele>935</ele>
        <time>2018-05-03T13:31:39.000Z</time>
      </trkpt>
      <trkpt lat="43.79041" lon="7.1309">
        <ele>935</ele>
        <time>2018-05-03T13:31:40.000Z</time>
      </trkpt>
      <trkpt lat="43.79036" lon="7.13101">
        <ele>935</ele>
        <time>2018-05-03T13:31:42.000Z</time>
      </trkpt>
      <trkpt lat="43.79034" lon="7.13107">
        <ele>935</ele>
        <time>2018-05-03T13:31:43.000Z</time>
      </trkpt>
      <trkpt lat="43.7902" lon="7.13127">
        <ele>935</ele>
        <time>2018-05-03T13:31:47.000Z</time>
      </trkpt>
      <trkpt lat="43.79005" lon="7.13137">
        <ele>934</ele>
        <time>2018-05-03T13:31:50.000Z</time>
      </trkpt>
      <trkpt lat="43.79" lon="7.1314">
        <ele>934</ele>
        <time>2018-05-03T13:31:51.000Z</time>
      </trkpt>
      <trkpt lat="43.78982" lon="7.13161">
        <ele>931</ele>
        <time>2018-05-03T13:31:56.000Z</time>
      </trkpt>
      <trkpt lat="43.78979" lon="7.13164">
        <ele>931</ele>
        <time>2018-05-03T13:31:57.000Z</time>
      </trkpt>
      <trkpt lat="43.78975" lon="7.13167">
        <ele>934</ele>
        <time>2018-05-03T13:31:58.000Z</time>
      </trkpt>
      <trkpt lat="43.78969" lon="7.13175">
        <ele>934</ele>
        <time>2018-05-03T13:32:00.000Z</time>
      </trkpt>
      <trkpt lat="43.78966" lon="7.1318">
        <ele>934</ele>
        <time>2018-05-03T13:32:01.000Z</time>
      </trkpt>
      <trkpt lat="43.78963" lon="7.13184">
        <ele>934</ele>
        <time>2018-05-03T13:32:02.000Z</time>
      </trkpt>
      <trkpt lat="43.78945" lon="7.13213">
        <ele>935</ele>
        <time>2018-05-03T13:32:09.000Z</time>
      </trkpt>
      <trkpt lat="43.78941" lon="7.13217">
        <ele>935</ele>
        <time>2018-05-03T13:32:10.000Z</time>
      </trkpt>
      <trkpt lat="43.78933" lon="7.13222">
        <ele>935</ele>
        <time>2018-05-03T13:32:12.000Z</time>
      </trkpt>
      <trkpt lat="43.78914" lon="7.13228">
        <ele>933</ele>
        <time>2018-05-03T13:32:16.000Z</time>
      </trkpt>
      <trkpt lat="43.78909" lon="7.13229">
        <ele>933</ele>
        <time>2018-05-03T13:32:17.000Z</time>
      </trkpt>
      <trkpt lat="43.78899" lon="7.13232">
        <ele>932</ele>
        <time>2018-05-03T13:32:19.000Z</time>
      </trkpt>
      <trkpt lat="43.7889" lon="7.13237">
        <ele>932</ele>
        <time>2018-05-03T13:32:21.000Z</time>
      </trkpt>
      <trkpt lat="43.78882" lon="7.13243">
        <ele>932</ele>
        <time>2018-05-03T13:32:23.000Z</time>
      </trkpt>
      <trkpt lat="43.78868" lon="7.13253">
        <ele>935</ele>
        <time>2018-05-03T13:32:26.000Z</time>
      </trkpt>
      <trkpt lat="43.78859" lon="7.13259">
        <ele>935</ele>
        <time>2018-05-03T13:32:28.000Z</time>
      </trkpt>
      <trkpt lat="43.78847" lon="7.13266">
        <ele>934</ele>
        <time>2018-05-03T13:32:31.000Z</time>
      </trkpt>
      <trkpt lat="43.78841" lon="7.13278">
        <ele>935</ele>
        <time>2018-05-03T13:32:34.000Z</time>
      </trkpt>
      <trkpt lat="43.78842" lon="7.13282">
        <ele>935</ele>
        <time>2018-05-03T13:32:35.000Z</time>
      </trkpt>
      <trkpt lat="43.78839" lon="7.13289">
        <ele>935</ele>
        <time>2018-05-03T13:32:38.000Z</time>
      </trkpt>
      <trkpt lat="43.78836" lon="7.13293">
        <ele>935</ele>
        <time>2018-05-03T13:32:40.000Z</time>
      </trkpt>
      <trkpt lat="43.78832" lon="7.13298">
        <ele>933</ele>
        <time>2018-05-03T13:32:42.000Z</time>
      </trkpt>
      <trkpt lat="43.78816" lon="7.13311">
        <ele>933</ele>
        <time>2018-05-03T13:32:47.000Z</time>
      </trkpt>
      <trkpt lat="43.78811" lon="7.13313">
        <ele>933</ele>
        <time>2018-05-03T13:32:48.000Z</time>
      </trkpt>
      <trkpt lat="43.78788" lon="7.13324">
        <ele>932</ele>
        <time>2018-05-03T13:32:53.000Z</time>
      </trkpt>
      <trkpt lat="43.78783" lon="7.13326">
        <ele>932</ele>
        <time>2018-05-03T13:32:54.000Z</time>
      </trkpt>
      <trkpt lat="43.78773" lon="7.13328">
        <ele>931</ele>
        <time>2018-05-03T13:32:56.000Z</time>
      </trkpt>
      <trkpt lat="43.78753" lon="7.13328">
        <ele>931</ele>
        <time>2018-05-03T13:33:00.000Z</time>
      </trkpt>
      <trkpt lat="43.78743" lon="7.13325">
        <ele>929</ele>
        <time>2018-05-03T13:33:02.000Z</time>
      </trkpt>
      <trkpt lat="43.78731" lon="7.13317">
        <ele>928</ele>
        <time>2018-05-03T13:33:05.000Z</time>
      </trkpt>
      <trkpt lat="43.78725" lon="7.13316">
        <ele>927</ele>
        <time>2018-05-03T13:33:07.000Z</time>
      </trkpt>
      <trkpt lat="43.78722" lon="7.13318">
        <ele>927</ele>
        <time>2018-05-03T13:33:08.000Z</time>
      </trkpt>
      <trkpt lat="43.78721" lon="7.13323">
        <ele>927</ele>
        <time>2018-05-03T13:33:09.000Z</time>
      </trkpt>
      <trkpt lat="43.78717" lon="7.13325">
        <ele>927</ele>
        <time>2018-05-03T13:33:11.000Z</time>
      </trkpt>
      <trkpt lat="43.78711" lon="7.1332">
        <ele>927</ele>
        <time>2018-05-03T13:33:13.000Z</time>
      </trkpt>
      <trkpt lat="43.78709" lon="7.1332">
        <ele>927</ele>
        <time>2018-05-03T13:33:14.000Z</time>
      </trkpt>
      <trkpt lat="43.78706" lon="7.13319">
        <ele>926</ele>
        <time>2018-05-03T13:33:15.000Z</time>
      </trkpt>
      <trkpt lat="43.787" lon="7.13315">
        <ele>926</ele>
        <time>2018-05-03T13:33:17.000Z</time>
      </trkpt>
      <trkpt lat="43.78696" lon="7.13314">
        <ele>926</ele>
        <time>2018-05-03T13:33:18.000Z</time>
      </trkpt>
      <trkpt lat="43.78684" lon="7.13314">
        <ele>926</ele>
        <time>2018-05-03T13:33:21.000Z</time>
      </trkpt>
      <trkpt lat="43.78677" lon="7.13313">
        <ele>926</ele>
        <time>2018-05-03T13:33:23.000Z</time>
      </trkpt>
      <trkpt lat="43.78668" lon="7.13311">
        <ele>926</ele>
        <time>2018-05-03T13:33:25.000Z</time>
      </trkpt>
      <trkpt lat="43.78664" lon="7.13311">
        <ele>923</ele>
        <time>2018-05-03T13:33:26.000Z</time>
      </trkpt>
      <trkpt lat="43.78661" lon="7.13311">
        <ele>923</ele>
        <time>2018-05-03T13:33:27.000Z</time>
      </trkpt>
      <trkpt lat="43.78649" lon="7.1331">
        <ele>923</ele>
        <time>2018-05-03T13:33:32.000Z</time>
      </trkpt>
      <trkpt lat="43.78649" lon="7.1331">
        <ele>923</ele>
        <time>2018-05-03T13:33:37.000Z</time>
      </trkpt>
      <trkpt lat="43.78648" lon="7.1331">
        <ele>923</ele>
        <time>2018-05-03T13:33:42.000Z</time>
      </trkpt>
      <trkpt lat="43.78648" lon="7.1331">
        <ele>923</ele>
        <time>2018-05-03T13:33:46.000Z</time>
      </trkpt>
      <trkpt lat="43.78645" lon="7.1331">
        <ele>923</ele>
        <time>2018-05-03T13:33:52.000Z</time>
      </trkpt>
      <trkpt lat="43.78641" lon="7.13307">
        <ele>922</ele>
        <time>2018-05-03T13:33:56.000Z</time>
      </trkpt>
      <trkpt lat="43.7864" lon="7.13307">
        <ele>922</ele>
        <time>2018-05-03T13:34:02.000Z</time>
      </trkpt>
      <trkpt lat="43.78639" lon="7.13308">
        <ele>922</ele>
        <time>2018-05-03T13:34:05.000Z</time>
      </trkpt>
      <trkpt lat="43.78636" lon="7.13309">
        <ele>922</ele>
        <time>2018-05-03T13:34:07.000Z</time>
      </trkpt>
      <trkpt lat="43.7863" lon="7.13305">
        <ele>922</ele>
        <time>2018-05-03T13:34:12.000Z</time>
      </trkpt>
      <trkpt lat="43.78625" lon="7.13297">
        <ele>921</ele>
        <time>2018-05-03T13:34:15.000Z</time>
      </trkpt>
      <trkpt lat="43.7862" lon="7.13292">
        <ele>921</ele>
        <time>2018-05-03T13:34:17.000Z</time>
      </trkpt>
      <trkpt lat="43.78611" lon="7.13287">
        <ele>921</ele>
        <time>2018-05-03T13:34:19.000Z</time>
      </trkpt>
      <trkpt lat="43.78601" lon="7.13284">
        <ele>920</ele>
        <time>2018-05-03T13:34:21.000Z</time>
      </trkpt>
      <trkpt lat="43.78591" lon="7.13278">
        <ele>920</ele>
        <time>2018-05-03T13:34:23.000Z</time>
      </trkpt>
      <trkpt lat="43.78585" lon="7.13273">
        <ele>919</ele>
        <time>2018-05-03T13:34:24.000Z</time>
      </trkpt>
      <trkpt lat="43.7858" lon="7.13259">
        <ele>917</ele>
        <time>2018-05-03T13:34:26.000Z</time>
      </trkpt>
      <trkpt lat="43.78577" lon="7.13253">
        <ele>916</ele>
        <time>2018-05-03T13:34:27.000Z</time>
      </trkpt>
      <trkpt lat="43.78568" lon="7.13245">
        <ele>913</ele>
        <time>2018-05-03T13:34:29.000Z</time>
      </trkpt>
      <trkpt lat="43.78556" lon="7.13239">
        <ele>912</ele>
        <time>2018-05-03T13:34:31.000Z</time>
      </trkpt>
      <trkpt lat="43.78546" lon="7.13229">
        <ele>911</ele>
        <time>2018-05-03T13:34:33.000Z</time>
      </trkpt>
      <trkpt lat="43.78536" lon="7.1322">
        <ele>910</ele>
        <time>2018-05-03T13:34:35.000Z</time>
      </trkpt>
      <trkpt lat="43.78531" lon="7.13216">
        <ele>910</ele>
        <time>2018-05-03T13:34:36.000Z</time>
      </trkpt>
      <trkpt lat="43.78529" lon="7.13213">
        <ele>910</ele>
        <time>2018-05-03T13:34:37.000Z</time>
      </trkpt>
      <trkpt lat="43.78527" lon="7.13211">
        <ele>910</ele>
        <time>2018-05-03T13:34:38.000Z</time>
      </trkpt>
      <trkpt lat="43.78518" lon="7.13199">
        <ele>909</ele>
        <time>2018-05-03T13:34:42.000Z</time>
      </trkpt>
      <trkpt lat="43.78513" lon="7.13195">
        <ele>908</ele>
        <time>2018-05-03T13:34:44.000Z</time>
      </trkpt>
      <trkpt lat="43.78505" lon="7.1319">
        <ele>907</ele>
        <time>2018-05-03T13:34:48.000Z</time>
      </trkpt>
      <trkpt lat="43.78494" lon="7.13182">
        <ele>905</ele>
        <time>2018-05-03T13:34:53.000Z</time>
      </trkpt>
      <trkpt lat="43.78489" lon="7.1318">
        <ele>905</ele>
        <time>2018-05-03T13:34:56.000Z</time>
      </trkpt>
      <trkpt lat="43.78487" lon="7.13178">
        <ele>905</ele>
        <time>2018-05-03T13:34:57.000Z</time>
      </trkpt>
      <trkpt lat="43.78486" lon="7.13176">
        <ele>905</ele>
        <time>2018-05-03T13:34:58.000Z</time>
      </trkpt>
      <trkpt lat="43.78484" lon="7.13173">
        <ele>905</ele>
        <time>2018-05-03T13:35:00.000Z</time>
      </trkpt>
      <trkpt lat="43.78479" lon="7.1317">
        <ele>905</ele>
        <time>2018-05-03T13:35:03.000Z</time>
      </trkpt>
      <trkpt lat="43.78478" lon="7.13168">
        <ele>905</ele>
        <time>2018-05-03T13:35:04.000Z</time>
      </trkpt>
      <trkpt lat="43.78469" lon="7.13165">
        <ele>900</ele>
        <time>2018-05-03T13:35:10.000Z</time>
      </trkpt>
      <trkpt lat="43.78463" lon="7.13162">
        <ele>900</ele>
        <time>2018-05-03T13:35:14.000Z</time>
      </trkpt>
      <trkpt lat="43.78458" lon="7.13159">
        <ele>900</ele>
        <time>2018-05-03T13:35:17.000Z</time>
      </trkpt>
      <trkpt lat="43.78454" lon="7.13158">
        <ele>899</ele>
        <time>2018-05-03T13:35:19.000Z</time>
      </trkpt>
      <trkpt lat="43.7845" lon="7.13157">
        <ele>899</ele>
        <time>2018-05-03T13:35:24.000Z</time>
      </trkpt>
      <trkpt lat="43.78448" lon="7.13156">
        <ele>899</ele>
        <time>2018-05-03T13:35:25.000Z</time>
      </trkpt>
      <trkpt lat="43.78444" lon="7.1315">
        <ele>899</ele>
        <time>2018-05-03T13:35:28.000Z</time>
      </trkpt>
      <trkpt lat="43.78442" lon="7.13147">
        <ele>899</ele>
        <time>2018-05-03T13:35:29.000Z</time>
      </trkpt>
      <trkpt lat="43.78434" lon="7.1314">
        <ele>899</ele>
        <time>2018-05-03T13:35:32.000Z</time>
      </trkpt>
      <trkpt lat="43.78429" lon="7.13133">
        <ele>898</ele>
        <time>2018-05-03T13:35:34.000Z</time>
      </trkpt>
      <trkpt lat="43.78425" lon="7.13129">
        <ele>898</ele>
        <time>2018-05-03T13:35:35.000Z</time>
      </trkpt>
      <trkpt lat="43.78421" lon="7.13125">
        <ele>897</ele>
        <time>2018-05-03T13:35:36.000Z</time>
      </trkpt>
      <trkpt lat="43.78416" lon="7.1312">
        <ele>896</ele>
        <time>2018-05-03T13:35:37.000Z</time>
      </trkpt>
      <trkpt lat="43.78412" lon="7.13117">
        <ele>896</ele>
        <time>2018-05-03T13:35:38.000Z</time>
      </trkpt>
      <trkpt lat="43.78407" lon="7.13115">
        <ele>895</ele>
        <time>2018-05-03T13:35:39.000Z</time>
      </trkpt>
      <trkpt lat="43.78398" lon="7.13113">
        <ele>895</ele>
        <time>2018-05-03T13:35:41.000Z</time>
      </trkpt>
      <trkpt lat="43.78378" lon="7.13107">
        <ele>895</ele>
        <time>2018-05-03T13:35:45.000Z</time>
      </trkpt>
      <trkpt lat="43.78374" lon="7.13102">
        <ele>895</ele>
        <time>2018-05-03T13:35:46.000Z</time>
      </trkpt>
      <trkpt lat="43.78361" lon="7.13084">
        <ele>894</ele>
        <time>2018-05-03T13:35:49.000Z</time>
      </trkpt>
      <trkpt lat="43.78357" lon="7.13078">
        <ele>889</ele>
        <time>2018-05-03T13:35:50.000Z</time>
      </trkpt>
      <trkpt lat="43.78352" lon="7.1307">
        <ele>889</ele>
        <time>2018-05-03T13:35:52.000Z</time>
      </trkpt>
      <trkpt lat="43.78349" lon="7.13066">
        <ele>889</ele>
        <time>2018-05-03T13:35:53.000Z</time>
      </trkpt>
      <trkpt lat="43.78342" lon="7.13063">
        <ele>889</ele>
        <time>2018-05-03T13:35:55.000Z</time>
      </trkpt>
      <trkpt lat="43.7834" lon="7.13061">
        <ele>889</ele>
        <time>2018-05-03T13:35:56.000Z</time>
      </trkpt>
      <trkpt lat="43.78338" lon="7.1306">
        <ele>889</ele>
        <time>2018-05-03T13:35:57.000Z</time>
      </trkpt>
      <trkpt lat="43.78329" lon="7.1305">
        <ele>889</ele>
        <time>2018-05-03T13:36:00.000Z</time>
      </trkpt>
      <trkpt lat="43.78327" lon="7.13046">
        <ele>888</ele>
        <time>2018-05-03T13:36:01.000Z</time>
      </trkpt>
      <trkpt lat="43.78322" lon="7.13039">
        <ele>888</ele>
        <time>2018-05-03T13:36:03.000Z</time>
      </trkpt>
      <trkpt lat="43.7832" lon="7.13034">
        <ele>888</ele>
        <time>2018-05-03T13:36:04.000Z</time>
      </trkpt>
      <trkpt lat="43.78315" lon="7.13013">
        <ele>887</ele>
        <time>2018-05-03T13:36:10.000Z</time>
      </trkpt>
      <trkpt lat="43.78314" lon="7.1301">
        <ele>887</ele>
        <time>2018-05-03T13:36:11.000Z</time>
      </trkpt>
      <trkpt lat="43.78313" lon="7.13003">
        <ele>886</ele>
        <time>2018-05-03T13:36:13.000Z</time>
      </trkpt>
      <trkpt lat="43.7831" lon="7.13">
        <ele>886</ele>
        <time>2018-05-03T13:36:14.000Z</time>
      </trkpt>
      <trkpt lat="43.78304" lon="7.12996">
        <ele>883</ele>
        <time>2018-05-03T13:36:16.000Z</time>
      </trkpt>
      <trkpt lat="43.78301" lon="7.12994">
        <ele>883</ele>
        <time>2018-05-03T13:36:17.000Z</time>
      </trkpt>
      <trkpt lat="43.78298" lon="7.12991">
        <ele>883</ele>
        <time>2018-05-03T13:36:18.000Z</time>
      </trkpt>
      <trkpt lat="43.78292" lon="7.12986">
        <ele>883</ele>
        <time>2018-05-03T13:36:20.000Z</time>
      </trkpt>
      <trkpt lat="43.78287" lon="7.12985">
        <ele>883</ele>
        <time>2018-05-03T13:36:22.000Z</time>
      </trkpt>
      <trkpt lat="43.78283" lon="7.12978">
        <ele>883</ele>
        <time>2018-05-03T13:36:25.000Z</time>
      </trkpt>
      <trkpt lat="43.78277" lon="7.12971">
        <ele>883</ele>
        <time>2018-05-03T13:36:28.000Z</time>
      </trkpt>
      <trkpt lat="43.78274" lon="7.12967">
        <ele>883</ele>
        <time>2018-05-03T13:36:30.000Z</time>
      </trkpt>
      <trkpt lat="43.7827" lon="7.12961">
        <ele>883</ele>
        <time>2018-05-03T13:36:33.000Z</time>
      </trkpt>
      <trkpt lat="43.78269" lon="7.12961">
        <ele>883</ele>
        <time>2018-05-03T13:36:35.000Z</time>
      </trkpt>
      <trkpt lat="43.78267" lon="7.12958">
        <ele>883</ele>
        <time>2018-05-03T13:36:43.000Z</time>
      </trkpt>
      <trkpt lat="43.78264" lon="7.12954">
        <ele>883</ele>
        <time>2018-05-03T13:36:50.000Z</time>
      </trkpt>
      <trkpt lat="43.78258" lon="7.1295">
        <ele>883</ele>
        <time>2018-05-03T13:36:54.000Z</time>
      </trkpt>
      <trkpt lat="43.78249" lon="7.12938">
        <ele>883</ele>
        <time>2018-05-03T13:36:59.000Z</time>
      </trkpt>
      <trkpt lat="43.78246" lon="7.12936">
        <ele>883</ele>
        <time>2018-05-03T13:37:03.000Z</time>
      </trkpt>
      <trkpt lat="43.78244" lon="7.12932">
        <ele>883</ele>
        <time>2018-05-03T13:37:09.000Z</time>
      </trkpt>
      <trkpt lat="43.78242" lon="7.12928">
        <ele>883</ele>
        <time>2018-05-03T13:37:14.000Z</time>
      </trkpt>
      <trkpt lat="43.78239" lon="7.12924">
        <ele>883</ele>
        <time>2018-05-03T13:37:19.000Z</time>
      </trkpt>
      <trkpt lat="43.78237" lon="7.12923">
        <ele>883</ele>
        <time>2018-05-03T13:37:21.000Z</time>
      </trkpt>
      <trkpt lat="43.78235" lon="7.12922">
        <ele>883</ele>
        <time>2018-05-03T13:37:23.000Z</time>
      </trkpt>
      <trkpt lat="43.78232" lon="7.12922">
        <ele>883</ele>
        <time>2018-05-03T13:37:25.000Z</time>
      </trkpt>
      <trkpt lat="43.78228" lon="7.12917">
        <ele>883</ele>
        <time>2018-05-03T13:37:27.000Z</time>
      </trkpt>
      <trkpt lat="43.78223" lon="7.12912">
        <ele>880</ele>
        <time>2018-05-03T13:37:29.000Z</time>
      </trkpt>
      <trkpt lat="43.78221" lon="7.12908">
        <ele>880</ele>
        <time>2018-05-03T13:37:30.000Z</time>
      </trkpt>
      <trkpt lat="43.78215" lon="7.12899">
        <ele>880</ele>
        <time>2018-05-03T13:37:33.000Z</time>
      </trkpt>
      <trkpt lat="43.78214" lon="7.12898">
        <ele>880</ele>
        <time>2018-05-03T13:37:34.000Z</time>
      </trkpt>
      <trkpt lat="43.78205" lon="7.12891">
        <ele>879</ele>
        <time>2018-05-03T13:37:37.000Z</time>
      </trkpt>
      <trkpt lat="43.78203" lon="7.12888">
        <ele>879</ele>
        <time>2018-05-03T13:37:38.000Z</time>
      </trkpt>
      <trkpt lat="43.78197" lon="7.12879">
        <ele>879</ele>
        <time>2018-05-03T13:37:40.000Z</time>
      </trkpt>
      <trkpt lat="43.78194" lon="7.12875">
        <ele>879</ele>
        <time>2018-05-03T13:37:41.000Z</time>
      </trkpt>
      <trkpt lat="43.78185" lon="7.12868">
        <ele>878</ele>
        <time>2018-05-03T13:37:43.000Z</time>
      </trkpt>
      <trkpt lat="43.78181" lon="7.1286">
        <ele>878</ele>
        <time>2018-05-03T13:37:45.000Z</time>
      </trkpt>
      <trkpt lat="43.78173" lon="7.1285">
        <ele>877</ele>
        <time>2018-05-03T13:37:48.000Z</time>
      </trkpt>
      <trkpt lat="43.78168" lon="7.12845">
        <ele>876</ele>
        <time>2018-05-03T13:37:49.000Z</time>
      </trkpt>
      <trkpt lat="43.78161" lon="7.12836">
        <ele>875</ele>
        <time>2018-05-03T13:37:51.000Z</time>
      </trkpt>
      <trkpt lat="43.78157" lon="7.12832">
        <ele>873</ele>
        <time>2018-05-03T13:37:52.000Z</time>
      </trkpt>
      <trkpt lat="43.78153" lon="7.1283">
        <ele>872</ele>
        <time>2018-05-03T13:37:53.000Z</time>
      </trkpt>
      <trkpt lat="43.78148" lon="7.12828">
        <ele>872</ele>
        <time>2018-05-03T13:37:54.000Z</time>
      </trkpt>
      <trkpt lat="43.78144" lon="7.12826">
        <ele>872</ele>
        <time>2018-05-03T13:37:55.000Z</time>
      </trkpt>
      <trkpt lat="43.78141" lon="7.12824">
        <ele>871</ele>
        <time>2018-05-03T13:37:56.000Z</time>
      </trkpt>
      <trkpt lat="43.78138" lon="7.1282">
        <ele>871</ele>
        <time>2018-05-03T13:37:57.000Z</time>
      </trkpt>
      <trkpt lat="43.78131" lon="7.12813">
        <ele>871</ele>
        <time>2018-05-03T13:37:59.000Z</time>
      </trkpt>
      <trkpt lat="43.78125" lon="7.12805">
        <ele>871</ele>
        <time>2018-05-03T13:38:01.000Z</time>
      </trkpt>
      <trkpt lat="43.78123" lon="7.128">
        <ele>870</ele>
        <time>2018-05-03T13:38:02.000Z</time>
      </trkpt>
      <trkpt lat="43.78114" lon="7.12786">
        <ele>870</ele>
        <time>2018-05-03T13:38:06.000Z</time>
      </trkpt>
      <trkpt lat="43.78111" lon="7.12782">
        <ele>870</ele>
        <time>2018-05-03T13:38:07.000Z</time>
      </trkpt>
      <trkpt lat="43.78104" lon="7.12773">
        <ele>869</ele>
        <time>2018-05-03T13:38:09.000Z</time>
      </trkpt>
      <trkpt lat="43.78104" lon="7.1277">
        <ele>869</ele>
        <time>2018-05-03T13:38:10.000Z</time>
      </trkpt>
      <trkpt lat="43.78102" lon="7.12754">
        <ele>868</ele>
        <time>2018-05-03T13:38:13.000Z</time>
      </trkpt>
      <trkpt lat="43.781" lon="7.12748">
        <ele>865</ele>
        <time>2018-05-03T13:38:14.000Z</time>
      </trkpt>
      <trkpt lat="43.78098" lon="7.12741">
        <ele>865</ele>
        <time>2018-05-03T13:38:15.000Z</time>
      </trkpt>
      <trkpt lat="43.78096" lon="7.12734">
        <ele>865</ele>
        <time>2018-05-03T13:38:16.000Z</time>
      </trkpt>
      <trkpt lat="43.78093" lon="7.12728">
        <ele>864</ele>
        <time>2018-05-03T13:38:17.000Z</time>
      </trkpt>
      <trkpt lat="43.78089" lon="7.12722">
        <ele>864</ele>
        <time>2018-05-03T13:38:18.000Z</time>
      </trkpt>
      <trkpt lat="43.78087" lon="7.12717">
        <ele>864</ele>
        <time>2018-05-03T13:38:19.000Z</time>
      </trkpt>
      <trkpt lat="43.78084" lon="7.12707">
        <ele>863</ele>
        <time>2018-05-03T13:38:21.000Z</time>
      </trkpt>
      <trkpt lat="43.78082" lon="7.12704">
        <ele>864</ele>
        <time>2018-05-03T13:38:22.000Z</time>
      </trkpt>
      <trkpt lat="43.78082" lon="7.12701">
        <ele>864</ele>
        <time>2018-05-03T13:38:23.000Z</time>
      </trkpt>
      <trkpt lat="43.78083" lon="7.12698">
        <ele>864</ele>
        <time>2018-05-03T13:38:24.000Z</time>
      </trkpt>
      <trkpt lat="43.78082" lon="7.12694">
        <ele>863</ele>
        <time>2018-05-03T13:38:25.000Z</time>
      </trkpt>
      <trkpt lat="43.7808" lon="7.12688">
        <ele>863</ele>
        <time>2018-05-03T13:38:27.000Z</time>
      </trkpt>
      <trkpt lat="43.78077" lon="7.12685">
        <ele>863</ele>
        <time>2018-05-03T13:38:30.000Z</time>
      </trkpt>
      <trkpt lat="43.78069" lon="7.12678">
        <ele>863</ele>
        <time>2018-05-03T13:38:34.000Z</time>
      </trkpt>
      <trkpt lat="43.78054" lon="7.12673">
        <ele>863</ele>
        <time>2018-05-03T13:38:40.000Z</time>
      </trkpt>
      <trkpt lat="43.78052" lon="7.12673">
        <ele>863</ele>
        <time>2018-05-03T13:38:41.000Z</time>
      </trkpt>
      <trkpt lat="43.78041" lon="7.1267">
        <ele>864</ele>
        <time>2018-05-03T13:38:45.000Z</time>
      </trkpt>
      <trkpt lat="43.78039" lon="7.12668">
        <ele>864</ele>
        <time>2018-05-03T13:38:46.000Z</time>
      </trkpt>
      <trkpt lat="43.78024" lon="7.12655">
        <ele>859</ele>
        <time>2018-05-03T13:38:52.000Z</time>
      </trkpt>
      <trkpt lat="43.78015" lon="7.12646">
        <ele>859</ele>
        <time>2018-05-03T13:38:57.000Z</time>
      </trkpt>
      <trkpt lat="43.78011" lon="7.12641">
        <ele>858</ele>
        <time>2018-05-03T13:39:00.000Z</time>
      </trkpt>
      <trkpt lat="43.78011" lon="7.12642">
        <ele>858</ele>
        <time>2018-05-03T13:39:01.000Z</time>
      </trkpt>
      <trkpt lat="43.7801" lon="7.1264">
        <ele>858</ele>
        <time>2018-05-03T13:39:07.000Z</time>
      </trkpt>
      <trkpt lat="43.7801" lon="7.1264">
        <ele>858</ele>
        <time>2018-05-03T13:39:19.000Z</time>
      </trkpt>
      <trkpt lat="43.78008" lon="7.1264">
        <ele>858</ele>
        <time>2018-05-03T13:39:39.000Z</time>
      </trkpt>
      <trkpt lat="43.78007" lon="7.1264">
        <ele>858</ele>
        <time>2018-05-03T13:39:40.000Z</time>
      </trkpt>
      <trkpt lat="43.78005" lon="7.12642">
        <ele>859</ele>
        <time>2018-05-03T13:39:43.000Z</time>
      </trkpt>
      <trkpt lat="43.78002" lon="7.12645">
        <ele>859</ele>
        <time>2018-05-03T13:39:45.000Z</time>
      </trkpt>
      <trkpt lat="43.77998" lon="7.12646">
        <ele>859</ele>
        <time>2018-05-03T13:39:47.000Z</time>
      </trkpt>
      <trkpt lat="43.77987" lon="7.12651">
        <ele>859</ele>
        <time>2018-05-03T13:39:52.000Z</time>
      </trkpt>
      <trkpt lat="43.77974" lon="7.12661">
        <ele>859</ele>
        <time>2018-05-03T13:39:58.000Z</time>
      </trkpt>
      <trkpt lat="43.77958" lon="7.12679">
        <ele>865</ele>
        <time>2018-05-03T13:40:04.000Z</time>
      </trkpt>
      <trkpt lat="43.77949" lon="7.12682">
        <ele>865</ele>
        <time>2018-05-03T13:40:08.000Z</time>
      </trkpt>
      <trkpt lat="43.77947" lon="7.12684">
        <ele>865</ele>
        <time>2018-05-03T13:40:09.000Z</time>
      </trkpt>
      <trkpt lat="43.7794" lon="7.12688">
        <ele>865</ele>
        <time>2018-05-03T13:40:13.000Z</time>
      </trkpt>
      <trkpt lat="43.77935" lon="7.12687">
        <ele>865</ele>
        <time>2018-05-03T13:40:15.000Z</time>
      </trkpt>
      <trkpt lat="43.77925" lon="7.12683">
        <ele>864</ele>
        <time>2018-05-03T13:40:19.000Z</time>
      </trkpt>
      <trkpt lat="43.77922" lon="7.12682">
        <ele>864</ele>
        <time>2018-05-03T13:40:20.000Z</time>
      </trkpt>
      <trkpt lat="43.77907" lon="7.12681">
        <ele>864</ele>
        <time>2018-05-03T13:40:25.000Z</time>
      </trkpt>
      <trkpt lat="43.77888" lon="7.12676">
        <ele>864</ele>
        <time>2018-05-03T13:40:30.000Z</time>
      </trkpt>
      <trkpt lat="43.77875" lon="7.12667">
        <ele>864</ele>
        <time>2018-05-03T13:40:33.000Z</time>
      </trkpt>
      <trkpt lat="43.7786" lon="7.12656">
        <ele>857</ele>
        <time>2018-05-03T13:40:36.000Z</time>
      </trkpt>
      <trkpt lat="43.77849" lon="7.12655">
        <ele>858</ele>
        <time>2018-05-03T13:40:38.000Z</time>
      </trkpt>
      <trkpt lat="43.77843" lon="7.12656">
        <ele>858</ele>
        <time>2018-05-03T13:40:39.000Z</time>
      </trkpt>
      <trkpt lat="43.77838" lon="7.12656">
        <ele>859</ele>
        <time>2018-05-03T13:40:40.000Z</time>
      </trkpt>
      <trkpt lat="43.77824" lon="7.12658">
        <ele>858</ele>
        <time>2018-05-03T13:40:43.000Z</time>
      </trkpt>
      <trkpt lat="43.77816" lon="7.12661">
        <ele>858</ele>
        <time>2018-05-03T13:40:45.000Z</time>
      </trkpt>
      <trkpt lat="43.77797" lon="7.12669">
        <ele>864</ele>
        <time>2018-05-03T13:40:50.000Z</time>
      </trkpt>
      <trkpt lat="43.77789" lon="7.12672">
        <ele>864</ele>
        <time>2018-05-03T13:40:52.000Z</time>
      </trkpt>
      <trkpt lat="43.77777" lon="7.12676">
        <ele>863</ele>
        <time>2018-05-03T13:40:55.000Z</time>
      </trkpt>
      <trkpt lat="43.77773" lon="7.12676">
        <ele>863</ele>
        <time>2018-05-03T13:40:56.000Z</time>
      </trkpt>
      <trkpt lat="43.77769" lon="7.12676">
        <ele>863</ele>
        <time>2018-05-03T13:40:57.000Z</time>
      </trkpt>
      <trkpt lat="43.77757" lon="7.12682">
        <ele>863</ele>
        <time>2018-05-03T13:41:01.000Z</time>
      </trkpt>
      <trkpt lat="43.77753" lon="7.12683">
        <ele>863</ele>
        <time>2018-05-03T13:41:03.000Z</time>
      </trkpt>
      <trkpt lat="43.7775" lon="7.12686">
        <ele>863</ele>
        <time>2018-05-03T13:41:05.000Z</time>
      </trkpt>
      <trkpt lat="43.77747" lon="7.1269">
        <ele>863</ele>
        <time>2018-05-03T13:41:07.000Z</time>
      </trkpt>
      <trkpt lat="43.7774" lon="7.12698">
        <ele>864</ele>
        <time>2018-05-03T13:41:13.000Z</time>
      </trkpt>
      <trkpt lat="43.77735" lon="7.12702">
        <ele>864</ele>
        <time>2018-05-03T13:41:17.000Z</time>
      </trkpt>
      <trkpt lat="43.77728" lon="7.12707">
        <ele>864</ele>
        <time>2018-05-03T13:41:22.000Z</time>
      </trkpt>
      <trkpt lat="43.77727" lon="7.12708">
        <ele>864</ele>
        <time>2018-05-03T13:41:23.000Z</time>
      </trkpt>
      <trkpt lat="43.77722" lon="7.12712">
        <ele>865</ele>
        <time>2018-05-03T13:41:27.000Z</time>
      </trkpt>
      <trkpt lat="43.77719" lon="7.12714">
        <ele>865</ele>
        <time>2018-05-03T13:41:29.000Z</time>
      </trkpt>
      <trkpt lat="43.77712" lon="7.1272">
        <ele>865</ele>
        <time>2018-05-03T13:41:34.000Z</time>
      </trkpt>
      <trkpt lat="43.77711" lon="7.12722">
        <ele>865</ele>
        <time>2018-05-03T13:41:35.000Z</time>
      </trkpt>
      <trkpt lat="43.77703" lon="7.12732">
        <ele>866</ele>
        <time>2018-05-03T13:41:41.000Z</time>
      </trkpt>
      <trkpt lat="43.77702" lon="7.12733">
        <ele>866</ele>
        <time>2018-05-03T13:41:42.000Z</time>
      </trkpt>
      <trkpt lat="43.77698" lon="7.12738">
        <ele>866</ele>
        <time>2018-05-03T13:41:47.000Z</time>
      </trkpt>
      <trkpt lat="43.77694" lon="7.12741">
        <ele>867</ele>
        <time>2018-05-03T13:41:50.000Z</time>
      </trkpt>
      <trkpt lat="43.77691" lon="7.12742">
        <ele>867</ele>
        <time>2018-05-03T13:41:52.000Z</time>
      </trkpt>
      <trkpt lat="43.77687" lon="7.12744">
        <ele>867</ele>
        <time>2018-05-03T13:41:55.000Z</time>
      </trkpt>
      <trkpt lat="43.77682" lon="7.12749">
        <ele>868</ele>
        <time>2018-05-03T13:41:58.000Z</time>
      </trkpt>
      <trkpt lat="43.7767" lon="7.12759">
        <ele>870</ele>
        <time>2018-05-03T13:42:03.000Z</time>
      </trkpt>
      <trkpt lat="43.77666" lon="7.12762">
        <ele>870</ele>
        <time>2018-05-03T13:42:04.000Z</time>
      </trkpt>
      <trkpt lat="43.77656" lon="7.1277">
        <ele>869</ele>
        <time>2018-05-03T13:42:07.000Z</time>
      </trkpt>
      <trkpt lat="43.77653" lon="7.12782">
        <ele>869</ele>
        <time>2018-05-03T13:42:10.000Z</time>
      </trkpt>
      <trkpt lat="43.77651" lon="7.12806">
        <ele>870</ele>
        <time>2018-05-03T13:42:14.000Z</time>
      </trkpt>
      <trkpt lat="43.77649" lon="7.12812">
        <ele>870</ele>
        <time>2018-05-03T13:42:15.000Z</time>
      </trkpt>
      <trkpt lat="43.77644" lon="7.12837">
        <ele>869</ele>
        <time>2018-05-03T13:42:20.000Z</time>
      </trkpt>
      <trkpt lat="43.77644" lon="7.12848">
        <ele>869</ele>
        <time>2018-05-03T13:42:22.000Z</time>
      </trkpt>
      <trkpt lat="43.77644" lon="7.12867">
        <ele>868</ele>
        <time>2018-05-03T13:42:25.000Z</time>
      </trkpt>
      <trkpt lat="43.77644" lon="7.12874">
        <ele>868</ele>
        <time>2018-05-03T13:42:26.000Z</time>
      </trkpt>
      <trkpt lat="43.77642" lon="7.12881">
        <ele>868</ele>
        <time>2018-05-03T13:42:27.000Z</time>
      </trkpt>
      <trkpt lat="43.77639" lon="7.12902">
        <ele>867</ele>
        <time>2018-05-03T13:42:30.000Z</time>
      </trkpt>
      <trkpt lat="43.77638" lon="7.12908">
        <ele>867</ele>
        <time>2018-05-03T13:42:31.000Z</time>
      </trkpt>
      <trkpt lat="43.77632" lon="7.12924">
        <ele>867</ele>
        <time>2018-05-03T13:42:34.000Z</time>
      </trkpt>
      <trkpt lat="43.7763" lon="7.12928">
        <ele>867</ele>
        <time>2018-05-03T13:42:35.000Z</time>
      </trkpt>
      <trkpt lat="43.77627" lon="7.12933">
        <ele>867</ele>
        <time>2018-05-03T13:42:36.000Z</time>
      </trkpt>
      <trkpt lat="43.77614" lon="7.12957">
        <ele>866</ele>
        <time>2018-05-03T13:42:41.000Z</time>
      </trkpt>
      <trkpt lat="43.77598" lon="7.12986">
        <ele>865</ele>
        <time>2018-05-03T13:42:47.000Z</time>
      </trkpt>
      <trkpt lat="43.77593" lon="7.12999">
        <ele>864</ele>
        <time>2018-05-03T13:42:49.000Z</time>
      </trkpt>
      <trkpt lat="43.77591" lon="7.13004">
        <ele>865</ele>
        <time>2018-05-03T13:42:50.000Z</time>
      </trkpt>
      <trkpt lat="43.77588" lon="7.13016">
        <ele>866</ele>
        <time>2018-05-03T13:42:52.000Z</time>
      </trkpt>
      <trkpt lat="43.77586" lon="7.13029">
        <ele>867</ele>
        <time>2018-05-03T13:42:54.000Z</time>
      </trkpt>
      <trkpt lat="43.77583" lon="7.13053">
        <ele>859</ele>
        <time>2018-05-03T13:42:58.000Z</time>
      </trkpt>
      <trkpt lat="43.77583" lon="7.13064">
        <ele>861</ele>
        <time>2018-05-03T13:43:00.000Z</time>
      </trkpt>
      <trkpt lat="43.7758" lon="7.13081">
        <ele>864</ele>
        <time>2018-05-03T13:43:04.000Z</time>
      </trkpt>
      <trkpt lat="43.7758" lon="7.13081">
        <ele>864</ele>
        <time>2018-05-03T13:43:06.000Z</time>
      </trkpt>
      <trkpt lat="43.77579" lon="7.13082">
        <ele>864</ele>
        <time>2018-05-03T13:43:08.000Z</time>
      </trkpt>
      <trkpt lat="43.77579" lon="7.13082">
        <ele>864</ele>
        <time>2018-05-03T13:43:14.000Z</time>
      </trkpt>
      <trkpt lat="43.7758" lon="7.13084">
        <ele>864</ele>
        <time>2018-05-03T13:43:32.000Z</time>
      </trkpt>
      <trkpt lat="43.7758" lon="7.13085">
        <ele>864</ele>
        <time>2018-05-03T13:43:41.000Z</time>
      </trkpt>
      <trkpt lat="43.7758" lon="7.13085">
        <ele>864</ele>
        <time>2018-05-03T13:43:51.000Z</time>
      </trkpt>
      <trkpt lat="43.77581" lon="7.13086">
        <ele>864</ele>
        <time>2018-05-03T13:44:04.000Z</time>
      </trkpt>
      <trkpt lat="43.77581" lon="7.13086">
        <ele>863</ele>
        <time>2018-05-03T13:44:21.000Z</time>
      </trkpt>
      <trkpt lat="43.7758" lon="7.13086">
        <ele>863</ele>
        <time>2018-05-03T13:44:33.000Z</time>
      </trkpt>
      <trkpt lat="43.77577" lon="7.13092">
        <ele>861</ele>
        <time>2018-05-03T13:44:39.000Z</time>
      </trkpt>
      <trkpt lat="43.77573" lon="7.13114">
        <ele>858</ele>
        <time>2018-05-03T13:44:44.000Z</time>
      </trkpt>
      <trkpt lat="43.77572" lon="7.13131">
        <ele>857</ele>
        <time>2018-05-03T13:44:47.000Z</time>
      </trkpt>
      <trkpt lat="43.77572" lon="7.13151">
        <ele>858</ele>
        <time>2018-05-03T13:44:50.000Z</time>
      </trkpt>
      <trkpt lat="43.77573" lon="7.13158">
        <ele>859</ele>
        <time>2018-05-03T13:44:51.000Z</time>
      </trkpt>
      <trkpt lat="43.77577" lon="7.1317">
        <ele>859</ele>
        <time>2018-05-03T13:44:53.000Z</time>
      </trkpt>
      <trkpt lat="43.7758" lon="7.13178">
        <ele>857</ele>
        <time>2018-05-03T13:44:54.000Z</time>
      </trkpt>
      <trkpt lat="43.77585" lon="7.13189">
        <ele>863</ele>
        <time>2018-05-03T13:44:56.000Z</time>
      </trkpt>
      <trkpt lat="43.7759" lon="7.13198">
        <ele>862</ele>
        <time>2018-05-03T13:44:58.000Z</time>
      </trkpt>
      <trkpt lat="43.77592" lon="7.13202">
        <ele>862</ele>
        <time>2018-05-03T13:44:59.000Z</time>
      </trkpt>
      <trkpt lat="43.77595" lon="7.13213">
        <ele>861</ele>
        <time>2018-05-03T13:45:02.000Z</time>
      </trkpt>
      <trkpt lat="43.77595" lon="7.13216">
        <ele>861</ele>
        <time>2018-05-03T13:45:03.000Z</time>
      </trkpt>
      <trkpt lat="43.77598" lon="7.13226">
        <ele>859</ele>
        <time>2018-05-03T13:45:06.000Z</time>
      </trkpt>
      <trkpt lat="43.776" lon="7.13233">
        <ele>858</ele>
        <time>2018-05-03T13:45:08.000Z</time>
      </trkpt>
      <trkpt lat="43.77601" lon="7.13235">
        <ele>858</ele>
        <time>2018-05-03T13:45:09.000Z</time>
      </trkpt>
      <trkpt lat="43.77606" lon="7.1324">
        <ele>859</ele>
        <time>2018-05-03T13:45:12.000Z</time>
      </trkpt>
      <trkpt lat="43.77608" lon="7.13244">
        <ele>859</ele>
        <time>2018-05-03T13:45:13.000Z</time>
      </trkpt>
      <trkpt lat="43.77608" lon="7.13247">
        <ele>859</ele>
        <time>2018-05-03T13:45:14.000Z</time>
      </trkpt>
      <trkpt lat="43.77609" lon="7.13248">
        <ele>859</ele>
        <time>2018-05-03T13:45:16.000Z</time>
      </trkpt>
      <trkpt lat="43.77608" lon="7.13249">
        <ele>859</ele>
        <time>2018-05-03T13:45:17.000Z</time>
      </trkpt>
      <trkpt lat="43.77607" lon="7.13252">
        <ele>852</ele>
        <time>2018-05-03T13:45:22.000Z</time>
      </trkpt>
      <trkpt lat="43.77607" lon="7.13255">
        <ele>852</ele>
        <time>2018-05-03T13:45:27.000Z</time>
      </trkpt>
      <trkpt lat="43.77607" lon="7.13254">
        <ele>852</ele>
        <time>2018-05-03T13:45:28.000Z</time>
      </trkpt>
      <trkpt lat="43.77606" lon="7.13255">
        <ele>852</ele>
        <time>2018-05-03T13:45:29.000Z</time>
      </trkpt>
      <trkpt lat="43.77606" lon="7.13257">
        <ele>851</ele>
        <time>2018-05-03T13:45:34.000Z</time>
      </trkpt>
      <trkpt lat="43.77606" lon="7.13259">
        <ele>851</ele>
        <time>2018-05-03T13:45:35.000Z</time>
      </trkpt>
      <trkpt lat="43.77605" lon="7.13264">
        <ele>851</ele>
        <time>2018-05-03T13:45:37.000Z</time>
      </trkpt>
      <trkpt lat="43.77605" lon="7.13271">
        <ele>851</ele>
        <time>2018-05-03T13:45:39.000Z</time>
      </trkpt>
      <trkpt lat="43.77605" lon="7.13277">
        <ele>851</ele>
        <time>2018-05-03T13:45:41.000Z</time>
      </trkpt>
      <trkpt lat="43.77607" lon="7.13282">
        <ele>851</ele>
        <time>2018-05-03T13:45:43.000Z</time>
      </trkpt>
      <trkpt lat="43.77608" lon="7.13285">
        <ele>851</ele>
        <time>2018-05-03T13:45:44.000Z</time>
      </trkpt>
      <trkpt lat="43.7761" lon="7.13291">
        <ele>850</ele>
        <time>2018-05-03T13:45:46.000Z</time>
      </trkpt>
      <trkpt lat="43.7761" lon="7.13294">
        <ele>850</ele>
        <time>2018-05-03T13:45:47.000Z</time>
      </trkpt>
      <trkpt lat="43.77609" lon="7.13297">
        <ele>850</ele>
        <time>2018-05-03T13:45:49.000Z</time>
      </trkpt>
      <trkpt lat="43.77609" lon="7.13298">
        <ele>850</ele>
        <time>2018-05-03T13:45:52.000Z</time>
      </trkpt>
      <trkpt lat="43.77609" lon="7.13299">
        <ele>850</ele>
        <time>2018-05-03T13:45:53.000Z</time>
      </trkpt>
      <trkpt lat="43.77609" lon="7.13307">
        <ele>849</ele>
        <time>2018-05-03T13:45:57.000Z</time>
      </trkpt>
      <trkpt lat="43.77609" lon="7.13309">
        <ele>849</ele>
        <time>2018-05-03T13:45:58.000Z</time>
      </trkpt>
      <trkpt lat="43.77611" lon="7.13317">
        <ele>848</ele>
        <time>2018-05-03T13:46:00.000Z</time>
      </trkpt>
      <trkpt lat="43.77611" lon="7.13321">
        <ele>848</ele>
        <time>2018-05-03T13:46:01.000Z</time>
      </trkpt>
      <trkpt lat="43.77608" lon="7.13333">
        <ele>846</ele>
        <time>2018-05-03T13:46:04.000Z</time>
      </trkpt>
      <trkpt lat="43.77607" lon="7.13341">
        <ele>842</ele>
        <time>2018-05-03T13:46:06.000Z</time>
      </trkpt>
      <trkpt lat="43.77609" lon="7.13348">
        <ele>843</ele>
        <time>2018-05-03T13:46:08.000Z</time>
      </trkpt>
      <trkpt lat="43.77609" lon="7.13356">
        <ele>843</ele>
        <time>2018-05-03T13:46:10.000Z</time>
      </trkpt>
      <trkpt lat="43.77609" lon="7.13367">
        <ele>843</ele>
        <time>2018-05-03T13:46:12.000Z</time>
      </trkpt>
      <trkpt lat="43.7761" lon="7.13379">
        <ele>843</ele>
        <time>2018-05-03T13:46:14.000Z</time>
      </trkpt>
      <trkpt lat="43.77612" lon="7.13391">
        <ele>842</ele>
        <time>2018-05-03T13:46:16.000Z</time>
      </trkpt>
      <trkpt lat="43.77614" lon="7.13403">
        <ele>842</ele>
        <time>2018-05-03T13:46:18.000Z</time>
      </trkpt>
      <trkpt lat="43.77614" lon="7.13409">
        <ele>842</ele>
        <time>2018-05-03T13:46:19.000Z</time>
      </trkpt>
      <trkpt lat="43.77615" lon="7.13415">
        <ele>842</ele>
        <time>2018-05-03T13:46:20.000Z</time>
      </trkpt>
      <trkpt lat="43.77615" lon="7.13428">
        <ele>842</ele>
        <time>2018-05-03T13:46:23.000Z</time>
      </trkpt>
      <trkpt lat="43.77614" lon="7.13441">
        <ele>842</ele>
        <time>2018-05-03T13:46:28.000Z</time>
      </trkpt>
      <trkpt lat="43.77611" lon="7.13448">
        <ele>842</ele>
        <time>2018-05-03T13:46:33.000Z</time>
      </trkpt>
      <trkpt lat="43.7761" lon="7.13449">
        <ele>842</ele>
        <time>2018-05-03T13:46:34.000Z</time>
      </trkpt>
      <trkpt lat="43.77608" lon="7.13446">
        <ele>842</ele>
        <time>2018-05-03T13:46:36.000Z</time>
      </trkpt>
      <trkpt lat="43.77605" lon="7.13439">
        <ele>841</ele>
        <time>2018-05-03T13:46:40.000Z</time>
      </trkpt>
      <trkpt lat="43.77603" lon="7.13439">
        <ele>840</ele>
        <time>2018-05-03T13:46:41.000Z</time>
      </trkpt>
      <trkpt lat="43.77597" lon="7.13438">
        <ele>840</ele>
        <time>2018-05-03T13:46:43.000Z</time>
      </trkpt>
      <trkpt lat="43.77593" lon="7.13433">
        <ele>839</ele>
        <time>2018-05-03T13:46:45.000Z</time>
      </trkpt>
      <trkpt lat="43.7759" lon="7.13427">
        <ele>837</ele>
        <time>2018-05-03T13:46:47.000Z</time>
      </trkpt>
      <trkpt lat="43.77584" lon="7.1342">
        <ele>834</ele>
        <time>2018-05-03T13:46:50.000Z</time>
      </trkpt>
      <trkpt lat="43.77583" lon="7.13417">
        <ele>833</ele>
        <time>2018-05-03T13:46:51.000Z</time>
      </trkpt>
      <trkpt lat="43.77582" lon="7.13414">
        <ele>832</ele>
        <time>2018-05-03T13:46:52.000Z</time>
      </trkpt>
      <trkpt lat="43.77581" lon="7.13412">
        <ele>832</ele>
        <time>2018-05-03T13:46:53.000Z</time>
      </trkpt>
      <trkpt lat="43.77579" lon="7.1341">
        <ele>831</ele>
        <time>2018-05-03T13:46:54.000Z</time>
      </trkpt>
      <trkpt lat="43.77575" lon="7.13408">
        <ele>831</ele>
        <time>2018-05-03T13:46:55.000Z</time>
      </trkpt>
      <trkpt lat="43.77572" lon="7.13406">
        <ele>830</ele>
        <time>2018-05-03T13:46:56.000Z</time>
      </trkpt>
      <trkpt lat="43.77565" lon="7.13402">
        <ele>829</ele>
        <time>2018-05-03T13:46:58.000Z</time>
      </trkpt>
      <trkpt lat="43.77562" lon="7.13402">
        <ele>829</ele>
        <time>2018-05-03T13:46:59.000Z</time>
      </trkpt>
      <trkpt lat="43.77557" lon="7.13402">
        <ele>828</ele>
        <time>2018-05-03T13:47:00.000Z</time>
      </trkpt>
      <trkpt lat="43.77552" lon="7.134">
        <ele>828</ele>
        <time>2018-05-03T13:47:01.000Z</time>
      </trkpt>
      <trkpt lat="43.77544" lon="7.13393">
        <ele>827</ele>
        <time>2018-05-03T13:47:03.000Z</time>
      </trkpt>
      <trkpt lat="43.77538" lon="7.13391">
        <ele>827</ele>
        <time>2018-05-03T13:47:05.000Z</time>
      </trkpt>
      <trkpt lat="43.77537" lon="7.13393">
        <ele>826</ele>
        <time>2018-05-03T13:47:06.000Z</time>
      </trkpt>
      <trkpt lat="43.77529" lon="7.13391">
        <ele>826</ele>
        <time>2018-05-03T13:47:09.000Z</time>
      </trkpt>
      <trkpt lat="43.77522" lon="7.1339">
        <ele>825</ele>
        <time>2018-05-03T13:47:11.000Z</time>
      </trkpt>
      <trkpt lat="43.77519" lon="7.1339">
        <ele>825</ele>
        <time>2018-05-03T13:47:12.000Z</time>
      </trkpt>
      <trkpt lat="43.77516" lon="7.1339">
        <ele>825</ele>
        <time>2018-05-03T13:47:13.000Z</time>
      </trkpt>
      <trkpt lat="43.77506" lon="7.13391">
        <ele>824</ele>
        <time>2018-05-03T13:47:15.000Z</time>
      </trkpt>
      <trkpt lat="43.77498" lon="7.1339">
        <ele>817</ele>
        <time>2018-05-03T13:47:17.000Z</time>
      </trkpt>
      <trkpt lat="43.77494" lon="7.13387">
        <ele>817</ele>
        <time>2018-05-03T13:47:18.000Z</time>
      </trkpt>
      <trkpt lat="43.77487" lon="7.1338">
        <ele>816</ele>
        <time>2018-05-03T13:47:20.000Z</time>
      </trkpt>
      <trkpt lat="43.77481" lon="7.13377">
        <ele>816</ele>
        <time>2018-05-03T13:47:22.000Z</time>
      </trkpt>
      <trkpt lat="43.77476" lon="7.1337">
        <ele>815</ele>
        <time>2018-05-03T13:47:24.000Z</time>
      </trkpt>
      <trkpt lat="43.77469" lon="7.13364">
        <ele>815</ele>
        <time>2018-05-03T13:47:26.000Z</time>
      </trkpt>
      <trkpt lat="43.77465" lon="7.13362">
        <ele>814</ele>
        <time>2018-05-03T13:47:27.000Z</time>
      </trkpt>
      <trkpt lat="43.7746" lon="7.13356">
        <ele>814</ele>
        <time>2018-05-03T13:47:29.000Z</time>
      </trkpt>
      <trkpt lat="43.77453" lon="7.13352">
        <ele>813</ele>
        <time>2018-05-03T13:47:31.000Z</time>
      </trkpt>
      <trkpt lat="43.77446" lon="7.13348">
        <ele>812</ele>
        <time>2018-05-03T13:47:33.000Z</time>
      </trkpt>
      <trkpt lat="43.77437" lon="7.13346">
        <ele>810</ele>
        <time>2018-05-03T13:47:35.000Z</time>
      </trkpt>
      <trkpt lat="43.77426" lon="7.13339">
        <ele>807</ele>
        <time>2018-05-03T13:47:39.000Z</time>
      </trkpt>
      <trkpt lat="43.77424" lon="7.13326">
        <ele>807</ele>
        <time>2018-05-03T13:47:43.000Z</time>
      </trkpt>
      <trkpt lat="43.77417" lon="7.13321">
        <ele>807</ele>
        <time>2018-05-03T13:47:46.000Z</time>
      </trkpt>
      <trkpt lat="43.77414" lon="7.13321">
        <ele>801</ele>
        <time>2018-05-03T13:47:47.000Z</time>
      </trkpt>
      <trkpt lat="43.77411" lon="7.1332">
        <ele>801</ele>
        <time>2018-05-03T13:47:48.000Z</time>
      </trkpt>
      <trkpt lat="43.77408" lon="7.13322">
        <ele>801</ele>
        <time>2018-05-03T13:47:49.000Z</time>
      </trkpt>
      <trkpt lat="43.77402" lon="7.13324">
        <ele>800</ele>
        <time>2018-05-03T13:47:51.000Z</time>
      </trkpt>
      <trkpt lat="43.77393" lon="7.13323">
        <ele>799</ele>
        <time>2018-05-03T13:47:54.000Z</time>
      </trkpt>
      <trkpt lat="43.77392" lon="7.13321">
        <ele>799</ele>
        <time>2018-05-03T13:47:55.000Z</time>
      </trkpt>
      <trkpt lat="43.77394" lon="7.13316">
        <ele>799</ele>
        <time>2018-05-03T13:47:57.000Z</time>
      </trkpt>
      <trkpt lat="43.77397" lon="7.13302">
        <ele>799</ele>
        <time>2018-05-03T13:48:00.000Z</time>
      </trkpt>
      <trkpt lat="43.77396" lon="7.133">
        <ele>799</ele>
        <time>2018-05-03T13:48:01.000Z</time>
      </trkpt>
      <trkpt lat="43.77391" lon="7.13298">
        <ele>799</ele>
        <time>2018-05-03T13:48:03.000Z</time>
      </trkpt>
      <trkpt lat="43.77388" lon="7.13296">
        <ele>799</ele>
        <time>2018-05-03T13:48:04.000Z</time>
      </trkpt>
      <trkpt lat="43.77386" lon="7.13295">
        <ele>798</ele>
        <time>2018-05-03T13:48:05.000Z</time>
      </trkpt>
      <trkpt lat="43.77383" lon="7.13295">
        <ele>798</ele>
        <time>2018-05-03T13:48:06.000Z</time>
      </trkpt>
      <trkpt lat="43.77381" lon="7.13296">
        <ele>798</ele>
        <time>2018-05-03T13:48:07.000Z</time>
      </trkpt>
      <trkpt lat="43.77377" lon="7.13296">
        <ele>798</ele>
        <time>2018-05-03T13:48:09.000Z</time>
      </trkpt>
      <trkpt lat="43.77373" lon="7.13298">
        <ele>797</ele>
        <time>2018-05-03T13:48:11.000Z</time>
      </trkpt>
      <trkpt lat="43.77369" lon="7.133">
        <ele>797</ele>
        <time>2018-05-03T13:48:13.000Z</time>
      </trkpt>
      <trkpt lat="43.77367" lon="7.133">
        <ele>797</ele>
        <time>2018-05-03T13:48:14.000Z</time>
      </trkpt>
      <trkpt lat="43.77365" lon="7.13302">
        <ele>797</ele>
        <time>2018-05-03T13:48:15.000Z</time>
      </trkpt>
      <trkpt lat="43.77363" lon="7.13302">
        <ele>796</ele>
        <time>2018-05-03T13:48:16.000Z</time>
      </trkpt>
      <trkpt lat="43.77361" lon="7.13301">
        <ele>796</ele>
        <time>2018-05-03T13:48:17.000Z</time>
      </trkpt>
      <trkpt lat="43.7736" lon="7.13297">
        <ele>796</ele>
        <time>2018-05-03T13:48:19.000Z</time>
      </trkpt>
      <trkpt lat="43.77359" lon="7.13296">
        <ele>796</ele>
        <time>2018-05-03T13:48:20.000Z</time>
      </trkpt>
      <trkpt lat="43.77355" lon="7.13296">
        <ele>796</ele>
        <time>2018-05-03T13:48:22.000Z</time>
      </trkpt>
      <trkpt lat="43.7735" lon="7.13295">
        <ele>796</ele>
        <time>2018-05-03T13:48:24.000Z</time>
      </trkpt>
      <trkpt lat="43.77349" lon="7.1329">
        <ele>795</ele>
        <time>2018-05-03T13:48:26.000Z</time>
      </trkpt>
      <trkpt lat="43.77347" lon="7.13289">
        <ele>795</ele>
        <time>2018-05-03T13:48:27.000Z</time>
      </trkpt>
      <trkpt lat="43.77346" lon="7.13288">
        <ele>795</ele>
        <time>2018-05-03T13:48:28.000Z</time>
      </trkpt>
      <trkpt lat="43.77345" lon="7.13288">
        <ele>795</ele>
        <time>2018-05-03T13:48:30.000Z</time>
      </trkpt>
      <trkpt lat="43.77345" lon="7.13288">
        <ele>795</ele>
        <time>2018-05-03T13:48:32.000Z</time>
      </trkpt>
      <trkpt lat="43.77342" lon="7.13289">
        <ele>795</ele>
        <time>2018-05-03T13:48:35.000Z</time>
      </trkpt>
      <trkpt lat="43.77339" lon="7.13289">
        <ele>795</ele>
        <time>2018-05-03T13:48:37.000Z</time>
      </trkpt>
      <trkpt lat="43.77337" lon="7.13289">
        <ele>795</ele>
        <time>2018-05-03T13:48:40.000Z</time>
      </trkpt>
      <trkpt lat="43.77329" lon="7.13292">
        <ele>787</ele>
        <time>2018-05-03T13:48:45.000Z</time>
      </trkpt>
      <trkpt lat="43.77326" lon="7.13284">
        <ele>786</ele>
        <time>2018-05-03T13:48:48.000Z</time>
      </trkpt>
      <trkpt lat="43.77322" lon="7.13279">
        <ele>786</ele>
        <time>2018-05-03T13:48:50.000Z</time>
      </trkpt>
      <trkpt lat="43.7732" lon="7.13277">
        <ele>786</ele>
        <time>2018-05-03T13:48:51.000Z</time>
      </trkpt>
      <trkpt lat="43.77317" lon="7.13274">
        <ele>786</ele>
        <time>2018-05-03T13:48:52.000Z</time>
      </trkpt>
      <trkpt lat="43.77311" lon="7.13267">
        <ele>786</ele>
        <time>2018-05-03T13:48:55.000Z</time>
      </trkpt>
      <trkpt lat="43.77309" lon="7.13266">
        <ele>786</ele>
        <time>2018-05-03T13:48:56.000Z</time>
      </trkpt>
      <trkpt lat="43.77308" lon="7.13265">
        <ele>785</ele>
        <time>2018-05-03T13:48:59.000Z</time>
      </trkpt>
      <trkpt lat="43.77306" lon="7.1326">
        <ele>785</ele>
        <time>2018-05-03T13:49:01.000Z</time>
      </trkpt>
      <trkpt lat="43.77302" lon="7.13255">
        <ele>785</ele>
        <time>2018-05-03T13:49:03.000Z</time>
      </trkpt>
      <trkpt lat="43.77293" lon="7.13244">
        <ele>785</ele>
        <time>2018-05-03T13:49:07.000Z</time>
      </trkpt>
      <trkpt lat="43.77287" lon="7.13233">
        <ele>784</ele>
        <time>2018-05-03T13:49:10.000Z</time>
      </trkpt>
      <trkpt lat="43.77285" lon="7.1323">
        <ele>784</ele>
        <time>2018-05-03T13:49:11.000Z</time>
      </trkpt>
      <trkpt lat="43.7728" lon="7.13228">
        <ele>784</ele>
        <time>2018-05-03T13:49:13.000Z</time>
      </trkpt>
      <trkpt lat="43.77276" lon="7.13227">
        <ele>783</ele>
        <time>2018-05-03T13:49:14.000Z</time>
      </trkpt>
      <trkpt lat="43.77267" lon="7.13221">
        <ele>783</ele>
        <time>2018-05-03T13:49:17.000Z</time>
      </trkpt>
      <trkpt lat="43.77258" lon="7.13219">
        <ele>783</ele>
        <time>2018-05-03T13:49:19.000Z</time>
      </trkpt>
      <trkpt lat="43.77255" lon="7.13216">
        <ele>783</ele>
        <time>2018-05-03T13:49:20.000Z</time>
      </trkpt>
      <trkpt lat="43.77253" lon="7.13214">
        <ele>783</ele>
        <time>2018-05-03T13:49:21.000Z</time>
      </trkpt>
      <trkpt lat="43.7725" lon="7.13214">
        <ele>783</ele>
        <time>2018-05-03T13:49:22.000Z</time>
      </trkpt>
      <trkpt lat="43.77241" lon="7.13209">
        <ele>777</ele>
        <time>2018-05-03T13:49:25.000Z</time>
      </trkpt>
      <trkpt lat="43.77229" lon="7.13209">
        <ele>776</ele>
        <time>2018-05-03T13:49:28.000Z</time>
      </trkpt>
      <trkpt lat="43.77225" lon="7.1321">
        <ele>776</ele>
        <time>2018-05-03T13:49:29.000Z</time>
      </trkpt>
      <trkpt lat="43.77221" lon="7.1321">
        <ele>776</ele>
        <time>2018-05-03T13:49:30.000Z</time>
      </trkpt>
      <trkpt lat="43.77212" lon="7.13208">
        <ele>776</ele>
        <time>2018-05-03T13:49:32.000Z</time>
      </trkpt>
      <trkpt lat="43.77209" lon="7.13206">
        <ele>776</ele>
        <time>2018-05-03T13:49:33.000Z</time>
      </trkpt>
      <trkpt lat="43.77206" lon="7.13205">
        <ele>775</ele>
        <time>2018-05-03T13:49:34.000Z</time>
      </trkpt>
      <trkpt lat="43.77191" lon="7.13198">
        <ele>775</ele>
        <time>2018-05-03T13:49:38.000Z</time>
      </trkpt>
      <trkpt lat="43.77177" lon="7.13191">
        <ele>774</ele>
        <time>2018-05-03T13:49:41.000Z</time>
      </trkpt>
      <trkpt lat="43.7717" lon="7.1319">
        <ele>774</ele>
        <time>2018-05-03T13:49:42.000Z</time>
      </trkpt>
      <trkpt lat="43.77164" lon="7.13188">
        <ele>770</ele>
        <time>2018-05-03T13:49:43.000Z</time>
      </trkpt>
      <trkpt lat="43.77153" lon="7.13184">
        <ele>770</ele>
        <time>2018-05-03T13:49:45.000Z</time>
      </trkpt>
      <trkpt lat="43.77148" lon="7.13183">
        <ele>770</ele>
        <time>2018-05-03T13:49:46.000Z</time>
      </trkpt>
      <trkpt lat="43.77142" lon="7.13182">
        <ele>769</ele>
        <time>2018-05-03T13:49:47.000Z</time>
      </trkpt>
      <trkpt lat="43.77131" lon="7.13177">
        <ele>768</ele>
        <time>2018-05-03T13:49:49.000Z</time>
      </trkpt>
      <trkpt lat="43.77127" lon="7.13174">
        <ele>768</ele>
        <time>2018-05-03T13:49:50.000Z</time>
      </trkpt>
      <trkpt lat="43.77123" lon="7.13171">
        <ele>767</ele>
        <time>2018-05-03T13:49:51.000Z</time>
      </trkpt>
      <trkpt lat="43.77118" lon="7.13169">
        <ele>767</ele>
        <time>2018-05-03T13:49:52.000Z</time>
      </trkpt>
      <trkpt lat="43.77115" lon="7.13166">
        <ele>767</ele>
        <time>2018-05-03T13:49:53.000Z</time>
      </trkpt>
      <trkpt lat="43.77111" lon="7.13163">
        <ele>766</ele>
        <time>2018-05-03T13:49:54.000Z</time>
      </trkpt>
      <trkpt lat="43.77108" lon="7.13161">
        <ele>765</ele>
        <time>2018-05-03T13:49:55.000Z</time>
      </trkpt>
      <trkpt lat="43.77103" lon="7.13156">
        <ele>765</ele>
        <time>2018-05-03T13:49:57.000Z</time>
      </trkpt>
      <trkpt lat="43.77096" lon="7.13151">
        <ele>764</ele>
        <time>2018-05-03T13:49:59.000Z</time>
      </trkpt>
      <trkpt lat="43.77091" lon="7.13145">
        <ele>765</ele>
        <time>2018-05-03T13:50:01.000Z</time>
      </trkpt>
      <trkpt lat="43.7708" lon="7.13137">
        <ele>757</ele>
        <time>2018-05-03T13:50:04.000Z</time>
      </trkpt>
      <trkpt lat="43.77076" lon="7.13135">
        <ele>757</ele>
        <time>2018-05-03T13:50:05.000Z</time>
      </trkpt>
      <trkpt lat="43.77066" lon="7.13127">
        <ele>757</ele>
        <time>2018-05-03T13:50:07.000Z</time>
      </trkpt>
      <trkpt lat="43.77061" lon="7.13124">
        <ele>757</ele>
        <time>2018-05-03T13:50:08.000Z</time>
      </trkpt>
      <trkpt lat="43.77056" lon="7.1312">
        <ele>756</ele>
        <time>2018-05-03T13:50:09.000Z</time>
      </trkpt>
      <trkpt lat="43.7705" lon="7.13115">
        <ele>756</ele>
        <time>2018-05-03T13:50:10.000Z</time>
      </trkpt>
      <trkpt lat="43.77035" lon="7.13103">
        <ele>754</ele>
        <time>2018-05-03T13:50:13.000Z</time>
      </trkpt>
      <trkpt lat="43.77017" lon="7.13089">
        <ele>751</ele>
        <time>2018-05-03T13:50:16.000Z</time>
      </trkpt>
      <trkpt lat="43.77011" lon="7.13083">
        <ele>751</ele>
        <time>2018-05-03T13:50:17.000Z</time>
      </trkpt>
      <trkpt lat="43.77005" lon="7.13079">
        <ele>749</ele>
        <time>2018-05-03T13:50:18.000Z</time>
      </trkpt>
      <trkpt lat="43.76997" lon="7.13075">
        <ele>746</ele>
        <time>2018-05-03T13:50:19.000Z</time>
      </trkpt>
      <trkpt lat="43.76982" lon="7.13066">
        <ele>746</ele>
        <time>2018-05-03T13:50:21.000Z</time>
      </trkpt>
      <trkpt lat="43.76965" lon="7.13055">
        <ele>746</ele>
        <time>2018-05-03T13:50:24.000Z</time>
      </trkpt>
      <trkpt lat="43.76962" lon="7.13054">
        <ele>746</ele>
        <time>2018-05-03T13:50:25.000Z</time>
      </trkpt>
      <trkpt lat="43.76955" lon="7.13058">
        <ele>745</ele>
        <time>2018-05-03T13:50:27.000Z</time>
      </trkpt>
      <trkpt lat="43.76951" lon="7.13058">
        <ele>745</ele>
        <time>2018-05-03T13:50:28.000Z</time>
      </trkpt>
      <trkpt lat="43.7694" lon="7.13056">
        <ele>744</ele>
        <time>2018-05-03T13:50:30.000Z</time>
      </trkpt>
      <trkpt lat="43.76931" lon="7.13053">
        <ele>744</ele>
        <time>2018-05-03T13:50:32.000Z</time>
      </trkpt>
      <trkpt lat="43.76924" lon="7.13049">
        <ele>744</ele>
        <time>2018-05-03T13:50:34.000Z</time>
      </trkpt>
      <trkpt lat="43.76916" lon="7.13044">
        <ele>739</ele>
        <time>2018-05-03T13:50:36.000Z</time>
      </trkpt>
      <trkpt lat="43.76911" lon="7.13043">
        <ele>739</ele>
        <time>2018-05-03T13:50:37.000Z</time>
      </trkpt>
      <trkpt lat="43.76906" lon="7.13041">
        <ele>739</ele>
        <time>2018-05-03T13:50:38.000Z</time>
      </trkpt>
      <trkpt lat="43.76902" lon="7.13037">
        <ele>739</ele>
        <time>2018-05-03T13:50:39.000Z</time>
      </trkpt>
      <trkpt lat="43.76897" lon="7.13033">
        <ele>739</ele>
        <time>2018-05-03T13:50:40.000Z</time>
      </trkpt>
      <trkpt lat="43.76887" lon="7.1303">
        <ele>738</ele>
        <time>2018-05-03T13:50:42.000Z</time>
      </trkpt>
      <trkpt lat="43.76883" lon="7.13032">
        <ele>738</ele>
        <time>2018-05-03T13:50:43.000Z</time>
      </trkpt>
      <trkpt lat="43.76874" lon="7.13035">
        <ele>738</ele>
        <time>2018-05-03T13:50:45.000Z</time>
      </trkpt>
      <trkpt lat="43.76871" lon="7.13037">
        <ele>738</ele>
        <time>2018-05-03T13:50:46.000Z</time>
      </trkpt>
      <trkpt lat="43.76862" lon="7.13036">
        <ele>737</ele>
        <time>2018-05-03T13:50:49.000Z</time>
      </trkpt>
      <trkpt lat="43.76859" lon="7.13033">
        <ele>737</ele>
        <time>2018-05-03T13:50:50.000Z</time>
      </trkpt>
      <trkpt lat="43.7685" lon="7.1303">
        <ele>737</ele>
        <time>2018-05-03T13:50:53.000Z</time>
      </trkpt>
      <trkpt lat="43.76847" lon="7.13029">
        <ele>736</ele>
        <time>2018-05-03T13:50:55.000Z</time>
      </trkpt>
      <trkpt lat="43.76843" lon="7.13027">
        <ele>736</ele>
        <time>2018-05-03T13:50:56.000Z</time>
      </trkpt>
      <trkpt lat="43.76828" lon="7.13014">
        <ele>733</ele>
        <time>2018-05-03T13:51:00.000Z</time>
      </trkpt>
      <trkpt lat="43.76816" lon="7.13012">
        <ele>734</ele>
        <time>2018-05-03T13:51:03.000Z</time>
      </trkpt>
      <trkpt lat="43.76812" lon="7.13011">
        <ele>734</ele>
        <time>2018-05-03T13:51:04.000Z</time>
      </trkpt>
      <trkpt lat="43.76808" lon="7.13011">
        <ele>734</ele>
        <time>2018-05-03T13:51:05.000Z</time>
      </trkpt>
      <trkpt lat="43.76791" lon="7.13004">
        <ele>733</ele>
        <time>2018-05-03T13:51:09.000Z</time>
      </trkpt>
      <trkpt lat="43.76782" lon="7.13">
        <ele>729</ele>
        <time>2018-05-03T13:51:11.000Z</time>
      </trkpt>
      <trkpt lat="43.76776" lon="7.12993">
        <ele>728</ele>
        <time>2018-05-03T13:51:13.000Z</time>
      </trkpt>
      <trkpt lat="43.76772" lon="7.12988">
        <ele>728</ele>
        <time>2018-05-03T13:51:14.000Z</time>
      </trkpt>
      <trkpt lat="43.76768" lon="7.12984">
        <ele>728</ele>
        <time>2018-05-03T13:51:15.000Z</time>
      </trkpt>
      <trkpt lat="43.7676" lon="7.12977">
        <ele>728</ele>
        <time>2018-05-03T13:51:17.000Z</time>
      </trkpt>
      <trkpt lat="43.76752" lon="7.12972">
        <ele>728</ele>
        <time>2018-05-03T13:51:19.000Z</time>
      </trkpt>
      <trkpt lat="43.76751" lon="7.12972">
        <ele>728</ele>
        <time>2018-05-03T13:51:21.000Z</time>
      </trkpt>
      <trkpt lat="43.76747" lon="7.12971">
        <ele>724</ele>
        <time>2018-05-03T13:51:26.000Z</time>
      </trkpt>
      <trkpt lat="43.76745" lon="7.12971">
        <ele>724</ele>
        <time>2018-05-03T13:51:28.000Z</time>
      </trkpt>
      <trkpt lat="43.76743" lon="7.12973">
        <ele>724</ele>
        <time>2018-05-03T13:51:34.000Z</time>
      </trkpt>
      <trkpt lat="43.76742" lon="7.12972">
        <ele>724</ele>
        <time>2018-05-03T13:51:45.000Z</time>
      </trkpt>
      <trkpt lat="43.76741" lon="7.12973">
        <ele>724</ele>
        <time>2018-05-03T13:51:58.000Z</time>
      </trkpt>
      <trkpt lat="43.76738" lon="7.12973">
        <ele>724</ele>
        <time>2018-05-03T13:52:22.000Z</time>
      </trkpt>
      <trkpt lat="43.76736" lon="7.12972">
        <ele>724</ele>
        <time>2018-05-03T13:52:28.000Z</time>
      </trkpt>
      <trkpt lat="43.76733" lon="7.12972">
        <ele>724</ele>
        <time>2018-05-03T13:52:36.000Z</time>
      </trkpt>
      <trkpt lat="43.76732" lon="7.12971">
        <ele>724</ele>
        <time>2018-05-03T13:52:41.000Z</time>
      </trkpt>
      <trkpt lat="43.76731" lon="7.1297">
        <ele>724</ele>
        <time>2018-05-03T13:52:42.000Z</time>
      </trkpt>
      <trkpt lat="43.76725" lon="7.12965">
        <ele>724</ele>
        <time>2018-05-03T13:52:49.000Z</time>
      </trkpt>
      <trkpt lat="43.76721" lon="7.12957">
        <ele>724</ele>
        <time>2018-05-03T13:52:53.000Z</time>
      </trkpt>
      <trkpt lat="43.76718" lon="7.12956">
        <ele>724</ele>
        <time>2018-05-03T13:52:54.000Z</time>
      </trkpt>
      <trkpt lat="43.76714" lon="7.12954">
        <ele>724</ele>
        <time>2018-05-03T13:52:56.000Z</time>
      </trkpt>
      <trkpt lat="43.76708" lon="7.12951">
        <ele>724</ele>
        <time>2018-05-03T13:52:58.000Z</time>
      </trkpt>
      <trkpt lat="43.76696" lon="7.12937">
        <ele>722</ele>
        <time>2018-05-03T13:53:02.000Z</time>
      </trkpt>
      <trkpt lat="43.76692" lon="7.12934">
        <ele>722</ele>
        <time>2018-05-03T13:53:03.000Z</time>
      </trkpt>
      <trkpt lat="43.76686" lon="7.12924">
        <ele>721</ele>
        <time>2018-05-03T13:53:06.000Z</time>
      </trkpt>
      <trkpt lat="43.76685" lon="7.1292">
        <ele>720</ele>
        <time>2018-05-03T13:53:07.000Z</time>
      </trkpt>
      <trkpt lat="43.76682" lon="7.12914">
        <ele>720</ele>
        <time>2018-05-03T13:53:09.000Z</time>
      </trkpt>
      <trkpt lat="43.7668" lon="7.12913">
        <ele>720</ele>
        <time>2018-05-03T13:53:10.000Z</time>
      </trkpt>
      <trkpt lat="43.76675" lon="7.12908">
        <ele>719</ele>
        <time>2018-05-03T13:53:12.000Z</time>
      </trkpt>
      <trkpt lat="43.76671" lon="7.12902">
        <ele>720</ele>
        <time>2018-05-03T13:53:14.000Z</time>
      </trkpt>
      <trkpt lat="43.76666" lon="7.12897">
        <ele>716</ele>
        <time>2018-05-03T13:53:16.000Z</time>
      </trkpt>
      <trkpt lat="43.7666" lon="7.12889">
        <ele>716</ele>
        <time>2018-05-03T13:53:18.000Z</time>
      </trkpt>
      <trkpt lat="43.76652" lon="7.1288">
        <ele>716</ele>
        <time>2018-05-03T13:53:20.000Z</time>
      </trkpt>
      <trkpt lat="43.76648" lon="7.12875">
        <ele>716</ele>
        <time>2018-05-03T13:53:21.000Z</time>
      </trkpt>
      <trkpt lat="43.76644" lon="7.12869">
        <ele>716</ele>
        <time>2018-05-03T13:53:22.000Z</time>
      </trkpt>
      <trkpt lat="43.76634" lon="7.12862">
        <ele>716</ele>
        <time>2018-05-03T13:53:24.000Z</time>
      </trkpt>
      <trkpt lat="43.7663" lon="7.12861">
        <ele>716</ele>
        <time>2018-05-03T13:53:25.000Z</time>
      </trkpt>
      <trkpt lat="43.76625" lon="7.12858">
        <ele>715</ele>
        <time>2018-05-03T13:53:26.000Z</time>
      </trkpt>
      <trkpt lat="43.76615" lon="7.12855">
        <ele>714</ele>
        <time>2018-05-03T13:53:28.000Z</time>
      </trkpt>
      <trkpt lat="43.76606" lon="7.12852">
        <ele>713</ele>
        <time>2018-05-03T13:53:30.000Z</time>
      </trkpt>
      <trkpt lat="43.76602" lon="7.1285">
        <ele>713</ele>
        <time>2018-05-03T13:53:31.000Z</time>
      </trkpt>
      <trkpt lat="43.76597" lon="7.12847">
        <ele>712</ele>
        <time>2018-05-03T13:53:32.000Z</time>
      </trkpt>
      <trkpt lat="43.76587" lon="7.12843">
        <ele>710</ele>
        <time>2018-05-03T13:53:34.000Z</time>
      </trkpt>
      <trkpt lat="43.76582" lon="7.12842">
        <ele>708</ele>
        <time>2018-05-03T13:53:35.000Z</time>
      </trkpt>
      <trkpt lat="43.76569" lon="7.12838">
        <ele>709</ele>
        <time>2018-05-03T13:53:38.000Z</time>
      </trkpt>
      <trkpt lat="43.76565" lon="7.12837">
        <ele>709</ele>
        <time>2018-05-03T13:53:39.000Z</time>
      </trkpt>
      <trkpt lat="43.76553" lon="7.12834">
        <ele>709</ele>
        <time>2018-05-03T13:53:42.000Z</time>
      </trkpt>
      <trkpt lat="43.76546" lon="7.1283">
        <ele>705</ele>
        <time>2018-05-03T13:53:44.000Z</time>
      </trkpt>
      <trkpt lat="43.76537" lon="7.12825">
        <ele>705</ele>
        <time>2018-05-03T13:53:48.000Z</time>
      </trkpt>
      <trkpt lat="43.76534" lon="7.12822">
        <ele>705</ele>
        <time>2018-05-03T13:53:49.000Z</time>
      </trkpt>
      <trkpt lat="43.76528" lon="7.12818">
        <ele>704</ele>
        <time>2018-05-03T13:53:51.000Z</time>
      </trkpt>
      <trkpt lat="43.76523" lon="7.12814">
        <ele>704</ele>
        <time>2018-05-03T13:53:53.000Z</time>
      </trkpt>
      <trkpt lat="43.7652" lon="7.12812">
        <ele>704</ele>
        <time>2018-05-03T13:53:54.000Z</time>
      </trkpt>
      <trkpt lat="43.76518" lon="7.1281">
        <ele>704</ele>
        <time>2018-05-03T13:53:55.000Z</time>
      </trkpt>
      <trkpt lat="43.76514" lon="7.12807">
        <ele>704</ele>
        <time>2018-05-03T13:53:57.000Z</time>
      </trkpt>
      <trkpt lat="43.76513" lon="7.12806">
        <ele>703</ele>
        <time>2018-05-03T13:53:58.000Z</time>
      </trkpt>
      <trkpt lat="43.76511" lon="7.12806">
        <ele>703</ele>
        <time>2018-05-03T13:53:59.000Z</time>
      </trkpt>
      <trkpt lat="43.76503" lon="7.128">
        <ele>703</ele>
        <time>2018-05-03T13:54:03.000Z</time>
      </trkpt>
      <trkpt lat="43.76492" lon="7.12792">
        <ele>696</ele>
        <time>2018-05-03T13:54:07.000Z</time>
      </trkpt>
      <trkpt lat="43.7649" lon="7.1279">
        <ele>696</ele>
        <time>2018-05-03T13:54:08.000Z</time>
      </trkpt>
      <trkpt lat="43.76487" lon="7.12786">
        <ele>696</ele>
        <time>2018-05-03T13:54:10.000Z</time>
      </trkpt>
      <trkpt lat="43.76485" lon="7.12784">
        <ele>696</ele>
        <time>2018-05-03T13:54:11.000Z</time>
      </trkpt>
      <trkpt lat="43.76478" lon="7.12777">
        <ele>695</ele>
        <time>2018-05-03T13:54:14.000Z</time>
      </trkpt>
      <trkpt lat="43.76472" lon="7.12772">
        <ele>695</ele>
        <time>2018-05-03T13:54:16.000Z</time>
      </trkpt>
      <trkpt lat="43.76467" lon="7.12766">
        <ele>694</ele>
        <time>2018-05-03T13:54:18.000Z</time>
      </trkpt>
      <trkpt lat="43.76464" lon="7.12764">
        <ele>694</ele>
        <time>2018-05-03T13:54:19.000Z</time>
      </trkpt>
      <trkpt lat="43.76462" lon="7.12763">
        <ele>694</ele>
        <time>2018-05-03T13:54:20.000Z</time>
      </trkpt>
      <trkpt lat="43.76459" lon="7.12756">
        <ele>693</ele>
        <time>2018-05-03T13:54:22.000Z</time>
      </trkpt>
      <trkpt lat="43.76457" lon="7.12754">
        <ele>693</ele>
        <time>2018-05-03T13:54:23.000Z</time>
      </trkpt>
      <trkpt lat="43.76454" lon="7.12754">
        <ele>693</ele>
        <time>2018-05-03T13:54:24.000Z</time>
      </trkpt>
      <trkpt lat="43.76446" lon="7.12749">
        <ele>690</ele>
        <time>2018-05-03T13:54:26.000Z</time>
      </trkpt>
      <trkpt lat="43.76442" lon="7.12747">
        <ele>690</ele>
        <time>2018-05-03T13:54:27.000Z</time>
      </trkpt>
      <trkpt lat="43.76427" lon="7.12738">
        <ele>688</ele>
        <time>2018-05-03T13:54:30.000Z</time>
      </trkpt>
      <trkpt lat="43.76417" lon="7.1273">
        <ele>688</ele>
        <time>2018-05-03T13:54:32.000Z</time>
      </trkpt>
      <trkpt lat="43.76408" lon="7.12722">
        <ele>679</ele>
        <time>2018-05-03T13:54:34.000Z</time>
      </trkpt>
      <trkpt lat="43.76404" lon="7.12718">
        <ele>679</ele>
        <time>2018-05-03T13:54:35.000Z</time>
      </trkpt>
      <trkpt lat="43.76401" lon="7.12715">
        <ele>678</ele>
        <time>2018-05-03T13:54:36.000Z</time>
      </trkpt>
      <trkpt lat="43.76397" lon="7.1271">
        <ele>678</ele>
        <time>2018-05-03T13:54:37.000Z</time>
      </trkpt>
      <trkpt lat="43.76391" lon="7.12702">
        <ele>677</ele>
        <time>2018-05-03T13:54:39.000Z</time>
      </trkpt>
      <trkpt lat="43.76385" lon="7.12697">
        <ele>677</ele>
        <time>2018-05-03T13:54:41.000Z</time>
      </trkpt>
      <trkpt lat="43.7638" lon="7.12696">
        <ele>676</ele>
        <time>2018-05-03T13:54:42.000Z</time>
      </trkpt>
      <trkpt lat="43.76378" lon="7.12694">
        <ele>676</ele>
        <time>2018-05-03T13:54:43.000Z</time>
      </trkpt>
      <trkpt lat="43.76377" lon="7.12694">
        <ele>676</ele>
        <time>2018-05-03T13:54:45.000Z</time>
      </trkpt>
      <trkpt lat="43.76377" lon="7.12693">
        <ele>676</ele>
        <time>2018-05-03T13:54:46.000Z</time>
      </trkpt>
      <trkpt lat="43.76377" lon="7.12693">
        <ele>676</ele>
        <time>2018-05-03T13:54:47.000Z</time>
      </trkpt>
      <trkpt lat="43.76375" lon="7.12692">
        <ele>675</ele>
        <time>2018-05-03T13:54:54.000Z</time>
      </trkpt>
      <trkpt lat="43.76374" lon="7.12692">
        <ele>675</ele>
        <time>2018-05-03T13:55:03.000Z</time>
      </trkpt>
      <trkpt lat="43.76374" lon="7.12692">
        <ele>675</ele>
        <time>2018-05-03T13:55:21.000Z</time>
      </trkpt>
      <trkpt lat="43.76367" lon="7.1269">
        <ele>674</ele>
        <time>2018-05-03T13:55:28.000Z</time>
      </trkpt>
      <trkpt lat="43.76355" lon="7.12683">
        <ele>671</ele>
        <time>2018-05-03T13:55:32.000Z</time>
      </trkpt>
      <trkpt lat="43.76353" lon="7.12681">
        <ele>670</ele>
        <time>2018-05-03T13:55:33.000Z</time>
      </trkpt>
      <trkpt lat="43.7635" lon="7.12678">
        <ele>669</ele>
        <time>2018-05-03T13:55:34.000Z</time>
      </trkpt>
      <trkpt lat="43.76344" lon="7.12675">
        <ele>667</ele>
        <time>2018-05-03T13:55:36.000Z</time>
      </trkpt>
      <trkpt lat="43.76341" lon="7.12673">
        <ele>666</ele>
        <time>2018-05-03T13:55:37.000Z</time>
      </trkpt>
      <trkpt lat="43.76337" lon="7.1267">
        <ele>663</ele>
        <time>2018-05-03T13:55:38.000Z</time>
      </trkpt>
      <trkpt lat="43.76335" lon="7.12669">
        <ele>662</ele>
        <time>2018-05-03T13:55:40.000Z</time>
      </trkpt>
      <trkpt lat="43.76334" lon="7.12668">
        <ele>661</ele>
        <time>2018-05-03T13:55:41.000Z</time>
      </trkpt>
      <trkpt lat="43.76333" lon="7.12668">
        <ele>660</ele>
        <time>2018-05-03T13:55:42.000Z</time>
      </trkpt>
      <trkpt lat="43.76327" lon="7.12666">
        <ele>659</ele>
        <time>2018-05-03T13:55:48.000Z</time>
      </trkpt>
      <trkpt lat="43.76324" lon="7.12666">
        <ele>659</ele>
        <time>2018-05-03T13:55:49.000Z</time>
      </trkpt>
      <trkpt lat="43.76313" lon="7.1266">
        <ele>657</ele>
        <time>2018-05-03T13:55:53.000Z</time>
      </trkpt>
      <trkpt lat="43.76306" lon="7.12658">
        <ele>656</ele>
        <time>2018-05-03T13:55:55.000Z</time>
      </trkpt>
      <trkpt lat="43.76299" lon="7.12657">
        <ele>655</ele>
        <time>2018-05-03T13:55:57.000Z</time>
      </trkpt>
      <trkpt lat="43.76295" lon="7.12655">
        <ele>654</ele>
        <time>2018-05-03T13:55:58.000Z</time>
      </trkpt>
      <trkpt lat="43.76287" lon="7.1265">
        <ele>653</ele>
        <time>2018-05-03T13:56:00.000Z</time>
      </trkpt>
      <trkpt lat="43.76284" lon="7.12649">
        <ele>653</ele>
        <time>2018-05-03T13:56:01.000Z</time>
      </trkpt>
      <trkpt lat="43.7628" lon="7.12649">
        <ele>652</ele>
        <time>2018-05-03T13:56:02.000Z</time>
      </trkpt>
      <trkpt lat="43.76277" lon="7.12648">
        <ele>651</ele>
        <time>2018-05-03T13:56:03.000Z</time>
      </trkpt>
      <trkpt lat="43.76274" lon="7.12646">
        <ele>651</ele>
        <time>2018-05-03T13:56:04.000Z</time>
      </trkpt>
      <trkpt lat="43.76272" lon="7.12646">
        <ele>650</ele>
        <time>2018-05-03T13:56:05.000Z</time>
      </trkpt>
      <trkpt lat="43.76269" lon="7.12647">
        <ele>650</ele>
        <time>2018-05-03T13:56:06.000Z</time>
      </trkpt>
      <trkpt lat="43.76266" lon="7.1265">
        <ele>649</ele>
        <time>2018-05-03T13:56:08.000Z</time>
      </trkpt>
      <trkpt lat="43.76265" lon="7.1265">
        <ele>648</ele>
        <time>2018-05-03T13:56:10.000Z</time>
      </trkpt>
      <trkpt lat="43.76265" lon="7.12651">
        <ele>648</ele>
        <time>2018-05-03T13:56:12.000Z</time>
      </trkpt>
      <trkpt lat="43.76265" lon="7.12652">
        <ele>648</ele>
        <time>2018-05-03T13:56:16.000Z</time>
      </trkpt>
      <trkpt lat="43.76261" lon="7.12649">
        <ele>648</ele>
        <time>2018-05-03T13:56:24.000Z</time>
      </trkpt>
      <trkpt lat="43.76259" lon="7.12647">
        <ele>648</ele>
        <time>2018-05-03T13:56:28.000Z</time>
      </trkpt>
      <trkpt lat="43.76258" lon="7.12646">
        <ele>648</ele>
        <time>2018-05-03T13:56:29.000Z</time>
      </trkpt>
      <trkpt lat="43.76255" lon="7.12646">
        <ele>648</ele>
        <time>2018-05-03T13:56:32.000Z</time>
      </trkpt>
      <trkpt lat="43.76253" lon="7.12646">
        <ele>647</ele>
        <time>2018-05-03T13:56:33.000Z</time>
      </trkpt>
      <trkpt lat="43.76244" lon="7.12643">
        <ele>632</ele>
        <time>2018-05-03T13:56:37.000Z</time>
      </trkpt>
      <trkpt lat="43.76242" lon="7.12642">
        <ele>632</ele>
        <time>2018-05-03T13:56:38.000Z</time>
      </trkpt>
      <trkpt lat="43.76239" lon="7.12641">
        <ele>632</ele>
        <time>2018-05-03T13:56:39.000Z</time>
      </trkpt>
      <trkpt lat="43.76232" lon="7.12638">
        <ele>631</ele>
        <time>2018-05-03T13:56:41.000Z</time>
      </trkpt>
      <trkpt lat="43.76229" lon="7.12638">
        <ele>630</ele>
        <time>2018-05-03T13:56:42.000Z</time>
      </trkpt>
      <trkpt lat="43.76223" lon="7.12638">
        <ele>629</ele>
        <time>2018-05-03T13:56:44.000Z</time>
      </trkpt>
      <trkpt lat="43.76221" lon="7.12637">
        <ele>629</ele>
        <time>2018-05-03T13:56:45.000Z</time>
      </trkpt>
      <trkpt lat="43.76215" lon="7.12635">
        <ele>628</ele>
        <time>2018-05-03T13:56:47.000Z</time>
      </trkpt>
      <trkpt lat="43.76212" lon="7.12634">
        <ele>627</ele>
        <time>2018-05-03T13:56:48.000Z</time>
      </trkpt>
      <trkpt lat="43.76207" lon="7.12633">
        <ele>626</ele>
        <time>2018-05-03T13:56:51.000Z</time>
      </trkpt>
      <trkpt lat="43.76206" lon="7.12634">
        <ele>626</ele>
        <time>2018-05-03T13:56:52.000Z</time>
      </trkpt>
      <trkpt lat="43.76205" lon="7.12635">
        <ele>626</ele>
        <time>2018-05-03T13:56:53.000Z</time>
      </trkpt>
      <trkpt lat="43.762" lon="7.12636">
        <ele>625</ele>
        <time>2018-05-03T13:56:56.000Z</time>
      </trkpt>
      <trkpt lat="43.76198" lon="7.12635">
        <ele>625</ele>
        <time>2018-05-03T13:56:57.000Z</time>
      </trkpt>
      <trkpt lat="43.76197" lon="7.12636">
        <ele>625</ele>
        <time>2018-05-03T13:57:01.000Z</time>
      </trkpt>
      <trkpt lat="43.76195" lon="7.12637">
        <ele>624</ele>
        <time>2018-05-03T13:57:06.000Z</time>
      </trkpt>
      <trkpt lat="43.76195" lon="7.12637">
        <ele>624</ele>
        <time>2018-05-03T13:57:07.000Z</time>
      </trkpt>
      <trkpt lat="43.76194" lon="7.12638">
        <ele>624</ele>
        <time>2018-05-03T13:57:12.000Z</time>
      </trkpt>
      <trkpt lat="43.76193" lon="7.12638">
        <ele>624</ele>
        <time>2018-05-03T13:57:13.000Z</time>
      </trkpt>
      <trkpt lat="43.76192" lon="7.12637">
        <ele>624</ele>
        <time>2018-05-03T13:57:15.000Z</time>
      </trkpt>
      <trkpt lat="43.7619" lon="7.12634">
        <ele>623</ele>
        <time>2018-05-03T13:57:17.000Z</time>
      </trkpt>
      <trkpt lat="43.76188" lon="7.12633">
        <ele>623</ele>
        <time>2018-05-03T13:57:18.000Z</time>
      </trkpt>
      <trkpt lat="43.76187" lon="7.12633">
        <ele>623</ele>
        <time>2018-05-03T13:57:19.000Z</time>
      </trkpt>
      <trkpt lat="43.76187" lon="7.12633">
        <ele>623</ele>
        <time>2018-05-03T13:57:21.000Z</time>
      </trkpt>
      <trkpt lat="43.76186" lon="7.12633">
        <ele>623</ele>
        <time>2018-05-03T13:57:22.000Z</time>
      </trkpt>
      <trkpt lat="43.76186" lon="7.12634">
        <ele>623</ele>
        <time>2018-05-03T13:57:27.000Z</time>
      </trkpt>
      <trkpt lat="43.76183" lon="7.12631">
        <ele>623</ele>
        <time>2018-05-03T13:57:33.000Z</time>
      </trkpt>
      <trkpt lat="43.76183" lon="7.12631">
        <ele>623</ele>
        <time>2018-05-03T13:57:36.000Z</time>
      </trkpt>
      <trkpt lat="43.76184" lon="7.12631">
        <ele>623</ele>
        <time>2018-05-03T13:57:41.000Z</time>
      </trkpt>
      <trkpt lat="43.76179" lon="7.12631">
        <ele>622</ele>
        <time>2018-05-03T13:57:47.000Z</time>
      </trkpt>
      <trkpt lat="43.76176" lon="7.12631">
        <ele>622</ele>
        <time>2018-05-03T13:57:49.000Z</time>
      </trkpt>
      <trkpt lat="43.76172" lon="7.12631">
        <ele>621</ele>
        <time>2018-05-03T13:57:52.000Z</time>
      </trkpt>
      <trkpt lat="43.76171" lon="7.12631">
        <ele>621</ele>
        <time>2018-05-03T13:57:53.000Z</time>
      </trkpt>
      <trkpt lat="43.76169" lon="7.12628">
        <ele>621</ele>
        <time>2018-05-03T13:57:55.000Z</time>
      </trkpt>
      <trkpt lat="43.76168" lon="7.12624">
        <ele>621</ele>
        <time>2018-05-03T13:57:57.000Z</time>
      </trkpt>
      <trkpt lat="43.76168" lon="7.12622">
        <ele>621</ele>
        <time>2018-05-03T13:57:58.000Z</time>
      </trkpt>
      <trkpt lat="43.76168" lon="7.12617">
        <ele>621</ele>
        <time>2018-05-03T13:58:00.000Z</time>
      </trkpt>
      <trkpt lat="43.76164" lon="7.12614">
        <ele>603</ele>
        <time>2018-05-03T13:58:02.000Z</time>
      </trkpt>
      <trkpt lat="43.76159" lon="7.12613">
        <ele>602</ele>
        <time>2018-05-03T13:58:04.000Z</time>
      </trkpt>
      <trkpt lat="43.76152" lon="7.12615">
        <ele>601</ele>
        <time>2018-05-03T13:58:06.000Z</time>
      </trkpt>
      <trkpt lat="43.76149" lon="7.12613">
        <ele>601</ele>
        <time>2018-05-03T13:58:08.000Z</time>
      </trkpt>
      <trkpt lat="43.76147" lon="7.12613">
        <ele>600</ele>
        <time>2018-05-03T13:58:09.000Z</time>
      </trkpt>
      <trkpt lat="43.76144" lon="7.12612">
        <ele>600</ele>
        <time>2018-05-03T13:58:10.000Z</time>
      </trkpt>
      <trkpt lat="43.76139" lon="7.12611">
        <ele>599</ele>
        <time>2018-05-03T13:58:12.000Z</time>
      </trkpt>
      <trkpt lat="43.76133" lon="7.12609">
        <ele>598</ele>
        <time>2018-05-03T13:58:14.000Z</time>
      </trkpt>
      <trkpt lat="43.76132" lon="7.1261">
        <ele>598</ele>
        <time>2018-05-03T13:58:15.000Z</time>
      </trkpt>
      <trkpt lat="43.7613" lon="7.12613">
        <ele>597</ele>
        <time>2018-05-03T13:58:16.000Z</time>
      </trkpt>
      <trkpt lat="43.76129" lon="7.12615">
        <ele>597</ele>
        <time>2018-05-03T13:58:17.000Z</time>
      </trkpt>
      <trkpt lat="43.76127" lon="7.12617">
        <ele>597</ele>
        <time>2018-05-03T13:58:18.000Z</time>
      </trkpt>
      <trkpt lat="43.76118" lon="7.12617">
        <ele>595</ele>
        <time>2018-05-03T13:58:21.000Z</time>
      </trkpt>
      <trkpt lat="43.76116" lon="7.12618">
        <ele>594</ele>
        <time>2018-05-03T13:58:23.000Z</time>
      </trkpt>
      <trkpt lat="43.76115" lon="7.12618">
        <ele>594</ele>
        <time>2018-05-03T13:58:25.000Z</time>
      </trkpt>
      <trkpt lat="43.76115" lon="7.12618">
        <ele>594</ele>
        <time>2018-05-03T13:58:28.000Z</time>
      </trkpt>
      <trkpt lat="43.76114" lon="7.12619">
        <ele>594</ele>
        <time>2018-05-03T13:58:32.000Z</time>
      </trkpt>
      <trkpt lat="43.76112" lon="7.12621">
        <ele>594</ele>
        <time>2018-05-03T13:58:37.000Z</time>
      </trkpt>
      <trkpt lat="43.76112" lon="7.12622">
        <ele>594</ele>
        <time>2018-05-03T13:58:38.000Z</time>
      </trkpt>
      <trkpt lat="43.76113" lon="7.12626">
        <ele>594</ele>
        <time>2018-05-03T13:58:41.000Z</time>
      </trkpt>
      <trkpt lat="43.76113" lon="7.12628">
        <ele>594</ele>
        <time>2018-05-03T13:58:42.000Z</time>
      </trkpt>
      <trkpt lat="43.76114" lon="7.12629">
        <ele>594</ele>
        <time>2018-05-03T13:58:47.000Z</time>
      </trkpt>
      <trkpt lat="43.76117" lon="7.12632">
        <ele>594</ele>
        <time>2018-05-03T13:58:54.000Z</time>
      </trkpt>
      <trkpt lat="43.76117" lon="7.12633">
        <ele>594</ele>
        <time>2018-05-03T13:58:55.000Z</time>
      </trkpt>
      <trkpt lat="43.76118" lon="7.12639">
        <ele>594</ele>
        <time>2018-05-03T13:58:57.000Z</time>
      </trkpt>
      <trkpt lat="43.76118" lon="7.12656">
        <ele>593</ele>
        <time>2018-05-03T13:59:01.000Z</time>
      </trkpt>
      <trkpt lat="43.76117" lon="7.12665">
        <ele>593</ele>
        <time>2018-05-03T13:59:03.000Z</time>
      </trkpt>
      <trkpt lat="43.76116" lon="7.12675">
        <ele>596</ele>
        <time>2018-05-03T13:59:05.000Z</time>
      </trkpt>
      <trkpt lat="43.76114" lon="7.12679">
        <ele>596</ele>
        <time>2018-05-03T13:59:06.000Z</time>
      </trkpt>
      <trkpt lat="43.76109" lon="7.12688">
        <ele>596</ele>
        <time>2018-05-03T13:59:08.000Z</time>
      </trkpt>
      <trkpt lat="43.76108" lon="7.12698">
        <ele>597</ele>
        <time>2018-05-03T13:59:10.000Z</time>
      </trkpt>
      <trkpt lat="43.76109" lon="7.12702">
        <ele>598</ele>
        <time>2018-05-03T13:59:11.000Z</time>
      </trkpt>
      <trkpt lat="43.76109" lon="7.12707">
        <ele>598</ele>
        <time>2018-05-03T13:59:12.000Z</time>
      </trkpt>
      <trkpt lat="43.76102" lon="7.12713">
        <ele>598</ele>
        <time>2018-05-03T13:59:14.000Z</time>
      </trkpt>
      <trkpt lat="43.76098" lon="7.12715">
        <ele>597</ele>
        <time>2018-05-03T13:59:15.000Z</time>
      </trkpt>
      <trkpt lat="43.76083" lon="7.12722">
        <ele>577</ele>
        <time>2018-05-03T13:59:18.000Z</time>
      </trkpt>
      <trkpt lat="43.76075" lon="7.12729">
        <ele>578</ele>
        <time>2018-05-03T13:59:20.000Z</time>
      </trkpt>
      <trkpt lat="43.76071" lon="7.12731">
        <ele>578</ele>
        <time>2018-05-03T13:59:22.000Z</time>
      </trkpt>
      <trkpt lat="43.76068" lon="7.12728">
        <ele>577</ele>
        <time>2018-05-03T13:59:24.000Z</time>
      </trkpt>
      <trkpt lat="43.76063" lon="7.1273">
        <ele>576</ele>
        <time>2018-05-03T13:59:26.000Z</time>
      </trkpt>
      <trkpt lat="43.76054" lon="7.12735">
        <ele>574</ele>
        <time>2018-05-03T13:59:29.000Z</time>
      </trkpt>
      <trkpt lat="43.7605" lon="7.12736">
        <ele>574</ele>
        <time>2018-05-03T13:59:30.000Z</time>
      </trkpt>
      <trkpt lat="43.76047" lon="7.12738">
        <ele>573</ele>
        <time>2018-05-03T13:59:31.000Z</time>
      </trkpt>
      <trkpt lat="43.7604" lon="7.12741">
        <ele>572</ele>
        <time>2018-05-03T13:59:33.000Z</time>
      </trkpt>
      <trkpt lat="43.76038" lon="7.12737">
        <ele>571</ele>
        <time>2018-05-03T13:59:35.000Z</time>
      </trkpt>
      <trkpt lat="43.76039" lon="7.12735">
        <ele>571</ele>
        <time>2018-05-03T13:59:36.000Z</time>
      </trkpt>
      <trkpt lat="43.76042" lon="7.12731">
        <ele>571</ele>
        <time>2018-05-03T13:59:38.000Z</time>
      </trkpt>
      <trkpt lat="43.76043" lon="7.12727">
        <ele>571</ele>
        <time>2018-05-03T13:59:39.000Z</time>
      </trkpt>
      <trkpt lat="43.76046" lon="7.12723">
        <ele>571</ele>
        <time>2018-05-03T13:59:41.000Z</time>
      </trkpt>
      <trkpt lat="43.76046" lon="7.1272">
        <ele>571</ele>
        <time>2018-05-03T13:59:43.000Z</time>
      </trkpt>
      <trkpt lat="43.76045" lon="7.1272">
        <ele>571</ele>
        <time>2018-05-03T13:59:44.000Z</time>
      </trkpt>
      <trkpt lat="43.76041" lon="7.1272">
        <ele>570</ele>
        <time>2018-05-03T13:59:46.000Z</time>
      </trkpt>
      <trkpt lat="43.76037" lon="7.12718">
        <ele>569</ele>
        <time>2018-05-03T13:59:48.000Z</time>
      </trkpt>
      <trkpt lat="43.76036" lon="7.12715">
        <ele>569</ele>
        <time>2018-05-03T13:59:49.000Z</time>
      </trkpt>
      <trkpt lat="43.76038" lon="7.12706">
        <ele>568</ele>
        <time>2018-05-03T13:59:51.000Z</time>
      </trkpt>
      <trkpt lat="43.76039" lon="7.12702">
        <ele>568</ele>
        <time>2018-05-03T13:59:52.000Z</time>
      </trkpt>
      <trkpt lat="43.7604" lon="7.12696">
        <ele>567</ele>
        <time>2018-05-03T13:59:54.000Z</time>
      </trkpt>
      <trkpt lat="43.76039" lon="7.12693">
        <ele>567</ele>
        <time>2018-05-03T13:59:55.000Z</time>
      </trkpt>
      <trkpt lat="43.76037" lon="7.12691">
        <ele>566</ele>
        <time>2018-05-03T13:59:56.000Z</time>
      </trkpt>
      <trkpt lat="43.76032" lon="7.12694">
        <ele>565</ele>
        <time>2018-05-03T13:59:58.000Z</time>
      </trkpt>
      <trkpt lat="43.76026" lon="7.127">
        <ele>565</ele>
        <time>2018-05-03T14:00:00.000Z</time>
      </trkpt>
      <trkpt lat="43.76024" lon="7.12702">
        <ele>565</ele>
        <time>2018-05-03T14:00:01.000Z</time>
      </trkpt>
      <trkpt lat="43.76021" lon="7.12698">
        <ele>564</ele>
        <time>2018-05-03T14:00:03.000Z</time>
      </trkpt>
      <trkpt lat="43.76023" lon="7.1269">
        <ele>562</ele>
        <time>2018-05-03T14:00:06.000Z</time>
      </trkpt>
      <trkpt lat="43.76021" lon="7.1269">
        <ele>562</ele>
        <time>2018-05-03T14:00:07.000Z</time>
      </trkpt>
      <trkpt lat="43.76019" lon="7.12692">
        <ele>562</ele>
        <time>2018-05-03T14:00:08.000Z</time>
      </trkpt>
      <trkpt lat="43.76011" lon="7.12694">
        <ele>561</ele>
        <time>2018-05-03T14:00:10.000Z</time>
      </trkpt>
      <trkpt lat="43.76006" lon="7.12695">
        <ele>561</ele>
        <time>2018-05-03T14:00:11.000Z</time>
      </trkpt>
      <trkpt lat="43.76" lon="7.12699">
        <ele>545</ele>
        <time>2018-05-03T14:00:13.000Z</time>
      </trkpt>
      <trkpt lat="43.75996" lon="7.127">
        <ele>545</ele>
        <time>2018-05-03T14:00:14.000Z</time>
      </trkpt>
      <trkpt lat="43.75997" lon="7.12701">
        <ele>545</ele>
        <time>2018-05-03T14:00:15.000Z</time>
      </trkpt>
      <trkpt lat="43.75995" lon="7.12699">
        <ele>544</ele>
        <time>2018-05-03T14:00:16.000Z</time>
      </trkpt>
      <trkpt lat="43.75995" lon="7.12697">
        <ele>544</ele>
        <time>2018-05-03T14:00:17.000Z</time>
      </trkpt>
      <trkpt lat="43.75996" lon="7.12695">
        <ele>544</ele>
        <time>2018-05-03T14:00:18.000Z</time>
      </trkpt>
      <trkpt lat="43.75998" lon="7.12691">
        <ele>544</ele>
        <time>2018-05-03T14:00:19.000Z</time>
      </trkpt>
      <trkpt lat="43.75999" lon="7.12688">
        <ele>543</ele>
        <time>2018-05-03T14:00:20.000Z</time>
      </trkpt>
      <trkpt lat="43.75995" lon="7.12687">
        <ele>543</ele>
        <time>2018-05-03T14:00:22.000Z</time>
      </trkpt>
      <trkpt lat="43.75991" lon="7.12692">
        <ele>543</ele>
        <time>2018-05-03T14:00:24.000Z</time>
      </trkpt>
      <trkpt lat="43.75988" lon="7.12695">
        <ele>543</ele>
        <time>2018-05-03T14:00:26.000Z</time>
      </trkpt>
      <trkpt lat="43.75987" lon="7.12695">
        <ele>543</ele>
        <time>2018-05-03T14:00:27.000Z</time>
      </trkpt>
      <trkpt lat="43.75987" lon="7.12695">
        <ele>543</ele>
        <time>2018-05-03T14:00:29.000Z</time>
      </trkpt>
      <trkpt lat="43.75987" lon="7.12695">
        <ele>543</ele>
        <time>2018-05-03T14:00:30.000Z</time>
      </trkpt>
      <trkpt lat="43.75986" lon="7.12694">
        <ele>543</ele>
        <time>2018-05-03T14:00:35.000Z</time>
      </trkpt>
      <trkpt lat="43.75986" lon="7.12692">
        <ele>543</ele>
        <time>2018-05-03T14:00:39.000Z</time>
      </trkpt>
      <trkpt lat="43.75986" lon="7.1269">
        <ele>543</ele>
        <time>2018-05-03T14:00:40.000Z</time>
      </trkpt>
      <trkpt lat="43.75984" lon="7.12689">
        <ele>542</ele>
        <time>2018-05-03T14:00:41.000Z</time>
      </trkpt>
      <trkpt lat="43.7598" lon="7.12692">
        <ele>542</ele>
        <time>2018-05-03T14:00:44.000Z</time>
      </trkpt>
      <trkpt lat="43.75976" lon="7.12692">
        <ele>542</ele>
        <time>2018-05-03T14:00:46.000Z</time>
      </trkpt>
      <trkpt lat="43.75974" lon="7.12691">
        <ele>541</ele>
        <time>2018-05-03T14:00:47.000Z</time>
      </trkpt>
      <trkpt lat="43.75972" lon="7.1269">
        <ele>541</ele>
        <time>2018-05-03T14:00:48.000Z</time>
      </trkpt>
      <trkpt lat="43.75968" lon="7.12689">
        <ele>540</ele>
        <time>2018-05-03T14:00:51.000Z</time>
      </trkpt>
      <trkpt lat="43.75964" lon="7.12686">
        <ele>539</ele>
        <time>2018-05-03T14:00:54.000Z</time>
      </trkpt>
      <trkpt lat="43.75965" lon="7.12684">
        <ele>539</ele>
        <time>2018-05-03T14:00:55.000Z</time>
      </trkpt>
      <trkpt lat="43.75966" lon="7.1268">
        <ele>539</ele>
        <time>2018-05-03T14:00:57.000Z</time>
      </trkpt>
      <trkpt lat="43.75968" lon="7.12674">
        <ele>539</ele>
        <time>2018-05-03T14:01:00.000Z</time>
      </trkpt>
      <trkpt lat="43.75968" lon="7.12671">
        <ele>539</ele>
        <time>2018-05-03T14:01:01.000Z</time>
      </trkpt>
      <trkpt lat="43.75967" lon="7.12668">
        <ele>539</ele>
        <time>2018-05-03T14:01:02.000Z</time>
      </trkpt>
      <trkpt lat="43.75964" lon="7.12665">
        <ele>530</ele>
        <time>2018-05-03T14:01:04.000Z</time>
      </trkpt>
      <trkpt lat="43.75961" lon="7.12664">
        <ele>530</ele>
        <time>2018-05-03T14:01:05.000Z</time>
      </trkpt>
      <trkpt lat="43.7596" lon="7.12666">
        <ele>529</ele>
        <time>2018-05-03T14:01:06.000Z</time>
      </trkpt>
      <trkpt lat="43.75957" lon="7.12668">
        <ele>536</ele>
        <time>2018-05-03T14:01:07.000Z</time>
      </trkpt>
      <trkpt lat="43.75955" lon="7.12669">
        <ele>536</ele>
        <time>2018-05-03T14:01:08.000Z</time>
      </trkpt>
      <trkpt lat="43.75953" lon="7.12669">
        <ele>535</ele>
        <time>2018-05-03T14:01:09.000Z</time>
      </trkpt>
      <trkpt lat="43.75953" lon="7.12666">
        <ele>527</ele>
        <time>2018-05-03T14:01:11.000Z</time>
      </trkpt>
      <trkpt lat="43.75956" lon="7.1266">
        <ele>528</ele>
        <time>2018-05-03T14:01:15.000Z</time>
      </trkpt>
      <trkpt lat="43.75957" lon="7.12653">
        <ele>529</ele>
        <time>2018-05-03T14:01:18.000Z</time>
      </trkpt>
      <trkpt lat="43.75956" lon="7.12653">
        <ele>528</ele>
        <time>2018-05-03T14:01:19.000Z</time>
      </trkpt>
      <trkpt lat="43.75954" lon="7.12654">
        <ele>528</ele>
        <time>2018-05-03T14:01:20.000Z</time>
      </trkpt>
      <trkpt lat="43.75949" lon="7.12655">
        <ele>526</ele>
        <time>2018-05-03T14:01:22.000Z</time>
      </trkpt>
      <trkpt lat="43.75947" lon="7.12655">
        <ele>526</ele>
        <time>2018-05-03T14:01:23.000Z</time>
      </trkpt>
      <trkpt lat="43.75944" lon="7.12655">
        <ele>525</ele>
        <time>2018-05-03T14:01:26.000Z</time>
      </trkpt>
      <trkpt lat="43.75943" lon="7.12656">
        <ele>525</ele>
        <time>2018-05-03T14:01:27.000Z</time>
      </trkpt>
      <trkpt lat="43.75942" lon="7.12656">
        <ele>524</ele>
        <time>2018-05-03T14:01:28.000Z</time>
      </trkpt>
      <trkpt lat="43.75937" lon="7.12655">
        <ele>523</ele>
        <time>2018-05-03T14:01:31.000Z</time>
      </trkpt>
      <trkpt lat="43.75936" lon="7.12655">
        <ele>523</ele>
        <time>2018-05-03T14:01:32.000Z</time>
      </trkpt>
      <trkpt lat="43.75931" lon="7.12654">
        <ele>522</ele>
        <time>2018-05-03T14:01:34.000Z</time>
      </trkpt>
      <trkpt lat="43.75929" lon="7.12651">
        <ele>522</ele>
        <time>2018-05-03T14:01:36.000Z</time>
      </trkpt>
      <trkpt lat="43.75929" lon="7.12647">
        <ele>522</ele>
        <time>2018-05-03T14:01:37.000Z</time>
      </trkpt>
      <trkpt lat="43.75927" lon="7.12643">
        <ele>523</ele>
        <time>2018-05-03T14:01:39.000Z</time>
      </trkpt>
      <trkpt lat="43.75925" lon="7.12642">
        <ele>522</ele>
        <time>2018-05-03T14:01:40.000Z</time>
      </trkpt>
      <trkpt lat="43.75923" lon="7.12641">
        <ele>522</ele>
        <time>2018-05-03T14:01:41.000Z</time>
      </trkpt>
      <trkpt lat="43.7592" lon="7.12637">
        <ele>522</ele>
        <time>2018-05-03T14:01:43.000Z</time>
      </trkpt>
      <trkpt lat="43.7592" lon="7.12634">
        <ele>522</ele>
        <time>2018-05-03T14:01:44.000Z</time>
      </trkpt>
      <trkpt lat="43.75922" lon="7.1263">
        <ele>523</ele>
        <time>2018-05-03T14:01:45.000Z</time>
      </trkpt>
      <trkpt lat="43.75924" lon="7.12624">
        <ele>523</ele>
        <time>2018-05-03T14:01:47.000Z</time>
      </trkpt>
      <trkpt lat="43.75922" lon="7.12622">
        <ele>522</ele>
        <time>2018-05-03T14:01:49.000Z</time>
      </trkpt>
      <trkpt lat="43.75921" lon="7.12622">
        <ele>522</ele>
        <time>2018-05-03T14:01:50.000Z</time>
      </trkpt>
      <trkpt lat="43.7592" lon="7.12623">
        <ele>522</ele>
        <time>2018-05-03T14:01:51.000Z</time>
      </trkpt>
      <trkpt lat="43.75917" lon="7.12624">
        <ele>522</ele>
        <time>2018-05-03T14:01:53.000Z</time>
      </trkpt>
      <trkpt lat="43.75916" lon="7.12622">
        <ele>502</ele>
        <time>2018-05-03T14:01:54.000Z</time>
      </trkpt>
      <trkpt lat="43.75915" lon="7.12612">
        <ele>502</ele>
        <time>2018-05-03T14:01:57.000Z</time>
      </trkpt>
      <trkpt lat="43.75913" lon="7.1261">
        <ele>502</ele>
        <time>2018-05-03T14:01:58.000Z</time>
      </trkpt>
      <trkpt lat="43.75909" lon="7.12607">
        <ele>502</ele>
        <time>2018-05-03T14:02:00.000Z</time>
      </trkpt>
      <trkpt lat="43.75907" lon="7.12606">
        <ele>502</ele>
        <time>2018-05-03T14:02:01.000Z</time>
      </trkpt>
      <trkpt lat="43.75904" lon="7.12607">
        <ele>501</ele>
        <time>2018-05-03T14:02:02.000Z</time>
      </trkpt>
      <trkpt lat="43.75897" lon="7.12608">
        <ele>500</ele>
        <time>2018-05-03T14:02:04.000Z</time>
      </trkpt>
      <trkpt lat="43.75889" lon="7.12607">
        <ele>499</ele>
        <time>2018-05-03T14:02:06.000Z</time>
      </trkpt>
      <trkpt lat="43.75881" lon="7.12607">
        <ele>497</ele>
        <time>2018-05-03T14:02:08.000Z</time>
      </trkpt>
      <trkpt lat="43.75878" lon="7.12608">
        <ele>497</ele>
        <time>2018-05-03T14:02:09.000Z</time>
      </trkpt>
      <trkpt lat="43.75876" lon="7.12607">
        <ele>496</ele>
        <time>2018-05-03T14:02:10.000Z</time>
      </trkpt>
      <trkpt lat="43.75871" lon="7.12604">
        <ele>495</ele>
        <time>2018-05-03T14:02:12.000Z</time>
      </trkpt>
      <trkpt lat="43.75867" lon="7.12604">
        <ele>494</ele>
        <time>2018-05-03T14:02:14.000Z</time>
      </trkpt>
      <trkpt lat="43.75865" lon="7.12603">
        <ele>493</ele>
        <time>2018-05-03T14:02:15.000Z</time>
      </trkpt>
      <trkpt lat="43.7586" lon="7.12603">
        <ele>492</ele>
        <time>2018-05-03T14:02:17.000Z</time>
      </trkpt>
      <trkpt lat="43.75858" lon="7.12602">
        <ele>491</ele>
        <time>2018-05-03T14:02:18.000Z</time>
      </trkpt>
      <trkpt lat="43.75856" lon="7.12603">
        <ele>491</ele>
        <time>2018-05-03T14:02:19.000Z</time>
      </trkpt>
      <trkpt lat="43.75853" lon="7.12603">
        <ele>490</ele>
        <time>2018-05-03T14:02:20.000Z</time>
      </trkpt>
      <trkpt lat="43.75846" lon="7.12602">
        <ele>488</ele>
        <time>2018-05-03T14:02:22.000Z</time>
      </trkpt>
      <trkpt lat="43.75841" lon="7.12603">
        <ele>487</ele>
        <time>2018-05-03T14:02:24.000Z</time>
      </trkpt>
      <trkpt lat="43.75832" lon="7.12607">
        <ele>474</ele>
        <time>2018-05-03T14:02:27.000Z</time>
      </trkpt>
      <trkpt lat="43.7583" lon="7.12608">
        <ele>474</ele>
        <time>2018-05-03T14:02:28.000Z</time>
      </trkpt>
      <trkpt lat="43.75825" lon="7.12612">
        <ele>474</ele>
        <time>2018-05-03T14:02:30.000Z</time>
      </trkpt>
      <trkpt lat="43.75821" lon="7.12615">
        <ele>474</ele>
        <time>2018-05-03T14:02:31.000Z</time>
      </trkpt>
      <trkpt lat="43.75818" lon="7.1262">
        <ele>475</ele>
        <time>2018-05-03T14:02:32.000Z</time>
      </trkpt>
      <trkpt lat="43.75814" lon="7.12627">
        <ele>475</ele>
        <time>2018-05-03T14:02:34.000Z</time>
      </trkpt>
      <trkpt lat="43.7581" lon="7.12626">
        <ele>475</ele>
        <time>2018-05-03T14:02:35.000Z</time>
      </trkpt>
      <trkpt lat="43.75802" lon="7.12624">
        <ele>474</ele>
        <time>2018-05-03T14:02:37.000Z</time>
      </trkpt>
      <trkpt lat="43.75796" lon="7.12625">
        <ele>473</ele>
        <time>2018-05-03T14:02:39.000Z</time>
      </trkpt>
      <trkpt lat="43.75791" lon="7.12625">
        <ele>472</ele>
        <time>2018-05-03T14:02:41.000Z</time>
      </trkpt>
      <trkpt lat="43.75781" lon="7.12623">
        <ele>471</ele>
        <time>2018-05-03T14:02:43.000Z</time>
      </trkpt>
      <trkpt lat="43.75773" lon="7.12622">
        <ele>469</ele>
        <time>2018-05-03T14:02:45.000Z</time>
      </trkpt>
      <trkpt lat="43.75765" lon="7.1262">
        <ele>468</ele>
        <time>2018-05-03T14:02:47.000Z</time>
      </trkpt>
      <trkpt lat="43.7576" lon="7.1262">
        <ele>468</ele>
        <time>2018-05-03T14:02:48.000Z</time>
      </trkpt>
      <trkpt lat="43.75756" lon="7.12619">
        <ele>467</ele>
        <time>2018-05-03T14:02:49.000Z</time>
      </trkpt>
      <trkpt lat="43.75754" lon="7.12619">
        <ele>467</ele>
        <time>2018-05-03T14:02:50.000Z</time>
      </trkpt>
      <trkpt lat="43.75751" lon="7.1262">
        <ele>467</ele>
        <time>2018-05-03T14:02:51.000Z</time>
      </trkpt>
      <trkpt lat="43.75749" lon="7.12617">
        <ele>453</ele>
        <time>2018-05-03T14:02:53.000Z</time>
      </trkpt>
      <trkpt lat="43.7575" lon="7.12615">
        <ele>465</ele>
        <time>2018-05-03T14:02:54.000Z</time>
      </trkpt>
      <trkpt lat="43.75753" lon="7.1261">
        <ele>463</ele>
        <time>2018-05-03T14:02:56.000Z</time>
      </trkpt>
      <trkpt lat="43.75753" lon="7.12609">
        <ele>463</ele>
        <time>2018-05-03T14:02:57.000Z</time>
      </trkpt>
      <trkpt lat="43.75749" lon="7.12607">
        <ele>450</ele>
        <time>2018-05-03T14:02:59.000Z</time>
      </trkpt>
      <trkpt lat="43.75745" lon="7.12607">
        <ele>450</ele>
        <time>2018-05-03T14:03:00.000Z</time>
      </trkpt>
      <trkpt lat="43.75742" lon="7.12607">
        <ele>450</ele>
        <time>2018-05-03T14:03:01.000Z</time>
      </trkpt>
      <trkpt lat="43.75739" lon="7.12605">
        <ele>450</ele>
        <time>2018-05-03T14:03:03.000Z</time>
      </trkpt>
      <trkpt lat="43.7574" lon="7.12604">
        <ele>449</ele>
        <time>2018-05-03T14:03:04.000Z</time>
      </trkpt>
      <trkpt lat="43.75745" lon="7.12599">
        <ele>448</ele>
        <time>2018-05-03T14:03:06.000Z</time>
      </trkpt>
      <trkpt lat="43.75749" lon="7.12595">
        <ele>447</ele>
        <time>2018-05-03T14:03:07.000Z</time>
      </trkpt>
      <trkpt lat="43.75752" lon="7.12592">
        <ele>453</ele>
        <time>2018-05-03T14:03:08.000Z</time>
      </trkpt>
      <trkpt lat="43.75755" lon="7.1259">
        <ele>452</ele>
        <time>2018-05-03T14:03:09.000Z</time>
      </trkpt>
      <trkpt lat="43.75756" lon="7.12588">
        <ele>452</ele>
        <time>2018-05-03T14:03:10.000Z</time>
      </trkpt>
      <trkpt lat="43.75757" lon="7.12586">
        <ele>452</ele>
        <time>2018-05-03T14:03:11.000Z</time>
      </trkpt>
      <trkpt lat="43.75761" lon="7.12581">
        <ele>449</ele>
        <time>2018-05-03T14:03:13.000Z</time>
      </trkpt>
      <trkpt lat="43.75762" lon="7.12579">
        <ele>450</ele>
        <time>2018-05-03T14:03:14.000Z</time>
      </trkpt>
      <trkpt lat="43.75765" lon="7.12573">
        <ele>451</ele>
        <time>2018-05-03T14:03:16.000Z</time>
      </trkpt>
      <trkpt lat="43.75767" lon="7.12571">
        <ele>452</ele>
        <time>2018-05-03T14:03:17.000Z</time>
      </trkpt>
      <trkpt lat="43.75768" lon="7.12568">
        <ele>453</ele>
        <time>2018-05-03T14:03:18.000Z</time>
      </trkpt>
      <trkpt lat="43.75766" lon="7.12565">
        <ele>453</ele>
        <time>2018-05-03T14:03:20.000Z</time>
      </trkpt>
      <trkpt lat="43.75764" lon="7.12567">
        <ele>452</ele>
        <time>2018-05-03T14:03:22.000Z</time>
      </trkpt>
      <trkpt lat="43.75763" lon="7.12567">
        <ele>452</ele>
        <time>2018-05-03T14:03:24.000Z</time>
      </trkpt>
      <trkpt lat="43.75763" lon="7.12566">
        <ele>452</ele>
        <time>2018-05-03T14:03:25.000Z</time>
      </trkpt>
      <trkpt lat="43.75762" lon="7.12564">
        <ele>452</ele>
        <time>2018-05-03T14:03:32.000Z</time>
      </trkpt>
      <trkpt lat="43.75762" lon="7.12561">
        <ele>452</ele>
        <time>2018-05-03T14:03:33.000Z</time>
      </trkpt>
      <trkpt lat="43.75763" lon="7.12557">
        <ele>453</ele>
        <time>2018-05-03T14:03:36.000Z</time>
      </trkpt>
      <trkpt lat="43.75763" lon="7.12556">
        <ele>453</ele>
        <time>2018-05-03T14:03:37.000Z</time>
      </trkpt>
      <trkpt lat="43.75761" lon="7.12555">
        <ele>453</ele>
        <time>2018-05-03T14:03:39.000Z</time>
      </trkpt>
      <trkpt lat="43.7576" lon="7.12555">
        <ele>453</ele>
        <time>2018-05-03T14:03:41.000Z</time>
      </trkpt>
      <trkpt lat="43.75759" lon="7.12555">
        <ele>453</ele>
        <time>2018-05-03T14:03:43.000Z</time>
      </trkpt>
      <trkpt lat="43.75759" lon="7.12555">
        <ele>453</ele>
        <time>2018-05-03T14:03:50.000Z</time>
      </trkpt>
      <trkpt lat="43.75757" lon="7.12552">
        <ele>453</ele>
        <time>2018-05-03T14:03:55.000Z</time>
      </trkpt>
      <trkpt lat="43.75756" lon="7.12552">
        <ele>452</ele>
        <time>2018-05-03T14:03:56.000Z</time>
      </trkpt>
      <trkpt lat="43.75753" lon="7.12551">
        <ele>452</ele>
        <time>2018-05-03T14:04:01.000Z</time>
      </trkpt>
      <trkpt lat="43.75752" lon="7.12551">
        <ele>452</ele>
        <time>2018-05-03T14:04:02.000Z</time>
      </trkpt>
      <trkpt lat="43.75749" lon="7.12552">
        <ele>433</ele>
        <time>2018-05-03T14:04:07.000Z</time>
      </trkpt>
      <trkpt lat="43.75748" lon="7.12553">
        <ele>433</ele>
        <time>2018-05-03T14:04:10.000Z</time>
      </trkpt>
      <trkpt lat="43.75747" lon="7.12555">
        <ele>433</ele>
        <time>2018-05-03T14:04:13.000Z</time>
      </trkpt>
      <trkpt lat="43.75746" lon="7.12557">
        <ele>434</ele>
        <time>2018-05-03T14:04:14.000Z</time>
      </trkpt>
      <trkpt lat="43.75741" lon="7.12561">
        <ele>434</ele>
        <time>2018-05-03T14:04:16.000Z</time>
      </trkpt>
      <trkpt lat="43.75731" lon="7.12566">
        <ele>433</ele>
        <time>2018-05-03T14:04:19.000Z</time>
      </trkpt>
      <trkpt lat="43.7573" lon="7.12569">
        <ele>433</ele>
        <time>2018-05-03T14:04:20.000Z</time>
      </trkpt>
      <trkpt lat="43.75727" lon="7.12569">
        <ele>433</ele>
        <time>2018-05-03T14:04:21.000Z</time>
      </trkpt>
      <trkpt lat="43.75726" lon="7.12566">
        <ele>432</ele>
        <time>2018-05-03T14:04:23.000Z</time>
      </trkpt>
      <trkpt lat="43.75724" lon="7.1256">
        <ele>431</ele>
        <time>2018-05-03T14:04:26.000Z</time>
      </trkpt>
      <trkpt lat="43.75722" lon="7.12561">
        <ele>431</ele>
        <time>2018-05-03T14:04:27.000Z</time>
      </trkpt>
      <trkpt lat="43.75721" lon="7.12561">
        <ele>430</ele>
        <time>2018-05-03T14:04:28.000Z</time>
      </trkpt>
      <trkpt lat="43.75718" lon="7.12561">
        <ele>430</ele>
        <time>2018-05-03T14:04:29.000Z</time>
      </trkpt>
      <trkpt lat="43.75715" lon="7.1256">
        <ele>429</ele>
        <time>2018-05-03T14:04:30.000Z</time>
      </trkpt>
      <trkpt lat="43.7571" lon="7.12559">
        <ele>428</ele>
        <time>2018-05-03T14:04:31.000Z</time>
      </trkpt>
      <trkpt lat="43.75705" lon="7.12558">
        <ele>427</ele>
        <time>2018-05-03T14:04:32.000Z</time>
      </trkpt>
      <trkpt lat="43.75701" lon="7.12558">
        <ele>426</ele>
        <time>2018-05-03T14:04:33.000Z</time>
      </trkpt>
      <trkpt lat="43.75696" lon="7.12559">
        <ele>426</ele>
        <time>2018-05-03T14:04:34.000Z</time>
      </trkpt>
      <trkpt lat="43.75691" lon="7.12559">
        <ele>425</ele>
        <time>2018-05-03T14:04:35.000Z</time>
      </trkpt>
      <trkpt lat="43.75686" lon="7.12559">
        <ele>424</ele>
        <time>2018-05-03T14:04:36.000Z</time>
      </trkpt>
      <trkpt lat="43.75682" lon="7.12558">
        <ele>424</ele>
        <time>2018-05-03T14:04:37.000Z</time>
      </trkpt>
      <trkpt lat="43.75676" lon="7.12556">
        <ele>423</ele>
        <time>2018-05-03T14:04:38.000Z</time>
      </trkpt>
      <trkpt lat="43.75672" lon="7.12556">
        <ele>423</ele>
        <time>2018-05-03T14:04:39.000Z</time>
      </trkpt>
      <trkpt lat="43.75666" lon="7.12561">
        <ele>409</ele>
        <time>2018-05-03T14:04:41.000Z</time>
      </trkpt>
      <trkpt lat="43.75665" lon="7.12562">
        <ele>409</ele>
        <time>2018-05-03T14:04:42.000Z</time>
      </trkpt>
      <trkpt lat="43.75658" lon="7.12567">
        <ele>410</ele>
        <time>2018-05-03T14:04:47.000Z</time>
      </trkpt>
      <trkpt lat="43.75658" lon="7.12569">
        <ele>410</ele>
        <time>2018-05-03T14:04:51.000Z</time>
      </trkpt>
      <trkpt lat="43.75651" lon="7.12575">
        <ele>410</ele>
        <time>2018-05-03T14:04:57.000Z</time>
      </trkpt>
      <trkpt lat="43.75648" lon="7.12575">
        <ele>409</ele>
        <time>2018-05-03T14:05:01.000Z</time>
      </trkpt>
      <trkpt lat="43.75648" lon="7.12576">
        <ele>409</ele>
        <time>2018-05-03T14:05:04.000Z</time>
      </trkpt>
      <trkpt lat="43.75647" lon="7.12576">
        <ele>409</ele>
        <time>2018-05-03T14:05:07.000Z</time>
      </trkpt>
      <trkpt lat="43.75642" lon="7.12578">
        <ele>407</ele>
        <time>2018-05-03T14:05:10.000Z</time>
      </trkpt>
      <trkpt lat="43.75638" lon="7.12579">
        <ele>406</ele>
        <time>2018-05-03T14:05:12.000Z</time>
      </trkpt>
      <trkpt lat="43.75634" lon="7.12582">
        <ele>405</ele>
        <time>2018-05-03T14:05:15.000Z</time>
      </trkpt>
      <trkpt lat="43.75628" lon="7.12582">
        <ele>404</ele>
        <time>2018-05-03T14:05:19.000Z</time>
      </trkpt>
      <trkpt lat="43.75625" lon="7.12583">
        <ele>403</ele>
        <time>2018-05-03T14:05:20.000Z</time>
      </trkpt>
      <trkpt lat="43.75618" lon="7.12583">
        <ele>402</ele>
        <time>2018-05-03T14:05:22.000Z</time>
      </trkpt>
      <trkpt lat="43.75615" lon="7.12583">
        <ele>401</ele>
        <time>2018-05-03T14:05:23.000Z</time>
      </trkpt>
      <trkpt lat="43.75611" lon="7.12583">
        <ele>400</ele>
        <time>2018-05-03T14:05:24.000Z</time>
      </trkpt>
      <trkpt lat="43.75608" lon="7.12583">
        <ele>400</ele>
        <time>2018-05-03T14:05:25.000Z</time>
      </trkpt>
      <trkpt lat="43.75606" lon="7.12581">
        <ele>400</ele>
        <time>2018-05-03T14:05:26.000Z</time>
      </trkpt>
      <trkpt lat="43.75601" lon="7.12578">
        <ele>399</ele>
        <time>2018-05-03T14:05:28.000Z</time>
      </trkpt>
      <trkpt lat="43.75595" lon="7.12575">
        <ele>399</ele>
        <time>2018-05-03T14:05:30.000Z</time>
      </trkpt>
      <trkpt lat="43.75589" lon="7.12573">
        <ele>398</ele>
        <time>2018-05-03T14:05:32.000Z</time>
      </trkpt>
      <trkpt lat="43.75587" lon="7.12571">
        <ele>398</ele>
        <time>2018-05-03T14:05:33.000Z</time>
      </trkpt>
      <trkpt lat="43.7558" lon="7.1257">
        <ele>389</ele>
        <time>2018-05-03T14:05:35.000Z</time>
      </trkpt>
      <trkpt lat="43.75576" lon="7.12572">
        <ele>388</ele>
        <time>2018-05-03T14:05:36.000Z</time>
      </trkpt>
      <trkpt lat="43.75571" lon="7.12575">
        <ele>388</ele>
        <time>2018-05-03T14:05:37.000Z</time>
      </trkpt>
      <trkpt lat="43.75566" lon="7.12584">
        <ele>398</ele>
        <time>2018-05-03T14:05:39.000Z</time>
      </trkpt>
      <trkpt lat="43.75564" lon="7.12589">
        <ele>398</ele>
        <time>2018-05-03T14:05:40.000Z</time>
      </trkpt>
      <trkpt lat="43.75561" lon="7.12593">
        <ele>398</ele>
        <time>2018-05-03T14:05:41.000Z</time>
      </trkpt>
      <trkpt lat="43.75554" lon="7.12599">
        <ele>397</ele>
        <time>2018-05-03T14:05:43.000Z</time>
      </trkpt>
      <trkpt lat="43.75551" lon="7.12603">
        <ele>397</ele>
        <time>2018-05-03T14:05:46.000Z</time>
      </trkpt>
      <trkpt lat="43.7555" lon="7.12606">
        <ele>397</ele>
        <time>2018-05-03T14:05:54.000Z</time>
      </trkpt>
      <trkpt lat="43.75549" lon="7.12605">
        <ele>397</ele>
        <time>2018-05-03T14:05:59.000Z</time>
      </trkpt>
      <trkpt lat="43.75551" lon="7.12602">
        <ele>397</ele>
        <time>2018-05-03T14:06:06.000Z</time>
      </trkpt>
      <trkpt lat="43.75552" lon="7.12603">
        <ele>397</ele>
        <time>2018-05-03T14:06:07.000Z</time>
      </trkpt>
      <trkpt lat="43.75552" lon="7.12602">
        <ele>397</ele>
        <time>2018-05-03T14:06:10.000Z</time>
      </trkpt>
      <trkpt lat="43.75553" lon="7.126">
        <ele>397</ele>
        <time>2018-05-03T14:06:11.000Z</time>
      </trkpt>
      <trkpt lat="43.75554" lon="7.12599">
        <ele>397</ele>
        <time>2018-05-03T14:06:12.000Z</time>
      </trkpt>
      <trkpt lat="43.75556" lon="7.12591">
        <ele>397</ele>
        <time>2018-05-03T14:06:15.000Z</time>
      </trkpt>
      <trkpt lat="43.75557" lon="7.12586">
        <ele>397</ele>
        <time>2018-05-03T14:06:16.000Z</time>
      </trkpt>
      <trkpt lat="43.75557" lon="7.12583">
        <ele>383</ele>
        <time>2018-05-03T14:06:17.000Z</time>
      </trkpt>
      <trkpt lat="43.75555" lon="7.12576">
        <ele>382</ele>
        <time>2018-05-03T14:06:19.000Z</time>
      </trkpt>
      <trkpt lat="43.75556" lon="7.12572">
        <ele>382</ele>
        <time>2018-05-03T14:06:20.000Z</time>
      </trkpt>
      <trkpt lat="43.7556" lon="7.12563">
        <ele>381</ele>
        <time>2018-05-03T14:06:22.000Z</time>
      </trkpt>
      <trkpt lat="43.75563" lon="7.12559">
        <ele>381</ele>
        <time>2018-05-03T14:06:23.000Z</time>
      </trkpt>
      <trkpt lat="43.75566" lon="7.12555">
        <ele>380</ele>
        <time>2018-05-03T14:06:24.000Z</time>
      </trkpt>
      <trkpt lat="43.7557" lon="7.12553">
        <ele>380</ele>
        <time>2018-05-03T14:06:26.000Z</time>
      </trkpt>
      <trkpt lat="43.75577" lon="7.12548">
        <ele>380</ele>
        <time>2018-05-03T14:06:29.000Z</time>
      </trkpt>
      <trkpt lat="43.7558" lon="7.12546">
        <ele>379</ele>
        <time>2018-05-03T14:06:30.000Z</time>
      </trkpt>
      <trkpt lat="43.75581" lon="7.12545">
        <ele>379</ele>
        <time>2018-05-03T14:06:31.000Z</time>
      </trkpt>
      <trkpt lat="43.75583" lon="7.12542">
        <ele>379</ele>
        <time>2018-05-03T14:06:32.000Z</time>
      </trkpt>
      <trkpt lat="43.75588" lon="7.12536">
        <ele>392</ele>
        <time>2018-05-03T14:06:34.000Z</time>
      </trkpt>
      <trkpt lat="43.75591" lon="7.1253">
        <ele>390</ele>
        <time>2018-05-03T14:06:36.000Z</time>
      </trkpt>
      <trkpt lat="43.75594" lon="7.12526">
        <ele>389</ele>
        <time>2018-05-03T14:06:37.000Z</time>
      </trkpt>
      <trkpt lat="43.75596" lon="7.12521">
        <ele>388</ele>
        <time>2018-05-03T14:06:38.000Z</time>
      </trkpt>
      <trkpt lat="43.75598" lon="7.12517">
        <ele>387</ele>
        <time>2018-05-03T14:06:39.000Z</time>
      </trkpt>
      <trkpt lat="43.756" lon="7.12514">
        <ele>387</ele>
        <time>2018-05-03T14:06:40.000Z</time>
      </trkpt>
      <trkpt lat="43.75606" lon="7.12506">
        <ele>387</ele>
        <time>2018-05-03T14:06:42.000Z</time>
      </trkpt>
      <trkpt lat="43.75608" lon="7.12502">
        <ele>388</ele>
        <time>2018-05-03T14:06:44.000Z</time>
      </trkpt>
      <trkpt lat="43.75607" lon="7.12498">
        <ele>378</ele>
        <time>2018-05-03T14:06:46.000Z</time>
      </trkpt>
      <trkpt lat="43.75606" lon="7.12498">
        <ele>378</ele>
        <time>2018-05-03T14:06:47.000Z</time>
      </trkpt>
      <trkpt lat="43.75604" lon="7.12498">
        <ele>377</ele>
        <time>2018-05-03T14:06:48.000Z</time>
      </trkpt>
      <trkpt lat="43.75601" lon="7.12495">
        <ele>377</ele>
        <time>2018-05-03T14:06:50.000Z</time>
      </trkpt>
      <trkpt lat="43.75602" lon="7.12493">
        <ele>377</ele>
        <time>2018-05-03T14:06:51.000Z</time>
      </trkpt>
      <trkpt lat="43.75604" lon="7.1249">
        <ele>378</ele>
        <time>2018-05-03T14:06:53.000Z</time>
      </trkpt>
      <trkpt lat="43.75603" lon="7.12488">
        <ele>378</ele>
        <time>2018-05-03T14:06:54.000Z</time>
      </trkpt>
      <trkpt lat="43.75599" lon="7.12487">
        <ele>377</ele>
        <time>2018-05-03T14:06:56.000Z</time>
      </trkpt>
      <trkpt lat="43.75598" lon="7.12487">
        <ele>376</ele>
        <time>2018-05-03T14:06:57.000Z</time>
      </trkpt>
      <trkpt lat="43.75596" lon="7.12489">
        <ele>376</ele>
        <time>2018-05-03T14:06:58.000Z</time>
      </trkpt>
      <trkpt lat="43.75595" lon="7.12485">
        <ele>376</ele>
        <time>2018-05-03T14:07:00.000Z</time>
      </trkpt>
      <trkpt lat="43.75596" lon="7.12482">
        <ele>377</ele>
        <time>2018-05-03T14:07:01.000Z</time>
      </trkpt>
      <trkpt lat="43.75597" lon="7.12479">
        <ele>377</ele>
        <time>2018-05-03T14:07:02.000Z</time>
      </trkpt>
      <trkpt lat="43.75597" lon="7.12478">
        <ele>377</ele>
        <time>2018-05-03T14:07:03.000Z</time>
      </trkpt>
      <trkpt lat="43.75594" lon="7.12479">
        <ele>377</ele>
        <time>2018-05-03T14:07:05.000Z</time>
      </trkpt>
      <trkpt lat="43.75591" lon="7.12477">
        <ele>377</ele>
        <time>2018-05-03T14:07:07.000Z</time>
      </trkpt>
      <trkpt lat="43.75594" lon="7.12475">
        <ele>377</ele>
        <time>2018-05-03T14:07:08.000Z</time>
      </trkpt>
      <trkpt lat="43.75598" lon="7.1247">
        <ele>378</ele>
        <time>2018-05-03T14:07:10.000Z</time>
      </trkpt>
      <trkpt lat="43.75598" lon="7.12467">
        <ele>378</ele>
        <time>2018-05-03T14:07:11.000Z</time>
      </trkpt>
      <trkpt lat="43.75597" lon="7.12467">
        <ele>377</ele>
        <time>2018-05-03T14:07:12.000Z</time>
      </trkpt>
      <trkpt lat="43.75594" lon="7.12468">
        <ele>377</ele>
        <time>2018-05-03T14:07:13.000Z</time>
      </trkpt>
      <trkpt lat="43.75588" lon="7.12468">
        <ele>377</ele>
        <time>2018-05-03T14:07:15.000Z</time>
      </trkpt>
      <trkpt lat="43.75584" lon="7.12468">
        <ele>376</ele>
        <time>2018-05-03T14:07:17.000Z</time>
      </trkpt>
      <trkpt lat="43.75584" lon="7.12464">
        <ele>376</ele>
        <time>2018-05-03T14:07:19.000Z</time>
      </trkpt>
      <trkpt lat="43.75585" lon="7.1246">
        <ele>376</ele>
        <time>2018-05-03T14:07:21.000Z</time>
      </trkpt>
      <trkpt lat="43.75584" lon="7.1246">
        <ele>376</ele>
        <time>2018-05-03T14:07:22.000Z</time>
      </trkpt>
      <trkpt lat="43.75582" lon="7.1246">
        <ele>366</ele>
        <time>2018-05-03T14:07:23.000Z</time>
      </trkpt>
      <trkpt lat="43.75577" lon="7.12461">
        <ele>366</ele>
        <time>2018-05-03T14:07:25.000Z</time>
      </trkpt>
      <trkpt lat="43.75572" lon="7.1246">
        <ele>366</ele>
        <time>2018-05-03T14:07:26.000Z</time>
      </trkpt>
      <trkpt lat="43.75567" lon="7.12462">
        <ele>367</ele>
        <time>2018-05-03T14:07:27.000Z</time>
      </trkpt>
      <trkpt lat="43.75563" lon="7.12467">
        <ele>367</ele>
        <time>2018-05-03T14:07:28.000Z</time>
      </trkpt>
      <trkpt lat="43.75559" lon="7.1247">
        <ele>367</ele>
        <time>2018-05-03T14:07:29.000Z</time>
      </trkpt>
      <trkpt lat="43.75556" lon="7.12473">
        <ele>367</ele>
        <time>2018-05-03T14:07:30.000Z</time>
      </trkpt>
      <trkpt lat="43.75545" lon="7.12485">
        <ele>366</ele>
        <time>2018-05-03T14:07:34.000Z</time>
      </trkpt>
      <trkpt lat="43.75531" lon="7.12508">
        <ele>370</ele>
        <time>2018-05-03T14:07:40.000Z</time>
      </trkpt>
      <trkpt lat="43.7552" lon="7.12515">
        <ele>369</ele>
        <time>2018-05-03T14:07:44.000Z</time>
      </trkpt>
      <trkpt lat="43.75505" lon="7.12524">
        <ele>369</ele>
        <time>2018-05-03T14:07:49.000Z</time>
      </trkpt>
      <trkpt lat="43.75486" lon="7.12523">
        <ele>365</ele>
        <time>2018-05-03T14:07:55.000Z</time>
      </trkpt>
      <trkpt lat="43.75479" lon="7.12529">
        <ele>366</ele>
        <time>2018-05-03T14:07:58.000Z</time>
      </trkpt>
      <trkpt lat="43.75477" lon="7.12533">
        <ele>366</ele>
        <time>2018-05-03T14:07:59.000Z</time>
      </trkpt>
      <trkpt lat="43.75469" lon="7.1255">
        <ele>366</ele>
        <time>2018-05-03T14:08:03.000Z</time>
      </trkpt>
      <trkpt lat="43.75467" lon="7.1256">
        <ele>366</ele>
        <time>2018-05-03T14:08:05.000Z</time>
      </trkpt>
      <trkpt lat="43.75465" lon="7.12576">
        <ele>366</ele>
        <time>2018-05-03T14:08:08.000Z</time>
      </trkpt>
      <trkpt lat="43.75461" lon="7.12586">
        <ele>368</ele>
        <time>2018-05-03T14:08:10.000Z</time>
      </trkpt>
      <trkpt lat="43.75446" lon="7.12609">
        <ele>368</ele>
        <time>2018-05-03T14:08:16.000Z</time>
      </trkpt>
      <trkpt lat="43.75433" lon="7.1263">
        <ele>366</ele>
        <time>2018-05-03T14:08:22.000Z</time>
      </trkpt>
      <trkpt lat="43.75424" lon="7.12659">
        <ele>360</ele>
        <time>2018-05-03T14:08:28.000Z</time>
      </trkpt>
      <trkpt lat="43.75422" lon="7.12665">
        <ele>358</ele>
        <time>2018-05-03T14:08:29.000Z</time>
      </trkpt>
      <trkpt lat="43.75414" lon="7.12695">
        <ele>361</ele>
        <time>2018-05-03T14:08:34.000Z</time>
      </trkpt>
      <trkpt lat="43.75407" lon="7.12727">
        <ele>362</ele>
        <time>2018-05-03T14:08:40.000Z</time>
      </trkpt>
      <trkpt lat="43.75406" lon="7.12733">
        <ele>362</ele>
        <time>2018-05-03T14:08:41.000Z</time>
      </trkpt>
      <trkpt lat="43.75405" lon="7.12745">
        <ele>362</ele>
        <time>2018-05-03T14:08:43.000Z</time>
      </trkpt>
      <trkpt lat="43.75401" lon="7.1275">
        <ele>362</ele>
        <time>2018-05-03T14:08:44.000Z</time>
      </trkpt>
      <trkpt lat="43.75397" lon="7.12754">
        <ele>363</ele>
        <time>2018-05-03T14:08:45.000Z</time>
      </trkpt>
      <trkpt lat="43.7539" lon="7.12768">
        <ele>363</ele>
        <time>2018-05-03T14:08:48.000Z</time>
      </trkpt>
      <trkpt lat="43.75388" lon="7.12774">
        <ele>363</ele>
        <time>2018-05-03T14:08:49.000Z</time>
      </trkpt>
      <trkpt lat="43.75376" lon="7.128">
        <ele>363</ele>
        <time>2018-05-03T14:08:54.000Z</time>
      </trkpt>
      <trkpt lat="43.75367" lon="7.12821">
        <ele>362</ele>
        <time>2018-05-03T14:08:58.000Z</time>
      </trkpt>
      <trkpt lat="43.75364" lon="7.12825">
        <ele>361</ele>
        <time>2018-05-03T14:08:59.000Z</time>
      </trkpt>
      <trkpt lat="43.7535" lon="7.12841">
        <ele>361</ele>
        <time>2018-05-03T14:09:03.000Z</time>
      </trkpt>
      <trkpt lat="43.75341" lon="7.12853">
        <ele>361</ele>
        <time>2018-05-03T14:09:06.000Z</time>
      </trkpt>
      <trkpt lat="43.75334" lon="7.12872">
        <ele>364</ele>
        <time>2018-05-03T14:09:10.000Z</time>
      </trkpt>
      <trkpt lat="43.75328" lon="7.12908">
        <ele>353</ele>
        <time>2018-05-03T14:09:17.000Z</time>
      </trkpt>
      <trkpt lat="43.75323" lon="7.12923">
        <ele>356</ele>
        <time>2018-05-03T14:09:20.000Z</time>
      </trkpt>
      <trkpt lat="43.75316" lon="7.12929">
        <ele>357</ele>
        <time>2018-05-03T14:09:22.000Z</time>
      </trkpt>
      <trkpt lat="43.75305" lon="7.12943">
        <ele>358</ele>
        <time>2018-05-03T14:09:26.000Z</time>
      </trkpt>
      <trkpt lat="43.75304" lon="7.12949">
        <ele>358</ele>
        <time>2018-05-03T14:09:27.000Z</time>
      </trkpt>
      <trkpt lat="43.75293" lon="7.12961">
        <ele>358</ele>
        <time>2018-05-03T14:09:30.000Z</time>
      </trkpt>
      <trkpt lat="43.75288" lon="7.12961">
        <ele>358</ele>
        <time>2018-05-03T14:09:31.000Z</time>
      </trkpt>
      <trkpt lat="43.75273" lon="7.12955">
        <ele>355</ele>
        <time>2018-05-03T14:09:34.000Z</time>
      </trkpt>
      <trkpt lat="43.75268" lon="7.12953">
        <ele>354</ele>
        <time>2018-05-03T14:09:35.000Z</time>
      </trkpt>
      <trkpt lat="43.75263" lon="7.12951">
        <ele>354</ele>
        <time>2018-05-03T14:09:36.000Z</time>
      </trkpt>
      <trkpt lat="43.75257" lon="7.1295">
        <ele>353</ele>
        <time>2018-05-03T14:09:37.000Z</time>
      </trkpt>
      <trkpt lat="43.75246" lon="7.12948">
        <ele>342</ele>
        <time>2018-05-03T14:09:39.000Z</time>
      </trkpt>
      <trkpt lat="43.75242" lon="7.12945">
        <ele>341</ele>
        <time>2018-05-03T14:09:40.000Z</time>
      </trkpt>
      <trkpt lat="43.75237" lon="7.12941">
        <ele>341</ele>
        <time>2018-05-03T14:09:41.000Z</time>
      </trkpt>
      <trkpt lat="43.75227" lon="7.12933">
        <ele>340</ele>
        <time>2018-05-03T14:09:43.000Z</time>
      </trkpt>
      <trkpt lat="43.75221" lon="7.12932">
        <ele>339</ele>
        <time>2018-05-03T14:09:44.000Z</time>
      </trkpt>
      <trkpt lat="43.75201" lon="7.12933">
        <ele>338</ele>
        <time>2018-05-03T14:09:47.000Z</time>
      </trkpt>
      <trkpt lat="43.75195" lon="7.12936">
        <ele>337</ele>
        <time>2018-05-03T14:09:48.000Z</time>
      </trkpt>
      <trkpt lat="43.75189" lon="7.12942">
        <ele>337</ele>
        <time>2018-05-03T14:09:49.000Z</time>
      </trkpt>
      <trkpt lat="43.75183" lon="7.12948">
        <ele>337</ele>
        <time>2018-05-03T14:09:50.000Z</time>
      </trkpt>
      <trkpt lat="43.75178" lon="7.12956">
        <ele>338</ele>
        <time>2018-05-03T14:09:51.000Z</time>
      </trkpt>
      <trkpt lat="43.75163" lon="7.1298">
        <ele>334</ele>
        <time>2018-05-03T14:09:54.000Z</time>
      </trkpt>
      <trkpt lat="43.75158" lon="7.12987">
        <ele>335</ele>
        <time>2018-05-03T14:09:55.000Z</time>
      </trkpt>
      <trkpt lat="43.75153" lon="7.12991">
        <ele>334</ele>
        <time>2018-05-03T14:09:56.000Z</time>
      </trkpt>
      <trkpt lat="43.75147" lon="7.12993">
        <ele>333</ele>
        <time>2018-05-03T14:09:57.000Z</time>
      </trkpt>
      <trkpt lat="43.75135" lon="7.12989">
        <ele>331</ele>
        <time>2018-05-03T14:09:59.000Z</time>
      </trkpt>
      <trkpt lat="43.75124" lon="7.12981">
        <ele>330</ele>
        <time>2018-05-03T14:10:01.000Z</time>
      </trkpt>
      <trkpt lat="43.75117" lon="7.12978">
        <ele>329</ele>
        <time>2018-05-03T14:10:02.000Z</time>
      </trkpt>
      <trkpt lat="43.75102" lon="7.12981">
        <ele>328</ele>
        <time>2018-05-03T14:10:04.000Z</time>
      </trkpt>
      <trkpt lat="43.75096" lon="7.12986">
        <ele>328</ele>
        <time>2018-05-03T14:10:05.000Z</time>
      </trkpt>
      <trkpt lat="43.75089" lon="7.12991">
        <ele>328</ele>
        <time>2018-05-03T14:10:06.000Z</time>
      </trkpt>
      <trkpt lat="43.75082" lon="7.12997">
        <ele>326</ele>
        <time>2018-05-03T14:10:07.000Z</time>
      </trkpt>
      <trkpt lat="43.75069" lon="7.13006">
        <ele>328</ele>
        <time>2018-05-03T14:10:09.000Z</time>
      </trkpt>
      <trkpt lat="43.75058" lon="7.13011">
        <ele>328</ele>
        <time>2018-05-03T14:10:11.000Z</time>
      </trkpt>
      <trkpt lat="43.75052" lon="7.13011">
        <ele>328</ele>
        <time>2018-05-03T14:10:12.000Z</time>
      </trkpt>
      <trkpt lat="43.75035" lon="7.13013">
        <ele>326</ele>
        <time>2018-05-03T14:10:15.000Z</time>
      </trkpt>
      <trkpt lat="43.75024" lon="7.13009">
        <ele>324</ele>
        <time>2018-05-03T14:10:17.000Z</time>
      </trkpt>
      <trkpt lat="43.75017" lon="7.1301">
        <ele>323</ele>
        <time>2018-05-03T14:10:18.000Z</time>
      </trkpt>
      <trkpt lat="43.75003" lon="7.13017">
        <ele>323</ele>
        <time>2018-05-03T14:10:20.000Z</time>
      </trkpt>
      <trkpt lat="43.74995" lon="7.13023">
        <ele>316</ele>
        <time>2018-05-03T14:10:21.000Z</time>
      </trkpt>
      <trkpt lat="43.74987" lon="7.13028">
        <ele>316</ele>
        <time>2018-05-03T14:10:22.000Z</time>
      </trkpt>
      <trkpt lat="43.74972" lon="7.13038">
        <ele>316</ele>
        <time>2018-05-03T14:10:24.000Z</time>
      </trkpt>
      <trkpt lat="43.74959" lon="7.13044">
        <ele>315</ele>
        <time>2018-05-03T14:10:26.000Z</time>
      </trkpt>
      <trkpt lat="43.74949" lon="7.1305">
        <ele>314</ele>
        <time>2018-05-03T14:10:28.000Z</time>
      </trkpt>
      <trkpt lat="43.74946" lon="7.13054">
        <ele>314</ele>
        <time>2018-05-03T14:10:29.000Z</time>
      </trkpt>
      <trkpt lat="43.74944" lon="7.13057">
        <ele>313</ele>
        <time>2018-05-03T14:10:30.000Z</time>
      </trkpt>
      <trkpt lat="43.74937" lon="7.13063">
        <ele>312</ele>
        <time>2018-05-03T14:10:33.000Z</time>
      </trkpt>
      <trkpt lat="43.74936" lon="7.13063">
        <ele>312</ele>
        <time>2018-05-03T14:10:34.000Z</time>
      </trkpt>
      <trkpt lat="43.74936" lon="7.13063">
        <ele>312</ele>
        <time>2018-05-03T14:10:38.000Z</time>
      </trkpt>
      <trkpt lat="43.74936" lon="7.13063">
        <ele>312</ele>
        <time>2018-05-03T14:10:51.000Z</time>
      </trkpt>
      <trkpt lat="43.74934" lon="7.13064">
        <ele>312</ele>
        <time>2018-05-03T14:11:07.000Z</time>
      </trkpt>
      <trkpt lat="43.74932" lon="7.13068">
        <ele>311</ele>
        <time>2018-05-03T14:11:19.000Z</time>
      </trkpt>
      <trkpt lat="43.74931" lon="7.13071">
        <ele>311</ele>
        <time>2018-05-03T14:11:20.000Z</time>
      </trkpt>
      <trkpt lat="43.74931" lon="7.13083">
        <ele>310</ele>
        <time>2018-05-03T14:11:23.000Z</time>
      </trkpt>
      <trkpt lat="43.7493" lon="7.13098">
        <ele>319</ele>
        <time>2018-05-03T14:11:26.000Z</time>
      </trkpt>
      <trkpt lat="43.74928" lon="7.13106">
        <ele>321</ele>
        <time>2018-05-03T14:11:28.000Z</time>
      </trkpt>
      <trkpt lat="43.74917" lon="7.13125">
        <ele>325</ele>
        <time>2018-05-03T14:11:33.000Z</time>
      </trkpt>
      <trkpt lat="43.74897" lon="7.13135">
        <ele>315</ele>
        <time>2018-05-03T14:11:39.000Z</time>
      </trkpt>
      <trkpt lat="43.74868" lon="7.13141">
        <ele>312</ele>
        <time>2018-05-03T14:11:47.000Z</time>
      </trkpt>
      <trkpt lat="43.74846" lon="7.13155">
        <ele>310</ele>
        <time>2018-05-03T14:11:53.000Z</time>
      </trkpt>
      <trkpt lat="43.74822" lon="7.13186">
        <ele>308</ele>
        <time>2018-05-03T14:12:00.000Z</time>
      </trkpt>
      <trkpt lat="43.74795" lon="7.13223">
        <ele>309</ele>
        <time>2018-05-03T14:12:08.000Z</time>
      </trkpt>
      <trkpt lat="43.74775" lon="7.1326">
        <ele>315</ele>
        <time>2018-05-03T14:12:15.000Z</time>
      </trkpt>
      <trkpt lat="43.74746" lon="7.13328">
        <ele>309</ele>
        <time>2018-05-03T14:12:26.000Z</time>
      </trkpt>
      <trkpt lat="43.74718" lon="7.13392">
        <ele>312</ele>
        <time>2018-05-03T14:12:36.000Z</time>
      </trkpt>
      <trkpt lat="43.74694" lon="7.13436">
        <ele>321</ele>
        <time>2018-05-03T14:12:43.000Z</time>
      </trkpt>
      <trkpt lat="43.74667" lon="7.13465">
        <ele>323</ele>
        <time>2018-05-03T14:12:49.000Z</time>
      </trkpt>
      <trkpt lat="43.74635" lon="7.135">
        <ele>306</ele>
        <time>2018-05-03T14:12:56.000Z</time>
      </trkpt>
      <trkpt lat="43.74625" lon="7.13507">
        <ele>318</ele>
        <time>2018-05-03T14:12:58.000Z</time>
      </trkpt>
      <trkpt lat="43.7461" lon="7.13516">
        <ele>315</ele>
        <time>2018-05-03T14:13:01.000Z</time>
      </trkpt>
      <trkpt lat="43.74601" lon="7.13525">
        <ele>315</ele>
        <time>2018-05-03T14:13:03.000Z</time>
      </trkpt>
      <trkpt lat="43.74595" lon="7.13532">
        <ele>316</ele>
        <time>2018-05-03T14:13:05.000Z</time>
      </trkpt>
      <trkpt lat="43.74589" lon="7.13542">
        <ele>317</ele>
        <time>2018-05-03T14:13:06.000Z</time>
      </trkpt>
      <trkpt lat="43.74564" lon="7.13594">
        <ele>312</ele>
        <time>2018-05-03T14:13:14.000Z</time>
      </trkpt>
      <trkpt lat="43.74534" lon="7.13656">
        <ele>309</ele>
        <time>2018-05-03T14:13:24.000Z</time>
      </trkpt>
      <trkpt lat="43.74504" lon="7.13718">
        <ele>322</ele>
        <time>2018-05-03T14:13:34.000Z</time>
      </trkpt>
      <trkpt lat="43.74501" lon="7.13723">
        <ele>322</ele>
        <time>2018-05-03T14:13:35.000Z</time>
      </trkpt>
      <trkpt lat="43.74478" lon="7.13755">
        <ele>314</ele>
        <time>2018-05-03T14:13:41.000Z</time>
      </trkpt>
      <trkpt lat="43.74453" lon="7.13783">
        <ele>312</ele>
        <time>2018-05-03T14:13:47.000Z</time>
      </trkpt>
      <trkpt lat="43.74416" lon="7.13829">
        <ele>307</ele>
        <time>2018-05-03T14:13:56.000Z</time>
      </trkpt>
      <trkpt lat="43.74386" lon="7.13885">
        <ele>303</ele>
        <time>2018-05-03T14:14:05.000Z</time>
      </trkpt>
      <trkpt lat="43.74382" lon="7.13901">
        <ele>304</ele>
        <time>2018-05-03T14:14:07.000Z</time>
      </trkpt>
      <trkpt lat="43.74379" lon="7.13917">
        <ele>310</ele>
        <time>2018-05-03T14:14:09.000Z</time>
      </trkpt>
      <trkpt lat="43.74378" lon="7.13925">
        <ele>310</ele>
        <time>2018-05-03T14:14:10.000Z</time>
      </trkpt>
      <trkpt lat="43.7437" lon="7.13999">
        <ele>310</ele>
        <time>2018-05-03T14:14:19.000Z</time>
      </trkpt>
      <trkpt lat="43.74369" lon="7.14007">
        <ele>312</ele>
        <time>2018-05-03T14:14:20.000Z</time>
      </trkpt>
      <trkpt lat="43.74363" lon="7.14087">
        <ele>310</ele>
        <time>2018-05-03T14:14:30.000Z</time>
      </trkpt>
      <trkpt lat="43.74363" lon="7.14095">
        <ele>311</ele>
        <time>2018-05-03T14:14:31.000Z</time>
      </trkpt>
      <trkpt lat="43.74368" lon="7.14142">
        <ele>312</ele>
        <time>2018-05-03T14:14:37.000Z</time>
      </trkpt>
      <trkpt lat="43.74371" lon="7.14157">
        <ele>312</ele>
        <time>2018-05-03T14:14:39.000Z</time>
      </trkpt>
      <trkpt lat="43.74372" lon="7.1419">
        <ele>312</ele>
        <time>2018-05-03T14:14:43.000Z</time>
      </trkpt>
      <trkpt lat="43.7437" lon="7.14207">
        <ele>312</ele>
        <time>2018-05-03T14:14:45.000Z</time>
      </trkpt>
      <trkpt lat="43.74363" lon="7.14229">
        <ele>311</ele>
        <time>2018-05-03T14:14:48.000Z</time>
      </trkpt>
      <trkpt lat="43.74359" lon="7.14244">
        <ele>310</ele>
        <time>2018-05-03T14:14:50.000Z</time>
      </trkpt>
      <trkpt lat="43.74355" lon="7.14259">
        <ele>310</ele>
        <time>2018-05-03T14:14:52.000Z</time>
      </trkpt>
      <trkpt lat="43.74351" lon="7.14282">
        <ele>311</ele>
        <time>2018-05-03T14:14:55.000Z</time>
      </trkpt>
      <trkpt lat="43.7435" lon="7.14331">
        <ele>311</ele>
        <time>2018-05-03T14:15:01.000Z</time>
      </trkpt>
      <trkpt lat="43.74347" lon="7.14387">
        <ele>313</ele>
        <time>2018-05-03T14:15:08.000Z</time>
      </trkpt>
      <trkpt lat="43.74345" lon="7.14395">
        <ele>312</ele>
        <time>2018-05-03T14:15:09.000Z</time>
      </trkpt>
      <trkpt lat="43.74339" lon="7.1442">
        <ele>310</ele>
        <time>2018-05-03T14:15:13.000Z</time>
      </trkpt>
      <trkpt lat="43.74337" lon="7.14426">
        <ele>311</ele>
        <time>2018-05-03T14:15:14.000Z</time>
      </trkpt>
      <trkpt lat="43.74333" lon="7.14435">
        <ele>308</ele>
        <time>2018-05-03T14:15:16.000Z</time>
      </trkpt>
      <trkpt lat="43.74325" lon="7.14449">
        <ele>307</ele>
        <time>2018-05-03T14:15:19.000Z</time>
      </trkpt>
      <trkpt lat="43.74328" lon="7.14465">
        <ele>307</ele>
        <time>2018-05-03T14:15:22.000Z</time>
      </trkpt>
      <trkpt lat="43.74332" lon="7.14467">
        <ele>307</ele>
        <time>2018-05-03T14:15:23.000Z</time>
      </trkpt>
      <trkpt lat="43.74339" lon="7.14467">
        <ele>312</ele>
        <time>2018-05-03T14:15:25.000Z</time>
      </trkpt>
      <trkpt lat="43.74345" lon="7.14472">
        <ele>312</ele>
        <time>2018-05-03T14:15:28.000Z</time>
      </trkpt>
      <trkpt lat="43.74345" lon="7.14476">
        <ele>312</ele>
        <time>2018-05-03T14:15:32.000Z</time>
      </trkpt>
      <trkpt lat="43.74344" lon="7.14475">
        <ele>312</ele>
        <time>2018-05-03T14:15:33.000Z</time>
      </trkpt>
      <trkpt lat="43.74345" lon="7.14475">
        <ele>312</ele>
        <time>2018-05-03T14:15:36.000Z</time>
      </trkpt>
      <trkpt lat="43.74345" lon="7.14476">
        <ele>312</ele>
        <time>2018-05-03T14:15:37.000Z</time>
      </trkpt>
      <trkpt lat="43.74345" lon="7.14476">
        <ele>312</ele>
        <time>2018-05-03T14:15:40.000Z</time>
      </trkpt>
      <trkpt lat="43.74345" lon="7.14478">
        <ele>312</ele>
        <time>2018-05-03T14:15:47.000Z</time>
      </trkpt>
      <trkpt lat="43.74344" lon="7.14477">
        <ele>312</ele>
        <time>2018-05-03T14:15:48.000Z</time>
      </trkpt>
      <trkpt lat="43.74344" lon="7.14476">
        <ele>312</ele>
        <time>2018-05-03T14:15:49.000Z</time>
      </trkpt>
      <trkpt lat="43.7434" lon="7.14474">
        <ele>312</ele>
        <time>2018-05-03T14:15:52.000Z</time>
      </trkpt>
      <trkpt lat="43.74332" lon="7.14474">
        <ele>307</ele>
        <time>2018-05-03T14:15:55.000Z</time>
      </trkpt>
      <trkpt lat="43.74329" lon="7.14472">
        <ele>307</ele>
        <time>2018-05-03T14:15:56.000Z</time>
      </trkpt>
      <trkpt lat="43.74318" lon="7.14461">
        <ele>307</ele>
        <time>2018-05-03T14:16:00.000Z</time>
      </trkpt>
      <trkpt lat="43.74307" lon="7.1446">
        <ele>306</ele>
        <time>2018-05-03T14:16:04.000Z</time>
      </trkpt>
      <trkpt lat="43.74292" lon="7.14463">
        <ele>306</ele>
        <time>2018-05-03T14:16:08.000Z</time>
      </trkpt>
      <trkpt lat="43.74284" lon="7.14466">
        <ele>306</ele>
        <time>2018-05-03T14:16:10.000Z</time>
      </trkpt>
      <trkpt lat="43.74281" lon="7.14468">
        <ele>306</ele>
        <time>2018-05-03T14:16:11.000Z</time>
      </trkpt>
      <trkpt lat="43.74267" lon="7.1448">
        <ele>305</ele>
        <time>2018-05-03T14:16:15.000Z</time>
      </trkpt>
      <trkpt lat="43.74257" lon="7.14501">
        <ele>303</ele>
        <time>2018-05-03T14:16:19.000Z</time>
      </trkpt>
      <trkpt lat="43.74245" lon="7.14514">
        <ele>303</ele>
        <time>2018-05-03T14:16:22.000Z</time>
      </trkpt>
      <trkpt lat="43.74243" lon="7.14519">
        <ele>303</ele>
        <time>2018-05-03T14:16:23.000Z</time>
      </trkpt>
      <trkpt lat="43.74242" lon="7.14527">
        <ele>302</ele>
        <time>2018-05-03T14:16:24.000Z</time>
      </trkpt>
      <trkpt lat="43.74246" lon="7.14532">
        <ele>302</ele>
        <time>2018-05-03T14:16:25.000Z</time>
      </trkpt>
      <trkpt lat="43.74251" lon="7.14533">
        <ele>302</ele>
        <time>2018-05-03T14:16:26.000Z</time>
      </trkpt>
      <trkpt lat="43.74256" lon="7.14534">
        <ele>302</ele>
        <time>2018-05-03T14:16:27.000Z</time>
      </trkpt>
      <trkpt lat="43.74261" lon="7.14534">
        <ele>302</ele>
        <time>2018-05-03T14:16:29.000Z</time>
      </trkpt>
      <trkpt lat="43.74262" lon="7.14534">
        <ele>302</ele>
        <time>2018-05-03T14:16:32.000Z</time>
      </trkpt>
      <trkpt lat="43.74261" lon="7.14535">
        <ele>302</ele>
        <time>2018-05-03T14:16:37.000Z</time>
      </trkpt>
      <trkpt lat="43.74262" lon="7.14534">
        <ele>302</ele>
        <time>2018-05-03T14:16:40.000Z</time>
      </trkpt>
    </trkseg>
  </trk>
</gpx>